<?xml version="1.0" encoding="UTF-8" standalone="no" ?>
<gpx xmlns="http://www.topografix.com/GPX/1/1" xmlns:xsi="http://www.w3.org/2001/XMLSchema-instance" xsi:schemaLocation="http://www.topografix.com/GPX/1/1 http://www.topografix.com/GPX/1/1/gpx.xsd" version="1.1" creator="VisuGPX - https://www.visugpx.com">
  <metadata>
    <name>Petite Sambuy</name>
    <desc><![CDATA[Sortie CAF
Petite Sambuy et remontée dans la combe du Sambuy pour profiter de la belle journée et de la bonne neige]]></desc>
  </metadata>
  <trk>
    <name><![CDATA[Faverges-Seythenex Ski de rando]]></name>
    <trkseg>
      <trkpt lat="45.7133" lon="6.27431">
        <ele>1135</ele>
        <time>2022-02-23T07:47:11.000Z</time>
      </trkpt>
      <trkpt lat="45.71329" lon="6.27433">
        <ele>1136.4000244141</ele>
        <time>2022-02-23T07:47:17.000Z</time>
      </trkpt>
      <trkpt lat="45.71329" lon="6.27433">
        <ele>1136.5999755859</ele>
        <time>2022-02-23T07:47:18.000Z</time>
      </trkpt>
      <trkpt lat="45.71328" lon="6.27435">
        <ele>1136.8000488281</ele>
        <time>2022-02-23T07:47:24.000Z</time>
      </trkpt>
      <trkpt lat="45.71327" lon="6.27434">
        <ele>1137.4000244141</ele>
        <time>2022-02-23T07:47:27.000Z</time>
      </trkpt>
      <trkpt lat="45.71326" lon="6.27434">
        <ele>1137.8000488281</ele>
        <time>2022-02-23T07:47:30.000Z</time>
      </trkpt>
      <trkpt lat="45.71325" lon="6.27435">
        <ele>1138.1999511719</ele>
        <time>2022-02-23T07:47:32.000Z</time>
      </trkpt>
      <trkpt lat="45.71325" lon="6.27435">
        <ele>1138.1999511719</ele>
        <time>2022-02-23T07:47:33.000Z</time>
      </trkpt>
      <trkpt lat="45.71325" lon="6.27435">
        <ele>1138.4000244141</ele>
        <time>2022-02-23T07:47:34.000Z</time>
      </trkpt>
      <trkpt lat="45.71324" lon="6.27435">
        <ele>1139.1999511719</ele>
        <time>2022-02-23T07:47:36.000Z</time>
      </trkpt>
      <trkpt lat="45.71324" lon="6.27435">
        <ele>1139.5999755859</ele>
        <time>2022-02-23T07:47:37.000Z</time>
      </trkpt>
      <trkpt lat="45.71323" lon="6.27433">
        <ele>1140.1999511719</ele>
        <time>2022-02-23T07:47:41.000Z</time>
      </trkpt>
      <trkpt lat="45.71322" lon="6.27432">
        <ele>1140.4000244141</ele>
        <time>2022-02-23T07:47:43.000Z</time>
      </trkpt>
      <trkpt lat="45.71322" lon="6.27432">
        <ele>1140.1999511719</ele>
        <time>2022-02-23T07:47:45.000Z</time>
      </trkpt>
      <trkpt lat="45.71322" lon="6.27432">
        <ele>1140.1999511719</ele>
        <time>2022-02-23T07:47:47.000Z</time>
      </trkpt>
      <trkpt lat="45.71321" lon="6.27432">
        <ele>1140.1999511719</ele>
        <time>2022-02-23T07:47:49.000Z</time>
      </trkpt>
      <trkpt lat="45.71321" lon="6.27432">
        <ele>1140.1999511719</ele>
        <time>2022-02-23T07:47:50.000Z</time>
      </trkpt>
      <trkpt lat="45.71321" lon="6.27431">
        <ele>1140.1999511719</ele>
        <time>2022-02-23T07:47:51.000Z</time>
      </trkpt>
      <trkpt lat="45.71321" lon="6.27431">
        <ele>1140.1999511719</ele>
        <time>2022-02-23T07:47:52.000Z</time>
      </trkpt>
      <trkpt lat="45.7132" lon="6.27431">
        <ele>1140.1999511719</ele>
        <time>2022-02-23T07:47:58.000Z</time>
      </trkpt>
      <trkpt lat="45.7132" lon="6.27431">
        <ele>1140.4000244141</ele>
        <time>2022-02-23T07:48:00.000Z</time>
      </trkpt>
      <trkpt lat="45.71321" lon="6.27431">
        <ele>1140.1999511719</ele>
        <time>2022-02-23T07:48:09.000Z</time>
      </trkpt>
      <trkpt lat="45.71321" lon="6.27431">
        <ele>1140.1999511719</ele>
        <time>2022-02-23T07:48:12.000Z</time>
      </trkpt>
      <trkpt lat="45.71321" lon="6.27431">
        <ele>1140.4000244141</ele>
        <time>2022-02-23T07:48:19.000Z</time>
      </trkpt>
      <trkpt lat="45.71322" lon="6.27431">
        <ele>1140.4000244141</ele>
        <time>2022-02-23T07:48:20.000Z</time>
      </trkpt>
      <trkpt lat="45.71322" lon="6.27431">
        <ele>1140.5999755859</ele>
        <time>2022-02-23T07:48:23.000Z</time>
      </trkpt>
      <trkpt lat="45.71322" lon="6.27431">
        <ele>1140.5999755859</ele>
        <time>2022-02-23T07:48:24.000Z</time>
      </trkpt>
      <trkpt lat="45.71322" lon="6.27431">
        <ele>1140.5999755859</ele>
        <time>2022-02-23T07:48:28.000Z</time>
      </trkpt>
      <trkpt lat="45.71322" lon="6.27432">
        <ele>1140.5999755859</ele>
        <time>2022-02-23T07:48:30.000Z</time>
      </trkpt>
      <trkpt lat="45.71322" lon="6.27432">
        <ele>1140.8000488281</ele>
        <time>2022-02-23T07:48:34.000Z</time>
      </trkpt>
      <trkpt lat="45.71323" lon="6.27432">
        <ele>1140.4000244141</ele>
        <time>2022-02-23T07:48:41.000Z</time>
      </trkpt>
      <trkpt lat="45.71323" lon="6.27432">
        <ele>1140.4000244141</ele>
        <time>2022-02-23T07:48:47.000Z</time>
      </trkpt>
      <trkpt lat="45.71323" lon="6.27431">
        <ele>1140.8000488281</ele>
        <time>2022-02-23T07:48:50.000Z</time>
      </trkpt>
      <trkpt lat="45.71324" lon="6.27433">
        <ele>1140.5999755859</ele>
        <time>2022-02-23T07:48:56.000Z</time>
      </trkpt>
      <trkpt lat="45.71323" lon="6.2743">
        <ele>1140.5999755859</ele>
        <time>2022-02-23T07:49:00.000Z</time>
      </trkpt>
      <trkpt lat="45.71323" lon="6.27428">
        <ele>1140.5999755859</ele>
        <time>2022-02-23T07:49:03.000Z</time>
      </trkpt>
      <trkpt lat="45.71324" lon="6.27427">
        <ele>1140.8000488281</ele>
        <time>2022-02-23T07:49:10.000Z</time>
      </trkpt>
      <trkpt lat="45.71324" lon="6.27427">
        <ele>1141.1999511719</ele>
        <time>2022-02-23T07:49:13.000Z</time>
      </trkpt>
      <trkpt lat="45.71325" lon="6.27427">
        <ele>1141.4000244141</ele>
        <time>2022-02-23T07:49:20.000Z</time>
      </trkpt>
      <trkpt lat="45.71325" lon="6.27428">
        <ele>1141.5999755859</ele>
        <time>2022-02-23T07:49:22.000Z</time>
      </trkpt>
      <trkpt lat="45.71325" lon="6.27428">
        <ele>1141.1999511719</ele>
        <time>2022-02-23T07:49:26.000Z</time>
      </trkpt>
      <trkpt lat="45.71325" lon="6.27428">
        <ele>1141.1999511719</ele>
        <time>2022-02-23T07:49:27.000Z</time>
      </trkpt>
      <trkpt lat="45.71325" lon="6.27429">
        <ele>1141</ele>
        <time>2022-02-23T07:49:29.000Z</time>
      </trkpt>
      <trkpt lat="45.71326" lon="6.27427">
        <ele>1141</ele>
        <time>2022-02-23T07:49:33.000Z</time>
      </trkpt>
      <trkpt lat="45.71328" lon="6.27421">
        <ele>1141.8000488281</ele>
        <time>2022-02-23T07:49:39.000Z</time>
      </trkpt>
      <trkpt lat="45.71329" lon="6.27418">
        <ele>1142.1999511719</ele>
        <time>2022-02-23T07:49:42.000Z</time>
      </trkpt>
      <trkpt lat="45.71329" lon="6.27417">
        <ele>1142.4000244141</ele>
        <time>2022-02-23T07:49:43.000Z</time>
      </trkpt>
      <trkpt lat="45.71329" lon="6.27416">
        <ele>1142.4000244141</ele>
        <time>2022-02-23T07:49:44.000Z</time>
      </trkpt>
      <trkpt lat="45.71329" lon="6.27414">
        <ele>1142.5999755859</ele>
        <time>2022-02-23T07:49:46.000Z</time>
      </trkpt>
      <trkpt lat="45.7133" lon="6.27412">
        <ele>1142.5999755859</ele>
        <time>2022-02-23T07:49:48.000Z</time>
      </trkpt>
      <trkpt lat="45.7133" lon="6.2741">
        <ele>1143</ele>
        <time>2022-02-23T07:49:50.000Z</time>
      </trkpt>
      <trkpt lat="45.71331" lon="6.27405">
        <ele>1143.5999755859</ele>
        <time>2022-02-23T07:49:54.000Z</time>
      </trkpt>
      <trkpt lat="45.71331" lon="6.27405">
        <ele>1143.8000488281</ele>
        <time>2022-02-23T07:49:55.000Z</time>
      </trkpt>
      <trkpt lat="45.71332" lon="6.27399">
        <ele>1144.1999511719</ele>
        <time>2022-02-23T07:50:00.000Z</time>
      </trkpt>
      <trkpt lat="45.71332" lon="6.27392">
        <ele>1144.8000488281</ele>
        <time>2022-02-23T07:50:06.000Z</time>
      </trkpt>
      <trkpt lat="45.71332" lon="6.27392">
        <ele>1145.1999511719</ele>
        <time>2022-02-23T07:50:07.000Z</time>
      </trkpt>
      <trkpt lat="45.71332" lon="6.27391">
        <ele>1145.4000244141</ele>
        <time>2022-02-23T07:50:08.000Z</time>
      </trkpt>
      <trkpt lat="45.71332" lon="6.27387">
        <ele>1145.5999755859</ele>
        <time>2022-02-23T07:50:12.000Z</time>
      </trkpt>
      <trkpt lat="45.71332" lon="6.27387">
        <ele>1145.8000488281</ele>
        <time>2022-02-23T07:50:13.000Z</time>
      </trkpt>
      <trkpt lat="45.71332" lon="6.27382">
        <ele>1146.1999511719</ele>
        <time>2022-02-23T07:50:17.000Z</time>
      </trkpt>
      <trkpt lat="45.71332" lon="6.27381">
        <ele>1146.5999755859</ele>
        <time>2022-02-23T07:50:18.000Z</time>
      </trkpt>
      <trkpt lat="45.71332" lon="6.27379">
        <ele>1146.8000488281</ele>
        <time>2022-02-23T07:50:20.000Z</time>
      </trkpt>
      <trkpt lat="45.71332" lon="6.27373">
        <ele>1147.5999755859</ele>
        <time>2022-02-23T07:50:25.000Z</time>
      </trkpt>
      <trkpt lat="45.71333" lon="6.27372">
        <ele>1147.8000488281</ele>
        <time>2022-02-23T07:50:26.000Z</time>
      </trkpt>
      <trkpt lat="45.71335" lon="6.27364">
        <ele>1148.4000244141</ele>
        <time>2022-02-23T07:50:33.000Z</time>
      </trkpt>
      <trkpt lat="45.71336" lon="6.2736">
        <ele>1148.8000488281</ele>
        <time>2022-02-23T07:50:37.000Z</time>
      </trkpt>
      <trkpt lat="45.71336" lon="6.27359">
        <ele>1149</ele>
        <time>2022-02-23T07:50:38.000Z</time>
      </trkpt>
      <trkpt lat="45.71336" lon="6.27358">
        <ele>1149</ele>
        <time>2022-02-23T07:50:39.000Z</time>
      </trkpt>
      <trkpt lat="45.71337" lon="6.27356">
        <ele>1149.1999511719</ele>
        <time>2022-02-23T07:50:41.000Z</time>
      </trkpt>
      <trkpt lat="45.71337" lon="6.27351">
        <ele>1149.8000488281</ele>
        <time>2022-02-23T07:50:46.000Z</time>
      </trkpt>
      <trkpt lat="45.71337" lon="6.27347">
        <ele>1150</ele>
        <time>2022-02-23T07:50:49.000Z</time>
      </trkpt>
      <trkpt lat="45.71337" lon="6.27346">
        <ele>1150</ele>
        <time>2022-02-23T07:50:50.000Z</time>
      </trkpt>
      <trkpt lat="45.71336" lon="6.27339">
        <ele>1151</ele>
        <time>2022-02-23T07:50:57.000Z</time>
      </trkpt>
      <trkpt lat="45.71335" lon="6.27338">
        <ele>1151</ele>
        <time>2022-02-23T07:50:58.000Z</time>
      </trkpt>
      <trkpt lat="45.71335" lon="6.27337">
        <ele>1151</ele>
        <time>2022-02-23T07:50:59.000Z</time>
      </trkpt>
      <trkpt lat="45.71334" lon="6.27333">
        <ele>1151.4000244141</ele>
        <time>2022-02-23T07:51:03.000Z</time>
      </trkpt>
      <trkpt lat="45.71335" lon="6.2733">
        <ele>1150.5999755859</ele>
        <time>2022-02-23T07:51:07.000Z</time>
      </trkpt>
      <trkpt lat="45.71335" lon="6.2733">
        <ele>1150.5999755859</ele>
        <time>2022-02-23T07:51:08.000Z</time>
      </trkpt>
      <trkpt lat="45.71335" lon="6.27331">
        <ele>1151</ele>
        <time>2022-02-23T07:51:14.000Z</time>
      </trkpt>
      <trkpt lat="45.71335" lon="6.27332">
        <ele>1151.1999511719</ele>
        <time>2022-02-23T07:51:15.000Z</time>
      </trkpt>
      <trkpt lat="45.71334" lon="6.27333">
        <ele>1151</ele>
        <time>2022-02-23T07:51:17.000Z</time>
      </trkpt>
      <trkpt lat="45.71334" lon="6.27332">
        <ele>1150.8000488281</ele>
        <time>2022-02-23T07:51:22.000Z</time>
      </trkpt>
      <trkpt lat="45.71334" lon="6.27331">
        <ele>1151.4000244141</ele>
        <time>2022-02-23T07:51:29.000Z</time>
      </trkpt>
      <trkpt lat="45.71335" lon="6.27329">
        <ele>1151.4000244141</ele>
        <time>2022-02-23T07:51:36.000Z</time>
      </trkpt>
      <trkpt lat="45.71339" lon="6.27323">
        <ele>1151</ele>
        <time>2022-02-23T07:51:43.000Z</time>
      </trkpt>
      <trkpt lat="45.71339" lon="6.2732">
        <ele>1151</ele>
        <time>2022-02-23T07:51:52.000Z</time>
      </trkpt>
      <trkpt lat="45.71339" lon="6.2732">
        <ele>1151</ele>
        <time>2022-02-23T07:51:53.000Z</time>
      </trkpt>
      <trkpt lat="45.71339" lon="6.2732">
        <ele>1151</ele>
        <time>2022-02-23T07:52:02.000Z</time>
      </trkpt>
      <trkpt lat="45.71339" lon="6.2732">
        <ele>1150.8000488281</ele>
        <time>2022-02-23T07:52:05.000Z</time>
      </trkpt>
      <trkpt lat="45.71338" lon="6.27319">
        <ele>1151.1999511719</ele>
        <time>2022-02-23T07:52:08.000Z</time>
      </trkpt>
      <trkpt lat="45.71337" lon="6.2732">
        <ele>1151.4000244141</ele>
        <time>2022-02-23T07:52:11.000Z</time>
      </trkpt>
      <trkpt lat="45.71337" lon="6.27317">
        <ele>1151.1999511719</ele>
        <time>2022-02-23T07:52:20.000Z</time>
      </trkpt>
      <trkpt lat="45.71337" lon="6.27322">
        <ele>1151</ele>
        <time>2022-02-23T07:52:27.000Z</time>
      </trkpt>
      <trkpt lat="45.71336" lon="6.27322">
        <ele>1151</ele>
        <time>2022-02-23T07:52:33.000Z</time>
      </trkpt>
      <trkpt lat="45.71336" lon="6.27321">
        <ele>1151</ele>
        <time>2022-02-23T07:52:35.000Z</time>
      </trkpt>
      <trkpt lat="45.71336" lon="6.27322">
        <ele>1151</ele>
        <time>2022-02-23T07:52:38.000Z</time>
      </trkpt>
      <trkpt lat="45.71336" lon="6.27322">
        <ele>1150.5999755859</ele>
        <time>2022-02-23T07:52:45.000Z</time>
      </trkpt>
      <trkpt lat="45.71337" lon="6.27322">
        <ele>1150.4000244141</ele>
        <time>2022-02-23T07:52:52.000Z</time>
      </trkpt>
      <trkpt lat="45.71337" lon="6.27322">
        <ele>1150.4000244141</ele>
        <time>2022-02-23T07:52:53.000Z</time>
      </trkpt>
      <trkpt lat="45.71337" lon="6.27322">
        <ele>1150.4000244141</ele>
        <time>2022-02-23T07:52:54.000Z</time>
      </trkpt>
      <trkpt lat="45.71338" lon="6.27321">
        <ele>1150.8000488281</ele>
        <time>2022-02-23T07:53:06.000Z</time>
      </trkpt>
      <trkpt lat="45.71338" lon="6.27321">
        <ele>1150.8000488281</ele>
        <time>2022-02-23T07:53:07.000Z</time>
      </trkpt>
      <trkpt lat="45.71338" lon="6.2732">
        <ele>1150.8000488281</ele>
        <time>2022-02-23T07:53:15.000Z</time>
      </trkpt>
      <trkpt lat="45.71338" lon="6.27319">
        <ele>1150.4000244141</ele>
        <time>2022-02-23T07:53:24.000Z</time>
      </trkpt>
      <trkpt lat="45.71338" lon="6.27319">
        <ele>1150.4000244141</ele>
        <time>2022-02-23T07:53:26.000Z</time>
      </trkpt>
      <trkpt lat="45.71337" lon="6.2732">
        <ele>1150.8000488281</ele>
        <time>2022-02-23T07:53:35.000Z</time>
      </trkpt>
      <trkpt lat="45.71337" lon="6.2732">
        <ele>1150.8000488281</ele>
        <time>2022-02-23T07:53:36.000Z</time>
      </trkpt>
      <trkpt lat="45.71337" lon="6.27321">
        <ele>1150.8000488281</ele>
        <time>2022-02-23T07:53:40.000Z</time>
      </trkpt>
      <trkpt lat="45.71337" lon="6.27321">
        <ele>1151</ele>
        <time>2022-02-23T07:53:43.000Z</time>
      </trkpt>
      <trkpt lat="45.71334" lon="6.27318">
        <ele>1151.5999755859</ele>
        <time>2022-02-23T07:53:49.000Z</time>
      </trkpt>
      <trkpt lat="45.71332" lon="6.27319">
        <ele>1151.5999755859</ele>
        <time>2022-02-23T07:53:52.000Z</time>
      </trkpt>
      <trkpt lat="45.7133" lon="6.27316">
        <ele>1151</ele>
        <time>2022-02-23T07:53:56.000Z</time>
      </trkpt>
      <trkpt lat="45.7133" lon="6.27311">
        <ele>1152</ele>
        <time>2022-02-23T07:53:59.000Z</time>
      </trkpt>
      <trkpt lat="45.7133" lon="6.27309">
        <ele>1152.1999511719</ele>
        <time>2022-02-23T07:54:00.000Z</time>
      </trkpt>
      <trkpt lat="45.7133" lon="6.27308">
        <ele>1152.4000244141</ele>
        <time>2022-02-23T07:54:01.000Z</time>
      </trkpt>
      <trkpt lat="45.71329" lon="6.27302">
        <ele>1153.1999511719</ele>
        <time>2022-02-23T07:54:06.000Z</time>
      </trkpt>
      <trkpt lat="45.71329" lon="6.27294">
        <ele>1153.8000488281</ele>
        <time>2022-02-23T07:54:11.000Z</time>
      </trkpt>
      <trkpt lat="45.71329" lon="6.27293">
        <ele>1154.1999511719</ele>
        <time>2022-02-23T07:54:12.000Z</time>
      </trkpt>
      <trkpt lat="45.71328" lon="6.27291">
        <ele>1154.4000244141</ele>
        <time>2022-02-23T07:54:13.000Z</time>
      </trkpt>
      <trkpt lat="45.71328" lon="6.27288">
        <ele>1155</ele>
        <time>2022-02-23T07:54:15.000Z</time>
      </trkpt>
      <trkpt lat="45.71328" lon="6.27286">
        <ele>1155</ele>
        <time>2022-02-23T07:54:17.000Z</time>
      </trkpt>
      <trkpt lat="45.71328" lon="6.27284">
        <ele>1155.1999511719</ele>
        <time>2022-02-23T07:54:18.000Z</time>
      </trkpt>
      <trkpt lat="45.71327" lon="6.27281">
        <ele>1155.1999511719</ele>
        <time>2022-02-23T07:54:20.000Z</time>
      </trkpt>
      <trkpt lat="45.71326" lon="6.2728">
        <ele>1155.1999511719</ele>
        <time>2022-02-23T07:54:21.000Z</time>
      </trkpt>
      <trkpt lat="45.71326" lon="6.27279">
        <ele>1155.4000244141</ele>
        <time>2022-02-23T07:54:22.000Z</time>
      </trkpt>
      <trkpt lat="45.71325" lon="6.27278">
        <ele>1155.8000488281</ele>
        <time>2022-02-23T07:54:23.000Z</time>
      </trkpt>
      <trkpt lat="45.71325" lon="6.27276">
        <ele>1156</ele>
        <time>2022-02-23T07:54:24.000Z</time>
      </trkpt>
      <trkpt lat="45.71324" lon="6.27273">
        <ele>1156.1999511719</ele>
        <time>2022-02-23T07:54:28.000Z</time>
      </trkpt>
      <trkpt lat="45.71322" lon="6.2727">
        <ele>1156.4000244141</ele>
        <time>2022-02-23T07:54:31.000Z</time>
      </trkpt>
      <trkpt lat="45.71322" lon="6.2727">
        <ele>1156.5999755859</ele>
        <time>2022-02-23T07:54:32.000Z</time>
      </trkpt>
      <trkpt lat="45.7132" lon="6.27268">
        <ele>1157</ele>
        <time>2022-02-23T07:54:34.000Z</time>
      </trkpt>
      <trkpt lat="45.71319" lon="6.27266">
        <ele>1157.1999511719</ele>
        <time>2022-02-23T07:54:36.000Z</time>
      </trkpt>
      <trkpt lat="45.71318" lon="6.27261">
        <ele>1157.4000244141</ele>
        <time>2022-02-23T07:54:40.000Z</time>
      </trkpt>
      <trkpt lat="45.71318" lon="6.27257">
        <ele>1158</ele>
        <time>2022-02-23T07:54:43.000Z</time>
      </trkpt>
      <trkpt lat="45.71317" lon="6.27253">
        <ele>1158.4000244141</ele>
        <time>2022-02-23T07:54:46.000Z</time>
      </trkpt>
      <trkpt lat="45.71315" lon="6.27248">
        <ele>1158.8000488281</ele>
        <time>2022-02-23T07:54:50.000Z</time>
      </trkpt>
      <trkpt lat="45.71313" lon="6.27242">
        <ele>1159.5999755859</ele>
        <time>2022-02-23T07:54:56.000Z</time>
      </trkpt>
      <trkpt lat="45.71312" lon="6.2724">
        <ele>1159.8000488281</ele>
        <time>2022-02-23T07:54:58.000Z</time>
      </trkpt>
      <trkpt lat="45.71312" lon="6.27237">
        <ele>1160.1999511719</ele>
        <time>2022-02-23T07:55:01.000Z</time>
      </trkpt>
      <trkpt lat="45.7131" lon="6.27233">
        <ele>1160.5999755859</ele>
        <time>2022-02-23T07:55:05.000Z</time>
      </trkpt>
      <trkpt lat="45.71309" lon="6.27232">
        <ele>1161</ele>
        <time>2022-02-23T07:55:07.000Z</time>
      </trkpt>
      <trkpt lat="45.71307" lon="6.27227">
        <ele>1161.5999755859</ele>
        <time>2022-02-23T07:55:12.000Z</time>
      </trkpt>
      <trkpt lat="45.71305" lon="6.27224">
        <ele>1162</ele>
        <time>2022-02-23T07:55:15.000Z</time>
      </trkpt>
      <trkpt lat="45.71303" lon="6.27223">
        <ele>1162</ele>
        <time>2022-02-23T07:55:17.000Z</time>
      </trkpt>
      <trkpt lat="45.713" lon="6.2722">
        <ele>1162.4000244141</ele>
        <time>2022-02-23T07:55:21.000Z</time>
      </trkpt>
      <trkpt lat="45.71299" lon="6.27217">
        <ele>1162.5999755859</ele>
        <time>2022-02-23T07:55:23.000Z</time>
      </trkpt>
      <trkpt lat="45.71299" lon="6.27216">
        <ele>1163</ele>
        <time>2022-02-23T07:55:24.000Z</time>
      </trkpt>
      <trkpt lat="45.71299" lon="6.27215">
        <ele>1163</ele>
        <time>2022-02-23T07:55:25.000Z</time>
      </trkpt>
      <trkpt lat="45.71297" lon="6.27211">
        <ele>1164</ele>
        <time>2022-02-23T07:55:30.000Z</time>
      </trkpt>
      <trkpt lat="45.71296" lon="6.2721">
        <ele>1164</ele>
        <time>2022-02-23T07:55:31.000Z</time>
      </trkpt>
      <trkpt lat="45.71292" lon="6.27204">
        <ele>1165</ele>
        <time>2022-02-23T07:55:37.000Z</time>
      </trkpt>
      <trkpt lat="45.7129" lon="6.27203">
        <ele>1165.1999511719</ele>
        <time>2022-02-23T07:55:39.000Z</time>
      </trkpt>
      <trkpt lat="45.71289" lon="6.27201">
        <ele>1165.4000244141</ele>
        <time>2022-02-23T07:55:41.000Z</time>
      </trkpt>
      <trkpt lat="45.71286" lon="6.27198">
        <ele>1165.8000488281</ele>
        <time>2022-02-23T07:55:46.000Z</time>
      </trkpt>
      <trkpt lat="45.71285" lon="6.27197">
        <ele>1166.1999511719</ele>
        <time>2022-02-23T07:55:48.000Z</time>
      </trkpt>
      <trkpt lat="45.7128" lon="6.27194">
        <ele>1166.8000488281</ele>
        <time>2022-02-23T07:55:54.000Z</time>
      </trkpt>
      <trkpt lat="45.71277" lon="6.27192">
        <ele>1167.1999511719</ele>
        <time>2022-02-23T07:55:57.000Z</time>
      </trkpt>
      <trkpt lat="45.71276" lon="6.27192">
        <ele>1167.4000244141</ele>
        <time>2022-02-23T07:55:58.000Z</time>
      </trkpt>
      <trkpt lat="45.71273" lon="6.2719">
        <ele>1167.8000488281</ele>
        <time>2022-02-23T07:56:02.000Z</time>
      </trkpt>
      <trkpt lat="45.71271" lon="6.27188">
        <ele>1168.4000244141</ele>
        <time>2022-02-23T07:56:06.000Z</time>
      </trkpt>
      <trkpt lat="45.7127" lon="6.27187">
        <ele>1168.4000244141</ele>
        <time>2022-02-23T07:56:07.000Z</time>
      </trkpt>
      <trkpt lat="45.71268" lon="6.27184">
        <ele>1168.8000488281</ele>
        <time>2022-02-23T07:56:10.000Z</time>
      </trkpt>
      <trkpt lat="45.71266" lon="6.27183">
        <ele>1169</ele>
        <time>2022-02-23T07:56:12.000Z</time>
      </trkpt>
      <trkpt lat="45.71264" lon="6.2718">
        <ele>1169.4000244141</ele>
        <time>2022-02-23T07:56:15.000Z</time>
      </trkpt>
      <trkpt lat="45.71263" lon="6.27179">
        <ele>1169.5999755859</ele>
        <time>2022-02-23T07:56:16.000Z</time>
      </trkpt>
      <trkpt lat="45.71257" lon="6.27174">
        <ele>1170.1999511719</ele>
        <time>2022-02-23T07:56:23.000Z</time>
      </trkpt>
      <trkpt lat="45.71255" lon="6.27172">
        <ele>1170.5999755859</ele>
        <time>2022-02-23T07:56:26.000Z</time>
      </trkpt>
      <trkpt lat="45.71252" lon="6.27168">
        <ele>1171.4000244141</ele>
        <time>2022-02-23T07:56:31.000Z</time>
      </trkpt>
      <trkpt lat="45.71251" lon="6.27166">
        <ele>1171.5999755859</ele>
        <time>2022-02-23T07:56:33.000Z</time>
      </trkpt>
      <trkpt lat="45.71248" lon="6.27163">
        <ele>1171.8000488281</ele>
        <time>2022-02-23T07:56:37.000Z</time>
      </trkpt>
      <trkpt lat="45.71247" lon="6.27163">
        <ele>1172</ele>
        <time>2022-02-23T07:56:38.000Z</time>
      </trkpt>
      <trkpt lat="45.71243" lon="6.2716">
        <ele>1172.8000488281</ele>
        <time>2022-02-23T07:56:42.000Z</time>
      </trkpt>
      <trkpt lat="45.71242" lon="6.2716">
        <ele>1172.8000488281</ele>
        <time>2022-02-23T07:56:43.000Z</time>
      </trkpt>
      <trkpt lat="45.7124" lon="6.27157">
        <ele>1173.4000244141</ele>
        <time>2022-02-23T07:56:47.000Z</time>
      </trkpt>
      <trkpt lat="45.71236" lon="6.27155">
        <ele>1173.8000488281</ele>
        <time>2022-02-23T07:56:51.000Z</time>
      </trkpt>
      <trkpt lat="45.71234" lon="6.27154">
        <ele>1174</ele>
        <time>2022-02-23T07:56:53.000Z</time>
      </trkpt>
      <trkpt lat="45.71233" lon="6.27154">
        <ele>1174.1999511719</ele>
        <time>2022-02-23T07:56:54.000Z</time>
      </trkpt>
      <trkpt lat="45.71232" lon="6.27153">
        <ele>1174.5999755859</ele>
        <time>2022-02-23T07:56:56.000Z</time>
      </trkpt>
      <trkpt lat="45.7123" lon="6.27152">
        <ele>1174.8000488281</ele>
        <time>2022-02-23T07:56:58.000Z</time>
      </trkpt>
      <trkpt lat="45.71228" lon="6.27151">
        <ele>1174.8000488281</ele>
        <time>2022-02-23T07:57:00.000Z</time>
      </trkpt>
      <trkpt lat="45.71224" lon="6.27148">
        <ele>1176</ele>
        <time>2022-02-23T07:57:05.000Z</time>
      </trkpt>
      <trkpt lat="45.71223" lon="6.27148">
        <ele>1176</ele>
        <time>2022-02-23T07:57:06.000Z</time>
      </trkpt>
      <trkpt lat="45.71222" lon="6.27148">
        <ele>1176.1999511719</ele>
        <time>2022-02-23T07:57:07.000Z</time>
      </trkpt>
      <trkpt lat="45.71221" lon="6.27148">
        <ele>1176.4000244141</ele>
        <time>2022-02-23T07:57:09.000Z</time>
      </trkpt>
      <trkpt lat="45.71219" lon="6.27147">
        <ele>1176.5999755859</ele>
        <time>2022-02-23T07:57:11.000Z</time>
      </trkpt>
      <trkpt lat="45.71219" lon="6.27147">
        <ele>1176.8000488281</ele>
        <time>2022-02-23T07:57:12.000Z</time>
      </trkpt>
      <trkpt lat="45.71216" lon="6.27147">
        <ele>1177</ele>
        <time>2022-02-23T07:57:15.000Z</time>
      </trkpt>
      <trkpt lat="45.71215" lon="6.27148">
        <ele>1177.4000244141</ele>
        <time>2022-02-23T07:57:18.000Z</time>
      </trkpt>
      <trkpt lat="45.71214" lon="6.27149">
        <ele>1178.1999511719</ele>
        <time>2022-02-23T07:57:21.000Z</time>
      </trkpt>
      <trkpt lat="45.71214" lon="6.2715">
        <ele>1178.4000244141</ele>
        <time>2022-02-23T07:57:23.000Z</time>
      </trkpt>
      <trkpt lat="45.71215" lon="6.27154">
        <ele>1179.1999511719</ele>
        <time>2022-02-23T07:57:28.000Z</time>
      </trkpt>
      <trkpt lat="45.71216" lon="6.27154">
        <ele>1179.4000244141</ele>
        <time>2022-02-23T07:57:36.000Z</time>
      </trkpt>
      <trkpt lat="45.71216" lon="6.27154">
        <ele>1179.1999511719</ele>
        <time>2022-02-23T07:57:42.000Z</time>
      </trkpt>
      <trkpt lat="45.71218" lon="6.27154">
        <ele>1179.5999755859</ele>
        <time>2022-02-23T07:57:47.000Z</time>
      </trkpt>
      <trkpt lat="45.71218" lon="6.27154">
        <ele>1179.5999755859</ele>
        <time>2022-02-23T07:57:50.000Z</time>
      </trkpt>
      <trkpt lat="45.71218" lon="6.27154">
        <ele>1179.4000244141</ele>
        <time>2022-02-23T07:57:56.000Z</time>
      </trkpt>
      <trkpt lat="45.71218" lon="6.27154">
        <ele>1179.1999511719</ele>
        <time>2022-02-23T07:57:57.000Z</time>
      </trkpt>
      <trkpt lat="45.71218" lon="6.27154">
        <ele>1179.5999755859</ele>
        <time>2022-02-23T07:58:00.000Z</time>
      </trkpt>
      <trkpt lat="45.71217" lon="6.27153">
        <ele>1179.5999755859</ele>
        <time>2022-02-23T07:58:06.000Z</time>
      </trkpt>
      <trkpt lat="45.71217" lon="6.27153">
        <ele>1179.5999755859</ele>
        <time>2022-02-23T07:58:07.000Z</time>
      </trkpt>
      <trkpt lat="45.71217" lon="6.27153">
        <ele>1179.5999755859</ele>
        <time>2022-02-23T07:58:09.000Z</time>
      </trkpt>
      <trkpt lat="45.7122" lon="6.27155">
        <ele>1179.5999755859</ele>
        <time>2022-02-23T07:58:15.000Z</time>
      </trkpt>
      <trkpt lat="45.7122" lon="6.27156">
        <ele>1180.1999511719</ele>
        <time>2022-02-23T07:58:22.000Z</time>
      </trkpt>
      <trkpt lat="45.7122" lon="6.27156">
        <ele>1180.1999511719</ele>
        <time>2022-02-23T07:58:23.000Z</time>
      </trkpt>
      <trkpt lat="45.71221" lon="6.2716">
        <ele>1180.1999511719</ele>
        <time>2022-02-23T07:58:28.000Z</time>
      </trkpt>
      <trkpt lat="45.71222" lon="6.27161">
        <ele>1180.1999511719</ele>
        <time>2022-02-23T07:58:29.000Z</time>
      </trkpt>
      <trkpt lat="45.71225" lon="6.27168">
        <ele>1180.8000488281</ele>
        <time>2022-02-23T07:58:35.000Z</time>
      </trkpt>
      <trkpt lat="45.71227" lon="6.27172">
        <ele>1181.1999511719</ele>
        <time>2022-02-23T07:58:38.000Z</time>
      </trkpt>
      <trkpt lat="45.7123" lon="6.27176">
        <ele>1181.8000488281</ele>
        <time>2022-02-23T07:58:42.000Z</time>
      </trkpt>
      <trkpt lat="45.71234" lon="6.27182">
        <ele>1182.5999755859</ele>
        <time>2022-02-23T07:58:48.000Z</time>
      </trkpt>
      <trkpt lat="45.71238" lon="6.27188">
        <ele>1183.4000244141</ele>
        <time>2022-02-23T07:58:55.000Z</time>
      </trkpt>
      <trkpt lat="45.71238" lon="6.27189">
        <ele>1183.5999755859</ele>
        <time>2022-02-23T07:58:56.000Z</time>
      </trkpt>
      <trkpt lat="45.71242" lon="6.27195">
        <ele>1184.1999511719</ele>
        <time>2022-02-23T07:59:02.000Z</time>
      </trkpt>
      <trkpt lat="45.71243" lon="6.27196">
        <ele>1184.5999755859</ele>
        <time>2022-02-23T07:59:03.000Z</time>
      </trkpt>
      <trkpt lat="45.71244" lon="6.27197">
        <ele>1185</ele>
        <time>2022-02-23T07:59:04.000Z</time>
      </trkpt>
      <trkpt lat="45.71246" lon="6.27203">
        <ele>1185.4000244141</ele>
        <time>2022-02-23T07:59:08.000Z</time>
      </trkpt>
      <trkpt lat="45.71246" lon="6.27204">
        <ele>1185.8000488281</ele>
        <time>2022-02-23T07:59:09.000Z</time>
      </trkpt>
      <trkpt lat="45.71248" lon="6.27207">
        <ele>1186.1999511719</ele>
        <time>2022-02-23T07:59:12.000Z</time>
      </trkpt>
      <trkpt lat="45.71249" lon="6.2721">
        <ele>1186.4000244141</ele>
        <time>2022-02-23T07:59:14.000Z</time>
      </trkpt>
      <trkpt lat="45.7125" lon="6.27211">
        <ele>1186.5999755859</ele>
        <time>2022-02-23T07:59:15.000Z</time>
      </trkpt>
      <trkpt lat="45.71251" lon="6.27213">
        <ele>1186.8000488281</ele>
        <time>2022-02-23T07:59:17.000Z</time>
      </trkpt>
      <trkpt lat="45.71251" lon="6.27216">
        <ele>1187.1999511719</ele>
        <time>2022-02-23T07:59:19.000Z</time>
      </trkpt>
      <trkpt lat="45.71253" lon="6.27219">
        <ele>1187.4000244141</ele>
        <time>2022-02-23T07:59:22.000Z</time>
      </trkpt>
      <trkpt lat="45.71253" lon="6.27225">
        <ele>1187.8000488281</ele>
        <time>2022-02-23T07:59:26.000Z</time>
      </trkpt>
      <trkpt lat="45.71253" lon="6.27229">
        <ele>1188.4000244141</ele>
        <time>2022-02-23T07:59:29.000Z</time>
      </trkpt>
      <trkpt lat="45.71253" lon="6.27231">
        <ele>1188.5999755859</ele>
        <time>2022-02-23T07:59:30.000Z</time>
      </trkpt>
      <trkpt lat="45.71253" lon="6.27233">
        <ele>1189</ele>
        <time>2022-02-23T07:59:32.000Z</time>
      </trkpt>
      <trkpt lat="45.71253" lon="6.27235">
        <ele>1189.1999511719</ele>
        <time>2022-02-23T07:59:33.000Z</time>
      </trkpt>
      <trkpt lat="45.71254" lon="6.2724">
        <ele>1189.8000488281</ele>
        <time>2022-02-23T07:59:36.000Z</time>
      </trkpt>
      <trkpt lat="45.71254" lon="6.27243">
        <ele>1190.1999511719</ele>
        <time>2022-02-23T07:59:38.000Z</time>
      </trkpt>
      <trkpt lat="45.71253" lon="6.27248">
        <ele>1190.4000244141</ele>
        <time>2022-02-23T07:59:42.000Z</time>
      </trkpt>
      <trkpt lat="45.71252" lon="6.27255">
        <ele>1191.1999511719</ele>
        <time>2022-02-23T07:59:47.000Z</time>
      </trkpt>
      <trkpt lat="45.71252" lon="6.27256">
        <ele>1191.4000244141</ele>
        <time>2022-02-23T07:59:48.000Z</time>
      </trkpt>
      <trkpt lat="45.71252" lon="6.27258">
        <ele>1191.8000488281</ele>
        <time>2022-02-23T07:59:50.000Z</time>
      </trkpt>
      <trkpt lat="45.71252" lon="6.27263">
        <ele>1192.1999511719</ele>
        <time>2022-02-23T07:59:54.000Z</time>
      </trkpt>
      <trkpt lat="45.71252" lon="6.27264">
        <ele>1192.1999511719</ele>
        <time>2022-02-23T07:59:55.000Z</time>
      </trkpt>
      <trkpt lat="45.71252" lon="6.27269">
        <ele>1192.8000488281</ele>
        <time>2022-02-23T07:59:59.000Z</time>
      </trkpt>
      <trkpt lat="45.71252" lon="6.27273">
        <ele>1193.4000244141</ele>
        <time>2022-02-23T08:00:02.000Z</time>
      </trkpt>
      <trkpt lat="45.7125" lon="6.27277">
        <ele>1193.8000488281</ele>
        <time>2022-02-23T08:00:06.000Z</time>
      </trkpt>
      <trkpt lat="45.7125" lon="6.27281">
        <ele>1194</ele>
        <time>2022-02-23T08:00:09.000Z</time>
      </trkpt>
      <trkpt lat="45.7125" lon="6.27284">
        <ele>1194.4000244141</ele>
        <time>2022-02-23T08:00:11.000Z</time>
      </trkpt>
      <trkpt lat="45.71246" lon="6.27292">
        <ele>1195.4000244141</ele>
        <time>2022-02-23T08:00:17.000Z</time>
      </trkpt>
      <trkpt lat="45.71246" lon="6.27292">
        <ele>1195.5999755859</ele>
        <time>2022-02-23T08:00:18.000Z</time>
      </trkpt>
      <trkpt lat="45.71242" lon="6.27298">
        <ele>1196.1999511719</ele>
        <time>2022-02-23T08:00:23.000Z</time>
      </trkpt>
      <trkpt lat="45.7124" lon="6.27304">
        <ele>1196.8000488281</ele>
        <time>2022-02-23T08:00:29.000Z</time>
      </trkpt>
      <trkpt lat="45.7124" lon="6.27305">
        <ele>1196.8000488281</ele>
        <time>2022-02-23T08:00:30.000Z</time>
      </trkpt>
      <trkpt lat="45.71238" lon="6.27309">
        <ele>1197.8000488281</ele>
        <time>2022-02-23T08:00:34.000Z</time>
      </trkpt>
      <trkpt lat="45.71233" lon="6.27317">
        <ele>1198.4000244141</ele>
        <time>2022-02-23T08:00:41.000Z</time>
      </trkpt>
      <trkpt lat="45.71232" lon="6.27318">
        <ele>1198.8000488281</ele>
        <time>2022-02-23T08:00:43.000Z</time>
      </trkpt>
      <trkpt lat="45.71229" lon="6.27322">
        <ele>1199.1999511719</ele>
        <time>2022-02-23T08:00:47.000Z</time>
      </trkpt>
      <trkpt lat="45.71227" lon="6.27324">
        <ele>1199.4000244141</ele>
        <time>2022-02-23T08:00:49.000Z</time>
      </trkpt>
      <trkpt lat="45.71225" lon="6.27328">
        <ele>1200</ele>
        <time>2022-02-23T08:00:53.000Z</time>
      </trkpt>
      <trkpt lat="45.71223" lon="6.27331">
        <ele>1200.5999755859</ele>
        <time>2022-02-23T08:00:56.000Z</time>
      </trkpt>
      <trkpt lat="45.71222" lon="6.27332">
        <ele>1200.8000488281</ele>
        <time>2022-02-23T08:00:58.000Z</time>
      </trkpt>
      <trkpt lat="45.7122" lon="6.27334">
        <ele>1201</ele>
        <time>2022-02-23T08:01:00.000Z</time>
      </trkpt>
      <trkpt lat="45.71216" lon="6.27338">
        <ele>1201.5999755859</ele>
        <time>2022-02-23T08:01:05.000Z</time>
      </trkpt>
      <trkpt lat="45.71216" lon="6.27339">
        <ele>1202</ele>
        <time>2022-02-23T08:01:06.000Z</time>
      </trkpt>
      <trkpt lat="45.71215" lon="6.27341">
        <ele>1202.4000244141</ele>
        <time>2022-02-23T08:01:09.000Z</time>
      </trkpt>
      <trkpt lat="45.71214" lon="6.27343">
        <ele>1202.5999755859</ele>
        <time>2022-02-23T08:01:11.000Z</time>
      </trkpt>
      <trkpt lat="45.71211" lon="6.27346">
        <ele>1203</ele>
        <time>2022-02-23T08:01:15.000Z</time>
      </trkpt>
      <trkpt lat="45.71211" lon="6.27346">
        <ele>1203.1999511719</ele>
        <time>2022-02-23T08:01:16.000Z</time>
      </trkpt>
      <trkpt lat="45.7121" lon="6.27348">
        <ele>1203.5999755859</ele>
        <time>2022-02-23T08:01:18.000Z</time>
      </trkpt>
      <trkpt lat="45.71205" lon="6.27351">
        <ele>1204</ele>
        <time>2022-02-23T08:01:23.000Z</time>
      </trkpt>
      <trkpt lat="45.71204" lon="6.27352">
        <ele>1204.1999511719</ele>
        <time>2022-02-23T08:01:24.000Z</time>
      </trkpt>
      <trkpt lat="45.71202" lon="6.27354">
        <ele>1204.4000244141</ele>
        <time>2022-02-23T08:01:26.000Z</time>
      </trkpt>
      <trkpt lat="45.71201" lon="6.27356">
        <ele>1204.5999755859</ele>
        <time>2022-02-23T08:01:28.000Z</time>
      </trkpt>
      <trkpt lat="45.71199" lon="6.27357">
        <ele>1204.8000488281</ele>
        <time>2022-02-23T08:01:30.000Z</time>
      </trkpt>
      <trkpt lat="45.71196" lon="6.2736">
        <ele>1205.4000244141</ele>
        <time>2022-02-23T08:01:34.000Z</time>
      </trkpt>
      <trkpt lat="45.71196" lon="6.27361">
        <ele>1205.5999755859</ele>
        <time>2022-02-23T08:01:35.000Z</time>
      </trkpt>
      <trkpt lat="45.71195" lon="6.27362">
        <ele>1206</ele>
        <time>2022-02-23T08:01:37.000Z</time>
      </trkpt>
      <trkpt lat="45.71194" lon="6.27365">
        <ele>1206</ele>
        <time>2022-02-23T08:01:40.000Z</time>
      </trkpt>
      <trkpt lat="45.71193" lon="6.27368">
        <ele>1206.1999511719</ele>
        <time>2022-02-23T08:01:43.000Z</time>
      </trkpt>
      <trkpt lat="45.71189" lon="6.27371">
        <ele>1206.5999755859</ele>
        <time>2022-02-23T08:01:46.000Z</time>
      </trkpt>
      <trkpt lat="45.71188" lon="6.27372">
        <ele>1206.5999755859</ele>
        <time>2022-02-23T08:01:47.000Z</time>
      </trkpt>
      <trkpt lat="45.71187" lon="6.27372">
        <ele>1206.8000488281</ele>
        <time>2022-02-23T08:01:48.000Z</time>
      </trkpt>
      <trkpt lat="45.71185" lon="6.27374">
        <ele>1207</ele>
        <time>2022-02-23T08:01:50.000Z</time>
      </trkpt>
      <trkpt lat="45.7118" lon="6.27377">
        <ele>1207.1999511719</ele>
        <time>2022-02-23T08:01:54.000Z</time>
      </trkpt>
      <trkpt lat="45.71179" lon="6.27378">
        <ele>1207.5999755859</ele>
        <time>2022-02-23T08:01:55.000Z</time>
      </trkpt>
      <trkpt lat="45.71178" lon="6.27379">
        <ele>1207.8000488281</ele>
        <time>2022-02-23T08:01:56.000Z</time>
      </trkpt>
      <trkpt lat="45.71175" lon="6.27381">
        <ele>1208.4000244141</ele>
        <time>2022-02-23T08:02:00.000Z</time>
      </trkpt>
      <trkpt lat="45.71173" lon="6.27383">
        <ele>1208.8000488281</ele>
        <time>2022-02-23T08:02:03.000Z</time>
      </trkpt>
      <trkpt lat="45.71172" lon="6.27384">
        <ele>1209.1999511719</ele>
        <time>2022-02-23T08:02:05.000Z</time>
      </trkpt>
      <trkpt lat="45.7117" lon="6.27383">
        <ele>1209.4000244141</ele>
        <time>2022-02-23T08:02:12.000Z</time>
      </trkpt>
      <trkpt lat="45.71169" lon="6.27384">
        <ele>1209.5999755859</ele>
        <time>2022-02-23T08:02:17.000Z</time>
      </trkpt>
      <trkpt lat="45.71167" lon="6.27377">
        <ele>1209.4000244141</ele>
        <time>2022-02-23T08:02:23.000Z</time>
      </trkpt>
      <trkpt lat="45.71166" lon="6.27374">
        <ele>1209.4000244141</ele>
        <time>2022-02-23T08:02:25.000Z</time>
      </trkpt>
      <trkpt lat="45.71166" lon="6.27373">
        <ele>1209.4000244141</ele>
        <time>2022-02-23T08:02:27.000Z</time>
      </trkpt>
      <trkpt lat="45.71166" lon="6.27371">
        <ele>1210</ele>
        <time>2022-02-23T08:02:30.000Z</time>
      </trkpt>
      <trkpt lat="45.71165" lon="6.27368">
        <ele>1210.5999755859</ele>
        <time>2022-02-23T08:02:33.000Z</time>
      </trkpt>
      <trkpt lat="45.71164" lon="6.27366">
        <ele>1210.5999755859</ele>
        <time>2022-02-23T08:02:35.000Z</time>
      </trkpt>
      <trkpt lat="45.71163" lon="6.27364">
        <ele>1211</ele>
        <time>2022-02-23T08:02:38.000Z</time>
      </trkpt>
      <trkpt lat="45.71162" lon="6.27361">
        <ele>1211.5999755859</ele>
        <time>2022-02-23T08:02:41.000Z</time>
      </trkpt>
      <trkpt lat="45.71161" lon="6.27358">
        <ele>1211.8000488281</ele>
        <time>2022-02-23T08:02:44.000Z</time>
      </trkpt>
      <trkpt lat="45.71161" lon="6.27357">
        <ele>1212.1999511719</ele>
        <time>2022-02-23T08:02:46.000Z</time>
      </trkpt>
      <trkpt lat="45.7116" lon="6.27356">
        <ele>1212.1999511719</ele>
        <time>2022-02-23T08:02:47.000Z</time>
      </trkpt>
      <trkpt lat="45.71156" lon="6.27356">
        <ele>1213</ele>
        <time>2022-02-23T08:02:52.000Z</time>
      </trkpt>
      <trkpt lat="45.71155" lon="6.27356">
        <ele>1213.4000244141</ele>
        <time>2022-02-23T08:02:53.000Z</time>
      </trkpt>
      <trkpt lat="45.71155" lon="6.27356">
        <ele>1213.5999755859</ele>
        <time>2022-02-23T08:02:54.000Z</time>
      </trkpt>
      <trkpt lat="45.71153" lon="6.27357">
        <ele>1214.1999511719</ele>
        <time>2022-02-23T08:02:56.000Z</time>
      </trkpt>
      <trkpt lat="45.71153" lon="6.27357">
        <ele>1214.4000244141</ele>
        <time>2022-02-23T08:02:57.000Z</time>
      </trkpt>
      <trkpt lat="45.71151" lon="6.27358">
        <ele>1214.8000488281</ele>
        <time>2022-02-23T08:02:59.000Z</time>
      </trkpt>
      <trkpt lat="45.71151" lon="6.27359">
        <ele>1214.8000488281</ele>
        <time>2022-02-23T08:03:00.000Z</time>
      </trkpt>
      <trkpt lat="45.71149" lon="6.27361">
        <ele>1215.1999511719</ele>
        <time>2022-02-23T08:03:02.000Z</time>
      </trkpt>
      <trkpt lat="45.71149" lon="6.27363">
        <ele>1215.5999755859</ele>
        <time>2022-02-23T08:03:04.000Z</time>
      </trkpt>
      <trkpt lat="45.71148" lon="6.27364">
        <ele>1216</ele>
        <time>2022-02-23T08:03:06.000Z</time>
      </trkpt>
      <trkpt lat="45.71146" lon="6.27366">
        <ele>1217</ele>
        <time>2022-02-23T08:03:10.000Z</time>
      </trkpt>
      <trkpt lat="45.71145" lon="6.27365">
        <ele>1217.1999511719</ele>
        <time>2022-02-23T08:03:12.000Z</time>
      </trkpt>
      <trkpt lat="45.71144" lon="6.27363">
        <ele>1217.4000244141</ele>
        <time>2022-02-23T08:03:13.000Z</time>
      </trkpt>
      <trkpt lat="45.71144" lon="6.2736">
        <ele>1217.5999755859</ele>
        <time>2022-02-23T08:03:15.000Z</time>
      </trkpt>
      <trkpt lat="45.71144" lon="6.27358">
        <ele>1217.8000488281</ele>
        <time>2022-02-23T08:03:17.000Z</time>
      </trkpt>
      <trkpt lat="45.71144" lon="6.27357">
        <ele>1218</ele>
        <time>2022-02-23T08:03:18.000Z</time>
      </trkpt>
      <trkpt lat="45.71144" lon="6.27352">
        <ele>1218.1999511719</ele>
        <time>2022-02-23T08:03:22.000Z</time>
      </trkpt>
      <trkpt lat="45.71144" lon="6.27351">
        <ele>1218.1999511719</ele>
        <time>2022-02-23T08:03:23.000Z</time>
      </trkpt>
      <trkpt lat="45.71143" lon="6.27349">
        <ele>1218.5999755859</ele>
        <time>2022-02-23T08:03:25.000Z</time>
      </trkpt>
      <trkpt lat="45.71143" lon="6.27344">
        <ele>1219</ele>
        <time>2022-02-23T08:03:29.000Z</time>
      </trkpt>
      <trkpt lat="45.71143" lon="6.27341">
        <ele>1219.1999511719</ele>
        <time>2022-02-23T08:03:32.000Z</time>
      </trkpt>
      <trkpt lat="45.71143" lon="6.27338">
        <ele>1219.8000488281</ele>
        <time>2022-02-23T08:03:35.000Z</time>
      </trkpt>
      <trkpt lat="45.71144" lon="6.27335">
        <ele>1220</ele>
        <time>2022-02-23T08:03:37.000Z</time>
      </trkpt>
      <trkpt lat="45.71145" lon="6.27329">
        <ele>1221</ele>
        <time>2022-02-23T08:03:41.000Z</time>
      </trkpt>
      <trkpt lat="45.71145" lon="6.27327">
        <ele>1221.1999511719</ele>
        <time>2022-02-23T08:03:42.000Z</time>
      </trkpt>
      <trkpt lat="45.71146" lon="6.27323">
        <ele>1221.5999755859</ele>
        <time>2022-02-23T08:03:47.000Z</time>
      </trkpt>
      <trkpt lat="45.71146" lon="6.27321">
        <ele>1222.1999511719</ele>
        <time>2022-02-23T08:03:49.000Z</time>
      </trkpt>
      <trkpt lat="45.71145" lon="6.27318">
        <ele>1223</ele>
        <time>2022-02-23T08:03:53.000Z</time>
      </trkpt>
      <trkpt lat="45.71145" lon="6.27318">
        <ele>1223.1999511719</ele>
        <time>2022-02-23T08:03:54.000Z</time>
      </trkpt>
      <trkpt lat="45.71143" lon="6.27316">
        <ele>1223.8000488281</ele>
        <time>2022-02-23T08:03:57.000Z</time>
      </trkpt>
      <trkpt lat="45.71139" lon="6.27315">
        <ele>1224.1999511719</ele>
        <time>2022-02-23T08:04:01.000Z</time>
      </trkpt>
      <trkpt lat="45.71138" lon="6.27314">
        <ele>1224.4000244141</ele>
        <time>2022-02-23T08:04:02.000Z</time>
      </trkpt>
      <trkpt lat="45.71135" lon="6.27314">
        <ele>1225.1999511719</ele>
        <time>2022-02-23T08:04:05.000Z</time>
      </trkpt>
      <trkpt lat="45.71134" lon="6.27314">
        <ele>1225.5999755859</ele>
        <time>2022-02-23T08:04:06.000Z</time>
      </trkpt>
      <trkpt lat="45.71129" lon="6.27315">
        <ele>1226.1999511719</ele>
        <time>2022-02-23T08:04:10.000Z</time>
      </trkpt>
      <trkpt lat="45.71128" lon="6.27315">
        <ele>1226.4000244141</ele>
        <time>2022-02-23T08:04:11.000Z</time>
      </trkpt>
      <trkpt lat="45.71128" lon="6.27316">
        <ele>1226.5999755859</ele>
        <time>2022-02-23T08:04:12.000Z</time>
      </trkpt>
      <trkpt lat="45.71126" lon="6.27316">
        <ele>1227</ele>
        <time>2022-02-23T08:04:14.000Z</time>
      </trkpt>
      <trkpt lat="45.71123" lon="6.27318">
        <ele>1227.5999755859</ele>
        <time>2022-02-23T08:04:18.000Z</time>
      </trkpt>
      <trkpt lat="45.71123" lon="6.27318">
        <ele>1227.5999755859</ele>
        <time>2022-02-23T08:04:19.000Z</time>
      </trkpt>
      <trkpt lat="45.71121" lon="6.27321">
        <ele>1228.1999511719</ele>
        <time>2022-02-23T08:04:23.000Z</time>
      </trkpt>
      <trkpt lat="45.71119" lon="6.27323">
        <ele>1228.5999755859</ele>
        <time>2022-02-23T08:04:28.000Z</time>
      </trkpt>
      <trkpt lat="45.71116" lon="6.27328">
        <ele>1229.4000244141</ele>
        <time>2022-02-23T08:04:36.000Z</time>
      </trkpt>
      <trkpt lat="45.71115" lon="6.27329">
        <ele>1229.8000488281</ele>
        <time>2022-02-23T08:04:38.000Z</time>
      </trkpt>
      <trkpt lat="45.71114" lon="6.27332">
        <ele>1230.5999755859</ele>
        <time>2022-02-23T08:04:43.000Z</time>
      </trkpt>
      <trkpt lat="45.71113" lon="6.27335">
        <ele>1230.8000488281</ele>
        <time>2022-02-23T08:04:46.000Z</time>
      </trkpt>
      <trkpt lat="45.71113" lon="6.27336">
        <ele>1231</ele>
        <time>2022-02-23T08:04:47.000Z</time>
      </trkpt>
      <trkpt lat="45.71112" lon="6.27337">
        <ele>1231.1999511719</ele>
        <time>2022-02-23T08:04:49.000Z</time>
      </trkpt>
      <trkpt lat="45.71109" lon="6.2734">
        <ele>1231.8000488281</ele>
        <time>2022-02-23T08:04:54.000Z</time>
      </trkpt>
      <trkpt lat="45.71109" lon="6.27341">
        <ele>1232</ele>
        <time>2022-02-23T08:04:55.000Z</time>
      </trkpt>
      <trkpt lat="45.71105" lon="6.27344">
        <ele>1232.5999755859</ele>
        <time>2022-02-23T08:05:00.000Z</time>
      </trkpt>
      <trkpt lat="45.71104" lon="6.27345">
        <ele>1232.8000488281</ele>
        <time>2022-02-23T08:05:01.000Z</time>
      </trkpt>
      <trkpt lat="45.71103" lon="6.27347">
        <ele>1233</ele>
        <time>2022-02-23T08:05:03.000Z</time>
      </trkpt>
      <trkpt lat="45.71103" lon="6.27348">
        <ele>1233.1999511719</ele>
        <time>2022-02-23T08:05:04.000Z</time>
      </trkpt>
      <trkpt lat="45.71104" lon="6.27349">
        <ele>1233.4000244141</ele>
        <time>2022-02-23T08:05:05.000Z</time>
      </trkpt>
      <trkpt lat="45.71102" lon="6.27353">
        <ele>1234</ele>
        <time>2022-02-23T08:05:11.000Z</time>
      </trkpt>
      <trkpt lat="45.71101" lon="6.27353">
        <ele>1234</ele>
        <time>2022-02-23T08:05:12.000Z</time>
      </trkpt>
      <trkpt lat="45.71099" lon="6.27356">
        <ele>1234.5999755859</ele>
        <time>2022-02-23T08:05:15.000Z</time>
      </trkpt>
      <trkpt lat="45.71099" lon="6.27357">
        <ele>1234.8000488281</ele>
        <time>2022-02-23T08:05:16.000Z</time>
      </trkpt>
      <trkpt lat="45.71098" lon="6.27359">
        <ele>1235.1999511719</ele>
        <time>2022-02-23T08:05:18.000Z</time>
      </trkpt>
      <trkpt lat="45.71098" lon="6.27362">
        <ele>1235.5999755859</ele>
        <time>2022-02-23T08:05:21.000Z</time>
      </trkpt>
      <trkpt lat="45.71096" lon="6.27366">
        <ele>1235.8000488281</ele>
        <time>2022-02-23T08:05:27.000Z</time>
      </trkpt>
      <trkpt lat="45.71094" lon="6.27367">
        <ele>1236</ele>
        <time>2022-02-23T08:05:30.000Z</time>
      </trkpt>
      <trkpt lat="45.71093" lon="6.27368">
        <ele>1236.1999511719</ele>
        <time>2022-02-23T08:05:32.000Z</time>
      </trkpt>
      <trkpt lat="45.71092" lon="6.27368">
        <ele>1236.4000244141</ele>
        <time>2022-02-23T08:05:34.000Z</time>
      </trkpt>
      <trkpt lat="45.71089" lon="6.27372">
        <ele>1236.8000488281</ele>
        <time>2022-02-23T08:05:39.000Z</time>
      </trkpt>
      <trkpt lat="45.71089" lon="6.27373">
        <ele>1236.8000488281</ele>
        <time>2022-02-23T08:05:40.000Z</time>
      </trkpt>
      <trkpt lat="45.71085" lon="6.27376">
        <ele>1237.4000244141</ele>
        <time>2022-02-23T08:05:44.000Z</time>
      </trkpt>
      <trkpt lat="45.71084" lon="6.27378">
        <ele>1237.5999755859</ele>
        <time>2022-02-23T08:05:46.000Z</time>
      </trkpt>
      <trkpt lat="45.71081" lon="6.27382">
        <ele>1238.1999511719</ele>
        <time>2022-02-23T08:05:50.000Z</time>
      </trkpt>
      <trkpt lat="45.7108" lon="6.27384">
        <ele>1238.8000488281</ele>
        <time>2022-02-23T08:05:52.000Z</time>
      </trkpt>
      <trkpt lat="45.71072" lon="6.27388">
        <ele>1239.5999755859</ele>
        <time>2022-02-23T08:05:59.000Z</time>
      </trkpt>
      <trkpt lat="45.71071" lon="6.2739">
        <ele>1239.8000488281</ele>
        <time>2022-02-23T08:06:01.000Z</time>
      </trkpt>
      <trkpt lat="45.7107" lon="6.27391">
        <ele>1240.1999511719</ele>
        <time>2022-02-23T08:06:02.000Z</time>
      </trkpt>
      <trkpt lat="45.71068" lon="6.27394">
        <ele>1240.8000488281</ele>
        <time>2022-02-23T08:06:05.000Z</time>
      </trkpt>
      <trkpt lat="45.71068" lon="6.27395">
        <ele>1240.8000488281</ele>
        <time>2022-02-23T08:06:06.000Z</time>
      </trkpt>
      <trkpt lat="45.71067" lon="6.27396">
        <ele>1241</ele>
        <time>2022-02-23T08:06:07.000Z</time>
      </trkpt>
      <trkpt lat="45.71066" lon="6.274">
        <ele>1241.4000244141</ele>
        <time>2022-02-23T08:06:11.000Z</time>
      </trkpt>
      <trkpt lat="45.71064" lon="6.27405">
        <ele>1242</ele>
        <time>2022-02-23T08:06:16.000Z</time>
      </trkpt>
      <trkpt lat="45.71063" lon="6.27408">
        <ele>1242.1999511719</ele>
        <time>2022-02-23T08:06:19.000Z</time>
      </trkpt>
      <trkpt lat="45.71061" lon="6.27413">
        <ele>1242.8000488281</ele>
        <time>2022-02-23T08:06:23.000Z</time>
      </trkpt>
      <trkpt lat="45.7106" lon="6.27415">
        <ele>1243</ele>
        <time>2022-02-23T08:06:25.000Z</time>
      </trkpt>
      <trkpt lat="45.71058" lon="6.27417">
        <ele>1243.5999755859</ele>
        <time>2022-02-23T08:06:28.000Z</time>
      </trkpt>
      <trkpt lat="45.71057" lon="6.2742">
        <ele>1244.1999511719</ele>
        <time>2022-02-23T08:06:31.000Z</time>
      </trkpt>
      <trkpt lat="45.71057" lon="6.27421">
        <ele>1244.1999511719</ele>
        <time>2022-02-23T08:06:32.000Z</time>
      </trkpt>
      <trkpt lat="45.71056" lon="6.27423">
        <ele>1244.4000244141</ele>
        <time>2022-02-23T08:06:34.000Z</time>
      </trkpt>
      <trkpt lat="45.71055" lon="6.27424">
        <ele>1244.5999755859</ele>
        <time>2022-02-23T08:06:35.000Z</time>
      </trkpt>
      <trkpt lat="45.71054" lon="6.27426">
        <ele>1245.1999511719</ele>
        <time>2022-02-23T08:06:38.000Z</time>
      </trkpt>
      <trkpt lat="45.71053" lon="6.27427">
        <ele>1245.1999511719</ele>
        <time>2022-02-23T08:06:39.000Z</time>
      </trkpt>
      <trkpt lat="45.71051" lon="6.27433">
        <ele>1245.8000488281</ele>
        <time>2022-02-23T08:06:45.000Z</time>
      </trkpt>
      <trkpt lat="45.71049" lon="6.27435">
        <ele>1246.4000244141</ele>
        <time>2022-02-23T08:06:47.000Z</time>
      </trkpt>
      <trkpt lat="45.71048" lon="6.27438">
        <ele>1246.8000488281</ele>
        <time>2022-02-23T08:06:50.000Z</time>
      </trkpt>
      <trkpt lat="45.71045" lon="6.27442">
        <ele>1247.1999511719</ele>
        <time>2022-02-23T08:06:55.000Z</time>
      </trkpt>
      <trkpt lat="45.71044" lon="6.27443">
        <ele>1247.4000244141</ele>
        <time>2022-02-23T08:06:56.000Z</time>
      </trkpt>
      <trkpt lat="45.71043" lon="6.27447">
        <ele>1248.5999755859</ele>
        <time>2022-02-23T08:07:00.000Z</time>
      </trkpt>
      <trkpt lat="45.71043" lon="6.27448">
        <ele>1248.5999755859</ele>
        <time>2022-02-23T08:07:01.000Z</time>
      </trkpt>
      <trkpt lat="45.71039" lon="6.2745">
        <ele>1249</ele>
        <time>2022-02-23T08:07:05.000Z</time>
      </trkpt>
      <trkpt lat="45.71038" lon="6.2745">
        <ele>1249.4000244141</ele>
        <time>2022-02-23T08:07:06.000Z</time>
      </trkpt>
      <trkpt lat="45.71036" lon="6.27451">
        <ele>1249.5999755859</ele>
        <time>2022-02-23T08:07:08.000Z</time>
      </trkpt>
      <trkpt lat="45.71035" lon="6.2745">
        <ele>1249.8000488281</ele>
        <time>2022-02-23T08:07:09.000Z</time>
      </trkpt>
      <trkpt lat="45.71034" lon="6.2745">
        <ele>1249.8000488281</ele>
        <time>2022-02-23T08:07:10.000Z</time>
      </trkpt>
      <trkpt lat="45.71031" lon="6.27445">
        <ele>1250.8000488281</ele>
        <time>2022-02-23T08:07:15.000Z</time>
      </trkpt>
      <trkpt lat="45.7103" lon="6.27438">
        <ele>1251.8000488281</ele>
        <time>2022-02-23T08:07:21.000Z</time>
      </trkpt>
      <trkpt lat="45.7103" lon="6.27437">
        <ele>1252</ele>
        <time>2022-02-23T08:07:22.000Z</time>
      </trkpt>
      <trkpt lat="45.71024" lon="6.27435">
        <ele>1252.4000244141</ele>
        <time>2022-02-23T08:07:27.000Z</time>
      </trkpt>
      <trkpt lat="45.71022" lon="6.27435">
        <ele>1252.8000488281</ele>
        <time>2022-02-23T08:07:29.000Z</time>
      </trkpt>
      <trkpt lat="45.7102" lon="6.27435">
        <ele>1253.1999511719</ele>
        <time>2022-02-23T08:07:30.000Z</time>
      </trkpt>
      <trkpt lat="45.71018" lon="6.27432">
        <ele>1253.8000488281</ele>
        <time>2022-02-23T08:07:34.000Z</time>
      </trkpt>
      <trkpt lat="45.71018" lon="6.27431">
        <ele>1254</ele>
        <time>2022-02-23T08:07:35.000Z</time>
      </trkpt>
      <trkpt lat="45.71017" lon="6.2743">
        <ele>1254.1999511719</ele>
        <time>2022-02-23T08:07:37.000Z</time>
      </trkpt>
      <trkpt lat="45.71017" lon="6.27426">
        <ele>1255</ele>
        <time>2022-02-23T08:07:41.000Z</time>
      </trkpt>
      <trkpt lat="45.71017" lon="6.27425">
        <ele>1255.4000244141</ele>
        <time>2022-02-23T08:07:42.000Z</time>
      </trkpt>
      <trkpt lat="45.71016" lon="6.27423">
        <ele>1256.1999511719</ele>
        <time>2022-02-23T08:07:45.000Z</time>
      </trkpt>
      <trkpt lat="45.71017" lon="6.27418">
        <ele>1256.8000488281</ele>
        <time>2022-02-23T08:07:49.000Z</time>
      </trkpt>
      <trkpt lat="45.71018" lon="6.27411">
        <ele>1257.1999511719</ele>
        <time>2022-02-23T08:07:53.000Z</time>
      </trkpt>
      <trkpt lat="45.71019" lon="6.27409">
        <ele>1257.5999755859</ele>
        <time>2022-02-23T08:07:55.000Z</time>
      </trkpt>
      <trkpt lat="45.7102" lon="6.27403">
        <ele>1258.4000244141</ele>
        <time>2022-02-23T08:08:00.000Z</time>
      </trkpt>
      <trkpt lat="45.7102" lon="6.274">
        <ele>1258.5999755859</ele>
        <time>2022-02-23T08:08:02.000Z</time>
      </trkpt>
      <trkpt lat="45.71019" lon="6.27394">
        <ele>1259.5999755859</ele>
        <time>2022-02-23T08:08:07.000Z</time>
      </trkpt>
      <trkpt lat="45.71019" lon="6.27391">
        <ele>1260</ele>
        <time>2022-02-23T08:08:09.000Z</time>
      </trkpt>
      <trkpt lat="45.7102" lon="6.27383">
        <ele>1260.8000488281</ele>
        <time>2022-02-23T08:08:16.000Z</time>
      </trkpt>
      <trkpt lat="45.7102" lon="6.2738">
        <ele>1261.1999511719</ele>
        <time>2022-02-23T08:08:19.000Z</time>
      </trkpt>
      <trkpt lat="45.7102" lon="6.27376">
        <ele>1262</ele>
        <time>2022-02-23T08:08:23.000Z</time>
      </trkpt>
      <trkpt lat="45.71021" lon="6.27376">
        <ele>1262.1999511719</ele>
        <time>2022-02-23T08:08:24.000Z</time>
      </trkpt>
      <trkpt lat="45.7102" lon="6.27371">
        <ele>1262.8000488281</ele>
        <time>2022-02-23T08:08:29.000Z</time>
      </trkpt>
      <trkpt lat="45.71019" lon="6.2737">
        <ele>1263.1999511719</ele>
        <time>2022-02-23T08:08:31.000Z</time>
      </trkpt>
      <trkpt lat="45.71018" lon="6.27365">
        <ele>1264.4000244141</ele>
        <time>2022-02-23T08:08:37.000Z</time>
      </trkpt>
      <trkpt lat="45.71019" lon="6.27365">
        <ele>1264.4000244141</ele>
        <time>2022-02-23T08:08:38.000Z</time>
      </trkpt>
      <trkpt lat="45.71019" lon="6.27359">
        <ele>1265.5999755859</ele>
        <time>2022-02-23T08:08:44.000Z</time>
      </trkpt>
      <trkpt lat="45.71019" lon="6.27357">
        <ele>1265.5999755859</ele>
        <time>2022-02-23T08:08:45.000Z</time>
      </trkpt>
      <trkpt lat="45.71019" lon="6.27354">
        <ele>1266.1999511719</ele>
        <time>2022-02-23T08:08:48.000Z</time>
      </trkpt>
      <trkpt lat="45.71018" lon="6.27351">
        <ele>1266.5999755859</ele>
        <time>2022-02-23T08:08:50.000Z</time>
      </trkpt>
      <trkpt lat="45.71018" lon="6.27349">
        <ele>1266.8000488281</ele>
        <time>2022-02-23T08:08:52.000Z</time>
      </trkpt>
      <trkpt lat="45.71019" lon="6.27342">
        <ele>1267.8000488281</ele>
        <time>2022-02-23T08:08:57.000Z</time>
      </trkpt>
      <trkpt lat="45.71018" lon="6.27339">
        <ele>1268</ele>
        <time>2022-02-23T08:08:59.000Z</time>
      </trkpt>
      <trkpt lat="45.71018" lon="6.27332">
        <ele>1268.8000488281</ele>
        <time>2022-02-23T08:09:05.000Z</time>
      </trkpt>
      <trkpt lat="45.71018" lon="6.2733">
        <ele>1269</ele>
        <time>2022-02-23T08:09:06.000Z</time>
      </trkpt>
      <trkpt lat="45.71016" lon="6.27326">
        <ele>1270</ele>
        <time>2022-02-23T08:09:12.000Z</time>
      </trkpt>
      <trkpt lat="45.71014" lon="6.2732">
        <ele>1271.4000244141</ele>
        <time>2022-02-23T08:09:18.000Z</time>
      </trkpt>
      <trkpt lat="45.71012" lon="6.27316">
        <ele>1272.4000244141</ele>
        <time>2022-02-23T08:09:22.000Z</time>
      </trkpt>
      <trkpt lat="45.71011" lon="6.27315">
        <ele>1272.5999755859</ele>
        <time>2022-02-23T08:09:24.000Z</time>
      </trkpt>
      <trkpt lat="45.7101" lon="6.27312">
        <ele>1273.4000244141</ele>
        <time>2022-02-23T08:09:28.000Z</time>
      </trkpt>
      <trkpt lat="45.7101" lon="6.27311">
        <ele>1273.5999755859</ele>
        <time>2022-02-23T08:09:29.000Z</time>
      </trkpt>
      <trkpt lat="45.71007" lon="6.27307">
        <ele>1274.4000244141</ele>
        <time>2022-02-23T08:09:35.000Z</time>
      </trkpt>
      <trkpt lat="45.71006" lon="6.27305">
        <ele>1274.8000488281</ele>
        <time>2022-02-23T08:09:37.000Z</time>
      </trkpt>
      <trkpt lat="45.71005" lon="6.27303">
        <ele>1275</ele>
        <time>2022-02-23T08:09:40.000Z</time>
      </trkpt>
      <trkpt lat="45.71003" lon="6.27301">
        <ele>1275.5999755859</ele>
        <time>2022-02-23T08:09:43.000Z</time>
      </trkpt>
      <trkpt lat="45.71001" lon="6.273">
        <ele>1276</ele>
        <time>2022-02-23T08:09:45.000Z</time>
      </trkpt>
      <trkpt lat="45.70997" lon="6.27298">
        <ele>1276.8000488281</ele>
        <time>2022-02-23T08:09:50.000Z</time>
      </trkpt>
      <trkpt lat="45.70996" lon="6.27297">
        <ele>1276.8000488281</ele>
        <time>2022-02-23T08:09:52.000Z</time>
      </trkpt>
      <trkpt lat="45.70993" lon="6.27296">
        <ele>1277.1999511719</ele>
        <time>2022-02-23T08:09:55.000Z</time>
      </trkpt>
      <trkpt lat="45.7099" lon="6.27294">
        <ele>1277.8000488281</ele>
        <time>2022-02-23T08:09:59.000Z</time>
      </trkpt>
      <trkpt lat="45.70988" lon="6.27293">
        <ele>1278</ele>
        <time>2022-02-23T08:10:02.000Z</time>
      </trkpt>
      <trkpt lat="45.70985" lon="6.2729">
        <ele>1278.8000488281</ele>
        <time>2022-02-23T08:10:06.000Z</time>
      </trkpt>
      <trkpt lat="45.70984" lon="6.2729">
        <ele>1279</ele>
        <time>2022-02-23T08:10:07.000Z</time>
      </trkpt>
      <trkpt lat="45.70982" lon="6.27287">
        <ele>1279.5999755859</ele>
        <time>2022-02-23T08:10:11.000Z</time>
      </trkpt>
      <trkpt lat="45.70981" lon="6.27285">
        <ele>1280</ele>
        <time>2022-02-23T08:10:13.000Z</time>
      </trkpt>
      <trkpt lat="45.7098" lon="6.27282">
        <ele>1280.8000488281</ele>
        <time>2022-02-23T08:10:16.000Z</time>
      </trkpt>
      <trkpt lat="45.70979" lon="6.27282">
        <ele>1281</ele>
        <time>2022-02-23T08:10:17.000Z</time>
      </trkpt>
      <trkpt lat="45.70978" lon="6.27281">
        <ele>1281.1999511719</ele>
        <time>2022-02-23T08:10:18.000Z</time>
      </trkpt>
      <trkpt lat="45.70977" lon="6.27279">
        <ele>1282</ele>
        <time>2022-02-23T08:10:21.000Z</time>
      </trkpt>
      <trkpt lat="45.70977" lon="6.27278">
        <ele>1282.1999511719</ele>
        <time>2022-02-23T08:10:22.000Z</time>
      </trkpt>
      <trkpt lat="45.70976" lon="6.27277">
        <ele>1282.4000244141</ele>
        <time>2022-02-23T08:10:24.000Z</time>
      </trkpt>
      <trkpt lat="45.70975" lon="6.27272">
        <ele>1283.1999511719</ele>
        <time>2022-02-23T08:10:28.000Z</time>
      </trkpt>
      <trkpt lat="45.70974" lon="6.27271">
        <ele>1283.4000244141</ele>
        <time>2022-02-23T08:10:29.000Z</time>
      </trkpt>
      <trkpt lat="45.70972" lon="6.27267">
        <ele>1283.8000488281</ele>
        <time>2022-02-23T08:10:34.000Z</time>
      </trkpt>
      <trkpt lat="45.70971" lon="6.27266">
        <ele>1284.1999511719</ele>
        <time>2022-02-23T08:10:37.000Z</time>
      </trkpt>
      <trkpt lat="45.7097" lon="6.27264">
        <ele>1284.8000488281</ele>
        <time>2022-02-23T08:10:39.000Z</time>
      </trkpt>
      <trkpt lat="45.70967" lon="6.27262">
        <ele>1285.1999511719</ele>
        <time>2022-02-23T08:10:43.000Z</time>
      </trkpt>
      <trkpt lat="45.70967" lon="6.27262">
        <ele>1285.4000244141</ele>
        <time>2022-02-23T08:10:44.000Z</time>
      </trkpt>
      <trkpt lat="45.70964" lon="6.27259">
        <ele>1286.5999755859</ele>
        <time>2022-02-23T08:10:48.000Z</time>
      </trkpt>
      <trkpt lat="45.70963" lon="6.27258">
        <ele>1286.5999755859</ele>
        <time>2022-02-23T08:10:49.000Z</time>
      </trkpt>
      <trkpt lat="45.70961" lon="6.27255">
        <ele>1287.4000244141</ele>
        <time>2022-02-23T08:10:54.000Z</time>
      </trkpt>
      <trkpt lat="45.70961" lon="6.27254">
        <ele>1287.5999755859</ele>
        <time>2022-02-23T08:10:55.000Z</time>
      </trkpt>
      <trkpt lat="45.70961" lon="6.27253">
        <ele>1287.5999755859</ele>
        <time>2022-02-23T08:10:56.000Z</time>
      </trkpt>
      <trkpt lat="45.70959" lon="6.27252">
        <ele>1288.4000244141</ele>
        <time>2022-02-23T08:10:59.000Z</time>
      </trkpt>
      <trkpt lat="45.70957" lon="6.2725">
        <ele>1288.5999755859</ele>
        <time>2022-02-23T08:11:01.000Z</time>
      </trkpt>
      <trkpt lat="45.70956" lon="6.27248">
        <ele>1289.1999511719</ele>
        <time>2022-02-23T08:11:05.000Z</time>
      </trkpt>
      <trkpt lat="45.70955" lon="6.27247">
        <ele>1289.5999755859</ele>
        <time>2022-02-23T08:11:06.000Z</time>
      </trkpt>
      <trkpt lat="45.70952" lon="6.27245">
        <ele>1290.4000244141</ele>
        <time>2022-02-23T08:11:11.000Z</time>
      </trkpt>
      <trkpt lat="45.70952" lon="6.27244">
        <ele>1290.4000244141</ele>
        <time>2022-02-23T08:11:12.000Z</time>
      </trkpt>
      <trkpt lat="45.7095" lon="6.27243">
        <ele>1290.5999755859</ele>
        <time>2022-02-23T08:11:14.000Z</time>
      </trkpt>
      <trkpt lat="45.7095" lon="6.27241">
        <ele>1291.1999511719</ele>
        <time>2022-02-23T08:11:16.000Z</time>
      </trkpt>
      <trkpt lat="45.70949" lon="6.27241">
        <ele>1291.1999511719</ele>
        <time>2022-02-23T08:11:17.000Z</time>
      </trkpt>
      <trkpt lat="45.70947" lon="6.2724">
        <ele>1291.8000488281</ele>
        <time>2022-02-23T08:11:21.000Z</time>
      </trkpt>
      <trkpt lat="45.70945" lon="6.2724">
        <ele>1292</ele>
        <time>2022-02-23T08:11:23.000Z</time>
      </trkpt>
      <trkpt lat="45.70943" lon="6.27238">
        <ele>1292.8000488281</ele>
        <time>2022-02-23T08:11:26.000Z</time>
      </trkpt>
      <trkpt lat="45.70941" lon="6.27236">
        <ele>1294</ele>
        <time>2022-02-23T08:11:30.000Z</time>
      </trkpt>
      <trkpt lat="45.70938" lon="6.27233">
        <ele>1294.5999755859</ele>
        <time>2022-02-23T08:11:35.000Z</time>
      </trkpt>
      <trkpt lat="45.70937" lon="6.27232">
        <ele>1295</ele>
        <time>2022-02-23T08:11:37.000Z</time>
      </trkpt>
      <trkpt lat="45.70934" lon="6.27229">
        <ele>1295.8000488281</ele>
        <time>2022-02-23T08:11:42.000Z</time>
      </trkpt>
      <trkpt lat="45.70933" lon="6.27229">
        <ele>1296</ele>
        <time>2022-02-23T08:11:43.000Z</time>
      </trkpt>
      <trkpt lat="45.70931" lon="6.27226">
        <ele>1297.1999511719</ele>
        <time>2022-02-23T08:11:47.000Z</time>
      </trkpt>
      <trkpt lat="45.70928" lon="6.27222">
        <ele>1298.1999511719</ele>
        <time>2022-02-23T08:11:53.000Z</time>
      </trkpt>
      <trkpt lat="45.70928" lon="6.27221">
        <ele>1298.1999511719</ele>
        <time>2022-02-23T08:11:54.000Z</time>
      </trkpt>
      <trkpt lat="45.70924" lon="6.27218">
        <ele>1299.1999511719</ele>
        <time>2022-02-23T08:12:00.000Z</time>
      </trkpt>
      <trkpt lat="45.70921" lon="6.27214">
        <ele>1300</ele>
        <time>2022-02-23T08:12:06.000Z</time>
      </trkpt>
      <trkpt lat="45.70919" lon="6.27213">
        <ele>1300.1999511719</ele>
        <time>2022-02-23T08:12:09.000Z</time>
      </trkpt>
      <trkpt lat="45.70917" lon="6.27211">
        <ele>1301.1999511719</ele>
        <time>2022-02-23T08:12:12.000Z</time>
      </trkpt>
      <trkpt lat="45.70917" lon="6.27211">
        <ele>1301.1999511719</ele>
        <time>2022-02-23T08:12:13.000Z</time>
      </trkpt>
      <trkpt lat="45.70913" lon="6.27208">
        <ele>1301.8000488281</ele>
        <time>2022-02-23T08:12:18.000Z</time>
      </trkpt>
      <trkpt lat="45.70911" lon="6.27207">
        <ele>1302.1999511719</ele>
        <time>2022-02-23T08:12:20.000Z</time>
      </trkpt>
      <trkpt lat="45.7091" lon="6.27205">
        <ele>1302.5999755859</ele>
        <time>2022-02-23T08:12:22.000Z</time>
      </trkpt>
      <trkpt lat="45.70909" lon="6.27205">
        <ele>1303</ele>
        <time>2022-02-23T08:12:24.000Z</time>
      </trkpt>
      <trkpt lat="45.70909" lon="6.27205">
        <ele>1303.1999511719</ele>
        <time>2022-02-23T08:12:25.000Z</time>
      </trkpt>
      <trkpt lat="45.70908" lon="6.27204">
        <ele>1303.4000244141</ele>
        <time>2022-02-23T08:12:27.000Z</time>
      </trkpt>
      <trkpt lat="45.70906" lon="6.27202">
        <ele>1304.1999511719</ele>
        <time>2022-02-23T08:12:31.000Z</time>
      </trkpt>
      <trkpt lat="45.70905" lon="6.27202">
        <ele>1304.4000244141</ele>
        <time>2022-02-23T08:12:32.000Z</time>
      </trkpt>
      <trkpt lat="45.70901" lon="6.272">
        <ele>1305.5999755859</ele>
        <time>2022-02-23T08:12:39.000Z</time>
      </trkpt>
      <trkpt lat="45.709" lon="6.27199">
        <ele>1305.8000488281</ele>
        <time>2022-02-23T08:12:40.000Z</time>
      </trkpt>
      <trkpt lat="45.70898" lon="6.27199">
        <ele>1306.1999511719</ele>
        <time>2022-02-23T08:12:43.000Z</time>
      </trkpt>
      <trkpt lat="45.70896" lon="6.27198">
        <ele>1306.5999755859</ele>
        <time>2022-02-23T08:12:46.000Z</time>
      </trkpt>
      <trkpt lat="45.70894" lon="6.27197">
        <ele>1307.4000244141</ele>
        <time>2022-02-23T08:12:49.000Z</time>
      </trkpt>
      <trkpt lat="45.70892" lon="6.27196">
        <ele>1307.5999755859</ele>
        <time>2022-02-23T08:12:51.000Z</time>
      </trkpt>
      <trkpt lat="45.70891" lon="6.27195">
        <ele>1307.8000488281</ele>
        <time>2022-02-23T08:12:52.000Z</time>
      </trkpt>
      <trkpt lat="45.7089" lon="6.27194">
        <ele>1308.4000244141</ele>
        <time>2022-02-23T08:12:55.000Z</time>
      </trkpt>
      <trkpt lat="45.70888" lon="6.27193">
        <ele>1308.8000488281</ele>
        <time>2022-02-23T08:12:57.000Z</time>
      </trkpt>
      <trkpt lat="45.70887" lon="6.27192">
        <ele>1309</ele>
        <time>2022-02-23T08:12:58.000Z</time>
      </trkpt>
      <trkpt lat="45.70883" lon="6.2719">
        <ele>1309.8000488281</ele>
        <time>2022-02-23T08:13:02.000Z</time>
      </trkpt>
      <trkpt lat="45.70882" lon="6.2719">
        <ele>1309.8000488281</ele>
        <time>2022-02-23T08:13:03.000Z</time>
      </trkpt>
      <trkpt lat="45.7088" lon="6.27189">
        <ele>1310.5999755859</ele>
        <time>2022-02-23T08:13:06.000Z</time>
      </trkpt>
      <trkpt lat="45.70878" lon="6.27188">
        <ele>1311</ele>
        <time>2022-02-23T08:13:09.000Z</time>
      </trkpt>
      <trkpt lat="45.70876" lon="6.27187">
        <ele>1311.4000244141</ele>
        <time>2022-02-23T08:13:12.000Z</time>
      </trkpt>
      <trkpt lat="45.70876" lon="6.27187">
        <ele>1311.4000244141</ele>
        <time>2022-02-23T08:13:13.000Z</time>
      </trkpt>
      <trkpt lat="45.70875" lon="6.27186">
        <ele>1311.5999755859</ele>
        <time>2022-02-23T08:13:14.000Z</time>
      </trkpt>
      <trkpt lat="45.70874" lon="6.27185">
        <ele>1312.1999511719</ele>
        <time>2022-02-23T08:13:17.000Z</time>
      </trkpt>
      <trkpt lat="45.70872" lon="6.27184">
        <ele>1312.5999755859</ele>
        <time>2022-02-23T08:13:19.000Z</time>
      </trkpt>
      <trkpt lat="45.70872" lon="6.27183">
        <ele>1313</ele>
        <time>2022-02-23T08:13:20.000Z</time>
      </trkpt>
      <trkpt lat="45.70871" lon="6.27182">
        <ele>1313.1999511719</ele>
        <time>2022-02-23T08:13:21.000Z</time>
      </trkpt>
      <trkpt lat="45.70869" lon="6.27181">
        <ele>1313.4000244141</ele>
        <time>2022-02-23T08:13:24.000Z</time>
      </trkpt>
      <trkpt lat="45.70866" lon="6.2718">
        <ele>1314</ele>
        <time>2022-02-23T08:13:28.000Z</time>
      </trkpt>
      <trkpt lat="45.70865" lon="6.2718">
        <ele>1314.1999511719</ele>
        <time>2022-02-23T08:13:30.000Z</time>
      </trkpt>
      <trkpt lat="45.70864" lon="6.27179">
        <ele>1314.5999755859</ele>
        <time>2022-02-23T08:13:32.000Z</time>
      </trkpt>
      <trkpt lat="45.70862" lon="6.27178">
        <ele>1315.4000244141</ele>
        <time>2022-02-23T08:13:36.000Z</time>
      </trkpt>
      <trkpt lat="45.70861" lon="6.27176">
        <ele>1315.5999755859</ele>
        <time>2022-02-23T08:13:39.000Z</time>
      </trkpt>
      <trkpt lat="45.70861" lon="6.27176">
        <ele>1315.8000488281</ele>
        <time>2022-02-23T08:13:40.000Z</time>
      </trkpt>
      <trkpt lat="45.7086" lon="6.27176">
        <ele>1316.4000244141</ele>
        <time>2022-02-23T08:13:42.000Z</time>
      </trkpt>
      <trkpt lat="45.70856" lon="6.27172">
        <ele>1317.4000244141</ele>
        <time>2022-02-23T08:13:47.000Z</time>
      </trkpt>
      <trkpt lat="45.70855" lon="6.27172">
        <ele>1317.5999755859</ele>
        <time>2022-02-23T08:13:48.000Z</time>
      </trkpt>
      <trkpt lat="45.70852" lon="6.2717">
        <ele>1318.1999511719</ele>
        <time>2022-02-23T08:13:52.000Z</time>
      </trkpt>
      <trkpt lat="45.70851" lon="6.27169">
        <ele>1318.5999755859</ele>
        <time>2022-02-23T08:13:53.000Z</time>
      </trkpt>
      <trkpt lat="45.7085" lon="6.27169">
        <ele>1318.8000488281</ele>
        <time>2022-02-23T08:13:54.000Z</time>
      </trkpt>
      <trkpt lat="45.70849" lon="6.27166">
        <ele>1319.1999511719</ele>
        <time>2022-02-23T08:13:58.000Z</time>
      </trkpt>
      <trkpt lat="45.70847" lon="6.27165">
        <ele>1319.8000488281</ele>
        <time>2022-02-23T08:14:02.000Z</time>
      </trkpt>
      <trkpt lat="45.70844" lon="6.27163">
        <ele>1320.5999755859</ele>
        <time>2022-02-23T08:14:05.000Z</time>
      </trkpt>
      <trkpt lat="45.70842" lon="6.27162">
        <ele>1320.8000488281</ele>
        <time>2022-02-23T08:14:08.000Z</time>
      </trkpt>
      <trkpt lat="45.70839" lon="6.27161">
        <ele>1321.4000244141</ele>
        <time>2022-02-23T08:14:11.000Z</time>
      </trkpt>
      <trkpt lat="45.70837" lon="6.27159">
        <ele>1322</ele>
        <time>2022-02-23T08:14:14.000Z</time>
      </trkpt>
      <trkpt lat="45.70834" lon="6.27159">
        <ele>1322.1999511719</ele>
        <time>2022-02-23T08:14:17.000Z</time>
      </trkpt>
      <trkpt lat="45.7083" lon="6.27157">
        <ele>1323.1999511719</ele>
        <time>2022-02-23T08:14:23.000Z</time>
      </trkpt>
      <trkpt lat="45.70829" lon="6.27157">
        <ele>1323.4000244141</ele>
        <time>2022-02-23T08:14:24.000Z</time>
      </trkpt>
      <trkpt lat="45.70829" lon="6.27156">
        <ele>1323.5999755859</ele>
        <time>2022-02-23T08:14:25.000Z</time>
      </trkpt>
      <trkpt lat="45.70826" lon="6.27155">
        <ele>1323.8000488281</ele>
        <time>2022-02-23T08:14:28.000Z</time>
      </trkpt>
      <trkpt lat="45.70826" lon="6.27154">
        <ele>1324.1999511719</ele>
        <time>2022-02-23T08:14:29.000Z</time>
      </trkpt>
      <trkpt lat="45.70824" lon="6.27154">
        <ele>1324.4000244141</ele>
        <time>2022-02-23T08:14:30.000Z</time>
      </trkpt>
      <trkpt lat="45.70823" lon="6.27153">
        <ele>1324.5999755859</ele>
        <time>2022-02-23T08:14:32.000Z</time>
      </trkpt>
      <trkpt lat="45.70821" lon="6.27151">
        <ele>1325</ele>
        <time>2022-02-23T08:14:34.000Z</time>
      </trkpt>
      <trkpt lat="45.70817" lon="6.2715">
        <ele>1325.4000244141</ele>
        <time>2022-02-23T08:14:39.000Z</time>
      </trkpt>
      <trkpt lat="45.70815" lon="6.2715">
        <ele>1325.8000488281</ele>
        <time>2022-02-23T08:14:41.000Z</time>
      </trkpt>
      <trkpt lat="45.70813" lon="6.27148">
        <ele>1326.1999511719</ele>
        <time>2022-02-23T08:14:45.000Z</time>
      </trkpt>
      <trkpt lat="45.70811" lon="6.27147">
        <ele>1326.4000244141</ele>
        <time>2022-02-23T08:14:47.000Z</time>
      </trkpt>
      <trkpt lat="45.70811" lon="6.27147">
        <ele>1326.5999755859</ele>
        <time>2022-02-23T08:14:48.000Z</time>
      </trkpt>
      <trkpt lat="45.7081" lon="6.27146">
        <ele>1326.8000488281</ele>
        <time>2022-02-23T08:14:49.000Z</time>
      </trkpt>
      <trkpt lat="45.70806" lon="6.27146">
        <ele>1327.5999755859</ele>
        <time>2022-02-23T08:14:55.000Z</time>
      </trkpt>
      <trkpt lat="45.70805" lon="6.27145">
        <ele>1327.5999755859</ele>
        <time>2022-02-23T08:14:56.000Z</time>
      </trkpt>
      <trkpt lat="45.70803" lon="6.27145">
        <ele>1328</ele>
        <time>2022-02-23T08:14:58.000Z</time>
      </trkpt>
      <trkpt lat="45.70802" lon="6.27144">
        <ele>1328.4000244141</ele>
        <time>2022-02-23T08:15:00.000Z</time>
      </trkpt>
      <trkpt lat="45.708" lon="6.27143">
        <ele>1328.5999755859</ele>
        <time>2022-02-23T08:15:02.000Z</time>
      </trkpt>
      <trkpt lat="45.70799" lon="6.27143">
        <ele>1328.8000488281</ele>
        <time>2022-02-23T08:15:03.000Z</time>
      </trkpt>
      <trkpt lat="45.70794" lon="6.27141">
        <ele>1329.5999755859</ele>
        <time>2022-02-23T08:15:08.000Z</time>
      </trkpt>
      <trkpt lat="45.70792" lon="6.2714">
        <ele>1329.5999755859</ele>
        <time>2022-02-23T08:15:10.000Z</time>
      </trkpt>
      <trkpt lat="45.70791" lon="6.2714">
        <ele>1329.8000488281</ele>
        <time>2022-02-23T08:15:11.000Z</time>
      </trkpt>
      <trkpt lat="45.70787" lon="6.27136">
        <ele>1331</ele>
        <time>2022-02-23T08:15:18.000Z</time>
      </trkpt>
      <trkpt lat="45.70786" lon="6.27135">
        <ele>1331.1999511719</ele>
        <time>2022-02-23T08:15:19.000Z</time>
      </trkpt>
      <trkpt lat="45.70784" lon="6.27135">
        <ele>1331.5999755859</ele>
        <time>2022-02-23T08:15:21.000Z</time>
      </trkpt>
      <trkpt lat="45.70782" lon="6.27133">
        <ele>1332</ele>
        <time>2022-02-23T08:15:24.000Z</time>
      </trkpt>
      <trkpt lat="45.70782" lon="6.27133">
        <ele>1332.1999511719</ele>
        <time>2022-02-23T08:15:25.000Z</time>
      </trkpt>
      <trkpt lat="45.70781" lon="6.27132">
        <ele>1332.4000244141</ele>
        <time>2022-02-23T08:15:26.000Z</time>
      </trkpt>
      <trkpt lat="45.70776" lon="6.2713">
        <ele>1333</ele>
        <time>2022-02-23T08:15:32.000Z</time>
      </trkpt>
      <trkpt lat="45.70774" lon="6.27129">
        <ele>1333.1999511719</ele>
        <time>2022-02-23T08:15:34.000Z</time>
      </trkpt>
      <trkpt lat="45.70774" lon="6.27129">
        <ele>1333.4000244141</ele>
        <time>2022-02-23T08:15:35.000Z</time>
      </trkpt>
      <trkpt lat="45.70769" lon="6.27126">
        <ele>1333.8000488281</ele>
        <time>2022-02-23T08:15:40.000Z</time>
      </trkpt>
      <trkpt lat="45.70767" lon="6.27126">
        <ele>1334.4000244141</ele>
        <time>2022-02-23T08:15:42.000Z</time>
      </trkpt>
      <trkpt lat="45.70761" lon="6.27122">
        <ele>1335</ele>
        <time>2022-02-23T08:15:47.000Z</time>
      </trkpt>
      <trkpt lat="45.70754" lon="6.27118">
        <ele>1335.1999511719</ele>
        <time>2022-02-23T08:15:54.000Z</time>
      </trkpt>
      <trkpt lat="45.70753" lon="6.27117">
        <ele>1335.4000244141</ele>
        <time>2022-02-23T08:15:56.000Z</time>
      </trkpt>
      <trkpt lat="45.70749" lon="6.27114">
        <ele>1336.1999511719</ele>
        <time>2022-02-23T08:16:01.000Z</time>
      </trkpt>
      <trkpt lat="45.70748" lon="6.27112">
        <ele>1336.4000244141</ele>
        <time>2022-02-23T08:16:03.000Z</time>
      </trkpt>
      <trkpt lat="45.70744" lon="6.27111">
        <ele>1337.1999511719</ele>
        <time>2022-02-23T08:16:08.000Z</time>
      </trkpt>
      <trkpt lat="45.70741" lon="6.2711">
        <ele>1337.4000244141</ele>
        <time>2022-02-23T08:16:11.000Z</time>
      </trkpt>
      <trkpt lat="45.70739" lon="6.27109">
        <ele>1337.5999755859</ele>
        <time>2022-02-23T08:16:14.000Z</time>
      </trkpt>
      <trkpt lat="45.70737" lon="6.27107">
        <ele>1338.5999755859</ele>
        <time>2022-02-23T08:16:18.000Z</time>
      </trkpt>
      <trkpt lat="45.70735" lon="6.27105">
        <ele>1339</ele>
        <time>2022-02-23T08:16:21.000Z</time>
      </trkpt>
      <trkpt lat="45.70732" lon="6.27103">
        <ele>1339.8000488281</ele>
        <time>2022-02-23T08:16:25.000Z</time>
      </trkpt>
      <trkpt lat="45.7073" lon="6.27102">
        <ele>1340.1999511719</ele>
        <time>2022-02-23T08:16:28.000Z</time>
      </trkpt>
      <trkpt lat="45.70728" lon="6.271">
        <ele>1340.8000488281</ele>
        <time>2022-02-23T08:16:31.000Z</time>
      </trkpt>
      <trkpt lat="45.70726" lon="6.27099">
        <ele>1341.5999755859</ele>
        <time>2022-02-23T08:16:34.000Z</time>
      </trkpt>
      <trkpt lat="45.70724" lon="6.27098">
        <ele>1342</ele>
        <time>2022-02-23T08:16:36.000Z</time>
      </trkpt>
      <trkpt lat="45.7072" lon="6.27094">
        <ele>1343</ele>
        <time>2022-02-23T08:16:42.000Z</time>
      </trkpt>
      <trkpt lat="45.70719" lon="6.27093">
        <ele>1343</ele>
        <time>2022-02-23T08:16:43.000Z</time>
      </trkpt>
      <trkpt lat="45.70719" lon="6.27093">
        <ele>1343</ele>
        <time>2022-02-23T08:16:44.000Z</time>
      </trkpt>
      <trkpt lat="45.70717" lon="6.27091">
        <ele>1343.5999755859</ele>
        <time>2022-02-23T08:16:47.000Z</time>
      </trkpt>
      <trkpt lat="45.70716" lon="6.2709">
        <ele>1343.8000488281</ele>
        <time>2022-02-23T08:16:49.000Z</time>
      </trkpt>
      <trkpt lat="45.70716" lon="6.2709">
        <ele>1344</ele>
        <time>2022-02-23T08:16:50.000Z</time>
      </trkpt>
      <trkpt lat="45.70714" lon="6.27088">
        <ele>1344.5999755859</ele>
        <time>2022-02-23T08:16:53.000Z</time>
      </trkpt>
      <trkpt lat="45.70713" lon="6.27085">
        <ele>1345.1999511719</ele>
        <time>2022-02-23T08:16:55.000Z</time>
      </trkpt>
      <trkpt lat="45.70713" lon="6.27084">
        <ele>1345.1999511719</ele>
        <time>2022-02-23T08:16:56.000Z</time>
      </trkpt>
      <trkpt lat="45.70713" lon="6.27084">
        <ele>1345.1999511719</ele>
        <time>2022-02-23T08:16:57.000Z</time>
      </trkpt>
      <trkpt lat="45.70711" lon="6.27083">
        <ele>1345.8000488281</ele>
        <time>2022-02-23T08:16:59.000Z</time>
      </trkpt>
      <trkpt lat="45.70708" lon="6.27082">
        <ele>1346</ele>
        <time>2022-02-23T08:17:02.000Z</time>
      </trkpt>
      <trkpt lat="45.70706" lon="6.27082">
        <ele>1346</ele>
        <time>2022-02-23T08:17:05.000Z</time>
      </trkpt>
      <trkpt lat="45.70705" lon="6.27082">
        <ele>1346.1999511719</ele>
        <time>2022-02-23T08:17:06.000Z</time>
      </trkpt>
      <trkpt lat="45.70702" lon="6.27081">
        <ele>1346.4000244141</ele>
        <time>2022-02-23T08:17:09.000Z</time>
      </trkpt>
      <trkpt lat="45.70697" lon="6.27078">
        <ele>1347</ele>
        <time>2022-02-23T08:17:14.000Z</time>
      </trkpt>
      <trkpt lat="45.70695" lon="6.27078">
        <ele>1347</ele>
        <time>2022-02-23T08:17:15.000Z</time>
      </trkpt>
      <trkpt lat="45.70694" lon="6.27077">
        <ele>1347.1999511719</ele>
        <time>2022-02-23T08:17:17.000Z</time>
      </trkpt>
      <trkpt lat="45.70694" lon="6.27076">
        <ele>1347.1999511719</ele>
        <time>2022-02-23T08:17:18.000Z</time>
      </trkpt>
      <trkpt lat="45.70693" lon="6.27076">
        <ele>1347.4000244141</ele>
        <time>2022-02-23T08:17:19.000Z</time>
      </trkpt>
      <trkpt lat="45.7069" lon="6.27073">
        <ele>1348.1999511719</ele>
        <time>2022-02-23T08:17:23.000Z</time>
      </trkpt>
      <trkpt lat="45.7069" lon="6.27073">
        <ele>1348.4000244141</ele>
        <time>2022-02-23T08:17:24.000Z</time>
      </trkpt>
      <trkpt lat="45.70686" lon="6.27069">
        <ele>1349.1999511719</ele>
        <time>2022-02-23T08:17:30.000Z</time>
      </trkpt>
      <trkpt lat="45.70685" lon="6.27068">
        <ele>1349.4000244141</ele>
        <time>2022-02-23T08:17:31.000Z</time>
      </trkpt>
      <trkpt lat="45.70682" lon="6.27065">
        <ele>1350.1999511719</ele>
        <time>2022-02-23T08:17:36.000Z</time>
      </trkpt>
      <trkpt lat="45.70682" lon="6.27064">
        <ele>1350.5999755859</ele>
        <time>2022-02-23T08:17:37.000Z</time>
      </trkpt>
      <trkpt lat="45.70679" lon="6.27059">
        <ele>1351.4000244141</ele>
        <time>2022-02-23T08:17:42.000Z</time>
      </trkpt>
      <trkpt lat="45.70677" lon="6.27057">
        <ele>1351.5999755859</ele>
        <time>2022-02-23T08:17:44.000Z</time>
      </trkpt>
      <trkpt lat="45.70673" lon="6.27054">
        <ele>1352.5999755859</ele>
        <time>2022-02-23T08:17:49.000Z</time>
      </trkpt>
      <trkpt lat="45.7067" lon="6.27053">
        <ele>1353</ele>
        <time>2022-02-23T08:17:52.000Z</time>
      </trkpt>
      <trkpt lat="45.70668" lon="6.27051">
        <ele>1353.4000244141</ele>
        <time>2022-02-23T08:17:55.000Z</time>
      </trkpt>
      <trkpt lat="45.70666" lon="6.27051">
        <ele>1353.5999755859</ele>
        <time>2022-02-23T08:17:57.000Z</time>
      </trkpt>
      <trkpt lat="45.70666" lon="6.27051">
        <ele>1353.5999755859</ele>
        <time>2022-02-23T08:17:58.000Z</time>
      </trkpt>
      <trkpt lat="45.70665" lon="6.27051">
        <ele>1353.5999755859</ele>
        <time>2022-02-23T08:17:59.000Z</time>
      </trkpt>
      <trkpt lat="45.70662" lon="6.27051">
        <ele>1354.1999511719</ele>
        <time>2022-02-23T08:18:04.000Z</time>
      </trkpt>
      <trkpt lat="45.70658" lon="6.2705">
        <ele>1354.8000488281</ele>
        <time>2022-02-23T08:18:08.000Z</time>
      </trkpt>
      <trkpt lat="45.70657" lon="6.27048">
        <ele>1355</ele>
        <time>2022-02-23T08:18:10.000Z</time>
      </trkpt>
      <trkpt lat="45.70654" lon="6.27045">
        <ele>1355.5999755859</ele>
        <time>2022-02-23T08:18:13.000Z</time>
      </trkpt>
      <trkpt lat="45.70652" lon="6.27044">
        <ele>1356</ele>
        <time>2022-02-23T08:18:15.000Z</time>
      </trkpt>
      <trkpt lat="45.70647" lon="6.27042">
        <ele>1356.8000488281</ele>
        <time>2022-02-23T08:18:19.000Z</time>
      </trkpt>
      <trkpt lat="45.70646" lon="6.27041">
        <ele>1357.1999511719</ele>
        <time>2022-02-23T08:18:21.000Z</time>
      </trkpt>
      <trkpt lat="45.70644" lon="6.27036">
        <ele>1358</ele>
        <time>2022-02-23T08:18:26.000Z</time>
      </trkpt>
      <trkpt lat="45.70643" lon="6.27034">
        <ele>1358.1999511719</ele>
        <time>2022-02-23T08:18:28.000Z</time>
      </trkpt>
      <trkpt lat="45.70643" lon="6.27033">
        <ele>1358.4000244141</ele>
        <time>2022-02-23T08:18:29.000Z</time>
      </trkpt>
      <trkpt lat="45.70642" lon="6.2703">
        <ele>1358.8000488281</ele>
        <time>2022-02-23T08:18:32.000Z</time>
      </trkpt>
      <trkpt lat="45.70642" lon="6.27027">
        <ele>1359.1999511719</ele>
        <time>2022-02-23T08:18:34.000Z</time>
      </trkpt>
      <trkpt lat="45.70642" lon="6.27024">
        <ele>1359.8000488281</ele>
        <time>2022-02-23T08:18:37.000Z</time>
      </trkpt>
      <trkpt lat="45.70642" lon="6.27023">
        <ele>1360</ele>
        <time>2022-02-23T08:18:38.000Z</time>
      </trkpt>
      <trkpt lat="45.70642" lon="6.27021">
        <ele>1360.4000244141</ele>
        <time>2022-02-23T08:18:40.000Z</time>
      </trkpt>
      <trkpt lat="45.70641" lon="6.27015">
        <ele>1361.4000244141</ele>
        <time>2022-02-23T08:18:45.000Z</time>
      </trkpt>
      <trkpt lat="45.7064" lon="6.27014">
        <ele>1361.5999755859</ele>
        <time>2022-02-23T08:18:46.000Z</time>
      </trkpt>
      <trkpt lat="45.70639" lon="6.27012">
        <ele>1362</ele>
        <time>2022-02-23T08:18:48.000Z</time>
      </trkpt>
      <trkpt lat="45.70638" lon="6.27009">
        <ele>1362.5999755859</ele>
        <time>2022-02-23T08:18:51.000Z</time>
      </trkpt>
      <trkpt lat="45.70638" lon="6.27008">
        <ele>1362.8000488281</ele>
        <time>2022-02-23T08:18:52.000Z</time>
      </trkpt>
      <trkpt lat="45.70638" lon="6.27005">
        <ele>1363</ele>
        <time>2022-02-23T08:18:54.000Z</time>
      </trkpt>
      <trkpt lat="45.70639" lon="6.26999">
        <ele>1363.1999511719</ele>
        <time>2022-02-23T08:18:58.000Z</time>
      </trkpt>
      <trkpt lat="45.70638" lon="6.26995">
        <ele>1363.8000488281</ele>
        <time>2022-02-23T08:19:01.000Z</time>
      </trkpt>
      <trkpt lat="45.70637" lon="6.2699">
        <ele>1364.4000244141</ele>
        <time>2022-02-23T08:19:04.000Z</time>
      </trkpt>
      <trkpt lat="45.70635" lon="6.26985">
        <ele>1364.8000488281</ele>
        <time>2022-02-23T08:19:08.000Z</time>
      </trkpt>
      <trkpt lat="45.70635" lon="6.26984">
        <ele>1364.8000488281</ele>
        <time>2022-02-23T08:19:09.000Z</time>
      </trkpt>
      <trkpt lat="45.70633" lon="6.26982">
        <ele>1365.1999511719</ele>
        <time>2022-02-23T08:19:11.000Z</time>
      </trkpt>
      <trkpt lat="45.70632" lon="6.2698">
        <ele>1365.8000488281</ele>
        <time>2022-02-23T08:19:14.000Z</time>
      </trkpt>
      <trkpt lat="45.70631" lon="6.26979">
        <ele>1365.8000488281</ele>
        <time>2022-02-23T08:19:15.000Z</time>
      </trkpt>
      <trkpt lat="45.70627" lon="6.26977">
        <ele>1366.1999511719</ele>
        <time>2022-02-23T08:19:19.000Z</time>
      </trkpt>
      <trkpt lat="45.70626" lon="6.26976">
        <ele>1366.4000244141</ele>
        <time>2022-02-23T08:19:22.000Z</time>
      </trkpt>
      <trkpt lat="45.70625" lon="6.26976">
        <ele>1366.4000244141</ele>
        <time>2022-02-23T08:19:23.000Z</time>
      </trkpt>
      <trkpt lat="45.70623" lon="6.26975">
        <ele>1367</ele>
        <time>2022-02-23T08:19:26.000Z</time>
      </trkpt>
      <trkpt lat="45.70622" lon="6.26975">
        <ele>1367.4000244141</ele>
        <time>2022-02-23T08:19:28.000Z</time>
      </trkpt>
      <trkpt lat="45.7062" lon="6.26976">
        <ele>1368.1999511719</ele>
        <time>2022-02-23T08:19:33.000Z</time>
      </trkpt>
      <trkpt lat="45.70619" lon="6.26978">
        <ele>1368.5999755859</ele>
        <time>2022-02-23T08:19:36.000Z</time>
      </trkpt>
      <trkpt lat="45.70618" lon="6.26979">
        <ele>1369.1999511719</ele>
        <time>2022-02-23T08:19:40.000Z</time>
      </trkpt>
      <trkpt lat="45.70616" lon="6.2698">
        <ele>1370</ele>
        <time>2022-02-23T08:19:43.000Z</time>
      </trkpt>
      <trkpt lat="45.70616" lon="6.26981">
        <ele>1370.1999511719</ele>
        <time>2022-02-23T08:19:44.000Z</time>
      </trkpt>
      <trkpt lat="45.70616" lon="6.26983">
        <ele>1371.1999511719</ele>
        <time>2022-02-23T08:19:48.000Z</time>
      </trkpt>
      <trkpt lat="45.70616" lon="6.26984">
        <ele>1371.4000244141</ele>
        <time>2022-02-23T08:19:50.000Z</time>
      </trkpt>
      <trkpt lat="45.70615" lon="6.26987">
        <ele>1371.8000488281</ele>
        <time>2022-02-23T08:19:54.000Z</time>
      </trkpt>
      <trkpt lat="45.70615" lon="6.26987">
        <ele>1372.1999511719</ele>
        <time>2022-02-23T08:19:55.000Z</time>
      </trkpt>
      <trkpt lat="45.70615" lon="6.26988">
        <ele>1372.4000244141</ele>
        <time>2022-02-23T08:19:56.000Z</time>
      </trkpt>
      <trkpt lat="45.70615" lon="6.26989">
        <ele>1372.5999755859</ele>
        <time>2022-02-23T08:19:57.000Z</time>
      </trkpt>
      <trkpt lat="45.70615" lon="6.26991">
        <ele>1373.8000488281</ele>
        <time>2022-02-23T08:20:00.000Z</time>
      </trkpt>
      <trkpt lat="45.70614" lon="6.26995">
        <ele>1374.4000244141</ele>
        <time>2022-02-23T08:20:06.000Z</time>
      </trkpt>
      <trkpt lat="45.70613" lon="6.26996">
        <ele>1375</ele>
        <time>2022-02-23T08:20:08.000Z</time>
      </trkpt>
      <trkpt lat="45.7061" lon="6.27001">
        <ele>1376</ele>
        <time>2022-02-23T08:20:14.000Z</time>
      </trkpt>
      <trkpt lat="45.70609" lon="6.27001">
        <ele>1376</ele>
        <time>2022-02-23T08:20:15.000Z</time>
      </trkpt>
      <trkpt lat="45.70607" lon="6.27003">
        <ele>1377</ele>
        <time>2022-02-23T08:20:20.000Z</time>
      </trkpt>
      <trkpt lat="45.70606" lon="6.27005">
        <ele>1377.4000244141</ele>
        <time>2022-02-23T08:20:22.000Z</time>
      </trkpt>
      <trkpt lat="45.70604" lon="6.27007">
        <ele>1378.1999511719</ele>
        <time>2022-02-23T08:20:26.000Z</time>
      </trkpt>
      <trkpt lat="45.70603" lon="6.27009">
        <ele>1378.8000488281</ele>
        <time>2022-02-23T08:20:28.000Z</time>
      </trkpt>
      <trkpt lat="45.70601" lon="6.27012">
        <ele>1379.1999511719</ele>
        <time>2022-02-23T08:20:31.000Z</time>
      </trkpt>
      <trkpt lat="45.70598" lon="6.27016">
        <ele>1379.8000488281</ele>
        <time>2022-02-23T08:20:35.000Z</time>
      </trkpt>
      <trkpt lat="45.70597" lon="6.27017">
        <ele>1380.4000244141</ele>
        <time>2022-02-23T08:20:38.000Z</time>
      </trkpt>
      <trkpt lat="45.70594" lon="6.2702">
        <ele>1381.1999511719</ele>
        <time>2022-02-23T08:20:44.000Z</time>
      </trkpt>
      <trkpt lat="45.70594" lon="6.27021">
        <ele>1381.4000244141</ele>
        <time>2022-02-23T08:20:45.000Z</time>
      </trkpt>
      <trkpt lat="45.70593" lon="6.2703">
        <ele>1382.1999511719</ele>
        <time>2022-02-23T08:20:51.000Z</time>
      </trkpt>
      <trkpt lat="45.70593" lon="6.27031">
        <ele>1382.4000244141</ele>
        <time>2022-02-23T08:20:52.000Z</time>
      </trkpt>
      <trkpt lat="45.70592" lon="6.27035">
        <ele>1382.5999755859</ele>
        <time>2022-02-23T08:20:55.000Z</time>
      </trkpt>
      <trkpt lat="45.70592" lon="6.27038">
        <ele>1383.4000244141</ele>
        <time>2022-02-23T08:20:58.000Z</time>
      </trkpt>
      <trkpt lat="45.70592" lon="6.27039">
        <ele>1383.5999755859</ele>
        <time>2022-02-23T08:20:59.000Z</time>
      </trkpt>
      <trkpt lat="45.70592" lon="6.27043">
        <ele>1384.1999511719</ele>
        <time>2022-02-23T08:21:04.000Z</time>
      </trkpt>
      <trkpt lat="45.70592" lon="6.27047">
        <ele>1384.8000488281</ele>
        <time>2022-02-23T08:21:08.000Z</time>
      </trkpt>
      <trkpt lat="45.70592" lon="6.27049">
        <ele>1385.1999511719</ele>
        <time>2022-02-23T08:21:10.000Z</time>
      </trkpt>
      <trkpt lat="45.70593" lon="6.27051">
        <ele>1385.8000488281</ele>
        <time>2022-02-23T08:21:13.000Z</time>
      </trkpt>
      <trkpt lat="45.70592" lon="6.27055">
        <ele>1386.5999755859</ele>
        <time>2022-02-23T08:21:17.000Z</time>
      </trkpt>
      <trkpt lat="45.70592" lon="6.27057">
        <ele>1387</ele>
        <time>2022-02-23T08:21:19.000Z</time>
      </trkpt>
      <trkpt lat="45.70592" lon="6.27062">
        <ele>1388</ele>
        <time>2022-02-23T08:21:23.000Z</time>
      </trkpt>
      <trkpt lat="45.70593" lon="6.27066">
        <ele>1389</ele>
        <time>2022-02-23T08:21:28.000Z</time>
      </trkpt>
      <trkpt lat="45.70594" lon="6.27066">
        <ele>1389.4000244141</ele>
        <time>2022-02-23T08:21:29.000Z</time>
      </trkpt>
      <trkpt lat="45.70593" lon="6.27066">
        <ele>1390</ele>
        <time>2022-02-23T08:21:33.000Z</time>
      </trkpt>
      <trkpt lat="45.70594" lon="6.27069">
        <ele>1390</ele>
        <time>2022-02-23T08:21:37.000Z</time>
      </trkpt>
      <trkpt lat="45.70593" lon="6.27075">
        <ele>1390.4000244141</ele>
        <time>2022-02-23T08:21:42.000Z</time>
      </trkpt>
      <trkpt lat="45.70594" lon="6.27078">
        <ele>1391.4000244141</ele>
        <time>2022-02-23T08:21:45.000Z</time>
      </trkpt>
      <trkpt lat="45.70595" lon="6.2708">
        <ele>1391.8000488281</ele>
        <time>2022-02-23T08:21:47.000Z</time>
      </trkpt>
      <trkpt lat="45.70595" lon="6.27082">
        <ele>1392.1999511719</ele>
        <time>2022-02-23T08:21:49.000Z</time>
      </trkpt>
      <trkpt lat="45.70596" lon="6.27084">
        <ele>1392.4000244141</ele>
        <time>2022-02-23T08:21:51.000Z</time>
      </trkpt>
      <trkpt lat="45.70597" lon="6.27085">
        <ele>1392.5999755859</ele>
        <time>2022-02-23T08:21:52.000Z</time>
      </trkpt>
      <trkpt lat="45.70598" lon="6.27086">
        <ele>1392.8000488281</ele>
        <time>2022-02-23T08:21:54.000Z</time>
      </trkpt>
      <trkpt lat="45.70598" lon="6.27088">
        <ele>1393</ele>
        <time>2022-02-23T08:21:55.000Z</time>
      </trkpt>
      <trkpt lat="45.70599" lon="6.27091">
        <ele>1393.5999755859</ele>
        <time>2022-02-23T08:21:59.000Z</time>
      </trkpt>
      <trkpt lat="45.70601" lon="6.27095">
        <ele>1394.4000244141</ele>
        <time>2022-02-23T08:22:04.000Z</time>
      </trkpt>
      <trkpt lat="45.70601" lon="6.27098">
        <ele>1394.5999755859</ele>
        <time>2022-02-23T08:22:06.000Z</time>
      </trkpt>
      <trkpt lat="45.70602" lon="6.27098">
        <ele>1395</ele>
        <time>2022-02-23T08:22:07.000Z</time>
      </trkpt>
      <trkpt lat="45.70603" lon="6.27102">
        <ele>1395.8000488281</ele>
        <time>2022-02-23T08:22:12.000Z</time>
      </trkpt>
      <trkpt lat="45.70604" lon="6.27104">
        <ele>1396</ele>
        <time>2022-02-23T08:22:15.000Z</time>
      </trkpt>
      <trkpt lat="45.70605" lon="6.27106">
        <ele>1396.4000244141</ele>
        <time>2022-02-23T08:22:17.000Z</time>
      </trkpt>
      <trkpt lat="45.70607" lon="6.27109">
        <ele>1397.1999511719</ele>
        <time>2022-02-23T08:22:22.000Z</time>
      </trkpt>
      <trkpt lat="45.70608" lon="6.2711">
        <ele>1397.4000244141</ele>
        <time>2022-02-23T08:22:23.000Z</time>
      </trkpt>
      <trkpt lat="45.70609" lon="6.27112">
        <ele>1398.1999511719</ele>
        <time>2022-02-23T08:22:26.000Z</time>
      </trkpt>
      <trkpt lat="45.70609" lon="6.27113">
        <ele>1398.4000244141</ele>
        <time>2022-02-23T08:22:28.000Z</time>
      </trkpt>
      <trkpt lat="45.70612" lon="6.27118">
        <ele>1398.8000488281</ele>
        <time>2022-02-23T08:22:34.000Z</time>
      </trkpt>
      <trkpt lat="45.70613" lon="6.2712">
        <ele>1399.1999511719</ele>
        <time>2022-02-23T08:22:36.000Z</time>
      </trkpt>
      <trkpt lat="45.70615" lon="6.27122">
        <ele>1399.4000244141</ele>
        <time>2022-02-23T08:22:41.000Z</time>
      </trkpt>
      <trkpt lat="45.70616" lon="6.27125">
        <ele>1399.8000488281</ele>
        <time>2022-02-23T08:22:47.000Z</time>
      </trkpt>
      <trkpt lat="45.70617" lon="6.27125">
        <ele>1399.8000488281</ele>
        <time>2022-02-23T08:22:48.000Z</time>
      </trkpt>
      <trkpt lat="45.70616" lon="6.27126">
        <ele>1400.1999511719</ele>
        <time>2022-02-23T08:22:54.000Z</time>
      </trkpt>
      <trkpt lat="45.70616" lon="6.27126">
        <ele>1400.4000244141</ele>
        <time>2022-02-23T08:22:55.000Z</time>
      </trkpt>
      <trkpt lat="45.70615" lon="6.27127">
        <ele>1400</ele>
        <time>2022-02-23T08:22:59.000Z</time>
      </trkpt>
      <trkpt lat="45.70614" lon="6.27127">
        <ele>1399.8000488281</ele>
        <time>2022-02-23T08:23:03.000Z</time>
      </trkpt>
      <trkpt lat="45.70614" lon="6.27127">
        <ele>1399.5999755859</ele>
        <time>2022-02-23T08:23:04.000Z</time>
      </trkpt>
      <trkpt lat="45.70613" lon="6.27127">
        <ele>1399.5999755859</ele>
        <time>2022-02-23T08:23:08.000Z</time>
      </trkpt>
      <trkpt lat="45.70613" lon="6.27127">
        <ele>1399.8000488281</ele>
        <time>2022-02-23T08:23:14.000Z</time>
      </trkpt>
      <trkpt lat="45.70613" lon="6.27128">
        <ele>1400</ele>
        <time>2022-02-23T08:23:19.000Z</time>
      </trkpt>
      <trkpt lat="45.70613" lon="6.27128">
        <ele>1399.8000488281</ele>
        <time>2022-02-23T08:23:23.000Z</time>
      </trkpt>
      <trkpt lat="45.70613" lon="6.27127">
        <ele>1399.8000488281</ele>
        <time>2022-02-23T08:23:26.000Z</time>
      </trkpt>
      <trkpt lat="45.70612" lon="6.27127">
        <ele>1400.1999511719</ele>
        <time>2022-02-23T08:23:33.000Z</time>
      </trkpt>
      <trkpt lat="45.70614" lon="6.27127">
        <ele>1400.4000244141</ele>
        <time>2022-02-23T08:23:43.000Z</time>
      </trkpt>
      <trkpt lat="45.70614" lon="6.27127">
        <ele>1400.8000488281</ele>
        <time>2022-02-23T08:23:45.000Z</time>
      </trkpt>
      <trkpt lat="45.70615" lon="6.27127">
        <ele>1400.8000488281</ele>
        <time>2022-02-23T08:23:47.000Z</time>
      </trkpt>
      <trkpt lat="45.70617" lon="6.27127">
        <ele>1401.1999511719</ele>
        <time>2022-02-23T08:23:52.000Z</time>
      </trkpt>
      <trkpt lat="45.70615" lon="6.27127">
        <ele>1401.1999511719</ele>
        <time>2022-02-23T08:23:55.000Z</time>
      </trkpt>
      <trkpt lat="45.70613" lon="6.27127">
        <ele>1401.1999511719</ele>
        <time>2022-02-23T08:23:58.000Z</time>
      </trkpt>
      <trkpt lat="45.70611" lon="6.27127">
        <ele>1401.4000244141</ele>
        <time>2022-02-23T08:24:03.000Z</time>
      </trkpt>
      <trkpt lat="45.70611" lon="6.27129">
        <ele>1401.4000244141</ele>
        <time>2022-02-23T08:24:09.000Z</time>
      </trkpt>
      <trkpt lat="45.70612" lon="6.27129">
        <ele>1401.4000244141</ele>
        <time>2022-02-23T08:24:11.000Z</time>
      </trkpt>
      <trkpt lat="45.70612" lon="6.2713">
        <ele>1401.5999755859</ele>
        <time>2022-02-23T08:24:17.000Z</time>
      </trkpt>
      <trkpt lat="45.70613" lon="6.2713">
        <ele>1401.5999755859</ele>
        <time>2022-02-23T08:24:23.000Z</time>
      </trkpt>
      <trkpt lat="45.70614" lon="6.27129">
        <ele>1401.5999755859</ele>
        <time>2022-02-23T08:24:28.000Z</time>
      </trkpt>
      <trkpt lat="45.70614" lon="6.27129">
        <ele>1401.5999755859</ele>
        <time>2022-02-23T08:24:32.000Z</time>
      </trkpt>
      <trkpt lat="45.70613" lon="6.27129">
        <ele>1401.1999511719</ele>
        <time>2022-02-23T08:24:41.000Z</time>
      </trkpt>
      <trkpt lat="45.70612" lon="6.27129">
        <ele>1401.4000244141</ele>
        <time>2022-02-23T08:24:49.000Z</time>
      </trkpt>
      <trkpt lat="45.70612" lon="6.27129">
        <ele>1401.4000244141</ele>
        <time>2022-02-23T08:24:53.000Z</time>
      </trkpt>
      <trkpt lat="45.70613" lon="6.27128">
        <ele>1401.4000244141</ele>
        <time>2022-02-23T08:24:59.000Z</time>
      </trkpt>
      <trkpt lat="45.70614" lon="6.27129">
        <ele>1401.4000244141</ele>
        <time>2022-02-23T08:25:06.000Z</time>
      </trkpt>
      <trkpt lat="45.70614" lon="6.27129">
        <ele>1401.4000244141</ele>
        <time>2022-02-23T08:25:07.000Z</time>
      </trkpt>
      <trkpt lat="45.70615" lon="6.27131">
        <ele>1401.4000244141</ele>
        <time>2022-02-23T08:25:16.000Z</time>
      </trkpt>
      <trkpt lat="45.70615" lon="6.2713">
        <ele>1401.4000244141</ele>
        <time>2022-02-23T08:25:22.000Z</time>
      </trkpt>
      <trkpt lat="45.70615" lon="6.2713">
        <ele>1401.4000244141</ele>
        <time>2022-02-23T08:25:27.000Z</time>
      </trkpt>
      <trkpt lat="45.70615" lon="6.27131">
        <ele>1401.4000244141</ele>
        <time>2022-02-23T08:25:35.000Z</time>
      </trkpt>
      <trkpt lat="45.70612" lon="6.27134">
        <ele>1401.4000244141</ele>
        <time>2022-02-23T08:25:45.000Z</time>
      </trkpt>
      <trkpt lat="45.70612" lon="6.27137">
        <ele>1401.4000244141</ele>
        <time>2022-02-23T08:25:54.000Z</time>
      </trkpt>
      <trkpt lat="45.70609" lon="6.27137">
        <ele>1401.4000244141</ele>
        <time>2022-02-23T08:26:02.000Z</time>
      </trkpt>
      <trkpt lat="45.70611" lon="6.27137">
        <ele>1401.4000244141</ele>
        <time>2022-02-23T08:26:04.000Z</time>
      </trkpt>
      <trkpt lat="45.70611" lon="6.27136">
        <ele>1401.4000244141</ele>
        <time>2022-02-23T08:26:11.000Z</time>
      </trkpt>
      <trkpt lat="45.7061" lon="6.27135">
        <ele>1401.4000244141</ele>
        <time>2022-02-23T08:26:13.000Z</time>
      </trkpt>
      <trkpt lat="45.70609" lon="6.27135">
        <ele>1401.4000244141</ele>
        <time>2022-02-23T08:26:18.000Z</time>
      </trkpt>
      <trkpt lat="45.7061" lon="6.27134">
        <ele>1401.4000244141</ele>
        <time>2022-02-23T08:26:27.000Z</time>
      </trkpt>
      <trkpt lat="45.7061" lon="6.27134">
        <ele>1401.4000244141</ele>
        <time>2022-02-23T08:26:29.000Z</time>
      </trkpt>
      <trkpt lat="45.7061" lon="6.27134">
        <ele>1401.4000244141</ele>
        <time>2022-02-23T08:26:32.000Z</time>
      </trkpt>
      <trkpt lat="45.70611" lon="6.27133">
        <ele>1401.4000244141</ele>
        <time>2022-02-23T08:26:35.000Z</time>
      </trkpt>
      <trkpt lat="45.70612" lon="6.27132">
        <ele>1401.4000244141</ele>
        <time>2022-02-23T08:26:37.000Z</time>
      </trkpt>
      <trkpt lat="45.70614" lon="6.27129">
        <ele>1401.4000244141</ele>
        <time>2022-02-23T08:26:46.000Z</time>
      </trkpt>
      <trkpt lat="45.70615" lon="6.27129">
        <ele>1401.4000244141</ele>
        <time>2022-02-23T08:26:53.000Z</time>
      </trkpt>
      <trkpt lat="45.70614" lon="6.2713">
        <ele>1401.4000244141</ele>
        <time>2022-02-23T08:27:00.000Z</time>
      </trkpt>
      <trkpt lat="45.70612" lon="6.27129">
        <ele>1401.4000244141</ele>
        <time>2022-02-23T08:27:07.000Z</time>
      </trkpt>
      <trkpt lat="45.70609" lon="6.27128">
        <ele>1401.4000244141</ele>
        <time>2022-02-23T08:27:10.000Z</time>
      </trkpt>
      <trkpt lat="45.70607" lon="6.27124">
        <ele>1401.4000244141</ele>
        <time>2022-02-23T08:27:14.000Z</time>
      </trkpt>
      <trkpt lat="45.70606" lon="6.27123">
        <ele>1402.4000244141</ele>
        <time>2022-02-23T08:27:16.000Z</time>
      </trkpt>
      <trkpt lat="45.70605" lon="6.27121">
        <ele>1403.4000244141</ele>
        <time>2022-02-23T08:27:20.000Z</time>
      </trkpt>
      <trkpt lat="45.70604" lon="6.27121">
        <ele>1403.5999755859</ele>
        <time>2022-02-23T08:27:21.000Z</time>
      </trkpt>
      <trkpt lat="45.70603" lon="6.2712">
        <ele>1404.4000244141</ele>
        <time>2022-02-23T08:27:24.000Z</time>
      </trkpt>
      <trkpt lat="45.70601" lon="6.27121">
        <ele>1404.5999755859</ele>
        <time>2022-02-23T08:27:26.000Z</time>
      </trkpt>
      <trkpt lat="45.70601" lon="6.27121">
        <ele>1405</ele>
        <time>2022-02-23T08:27:28.000Z</time>
      </trkpt>
      <trkpt lat="45.706" lon="6.27121">
        <ele>1405.5999755859</ele>
        <time>2022-02-23T08:27:30.000Z</time>
      </trkpt>
      <trkpt lat="45.706" lon="6.27121">
        <ele>1405.8000488281</ele>
        <time>2022-02-23T08:27:31.000Z</time>
      </trkpt>
      <trkpt lat="45.70599" lon="6.2712">
        <ele>1406.4000244141</ele>
        <time>2022-02-23T08:27:34.000Z</time>
      </trkpt>
      <trkpt lat="45.70596" lon="6.27119">
        <ele>1406.8000488281</ele>
        <time>2022-02-23T08:27:37.000Z</time>
      </trkpt>
      <trkpt lat="45.70594" lon="6.27118">
        <ele>1406.8000488281</ele>
        <time>2022-02-23T08:27:39.000Z</time>
      </trkpt>
      <trkpt lat="45.70592" lon="6.27118">
        <ele>1406.8000488281</ele>
        <time>2022-02-23T08:27:40.000Z</time>
      </trkpt>
      <trkpt lat="45.70586" lon="6.27117">
        <ele>1408.1999511719</ele>
        <time>2022-02-23T08:27:45.000Z</time>
      </trkpt>
      <trkpt lat="45.70585" lon="6.27116">
        <ele>1408.4000244141</ele>
        <time>2022-02-23T08:27:46.000Z</time>
      </trkpt>
      <trkpt lat="45.70581" lon="6.27116">
        <ele>1409</ele>
        <time>2022-02-23T08:27:50.000Z</time>
      </trkpt>
      <trkpt lat="45.7058" lon="6.27116">
        <ele>1409.1999511719</ele>
        <time>2022-02-23T08:27:51.000Z</time>
      </trkpt>
      <trkpt lat="45.7058" lon="6.27116">
        <ele>1409.1999511719</ele>
        <time>2022-02-23T08:27:52.000Z</time>
      </trkpt>
      <trkpt lat="45.7058" lon="6.27116">
        <ele>1409.4000244141</ele>
        <time>2022-02-23T08:27:53.000Z</time>
      </trkpt>
      <trkpt lat="45.70582" lon="6.27119">
        <ele>1410.1999511719</ele>
        <time>2022-02-23T08:27:56.000Z</time>
      </trkpt>
      <trkpt lat="45.70583" lon="6.27121">
        <ele>1411.1999511719</ele>
        <time>2022-02-23T08:27:58.000Z</time>
      </trkpt>
      <trkpt lat="45.70583" lon="6.27121">
        <ele>1411.4000244141</ele>
        <time>2022-02-23T08:27:59.000Z</time>
      </trkpt>
      <trkpt lat="45.70584" lon="6.27123">
        <ele>1411.8000488281</ele>
        <time>2022-02-23T08:28:01.000Z</time>
      </trkpt>
      <trkpt lat="45.70585" lon="6.27125">
        <ele>1412</ele>
        <time>2022-02-23T08:28:03.000Z</time>
      </trkpt>
      <trkpt lat="45.70586" lon="6.27127">
        <ele>1412.1999511719</ele>
        <time>2022-02-23T08:28:06.000Z</time>
      </trkpt>
      <trkpt lat="45.70586" lon="6.27128">
        <ele>1412.1999511719</ele>
        <time>2022-02-23T08:28:07.000Z</time>
      </trkpt>
      <trkpt lat="45.70587" lon="6.27128">
        <ele>1412.5999755859</ele>
        <time>2022-02-23T08:28:08.000Z</time>
      </trkpt>
      <trkpt lat="45.70587" lon="6.27129">
        <ele>1412.8000488281</ele>
        <time>2022-02-23T08:28:09.000Z</time>
      </trkpt>
      <trkpt lat="45.7059" lon="6.27132">
        <ele>1413.4000244141</ele>
        <time>2022-02-23T08:28:14.000Z</time>
      </trkpt>
      <trkpt lat="45.7059" lon="6.27133">
        <ele>1413.4000244141</ele>
        <time>2022-02-23T08:28:15.000Z</time>
      </trkpt>
      <trkpt lat="45.70593" lon="6.27137">
        <ele>1413.1999511719</ele>
        <time>2022-02-23T08:28:20.000Z</time>
      </trkpt>
      <trkpt lat="45.70593" lon="6.27138">
        <ele>1413.4000244141</ele>
        <time>2022-02-23T08:28:21.000Z</time>
      </trkpt>
      <trkpt lat="45.70593" lon="6.27139">
        <ele>1414</ele>
        <time>2022-02-23T08:28:23.000Z</time>
      </trkpt>
      <trkpt lat="45.70594" lon="6.2714">
        <ele>1414.4000244141</ele>
        <time>2022-02-23T08:28:24.000Z</time>
      </trkpt>
      <trkpt lat="45.70594" lon="6.27142">
        <ele>1414.8000488281</ele>
        <time>2022-02-23T08:28:26.000Z</time>
      </trkpt>
      <trkpt lat="45.70595" lon="6.27144">
        <ele>1415</ele>
        <time>2022-02-23T08:28:28.000Z</time>
      </trkpt>
      <trkpt lat="45.70596" lon="6.27147">
        <ele>1415.8000488281</ele>
        <time>2022-02-23T08:28:31.000Z</time>
      </trkpt>
      <trkpt lat="45.70596" lon="6.2715">
        <ele>1416.1999511719</ele>
        <time>2022-02-23T08:28:34.000Z</time>
      </trkpt>
      <trkpt lat="45.70596" lon="6.27151">
        <ele>1416.1999511719</ele>
        <time>2022-02-23T08:28:35.000Z</time>
      </trkpt>
      <trkpt lat="45.70597" lon="6.27155">
        <ele>1417</ele>
        <time>2022-02-23T08:28:40.000Z</time>
      </trkpt>
      <trkpt lat="45.70598" lon="6.27156">
        <ele>1417.4000244141</ele>
        <time>2022-02-23T08:28:42.000Z</time>
      </trkpt>
      <trkpt lat="45.70599" lon="6.27159">
        <ele>1418.5999755859</ele>
        <time>2022-02-23T08:28:45.000Z</time>
      </trkpt>
      <trkpt lat="45.70599" lon="6.2716">
        <ele>1418.8000488281</ele>
        <time>2022-02-23T08:28:46.000Z</time>
      </trkpt>
      <trkpt lat="45.70601" lon="6.27165">
        <ele>1419.8000488281</ele>
        <time>2022-02-23T08:28:50.000Z</time>
      </trkpt>
      <trkpt lat="45.70602" lon="6.27166">
        <ele>1420.5999755859</ele>
        <time>2022-02-23T08:28:52.000Z</time>
      </trkpt>
      <trkpt lat="45.70602" lon="6.27167">
        <ele>1421</ele>
        <time>2022-02-23T08:28:54.000Z</time>
      </trkpt>
      <trkpt lat="45.70603" lon="6.27168">
        <ele>1421.1999511719</ele>
        <time>2022-02-23T08:28:56.000Z</time>
      </trkpt>
      <trkpt lat="45.70603" lon="6.27169">
        <ele>1421.1999511719</ele>
        <time>2022-02-23T08:28:57.000Z</time>
      </trkpt>
      <trkpt lat="45.70604" lon="6.27169">
        <ele>1421.4000244141</ele>
        <time>2022-02-23T08:28:58.000Z</time>
      </trkpt>
      <trkpt lat="45.70604" lon="6.2717">
        <ele>1421.4000244141</ele>
        <time>2022-02-23T08:28:59.000Z</time>
      </trkpt>
      <trkpt lat="45.70605" lon="6.27171">
        <ele>1422</ele>
        <time>2022-02-23T08:29:01.000Z</time>
      </trkpt>
      <trkpt lat="45.70605" lon="6.27172">
        <ele>1422.5999755859</ele>
        <time>2022-02-23T08:29:03.000Z</time>
      </trkpt>
      <trkpt lat="45.70606" lon="6.27172">
        <ele>1422.8000488281</ele>
        <time>2022-02-23T08:29:04.000Z</time>
      </trkpt>
      <trkpt lat="45.70606" lon="6.27173">
        <ele>1423</ele>
        <time>2022-02-23T08:29:06.000Z</time>
      </trkpt>
      <trkpt lat="45.70605" lon="6.27174">
        <ele>1423.1999511719</ele>
        <time>2022-02-23T08:29:07.000Z</time>
      </trkpt>
      <trkpt lat="45.70605" lon="6.27174">
        <ele>1423.4000244141</ele>
        <time>2022-02-23T08:29:09.000Z</time>
      </trkpt>
      <trkpt lat="45.70605" lon="6.27175">
        <ele>1423.5999755859</ele>
        <time>2022-02-23T08:29:11.000Z</time>
      </trkpt>
      <trkpt lat="45.70603" lon="6.27175">
        <ele>1424</ele>
        <time>2022-02-23T08:29:14.000Z</time>
      </trkpt>
      <trkpt lat="45.70603" lon="6.27175">
        <ele>1424.1999511719</ele>
        <time>2022-02-23T08:29:15.000Z</time>
      </trkpt>
      <trkpt lat="45.70602" lon="6.27176">
        <ele>1424.4000244141</ele>
        <time>2022-02-23T08:29:17.000Z</time>
      </trkpt>
      <trkpt lat="45.70601" lon="6.27176">
        <ele>1425.4000244141</ele>
        <time>2022-02-23T08:29:21.000Z</time>
      </trkpt>
      <trkpt lat="45.706" lon="6.27176">
        <ele>1426.1999511719</ele>
        <time>2022-02-23T08:29:23.000Z</time>
      </trkpt>
      <trkpt lat="45.706" lon="6.27176">
        <ele>1426.4000244141</ele>
        <time>2022-02-23T08:29:24.000Z</time>
      </trkpt>
      <trkpt lat="45.70599" lon="6.27175">
        <ele>1426.5999755859</ele>
        <time>2022-02-23T08:29:27.000Z</time>
      </trkpt>
      <trkpt lat="45.70598" lon="6.27175">
        <ele>1427.5999755859</ele>
        <time>2022-02-23T08:29:30.000Z</time>
      </trkpt>
      <trkpt lat="45.70597" lon="6.27175">
        <ele>1427.5999755859</ele>
        <time>2022-02-23T08:29:31.000Z</time>
      </trkpt>
      <trkpt lat="45.70596" lon="6.27174">
        <ele>1428.4000244141</ele>
        <time>2022-02-23T08:29:35.000Z</time>
      </trkpt>
      <trkpt lat="45.70595" lon="6.27174">
        <ele>1428.5999755859</ele>
        <time>2022-02-23T08:29:37.000Z</time>
      </trkpt>
      <trkpt lat="45.70591" lon="6.27174">
        <ele>1429.1999511719</ele>
        <time>2022-02-23T08:29:41.000Z</time>
      </trkpt>
      <trkpt lat="45.70587" lon="6.27173">
        <ele>1429.5999755859</ele>
        <time>2022-02-23T08:29:45.000Z</time>
      </trkpt>
      <trkpt lat="45.70586" lon="6.27173">
        <ele>1429.5999755859</ele>
        <time>2022-02-23T08:29:47.000Z</time>
      </trkpt>
      <trkpt lat="45.70586" lon="6.27173">
        <ele>1430.1999511719</ele>
        <time>2022-02-23T08:29:51.000Z</time>
      </trkpt>
      <trkpt lat="45.70586" lon="6.27174">
        <ele>1430.8000488281</ele>
        <time>2022-02-23T08:29:53.000Z</time>
      </trkpt>
      <trkpt lat="45.70588" lon="6.27177">
        <ele>1431.5999755859</ele>
        <time>2022-02-23T08:29:57.000Z</time>
      </trkpt>
      <trkpt lat="45.70588" lon="6.27179">
        <ele>1432</ele>
        <time>2022-02-23T08:29:58.000Z</time>
      </trkpt>
      <trkpt lat="45.70589" lon="6.27181">
        <ele>1432.4000244141</ele>
        <time>2022-02-23T08:30:03.000Z</time>
      </trkpt>
      <trkpt lat="45.70591" lon="6.27186">
        <ele>1433</ele>
        <time>2022-02-23T08:30:08.000Z</time>
      </trkpt>
      <trkpt lat="45.70591" lon="6.27188">
        <ele>1433</ele>
        <time>2022-02-23T08:30:09.000Z</time>
      </trkpt>
      <trkpt lat="45.70591" lon="6.27189">
        <ele>1433.1999511719</ele>
        <time>2022-02-23T08:30:10.000Z</time>
      </trkpt>
      <trkpt lat="45.70592" lon="6.27191">
        <ele>1433.4000244141</ele>
        <time>2022-02-23T08:30:12.000Z</time>
      </trkpt>
      <trkpt lat="45.70592" lon="6.27196">
        <ele>1433.8000488281</ele>
        <time>2022-02-23T08:30:16.000Z</time>
      </trkpt>
      <trkpt lat="45.70593" lon="6.27197">
        <ele>1434</ele>
        <time>2022-02-23T08:30:17.000Z</time>
      </trkpt>
      <trkpt lat="45.70593" lon="6.27201">
        <ele>1435</ele>
        <time>2022-02-23T08:30:21.000Z</time>
      </trkpt>
      <trkpt lat="45.70594" lon="6.27202">
        <ele>1435</ele>
        <time>2022-02-23T08:30:22.000Z</time>
      </trkpt>
      <trkpt lat="45.70595" lon="6.27206">
        <ele>1435.8000488281</ele>
        <time>2022-02-23T08:30:26.000Z</time>
      </trkpt>
      <trkpt lat="45.70594" lon="6.27209">
        <ele>1436.1999511719</ele>
        <time>2022-02-23T08:30:28.000Z</time>
      </trkpt>
      <trkpt lat="45.70594" lon="6.2721">
        <ele>1436.4000244141</ele>
        <time>2022-02-23T08:30:29.000Z</time>
      </trkpt>
      <trkpt lat="45.70593" lon="6.27212">
        <ele>1436.5999755859</ele>
        <time>2022-02-23T08:30:31.000Z</time>
      </trkpt>
      <trkpt lat="45.7059" lon="6.27212">
        <ele>1437.1999511719</ele>
        <time>2022-02-23T08:30:36.000Z</time>
      </trkpt>
      <trkpt lat="45.70588" lon="6.27213">
        <ele>1437.5999755859</ele>
        <time>2022-02-23T08:30:38.000Z</time>
      </trkpt>
      <trkpt lat="45.70585" lon="6.27212">
        <ele>1437.8000488281</ele>
        <time>2022-02-23T08:30:41.000Z</time>
      </trkpt>
      <trkpt lat="45.70583" lon="6.27211">
        <ele>1438.4000244141</ele>
        <time>2022-02-23T08:30:44.000Z</time>
      </trkpt>
      <trkpt lat="45.70578" lon="6.2721">
        <ele>1439.5999755859</ele>
        <time>2022-02-23T08:30:49.000Z</time>
      </trkpt>
      <trkpt lat="45.70575" lon="6.27209">
        <ele>1439.8000488281</ele>
        <time>2022-02-23T08:30:51.000Z</time>
      </trkpt>
      <trkpt lat="45.70572" lon="6.27209">
        <ele>1440.4000244141</ele>
        <time>2022-02-23T08:30:54.000Z</time>
      </trkpt>
      <trkpt lat="45.70569" lon="6.27209">
        <ele>1440.5999755859</ele>
        <time>2022-02-23T08:30:57.000Z</time>
      </trkpt>
      <trkpt lat="45.70568" lon="6.27208">
        <ele>1440.8000488281</ele>
        <time>2022-02-23T08:30:58.000Z</time>
      </trkpt>
      <trkpt lat="45.70563" lon="6.27207">
        <ele>1441.1999511719</ele>
        <time>2022-02-23T08:31:04.000Z</time>
      </trkpt>
      <trkpt lat="45.70558" lon="6.27208">
        <ele>1441.1999511719</ele>
        <time>2022-02-23T08:31:07.000Z</time>
      </trkpt>
      <trkpt lat="45.70556" lon="6.27207">
        <ele>1441.1999511719</ele>
        <time>2022-02-23T08:31:10.000Z</time>
      </trkpt>
      <trkpt lat="45.70551" lon="6.272">
        <ele>1441.4000244141</ele>
        <time>2022-02-23T08:31:16.000Z</time>
      </trkpt>
      <trkpt lat="45.7055" lon="6.27199">
        <ele>1441.4000244141</ele>
        <time>2022-02-23T08:31:17.000Z</time>
      </trkpt>
      <trkpt lat="45.70549" lon="6.27196">
        <ele>1441.4000244141</ele>
        <time>2022-02-23T08:31:21.000Z</time>
      </trkpt>
      <trkpt lat="45.70549" lon="6.27195">
        <ele>1441.4000244141</ele>
        <time>2022-02-23T08:31:22.000Z</time>
      </trkpt>
      <trkpt lat="45.70545" lon="6.27191">
        <ele>1441.5999755859</ele>
        <time>2022-02-23T08:31:27.000Z</time>
      </trkpt>
      <trkpt lat="45.70544" lon="6.2719">
        <ele>1442.1999511719</ele>
        <time>2022-02-23T08:31:28.000Z</time>
      </trkpt>
      <trkpt lat="45.7054" lon="6.27187">
        <ele>1442.4000244141</ele>
        <time>2022-02-23T08:31:31.000Z</time>
      </trkpt>
      <trkpt lat="45.70536" lon="6.27182">
        <ele>1442.1999511719</ele>
        <time>2022-02-23T08:31:36.000Z</time>
      </trkpt>
      <trkpt lat="45.70535" lon="6.27179">
        <ele>1442.8000488281</ele>
        <time>2022-02-23T08:31:39.000Z</time>
      </trkpt>
      <trkpt lat="45.70535" lon="6.27179">
        <ele>1443.1999511719</ele>
        <time>2022-02-23T08:31:41.000Z</time>
      </trkpt>
      <trkpt lat="45.70535" lon="6.27179">
        <ele>1443.4000244141</ele>
        <time>2022-02-23T08:31:42.000Z</time>
      </trkpt>
      <trkpt lat="45.70535" lon="6.27181">
        <ele>1443.8000488281</ele>
        <time>2022-02-23T08:31:46.000Z</time>
      </trkpt>
      <trkpt lat="45.70536" lon="6.27183">
        <ele>1444.5999755859</ele>
        <time>2022-02-23T08:31:48.000Z</time>
      </trkpt>
      <trkpt lat="45.70536" lon="6.27183">
        <ele>1445</ele>
        <time>2022-02-23T08:31:49.000Z</time>
      </trkpt>
      <trkpt lat="45.70537" lon="6.27187">
        <ele>1446.4000244141</ele>
        <time>2022-02-23T08:31:53.000Z</time>
      </trkpt>
      <trkpt lat="45.70536" lon="6.27189">
        <ele>1447.5999755859</ele>
        <time>2022-02-23T08:31:57.000Z</time>
      </trkpt>
      <trkpt lat="45.70531" lon="6.27188">
        <ele>1448.5999755859</ele>
        <time>2022-02-23T08:32:04.000Z</time>
      </trkpt>
      <trkpt lat="45.70531" lon="6.27188">
        <ele>1448.8000488281</ele>
        <time>2022-02-23T08:32:05.000Z</time>
      </trkpt>
      <trkpt lat="45.70528" lon="6.2719">
        <ele>1449.5999755859</ele>
        <time>2022-02-23T08:32:10.000Z</time>
      </trkpt>
      <trkpt lat="45.70527" lon="6.27191">
        <ele>1450</ele>
        <time>2022-02-23T08:32:11.000Z</time>
      </trkpt>
      <trkpt lat="45.70527" lon="6.27191">
        <ele>1450.1999511719</ele>
        <time>2022-02-23T08:32:12.000Z</time>
      </trkpt>
      <trkpt lat="45.70524" lon="6.27193">
        <ele>1451</ele>
        <time>2022-02-23T08:32:16.000Z</time>
      </trkpt>
      <trkpt lat="45.70523" lon="6.27193">
        <ele>1451.1999511719</ele>
        <time>2022-02-23T08:32:17.000Z</time>
      </trkpt>
      <trkpt lat="45.70522" lon="6.27194">
        <ele>1451.5999755859</ele>
        <time>2022-02-23T08:32:18.000Z</time>
      </trkpt>
      <trkpt lat="45.7052" lon="6.27195">
        <ele>1452</ele>
        <time>2022-02-23T08:32:20.000Z</time>
      </trkpt>
      <trkpt lat="45.70519" lon="6.27197">
        <ele>1452.1999511719</ele>
        <time>2022-02-23T08:32:21.000Z</time>
      </trkpt>
      <trkpt lat="45.70517" lon="6.27198">
        <ele>1453</ele>
        <time>2022-02-23T08:32:23.000Z</time>
      </trkpt>
      <trkpt lat="45.70516" lon="6.27199">
        <ele>1453.4000244141</ele>
        <time>2022-02-23T08:32:25.000Z</time>
      </trkpt>
      <trkpt lat="45.70512" lon="6.27201">
        <ele>1453.5999755859</ele>
        <time>2022-02-23T08:32:28.000Z</time>
      </trkpt>
      <trkpt lat="45.70509" lon="6.27202">
        <ele>1453.8000488281</ele>
        <time>2022-02-23T08:32:31.000Z</time>
      </trkpt>
      <trkpt lat="45.70503" lon="6.27201">
        <ele>1454.4000244141</ele>
        <time>2022-02-23T08:32:37.000Z</time>
      </trkpt>
      <trkpt lat="45.705" lon="6.27202">
        <ele>1455</ele>
        <time>2022-02-23T08:32:43.000Z</time>
      </trkpt>
      <trkpt lat="45.705" lon="6.27205">
        <ele>1455.1999511719</ele>
        <time>2022-02-23T08:32:49.000Z</time>
      </trkpt>
      <trkpt lat="45.70498" lon="6.27207">
        <ele>1455.8000488281</ele>
        <time>2022-02-23T08:32:51.000Z</time>
      </trkpt>
      <trkpt lat="45.70497" lon="6.2721">
        <ele>1456.4000244141</ele>
        <time>2022-02-23T08:32:54.000Z</time>
      </trkpt>
      <trkpt lat="45.70497" lon="6.27211">
        <ele>1456.5999755859</ele>
        <time>2022-02-23T08:32:55.000Z</time>
      </trkpt>
      <trkpt lat="45.70497" lon="6.27212">
        <ele>1456.8000488281</ele>
        <time>2022-02-23T08:32:56.000Z</time>
      </trkpt>
      <trkpt lat="45.70498" lon="6.27215">
        <ele>1458</ele>
        <time>2022-02-23T08:33:00.000Z</time>
      </trkpt>
      <trkpt lat="45.70498" lon="6.27215">
        <ele>1458.1999511719</ele>
        <time>2022-02-23T08:33:01.000Z</time>
      </trkpt>
      <trkpt lat="45.705" lon="6.27218">
        <ele>1458.8000488281</ele>
        <time>2022-02-23T08:33:06.000Z</time>
      </trkpt>
      <trkpt lat="45.705" lon="6.27219">
        <ele>1459</ele>
        <time>2022-02-23T08:33:07.000Z</time>
      </trkpt>
      <trkpt lat="45.70503" lon="6.27221">
        <ele>1460</ele>
        <time>2022-02-23T08:33:12.000Z</time>
      </trkpt>
      <trkpt lat="45.70506" lon="6.27224">
        <ele>1461.1999511719</ele>
        <time>2022-02-23T08:33:17.000Z</time>
      </trkpt>
      <trkpt lat="45.70507" lon="6.27224">
        <ele>1461.4000244141</ele>
        <time>2022-02-23T08:33:18.000Z</time>
      </trkpt>
      <trkpt lat="45.70509" lon="6.27226">
        <ele>1462.1999511719</ele>
        <time>2022-02-23T08:33:22.000Z</time>
      </trkpt>
      <trkpt lat="45.70512" lon="6.27229">
        <ele>1463</ele>
        <time>2022-02-23T08:33:26.000Z</time>
      </trkpt>
      <trkpt lat="45.70513" lon="6.2723">
        <ele>1463.1999511719</ele>
        <time>2022-02-23T08:33:28.000Z</time>
      </trkpt>
      <trkpt lat="45.70515" lon="6.27232">
        <ele>1463.4000244141</ele>
        <time>2022-02-23T08:33:31.000Z</time>
      </trkpt>
      <trkpt lat="45.70519" lon="6.27239">
        <ele>1464.1999511719</ele>
        <time>2022-02-23T08:33:37.000Z</time>
      </trkpt>
      <trkpt lat="45.70519" lon="6.27239">
        <ele>1464.4000244141</ele>
        <time>2022-02-23T08:33:38.000Z</time>
      </trkpt>
      <trkpt lat="45.7052" lon="6.2724">
        <ele>1465.4000244141</ele>
        <time>2022-02-23T08:33:41.000Z</time>
      </trkpt>
      <trkpt lat="45.70523" lon="6.27243">
        <ele>1466.1999511719</ele>
        <time>2022-02-23T08:33:45.000Z</time>
      </trkpt>
      <trkpt lat="45.70524" lon="6.27244">
        <ele>1466.4000244141</ele>
        <time>2022-02-23T08:33:46.000Z</time>
      </trkpt>
      <trkpt lat="45.70525" lon="6.27245">
        <ele>1466.4000244141</ele>
        <time>2022-02-23T08:33:47.000Z</time>
      </trkpt>
      <trkpt lat="45.70528" lon="6.27247">
        <ele>1467.5999755859</ele>
        <time>2022-02-23T08:33:53.000Z</time>
      </trkpt>
      <trkpt lat="45.70529" lon="6.27248">
        <ele>1467.5999755859</ele>
        <time>2022-02-23T08:33:54.000Z</time>
      </trkpt>
      <trkpt lat="45.70532" lon="6.27252">
        <ele>1468</ele>
        <time>2022-02-23T08:33:59.000Z</time>
      </trkpt>
      <trkpt lat="45.70533" lon="6.27254">
        <ele>1468.4000244141</ele>
        <time>2022-02-23T08:34:01.000Z</time>
      </trkpt>
      <trkpt lat="45.70532" lon="6.27256">
        <ele>1468.4000244141</ele>
        <time>2022-02-23T08:34:05.000Z</time>
      </trkpt>
      <trkpt lat="45.70531" lon="6.27256">
        <ele>1468.4000244141</ele>
        <time>2022-02-23T08:34:06.000Z</time>
      </trkpt>
      <trkpt lat="45.7053" lon="6.27256">
        <ele>1468.5999755859</ele>
        <time>2022-02-23T08:34:09.000Z</time>
      </trkpt>
      <trkpt lat="45.70528" lon="6.27256">
        <ele>1469.1999511719</ele>
        <time>2022-02-23T08:34:13.000Z</time>
      </trkpt>
      <trkpt lat="45.70527" lon="6.27258">
        <ele>1469.5999755859</ele>
        <time>2022-02-23T08:34:17.000Z</time>
      </trkpt>
      <trkpt lat="45.70526" lon="6.27259">
        <ele>1470.5999755859</ele>
        <time>2022-02-23T08:34:21.000Z</time>
      </trkpt>
      <trkpt lat="45.70526" lon="6.2726">
        <ele>1470.5999755859</ele>
        <time>2022-02-23T08:34:22.000Z</time>
      </trkpt>
      <trkpt lat="45.70526" lon="6.27262">
        <ele>1471.5999755859</ele>
        <time>2022-02-23T08:34:26.000Z</time>
      </trkpt>
      <trkpt lat="45.70526" lon="6.27266">
        <ele>1473</ele>
        <time>2022-02-23T08:34:31.000Z</time>
      </trkpt>
      <trkpt lat="45.70526" lon="6.27266">
        <ele>1473.4000244141</ele>
        <time>2022-02-23T08:34:32.000Z</time>
      </trkpt>
      <trkpt lat="45.70522" lon="6.27267">
        <ele>1473.8000488281</ele>
        <time>2022-02-23T08:34:38.000Z</time>
      </trkpt>
      <trkpt lat="45.7052" lon="6.27266">
        <ele>1474</ele>
        <time>2022-02-23T08:34:41.000Z</time>
      </trkpt>
      <trkpt lat="45.70519" lon="6.27266">
        <ele>1474.1999511719</ele>
        <time>2022-02-23T08:34:42.000Z</time>
      </trkpt>
      <trkpt lat="45.70518" lon="6.27265">
        <ele>1474.8000488281</ele>
        <time>2022-02-23T08:34:44.000Z</time>
      </trkpt>
      <trkpt lat="45.70516" lon="6.27265">
        <ele>1475.4000244141</ele>
        <time>2022-02-23T08:34:46.000Z</time>
      </trkpt>
      <trkpt lat="45.70512" lon="6.27265">
        <ele>1476</ele>
        <time>2022-02-23T08:34:50.000Z</time>
      </trkpt>
      <trkpt lat="45.70512" lon="6.27267">
        <ele>1476.5999755859</ele>
        <time>2022-02-23T08:34:54.000Z</time>
      </trkpt>
      <trkpt lat="45.70513" lon="6.27268">
        <ele>1477</ele>
        <time>2022-02-23T08:34:56.000Z</time>
      </trkpt>
      <trkpt lat="45.70513" lon="6.27269">
        <ele>1477.5999755859</ele>
        <time>2022-02-23T08:34:58.000Z</time>
      </trkpt>
      <trkpt lat="45.70515" lon="6.27271">
        <ele>1478.1999511719</ele>
        <time>2022-02-23T08:35:01.000Z</time>
      </trkpt>
      <trkpt lat="45.70516" lon="6.27273">
        <ele>1478.8000488281</ele>
        <time>2022-02-23T08:35:04.000Z</time>
      </trkpt>
      <trkpt lat="45.70517" lon="6.27276">
        <ele>1479.5999755859</ele>
        <time>2022-02-23T08:35:07.000Z</time>
      </trkpt>
      <trkpt lat="45.70518" lon="6.27277">
        <ele>1480</ele>
        <time>2022-02-23T08:35:08.000Z</time>
      </trkpt>
      <trkpt lat="45.70519" lon="6.2728">
        <ele>1480.1999511719</ele>
        <time>2022-02-23T08:35:12.000Z</time>
      </trkpt>
      <trkpt lat="45.7052" lon="6.27286">
        <ele>1480.8000488281</ele>
        <time>2022-02-23T08:35:17.000Z</time>
      </trkpt>
      <trkpt lat="45.7052" lon="6.27287">
        <ele>1481</ele>
        <time>2022-02-23T08:35:18.000Z</time>
      </trkpt>
      <trkpt lat="45.70519" lon="6.27288">
        <ele>1481.1999511719</ele>
        <time>2022-02-23T08:35:20.000Z</time>
      </trkpt>
      <trkpt lat="45.70518" lon="6.27289">
        <ele>1482</ele>
        <time>2022-02-23T08:35:23.000Z</time>
      </trkpt>
      <trkpt lat="45.70517" lon="6.27289">
        <ele>1482</ele>
        <time>2022-02-23T08:35:24.000Z</time>
      </trkpt>
      <trkpt lat="45.70512" lon="6.27288">
        <ele>1482.8000488281</ele>
        <time>2022-02-23T08:35:30.000Z</time>
      </trkpt>
      <trkpt lat="45.7051" lon="6.27287">
        <ele>1483</ele>
        <time>2022-02-23T08:35:32.000Z</time>
      </trkpt>
      <trkpt lat="45.70509" lon="6.27287">
        <ele>1483</ele>
        <time>2022-02-23T08:35:33.000Z</time>
      </trkpt>
      <trkpt lat="45.70507" lon="6.27287">
        <ele>1483.1999511719</ele>
        <time>2022-02-23T08:35:34.000Z</time>
      </trkpt>
      <trkpt lat="45.70506" lon="6.27287">
        <ele>1483.4000244141</ele>
        <time>2022-02-23T08:35:35.000Z</time>
      </trkpt>
      <trkpt lat="45.70501" lon="6.27288">
        <ele>1484.1999511719</ele>
        <time>2022-02-23T08:35:42.000Z</time>
      </trkpt>
      <trkpt lat="45.70497" lon="6.27288">
        <ele>1485.4000244141</ele>
        <time>2022-02-23T08:35:48.000Z</time>
      </trkpt>
      <trkpt lat="45.70496" lon="6.27287">
        <ele>1486</ele>
        <time>2022-02-23T08:35:50.000Z</time>
      </trkpt>
      <trkpt lat="45.70496" lon="6.27286">
        <ele>1486.5999755859</ele>
        <time>2022-02-23T08:35:52.000Z</time>
      </trkpt>
      <trkpt lat="45.70493" lon="6.27285">
        <ele>1487.5999755859</ele>
        <time>2022-02-23T08:35:57.000Z</time>
      </trkpt>
      <trkpt lat="45.70492" lon="6.27285">
        <ele>1487.8000488281</ele>
        <time>2022-02-23T08:35:58.000Z</time>
      </trkpt>
      <trkpt lat="45.7049" lon="6.27288">
        <ele>1488.8000488281</ele>
        <time>2022-02-23T08:36:04.000Z</time>
      </trkpt>
      <trkpt lat="45.70489" lon="6.27289">
        <ele>1489</ele>
        <time>2022-02-23T08:36:05.000Z</time>
      </trkpt>
      <trkpt lat="45.70486" lon="6.27291">
        <ele>1490</ele>
        <time>2022-02-23T08:36:10.000Z</time>
      </trkpt>
      <trkpt lat="45.70485" lon="6.2729">
        <ele>1490.4000244141</ele>
        <time>2022-02-23T08:36:12.000Z</time>
      </trkpt>
      <trkpt lat="45.70484" lon="6.2729">
        <ele>1491</ele>
        <time>2022-02-23T08:36:16.000Z</time>
      </trkpt>
      <trkpt lat="45.70483" lon="6.27291">
        <ele>1491.4000244141</ele>
        <time>2022-02-23T08:36:19.000Z</time>
      </trkpt>
      <trkpt lat="45.70476" lon="6.27291">
        <ele>1491.5999755859</ele>
        <time>2022-02-23T08:36:25.000Z</time>
      </trkpt>
      <trkpt lat="45.70471" lon="6.27291">
        <ele>1491.5999755859</ele>
        <time>2022-02-23T08:36:29.000Z</time>
      </trkpt>
      <trkpt lat="45.70469" lon="6.27291">
        <ele>1491.8000488281</ele>
        <time>2022-02-23T08:36:31.000Z</time>
      </trkpt>
      <trkpt lat="45.70464" lon="6.27291">
        <ele>1492</ele>
        <time>2022-02-23T08:36:35.000Z</time>
      </trkpt>
      <trkpt lat="45.70461" lon="6.2729">
        <ele>1492.4000244141</ele>
        <time>2022-02-23T08:36:38.000Z</time>
      </trkpt>
      <trkpt lat="45.70456" lon="6.27289">
        <ele>1492.8000488281</ele>
        <time>2022-02-23T08:36:42.000Z</time>
      </trkpt>
      <trkpt lat="45.70455" lon="6.27288">
        <ele>1493</ele>
        <time>2022-02-23T08:36:43.000Z</time>
      </trkpt>
      <trkpt lat="45.70453" lon="6.27287">
        <ele>1493.4000244141</ele>
        <time>2022-02-23T08:36:45.000Z</time>
      </trkpt>
      <trkpt lat="45.70448" lon="6.27287">
        <ele>1493.4000244141</ele>
        <time>2022-02-23T08:36:50.000Z</time>
      </trkpt>
      <trkpt lat="45.70447" lon="6.27286">
        <ele>1493.4000244141</ele>
        <time>2022-02-23T08:36:52.000Z</time>
      </trkpt>
      <trkpt lat="45.70446" lon="6.27285">
        <ele>1494.1999511719</ele>
        <time>2022-02-23T08:36:56.000Z</time>
      </trkpt>
      <trkpt lat="45.70444" lon="6.27285">
        <ele>1494.4000244141</ele>
        <time>2022-02-23T08:36:58.000Z</time>
      </trkpt>
      <trkpt lat="45.70443" lon="6.27284">
        <ele>1494.8000488281</ele>
        <time>2022-02-23T08:36:59.000Z</time>
      </trkpt>
      <trkpt lat="45.70441" lon="6.27283">
        <ele>1495.1999511719</ele>
        <time>2022-02-23T08:37:03.000Z</time>
      </trkpt>
      <trkpt lat="45.70439" lon="6.27282">
        <ele>1495.8000488281</ele>
        <time>2022-02-23T08:37:06.000Z</time>
      </trkpt>
      <trkpt lat="45.70438" lon="6.27281">
        <ele>1496.4000244141</ele>
        <time>2022-02-23T08:37:08.000Z</time>
      </trkpt>
      <trkpt lat="45.70438" lon="6.2728">
        <ele>1497</ele>
        <time>2022-02-23T08:37:10.000Z</time>
      </trkpt>
      <trkpt lat="45.70438" lon="6.27278">
        <ele>1497.4000244141</ele>
        <time>2022-02-23T08:37:14.000Z</time>
      </trkpt>
      <trkpt lat="45.70438" lon="6.27278">
        <ele>1497.5999755859</ele>
        <time>2022-02-23T08:37:15.000Z</time>
      </trkpt>
      <trkpt lat="45.7044" lon="6.27275">
        <ele>1499</ele>
        <time>2022-02-23T08:37:22.000Z</time>
      </trkpt>
      <trkpt lat="45.70438" lon="6.27271">
        <ele>1499.4000244141</ele>
        <time>2022-02-23T08:37:25.000Z</time>
      </trkpt>
      <trkpt lat="45.70437" lon="6.27269">
        <ele>1499.4000244141</ele>
        <time>2022-02-23T08:37:27.000Z</time>
      </trkpt>
      <trkpt lat="45.70436" lon="6.27266">
        <ele>1499.1999511719</ele>
        <time>2022-02-23T08:37:29.000Z</time>
      </trkpt>
      <trkpt lat="45.70435" lon="6.27265">
        <ele>1499</ele>
        <time>2022-02-23T08:37:30.000Z</time>
      </trkpt>
      <trkpt lat="45.70429" lon="6.27259">
        <ele>1499.8000488281</ele>
        <time>2022-02-23T08:37:36.000Z</time>
      </trkpt>
      <trkpt lat="45.70427" lon="6.27254">
        <ele>1500</ele>
        <time>2022-02-23T08:37:39.000Z</time>
      </trkpt>
      <trkpt lat="45.70423" lon="6.27249">
        <ele>1500</ele>
        <time>2022-02-23T08:37:42.000Z</time>
      </trkpt>
      <trkpt lat="45.70422" lon="6.27247">
        <ele>1500.1999511719</ele>
        <time>2022-02-23T08:37:43.000Z</time>
      </trkpt>
      <trkpt lat="45.70421" lon="6.27239">
        <ele>1500.5999755859</ele>
        <time>2022-02-23T08:37:49.000Z</time>
      </trkpt>
      <trkpt lat="45.70419" lon="6.27233">
        <ele>1500.8000488281</ele>
        <time>2022-02-23T08:37:53.000Z</time>
      </trkpt>
      <trkpt lat="45.70419" lon="6.27231">
        <ele>1501</ele>
        <time>2022-02-23T08:37:54.000Z</time>
      </trkpt>
      <trkpt lat="45.70419" lon="6.27229">
        <ele>1501.1999511719</ele>
        <time>2022-02-23T08:37:56.000Z</time>
      </trkpt>
      <trkpt lat="45.70418" lon="6.27221">
        <ele>1502.1999511719</ele>
        <time>2022-02-23T08:38:03.000Z</time>
      </trkpt>
      <trkpt lat="45.70418" lon="6.27219">
        <ele>1502.4000244141</ele>
        <time>2022-02-23T08:38:05.000Z</time>
      </trkpt>
      <trkpt lat="45.70417" lon="6.27216">
        <ele>1503.1999511719</ele>
        <time>2022-02-23T08:38:10.000Z</time>
      </trkpt>
      <trkpt lat="45.70416" lon="6.27216">
        <ele>1503.1999511719</ele>
        <time>2022-02-23T08:38:11.000Z</time>
      </trkpt>
      <trkpt lat="45.70415" lon="6.27215">
        <ele>1504.1999511719</ele>
        <time>2022-02-23T08:38:14.000Z</time>
      </trkpt>
      <trkpt lat="45.70414" lon="6.27212">
        <ele>1504.8000488281</ele>
        <time>2022-02-23T08:38:18.000Z</time>
      </trkpt>
      <trkpt lat="45.70414" lon="6.27211">
        <ele>1505.1999511719</ele>
        <time>2022-02-23T08:38:20.000Z</time>
      </trkpt>
      <trkpt lat="45.70411" lon="6.27207">
        <ele>1506.1999511719</ele>
        <time>2022-02-23T08:38:25.000Z</time>
      </trkpt>
      <trkpt lat="45.7041" lon="6.27207">
        <ele>1506.1999511719</ele>
        <time>2022-02-23T08:38:26.000Z</time>
      </trkpt>
      <trkpt lat="45.70411" lon="6.27206">
        <ele>1507.4000244141</ele>
        <time>2022-02-23T08:38:29.000Z</time>
      </trkpt>
      <trkpt lat="45.70412" lon="6.27206">
        <ele>1508</ele>
        <time>2022-02-23T08:38:32.000Z</time>
      </trkpt>
      <trkpt lat="45.70412" lon="6.27207">
        <ele>1508.4000244141</ele>
        <time>2022-02-23T08:38:34.000Z</time>
      </trkpt>
      <trkpt lat="45.70411" lon="6.27207">
        <ele>1509.4000244141</ele>
        <time>2022-02-23T08:38:37.000Z</time>
      </trkpt>
      <trkpt lat="45.70409" lon="6.27208">
        <ele>1510.4000244141</ele>
        <time>2022-02-23T08:38:42.000Z</time>
      </trkpt>
      <trkpt lat="45.70408" lon="6.27209">
        <ele>1510.4000244141</ele>
        <time>2022-02-23T08:38:43.000Z</time>
      </trkpt>
      <trkpt lat="45.70406" lon="6.27211">
        <ele>1511.4000244141</ele>
        <time>2022-02-23T08:38:47.000Z</time>
      </trkpt>
      <trkpt lat="45.70406" lon="6.27211">
        <ele>1511.5999755859</ele>
        <time>2022-02-23T08:38:48.000Z</time>
      </trkpt>
      <trkpt lat="45.70403" lon="6.27214">
        <ele>1512.1999511719</ele>
        <time>2022-02-23T08:38:53.000Z</time>
      </trkpt>
      <trkpt lat="45.70401" lon="6.27215">
        <ele>1512.4000244141</ele>
        <time>2022-02-23T08:38:55.000Z</time>
      </trkpt>
      <trkpt lat="45.704" lon="6.27216">
        <ele>1512.8000488281</ele>
        <time>2022-02-23T08:38:57.000Z</time>
      </trkpt>
      <trkpt lat="45.70399" lon="6.27219">
        <ele>1513.1999511719</ele>
        <time>2022-02-23T08:39:01.000Z</time>
      </trkpt>
      <trkpt lat="45.704" lon="6.27221">
        <ele>1513.8000488281</ele>
        <time>2022-02-23T08:39:03.000Z</time>
      </trkpt>
      <trkpt lat="45.70401" lon="6.27224">
        <ele>1514.1999511719</ele>
        <time>2022-02-23T08:39:05.000Z</time>
      </trkpt>
      <trkpt lat="45.70401" lon="6.27224">
        <ele>1514.4000244141</ele>
        <time>2022-02-23T08:39:06.000Z</time>
      </trkpt>
      <trkpt lat="45.70402" lon="6.27226">
        <ele>1514.5999755859</ele>
        <time>2022-02-23T08:39:08.000Z</time>
      </trkpt>
      <trkpt lat="45.70402" lon="6.2723">
        <ele>1514.5999755859</ele>
        <time>2022-02-23T08:39:11.000Z</time>
      </trkpt>
      <trkpt lat="45.70401" lon="6.27231">
        <ele>1515</ele>
        <time>2022-02-23T08:39:13.000Z</time>
      </trkpt>
      <trkpt lat="45.70399" lon="6.27232">
        <ele>1515.5999755859</ele>
        <time>2022-02-23T08:39:15.000Z</time>
      </trkpt>
      <trkpt lat="45.70399" lon="6.27231">
        <ele>1515.8000488281</ele>
        <time>2022-02-23T08:39:16.000Z</time>
      </trkpt>
      <trkpt lat="45.70397" lon="6.27231">
        <ele>1516.1999511719</ele>
        <time>2022-02-23T08:39:18.000Z</time>
      </trkpt>
      <trkpt lat="45.70395" lon="6.2723">
        <ele>1516.8000488281</ele>
        <time>2022-02-23T08:39:22.000Z</time>
      </trkpt>
      <trkpt lat="45.70394" lon="6.27229">
        <ele>1517.4000244141</ele>
        <time>2022-02-23T08:39:24.000Z</time>
      </trkpt>
      <trkpt lat="45.7039" lon="6.27228">
        <ele>1517.8000488281</ele>
        <time>2022-02-23T08:39:28.000Z</time>
      </trkpt>
      <trkpt lat="45.70389" lon="6.27228">
        <ele>1518</ele>
        <time>2022-02-23T08:39:29.000Z</time>
      </trkpt>
      <trkpt lat="45.70388" lon="6.27228">
        <ele>1518</ele>
        <time>2022-02-23T08:39:30.000Z</time>
      </trkpt>
      <trkpt lat="45.70389" lon="6.27228">
        <ele>1518.4000244141</ele>
        <time>2022-02-23T08:39:33.000Z</time>
      </trkpt>
      <trkpt lat="45.70389" lon="6.27228">
        <ele>1518.5999755859</ele>
        <time>2022-02-23T08:39:34.000Z</time>
      </trkpt>
      <trkpt lat="45.70389" lon="6.27231">
        <ele>1519.5999755859</ele>
        <time>2022-02-23T08:39:38.000Z</time>
      </trkpt>
      <trkpt lat="45.70389" lon="6.27232">
        <ele>1520</ele>
        <time>2022-02-23T08:39:40.000Z</time>
      </trkpt>
      <trkpt lat="45.70388" lon="6.27234">
        <ele>1520.4000244141</ele>
        <time>2022-02-23T08:39:42.000Z</time>
      </trkpt>
      <trkpt lat="45.70388" lon="6.27235">
        <ele>1520.5999755859</ele>
        <time>2022-02-23T08:39:43.000Z</time>
      </trkpt>
      <trkpt lat="45.70388" lon="6.27236">
        <ele>1520.8000488281</ele>
        <time>2022-02-23T08:39:44.000Z</time>
      </trkpt>
      <trkpt lat="45.70389" lon="6.27238">
        <ele>1521.4000244141</ele>
        <time>2022-02-23T08:39:46.000Z</time>
      </trkpt>
      <trkpt lat="45.7039" lon="6.27239">
        <ele>1521.8000488281</ele>
        <time>2022-02-23T08:39:48.000Z</time>
      </trkpt>
      <trkpt lat="45.7039" lon="6.27241">
        <ele>1522</ele>
        <time>2022-02-23T08:39:50.000Z</time>
      </trkpt>
      <trkpt lat="45.70392" lon="6.27244">
        <ele>1522.5999755859</ele>
        <time>2022-02-23T08:39:54.000Z</time>
      </trkpt>
      <trkpt lat="45.70393" lon="6.27247">
        <ele>1522.8000488281</ele>
        <time>2022-02-23T08:39:57.000Z</time>
      </trkpt>
      <trkpt lat="45.70393" lon="6.27247">
        <ele>1523</ele>
        <time>2022-02-23T08:39:58.000Z</time>
      </trkpt>
      <trkpt lat="45.70392" lon="6.2725">
        <ele>1523.5999755859</ele>
        <time>2022-02-23T08:40:02.000Z</time>
      </trkpt>
      <trkpt lat="45.7039" lon="6.27249">
        <ele>1523.8000488281</ele>
        <time>2022-02-23T08:40:04.000Z</time>
      </trkpt>
      <trkpt lat="45.70389" lon="6.27248">
        <ele>1524.4000244141</ele>
        <time>2022-02-23T08:40:07.000Z</time>
      </trkpt>
      <trkpt lat="45.70387" lon="6.27248">
        <ele>1524.8000488281</ele>
        <time>2022-02-23T08:40:09.000Z</time>
      </trkpt>
      <trkpt lat="45.70387" lon="6.27248">
        <ele>1524.8000488281</ele>
        <time>2022-02-23T08:40:10.000Z</time>
      </trkpt>
      <trkpt lat="45.70386" lon="6.27248">
        <ele>1525</ele>
        <time>2022-02-23T08:40:11.000Z</time>
      </trkpt>
      <trkpt lat="45.70382" lon="6.27246">
        <ele>1526</ele>
        <time>2022-02-23T08:40:16.000Z</time>
      </trkpt>
      <trkpt lat="45.7038" lon="6.27245">
        <ele>1527</ele>
        <time>2022-02-23T08:40:19.000Z</time>
      </trkpt>
      <trkpt lat="45.70379" lon="6.27244">
        <ele>1527.5999755859</ele>
        <time>2022-02-23T08:40:21.000Z</time>
      </trkpt>
      <trkpt lat="45.70378" lon="6.27242">
        <ele>1528.4000244141</ele>
        <time>2022-02-23T08:40:24.000Z</time>
      </trkpt>
      <trkpt lat="45.70376" lon="6.2724">
        <ele>1528.8000488281</ele>
        <time>2022-02-23T08:40:27.000Z</time>
      </trkpt>
      <trkpt lat="45.70373" lon="6.27238">
        <ele>1529.4000244141</ele>
        <time>2022-02-23T08:40:30.000Z</time>
      </trkpt>
      <trkpt lat="45.70371" lon="6.27235">
        <ele>1529.8000488281</ele>
        <time>2022-02-23T08:40:33.000Z</time>
      </trkpt>
      <trkpt lat="45.7037" lon="6.27233">
        <ele>1530.4000244141</ele>
        <time>2022-02-23T08:40:35.000Z</time>
      </trkpt>
      <trkpt lat="45.7037" lon="6.27232">
        <ele>1530.4000244141</ele>
        <time>2022-02-23T08:40:36.000Z</time>
      </trkpt>
      <trkpt lat="45.7037" lon="6.2723">
        <ele>1531</ele>
        <time>2022-02-23T08:40:38.000Z</time>
      </trkpt>
      <trkpt lat="45.7037" lon="6.27228">
        <ele>1531.4000244141</ele>
        <time>2022-02-23T08:40:40.000Z</time>
      </trkpt>
      <trkpt lat="45.7037" lon="6.27227">
        <ele>1531.5999755859</ele>
        <time>2022-02-23T08:40:41.000Z</time>
      </trkpt>
      <trkpt lat="45.70369" lon="6.27226">
        <ele>1531.5999755859</ele>
        <time>2022-02-23T08:40:43.000Z</time>
      </trkpt>
      <trkpt lat="45.70369" lon="6.27225">
        <ele>1531.8000488281</ele>
        <time>2022-02-23T08:40:44.000Z</time>
      </trkpt>
      <trkpt lat="45.70368" lon="6.27223">
        <ele>1532.1999511719</ele>
        <time>2022-02-23T08:40:47.000Z</time>
      </trkpt>
      <trkpt lat="45.70368" lon="6.27221">
        <ele>1532.4000244141</ele>
        <time>2022-02-23T08:40:49.000Z</time>
      </trkpt>
      <trkpt lat="45.70367" lon="6.27219">
        <ele>1532.8000488281</ele>
        <time>2022-02-23T08:40:51.000Z</time>
      </trkpt>
      <trkpt lat="45.70365" lon="6.27215">
        <ele>1533.4000244141</ele>
        <time>2022-02-23T08:40:55.000Z</time>
      </trkpt>
      <trkpt lat="45.70365" lon="6.27211">
        <ele>1534</ele>
        <time>2022-02-23T08:40:59.000Z</time>
      </trkpt>
      <trkpt lat="45.70363" lon="6.2721">
        <ele>1534.4000244141</ele>
        <time>2022-02-23T08:41:01.000Z</time>
      </trkpt>
      <trkpt lat="45.70362" lon="6.27208">
        <ele>1535.4000244141</ele>
        <time>2022-02-23T08:41:04.000Z</time>
      </trkpt>
      <trkpt lat="45.70362" lon="6.27206">
        <ele>1535.8000488281</ele>
        <time>2022-02-23T08:41:06.000Z</time>
      </trkpt>
      <trkpt lat="45.70362" lon="6.27204">
        <ele>1536.4000244141</ele>
        <time>2022-02-23T08:41:11.000Z</time>
      </trkpt>
      <trkpt lat="45.70362" lon="6.27203">
        <ele>1536.5999755859</ele>
        <time>2022-02-23T08:41:12.000Z</time>
      </trkpt>
      <trkpt lat="45.7036" lon="6.27199">
        <ele>1537.4000244141</ele>
        <time>2022-02-23T08:41:17.000Z</time>
      </trkpt>
      <trkpt lat="45.70359" lon="6.27198">
        <ele>1537.8000488281</ele>
        <time>2022-02-23T08:41:19.000Z</time>
      </trkpt>
      <trkpt lat="45.70357" lon="6.27197">
        <ele>1538.8000488281</ele>
        <time>2022-02-23T08:41:22.000Z</time>
      </trkpt>
      <trkpt lat="45.70356" lon="6.27197">
        <ele>1539.1999511719</ele>
        <time>2022-02-23T08:41:26.000Z</time>
      </trkpt>
      <trkpt lat="45.70356" lon="6.27197">
        <ele>1540</ele>
        <time>2022-02-23T08:41:28.000Z</time>
      </trkpt>
      <trkpt lat="45.70354" lon="6.27197">
        <ele>1541.1999511719</ele>
        <time>2022-02-23T08:41:32.000Z</time>
      </trkpt>
      <trkpt lat="45.7035" lon="6.27195">
        <ele>1542.1999511719</ele>
        <time>2022-02-23T08:41:38.000Z</time>
      </trkpt>
      <trkpt lat="45.70348" lon="6.27193">
        <ele>1543.4000244141</ele>
        <time>2022-02-23T08:41:44.000Z</time>
      </trkpt>
      <trkpt lat="45.70346" lon="6.27193">
        <ele>1543.8000488281</ele>
        <time>2022-02-23T08:41:46.000Z</time>
      </trkpt>
      <trkpt lat="45.70345" lon="6.27191">
        <ele>1544.5999755859</ele>
        <time>2022-02-23T08:41:50.000Z</time>
      </trkpt>
      <trkpt lat="45.70344" lon="6.27191">
        <ele>1544.5999755859</ele>
        <time>2022-02-23T08:41:51.000Z</time>
      </trkpt>
      <trkpt lat="45.70344" lon="6.2719">
        <ele>1545.1999511719</ele>
        <time>2022-02-23T08:41:54.000Z</time>
      </trkpt>
      <trkpt lat="45.70343" lon="6.27188">
        <ele>1545.4000244141</ele>
        <time>2022-02-23T08:41:57.000Z</time>
      </trkpt>
      <trkpt lat="45.70343" lon="6.27187">
        <ele>1545.5999755859</ele>
        <time>2022-02-23T08:41:58.000Z</time>
      </trkpt>
      <trkpt lat="45.70339" lon="6.27182">
        <ele>1546.5999755859</ele>
        <time>2022-02-23T08:42:05.000Z</time>
      </trkpt>
      <trkpt lat="45.70338" lon="6.27181">
        <ele>1546.5999755859</ele>
        <time>2022-02-23T08:42:06.000Z</time>
      </trkpt>
      <trkpt lat="45.70338" lon="6.2718">
        <ele>1547</ele>
        <time>2022-02-23T08:42:07.000Z</time>
      </trkpt>
      <trkpt lat="45.70336" lon="6.27179">
        <ele>1547.4000244141</ele>
        <time>2022-02-23T08:42:09.000Z</time>
      </trkpt>
      <trkpt lat="45.70336" lon="6.27177">
        <ele>1547.5999755859</ele>
        <time>2022-02-23T08:42:11.000Z</time>
      </trkpt>
      <trkpt lat="45.70335" lon="6.27175">
        <ele>1548</ele>
        <time>2022-02-23T08:42:13.000Z</time>
      </trkpt>
      <trkpt lat="45.70333" lon="6.27173">
        <ele>1549</ele>
        <time>2022-02-23T08:42:16.000Z</time>
      </trkpt>
      <trkpt lat="45.70333" lon="6.27172">
        <ele>1549.1999511719</ele>
        <time>2022-02-23T08:42:17.000Z</time>
      </trkpt>
      <trkpt lat="45.70332" lon="6.2717">
        <ele>1549.5999755859</ele>
        <time>2022-02-23T08:42:20.000Z</time>
      </trkpt>
      <trkpt lat="45.70332" lon="6.2717">
        <ele>1550.4000244141</ele>
        <time>2022-02-23T08:42:25.000Z</time>
      </trkpt>
      <trkpt lat="45.70333" lon="6.2717">
        <ele>1550.4000244141</ele>
        <time>2022-02-23T08:42:26.000Z</time>
      </trkpt>
      <trkpt lat="45.70333" lon="6.27171">
        <ele>1551</ele>
        <time>2022-02-23T08:42:29.000Z</time>
      </trkpt>
      <trkpt lat="45.70333" lon="6.27171">
        <ele>1551.4000244141</ele>
        <time>2022-02-23T08:42:30.000Z</time>
      </trkpt>
      <trkpt lat="45.70333" lon="6.27173">
        <ele>1552.1999511719</ele>
        <time>2022-02-23T08:42:35.000Z</time>
      </trkpt>
      <trkpt lat="45.70333" lon="6.27174">
        <ele>1552.5999755859</ele>
        <time>2022-02-23T08:42:36.000Z</time>
      </trkpt>
      <trkpt lat="45.70332" lon="6.27177">
        <ele>1553.1999511719</ele>
        <time>2022-02-23T08:42:40.000Z</time>
      </trkpt>
      <trkpt lat="45.70331" lon="6.27181">
        <ele>1553.8000488281</ele>
        <time>2022-02-23T08:42:44.000Z</time>
      </trkpt>
      <trkpt lat="45.7033" lon="6.27183">
        <ele>1554.1999511719</ele>
        <time>2022-02-23T08:42:46.000Z</time>
      </trkpt>
      <trkpt lat="45.70328" lon="6.27182">
        <ele>1554.8000488281</ele>
        <time>2022-02-23T08:42:51.000Z</time>
      </trkpt>
      <trkpt lat="45.70328" lon="6.27182">
        <ele>1555</ele>
        <time>2022-02-23T08:42:52.000Z</time>
      </trkpt>
      <trkpt lat="45.70328" lon="6.27178">
        <ele>1555.4000244141</ele>
        <time>2022-02-23T08:42:58.000Z</time>
      </trkpt>
      <trkpt lat="45.70327" lon="6.27178">
        <ele>1555.8000488281</ele>
        <time>2022-02-23T08:43:04.000Z</time>
      </trkpt>
      <trkpt lat="45.70327" lon="6.27178">
        <ele>1555.8000488281</ele>
        <time>2022-02-23T08:43:05.000Z</time>
      </trkpt>
      <trkpt lat="45.70326" lon="6.27176">
        <ele>1555.8000488281</ele>
        <time>2022-02-23T08:43:13.000Z</time>
      </trkpt>
      <trkpt lat="45.70326" lon="6.27176">
        <ele>1555.8000488281</ele>
        <time>2022-02-23T08:43:16.000Z</time>
      </trkpt>
      <trkpt lat="45.70326" lon="6.27176">
        <ele>1556</ele>
        <time>2022-02-23T08:43:22.000Z</time>
      </trkpt>
      <trkpt lat="45.70326" lon="6.27176">
        <ele>1556</ele>
        <time>2022-02-23T08:43:24.000Z</time>
      </trkpt>
      <trkpt lat="45.70326" lon="6.27175">
        <ele>1555.8000488281</ele>
        <time>2022-02-23T08:43:27.000Z</time>
      </trkpt>
      <trkpt lat="45.70326" lon="6.27174">
        <ele>1555.5999755859</ele>
        <time>2022-02-23T08:43:29.000Z</time>
      </trkpt>
      <trkpt lat="45.70327" lon="6.27174">
        <ele>1556.1999511719</ele>
        <time>2022-02-23T08:43:32.000Z</time>
      </trkpt>
      <trkpt lat="45.70328" lon="6.27174">
        <ele>1556.4000244141</ele>
        <time>2022-02-23T08:43:35.000Z</time>
      </trkpt>
      <trkpt lat="45.70328" lon="6.27174">
        <ele>1556.4000244141</ele>
        <time>2022-02-23T08:43:37.000Z</time>
      </trkpt>
      <trkpt lat="45.70328" lon="6.27174">
        <ele>1556.1999511719</ele>
        <time>2022-02-23T08:43:40.000Z</time>
      </trkpt>
      <trkpt lat="45.70328" lon="6.27174">
        <ele>1556.4000244141</ele>
        <time>2022-02-23T08:43:45.000Z</time>
      </trkpt>
      <trkpt lat="45.70328" lon="6.27175">
        <ele>1556.8000488281</ele>
        <time>2022-02-23T08:43:50.000Z</time>
      </trkpt>
      <trkpt lat="45.70327" lon="6.27172">
        <ele>1556.5999755859</ele>
        <time>2022-02-23T08:43:55.000Z</time>
      </trkpt>
      <trkpt lat="45.70327" lon="6.27172">
        <ele>1556.5999755859</ele>
        <time>2022-02-23T08:43:56.000Z</time>
      </trkpt>
      <trkpt lat="45.70327" lon="6.27173">
        <ele>1556.5999755859</ele>
        <time>2022-02-23T08:44:02.000Z</time>
      </trkpt>
      <trkpt lat="45.70327" lon="6.27173">
        <ele>1556.8000488281</ele>
        <time>2022-02-23T08:44:11.000Z</time>
      </trkpt>
      <trkpt lat="45.70327" lon="6.27173">
        <ele>1556.8000488281</ele>
        <time>2022-02-23T08:44:12.000Z</time>
      </trkpt>
      <trkpt lat="45.70328" lon="6.27173">
        <ele>1556.8000488281</ele>
        <time>2022-02-23T08:44:24.000Z</time>
      </trkpt>
      <trkpt lat="45.70328" lon="6.27173">
        <ele>1556.8000488281</ele>
        <time>2022-02-23T08:44:28.000Z</time>
      </trkpt>
      <trkpt lat="45.70328" lon="6.27173">
        <ele>1556.5999755859</ele>
        <time>2022-02-23T08:44:34.000Z</time>
      </trkpt>
      <trkpt lat="45.70328" lon="6.27173">
        <ele>1556.5999755859</ele>
        <time>2022-02-23T08:44:36.000Z</time>
      </trkpt>
      <trkpt lat="45.70328" lon="6.27171">
        <ele>1556.4000244141</ele>
        <time>2022-02-23T08:44:42.000Z</time>
      </trkpt>
      <trkpt lat="45.70328" lon="6.27171">
        <ele>1556.4000244141</ele>
        <time>2022-02-23T08:44:43.000Z</time>
      </trkpt>
      <trkpt lat="45.70327" lon="6.27169">
        <ele>1556.4000244141</ele>
        <time>2022-02-23T08:44:47.000Z</time>
      </trkpt>
      <trkpt lat="45.70326" lon="6.27164">
        <ele>1556.4000244141</ele>
        <time>2022-02-23T08:44:52.000Z</time>
      </trkpt>
      <trkpt lat="45.70325" lon="6.27162">
        <ele>1556</ele>
        <time>2022-02-23T08:44:54.000Z</time>
      </trkpt>
      <trkpt lat="45.70324" lon="6.27156">
        <ele>1556.1999511719</ele>
        <time>2022-02-23T08:44:58.000Z</time>
      </trkpt>
      <trkpt lat="45.70322" lon="6.27146">
        <ele>1556.5999755859</ele>
        <time>2022-02-23T08:45:04.000Z</time>
      </trkpt>
      <trkpt lat="45.70321" lon="6.27143">
        <ele>1556.4000244141</ele>
        <time>2022-02-23T08:45:06.000Z</time>
      </trkpt>
      <trkpt lat="45.70319" lon="6.27136">
        <ele>1556.4000244141</ele>
        <time>2022-02-23T08:45:10.000Z</time>
      </trkpt>
      <trkpt lat="45.70319" lon="6.27132">
        <ele>1556.4000244141</ele>
        <time>2022-02-23T08:45:12.000Z</time>
      </trkpt>
      <trkpt lat="45.70317" lon="6.27124">
        <ele>1556.5999755859</ele>
        <time>2022-02-23T08:45:16.000Z</time>
      </trkpt>
      <trkpt lat="45.70316" lon="6.27117">
        <ele>1556.8000488281</ele>
        <time>2022-02-23T08:45:20.000Z</time>
      </trkpt>
      <trkpt lat="45.70315" lon="6.27115">
        <ele>1556.8000488281</ele>
        <time>2022-02-23T08:45:21.000Z</time>
      </trkpt>
      <trkpt lat="45.70315" lon="6.27111">
        <ele>1556.8000488281</ele>
        <time>2022-02-23T08:45:24.000Z</time>
      </trkpt>
      <trkpt lat="45.70315" lon="6.27109">
        <ele>1556.8000488281</ele>
        <time>2022-02-23T08:45:25.000Z</time>
      </trkpt>
      <trkpt lat="45.70315" lon="6.27107">
        <ele>1556.8000488281</ele>
        <time>2022-02-23T08:45:26.000Z</time>
      </trkpt>
      <trkpt lat="45.70314" lon="6.27104">
        <ele>1556.8000488281</ele>
        <time>2022-02-23T08:45:28.000Z</time>
      </trkpt>
      <trkpt lat="45.70311" lon="6.27098">
        <ele>1557</ele>
        <time>2022-02-23T08:45:32.000Z</time>
      </trkpt>
      <trkpt lat="45.70309" lon="6.27096">
        <ele>1557</ele>
        <time>2022-02-23T08:45:34.000Z</time>
      </trkpt>
      <trkpt lat="45.70307" lon="6.27093">
        <ele>1557.1999511719</ele>
        <time>2022-02-23T08:45:37.000Z</time>
      </trkpt>
      <trkpt lat="45.70306" lon="6.27091">
        <ele>1557.1999511719</ele>
        <time>2022-02-23T08:45:39.000Z</time>
      </trkpt>
      <trkpt lat="45.70304" lon="6.27089">
        <ele>1557.5999755859</ele>
        <time>2022-02-23T08:45:42.000Z</time>
      </trkpt>
      <trkpt lat="45.70301" lon="6.27084">
        <ele>1558</ele>
        <time>2022-02-23T08:45:46.000Z</time>
      </trkpt>
      <trkpt lat="45.703" lon="6.27083">
        <ele>1558</ele>
        <time>2022-02-23T08:45:47.000Z</time>
      </trkpt>
      <trkpt lat="45.70299" lon="6.27082">
        <ele>1558</ele>
        <time>2022-02-23T08:45:49.000Z</time>
      </trkpt>
      <trkpt lat="45.70298" lon="6.27079">
        <ele>1558.1999511719</ele>
        <time>2022-02-23T08:45:51.000Z</time>
      </trkpt>
      <trkpt lat="45.70296" lon="6.27077">
        <ele>1558.5999755859</ele>
        <time>2022-02-23T08:45:53.000Z</time>
      </trkpt>
      <trkpt lat="45.70294" lon="6.27074">
        <ele>1559</ele>
        <time>2022-02-23T08:45:56.000Z</time>
      </trkpt>
      <trkpt lat="45.70292" lon="6.27071">
        <ele>1559.1999511719</ele>
        <time>2022-02-23T08:45:58.000Z</time>
      </trkpt>
      <trkpt lat="45.70291" lon="6.2707">
        <ele>1559.1999511719</ele>
        <time>2022-02-23T08:46:00.000Z</time>
      </trkpt>
      <trkpt lat="45.7029" lon="6.27069">
        <ele>1559.1999511719</ele>
        <time>2022-02-23T08:46:01.000Z</time>
      </trkpt>
      <trkpt lat="45.7029" lon="6.27068">
        <ele>1559.1999511719</ele>
        <time>2022-02-23T08:46:02.000Z</time>
      </trkpt>
      <trkpt lat="45.70289" lon="6.27067">
        <ele>1559</ele>
        <time>2022-02-23T08:46:03.000Z</time>
      </trkpt>
      <trkpt lat="45.70288" lon="6.27065">
        <ele>1559.1999511719</ele>
        <time>2022-02-23T08:46:05.000Z</time>
      </trkpt>
      <trkpt lat="45.70288" lon="6.27065">
        <ele>1559.1999511719</ele>
        <time>2022-02-23T08:46:06.000Z</time>
      </trkpt>
      <trkpt lat="45.70287" lon="6.27064">
        <ele>1559.1999511719</ele>
        <time>2022-02-23T08:46:07.000Z</time>
      </trkpt>
      <trkpt lat="45.70286" lon="6.27063">
        <ele>1559.1999511719</ele>
        <time>2022-02-23T08:46:08.000Z</time>
      </trkpt>
      <trkpt lat="45.70285" lon="6.27062">
        <ele>1559.5999755859</ele>
        <time>2022-02-23T08:46:10.000Z</time>
      </trkpt>
      <trkpt lat="45.70285" lon="6.27061">
        <ele>1559.5999755859</ele>
        <time>2022-02-23T08:46:11.000Z</time>
      </trkpt>
      <trkpt lat="45.70284" lon="6.27059">
        <ele>1560</ele>
        <time>2022-02-23T08:46:13.000Z</time>
      </trkpt>
      <trkpt lat="45.70284" lon="6.27058">
        <ele>1560.1999511719</ele>
        <time>2022-02-23T08:46:14.000Z</time>
      </trkpt>
      <trkpt lat="45.70283" lon="6.27057">
        <ele>1560.4000244141</ele>
        <time>2022-02-23T08:46:15.000Z</time>
      </trkpt>
      <trkpt lat="45.70283" lon="6.27056">
        <ele>1560.5999755859</ele>
        <time>2022-02-23T08:46:16.000Z</time>
      </trkpt>
      <trkpt lat="45.70282" lon="6.27055">
        <ele>1561</ele>
        <time>2022-02-23T08:46:18.000Z</time>
      </trkpt>
      <trkpt lat="45.70282" lon="6.27055">
        <ele>1561.1999511719</ele>
        <time>2022-02-23T08:46:19.000Z</time>
      </trkpt>
      <trkpt lat="45.70281" lon="6.27054">
        <ele>1561.4000244141</ele>
        <time>2022-02-23T08:46:20.000Z</time>
      </trkpt>
      <trkpt lat="45.70281" lon="6.27053">
        <ele>1561.5999755859</ele>
        <time>2022-02-23T08:46:21.000Z</time>
      </trkpt>
      <trkpt lat="45.7028" lon="6.2705">
        <ele>1562.1999511719</ele>
        <time>2022-02-23T08:46:24.000Z</time>
      </trkpt>
      <trkpt lat="45.7028" lon="6.2705">
        <ele>1562.4000244141</ele>
        <time>2022-02-23T08:46:25.000Z</time>
      </trkpt>
      <trkpt lat="45.7028" lon="6.27049">
        <ele>1562.4000244141</ele>
        <time>2022-02-23T08:46:26.000Z</time>
      </trkpt>
      <trkpt lat="45.70279" lon="6.27045">
        <ele>1563</ele>
        <time>2022-02-23T08:46:30.000Z</time>
      </trkpt>
      <trkpt lat="45.70277" lon="6.27043">
        <ele>1563.4000244141</ele>
        <time>2022-02-23T08:46:34.000Z</time>
      </trkpt>
      <trkpt lat="45.70277" lon="6.27042">
        <ele>1563.5999755859</ele>
        <time>2022-02-23T08:46:35.000Z</time>
      </trkpt>
      <trkpt lat="45.70276" lon="6.2704">
        <ele>1565.1999511719</ele>
        <time>2022-02-23T08:46:38.000Z</time>
      </trkpt>
      <trkpt lat="45.70276" lon="6.27038">
        <ele>1565.5999755859</ele>
        <time>2022-02-23T08:46:41.000Z</time>
      </trkpt>
      <trkpt lat="45.70275" lon="6.27035">
        <ele>1566</ele>
        <time>2022-02-23T08:46:46.000Z</time>
      </trkpt>
      <trkpt lat="45.70275" lon="6.27035">
        <ele>1566.1999511719</ele>
        <time>2022-02-23T08:46:47.000Z</time>
      </trkpt>
      <trkpt lat="45.70272" lon="6.27033">
        <ele>1566.8000488281</ele>
        <time>2022-02-23T08:46:50.000Z</time>
      </trkpt>
      <trkpt lat="45.70272" lon="6.27032">
        <ele>1567.1999511719</ele>
        <time>2022-02-23T08:46:52.000Z</time>
      </trkpt>
      <trkpt lat="45.70272" lon="6.27031">
        <ele>1567.8000488281</ele>
        <time>2022-02-23T08:46:54.000Z</time>
      </trkpt>
      <trkpt lat="45.70272" lon="6.27029">
        <ele>1568</ele>
        <time>2022-02-23T08:46:56.000Z</time>
      </trkpt>
      <trkpt lat="45.70272" lon="6.27028">
        <ele>1568.1999511719</ele>
        <time>2022-02-23T08:46:58.000Z</time>
      </trkpt>
      <trkpt lat="45.70271" lon="6.27027">
        <ele>1569</ele>
        <time>2022-02-23T08:47:02.000Z</time>
      </trkpt>
      <trkpt lat="45.7027" lon="6.27027">
        <ele>1569.4000244141</ele>
        <time>2022-02-23T08:47:03.000Z</time>
      </trkpt>
      <trkpt lat="45.70269" lon="6.27025">
        <ele>1570.1999511719</ele>
        <time>2022-02-23T08:47:06.000Z</time>
      </trkpt>
      <trkpt lat="45.70269" lon="6.27025">
        <ele>1570.4000244141</ele>
        <time>2022-02-23T08:47:07.000Z</time>
      </trkpt>
      <trkpt lat="45.70269" lon="6.27024">
        <ele>1570.5999755859</ele>
        <time>2022-02-23T08:47:08.000Z</time>
      </trkpt>
      <trkpt lat="45.70268" lon="6.27023">
        <ele>1571</ele>
        <time>2022-02-23T08:47:10.000Z</time>
      </trkpt>
      <trkpt lat="45.70268" lon="6.27021">
        <ele>1571.1999511719</ele>
        <time>2022-02-23T08:47:12.000Z</time>
      </trkpt>
      <trkpt lat="45.70267" lon="6.2702">
        <ele>1571.8000488281</ele>
        <time>2022-02-23T08:47:14.000Z</time>
      </trkpt>
      <trkpt lat="45.70266" lon="6.27018">
        <ele>1572</ele>
        <time>2022-02-23T08:47:16.000Z</time>
      </trkpt>
      <trkpt lat="45.70265" lon="6.27016">
        <ele>1572.1999511719</ele>
        <time>2022-02-23T08:47:18.000Z</time>
      </trkpt>
      <trkpt lat="45.70265" lon="6.27013">
        <ele>1572.4000244141</ele>
        <time>2022-02-23T08:47:21.000Z</time>
      </trkpt>
      <trkpt lat="45.70265" lon="6.27011">
        <ele>1572.5999755859</ele>
        <time>2022-02-23T08:47:23.000Z</time>
      </trkpt>
      <trkpt lat="45.70264" lon="6.2701">
        <ele>1572.5999755859</ele>
        <time>2022-02-23T08:47:25.000Z</time>
      </trkpt>
      <trkpt lat="45.70264" lon="6.27009">
        <ele>1572.8000488281</ele>
        <time>2022-02-23T08:47:26.000Z</time>
      </trkpt>
      <trkpt lat="45.70263" lon="6.27008">
        <ele>1573.4000244141</ele>
        <time>2022-02-23T08:47:28.000Z</time>
      </trkpt>
      <trkpt lat="45.70263" lon="6.27006">
        <ele>1573.8000488281</ele>
        <time>2022-02-23T08:47:30.000Z</time>
      </trkpt>
      <trkpt lat="45.7026" lon="6.27004">
        <ele>1575</ele>
        <time>2022-02-23T08:47:34.000Z</time>
      </trkpt>
      <trkpt lat="45.7026" lon="6.27003">
        <ele>1575.1999511719</ele>
        <time>2022-02-23T08:47:35.000Z</time>
      </trkpt>
      <trkpt lat="45.70259" lon="6.27001">
        <ele>1576.1999511719</ele>
        <time>2022-02-23T08:47:38.000Z</time>
      </trkpt>
      <trkpt lat="45.70259" lon="6.27">
        <ele>1576.5999755859</ele>
        <time>2022-02-23T08:47:39.000Z</time>
      </trkpt>
      <trkpt lat="45.70258" lon="6.26998">
        <ele>1577.4000244141</ele>
        <time>2022-02-23T08:47:43.000Z</time>
      </trkpt>
      <trkpt lat="45.70257" lon="6.26997">
        <ele>1577.5999755859</ele>
        <time>2022-02-23T08:47:45.000Z</time>
      </trkpt>
      <trkpt lat="45.70257" lon="6.26996">
        <ele>1578</ele>
        <time>2022-02-23T08:47:46.000Z</time>
      </trkpt>
      <trkpt lat="45.70257" lon="6.26995">
        <ele>1578.1999511719</ele>
        <time>2022-02-23T08:47:47.000Z</time>
      </trkpt>
      <trkpt lat="45.70257" lon="6.26994">
        <ele>1578.5999755859</ele>
        <time>2022-02-23T08:47:49.000Z</time>
      </trkpt>
      <trkpt lat="45.70257" lon="6.26992">
        <ele>1578.8000488281</ele>
        <time>2022-02-23T08:47:51.000Z</time>
      </trkpt>
      <trkpt lat="45.70256" lon="6.26987">
        <ele>1579.5999755859</ele>
        <time>2022-02-23T08:47:57.000Z</time>
      </trkpt>
      <trkpt lat="45.70256" lon="6.26985">
        <ele>1579.5999755859</ele>
        <time>2022-02-23T08:48:00.000Z</time>
      </trkpt>
      <trkpt lat="45.70253" lon="6.26984">
        <ele>1580.8000488281</ele>
        <time>2022-02-23T08:48:03.000Z</time>
      </trkpt>
      <trkpt lat="45.70253" lon="6.26984">
        <ele>1581.1999511719</ele>
        <time>2022-02-23T08:48:04.000Z</time>
      </trkpt>
      <trkpt lat="45.70252" lon="6.26984">
        <ele>1581.8000488281</ele>
        <time>2022-02-23T08:48:06.000Z</time>
      </trkpt>
      <trkpt lat="45.70252" lon="6.26986">
        <ele>1582.5999755859</ele>
        <time>2022-02-23T08:48:09.000Z</time>
      </trkpt>
      <trkpt lat="45.7025" lon="6.26988">
        <ele>1583</ele>
        <time>2022-02-23T08:48:14.000Z</time>
      </trkpt>
      <trkpt lat="45.70249" lon="6.26988">
        <ele>1584</ele>
        <time>2022-02-23T08:48:16.000Z</time>
      </trkpt>
      <trkpt lat="45.70249" lon="6.26986">
        <ele>1584.8000488281</ele>
        <time>2022-02-23T08:48:20.000Z</time>
      </trkpt>
      <trkpt lat="45.70248" lon="6.26986">
        <ele>1584.8000488281</ele>
        <time>2022-02-23T08:48:21.000Z</time>
      </trkpt>
      <trkpt lat="45.70248" lon="6.26984">
        <ele>1585</ele>
        <time>2022-02-23T08:48:24.000Z</time>
      </trkpt>
      <trkpt lat="45.70247" lon="6.26983">
        <ele>1585.1999511719</ele>
        <time>2022-02-23T08:48:26.000Z</time>
      </trkpt>
      <trkpt lat="45.70246" lon="6.26982">
        <ele>1585.4000244141</ele>
        <time>2022-02-23T08:48:27.000Z</time>
      </trkpt>
      <trkpt lat="45.70245" lon="6.26982">
        <ele>1585.5999755859</ele>
        <time>2022-02-23T08:48:28.000Z</time>
      </trkpt>
      <trkpt lat="45.70243" lon="6.2698">
        <ele>1586.5999755859</ele>
        <time>2022-02-23T08:48:32.000Z</time>
      </trkpt>
      <trkpt lat="45.70241" lon="6.26978">
        <ele>1587.1999511719</ele>
        <time>2022-02-23T08:48:35.000Z</time>
      </trkpt>
      <trkpt lat="45.7024" lon="6.26978">
        <ele>1587.8000488281</ele>
        <time>2022-02-23T08:48:37.000Z</time>
      </trkpt>
      <trkpt lat="45.70239" lon="6.26978">
        <ele>1587.8000488281</ele>
        <time>2022-02-23T08:48:38.000Z</time>
      </trkpt>
      <trkpt lat="45.70239" lon="6.26978">
        <ele>1588.1999511719</ele>
        <time>2022-02-23T08:48:39.000Z</time>
      </trkpt>
      <trkpt lat="45.70238" lon="6.26977">
        <ele>1588.4000244141</ele>
        <time>2022-02-23T08:48:40.000Z</time>
      </trkpt>
      <trkpt lat="45.70238" lon="6.26977">
        <ele>1588.4000244141</ele>
        <time>2022-02-23T08:48:41.000Z</time>
      </trkpt>
      <trkpt lat="45.70237" lon="6.26978">
        <ele>1588.5999755859</ele>
        <time>2022-02-23T08:48:42.000Z</time>
      </trkpt>
      <trkpt lat="45.70237" lon="6.26978">
        <ele>1589</ele>
        <time>2022-02-23T08:48:43.000Z</time>
      </trkpt>
      <trkpt lat="45.70234" lon="6.26978">
        <ele>1590.4000244141</ele>
        <time>2022-02-23T08:48:46.000Z</time>
      </trkpt>
      <trkpt lat="45.70233" lon="6.26977">
        <ele>1591</ele>
        <time>2022-02-23T08:48:48.000Z</time>
      </trkpt>
      <trkpt lat="45.70231" lon="6.26976">
        <ele>1591</ele>
        <time>2022-02-23T08:48:51.000Z</time>
      </trkpt>
      <trkpt lat="45.70231" lon="6.26976">
        <ele>1591.1999511719</ele>
        <time>2022-02-23T08:48:52.000Z</time>
      </trkpt>
      <trkpt lat="45.7023" lon="6.26976">
        <ele>1591.1999511719</ele>
        <time>2022-02-23T08:48:53.000Z</time>
      </trkpt>
      <trkpt lat="45.70229" lon="6.26976">
        <ele>1591.5999755859</ele>
        <time>2022-02-23T08:48:55.000Z</time>
      </trkpt>
      <trkpt lat="45.70228" lon="6.26975">
        <ele>1592</ele>
        <time>2022-02-23T08:48:57.000Z</time>
      </trkpt>
      <trkpt lat="45.70226" lon="6.26976">
        <ele>1592.4000244141</ele>
        <time>2022-02-23T08:49:01.000Z</time>
      </trkpt>
      <trkpt lat="45.70225" lon="6.26976">
        <ele>1592.5999755859</ele>
        <time>2022-02-23T08:49:02.000Z</time>
      </trkpt>
      <trkpt lat="45.70225" lon="6.26976">
        <ele>1592.5999755859</ele>
        <time>2022-02-23T08:49:03.000Z</time>
      </trkpt>
      <trkpt lat="45.70223" lon="6.26977">
        <ele>1593.4000244141</ele>
        <time>2022-02-23T08:49:06.000Z</time>
      </trkpt>
      <trkpt lat="45.70222" lon="6.26977">
        <ele>1593.8000488281</ele>
        <time>2022-02-23T08:49:08.000Z</time>
      </trkpt>
      <trkpt lat="45.7022" lon="6.26977">
        <ele>1594.1999511719</ele>
        <time>2022-02-23T08:49:10.000Z</time>
      </trkpt>
      <trkpt lat="45.7022" lon="6.26976">
        <ele>1594.5999755859</ele>
        <time>2022-02-23T08:49:11.000Z</time>
      </trkpt>
      <trkpt lat="45.70219" lon="6.26976">
        <ele>1594.8000488281</ele>
        <time>2022-02-23T08:49:13.000Z</time>
      </trkpt>
      <trkpt lat="45.70218" lon="6.26975">
        <ele>1595</ele>
        <time>2022-02-23T08:49:15.000Z</time>
      </trkpt>
      <trkpt lat="45.70218" lon="6.26972">
        <ele>1596</ele>
        <time>2022-02-23T08:49:18.000Z</time>
      </trkpt>
      <trkpt lat="45.70219" lon="6.26974">
        <ele>1596.8000488281</ele>
        <time>2022-02-23T08:49:21.000Z</time>
      </trkpt>
      <trkpt lat="45.70219" lon="6.26975">
        <ele>1597.1999511719</ele>
        <time>2022-02-23T08:49:22.000Z</time>
      </trkpt>
      <trkpt lat="45.7022" lon="6.26978">
        <ele>1598.1999511719</ele>
        <time>2022-02-23T08:49:26.000Z</time>
      </trkpt>
      <trkpt lat="45.7022" lon="6.2698">
        <ele>1598.4000244141</ele>
        <time>2022-02-23T08:49:28.000Z</time>
      </trkpt>
      <trkpt lat="45.70221" lon="6.26981">
        <ele>1598.5999755859</ele>
        <time>2022-02-23T08:49:29.000Z</time>
      </trkpt>
      <trkpt lat="45.70221" lon="6.26981">
        <ele>1598.8000488281</ele>
        <time>2022-02-23T08:49:30.000Z</time>
      </trkpt>
      <trkpt lat="45.70223" lon="6.26985">
        <ele>1599.1999511719</ele>
        <time>2022-02-23T08:49:33.000Z</time>
      </trkpt>
      <trkpt lat="45.70224" lon="6.26987">
        <ele>1599.4000244141</ele>
        <time>2022-02-23T08:49:35.000Z</time>
      </trkpt>
      <trkpt lat="45.70225" lon="6.26992">
        <ele>1600</ele>
        <time>2022-02-23T08:49:40.000Z</time>
      </trkpt>
      <trkpt lat="45.70226" lon="6.26994">
        <ele>1600.4000244141</ele>
        <time>2022-02-23T08:49:42.000Z</time>
      </trkpt>
      <trkpt lat="45.70226" lon="6.26998">
        <ele>1601</ele>
        <time>2022-02-23T08:49:46.000Z</time>
      </trkpt>
      <trkpt lat="45.70226" lon="6.27">
        <ele>1601</ele>
        <time>2022-02-23T08:49:48.000Z</time>
      </trkpt>
      <trkpt lat="45.70226" lon="6.27002">
        <ele>1601.5999755859</ele>
        <time>2022-02-23T08:49:50.000Z</time>
      </trkpt>
      <trkpt lat="45.70226" lon="6.27003">
        <ele>1601.5999755859</ele>
        <time>2022-02-23T08:49:51.000Z</time>
      </trkpt>
      <trkpt lat="45.70226" lon="6.27004">
        <ele>1602</ele>
        <time>2022-02-23T08:49:52.000Z</time>
      </trkpt>
      <trkpt lat="45.70226" lon="6.27006">
        <ele>1602.8000488281</ele>
        <time>2022-02-23T08:49:54.000Z</time>
      </trkpt>
      <trkpt lat="45.70227" lon="6.27008">
        <ele>1603.1999511719</ele>
        <time>2022-02-23T08:49:56.000Z</time>
      </trkpt>
      <trkpt lat="45.70227" lon="6.2701">
        <ele>1603.4000244141</ele>
        <time>2022-02-23T08:49:58.000Z</time>
      </trkpt>
      <trkpt lat="45.70227" lon="6.27011">
        <ele>1603.8000488281</ele>
        <time>2022-02-23T08:49:59.000Z</time>
      </trkpt>
      <trkpt lat="45.70228" lon="6.27012">
        <ele>1604.1999511719</ele>
        <time>2022-02-23T08:50:00.000Z</time>
      </trkpt>
      <trkpt lat="45.70228" lon="6.27013">
        <ele>1604.1999511719</ele>
        <time>2022-02-23T08:50:01.000Z</time>
      </trkpt>
      <trkpt lat="45.70228" lon="6.27014">
        <ele>1604.4000244141</ele>
        <time>2022-02-23T08:50:02.000Z</time>
      </trkpt>
      <trkpt lat="45.70226" lon="6.27018">
        <ele>1604.5999755859</ele>
        <time>2022-02-23T08:50:06.000Z</time>
      </trkpt>
      <trkpt lat="45.70226" lon="6.27021">
        <ele>1604.8000488281</ele>
        <time>2022-02-23T08:50:08.000Z</time>
      </trkpt>
      <trkpt lat="45.70226" lon="6.27024">
        <ele>1605</ele>
        <time>2022-02-23T08:50:10.000Z</time>
      </trkpt>
      <trkpt lat="45.70226" lon="6.27025">
        <ele>1605</ele>
        <time>2022-02-23T08:50:11.000Z</time>
      </trkpt>
      <trkpt lat="45.70225" lon="6.27027">
        <ele>1604.8000488281</ele>
        <time>2022-02-23T08:50:12.000Z</time>
      </trkpt>
      <trkpt lat="45.70226" lon="6.2703">
        <ele>1604.8000488281</ele>
        <time>2022-02-23T08:50:15.000Z</time>
      </trkpt>
      <trkpt lat="45.70227" lon="6.27032">
        <ele>1604.8000488281</ele>
        <time>2022-02-23T08:50:17.000Z</time>
      </trkpt>
      <trkpt lat="45.70229" lon="6.27037">
        <ele>1605</ele>
        <time>2022-02-23T08:50:20.000Z</time>
      </trkpt>
      <trkpt lat="45.7023" lon="6.27041">
        <ele>1605.4000244141</ele>
        <time>2022-02-23T08:50:24.000Z</time>
      </trkpt>
      <trkpt lat="45.70231" lon="6.27044">
        <ele>1605.4000244141</ele>
        <time>2022-02-23T08:50:26.000Z</time>
      </trkpt>
      <trkpt lat="45.7023" lon="6.27046">
        <ele>1605.8000488281</ele>
        <time>2022-02-23T08:50:29.000Z</time>
      </trkpt>
      <trkpt lat="45.70229" lon="6.27047">
        <ele>1606</ele>
        <time>2022-02-23T08:50:30.000Z</time>
      </trkpt>
      <trkpt lat="45.70227" lon="6.27046">
        <ele>1606.5999755859</ele>
        <time>2022-02-23T08:50:33.000Z</time>
      </trkpt>
      <trkpt lat="45.70225" lon="6.27045">
        <ele>1606.8000488281</ele>
        <time>2022-02-23T08:50:35.000Z</time>
      </trkpt>
      <trkpt lat="45.70224" lon="6.27044">
        <ele>1607.1999511719</ele>
        <time>2022-02-23T08:50:37.000Z</time>
      </trkpt>
      <trkpt lat="45.70224" lon="6.27044">
        <ele>1607.4000244141</ele>
        <time>2022-02-23T08:50:38.000Z</time>
      </trkpt>
      <trkpt lat="45.70223" lon="6.27044">
        <ele>1607.5999755859</ele>
        <time>2022-02-23T08:50:40.000Z</time>
      </trkpt>
      <trkpt lat="45.70222" lon="6.27045">
        <ele>1608.1999511719</ele>
        <time>2022-02-23T08:50:43.000Z</time>
      </trkpt>
      <trkpt lat="45.70221" lon="6.27045">
        <ele>1608.4000244141</ele>
        <time>2022-02-23T08:50:44.000Z</time>
      </trkpt>
      <trkpt lat="45.70221" lon="6.27048">
        <ele>1609.5999755859</ele>
        <time>2022-02-23T08:50:48.000Z</time>
      </trkpt>
      <trkpt lat="45.70222" lon="6.27049">
        <ele>1609.8000488281</ele>
        <time>2022-02-23T08:50:49.000Z</time>
      </trkpt>
      <trkpt lat="45.70223" lon="6.27053">
        <ele>1610.8000488281</ele>
        <time>2022-02-23T08:50:53.000Z</time>
      </trkpt>
      <trkpt lat="45.70224" lon="6.27055">
        <ele>1611.1999511719</ele>
        <time>2022-02-23T08:50:55.000Z</time>
      </trkpt>
      <trkpt lat="45.70224" lon="6.27059">
        <ele>1611.8000488281</ele>
        <time>2022-02-23T08:50:59.000Z</time>
      </trkpt>
      <trkpt lat="45.70224" lon="6.2706">
        <ele>1612.1999511719</ele>
        <time>2022-02-23T08:51:00.000Z</time>
      </trkpt>
      <trkpt lat="45.70224" lon="6.27063">
        <ele>1612.8000488281</ele>
        <time>2022-02-23T08:51:03.000Z</time>
      </trkpt>
      <trkpt lat="45.70223" lon="6.27066">
        <ele>1613.4000244141</ele>
        <time>2022-02-23T08:51:07.000Z</time>
      </trkpt>
      <trkpt lat="45.70222" lon="6.27068">
        <ele>1613.5999755859</ele>
        <time>2022-02-23T08:51:09.000Z</time>
      </trkpt>
      <trkpt lat="45.70221" lon="6.27068">
        <ele>1614</ele>
        <time>2022-02-23T08:51:10.000Z</time>
      </trkpt>
      <trkpt lat="45.70221" lon="6.27069">
        <ele>1614.4000244141</ele>
        <time>2022-02-23T08:51:11.000Z</time>
      </trkpt>
      <trkpt lat="45.70219" lon="6.27073">
        <ele>1614.8000488281</ele>
        <time>2022-02-23T08:51:16.000Z</time>
      </trkpt>
      <trkpt lat="45.70219" lon="6.27074">
        <ele>1615</ele>
        <time>2022-02-23T08:51:17.000Z</time>
      </trkpt>
      <trkpt lat="45.70218" lon="6.27075">
        <ele>1615.1999511719</ele>
        <time>2022-02-23T08:51:18.000Z</time>
      </trkpt>
      <trkpt lat="45.70219" lon="6.27076">
        <ele>1615.5999755859</ele>
        <time>2022-02-23T08:51:19.000Z</time>
      </trkpt>
      <trkpt lat="45.70219" lon="6.27078">
        <ele>1616</ele>
        <time>2022-02-23T08:51:21.000Z</time>
      </trkpt>
      <trkpt lat="45.70219" lon="6.27079">
        <ele>1616.1999511719</ele>
        <time>2022-02-23T08:51:22.000Z</time>
      </trkpt>
      <trkpt lat="45.70219" lon="6.27082">
        <ele>1617</ele>
        <time>2022-02-23T08:51:25.000Z</time>
      </trkpt>
      <trkpt lat="45.70219" lon="6.27083">
        <ele>1617</ele>
        <time>2022-02-23T08:51:26.000Z</time>
      </trkpt>
      <trkpt lat="45.70219" lon="6.27084">
        <ele>1617.1999511719</ele>
        <time>2022-02-23T08:51:27.000Z</time>
      </trkpt>
      <trkpt lat="45.70219" lon="6.27085">
        <ele>1617.4000244141</ele>
        <time>2022-02-23T08:51:29.000Z</time>
      </trkpt>
      <trkpt lat="45.70218" lon="6.27086">
        <ele>1617.8000488281</ele>
        <time>2022-02-23T08:51:30.000Z</time>
      </trkpt>
      <trkpt lat="45.70218" lon="6.27087">
        <ele>1617.8000488281</ele>
        <time>2022-02-23T08:51:31.000Z</time>
      </trkpt>
      <trkpt lat="45.70216" lon="6.2709">
        <ele>1618.1999511719</ele>
        <time>2022-02-23T08:51:34.000Z</time>
      </trkpt>
      <trkpt lat="45.70216" lon="6.27091">
        <ele>1618.1999511719</ele>
        <time>2022-02-23T08:51:35.000Z</time>
      </trkpt>
      <trkpt lat="45.70215" lon="6.27092">
        <ele>1618.5999755859</ele>
        <time>2022-02-23T08:51:36.000Z</time>
      </trkpt>
      <trkpt lat="45.70213" lon="6.27094">
        <ele>1618.8000488281</ele>
        <time>2022-02-23T08:51:39.000Z</time>
      </trkpt>
      <trkpt lat="45.70209" lon="6.27097">
        <ele>1619</ele>
        <time>2022-02-23T08:51:44.000Z</time>
      </trkpt>
      <trkpt lat="45.70206" lon="6.27096">
        <ele>1619.1999511719</ele>
        <time>2022-02-23T08:51:48.000Z</time>
      </trkpt>
      <trkpt lat="45.70205" lon="6.27093">
        <ele>1619.5999755859</ele>
        <time>2022-02-23T08:51:51.000Z</time>
      </trkpt>
      <trkpt lat="45.70204" lon="6.27091">
        <ele>1620.1999511719</ele>
        <time>2022-02-23T08:51:54.000Z</time>
      </trkpt>
      <trkpt lat="45.70203" lon="6.27089">
        <ele>1620.4000244141</ele>
        <time>2022-02-23T08:51:55.000Z</time>
      </trkpt>
      <trkpt lat="45.70203" lon="6.27089">
        <ele>1620.8000488281</ele>
        <time>2022-02-23T08:51:56.000Z</time>
      </trkpt>
      <trkpt lat="45.70203" lon="6.27087">
        <ele>1621.4000244141</ele>
        <time>2022-02-23T08:51:58.000Z</time>
      </trkpt>
      <trkpt lat="45.70203" lon="6.27086">
        <ele>1621.5999755859</ele>
        <time>2022-02-23T08:51:59.000Z</time>
      </trkpt>
      <trkpt lat="45.70202" lon="6.27084">
        <ele>1621.8000488281</ele>
        <time>2022-02-23T08:52:01.000Z</time>
      </trkpt>
      <trkpt lat="45.70202" lon="6.27081">
        <ele>1623.1999511719</ele>
        <time>2022-02-23T08:52:06.000Z</time>
      </trkpt>
      <trkpt lat="45.702" lon="6.27076">
        <ele>1624</ele>
        <time>2022-02-23T08:52:11.000Z</time>
      </trkpt>
      <trkpt lat="45.702" lon="6.27075">
        <ele>1624.1999511719</ele>
        <time>2022-02-23T08:52:13.000Z</time>
      </trkpt>
      <trkpt lat="45.70199" lon="6.27074">
        <ele>1624.1999511719</ele>
        <time>2022-02-23T08:52:14.000Z</time>
      </trkpt>
      <trkpt lat="45.70199" lon="6.27072">
        <ele>1624.4000244141</ele>
        <time>2022-02-23T08:52:16.000Z</time>
      </trkpt>
      <trkpt lat="45.70197" lon="6.27067">
        <ele>1624.5999755859</ele>
        <time>2022-02-23T08:52:20.000Z</time>
      </trkpt>
      <trkpt lat="45.70196" lon="6.27065">
        <ele>1624.8000488281</ele>
        <time>2022-02-23T08:52:22.000Z</time>
      </trkpt>
      <trkpt lat="45.70196" lon="6.27063">
        <ele>1625.4000244141</ele>
        <time>2022-02-23T08:52:25.000Z</time>
      </trkpt>
      <trkpt lat="45.70195" lon="6.27061">
        <ele>1625.8000488281</ele>
        <time>2022-02-23T08:52:28.000Z</time>
      </trkpt>
      <trkpt lat="45.70195" lon="6.27059">
        <ele>1626.1999511719</ele>
        <time>2022-02-23T08:52:31.000Z</time>
      </trkpt>
      <trkpt lat="45.70194" lon="6.27059">
        <ele>1626.1999511719</ele>
        <time>2022-02-23T08:52:32.000Z</time>
      </trkpt>
      <trkpt lat="45.70194" lon="6.27058">
        <ele>1626.4000244141</ele>
        <time>2022-02-23T08:52:33.000Z</time>
      </trkpt>
      <trkpt lat="45.70194" lon="6.27057">
        <ele>1626.8000488281</ele>
        <time>2022-02-23T08:52:34.000Z</time>
      </trkpt>
      <trkpt lat="45.70193" lon="6.27055">
        <ele>1627.5999755859</ele>
        <time>2022-02-23T08:52:37.000Z</time>
      </trkpt>
      <trkpt lat="45.70192" lon="6.27053">
        <ele>1627.8000488281</ele>
        <time>2022-02-23T08:52:39.000Z</time>
      </trkpt>
      <trkpt lat="45.70189" lon="6.27051">
        <ele>1629</ele>
        <time>2022-02-23T08:52:43.000Z</time>
      </trkpt>
      <trkpt lat="45.70187" lon="6.27048">
        <ele>1629.8000488281</ele>
        <time>2022-02-23T08:52:46.000Z</time>
      </trkpt>
      <trkpt lat="45.70186" lon="6.27046">
        <ele>1630</ele>
        <time>2022-02-23T08:52:48.000Z</time>
      </trkpt>
      <trkpt lat="45.70184" lon="6.27045">
        <ele>1630.1999511719</ele>
        <time>2022-02-23T08:52:50.000Z</time>
      </trkpt>
      <trkpt lat="45.70181" lon="6.27044">
        <ele>1630.5999755859</ele>
        <time>2022-02-23T08:52:54.000Z</time>
      </trkpt>
      <trkpt lat="45.7018" lon="6.27043">
        <ele>1630.5999755859</ele>
        <time>2022-02-23T08:52:55.000Z</time>
      </trkpt>
      <trkpt lat="45.70178" lon="6.27044">
        <ele>1631.1999511719</ele>
        <time>2022-02-23T08:53:00.000Z</time>
      </trkpt>
      <trkpt lat="45.70178" lon="6.27044">
        <ele>1631.1999511719</ele>
        <time>2022-02-23T08:53:01.000Z</time>
      </trkpt>
      <trkpt lat="45.70184" lon="6.27045">
        <ele>1632.1999511719</ele>
        <time>2022-02-23T08:53:06.000Z</time>
      </trkpt>
      <trkpt lat="45.70185" lon="6.27045">
        <ele>1632.5999755859</ele>
        <time>2022-02-23T08:53:08.000Z</time>
      </trkpt>
      <trkpt lat="45.70187" lon="6.27048">
        <ele>1633.4000244141</ele>
        <time>2022-02-23T08:53:11.000Z</time>
      </trkpt>
      <trkpt lat="45.70188" lon="6.27049">
        <ele>1633.8000488281</ele>
        <time>2022-02-23T08:53:13.000Z</time>
      </trkpt>
      <trkpt lat="45.70187" lon="6.27052">
        <ele>1634.5999755859</ele>
        <time>2022-02-23T08:53:16.000Z</time>
      </trkpt>
      <trkpt lat="45.70186" lon="6.27053">
        <ele>1634.5999755859</ele>
        <time>2022-02-23T08:53:17.000Z</time>
      </trkpt>
      <trkpt lat="45.70183" lon="6.27055">
        <ele>1634.5999755859</ele>
        <time>2022-02-23T08:53:20.000Z</time>
      </trkpt>
      <trkpt lat="45.70182" lon="6.27055">
        <ele>1634.5999755859</ele>
        <time>2022-02-23T08:53:22.000Z</time>
      </trkpt>
      <trkpt lat="45.70181" lon="6.27056">
        <ele>1634.5999755859</ele>
        <time>2022-02-23T08:53:24.000Z</time>
      </trkpt>
      <trkpt lat="45.70181" lon="6.27057">
        <ele>1635.4000244141</ele>
        <time>2022-02-23T08:53:29.000Z</time>
      </trkpt>
      <trkpt lat="45.7018" lon="6.27057">
        <ele>1635.1999511719</ele>
        <time>2022-02-23T08:53:34.000Z</time>
      </trkpt>
      <trkpt lat="45.7018" lon="6.27057">
        <ele>1635.1999511719</ele>
        <time>2022-02-23T08:53:36.000Z</time>
      </trkpt>
      <trkpt lat="45.70179" lon="6.27057">
        <ele>1635.4000244141</ele>
        <time>2022-02-23T08:53:45.000Z</time>
      </trkpt>
      <trkpt lat="45.70179" lon="6.27057">
        <ele>1635.4000244141</ele>
        <time>2022-02-23T08:53:47.000Z</time>
      </trkpt>
      <trkpt lat="45.70179" lon="6.27057">
        <ele>1635.1999511719</ele>
        <time>2022-02-23T08:53:52.000Z</time>
      </trkpt>
      <trkpt lat="45.70179" lon="6.27057">
        <ele>1635.4000244141</ele>
        <time>2022-02-23T08:53:55.000Z</time>
      </trkpt>
      <trkpt lat="45.7018" lon="6.27058">
        <ele>1635.1999511719</ele>
        <time>2022-02-23T08:53:57.000Z</time>
      </trkpt>
      <trkpt lat="45.7018" lon="6.2706">
        <ele>1635.4000244141</ele>
        <time>2022-02-23T08:54:00.000Z</time>
      </trkpt>
      <trkpt lat="45.7018" lon="6.2706">
        <ele>1635.4000244141</ele>
        <time>2022-02-23T08:54:02.000Z</time>
      </trkpt>
      <trkpt lat="45.70181" lon="6.27061">
        <ele>1635.4000244141</ele>
        <time>2022-02-23T08:54:07.000Z</time>
      </trkpt>
      <trkpt lat="45.70182" lon="6.2706">
        <ele>1635.1999511719</ele>
        <time>2022-02-23T08:54:11.000Z</time>
      </trkpt>
      <trkpt lat="45.70182" lon="6.27061">
        <ele>1635.4000244141</ele>
        <time>2022-02-23T08:54:15.000Z</time>
      </trkpt>
      <trkpt lat="45.70185" lon="6.27062">
        <ele>1635.1999511719</ele>
        <time>2022-02-23T08:54:20.000Z</time>
      </trkpt>
      <trkpt lat="45.70193" lon="6.27065">
        <ele>1634.8000488281</ele>
        <time>2022-02-23T08:54:28.000Z</time>
      </trkpt>
      <trkpt lat="45.70192" lon="6.27067">
        <ele>1635</ele>
        <time>2022-02-23T08:54:34.000Z</time>
      </trkpt>
      <trkpt lat="45.7019" lon="6.27066">
        <ele>1635</ele>
        <time>2022-02-23T08:54:38.000Z</time>
      </trkpt>
      <trkpt lat="45.7019" lon="6.27066">
        <ele>1634.8000488281</ele>
        <time>2022-02-23T08:54:45.000Z</time>
      </trkpt>
      <trkpt lat="45.70189" lon="6.27066">
        <ele>1634.8000488281</ele>
        <time>2022-02-23T08:54:48.000Z</time>
      </trkpt>
      <trkpt lat="45.70187" lon="6.27065">
        <ele>1634.8000488281</ele>
        <time>2022-02-23T08:54:55.000Z</time>
      </trkpt>
      <trkpt lat="45.70185" lon="6.27064">
        <ele>1634.8000488281</ele>
        <time>2022-02-23T08:54:58.000Z</time>
      </trkpt>
      <trkpt lat="45.70183" lon="6.27061">
        <ele>1634.4000244141</ele>
        <time>2022-02-23T08:55:04.000Z</time>
      </trkpt>
      <trkpt lat="45.70182" lon="6.2706">
        <ele>1635.1999511719</ele>
        <time>2022-02-23T08:55:13.000Z</time>
      </trkpt>
      <trkpt lat="45.70181" lon="6.2706">
        <ele>1635.1999511719</ele>
        <time>2022-02-23T08:55:14.000Z</time>
      </trkpt>
      <trkpt lat="45.70179" lon="6.27061">
        <ele>1635.1999511719</ele>
        <time>2022-02-23T08:55:20.000Z</time>
      </trkpt>
      <trkpt lat="45.70176" lon="6.27062">
        <ele>1635.1999511719</ele>
        <time>2022-02-23T08:55:23.000Z</time>
      </trkpt>
      <trkpt lat="45.70175" lon="6.2706">
        <ele>1635.1999511719</ele>
        <time>2022-02-23T08:55:29.000Z</time>
      </trkpt>
      <trkpt lat="45.70175" lon="6.27059">
        <ele>1635.1999511719</ele>
        <time>2022-02-23T08:55:36.000Z</time>
      </trkpt>
      <trkpt lat="45.70175" lon="6.27055">
        <ele>1635.1999511719</ele>
        <time>2022-02-23T08:55:45.000Z</time>
      </trkpt>
      <trkpt lat="45.70175" lon="6.27055">
        <ele>1635.1999511719</ele>
        <time>2022-02-23T08:55:54.000Z</time>
      </trkpt>
      <trkpt lat="45.70177" lon="6.27054">
        <ele>1635.1999511719</ele>
        <time>2022-02-23T08:56:02.000Z</time>
      </trkpt>
      <trkpt lat="45.70177" lon="6.27054">
        <ele>1635.1999511719</ele>
        <time>2022-02-23T08:56:03.000Z</time>
      </trkpt>
      <trkpt lat="45.70176" lon="6.27054">
        <ele>1635.1999511719</ele>
        <time>2022-02-23T08:56:11.000Z</time>
      </trkpt>
      <trkpt lat="45.70176" lon="6.27054">
        <ele>1635.1999511719</ele>
        <time>2022-02-23T08:56:12.000Z</time>
      </trkpt>
      <trkpt lat="45.70176" lon="6.27054">
        <ele>1635.1999511719</ele>
        <time>2022-02-23T08:56:16.000Z</time>
      </trkpt>
      <trkpt lat="45.70176" lon="6.27054">
        <ele>1635.1999511719</ele>
        <time>2022-02-23T08:56:19.000Z</time>
      </trkpt>
      <trkpt lat="45.70177" lon="6.27053">
        <ele>1635.1999511719</ele>
        <time>2022-02-23T08:56:30.000Z</time>
      </trkpt>
      <trkpt lat="45.70177" lon="6.27053">
        <ele>1635.1999511719</ele>
        <time>2022-02-23T08:56:31.000Z</time>
      </trkpt>
      <trkpt lat="45.70177" lon="6.27054">
        <ele>1635.1999511719</ele>
        <time>2022-02-23T08:56:43.000Z</time>
      </trkpt>
      <trkpt lat="45.70178" lon="6.27053">
        <ele>1635.1999511719</ele>
        <time>2022-02-23T08:56:45.000Z</time>
      </trkpt>
      <trkpt lat="45.70178" lon="6.27053">
        <ele>1635.1999511719</ele>
        <time>2022-02-23T08:56:47.000Z</time>
      </trkpt>
      <trkpt lat="45.70178" lon="6.27053">
        <ele>1635.1999511719</ele>
        <time>2022-02-23T08:56:49.000Z</time>
      </trkpt>
      <trkpt lat="45.70178" lon="6.27055">
        <ele>1635.1999511719</ele>
        <time>2022-02-23T08:56:59.000Z</time>
      </trkpt>
      <trkpt lat="45.70178" lon="6.27055">
        <ele>1635.1999511719</ele>
        <time>2022-02-23T08:57:01.000Z</time>
      </trkpt>
      <trkpt lat="45.70177" lon="6.27055">
        <ele>1635.1999511719</ele>
        <time>2022-02-23T08:57:03.000Z</time>
      </trkpt>
      <trkpt lat="45.70177" lon="6.27054">
        <ele>1635.1999511719</ele>
        <time>2022-02-23T08:57:06.000Z</time>
      </trkpt>
      <trkpt lat="45.70177" lon="6.27054">
        <ele>1635.1999511719</ele>
        <time>2022-02-23T08:57:14.000Z</time>
      </trkpt>
      <trkpt lat="45.70177" lon="6.27054">
        <ele>1635.1999511719</ele>
        <time>2022-02-23T08:57:29.000Z</time>
      </trkpt>
      <trkpt lat="45.70177" lon="6.27054">
        <ele>1635.1999511719</ele>
        <time>2022-02-23T08:57:34.000Z</time>
      </trkpt>
      <trkpt lat="45.70177" lon="6.27054">
        <ele>1635.1999511719</ele>
        <time>2022-02-23T08:57:36.000Z</time>
      </trkpt>
      <trkpt lat="45.70177" lon="6.27054">
        <ele>1635.1999511719</ele>
        <time>2022-02-23T08:57:38.000Z</time>
      </trkpt>
      <trkpt lat="45.70173" lon="6.27056">
        <ele>1635.1999511719</ele>
        <time>2022-02-23T08:57:48.000Z</time>
      </trkpt>
      <trkpt lat="45.7017" lon="6.27055">
        <ele>1635.1999511719</ele>
        <time>2022-02-23T08:57:56.000Z</time>
      </trkpt>
      <trkpt lat="45.70169" lon="6.27054">
        <ele>1635.1999511719</ele>
        <time>2022-02-23T08:58:00.000Z</time>
      </trkpt>
      <trkpt lat="45.70168" lon="6.27054">
        <ele>1635.1999511719</ele>
        <time>2022-02-23T08:58:02.000Z</time>
      </trkpt>
      <trkpt lat="45.70167" lon="6.27053">
        <ele>1635.1999511719</ele>
        <time>2022-02-23T08:58:04.000Z</time>
      </trkpt>
      <trkpt lat="45.70165" lon="6.27052">
        <ele>1635.1999511719</ele>
        <time>2022-02-23T08:58:06.000Z</time>
      </trkpt>
      <trkpt lat="45.70164" lon="6.27051">
        <ele>1635.1999511719</ele>
        <time>2022-02-23T08:58:07.000Z</time>
      </trkpt>
      <trkpt lat="45.70163" lon="6.2705">
        <ele>1635.1999511719</ele>
        <time>2022-02-23T08:58:09.000Z</time>
      </trkpt>
      <trkpt lat="45.70163" lon="6.2705">
        <ele>1635.1999511719</ele>
        <time>2022-02-23T08:58:10.000Z</time>
      </trkpt>
      <trkpt lat="45.70161" lon="6.27048">
        <ele>1635.4000244141</ele>
        <time>2022-02-23T08:58:13.000Z</time>
      </trkpt>
      <trkpt lat="45.7016" lon="6.27047">
        <ele>1635.5999755859</ele>
        <time>2022-02-23T08:58:14.000Z</time>
      </trkpt>
      <trkpt lat="45.70159" lon="6.27046">
        <ele>1635.5999755859</ele>
        <time>2022-02-23T08:58:16.000Z</time>
      </trkpt>
      <trkpt lat="45.70158" lon="6.27042">
        <ele>1636</ele>
        <time>2022-02-23T08:58:21.000Z</time>
      </trkpt>
      <trkpt lat="45.70157" lon="6.2704">
        <ele>1636</ele>
        <time>2022-02-23T08:58:23.000Z</time>
      </trkpt>
      <trkpt lat="45.70157" lon="6.27039">
        <ele>1636</ele>
        <time>2022-02-23T08:58:25.000Z</time>
      </trkpt>
      <trkpt lat="45.70156" lon="6.27036">
        <ele>1636.4000244141</ele>
        <time>2022-02-23T08:58:29.000Z</time>
      </trkpt>
      <trkpt lat="45.70155" lon="6.27035">
        <ele>1636.5999755859</ele>
        <time>2022-02-23T08:58:30.000Z</time>
      </trkpt>
      <trkpt lat="45.70153" lon="6.27035">
        <ele>1637.8000488281</ele>
        <time>2022-02-23T08:58:34.000Z</time>
      </trkpt>
      <trkpt lat="45.70152" lon="6.27034">
        <ele>1638.4000244141</ele>
        <time>2022-02-23T08:58:36.000Z</time>
      </trkpt>
      <trkpt lat="45.70149" lon="6.27033">
        <ele>1639</ele>
        <time>2022-02-23T08:58:39.000Z</time>
      </trkpt>
      <trkpt lat="45.70146" lon="6.27032">
        <ele>1639.8000488281</ele>
        <time>2022-02-23T08:58:43.000Z</time>
      </trkpt>
      <trkpt lat="45.70143" lon="6.2703">
        <ele>1640.1999511719</ele>
        <time>2022-02-23T08:58:47.000Z</time>
      </trkpt>
      <trkpt lat="45.70142" lon="6.27029">
        <ele>1640.5999755859</ele>
        <time>2022-02-23T08:58:49.000Z</time>
      </trkpt>
      <trkpt lat="45.70142" lon="6.27028">
        <ele>1641.1999511719</ele>
        <time>2022-02-23T08:58:51.000Z</time>
      </trkpt>
      <trkpt lat="45.70143" lon="6.27027">
        <ele>1642.1999511719</ele>
        <time>2022-02-23T08:58:56.000Z</time>
      </trkpt>
      <trkpt lat="45.70144" lon="6.27031">
        <ele>1643.4000244141</ele>
        <time>2022-02-23T08:59:00.000Z</time>
      </trkpt>
      <trkpt lat="45.70143" lon="6.27032">
        <ele>1643.5999755859</ele>
        <time>2022-02-23T08:59:01.000Z</time>
      </trkpt>
      <trkpt lat="45.70144" lon="6.27032">
        <ele>1643.5999755859</ele>
        <time>2022-02-23T08:59:02.000Z</time>
      </trkpt>
      <trkpt lat="45.70144" lon="6.27034">
        <ele>1644</ele>
        <time>2022-02-23T08:59:04.000Z</time>
      </trkpt>
      <trkpt lat="45.70145" lon="6.27034">
        <ele>1644.1999511719</ele>
        <time>2022-02-23T08:59:05.000Z</time>
      </trkpt>
      <trkpt lat="45.70145" lon="6.27035">
        <ele>1644.5999755859</ele>
        <time>2022-02-23T08:59:06.000Z</time>
      </trkpt>
      <trkpt lat="45.70146" lon="6.27037">
        <ele>1644.8000488281</ele>
        <time>2022-02-23T08:59:08.000Z</time>
      </trkpt>
      <trkpt lat="45.70147" lon="6.27039">
        <ele>1645.1999511719</ele>
        <time>2022-02-23T08:59:11.000Z</time>
      </trkpt>
      <trkpt lat="45.70148" lon="6.2704">
        <ele>1645.4000244141</ele>
        <time>2022-02-23T08:59:13.000Z</time>
      </trkpt>
      <trkpt lat="45.70148" lon="6.27041">
        <ele>1645.8000488281</ele>
        <time>2022-02-23T08:59:14.000Z</time>
      </trkpt>
      <trkpt lat="45.70151" lon="6.27043">
        <ele>1646.8000488281</ele>
        <time>2022-02-23T08:59:19.000Z</time>
      </trkpt>
      <trkpt lat="45.70153" lon="6.27047">
        <ele>1647.1999511719</ele>
        <time>2022-02-23T08:59:23.000Z</time>
      </trkpt>
      <trkpt lat="45.70153" lon="6.27048">
        <ele>1647.8000488281</ele>
        <time>2022-02-23T08:59:25.000Z</time>
      </trkpt>
      <trkpt lat="45.70153" lon="6.27049">
        <ele>1648.1999511719</ele>
        <time>2022-02-23T08:59:26.000Z</time>
      </trkpt>
      <trkpt lat="45.70154" lon="6.27051">
        <ele>1649</ele>
        <time>2022-02-23T08:59:29.000Z</time>
      </trkpt>
      <trkpt lat="45.70154" lon="6.27051">
        <ele>1649.1999511719</ele>
        <time>2022-02-23T08:59:30.000Z</time>
      </trkpt>
      <trkpt lat="45.70154" lon="6.27052">
        <ele>1649.4000244141</ele>
        <time>2022-02-23T08:59:32.000Z</time>
      </trkpt>
      <trkpt lat="45.70154" lon="6.27053">
        <ele>1649.5999755859</ele>
        <time>2022-02-23T08:59:33.000Z</time>
      </trkpt>
      <trkpt lat="45.70155" lon="6.27056">
        <ele>1650.1999511719</ele>
        <time>2022-02-23T08:59:36.000Z</time>
      </trkpt>
      <trkpt lat="45.70152" lon="6.27059">
        <ele>1650.8000488281</ele>
        <time>2022-02-23T08:59:39.000Z</time>
      </trkpt>
      <trkpt lat="45.70149" lon="6.27059">
        <ele>1651.4000244141</ele>
        <time>2022-02-23T08:59:43.000Z</time>
      </trkpt>
      <trkpt lat="45.70148" lon="6.27058">
        <ele>1651.5999755859</ele>
        <time>2022-02-23T08:59:44.000Z</time>
      </trkpt>
      <trkpt lat="45.70144" lon="6.27058">
        <ele>1652</ele>
        <time>2022-02-23T08:59:49.000Z</time>
      </trkpt>
      <trkpt lat="45.7014" lon="6.27059">
        <ele>1652.8000488281</ele>
        <time>2022-02-23T08:59:55.000Z</time>
      </trkpt>
      <trkpt lat="45.70139" lon="6.27059">
        <ele>1653</ele>
        <time>2022-02-23T08:59:56.000Z</time>
      </trkpt>
      <trkpt lat="45.70138" lon="6.2706">
        <ele>1653.8000488281</ele>
        <time>2022-02-23T08:59:58.000Z</time>
      </trkpt>
      <trkpt lat="45.70137" lon="6.2706">
        <ele>1654</ele>
        <time>2022-02-23T09:00:02.000Z</time>
      </trkpt>
      <trkpt lat="45.70136" lon="6.27059">
        <ele>1654.8000488281</ele>
        <time>2022-02-23T09:00:06.000Z</time>
      </trkpt>
      <trkpt lat="45.70135" lon="6.27059">
        <ele>1655</ele>
        <time>2022-02-23T09:00:07.000Z</time>
      </trkpt>
      <trkpt lat="45.70131" lon="6.27053">
        <ele>1655.8000488281</ele>
        <time>2022-02-23T09:00:13.000Z</time>
      </trkpt>
      <trkpt lat="45.7013" lon="6.27049">
        <ele>1655.8000488281</ele>
        <time>2022-02-23T09:00:16.000Z</time>
      </trkpt>
      <trkpt lat="45.70129" lon="6.27048">
        <ele>1655.8000488281</ele>
        <time>2022-02-23T09:00:17.000Z</time>
      </trkpt>
      <trkpt lat="45.70128" lon="6.27047">
        <ele>1655.8000488281</ele>
        <time>2022-02-23T09:00:19.000Z</time>
      </trkpt>
      <trkpt lat="45.70127" lon="6.27044">
        <ele>1656.1999511719</ele>
        <time>2022-02-23T09:00:26.000Z</time>
      </trkpt>
      <trkpt lat="45.70126" lon="6.27043">
        <ele>1656.4000244141</ele>
        <time>2022-02-23T09:00:29.000Z</time>
      </trkpt>
      <trkpt lat="45.70124" lon="6.27042">
        <ele>1656.4000244141</ele>
        <time>2022-02-23T09:00:32.000Z</time>
      </trkpt>
      <trkpt lat="45.70124" lon="6.27041">
        <ele>1656.1999511719</ele>
        <time>2022-02-23T09:00:33.000Z</time>
      </trkpt>
      <trkpt lat="45.7012" lon="6.27039">
        <ele>1656.4000244141</ele>
        <time>2022-02-23T09:00:37.000Z</time>
      </trkpt>
      <trkpt lat="45.70119" lon="6.27038">
        <ele>1656.4000244141</ele>
        <time>2022-02-23T09:00:38.000Z</time>
      </trkpt>
      <trkpt lat="45.70118" lon="6.27037">
        <ele>1657</ele>
        <time>2022-02-23T09:00:40.000Z</time>
      </trkpt>
      <trkpt lat="45.70117" lon="6.27037">
        <ele>1657.4000244141</ele>
        <time>2022-02-23T09:00:41.000Z</time>
      </trkpt>
      <trkpt lat="45.70116" lon="6.27035">
        <ele>1658</ele>
        <time>2022-02-23T09:00:43.000Z</time>
      </trkpt>
      <trkpt lat="45.70115" lon="6.27033">
        <ele>1658.1999511719</ele>
        <time>2022-02-23T09:00:46.000Z</time>
      </trkpt>
      <trkpt lat="45.70114" lon="6.27031">
        <ele>1658.5999755859</ele>
        <time>2022-02-23T09:00:48.000Z</time>
      </trkpt>
      <trkpt lat="45.70113" lon="6.2703">
        <ele>1659.1999511719</ele>
        <time>2022-02-23T09:00:51.000Z</time>
      </trkpt>
      <trkpt lat="45.70112" lon="6.27027">
        <ele>1659.5999755859</ele>
        <time>2022-02-23T09:00:53.000Z</time>
      </trkpt>
      <trkpt lat="45.70111" lon="6.27026">
        <ele>1660.1999511719</ele>
        <time>2022-02-23T09:00:55.000Z</time>
      </trkpt>
      <trkpt lat="45.70108" lon="6.27023">
        <ele>1661.1999511719</ele>
        <time>2022-02-23T09:01:00.000Z</time>
      </trkpt>
      <trkpt lat="45.70107" lon="6.27023">
        <ele>1661.4000244141</ele>
        <time>2022-02-23T09:01:01.000Z</time>
      </trkpt>
      <trkpt lat="45.70105" lon="6.27022">
        <ele>1662.1999511719</ele>
        <time>2022-02-23T09:01:06.000Z</time>
      </trkpt>
      <trkpt lat="45.70104" lon="6.27022">
        <ele>1662.4000244141</ele>
        <time>2022-02-23T09:01:07.000Z</time>
      </trkpt>
      <trkpt lat="45.70104" lon="6.27022">
        <ele>1663.4000244141</ele>
        <time>2022-02-23T09:01:12.000Z</time>
      </trkpt>
      <trkpt lat="45.70104" lon="6.27022">
        <ele>1663.5999755859</ele>
        <time>2022-02-23T09:01:13.000Z</time>
      </trkpt>
      <trkpt lat="45.70104" lon="6.27024">
        <ele>1664.1999511719</ele>
        <time>2022-02-23T09:01:16.000Z</time>
      </trkpt>
      <trkpt lat="45.70105" lon="6.27025">
        <ele>1664.5999755859</ele>
        <time>2022-02-23T09:01:18.000Z</time>
      </trkpt>
      <trkpt lat="45.70105" lon="6.27026">
        <ele>1664.8000488281</ele>
        <time>2022-02-23T09:01:19.000Z</time>
      </trkpt>
      <trkpt lat="45.70104" lon="6.27028">
        <ele>1665</ele>
        <time>2022-02-23T09:01:21.000Z</time>
      </trkpt>
      <trkpt lat="45.70103" lon="6.2703">
        <ele>1665.1999511719</ele>
        <time>2022-02-23T09:01:23.000Z</time>
      </trkpt>
      <trkpt lat="45.70102" lon="6.27031">
        <ele>1665.1999511719</ele>
        <time>2022-02-23T09:01:24.000Z</time>
      </trkpt>
      <trkpt lat="45.70102" lon="6.27032">
        <ele>1665.4000244141</ele>
        <time>2022-02-23T09:01:25.000Z</time>
      </trkpt>
      <trkpt lat="45.70102" lon="6.27032">
        <ele>1665.5999755859</ele>
        <time>2022-02-23T09:01:26.000Z</time>
      </trkpt>
      <trkpt lat="45.70102" lon="6.27034">
        <ele>1666.1999511719</ele>
        <time>2022-02-23T09:01:28.000Z</time>
      </trkpt>
      <trkpt lat="45.70102" lon="6.27035">
        <ele>1666.5999755859</ele>
        <time>2022-02-23T09:01:30.000Z</time>
      </trkpt>
      <trkpt lat="45.70103" lon="6.27038">
        <ele>1667</ele>
        <time>2022-02-23T09:01:33.000Z</time>
      </trkpt>
      <trkpt lat="45.70103" lon="6.27039">
        <ele>1667.1999511719</ele>
        <time>2022-02-23T09:01:34.000Z</time>
      </trkpt>
      <trkpt lat="45.70103" lon="6.27042">
        <ele>1667.5999755859</ele>
        <time>2022-02-23T09:01:37.000Z</time>
      </trkpt>
      <trkpt lat="45.70103" lon="6.27049">
        <ele>1668.1999511719</ele>
        <time>2022-02-23T09:01:42.000Z</time>
      </trkpt>
      <trkpt lat="45.70102" lon="6.2705">
        <ele>1668.4000244141</ele>
        <time>2022-02-23T09:01:43.000Z</time>
      </trkpt>
      <trkpt lat="45.70102" lon="6.27051">
        <ele>1668.4000244141</ele>
        <time>2022-02-23T09:01:45.000Z</time>
      </trkpt>
      <trkpt lat="45.70102" lon="6.27052">
        <ele>1668.4000244141</ele>
        <time>2022-02-23T09:01:46.000Z</time>
      </trkpt>
      <trkpt lat="45.70102" lon="6.27054">
        <ele>1668.8000488281</ele>
        <time>2022-02-23T09:01:48.000Z</time>
      </trkpt>
      <trkpt lat="45.70101" lon="6.27058">
        <ele>1669.4000244141</ele>
        <time>2022-02-23T09:01:53.000Z</time>
      </trkpt>
      <trkpt lat="45.70102" lon="6.27063">
        <ele>1670.4000244141</ele>
        <time>2022-02-23T09:01:58.000Z</time>
      </trkpt>
      <trkpt lat="45.70102" lon="6.27064">
        <ele>1670.5999755859</ele>
        <time>2022-02-23T09:01:59.000Z</time>
      </trkpt>
      <trkpt lat="45.70103" lon="6.27065">
        <ele>1670.8000488281</ele>
        <time>2022-02-23T09:02:00.000Z</time>
      </trkpt>
      <trkpt lat="45.70103" lon="6.27067">
        <ele>1671</ele>
        <time>2022-02-23T09:02:02.000Z</time>
      </trkpt>
      <trkpt lat="45.70103" lon="6.27069">
        <ele>1671.5999755859</ele>
        <time>2022-02-23T09:02:04.000Z</time>
      </trkpt>
      <trkpt lat="45.70104" lon="6.27071">
        <ele>1672</ele>
        <time>2022-02-23T09:02:06.000Z</time>
      </trkpt>
      <trkpt lat="45.70104" lon="6.27073">
        <ele>1672.1999511719</ele>
        <time>2022-02-23T09:02:08.000Z</time>
      </trkpt>
      <trkpt lat="45.70104" lon="6.27076">
        <ele>1672.5999755859</ele>
        <time>2022-02-23T09:02:12.000Z</time>
      </trkpt>
      <trkpt lat="45.70106" lon="6.27078">
        <ele>1673</ele>
        <time>2022-02-23T09:02:14.000Z</time>
      </trkpt>
      <trkpt lat="45.70104" lon="6.27082">
        <ele>1673.5999755859</ele>
        <time>2022-02-23T09:02:19.000Z</time>
      </trkpt>
      <trkpt lat="45.70104" lon="6.27085">
        <ele>1674</ele>
        <time>2022-02-23T09:02:21.000Z</time>
      </trkpt>
      <trkpt lat="45.70105" lon="6.2709">
        <ele>1674.8000488281</ele>
        <time>2022-02-23T09:02:25.000Z</time>
      </trkpt>
      <trkpt lat="45.70105" lon="6.27095">
        <ele>1675.1999511719</ele>
        <time>2022-02-23T09:02:28.000Z</time>
      </trkpt>
      <trkpt lat="45.70105" lon="6.27096">
        <ele>1675.4000244141</ele>
        <time>2022-02-23T09:02:29.000Z</time>
      </trkpt>
      <trkpt lat="45.70105" lon="6.271">
        <ele>1675.4000244141</ele>
        <time>2022-02-23T09:02:32.000Z</time>
      </trkpt>
      <trkpt lat="45.70106" lon="6.27101">
        <ele>1675.4000244141</ele>
        <time>2022-02-23T09:02:33.000Z</time>
      </trkpt>
      <trkpt lat="45.70106" lon="6.27103">
        <ele>1675.5999755859</ele>
        <time>2022-02-23T09:02:35.000Z</time>
      </trkpt>
      <trkpt lat="45.70106" lon="6.27106">
        <ele>1675.8000488281</ele>
        <time>2022-02-23T09:02:38.000Z</time>
      </trkpt>
      <trkpt lat="45.70106" lon="6.27108">
        <ele>1676.1999511719</ele>
        <time>2022-02-23T09:02:39.000Z</time>
      </trkpt>
      <trkpt lat="45.70106" lon="6.27112">
        <ele>1677</ele>
        <time>2022-02-23T09:02:43.000Z</time>
      </trkpt>
      <trkpt lat="45.70106" lon="6.27116">
        <ele>1677.1999511719</ele>
        <time>2022-02-23T09:02:47.000Z</time>
      </trkpt>
      <trkpt lat="45.70106" lon="6.27117">
        <ele>1677.4000244141</ele>
        <time>2022-02-23T09:02:48.000Z</time>
      </trkpt>
      <trkpt lat="45.70106" lon="6.27121">
        <ele>1678</ele>
        <time>2022-02-23T09:02:52.000Z</time>
      </trkpt>
      <trkpt lat="45.70107" lon="6.27122">
        <ele>1678</ele>
        <time>2022-02-23T09:02:53.000Z</time>
      </trkpt>
      <trkpt lat="45.70107" lon="6.27127">
        <ele>1679</ele>
        <time>2022-02-23T09:02:57.000Z</time>
      </trkpt>
      <trkpt lat="45.70107" lon="6.27128">
        <ele>1679.1999511719</ele>
        <time>2022-02-23T09:02:58.000Z</time>
      </trkpt>
      <trkpt lat="45.70105" lon="6.27131">
        <ele>1680.1999511719</ele>
        <time>2022-02-23T09:03:03.000Z</time>
      </trkpt>
      <trkpt lat="45.70103" lon="6.27131">
        <ele>1680.5999755859</ele>
        <time>2022-02-23T09:03:05.000Z</time>
      </trkpt>
      <trkpt lat="45.70102" lon="6.27132">
        <ele>1680.8000488281</ele>
        <time>2022-02-23T09:03:07.000Z</time>
      </trkpt>
      <trkpt lat="45.70102" lon="6.27133">
        <ele>1680.8000488281</ele>
        <time>2022-02-23T09:03:08.000Z</time>
      </trkpt>
      <trkpt lat="45.70099" lon="6.27134">
        <ele>1681.4000244141</ele>
        <time>2022-02-23T09:03:12.000Z</time>
      </trkpt>
      <trkpt lat="45.70099" lon="6.27135">
        <ele>1681.5999755859</ele>
        <time>2022-02-23T09:03:13.000Z</time>
      </trkpt>
      <trkpt lat="45.70097" lon="6.27137">
        <ele>1682</ele>
        <time>2022-02-23T09:03:16.000Z</time>
      </trkpt>
      <trkpt lat="45.70096" lon="6.27138">
        <ele>1682.5999755859</ele>
        <time>2022-02-23T09:03:17.000Z</time>
      </trkpt>
      <trkpt lat="45.70094" lon="6.27139">
        <ele>1683.5999755859</ele>
        <time>2022-02-23T09:03:21.000Z</time>
      </trkpt>
      <trkpt lat="45.70093" lon="6.27138">
        <ele>1684.1999511719</ele>
        <time>2022-02-23T09:03:24.000Z</time>
      </trkpt>
      <trkpt lat="45.70093" lon="6.27137">
        <ele>1684.4000244141</ele>
        <time>2022-02-23T09:03:26.000Z</time>
      </trkpt>
      <trkpt lat="45.70092" lon="6.27135">
        <ele>1684.4000244141</ele>
        <time>2022-02-23T09:03:28.000Z</time>
      </trkpt>
      <trkpt lat="45.70092" lon="6.27134">
        <ele>1684.8000488281</ele>
        <time>2022-02-23T09:03:29.000Z</time>
      </trkpt>
      <trkpt lat="45.70091" lon="6.27132">
        <ele>1685.8000488281</ele>
        <time>2022-02-23T09:03:32.000Z</time>
      </trkpt>
      <trkpt lat="45.70091" lon="6.27131">
        <ele>1685.8000488281</ele>
        <time>2022-02-23T09:03:33.000Z</time>
      </trkpt>
      <trkpt lat="45.70089" lon="6.2713">
        <ele>1686.8000488281</ele>
        <time>2022-02-23T09:03:38.000Z</time>
      </trkpt>
      <trkpt lat="45.70088" lon="6.2713">
        <ele>1687</ele>
        <time>2022-02-23T09:03:39.000Z</time>
      </trkpt>
      <trkpt lat="45.70087" lon="6.27128">
        <ele>1688.1999511719</ele>
        <time>2022-02-23T09:03:43.000Z</time>
      </trkpt>
      <trkpt lat="45.70085" lon="6.27125">
        <ele>1689</ele>
        <time>2022-02-23T09:03:48.000Z</time>
      </trkpt>
      <trkpt lat="45.70085" lon="6.27123">
        <ele>1689</ele>
        <time>2022-02-23T09:03:50.000Z</time>
      </trkpt>
      <trkpt lat="45.70085" lon="6.27122">
        <ele>1689.1999511719</ele>
        <time>2022-02-23T09:03:51.000Z</time>
      </trkpt>
      <trkpt lat="45.70085" lon="6.2712">
        <ele>1689.4000244141</ele>
        <time>2022-02-23T09:03:53.000Z</time>
      </trkpt>
      <trkpt lat="45.70085" lon="6.27119">
        <ele>1689.8000488281</ele>
        <time>2022-02-23T09:03:55.000Z</time>
      </trkpt>
      <trkpt lat="45.70085" lon="6.27117">
        <ele>1690.4000244141</ele>
        <time>2022-02-23T09:03:57.000Z</time>
      </trkpt>
      <trkpt lat="45.70086" lon="6.27117">
        <ele>1690.5999755859</ele>
        <time>2022-02-23T09:03:58.000Z</time>
      </trkpt>
      <trkpt lat="45.70085" lon="6.27114">
        <ele>1691</ele>
        <time>2022-02-23T09:04:01.000Z</time>
      </trkpt>
      <trkpt lat="45.70083" lon="6.27113">
        <ele>1691.5999755859</ele>
        <time>2022-02-23T09:04:03.000Z</time>
      </trkpt>
      <trkpt lat="45.70083" lon="6.27112">
        <ele>1691.8000488281</ele>
        <time>2022-02-23T09:04:04.000Z</time>
      </trkpt>
      <trkpt lat="45.70081" lon="6.2711">
        <ele>1692.5999755859</ele>
        <time>2022-02-23T09:04:08.000Z</time>
      </trkpt>
      <trkpt lat="45.70081" lon="6.2711">
        <ele>1692.8000488281</ele>
        <time>2022-02-23T09:04:09.000Z</time>
      </trkpt>
      <trkpt lat="45.70079" lon="6.27107">
        <ele>1693.8000488281</ele>
        <time>2022-02-23T09:04:15.000Z</time>
      </trkpt>
      <trkpt lat="45.70079" lon="6.27107">
        <ele>1694.1999511719</ele>
        <time>2022-02-23T09:04:17.000Z</time>
      </trkpt>
      <trkpt lat="45.70078" lon="6.27106">
        <ele>1694.4000244141</ele>
        <time>2022-02-23T09:04:18.000Z</time>
      </trkpt>
      <trkpt lat="45.70077" lon="6.27105">
        <ele>1695</ele>
        <time>2022-02-23T09:04:21.000Z</time>
      </trkpt>
      <trkpt lat="45.70075" lon="6.27103">
        <ele>1696</ele>
        <time>2022-02-23T09:04:26.000Z</time>
      </trkpt>
      <trkpt lat="45.70073" lon="6.27099">
        <ele>1696.5999755859</ele>
        <time>2022-02-23T09:04:33.000Z</time>
      </trkpt>
      <trkpt lat="45.70073" lon="6.27098">
        <ele>1697.1999511719</ele>
        <time>2022-02-23T09:04:38.000Z</time>
      </trkpt>
      <trkpt lat="45.70073" lon="6.27098">
        <ele>1697.8000488281</ele>
        <time>2022-02-23T09:04:43.000Z</time>
      </trkpt>
      <trkpt lat="45.70072" lon="6.27099">
        <ele>1698.1999511719</ele>
        <time>2022-02-23T09:04:45.000Z</time>
      </trkpt>
      <trkpt lat="45.70072" lon="6.271">
        <ele>1698.4000244141</ele>
        <time>2022-02-23T09:04:47.000Z</time>
      </trkpt>
      <trkpt lat="45.70071" lon="6.27101">
        <ele>1699.5999755859</ele>
        <time>2022-02-23T09:04:49.000Z</time>
      </trkpt>
      <trkpt lat="45.70071" lon="6.27102">
        <ele>1700.1999511719</ele>
        <time>2022-02-23T09:04:52.000Z</time>
      </trkpt>
      <trkpt lat="45.7007" lon="6.27104">
        <ele>1700.5999755859</ele>
        <time>2022-02-23T09:04:55.000Z</time>
      </trkpt>
      <trkpt lat="45.7007" lon="6.27104">
        <ele>1700.8000488281</ele>
        <time>2022-02-23T09:04:57.000Z</time>
      </trkpt>
      <trkpt lat="45.70069" lon="6.27102">
        <ele>1701</ele>
        <time>2022-02-23T09:05:02.000Z</time>
      </trkpt>
      <trkpt lat="45.70068" lon="6.27102">
        <ele>1701.5999755859</ele>
        <time>2022-02-23T09:05:04.000Z</time>
      </trkpt>
      <trkpt lat="45.70065" lon="6.271">
        <ele>1702.1999511719</ele>
        <time>2022-02-23T09:05:08.000Z</time>
      </trkpt>
      <trkpt lat="45.70065" lon="6.271">
        <ele>1702.8000488281</ele>
        <time>2022-02-23T09:05:11.000Z</time>
      </trkpt>
      <trkpt lat="45.70063" lon="6.27101">
        <ele>1703.5999755859</ele>
        <time>2022-02-23T09:05:14.000Z</time>
      </trkpt>
      <trkpt lat="45.70062" lon="6.27101">
        <ele>1704</ele>
        <time>2022-02-23T09:05:15.000Z</time>
      </trkpt>
      <trkpt lat="45.7006" lon="6.27102">
        <ele>1705</ele>
        <time>2022-02-23T09:05:19.000Z</time>
      </trkpt>
      <trkpt lat="45.7006" lon="6.27102">
        <ele>1705.1999511719</ele>
        <time>2022-02-23T09:05:20.000Z</time>
      </trkpt>
      <trkpt lat="45.70058" lon="6.27104">
        <ele>1706.1999511719</ele>
        <time>2022-02-23T09:05:26.000Z</time>
      </trkpt>
      <trkpt lat="45.70055" lon="6.27105">
        <ele>1707.1999511719</ele>
        <time>2022-02-23T09:05:34.000Z</time>
      </trkpt>
      <trkpt lat="45.70051" lon="6.27102">
        <ele>1708.1999511719</ele>
        <time>2022-02-23T09:05:41.000Z</time>
      </trkpt>
      <trkpt lat="45.70051" lon="6.27102">
        <ele>1708.1999511719</ele>
        <time>2022-02-23T09:05:42.000Z</time>
      </trkpt>
      <trkpt lat="45.70047" lon="6.27101">
        <ele>1709.1999511719</ele>
        <time>2022-02-23T09:05:47.000Z</time>
      </trkpt>
      <trkpt lat="45.70047" lon="6.27101">
        <ele>1709.4000244141</ele>
        <time>2022-02-23T09:05:48.000Z</time>
      </trkpt>
      <trkpt lat="45.70044" lon="6.27101">
        <ele>1710.5999755859</ele>
        <time>2022-02-23T09:05:53.000Z</time>
      </trkpt>
      <trkpt lat="45.70044" lon="6.271">
        <ele>1710.5999755859</ele>
        <time>2022-02-23T09:05:54.000Z</time>
      </trkpt>
      <trkpt lat="45.7004" lon="6.27096">
        <ele>1711.1999511719</ele>
        <time>2022-02-23T09:06:00.000Z</time>
      </trkpt>
      <trkpt lat="45.70039" lon="6.27095">
        <ele>1711.8000488281</ele>
        <time>2022-02-23T09:06:04.000Z</time>
      </trkpt>
      <trkpt lat="45.70037" lon="6.27093">
        <ele>1712</ele>
        <time>2022-02-23T09:06:08.000Z</time>
      </trkpt>
      <trkpt lat="45.70032" lon="6.2709">
        <ele>1712.8000488281</ele>
        <time>2022-02-23T09:06:14.000Z</time>
      </trkpt>
      <trkpt lat="45.70031" lon="6.27089">
        <ele>1713</ele>
        <time>2022-02-23T09:06:15.000Z</time>
      </trkpt>
      <trkpt lat="45.7003" lon="6.27086">
        <ele>1713.5999755859</ele>
        <time>2022-02-23T09:06:21.000Z</time>
      </trkpt>
      <trkpt lat="45.70028" lon="6.27085">
        <ele>1714.1999511719</ele>
        <time>2022-02-23T09:06:23.000Z</time>
      </trkpt>
      <trkpt lat="45.70027" lon="6.27085">
        <ele>1715</ele>
        <time>2022-02-23T09:06:26.000Z</time>
      </trkpt>
      <trkpt lat="45.70025" lon="6.27083">
        <ele>1715.4000244141</ele>
        <time>2022-02-23T09:06:29.000Z</time>
      </trkpt>
      <trkpt lat="45.70024" lon="6.27082">
        <ele>1715.4000244141</ele>
        <time>2022-02-23T09:06:31.000Z</time>
      </trkpt>
      <trkpt lat="45.70023" lon="6.27081">
        <ele>1715.5999755859</ele>
        <time>2022-02-23T09:06:32.000Z</time>
      </trkpt>
      <trkpt lat="45.70022" lon="6.27079">
        <ele>1716.1999511719</ele>
        <time>2022-02-23T09:06:35.000Z</time>
      </trkpt>
      <trkpt lat="45.70022" lon="6.27078">
        <ele>1716.4000244141</ele>
        <time>2022-02-23T09:06:36.000Z</time>
      </trkpt>
      <trkpt lat="45.70021" lon="6.27078">
        <ele>1717</ele>
        <time>2022-02-23T09:06:38.000Z</time>
      </trkpt>
      <trkpt lat="45.7002" lon="6.27077">
        <ele>1717.4000244141</ele>
        <time>2022-02-23T09:06:41.000Z</time>
      </trkpt>
      <trkpt lat="45.7002" lon="6.27076">
        <ele>1717.5999755859</ele>
        <time>2022-02-23T09:06:42.000Z</time>
      </trkpt>
      <trkpt lat="45.70019" lon="6.27076">
        <ele>1718.4000244141</ele>
        <time>2022-02-23T09:06:48.000Z</time>
      </trkpt>
      <trkpt lat="45.70019" lon="6.27076">
        <ele>1718.5999755859</ele>
        <time>2022-02-23T09:06:49.000Z</time>
      </trkpt>
      <trkpt lat="45.70019" lon="6.27077">
        <ele>1719.1999511719</ele>
        <time>2022-02-23T09:06:51.000Z</time>
      </trkpt>
      <trkpt lat="45.70019" lon="6.27077">
        <ele>1719.5999755859</ele>
        <time>2022-02-23T09:06:52.000Z</time>
      </trkpt>
      <trkpt lat="45.70019" lon="6.27078">
        <ele>1720</ele>
        <time>2022-02-23T09:06:54.000Z</time>
      </trkpt>
      <trkpt lat="45.70018" lon="6.2708">
        <ele>1720.4000244141</ele>
        <time>2022-02-23T09:06:58.000Z</time>
      </trkpt>
      <trkpt lat="45.70018" lon="6.27081">
        <ele>1720.8000488281</ele>
        <time>2022-02-23T09:07:00.000Z</time>
      </trkpt>
      <trkpt lat="45.70018" lon="6.27082">
        <ele>1721.1999511719</ele>
        <time>2022-02-23T09:07:02.000Z</time>
      </trkpt>
      <trkpt lat="45.70019" lon="6.27084">
        <ele>1721.5999755859</ele>
        <time>2022-02-23T09:07:06.000Z</time>
      </trkpt>
      <trkpt lat="45.70019" lon="6.27085">
        <ele>1722</ele>
        <time>2022-02-23T09:07:07.000Z</time>
      </trkpt>
      <trkpt lat="45.70019" lon="6.27087">
        <ele>1722.8000488281</ele>
        <time>2022-02-23T09:07:12.000Z</time>
      </trkpt>
      <trkpt lat="45.70018" lon="6.27087">
        <ele>1723</ele>
        <time>2022-02-23T09:07:18.000Z</time>
      </trkpt>
      <trkpt lat="45.70017" lon="6.27087">
        <ele>1723</ele>
        <time>2022-02-23T09:07:19.000Z</time>
      </trkpt>
      <trkpt lat="45.70013" lon="6.27084">
        <ele>1723.8000488281</ele>
        <time>2022-02-23T09:07:24.000Z</time>
      </trkpt>
      <trkpt lat="45.70011" lon="6.27081">
        <ele>1724.1999511719</ele>
        <time>2022-02-23T09:07:27.000Z</time>
      </trkpt>
      <trkpt lat="45.7001" lon="6.27079">
        <ele>1724.5999755859</ele>
        <time>2022-02-23T09:07:31.000Z</time>
      </trkpt>
      <trkpt lat="45.70008" lon="6.27076">
        <ele>1725.1999511719</ele>
        <time>2022-02-23T09:07:35.000Z</time>
      </trkpt>
      <trkpt lat="45.70008" lon="6.27076">
        <ele>1725.1999511719</ele>
        <time>2022-02-23T09:07:36.000Z</time>
      </trkpt>
      <trkpt lat="45.70006" lon="6.27075">
        <ele>1726.1999511719</ele>
        <time>2022-02-23T09:07:41.000Z</time>
      </trkpt>
      <trkpt lat="45.70003" lon="6.27075">
        <ele>1727</ele>
        <time>2022-02-23T09:07:47.000Z</time>
      </trkpt>
      <trkpt lat="45.70002" lon="6.27075">
        <ele>1727.4000244141</ele>
        <time>2022-02-23T09:07:49.000Z</time>
      </trkpt>
      <trkpt lat="45.69998" lon="6.27076">
        <ele>1728.4000244141</ele>
        <time>2022-02-23T09:07:55.000Z</time>
      </trkpt>
      <trkpt lat="45.69994" lon="6.27076">
        <ele>1729.5999755859</ele>
        <time>2022-02-23T09:08:01.000Z</time>
      </trkpt>
      <trkpt lat="45.69994" lon="6.27076">
        <ele>1729.5999755859</ele>
        <time>2022-02-23T09:08:02.000Z</time>
      </trkpt>
      <trkpt lat="45.69992" lon="6.27075">
        <ele>1730.1999511719</ele>
        <time>2022-02-23T09:08:05.000Z</time>
      </trkpt>
      <trkpt lat="45.69992" lon="6.27074">
        <ele>1730.5999755859</ele>
        <time>2022-02-23T09:08:07.000Z</time>
      </trkpt>
      <trkpt lat="45.69992" lon="6.27074">
        <ele>1730.8000488281</ele>
        <time>2022-02-23T09:08:08.000Z</time>
      </trkpt>
      <trkpt lat="45.69992" lon="6.27075">
        <ele>1731.5999755859</ele>
        <time>2022-02-23T09:08:13.000Z</time>
      </trkpt>
      <trkpt lat="45.69989" lon="6.27078">
        <ele>1732.5999755859</ele>
        <time>2022-02-23T09:08:18.000Z</time>
      </trkpt>
      <trkpt lat="45.6999" lon="6.27078">
        <ele>1732.8000488281</ele>
        <time>2022-02-23T09:08:20.000Z</time>
      </trkpt>
      <trkpt lat="45.69992" lon="6.27079">
        <ele>1732.8000488281</ele>
        <time>2022-02-23T09:08:22.000Z</time>
      </trkpt>
      <trkpt lat="45.69995" lon="6.27081">
        <ele>1733.1999511719</ele>
        <time>2022-02-23T09:08:26.000Z</time>
      </trkpt>
      <trkpt lat="45.69997" lon="6.27085">
        <ele>1733.8000488281</ele>
        <time>2022-02-23T09:08:31.000Z</time>
      </trkpt>
      <trkpt lat="45.69998" lon="6.27086">
        <ele>1733.8000488281</ele>
        <time>2022-02-23T09:08:32.000Z</time>
      </trkpt>
      <trkpt lat="45.70002" lon="6.2709">
        <ele>1733.5999755859</ele>
        <time>2022-02-23T09:08:39.000Z</time>
      </trkpt>
      <trkpt lat="45.70003" lon="6.27094">
        <ele>1733.5999755859</ele>
        <time>2022-02-23T09:08:44.000Z</time>
      </trkpt>
      <trkpt lat="45.70003" lon="6.27096">
        <ele>1734</ele>
        <time>2022-02-23T09:08:47.000Z</time>
      </trkpt>
      <trkpt lat="45.70003" lon="6.27097">
        <ele>1734.4000244141</ele>
        <time>2022-02-23T09:08:48.000Z</time>
      </trkpt>
      <trkpt lat="45.70002" lon="6.27099">
        <ele>1734.8000488281</ele>
        <time>2022-02-23T09:08:50.000Z</time>
      </trkpt>
      <trkpt lat="45.70001" lon="6.27102">
        <ele>1735.4000244141</ele>
        <time>2022-02-23T09:08:53.000Z</time>
      </trkpt>
      <trkpt lat="45.7" lon="6.27103">
        <ele>1735.8000488281</ele>
        <time>2022-02-23T09:08:55.000Z</time>
      </trkpt>
      <trkpt lat="45.7" lon="6.27105">
        <ele>1736</ele>
        <time>2022-02-23T09:08:57.000Z</time>
      </trkpt>
      <trkpt lat="45.7" lon="6.27106">
        <ele>1736.8000488281</ele>
        <time>2022-02-23T09:09:01.000Z</time>
      </trkpt>
      <trkpt lat="45.69999" lon="6.27107">
        <ele>1737.1999511719</ele>
        <time>2022-02-23T09:09:03.000Z</time>
      </trkpt>
      <trkpt lat="45.69998" lon="6.27107">
        <ele>1737.4000244141</ele>
        <time>2022-02-23T09:09:04.000Z</time>
      </trkpt>
      <trkpt lat="45.69997" lon="6.27107">
        <ele>1737.8000488281</ele>
        <time>2022-02-23T09:09:08.000Z</time>
      </trkpt>
      <trkpt lat="45.69997" lon="6.27106">
        <ele>1738.1999511719</ele>
        <time>2022-02-23T09:09:12.000Z</time>
      </trkpt>
      <trkpt lat="45.69996" lon="6.27106">
        <ele>1738.5999755859</ele>
        <time>2022-02-23T09:09:13.000Z</time>
      </trkpt>
      <trkpt lat="45.69996" lon="6.27105">
        <ele>1739.1999511719</ele>
        <time>2022-02-23T09:09:15.000Z</time>
      </trkpt>
      <trkpt lat="45.69993" lon="6.27105">
        <ele>1739.8000488281</ele>
        <time>2022-02-23T09:09:19.000Z</time>
      </trkpt>
      <trkpt lat="45.69993" lon="6.27105">
        <ele>1739.8000488281</ele>
        <time>2022-02-23T09:09:21.000Z</time>
      </trkpt>
      <trkpt lat="45.69991" lon="6.27105">
        <ele>1740.4000244141</ele>
        <time>2022-02-23T09:09:24.000Z</time>
      </trkpt>
      <trkpt lat="45.69991" lon="6.27104">
        <ele>1740.8000488281</ele>
        <time>2022-02-23T09:09:25.000Z</time>
      </trkpt>
      <trkpt lat="45.69989" lon="6.27106">
        <ele>1741.8000488281</ele>
        <time>2022-02-23T09:09:29.000Z</time>
      </trkpt>
      <trkpt lat="45.69988" lon="6.27108">
        <ele>1742.4000244141</ele>
        <time>2022-02-23T09:09:31.000Z</time>
      </trkpt>
      <trkpt lat="45.69988" lon="6.27109">
        <ele>1742.8000488281</ele>
        <time>2022-02-23T09:09:33.000Z</time>
      </trkpt>
      <trkpt lat="45.69987" lon="6.27112">
        <ele>1743.8000488281</ele>
        <time>2022-02-23T09:09:38.000Z</time>
      </trkpt>
      <trkpt lat="45.69987" lon="6.27113">
        <ele>1744</ele>
        <time>2022-02-23T09:09:40.000Z</time>
      </trkpt>
      <trkpt lat="45.69985" lon="6.27114">
        <ele>1744.8000488281</ele>
        <time>2022-02-23T09:09:44.000Z</time>
      </trkpt>
      <trkpt lat="45.69984" lon="6.27114">
        <ele>1745</ele>
        <time>2022-02-23T09:09:46.000Z</time>
      </trkpt>
      <trkpt lat="45.69982" lon="6.27113">
        <ele>1745.4000244141</ele>
        <time>2022-02-23T09:09:49.000Z</time>
      </trkpt>
      <trkpt lat="45.6998" lon="6.27114">
        <ele>1746.1999511719</ele>
        <time>2022-02-23T09:09:54.000Z</time>
      </trkpt>
      <trkpt lat="45.6998" lon="6.27114">
        <ele>1746.4000244141</ele>
        <time>2022-02-23T09:09:55.000Z</time>
      </trkpt>
      <trkpt lat="45.69979" lon="6.27113">
        <ele>1747.1999511719</ele>
        <time>2022-02-23T09:10:00.000Z</time>
      </trkpt>
      <trkpt lat="45.69979" lon="6.27113">
        <ele>1747.4000244141</ele>
        <time>2022-02-23T09:10:01.000Z</time>
      </trkpt>
      <trkpt lat="45.69976" lon="6.27111">
        <ele>1748.4000244141</ele>
        <time>2022-02-23T09:10:06.000Z</time>
      </trkpt>
      <trkpt lat="45.69975" lon="6.27112">
        <ele>1749.4000244141</ele>
        <time>2022-02-23T09:10:10.000Z</time>
      </trkpt>
      <trkpt lat="45.69975" lon="6.27112">
        <ele>1749.8000488281</ele>
        <time>2022-02-23T09:10:11.000Z</time>
      </trkpt>
      <trkpt lat="45.69975" lon="6.27113">
        <ele>1750.1999511719</ele>
        <time>2022-02-23T09:10:13.000Z</time>
      </trkpt>
      <trkpt lat="45.69974" lon="6.27113">
        <ele>1750.1999511719</ele>
        <time>2022-02-23T09:10:14.000Z</time>
      </trkpt>
      <trkpt lat="45.69973" lon="6.27115">
        <ele>1750.5999755859</ele>
        <time>2022-02-23T09:10:18.000Z</time>
      </trkpt>
      <trkpt lat="45.69973" lon="6.27116">
        <ele>1750.8000488281</ele>
        <time>2022-02-23T09:10:20.000Z</time>
      </trkpt>
      <trkpt lat="45.69972" lon="6.27116">
        <ele>1751.1999511719</ele>
        <time>2022-02-23T09:10:22.000Z</time>
      </trkpt>
      <trkpt lat="45.69971" lon="6.27116">
        <ele>1751.5999755859</ele>
        <time>2022-02-23T09:10:24.000Z</time>
      </trkpt>
      <trkpt lat="45.6997" lon="6.27116">
        <ele>1752</ele>
        <time>2022-02-23T09:10:26.000Z</time>
      </trkpt>
      <trkpt lat="45.69969" lon="6.27116">
        <ele>1752.1999511719</ele>
        <time>2022-02-23T09:10:29.000Z</time>
      </trkpt>
      <trkpt lat="45.69967" lon="6.27116">
        <ele>1753</ele>
        <time>2022-02-23T09:10:34.000Z</time>
      </trkpt>
      <trkpt lat="45.69965" lon="6.27115">
        <ele>1753.4000244141</ele>
        <time>2022-02-23T09:10:37.000Z</time>
      </trkpt>
      <trkpt lat="45.69963" lon="6.27113">
        <ele>1754</ele>
        <time>2022-02-23T09:10:41.000Z</time>
      </trkpt>
      <trkpt lat="45.69962" lon="6.27113">
        <ele>1754.4000244141</ele>
        <time>2022-02-23T09:10:42.000Z</time>
      </trkpt>
      <trkpt lat="45.69961" lon="6.27112">
        <ele>1755.1999511719</ele>
        <time>2022-02-23T09:10:45.000Z</time>
      </trkpt>
      <trkpt lat="45.6996" lon="6.27111">
        <ele>1755.4000244141</ele>
        <time>2022-02-23T09:10:47.000Z</time>
      </trkpt>
      <trkpt lat="45.69959" lon="6.27112">
        <ele>1756.4000244141</ele>
        <time>2022-02-23T09:10:50.000Z</time>
      </trkpt>
      <trkpt lat="45.69958" lon="6.27113">
        <ele>1757</ele>
        <time>2022-02-23T09:10:52.000Z</time>
      </trkpt>
      <trkpt lat="45.69957" lon="6.27115">
        <ele>1757.4000244141</ele>
        <time>2022-02-23T09:10:55.000Z</time>
      </trkpt>
      <trkpt lat="45.69956" lon="6.27116">
        <ele>1757.8000488281</ele>
        <time>2022-02-23T09:10:58.000Z</time>
      </trkpt>
      <trkpt lat="45.69955" lon="6.27117">
        <ele>1758.5999755859</ele>
        <time>2022-02-23T09:11:00.000Z</time>
      </trkpt>
      <trkpt lat="45.69953" lon="6.27118">
        <ele>1758.8000488281</ele>
        <time>2022-02-23T09:11:03.000Z</time>
      </trkpt>
      <trkpt lat="45.69952" lon="6.27119">
        <ele>1759</ele>
        <time>2022-02-23T09:11:05.000Z</time>
      </trkpt>
      <trkpt lat="45.69951" lon="6.2712">
        <ele>1759.1999511719</ele>
        <time>2022-02-23T09:11:07.000Z</time>
      </trkpt>
      <trkpt lat="45.6995" lon="6.27122">
        <ele>1759.5999755859</ele>
        <time>2022-02-23T09:11:09.000Z</time>
      </trkpt>
      <trkpt lat="45.69949" lon="6.27124">
        <ele>1759.8000488281</ele>
        <time>2022-02-23T09:11:12.000Z</time>
      </trkpt>
      <trkpt lat="45.69948" lon="6.27126">
        <ele>1759.8000488281</ele>
        <time>2022-02-23T09:11:17.000Z</time>
      </trkpt>
      <trkpt lat="45.69947" lon="6.27128">
        <ele>1760.8000488281</ele>
        <time>2022-02-23T09:11:20.000Z</time>
      </trkpt>
      <trkpt lat="45.69946" lon="6.2713">
        <ele>1761</ele>
        <time>2022-02-23T09:11:22.000Z</time>
      </trkpt>
      <trkpt lat="45.69945" lon="6.27132">
        <ele>1761.4000244141</ele>
        <time>2022-02-23T09:11:26.000Z</time>
      </trkpt>
      <trkpt lat="45.69945" lon="6.27134">
        <ele>1762</ele>
        <time>2022-02-23T09:11:28.000Z</time>
      </trkpt>
      <trkpt lat="45.69944" lon="6.27136">
        <ele>1762.4000244141</ele>
        <time>2022-02-23T09:11:30.000Z</time>
      </trkpt>
      <trkpt lat="45.69942" lon="6.27138">
        <ele>1763</ele>
        <time>2022-02-23T09:11:33.000Z</time>
      </trkpt>
      <trkpt lat="45.69941" lon="6.27139">
        <ele>1763.4000244141</ele>
        <time>2022-02-23T09:11:36.000Z</time>
      </trkpt>
      <trkpt lat="45.6994" lon="6.27142">
        <ele>1763.8000488281</ele>
        <time>2022-02-23T09:11:40.000Z</time>
      </trkpt>
      <trkpt lat="45.69939" lon="6.27144">
        <ele>1764.1999511719</ele>
        <time>2022-02-23T09:11:42.000Z</time>
      </trkpt>
      <trkpt lat="45.69939" lon="6.27145">
        <ele>1764.4000244141</ele>
        <time>2022-02-23T09:11:44.000Z</time>
      </trkpt>
      <trkpt lat="45.69937" lon="6.27145">
        <ele>1765.1999511719</ele>
        <time>2022-02-23T09:11:48.000Z</time>
      </trkpt>
      <trkpt lat="45.69935" lon="6.27143">
        <ele>1765.8000488281</ele>
        <time>2022-02-23T09:11:53.000Z</time>
      </trkpt>
      <trkpt lat="45.69934" lon="6.27142">
        <ele>1766</ele>
        <time>2022-02-23T09:11:56.000Z</time>
      </trkpt>
      <trkpt lat="45.69933" lon="6.27142">
        <ele>1766.4000244141</ele>
        <time>2022-02-23T09:11:57.000Z</time>
      </trkpt>
      <trkpt lat="45.69932" lon="6.2714">
        <ele>1767</ele>
        <time>2022-02-23T09:12:01.000Z</time>
      </trkpt>
      <trkpt lat="45.69932" lon="6.27139">
        <ele>1767.1999511719</ele>
        <time>2022-02-23T09:12:02.000Z</time>
      </trkpt>
      <trkpt lat="45.69932" lon="6.27139">
        <ele>1767.4000244141</ele>
        <time>2022-02-23T09:12:03.000Z</time>
      </trkpt>
      <trkpt lat="45.69932" lon="6.27138">
        <ele>1767.5999755859</ele>
        <time>2022-02-23T09:12:04.000Z</time>
      </trkpt>
      <trkpt lat="45.69933" lon="6.27134">
        <ele>1767.8000488281</ele>
        <time>2022-02-23T09:12:08.000Z</time>
      </trkpt>
      <trkpt lat="45.69934" lon="6.2713">
        <ele>1768.4000244141</ele>
        <time>2022-02-23T09:12:14.000Z</time>
      </trkpt>
      <trkpt lat="45.69934" lon="6.27129">
        <ele>1768.5999755859</ele>
        <time>2022-02-23T09:12:15.000Z</time>
      </trkpt>
      <trkpt lat="45.69933" lon="6.27123">
        <ele>1769</ele>
        <time>2022-02-23T09:12:22.000Z</time>
      </trkpt>
      <trkpt lat="45.69932" lon="6.27118">
        <ele>1769.1999511719</ele>
        <time>2022-02-23T09:12:28.000Z</time>
      </trkpt>
      <trkpt lat="45.69932" lon="6.27113">
        <ele>1769.5999755859</ele>
        <time>2022-02-23T09:12:32.000Z</time>
      </trkpt>
      <trkpt lat="45.69933" lon="6.27111">
        <ele>1770</ele>
        <time>2022-02-23T09:12:35.000Z</time>
      </trkpt>
      <trkpt lat="45.69934" lon="6.27107">
        <ele>1770.4000244141</ele>
        <time>2022-02-23T09:12:40.000Z</time>
      </trkpt>
      <trkpt lat="45.69934" lon="6.27103">
        <ele>1770.5999755859</ele>
        <time>2022-02-23T09:12:46.000Z</time>
      </trkpt>
      <trkpt lat="45.69934" lon="6.27103">
        <ele>1770.8000488281</ele>
        <time>2022-02-23T09:12:47.000Z</time>
      </trkpt>
      <trkpt lat="45.69934" lon="6.27099">
        <ele>1771</ele>
        <time>2022-02-23T09:12:52.000Z</time>
      </trkpt>
      <trkpt lat="45.69931" lon="6.27096">
        <ele>1771.1999511719</ele>
        <time>2022-02-23T09:12:57.000Z</time>
      </trkpt>
      <trkpt lat="45.69931" lon="6.27096">
        <ele>1771.1999511719</ele>
        <time>2022-02-23T09:12:58.000Z</time>
      </trkpt>
      <trkpt lat="45.6993" lon="6.27096">
        <ele>1771.5999755859</ele>
        <time>2022-02-23T09:13:00.000Z</time>
      </trkpt>
      <trkpt lat="45.69929" lon="6.27096">
        <ele>1772</ele>
        <time>2022-02-23T09:13:01.000Z</time>
      </trkpt>
      <trkpt lat="45.69927" lon="6.27096">
        <ele>1772.8000488281</ele>
        <time>2022-02-23T09:13:05.000Z</time>
      </trkpt>
      <trkpt lat="45.69927" lon="6.27096">
        <ele>1773.1999511719</ele>
        <time>2022-02-23T09:13:06.000Z</time>
      </trkpt>
      <trkpt lat="45.69925" lon="6.27096">
        <ele>1774.5999755859</ele>
        <time>2022-02-23T09:13:11.000Z</time>
      </trkpt>
      <trkpt lat="45.69924" lon="6.27096">
        <ele>1774.8000488281</ele>
        <time>2022-02-23T09:13:12.000Z</time>
      </trkpt>
      <trkpt lat="45.69923" lon="6.27096">
        <ele>1775.5999755859</ele>
        <time>2022-02-23T09:13:15.000Z</time>
      </trkpt>
      <trkpt lat="45.69921" lon="6.27097">
        <ele>1776.8000488281</ele>
        <time>2022-02-23T09:13:19.000Z</time>
      </trkpt>
      <trkpt lat="45.69917" lon="6.27097">
        <ele>1777.1999511719</ele>
        <time>2022-02-23T09:13:25.000Z</time>
      </trkpt>
      <trkpt lat="45.69915" lon="6.27097">
        <ele>1777.8000488281</ele>
        <time>2022-02-23T09:13:30.000Z</time>
      </trkpt>
      <trkpt lat="45.69914" lon="6.27096">
        <ele>1778.5999755859</ele>
        <time>2022-02-23T09:13:33.000Z</time>
      </trkpt>
      <trkpt lat="45.69912" lon="6.27097">
        <ele>1779</ele>
        <time>2022-02-23T09:13:36.000Z</time>
      </trkpt>
      <trkpt lat="45.69909" lon="6.27097">
        <ele>1780</ele>
        <time>2022-02-23T09:13:41.000Z</time>
      </trkpt>
      <trkpt lat="45.69909" lon="6.27098">
        <ele>1780</ele>
        <time>2022-02-23T09:13:43.000Z</time>
      </trkpt>
      <trkpt lat="45.69908" lon="6.27099">
        <ele>1780.5999755859</ele>
        <time>2022-02-23T09:13:46.000Z</time>
      </trkpt>
      <trkpt lat="45.69909" lon="6.27101">
        <ele>1781.4000244141</ele>
        <time>2022-02-23T09:13:50.000Z</time>
      </trkpt>
      <trkpt lat="45.69909" lon="6.27102">
        <ele>1781.8000488281</ele>
        <time>2022-02-23T09:13:51.000Z</time>
      </trkpt>
      <trkpt lat="45.69909" lon="6.27102">
        <ele>1782.4000244141</ele>
        <time>2022-02-23T09:13:53.000Z</time>
      </trkpt>
      <trkpt lat="45.69909" lon="6.27102">
        <ele>1782.5999755859</ele>
        <time>2022-02-23T09:13:54.000Z</time>
      </trkpt>
      <trkpt lat="45.6991" lon="6.27103">
        <ele>1783</ele>
        <time>2022-02-23T09:13:56.000Z</time>
      </trkpt>
      <trkpt lat="45.69911" lon="6.27104">
        <ele>1783.1999511719</ele>
        <time>2022-02-23T09:13:58.000Z</time>
      </trkpt>
      <trkpt lat="45.69911" lon="6.27105">
        <ele>1783.1999511719</ele>
        <time>2022-02-23T09:14:00.000Z</time>
      </trkpt>
      <trkpt lat="45.69913" lon="6.27107">
        <ele>1783.4000244141</ele>
        <time>2022-02-23T09:14:05.000Z</time>
      </trkpt>
      <trkpt lat="45.69914" lon="6.27108">
        <ele>1783.5999755859</ele>
        <time>2022-02-23T09:14:07.000Z</time>
      </trkpt>
      <trkpt lat="45.69914" lon="6.27109">
        <ele>1783.8000488281</ele>
        <time>2022-02-23T09:14:08.000Z</time>
      </trkpt>
      <trkpt lat="45.69912" lon="6.27112">
        <ele>1783.8000488281</ele>
        <time>2022-02-23T09:14:13.000Z</time>
      </trkpt>
      <trkpt lat="45.69909" lon="6.27116">
        <ele>1783.5999755859</ele>
        <time>2022-02-23T09:14:18.000Z</time>
      </trkpt>
      <trkpt lat="45.69908" lon="6.27119">
        <ele>1784</ele>
        <time>2022-02-23T09:14:22.000Z</time>
      </trkpt>
      <trkpt lat="45.69906" lon="6.27123">
        <ele>1784.4000244141</ele>
        <time>2022-02-23T09:14:26.000Z</time>
      </trkpt>
      <trkpt lat="45.69905" lon="6.27123">
        <ele>1784.8000488281</ele>
        <time>2022-02-23T09:14:29.000Z</time>
      </trkpt>
      <trkpt lat="45.69904" lon="6.27122">
        <ele>1784.8000488281</ele>
        <time>2022-02-23T09:14:31.000Z</time>
      </trkpt>
      <trkpt lat="45.69904" lon="6.27119">
        <ele>1785.4000244141</ele>
        <time>2022-02-23T09:14:36.000Z</time>
      </trkpt>
      <trkpt lat="45.69903" lon="6.27119">
        <ele>1785.4000244141</ele>
        <time>2022-02-23T09:14:38.000Z</time>
      </trkpt>
      <trkpt lat="45.69904" lon="6.27118">
        <ele>1786</ele>
        <time>2022-02-23T09:14:42.000Z</time>
      </trkpt>
      <trkpt lat="45.69904" lon="6.27118">
        <ele>1786.1999511719</ele>
        <time>2022-02-23T09:14:44.000Z</time>
      </trkpt>
      <trkpt lat="45.69903" lon="6.27117">
        <ele>1786.5999755859</ele>
        <time>2022-02-23T09:14:48.000Z</time>
      </trkpt>
      <trkpt lat="45.69903" lon="6.27117">
        <ele>1787.1999511719</ele>
        <time>2022-02-23T09:14:50.000Z</time>
      </trkpt>
      <trkpt lat="45.69902" lon="6.27118">
        <ele>1788.1999511719</ele>
        <time>2022-02-23T09:14:53.000Z</time>
      </trkpt>
      <trkpt lat="45.69901" lon="6.27119">
        <ele>1788.8000488281</ele>
        <time>2022-02-23T09:14:55.000Z</time>
      </trkpt>
      <trkpt lat="45.699" lon="6.2712">
        <ele>1789.1999511719</ele>
        <time>2022-02-23T09:14:58.000Z</time>
      </trkpt>
      <trkpt lat="45.69898" lon="6.27121">
        <ele>1789.8000488281</ele>
        <time>2022-02-23T09:15:02.000Z</time>
      </trkpt>
      <trkpt lat="45.69896" lon="6.27124">
        <ele>1790.1999511719</ele>
        <time>2022-02-23T09:15:07.000Z</time>
      </trkpt>
      <trkpt lat="45.69895" lon="6.27127">
        <ele>1791.4000244141</ele>
        <time>2022-02-23T09:15:12.000Z</time>
      </trkpt>
      <trkpt lat="45.69894" lon="6.2713">
        <ele>1791.8000488281</ele>
        <time>2022-02-23T09:15:16.000Z</time>
      </trkpt>
      <trkpt lat="45.69894" lon="6.27131">
        <ele>1792.1999511719</ele>
        <time>2022-02-23T09:15:18.000Z</time>
      </trkpt>
      <trkpt lat="45.69893" lon="6.27131">
        <ele>1792.4000244141</ele>
        <time>2022-02-23T09:15:19.000Z</time>
      </trkpt>
      <trkpt lat="45.69893" lon="6.27131">
        <ele>1792.5999755859</ele>
        <time>2022-02-23T09:15:20.000Z</time>
      </trkpt>
      <trkpt lat="45.69893" lon="6.27131">
        <ele>1792.8000488281</ele>
        <time>2022-02-23T09:15:21.000Z</time>
      </trkpt>
      <trkpt lat="45.69892" lon="6.2713">
        <ele>1793.1999511719</ele>
        <time>2022-02-23T09:15:23.000Z</time>
      </trkpt>
      <trkpt lat="45.69892" lon="6.2713">
        <ele>1793.5999755859</ele>
        <time>2022-02-23T09:15:24.000Z</time>
      </trkpt>
      <trkpt lat="45.69891" lon="6.2713">
        <ele>1794</ele>
        <time>2022-02-23T09:15:26.000Z</time>
      </trkpt>
      <trkpt lat="45.6989" lon="6.2713">
        <ele>1794.1999511719</ele>
        <time>2022-02-23T09:15:28.000Z</time>
      </trkpt>
      <trkpt lat="45.69887" lon="6.27131">
        <ele>1794.5999755859</ele>
        <time>2022-02-23T09:15:32.000Z</time>
      </trkpt>
      <trkpt lat="45.69887" lon="6.27132">
        <ele>1795</ele>
        <time>2022-02-23T09:15:33.000Z</time>
      </trkpt>
      <trkpt lat="45.69886" lon="6.27132">
        <ele>1795</ele>
        <time>2022-02-23T09:15:35.000Z</time>
      </trkpt>
      <trkpt lat="45.69885" lon="6.27133">
        <ele>1795.1999511719</ele>
        <time>2022-02-23T09:15:37.000Z</time>
      </trkpt>
      <trkpt lat="45.69884" lon="6.27134">
        <ele>1796</ele>
        <time>2022-02-23T09:15:39.000Z</time>
      </trkpt>
      <trkpt lat="45.69884" lon="6.27134">
        <ele>1796.4000244141</ele>
        <time>2022-02-23T09:15:41.000Z</time>
      </trkpt>
      <trkpt lat="45.69882" lon="6.27135">
        <ele>1797.1999511719</ele>
        <time>2022-02-23T09:15:44.000Z</time>
      </trkpt>
      <trkpt lat="45.69882" lon="6.27135">
        <ele>1797.4000244141</ele>
        <time>2022-02-23T09:15:45.000Z</time>
      </trkpt>
      <trkpt lat="45.69881" lon="6.27134">
        <ele>1797.4000244141</ele>
        <time>2022-02-23T09:15:47.000Z</time>
      </trkpt>
      <trkpt lat="45.6988" lon="6.27133">
        <ele>1798.1999511719</ele>
        <time>2022-02-23T09:15:49.000Z</time>
      </trkpt>
      <trkpt lat="45.6988" lon="6.27132">
        <ele>1798.1999511719</ele>
        <time>2022-02-23T09:15:51.000Z</time>
      </trkpt>
      <trkpt lat="45.69879" lon="6.2713">
        <ele>1798.5999755859</ele>
        <time>2022-02-23T09:15:53.000Z</time>
      </trkpt>
      <trkpt lat="45.69878" lon="6.27127">
        <ele>1799.1999511719</ele>
        <time>2022-02-23T09:15:57.000Z</time>
      </trkpt>
      <trkpt lat="45.69876" lon="6.27122">
        <ele>1800.1999511719</ele>
        <time>2022-02-23T09:16:04.000Z</time>
      </trkpt>
      <trkpt lat="45.69875" lon="6.2712">
        <ele>1800.4000244141</ele>
        <time>2022-02-23T09:16:06.000Z</time>
      </trkpt>
      <trkpt lat="45.69874" lon="6.27119">
        <ele>1800.5999755859</ele>
        <time>2022-02-23T09:16:07.000Z</time>
      </trkpt>
      <trkpt lat="45.69874" lon="6.27119">
        <ele>1800.8000488281</ele>
        <time>2022-02-23T09:16:08.000Z</time>
      </trkpt>
      <trkpt lat="45.69873" lon="6.27118">
        <ele>1801.1999511719</ele>
        <time>2022-02-23T09:16:10.000Z</time>
      </trkpt>
      <trkpt lat="45.69873" lon="6.27117">
        <ele>1801.4000244141</ele>
        <time>2022-02-23T09:16:11.000Z</time>
      </trkpt>
      <trkpt lat="45.69872" lon="6.27116">
        <ele>1801.5999755859</ele>
        <time>2022-02-23T09:16:12.000Z</time>
      </trkpt>
      <trkpt lat="45.69871" lon="6.27115">
        <ele>1802.1999511719</ele>
        <time>2022-02-23T09:16:16.000Z</time>
      </trkpt>
      <trkpt lat="45.6987" lon="6.27114">
        <ele>1802.4000244141</ele>
        <time>2022-02-23T09:16:17.000Z</time>
      </trkpt>
      <trkpt lat="45.6987" lon="6.27114">
        <ele>1802.5999755859</ele>
        <time>2022-02-23T09:16:18.000Z</time>
      </trkpt>
      <trkpt lat="45.69869" lon="6.27113">
        <ele>1802.5999755859</ele>
        <time>2022-02-23T09:16:19.000Z</time>
      </trkpt>
      <trkpt lat="45.69868" lon="6.27113">
        <ele>1802.5999755859</ele>
        <time>2022-02-23T09:16:20.000Z</time>
      </trkpt>
      <trkpt lat="45.69867" lon="6.27112">
        <ele>1803.1999511719</ele>
        <time>2022-02-23T09:16:22.000Z</time>
      </trkpt>
      <trkpt lat="45.69866" lon="6.27112">
        <ele>1803.5999755859</ele>
        <time>2022-02-23T09:16:24.000Z</time>
      </trkpt>
      <trkpt lat="45.69865" lon="6.27112">
        <ele>1803.5999755859</ele>
        <time>2022-02-23T09:16:25.000Z</time>
      </trkpt>
      <trkpt lat="45.69864" lon="6.27112">
        <ele>1804</ele>
        <time>2022-02-23T09:16:27.000Z</time>
      </trkpt>
      <trkpt lat="45.69864" lon="6.27112">
        <ele>1804.1999511719</ele>
        <time>2022-02-23T09:16:28.000Z</time>
      </trkpt>
      <trkpt lat="45.69863" lon="6.27113">
        <ele>1804.4000244141</ele>
        <time>2022-02-23T09:16:29.000Z</time>
      </trkpt>
      <trkpt lat="45.69861" lon="6.27113">
        <ele>1804.5999755859</ele>
        <time>2022-02-23T09:16:31.000Z</time>
      </trkpt>
      <trkpt lat="45.69859" lon="6.27114">
        <ele>1805.1999511719</ele>
        <time>2022-02-23T09:16:34.000Z</time>
      </trkpt>
      <trkpt lat="45.69857" lon="6.27115">
        <ele>1805.5999755859</ele>
        <time>2022-02-23T09:16:38.000Z</time>
      </trkpt>
      <trkpt lat="45.69856" lon="6.27116">
        <ele>1806</ele>
        <time>2022-02-23T09:16:39.000Z</time>
      </trkpt>
      <trkpt lat="45.69854" lon="6.27119">
        <ele>1806.5999755859</ele>
        <time>2022-02-23T09:16:43.000Z</time>
      </trkpt>
      <trkpt lat="45.69853" lon="6.27119">
        <ele>1806.8000488281</ele>
        <time>2022-02-23T09:16:44.000Z</time>
      </trkpt>
      <trkpt lat="45.69851" lon="6.27122">
        <ele>1807.8000488281</ele>
        <time>2022-02-23T09:16:48.000Z</time>
      </trkpt>
      <trkpt lat="45.6985" lon="6.27124">
        <ele>1808.1999511719</ele>
        <time>2022-02-23T09:16:52.000Z</time>
      </trkpt>
      <trkpt lat="45.69848" lon="6.27125">
        <ele>1808.4000244141</ele>
        <time>2022-02-23T09:16:55.000Z</time>
      </trkpt>
      <trkpt lat="45.69848" lon="6.27126">
        <ele>1808.4000244141</ele>
        <time>2022-02-23T09:16:56.000Z</time>
      </trkpt>
      <trkpt lat="45.69847" lon="6.27126">
        <ele>1808.8000488281</ele>
        <time>2022-02-23T09:16:57.000Z</time>
      </trkpt>
      <trkpt lat="45.69846" lon="6.27128">
        <ele>1810</ele>
        <time>2022-02-23T09:17:01.000Z</time>
      </trkpt>
      <trkpt lat="45.69845" lon="6.27129">
        <ele>1810.1999511719</ele>
        <time>2022-02-23T09:17:02.000Z</time>
      </trkpt>
      <trkpt lat="45.69844" lon="6.2713">
        <ele>1810.5999755859</ele>
        <time>2022-02-23T09:17:05.000Z</time>
      </trkpt>
      <trkpt lat="45.69843" lon="6.27131">
        <ele>1811.1999511719</ele>
        <time>2022-02-23T09:17:07.000Z</time>
      </trkpt>
      <trkpt lat="45.69843" lon="6.27132">
        <ele>1811.4000244141</ele>
        <time>2022-02-23T09:17:08.000Z</time>
      </trkpt>
      <trkpt lat="45.69842" lon="6.27133">
        <ele>1811.8000488281</ele>
        <time>2022-02-23T09:17:10.000Z</time>
      </trkpt>
      <trkpt lat="45.69842" lon="6.27134">
        <ele>1811.8000488281</ele>
        <time>2022-02-23T09:17:11.000Z</time>
      </trkpt>
      <trkpt lat="45.69841" lon="6.27135">
        <ele>1812.4000244141</ele>
        <time>2022-02-23T09:17:13.000Z</time>
      </trkpt>
      <trkpt lat="45.69839" lon="6.27138">
        <ele>1813</ele>
        <time>2022-02-23T09:17:17.000Z</time>
      </trkpt>
      <trkpt lat="45.69838" lon="6.2714">
        <ele>1813.4000244141</ele>
        <time>2022-02-23T09:17:20.000Z</time>
      </trkpt>
      <trkpt lat="45.69837" lon="6.27142">
        <ele>1813.8000488281</ele>
        <time>2022-02-23T09:17:22.000Z</time>
      </trkpt>
      <trkpt lat="45.69836" lon="6.27143">
        <ele>1814</ele>
        <time>2022-02-23T09:17:23.000Z</time>
      </trkpt>
      <trkpt lat="45.69834" lon="6.27148">
        <ele>1814.4000244141</ele>
        <time>2022-02-23T09:17:28.000Z</time>
      </trkpt>
      <trkpt lat="45.69832" lon="6.27151">
        <ele>1815</ele>
        <time>2022-02-23T09:17:32.000Z</time>
      </trkpt>
      <trkpt lat="45.69829" lon="6.27154">
        <ele>1815.4000244141</ele>
        <time>2022-02-23T09:17:36.000Z</time>
      </trkpt>
      <trkpt lat="45.69828" lon="6.27155">
        <ele>1815.4000244141</ele>
        <time>2022-02-23T09:17:38.000Z</time>
      </trkpt>
      <trkpt lat="45.69828" lon="6.27156">
        <ele>1815.4000244141</ele>
        <time>2022-02-23T09:17:39.000Z</time>
      </trkpt>
      <trkpt lat="45.69826" lon="6.27157">
        <ele>1816.1999511719</ele>
        <time>2022-02-23T09:17:42.000Z</time>
      </trkpt>
      <trkpt lat="45.69824" lon="6.27158">
        <ele>1816.5999755859</ele>
        <time>2022-02-23T09:17:44.000Z</time>
      </trkpt>
      <trkpt lat="45.69822" lon="6.27159">
        <ele>1816.8000488281</ele>
        <time>2022-02-23T09:17:47.000Z</time>
      </trkpt>
      <trkpt lat="45.69818" lon="6.2716">
        <ele>1817.4000244141</ele>
        <time>2022-02-23T09:17:53.000Z</time>
      </trkpt>
      <trkpt lat="45.69816" lon="6.2716">
        <ele>1817.4000244141</ele>
        <time>2022-02-23T09:17:56.000Z</time>
      </trkpt>
      <trkpt lat="45.69815" lon="6.2716">
        <ele>1817.5999755859</ele>
        <time>2022-02-23T09:17:57.000Z</time>
      </trkpt>
      <trkpt lat="45.69815" lon="6.2716">
        <ele>1817.8000488281</ele>
        <time>2022-02-23T09:17:58.000Z</time>
      </trkpt>
      <trkpt lat="45.69814" lon="6.2716">
        <ele>1817.5999755859</ele>
        <time>2022-02-23T09:18:02.000Z</time>
      </trkpt>
      <trkpt lat="45.69815" lon="6.2716">
        <ele>1817.1999511719</ele>
        <time>2022-02-23T09:18:06.000Z</time>
      </trkpt>
      <trkpt lat="45.69815" lon="6.27158">
        <ele>1817.5999755859</ele>
        <time>2022-02-23T09:18:14.000Z</time>
      </trkpt>
      <trkpt lat="45.69815" lon="6.27158">
        <ele>1817.5999755859</ele>
        <time>2022-02-23T09:18:16.000Z</time>
      </trkpt>
      <trkpt lat="45.69815" lon="6.27159">
        <ele>1817.5999755859</ele>
        <time>2022-02-23T09:18:20.000Z</time>
      </trkpt>
      <trkpt lat="45.69815" lon="6.27159">
        <ele>1817.4000244141</ele>
        <time>2022-02-23T09:18:28.000Z</time>
      </trkpt>
      <trkpt lat="45.69815" lon="6.27159">
        <ele>1817.4000244141</ele>
        <time>2022-02-23T09:18:30.000Z</time>
      </trkpt>
      <trkpt lat="45.69815" lon="6.27159">
        <ele>1817.4000244141</ele>
        <time>2022-02-23T09:18:33.000Z</time>
      </trkpt>
      <trkpt lat="45.69815" lon="6.27159">
        <ele>1817.4000244141</ele>
        <time>2022-02-23T09:18:34.000Z</time>
      </trkpt>
      <trkpt lat="45.69815" lon="6.27159">
        <ele>1817</ele>
        <time>2022-02-23T09:18:37.000Z</time>
      </trkpt>
      <trkpt lat="45.69815" lon="6.27159">
        <ele>1817</ele>
        <time>2022-02-23T09:18:38.000Z</time>
      </trkpt>
      <trkpt lat="45.69815" lon="6.27159">
        <ele>1816.8000488281</ele>
        <time>2022-02-23T09:18:40.000Z</time>
      </trkpt>
      <trkpt lat="45.69815" lon="6.2716">
        <ele>1817.1999511719</ele>
        <time>2022-02-23T09:18:48.000Z</time>
      </trkpt>
      <trkpt lat="45.69815" lon="6.2716">
        <ele>1817.1999511719</ele>
        <time>2022-02-23T09:18:49.000Z</time>
      </trkpt>
      <trkpt lat="45.69815" lon="6.2716">
        <ele>1817.1999511719</ele>
        <time>2022-02-23T09:18:57.000Z</time>
      </trkpt>
      <trkpt lat="45.69815" lon="6.2716">
        <ele>1817.1999511719</ele>
        <time>2022-02-23T09:19:00.000Z</time>
      </trkpt>
      <trkpt lat="45.69815" lon="6.2716">
        <ele>1816.8000488281</ele>
        <time>2022-02-23T09:19:04.000Z</time>
      </trkpt>
      <trkpt lat="45.69815" lon="6.2716">
        <ele>1816.5999755859</ele>
        <time>2022-02-23T09:19:05.000Z</time>
      </trkpt>
      <trkpt lat="45.69815" lon="6.2716">
        <ele>1816.5999755859</ele>
        <time>2022-02-23T09:19:07.000Z</time>
      </trkpt>
      <trkpt lat="45.69816" lon="6.2716">
        <ele>1816.4000244141</ele>
        <time>2022-02-23T09:19:16.000Z</time>
      </trkpt>
      <trkpt lat="45.69816" lon="6.27159">
        <ele>1816.5999755859</ele>
        <time>2022-02-23T09:19:21.000Z</time>
      </trkpt>
      <trkpt lat="45.69816" lon="6.27159">
        <ele>1816.4000244141</ele>
        <time>2022-02-23T09:19:25.000Z</time>
      </trkpt>
      <trkpt lat="45.69816" lon="6.27159">
        <ele>1816.1999511719</ele>
        <time>2022-02-23T09:19:26.000Z</time>
      </trkpt>
      <trkpt lat="45.69816" lon="6.27159">
        <ele>1816.5999755859</ele>
        <time>2022-02-23T09:19:34.000Z</time>
      </trkpt>
      <trkpt lat="45.69816" lon="6.27159">
        <ele>1816.8000488281</ele>
        <time>2022-02-23T09:19:36.000Z</time>
      </trkpt>
      <trkpt lat="45.69816" lon="6.27159">
        <ele>1816.4000244141</ele>
        <time>2022-02-23T09:19:43.000Z</time>
      </trkpt>
      <trkpt lat="45.69816" lon="6.27159">
        <ele>1816.1999511719</ele>
        <time>2022-02-23T09:19:48.000Z</time>
      </trkpt>
      <trkpt lat="45.69816" lon="6.27159">
        <ele>1816.4000244141</ele>
        <time>2022-02-23T09:20:01.000Z</time>
      </trkpt>
      <trkpt lat="45.69815" lon="6.2716">
        <ele>1816.4000244141</ele>
        <time>2022-02-23T09:20:07.000Z</time>
      </trkpt>
      <trkpt lat="45.69815" lon="6.2716">
        <ele>1817</ele>
        <time>2022-02-23T09:20:15.000Z</time>
      </trkpt>
      <trkpt lat="45.69815" lon="6.2716">
        <ele>1817.1999511719</ele>
        <time>2022-02-23T09:20:18.000Z</time>
      </trkpt>
      <trkpt lat="45.69815" lon="6.2716">
        <ele>1817.1999511719</ele>
        <time>2022-02-23T09:20:29.000Z</time>
      </trkpt>
      <trkpt lat="45.69814" lon="6.27159">
        <ele>1817.4000244141</ele>
        <time>2022-02-23T09:20:37.000Z</time>
      </trkpt>
      <trkpt lat="45.69814" lon="6.27159">
        <ele>1817.5999755859</ele>
        <time>2022-02-23T09:20:39.000Z</time>
      </trkpt>
      <trkpt lat="45.69815" lon="6.27159">
        <ele>1817.4000244141</ele>
        <time>2022-02-23T09:20:42.000Z</time>
      </trkpt>
      <trkpt lat="45.69815" lon="6.27159">
        <ele>1817.1999511719</ele>
        <time>2022-02-23T09:20:43.000Z</time>
      </trkpt>
      <trkpt lat="45.69815" lon="6.27159">
        <ele>1817.1999511719</ele>
        <time>2022-02-23T09:20:45.000Z</time>
      </trkpt>
      <trkpt lat="45.69815" lon="6.27159">
        <ele>1817.4000244141</ele>
        <time>2022-02-23T09:20:55.000Z</time>
      </trkpt>
      <trkpt lat="45.69815" lon="6.27159">
        <ele>1817.4000244141</ele>
        <time>2022-02-23T09:21:04.000Z</time>
      </trkpt>
      <trkpt lat="45.69815" lon="6.27159">
        <ele>1817.5999755859</ele>
        <time>2022-02-23T09:21:08.000Z</time>
      </trkpt>
      <trkpt lat="45.69815" lon="6.27159">
        <ele>1817.5999755859</ele>
        <time>2022-02-23T09:21:10.000Z</time>
      </trkpt>
      <trkpt lat="45.69815" lon="6.27159">
        <ele>1817.4000244141</ele>
        <time>2022-02-23T09:21:12.000Z</time>
      </trkpt>
      <trkpt lat="45.69815" lon="6.2716">
        <ele>1818.1999511719</ele>
        <time>2022-02-23T09:21:21.000Z</time>
      </trkpt>
      <trkpt lat="45.69814" lon="6.2716">
        <ele>1818</ele>
        <time>2022-02-23T09:21:28.000Z</time>
      </trkpt>
      <trkpt lat="45.69814" lon="6.2716">
        <ele>1817.8000488281</ele>
        <time>2022-02-23T09:21:35.000Z</time>
      </trkpt>
      <trkpt lat="45.69814" lon="6.2716">
        <ele>1818</ele>
        <time>2022-02-23T09:21:48.000Z</time>
      </trkpt>
      <trkpt lat="45.69814" lon="6.2716">
        <ele>1818</ele>
        <time>2022-02-23T09:21:49.000Z</time>
      </trkpt>
      <trkpt lat="45.69814" lon="6.2716">
        <ele>1818</ele>
        <time>2022-02-23T09:21:51.000Z</time>
      </trkpt>
      <trkpt lat="45.69813" lon="6.2716">
        <ele>1818</ele>
        <time>2022-02-23T09:22:00.000Z</time>
      </trkpt>
      <trkpt lat="45.69813" lon="6.2716">
        <ele>1818</ele>
        <time>2022-02-23T09:22:08.000Z</time>
      </trkpt>
      <trkpt lat="45.69813" lon="6.2716">
        <ele>1817.5999755859</ele>
        <time>2022-02-23T09:22:17.000Z</time>
      </trkpt>
      <trkpt lat="45.69813" lon="6.27161">
        <ele>1817.4000244141</ele>
        <time>2022-02-23T09:22:30.000Z</time>
      </trkpt>
      <trkpt lat="45.69813" lon="6.27161">
        <ele>1817.4000244141</ele>
        <time>2022-02-23T09:22:31.000Z</time>
      </trkpt>
      <trkpt lat="45.69813" lon="6.27161">
        <ele>1817.4000244141</ele>
        <time>2022-02-23T09:22:32.000Z</time>
      </trkpt>
      <trkpt lat="45.69815" lon="6.27162">
        <ele>1817.4000244141</ele>
        <time>2022-02-23T09:22:41.000Z</time>
      </trkpt>
      <trkpt lat="45.69816" lon="6.27163">
        <ele>1817.4000244141</ele>
        <time>2022-02-23T09:22:49.000Z</time>
      </trkpt>
      <trkpt lat="45.69816" lon="6.27163">
        <ele>1817.4000244141</ele>
        <time>2022-02-23T09:22:51.000Z</time>
      </trkpt>
      <trkpt lat="45.69816" lon="6.27163">
        <ele>1817.4000244141</ele>
        <time>2022-02-23T09:22:56.000Z</time>
      </trkpt>
      <trkpt lat="45.69816" lon="6.27163">
        <ele>1817.4000244141</ele>
        <time>2022-02-23T09:23:02.000Z</time>
      </trkpt>
      <trkpt lat="45.69816" lon="6.27163">
        <ele>1817.4000244141</ele>
        <time>2022-02-23T09:23:11.000Z</time>
      </trkpt>
      <trkpt lat="45.69816" lon="6.27163">
        <ele>1817.4000244141</ele>
        <time>2022-02-23T09:23:13.000Z</time>
      </trkpt>
      <trkpt lat="45.69816" lon="6.27163">
        <ele>1817.4000244141</ele>
        <time>2022-02-23T09:23:23.000Z</time>
      </trkpt>
      <trkpt lat="45.69816" lon="6.27163">
        <ele>1817.4000244141</ele>
        <time>2022-02-23T09:23:37.000Z</time>
      </trkpt>
      <trkpt lat="45.69815" lon="6.27163">
        <ele>1817.4000244141</ele>
        <time>2022-02-23T09:23:45.000Z</time>
      </trkpt>
      <trkpt lat="45.69815" lon="6.27163">
        <ele>1817.4000244141</ele>
        <time>2022-02-23T09:23:47.000Z</time>
      </trkpt>
      <trkpt lat="45.69815" lon="6.27163">
        <ele>1817.4000244141</ele>
        <time>2022-02-23T09:23:50.000Z</time>
      </trkpt>
      <trkpt lat="45.69815" lon="6.27163">
        <ele>1817.4000244141</ele>
        <time>2022-02-23T09:23:53.000Z</time>
      </trkpt>
      <trkpt lat="45.69814" lon="6.27162">
        <ele>1817.4000244141</ele>
        <time>2022-02-23T09:23:55.000Z</time>
      </trkpt>
      <trkpt lat="45.69814" lon="6.27162">
        <ele>1817.4000244141</ele>
        <time>2022-02-23T09:23:56.000Z</time>
      </trkpt>
      <trkpt lat="45.69815" lon="6.27162">
        <ele>1817.4000244141</ele>
        <time>2022-02-23T09:24:00.000Z</time>
      </trkpt>
      <trkpt lat="45.69815" lon="6.27162">
        <ele>1817.4000244141</ele>
        <time>2022-02-23T09:24:01.000Z</time>
      </trkpt>
      <trkpt lat="45.69815" lon="6.27162">
        <ele>1817.4000244141</ele>
        <time>2022-02-23T09:24:03.000Z</time>
      </trkpt>
      <trkpt lat="45.69815" lon="6.27162">
        <ele>1817.4000244141</ele>
        <time>2022-02-23T09:24:05.000Z</time>
      </trkpt>
      <trkpt lat="45.69815" lon="6.27161">
        <ele>1817.4000244141</ele>
        <time>2022-02-23T09:24:14.000Z</time>
      </trkpt>
      <trkpt lat="45.69815" lon="6.27162">
        <ele>1817.4000244141</ele>
        <time>2022-02-23T09:24:15.000Z</time>
      </trkpt>
      <trkpt lat="45.69814" lon="6.27162">
        <ele>1817.4000244141</ele>
        <time>2022-02-23T09:24:18.000Z</time>
      </trkpt>
      <trkpt lat="45.69814" lon="6.27162">
        <ele>1817.4000244141</ele>
        <time>2022-02-23T09:24:20.000Z</time>
      </trkpt>
      <trkpt lat="45.69814" lon="6.27162">
        <ele>1817.4000244141</ele>
        <time>2022-02-23T09:24:21.000Z</time>
      </trkpt>
      <trkpt lat="45.69815" lon="6.27162">
        <ele>1817.4000244141</ele>
        <time>2022-02-23T09:24:27.000Z</time>
      </trkpt>
      <trkpt lat="45.69815" lon="6.27162">
        <ele>1817.4000244141</ele>
        <time>2022-02-23T09:24:30.000Z</time>
      </trkpt>
      <trkpt lat="45.69815" lon="6.27162">
        <ele>1817.4000244141</ele>
        <time>2022-02-23T09:24:34.000Z</time>
      </trkpt>
      <trkpt lat="45.69815" lon="6.27162">
        <ele>1817.4000244141</ele>
        <time>2022-02-23T09:24:39.000Z</time>
      </trkpt>
      <trkpt lat="45.69814" lon="6.27162">
        <ele>1817.4000244141</ele>
        <time>2022-02-23T09:24:48.000Z</time>
      </trkpt>
      <trkpt lat="45.69814" lon="6.27162">
        <ele>1817.4000244141</ele>
        <time>2022-02-23T09:24:52.000Z</time>
      </trkpt>
      <trkpt lat="45.69814" lon="6.27162">
        <ele>1817.4000244141</ele>
        <time>2022-02-23T09:24:55.000Z</time>
      </trkpt>
      <trkpt lat="45.69814" lon="6.27162">
        <ele>1817.4000244141</ele>
        <time>2022-02-23T09:25:04.000Z</time>
      </trkpt>
      <trkpt lat="45.69814" lon="6.27162">
        <ele>1817.4000244141</ele>
        <time>2022-02-23T09:25:05.000Z</time>
      </trkpt>
      <trkpt lat="45.69815" lon="6.27162">
        <ele>1817.4000244141</ele>
        <time>2022-02-23T09:25:11.000Z</time>
      </trkpt>
      <trkpt lat="45.69814" lon="6.27162">
        <ele>1817.4000244141</ele>
        <time>2022-02-23T09:25:27.000Z</time>
      </trkpt>
      <trkpt lat="45.69815" lon="6.27162">
        <ele>1817.4000244141</ele>
        <time>2022-02-23T09:25:31.000Z</time>
      </trkpt>
      <trkpt lat="45.69815" lon="6.27162">
        <ele>1817.4000244141</ele>
        <time>2022-02-23T09:25:32.000Z</time>
      </trkpt>
      <trkpt lat="45.69814" lon="6.27162">
        <ele>1817.4000244141</ele>
        <time>2022-02-23T09:25:42.000Z</time>
      </trkpt>
      <trkpt lat="45.69814" lon="6.27162">
        <ele>1817.4000244141</ele>
        <time>2022-02-23T09:25:44.000Z</time>
      </trkpt>
      <trkpt lat="45.69814" lon="6.27162">
        <ele>1817.4000244141</ele>
        <time>2022-02-23T09:25:47.000Z</time>
      </trkpt>
      <trkpt lat="45.69814" lon="6.27162">
        <ele>1817.4000244141</ele>
        <time>2022-02-23T09:25:50.000Z</time>
      </trkpt>
      <trkpt lat="45.69814" lon="6.27162">
        <ele>1817.4000244141</ele>
        <time>2022-02-23T09:25:54.000Z</time>
      </trkpt>
      <trkpt lat="45.69815" lon="6.27161">
        <ele>1817.4000244141</ele>
        <time>2022-02-23T09:26:09.000Z</time>
      </trkpt>
      <trkpt lat="45.69815" lon="6.27161">
        <ele>1817.4000244141</ele>
        <time>2022-02-23T09:26:19.000Z</time>
      </trkpt>
      <trkpt lat="45.69815" lon="6.27161">
        <ele>1817.4000244141</ele>
        <time>2022-02-23T09:26:22.000Z</time>
      </trkpt>
      <trkpt lat="45.69815" lon="6.27161">
        <ele>1817.4000244141</ele>
        <time>2022-02-23T09:26:23.000Z</time>
      </trkpt>
      <trkpt lat="45.69815" lon="6.27161">
        <ele>1817.4000244141</ele>
        <time>2022-02-23T09:26:32.000Z</time>
      </trkpt>
      <trkpt lat="45.69815" lon="6.27161">
        <ele>1817.4000244141</ele>
        <time>2022-02-23T09:26:37.000Z</time>
      </trkpt>
      <trkpt lat="45.69815" lon="6.27161">
        <ele>1817.4000244141</ele>
        <time>2022-02-23T09:26:47.000Z</time>
      </trkpt>
      <trkpt lat="45.69815" lon="6.27162">
        <ele>1817.4000244141</ele>
        <time>2022-02-23T09:26:55.000Z</time>
      </trkpt>
      <trkpt lat="45.69815" lon="6.27162">
        <ele>1817.4000244141</ele>
        <time>2022-02-23T09:26:59.000Z</time>
      </trkpt>
      <trkpt lat="45.69815" lon="6.27162">
        <ele>1817.4000244141</ele>
        <time>2022-02-23T09:27:01.000Z</time>
      </trkpt>
      <trkpt lat="45.69815" lon="6.27162">
        <ele>1817.4000244141</ele>
        <time>2022-02-23T09:27:07.000Z</time>
      </trkpt>
      <trkpt lat="45.69815" lon="6.27162">
        <ele>1817.4000244141</ele>
        <time>2022-02-23T09:27:09.000Z</time>
      </trkpt>
      <trkpt lat="45.69815" lon="6.27162">
        <ele>1817.4000244141</ele>
        <time>2022-02-23T09:27:10.000Z</time>
      </trkpt>
      <trkpt lat="45.69815" lon="6.27162">
        <ele>1817.4000244141</ele>
        <time>2022-02-23T09:27:11.000Z</time>
      </trkpt>
      <trkpt lat="45.69815" lon="6.27162">
        <ele>1817.4000244141</ele>
        <time>2022-02-23T09:27:18.000Z</time>
      </trkpt>
      <trkpt lat="45.69814" lon="6.27161">
        <ele>1817.4000244141</ele>
        <time>2022-02-23T09:27:24.000Z</time>
      </trkpt>
      <trkpt lat="45.69813" lon="6.27158">
        <ele>1817.4000244141</ele>
        <time>2022-02-23T09:27:28.000Z</time>
      </trkpt>
      <trkpt lat="45.69813" lon="6.27156">
        <ele>1817.4000244141</ele>
        <time>2022-02-23T09:27:33.000Z</time>
      </trkpt>
      <trkpt lat="45.69813" lon="6.27153">
        <ele>1817.4000244141</ele>
        <time>2022-02-23T09:27:38.000Z</time>
      </trkpt>
      <trkpt lat="45.69812" lon="6.2715">
        <ele>1817.4000244141</ele>
        <time>2022-02-23T09:27:43.000Z</time>
      </trkpt>
      <trkpt lat="45.69811" lon="6.2715">
        <ele>1817.4000244141</ele>
        <time>2022-02-23T09:27:44.000Z</time>
      </trkpt>
      <trkpt lat="45.6981" lon="6.27148">
        <ele>1817.4000244141</ele>
        <time>2022-02-23T09:27:48.000Z</time>
      </trkpt>
      <trkpt lat="45.6981" lon="6.27147">
        <ele>1817.4000244141</ele>
        <time>2022-02-23T09:27:49.000Z</time>
      </trkpt>
      <trkpt lat="45.69809" lon="6.27144">
        <ele>1817.4000244141</ele>
        <time>2022-02-23T09:27:53.000Z</time>
      </trkpt>
      <trkpt lat="45.69808" lon="6.27139">
        <ele>1817.4000244141</ele>
        <time>2022-02-23T09:27:58.000Z</time>
      </trkpt>
      <trkpt lat="45.69808" lon="6.27137">
        <ele>1817.4000244141</ele>
        <time>2022-02-23T09:28:00.000Z</time>
      </trkpt>
      <trkpt lat="45.69808" lon="6.27137">
        <ele>1817.4000244141</ele>
        <time>2022-02-23T09:28:01.000Z</time>
      </trkpt>
      <trkpt lat="45.69808" lon="6.27136">
        <ele>1817.4000244141</ele>
        <time>2022-02-23T09:28:02.000Z</time>
      </trkpt>
      <trkpt lat="45.69808" lon="6.27136">
        <ele>1817.4000244141</ele>
        <time>2022-02-23T09:28:03.000Z</time>
      </trkpt>
      <trkpt lat="45.69808" lon="6.27135">
        <ele>1817.4000244141</ele>
        <time>2022-02-23T09:28:04.000Z</time>
      </trkpt>
      <trkpt lat="45.69808" lon="6.27132">
        <ele>1817.4000244141</ele>
        <time>2022-02-23T09:28:07.000Z</time>
      </trkpt>
      <trkpt lat="45.69808" lon="6.27131">
        <ele>1817.4000244141</ele>
        <time>2022-02-23T09:28:08.000Z</time>
      </trkpt>
      <trkpt lat="45.69807" lon="6.27129">
        <ele>1817.4000244141</ele>
        <time>2022-02-23T09:28:10.000Z</time>
      </trkpt>
      <trkpt lat="45.69807" lon="6.27128">
        <ele>1817.4000244141</ele>
        <time>2022-02-23T09:28:12.000Z</time>
      </trkpt>
      <trkpt lat="45.69807" lon="6.27125">
        <ele>1817.4000244141</ele>
        <time>2022-02-23T09:28:15.000Z</time>
      </trkpt>
      <trkpt lat="45.69808" lon="6.27122">
        <ele>1817.4000244141</ele>
        <time>2022-02-23T09:28:18.000Z</time>
      </trkpt>
      <trkpt lat="45.6981" lon="6.27119">
        <ele>1817.4000244141</ele>
        <time>2022-02-23T09:28:22.000Z</time>
      </trkpt>
      <trkpt lat="45.6981" lon="6.27119">
        <ele>1817.4000244141</ele>
        <time>2022-02-23T09:28:23.000Z</time>
      </trkpt>
      <trkpt lat="45.6981" lon="6.27118">
        <ele>1817.4000244141</ele>
        <time>2022-02-23T09:28:24.000Z</time>
      </trkpt>
      <trkpt lat="45.69811" lon="6.27118">
        <ele>1817.4000244141</ele>
        <time>2022-02-23T09:28:27.000Z</time>
      </trkpt>
      <trkpt lat="45.69811" lon="6.27118">
        <ele>1820</ele>
        <time>2022-02-23T09:28:28.000Z</time>
      </trkpt>
      <trkpt lat="45.69811" lon="6.27118">
        <ele>1821.1999511719</ele>
        <time>2022-02-23T09:28:29.000Z</time>
      </trkpt>
      <trkpt lat="45.69811" lon="6.27118">
        <ele>1822.1999511719</ele>
        <time>2022-02-23T09:28:31.000Z</time>
      </trkpt>
      <trkpt lat="45.69811" lon="6.27118">
        <ele>1822.4000244141</ele>
        <time>2022-02-23T09:28:32.000Z</time>
      </trkpt>
      <trkpt lat="45.6981" lon="6.27115">
        <ele>1822.4000244141</ele>
        <time>2022-02-23T09:28:42.000Z</time>
      </trkpt>
      <trkpt lat="45.6981" lon="6.27115">
        <ele>1822.8000488281</ele>
        <time>2022-02-23T09:28:48.000Z</time>
      </trkpt>
      <trkpt lat="45.6981" lon="6.27115">
        <ele>1822.8000488281</ele>
        <time>2022-02-23T09:28:51.000Z</time>
      </trkpt>
      <trkpt lat="45.6981" lon="6.27115">
        <ele>1822.8000488281</ele>
        <time>2022-02-23T09:28:56.000Z</time>
      </trkpt>
      <trkpt lat="45.6981" lon="6.27115">
        <ele>1822.8000488281</ele>
        <time>2022-02-23T09:29:00.000Z</time>
      </trkpt>
      <trkpt lat="45.6981" lon="6.27115">
        <ele>1823</ele>
        <time>2022-02-23T09:29:04.000Z</time>
      </trkpt>
      <trkpt lat="45.6981" lon="6.27115">
        <ele>1823.1999511719</ele>
        <time>2022-02-23T09:29:08.000Z</time>
      </trkpt>
      <trkpt lat="45.6981" lon="6.27115">
        <ele>1823</ele>
        <time>2022-02-23T09:29:11.000Z</time>
      </trkpt>
      <trkpt lat="45.6981" lon="6.27115">
        <ele>1823</ele>
        <time>2022-02-23T09:29:15.000Z</time>
      </trkpt>
      <trkpt lat="45.6981" lon="6.27115">
        <ele>1823</ele>
        <time>2022-02-23T09:29:20.000Z</time>
      </trkpt>
      <trkpt lat="45.6981" lon="6.27114">
        <ele>1823</ele>
        <time>2022-02-23T09:29:26.000Z</time>
      </trkpt>
      <trkpt lat="45.6981" lon="6.27114">
        <ele>1823</ele>
        <time>2022-02-23T09:29:28.000Z</time>
      </trkpt>
      <trkpt lat="45.6981" lon="6.27114">
        <ele>1823</ele>
        <time>2022-02-23T09:29:32.000Z</time>
      </trkpt>
      <trkpt lat="45.6981" lon="6.27114">
        <ele>1822.4000244141</ele>
        <time>2022-02-23T09:29:41.000Z</time>
      </trkpt>
      <trkpt lat="45.6981" lon="6.27114">
        <ele>1822.4000244141</ele>
        <time>2022-02-23T09:29:51.000Z</time>
      </trkpt>
      <trkpt lat="45.69807" lon="6.27117">
        <ele>1822.4000244141</ele>
        <time>2022-02-23T09:30:00.000Z</time>
      </trkpt>
      <trkpt lat="45.69806" lon="6.27119">
        <ele>1822.4000244141</ele>
        <time>2022-02-23T09:30:12.000Z</time>
      </trkpt>
      <trkpt lat="45.69806" lon="6.27119">
        <ele>1822.4000244141</ele>
        <time>2022-02-23T09:30:17.000Z</time>
      </trkpt>
      <trkpt lat="45.69806" lon="6.27119">
        <ele>1822.4000244141</ele>
        <time>2022-02-23T09:30:28.000Z</time>
      </trkpt>
      <trkpt lat="45.69806" lon="6.27119">
        <ele>1822.4000244141</ele>
        <time>2022-02-23T09:30:32.000Z</time>
      </trkpt>
      <trkpt lat="45.69806" lon="6.27119">
        <ele>1822.4000244141</ele>
        <time>2022-02-23T09:30:33.000Z</time>
      </trkpt>
      <trkpt lat="45.69806" lon="6.27119">
        <ele>1822.4000244141</ele>
        <time>2022-02-23T09:30:38.000Z</time>
      </trkpt>
      <trkpt lat="45.69806" lon="6.2712">
        <ele>1822.4000244141</ele>
        <time>2022-02-23T09:30:46.000Z</time>
      </trkpt>
      <trkpt lat="45.69805" lon="6.27121">
        <ele>1822.4000244141</ele>
        <time>2022-02-23T09:30:55.000Z</time>
      </trkpt>
      <trkpt lat="45.69805" lon="6.27121">
        <ele>1822.4000244141</ele>
        <time>2022-02-23T09:31:02.000Z</time>
      </trkpt>
      <trkpt lat="45.69805" lon="6.27121">
        <ele>1822.4000244141</ele>
        <time>2022-02-23T09:31:07.000Z</time>
      </trkpt>
      <trkpt lat="45.69805" lon="6.27121">
        <ele>1822.4000244141</ele>
        <time>2022-02-23T09:31:17.000Z</time>
      </trkpt>
      <trkpt lat="45.69805" lon="6.27122">
        <ele>1822.4000244141</ele>
        <time>2022-02-23T09:31:31.000Z</time>
      </trkpt>
      <trkpt lat="45.69805" lon="6.27122">
        <ele>1822.4000244141</ele>
        <time>2022-02-23T09:31:46.000Z</time>
      </trkpt>
      <trkpt lat="45.69805" lon="6.27122">
        <ele>1822.4000244141</ele>
        <time>2022-02-23T09:32:00.000Z</time>
      </trkpt>
      <trkpt lat="45.69805" lon="6.27122">
        <ele>1822.4000244141</ele>
        <time>2022-02-23T09:32:19.000Z</time>
      </trkpt>
      <trkpt lat="45.69805" lon="6.27122">
        <ele>1822.4000244141</ele>
        <time>2022-02-23T09:32:21.000Z</time>
      </trkpt>
      <trkpt lat="45.69804" lon="6.27121">
        <ele>1822.4000244141</ele>
        <time>2022-02-23T09:32:24.000Z</time>
      </trkpt>
      <trkpt lat="45.69804" lon="6.27121">
        <ele>1822.4000244141</ele>
        <time>2022-02-23T09:32:25.000Z</time>
      </trkpt>
      <trkpt lat="45.69804" lon="6.27121">
        <ele>1822.4000244141</ele>
        <time>2022-02-23T09:32:28.000Z</time>
      </trkpt>
      <trkpt lat="45.69804" lon="6.27121">
        <ele>1822.4000244141</ele>
        <time>2022-02-23T09:32:30.000Z</time>
      </trkpt>
      <trkpt lat="45.69804" lon="6.27121">
        <ele>1822.4000244141</ele>
        <time>2022-02-23T09:32:32.000Z</time>
      </trkpt>
      <trkpt lat="45.69803" lon="6.2712">
        <ele>1822.4000244141</ele>
        <time>2022-02-23T09:32:34.000Z</time>
      </trkpt>
      <trkpt lat="45.69802" lon="6.27119">
        <ele>1822.4000244141</ele>
        <time>2022-02-23T09:32:36.000Z</time>
      </trkpt>
      <trkpt lat="45.69802" lon="6.27108">
        <ele>1822.4000244141</ele>
        <time>2022-02-23T09:32:41.000Z</time>
      </trkpt>
      <trkpt lat="45.698" lon="6.27102">
        <ele>1821.4000244141</ele>
        <time>2022-02-23T09:32:43.000Z</time>
      </trkpt>
      <trkpt lat="45.69801" lon="6.27102">
        <ele>1820.4000244141</ele>
        <time>2022-02-23T09:32:44.000Z</time>
      </trkpt>
      <trkpt lat="45.698" lon="6.27101">
        <ele>1819.4000244141</ele>
        <time>2022-02-23T09:32:47.000Z</time>
      </trkpt>
      <trkpt lat="45.698" lon="6.271">
        <ele>1819.4000244141</ele>
        <time>2022-02-23T09:32:48.000Z</time>
      </trkpt>
      <trkpt lat="45.698" lon="6.27099">
        <ele>1819.4000244141</ele>
        <time>2022-02-23T09:32:50.000Z</time>
      </trkpt>
      <trkpt lat="45.698" lon="6.27099">
        <ele>1820.1999511719</ele>
        <time>2022-02-23T09:32:54.000Z</time>
      </trkpt>
      <trkpt lat="45.69799" lon="6.27098">
        <ele>1820.4000244141</ele>
        <time>2022-02-23T09:32:56.000Z</time>
      </trkpt>
      <trkpt lat="45.69799" lon="6.27097">
        <ele>1820.5999755859</ele>
        <time>2022-02-23T09:32:59.000Z</time>
      </trkpt>
      <trkpt lat="45.69798" lon="6.27095">
        <ele>1821.4000244141</ele>
        <time>2022-02-23T09:33:03.000Z</time>
      </trkpt>
      <trkpt lat="45.69797" lon="6.27094">
        <ele>1821.5999755859</ele>
        <time>2022-02-23T09:33:04.000Z</time>
      </trkpt>
      <trkpt lat="45.69796" lon="6.27091">
        <ele>1821.8000488281</ele>
        <time>2022-02-23T09:33:08.000Z</time>
      </trkpt>
      <trkpt lat="45.69795" lon="6.2709">
        <ele>1821.8000488281</ele>
        <time>2022-02-23T09:33:10.000Z</time>
      </trkpt>
      <trkpt lat="45.69795" lon="6.27089">
        <ele>1822</ele>
        <time>2022-02-23T09:33:11.000Z</time>
      </trkpt>
      <trkpt lat="45.69795" lon="6.27088">
        <ele>1822.4000244141</ele>
        <time>2022-02-23T09:33:12.000Z</time>
      </trkpt>
      <trkpt lat="45.69795" lon="6.27087">
        <ele>1822.5999755859</ele>
        <time>2022-02-23T09:33:13.000Z</time>
      </trkpt>
      <trkpt lat="45.69793" lon="6.27084">
        <ele>1823</ele>
        <time>2022-02-23T09:33:17.000Z</time>
      </trkpt>
      <trkpt lat="45.69793" lon="6.27082">
        <ele>1823.1999511719</ele>
        <time>2022-02-23T09:33:19.000Z</time>
      </trkpt>
      <trkpt lat="45.69793" lon="6.27081">
        <ele>1823.1999511719</ele>
        <time>2022-02-23T09:33:20.000Z</time>
      </trkpt>
      <trkpt lat="45.69792" lon="6.27079">
        <ele>1823.4000244141</ele>
        <time>2022-02-23T09:33:23.000Z</time>
      </trkpt>
      <trkpt lat="45.69792" lon="6.27078">
        <ele>1823.5999755859</ele>
        <time>2022-02-23T09:33:24.000Z</time>
      </trkpt>
      <trkpt lat="45.69792" lon="6.27075">
        <ele>1824.4000244141</ele>
        <time>2022-02-23T09:33:27.000Z</time>
      </trkpt>
      <trkpt lat="45.69792" lon="6.27074">
        <ele>1824.8000488281</ele>
        <time>2022-02-23T09:33:28.000Z</time>
      </trkpt>
      <trkpt lat="45.69792" lon="6.27073">
        <ele>1824.8000488281</ele>
        <time>2022-02-23T09:33:29.000Z</time>
      </trkpt>
      <trkpt lat="45.69791" lon="6.27071">
        <ele>1825.1999511719</ele>
        <time>2022-02-23T09:33:31.000Z</time>
      </trkpt>
      <trkpt lat="45.69791" lon="6.27069">
        <ele>1825.4000244141</ele>
        <time>2022-02-23T09:33:33.000Z</time>
      </trkpt>
      <trkpt lat="45.69789" lon="6.27066">
        <ele>1825.8000488281</ele>
        <time>2022-02-23T09:33:36.000Z</time>
      </trkpt>
      <trkpt lat="45.69788" lon="6.27065">
        <ele>1826</ele>
        <time>2022-02-23T09:33:37.000Z</time>
      </trkpt>
      <trkpt lat="45.69787" lon="6.27062">
        <ele>1826.4000244141</ele>
        <time>2022-02-23T09:33:40.000Z</time>
      </trkpt>
      <trkpt lat="45.69785" lon="6.27059">
        <ele>1826.8000488281</ele>
        <time>2022-02-23T09:33:44.000Z</time>
      </trkpt>
      <trkpt lat="45.69783" lon="6.27055">
        <ele>1827.5999755859</ele>
        <time>2022-02-23T09:33:49.000Z</time>
      </trkpt>
      <trkpt lat="45.69782" lon="6.27053">
        <ele>1827.8000488281</ele>
        <time>2022-02-23T09:33:51.000Z</time>
      </trkpt>
      <trkpt lat="45.69781" lon="6.27052">
        <ele>1828</ele>
        <time>2022-02-23T09:33:53.000Z</time>
      </trkpt>
      <trkpt lat="45.69781" lon="6.27051">
        <ele>1828</ele>
        <time>2022-02-23T09:33:54.000Z</time>
      </trkpt>
      <trkpt lat="45.6978" lon="6.2705">
        <ele>1828.4000244141</ele>
        <time>2022-02-23T09:33:55.000Z</time>
      </trkpt>
      <trkpt lat="45.6978" lon="6.2705">
        <ele>1828.8000488281</ele>
        <time>2022-02-23T09:33:56.000Z</time>
      </trkpt>
      <trkpt lat="45.6978" lon="6.27049">
        <ele>1829</ele>
        <time>2022-02-23T09:33:57.000Z</time>
      </trkpt>
      <trkpt lat="45.69778" lon="6.27045">
        <ele>1829.1999511719</ele>
        <time>2022-02-23T09:34:01.000Z</time>
      </trkpt>
      <trkpt lat="45.69778" lon="6.27044">
        <ele>1829.1999511719</ele>
        <time>2022-02-23T09:34:02.000Z</time>
      </trkpt>
      <trkpt lat="45.69778" lon="6.2704">
        <ele>1829.4000244141</ele>
        <time>2022-02-23T09:34:06.000Z</time>
      </trkpt>
      <trkpt lat="45.69777" lon="6.2704">
        <ele>1830</ele>
        <time>2022-02-23T09:34:07.000Z</time>
      </trkpt>
      <trkpt lat="45.69777" lon="6.27039">
        <ele>1830.4000244141</ele>
        <time>2022-02-23T09:34:08.000Z</time>
      </trkpt>
      <trkpt lat="45.69776" lon="6.27038">
        <ele>1830.8000488281</ele>
        <time>2022-02-23T09:34:10.000Z</time>
      </trkpt>
      <trkpt lat="45.69776" lon="6.27037">
        <ele>1831</ele>
        <time>2022-02-23T09:34:11.000Z</time>
      </trkpt>
      <trkpt lat="45.69775" lon="6.27035">
        <ele>1831.4000244141</ele>
        <time>2022-02-23T09:34:15.000Z</time>
      </trkpt>
      <trkpt lat="45.69774" lon="6.27033">
        <ele>1831.5999755859</ele>
        <time>2022-02-23T09:34:17.000Z</time>
      </trkpt>
      <trkpt lat="45.69774" lon="6.27031">
        <ele>1832.1999511719</ele>
        <time>2022-02-23T09:34:19.000Z</time>
      </trkpt>
      <trkpt lat="45.69772" lon="6.27027">
        <ele>1833.1999511719</ele>
        <time>2022-02-23T09:34:24.000Z</time>
      </trkpt>
      <trkpt lat="45.69772" lon="6.27026">
        <ele>1833.4000244141</ele>
        <time>2022-02-23T09:34:25.000Z</time>
      </trkpt>
      <trkpt lat="45.6977" lon="6.27025">
        <ele>1834.1999511719</ele>
        <time>2022-02-23T09:34:29.000Z</time>
      </trkpt>
      <trkpt lat="45.6977" lon="6.27025">
        <ele>1834.4000244141</ele>
        <time>2022-02-23T09:34:30.000Z</time>
      </trkpt>
      <trkpt lat="45.69767" lon="6.27022">
        <ele>1834.8000488281</ele>
        <time>2022-02-23T09:34:34.000Z</time>
      </trkpt>
      <trkpt lat="45.69766" lon="6.27022">
        <ele>1835.4000244141</ele>
        <time>2022-02-23T09:34:36.000Z</time>
      </trkpt>
      <trkpt lat="45.69762" lon="6.2702">
        <ele>1836.1999511719</ele>
        <time>2022-02-23T09:34:41.000Z</time>
      </trkpt>
      <trkpt lat="45.69759" lon="6.27018">
        <ele>1836.5999755859</ele>
        <time>2022-02-23T09:34:45.000Z</time>
      </trkpt>
      <trkpt lat="45.69756" lon="6.27017">
        <ele>1836.8000488281</ele>
        <time>2022-02-23T09:34:48.000Z</time>
      </trkpt>
      <trkpt lat="45.69751" lon="6.27016">
        <ele>1837.8000488281</ele>
        <time>2022-02-23T09:34:55.000Z</time>
      </trkpt>
      <trkpt lat="45.6975" lon="6.27017">
        <ele>1838</ele>
        <time>2022-02-23T09:34:56.000Z</time>
      </trkpt>
      <trkpt lat="45.69749" lon="6.27017">
        <ele>1838.4000244141</ele>
        <time>2022-02-23T09:34:58.000Z</time>
      </trkpt>
      <trkpt lat="45.69749" lon="6.27018">
        <ele>1838.8000488281</ele>
        <time>2022-02-23T09:35:00.000Z</time>
      </trkpt>
      <trkpt lat="45.69749" lon="6.27018">
        <ele>1839</ele>
        <time>2022-02-23T09:35:01.000Z</time>
      </trkpt>
      <trkpt lat="45.69747" lon="6.27019">
        <ele>1840</ele>
        <time>2022-02-23T09:35:04.000Z</time>
      </trkpt>
      <trkpt lat="45.69745" lon="6.27019">
        <ele>1840.4000244141</ele>
        <time>2022-02-23T09:35:06.000Z</time>
      </trkpt>
      <trkpt lat="45.69744" lon="6.27021">
        <ele>1841.1999511719</ele>
        <time>2022-02-23T09:35:10.000Z</time>
      </trkpt>
      <trkpt lat="45.69742" lon="6.27021">
        <ele>1841.5999755859</ele>
        <time>2022-02-23T09:35:14.000Z</time>
      </trkpt>
      <trkpt lat="45.6974" lon="6.2702">
        <ele>1842.1999511719</ele>
        <time>2022-02-23T09:35:16.000Z</time>
      </trkpt>
      <trkpt lat="45.69737" lon="6.2702">
        <ele>1842.5999755859</ele>
        <time>2022-02-23T09:35:19.000Z</time>
      </trkpt>
      <trkpt lat="45.69736" lon="6.27019">
        <ele>1842.5999755859</ele>
        <time>2022-02-23T09:35:20.000Z</time>
      </trkpt>
      <trkpt lat="45.69734" lon="6.27019">
        <ele>1843.5999755859</ele>
        <time>2022-02-23T09:35:23.000Z</time>
      </trkpt>
      <trkpt lat="45.69733" lon="6.27018">
        <ele>1843.5999755859</ele>
        <time>2022-02-23T09:35:24.000Z</time>
      </trkpt>
      <trkpt lat="45.69731" lon="6.27015">
        <ele>1844.1999511719</ele>
        <time>2022-02-23T09:35:27.000Z</time>
      </trkpt>
      <trkpt lat="45.6973" lon="6.27013">
        <ele>1844.5999755859</ele>
        <time>2022-02-23T09:35:30.000Z</time>
      </trkpt>
      <trkpt lat="45.6973" lon="6.27012">
        <ele>1844.8000488281</ele>
        <time>2022-02-23T09:35:31.000Z</time>
      </trkpt>
      <trkpt lat="45.69729" lon="6.27011">
        <ele>1845</ele>
        <time>2022-02-23T09:35:32.000Z</time>
      </trkpt>
      <trkpt lat="45.69727" lon="6.27006">
        <ele>1845</ele>
        <time>2022-02-23T09:35:36.000Z</time>
      </trkpt>
      <trkpt lat="45.69726" lon="6.27004">
        <ele>1845</ele>
        <time>2022-02-23T09:35:38.000Z</time>
      </trkpt>
      <trkpt lat="45.69725" lon="6.27002">
        <ele>1845</ele>
        <time>2022-02-23T09:35:40.000Z</time>
      </trkpt>
      <trkpt lat="45.69723" lon="6.26998">
        <ele>1845.5999755859</ele>
        <time>2022-02-23T09:35:44.000Z</time>
      </trkpt>
      <trkpt lat="45.69723" lon="6.26998">
        <ele>1846</ele>
        <time>2022-02-23T09:35:45.000Z</time>
      </trkpt>
      <trkpt lat="45.69721" lon="6.26994">
        <ele>1846.8000488281</ele>
        <time>2022-02-23T09:35:50.000Z</time>
      </trkpt>
      <trkpt lat="45.6972" lon="6.26992">
        <ele>1847.4000244141</ele>
        <time>2022-02-23T09:35:53.000Z</time>
      </trkpt>
      <trkpt lat="45.6972" lon="6.2699">
        <ele>1847.8000488281</ele>
        <time>2022-02-23T09:35:55.000Z</time>
      </trkpt>
      <trkpt lat="45.6972" lon="6.2699">
        <ele>1848</ele>
        <time>2022-02-23T09:35:56.000Z</time>
      </trkpt>
      <trkpt lat="45.69719" lon="6.26988">
        <ele>1848.1999511719</ele>
        <time>2022-02-23T09:35:58.000Z</time>
      </trkpt>
      <trkpt lat="45.69719" lon="6.26986">
        <ele>1848.5999755859</ele>
        <time>2022-02-23T09:36:00.000Z</time>
      </trkpt>
      <trkpt lat="45.69718" lon="6.26984">
        <ele>1849.1999511719</ele>
        <time>2022-02-23T09:36:02.000Z</time>
      </trkpt>
      <trkpt lat="45.69716" lon="6.26979">
        <ele>1849.5999755859</ele>
        <time>2022-02-23T09:36:07.000Z</time>
      </trkpt>
      <trkpt lat="45.69716" lon="6.26978">
        <ele>1849.8000488281</ele>
        <time>2022-02-23T09:36:09.000Z</time>
      </trkpt>
      <trkpt lat="45.69716" lon="6.26977">
        <ele>1850</ele>
        <time>2022-02-23T09:36:10.000Z</time>
      </trkpt>
      <trkpt lat="45.69716" lon="6.26975">
        <ele>1850.5999755859</ele>
        <time>2022-02-23T09:36:13.000Z</time>
      </trkpt>
      <trkpt lat="45.69716" lon="6.26973">
        <ele>1851</ele>
        <time>2022-02-23T09:36:15.000Z</time>
      </trkpt>
      <trkpt lat="45.69716" lon="6.26972">
        <ele>1851</ele>
        <time>2022-02-23T09:36:16.000Z</time>
      </trkpt>
      <trkpt lat="45.69716" lon="6.26971">
        <ele>1851.1999511719</ele>
        <time>2022-02-23T09:36:17.000Z</time>
      </trkpt>
      <trkpt lat="45.69715" lon="6.2697">
        <ele>1851.1999511719</ele>
        <time>2022-02-23T09:36:18.000Z</time>
      </trkpt>
      <trkpt lat="45.69715" lon="6.26967">
        <ele>1851.5999755859</ele>
        <time>2022-02-23T09:36:21.000Z</time>
      </trkpt>
      <trkpt lat="45.69715" lon="6.26966">
        <ele>1851.5999755859</ele>
        <time>2022-02-23T09:36:22.000Z</time>
      </trkpt>
      <trkpt lat="45.69715" lon="6.26964">
        <ele>1852.1999511719</ele>
        <time>2022-02-23T09:36:24.000Z</time>
      </trkpt>
      <trkpt lat="45.69715" lon="6.26963">
        <ele>1852.8000488281</ele>
        <time>2022-02-23T09:36:26.000Z</time>
      </trkpt>
      <trkpt lat="45.69715" lon="6.26962">
        <ele>1853</ele>
        <time>2022-02-23T09:36:27.000Z</time>
      </trkpt>
      <trkpt lat="45.69715" lon="6.26961">
        <ele>1853.4000244141</ele>
        <time>2022-02-23T09:36:29.000Z</time>
      </trkpt>
      <trkpt lat="45.69715" lon="6.2696">
        <ele>1853.5999755859</ele>
        <time>2022-02-23T09:36:30.000Z</time>
      </trkpt>
      <trkpt lat="45.69715" lon="6.26959">
        <ele>1853.5999755859</ele>
        <time>2022-02-23T09:36:31.000Z</time>
      </trkpt>
      <trkpt lat="45.69715" lon="6.26957">
        <ele>1854</ele>
        <time>2022-02-23T09:36:33.000Z</time>
      </trkpt>
      <trkpt lat="45.69715" lon="6.26956">
        <ele>1854.4000244141</ele>
        <time>2022-02-23T09:36:35.000Z</time>
      </trkpt>
      <trkpt lat="45.69716" lon="6.26955">
        <ele>1854.5999755859</ele>
        <time>2022-02-23T09:36:36.000Z</time>
      </trkpt>
      <trkpt lat="45.69717" lon="6.26952">
        <ele>1855.1999511719</ele>
        <time>2022-02-23T09:36:41.000Z</time>
      </trkpt>
      <trkpt lat="45.69717" lon="6.26951">
        <ele>1855.5999755859</ele>
        <time>2022-02-23T09:36:43.000Z</time>
      </trkpt>
      <trkpt lat="45.69717" lon="6.26949">
        <ele>1856</ele>
        <time>2022-02-23T09:36:45.000Z</time>
      </trkpt>
      <trkpt lat="45.69718" lon="6.26947">
        <ele>1856.8000488281</ele>
        <time>2022-02-23T09:36:48.000Z</time>
      </trkpt>
      <trkpt lat="45.69717" lon="6.26944">
        <ele>1857.4000244141</ele>
        <time>2022-02-23T09:36:51.000Z</time>
      </trkpt>
      <trkpt lat="45.69718" lon="6.26942">
        <ele>1857.5999755859</ele>
        <time>2022-02-23T09:36:55.000Z</time>
      </trkpt>
      <trkpt lat="45.69719" lon="6.26941">
        <ele>1857.8000488281</ele>
        <time>2022-02-23T09:36:57.000Z</time>
      </trkpt>
      <trkpt lat="45.6972" lon="6.26939">
        <ele>1858.4000244141</ele>
        <time>2022-02-23T09:36:59.000Z</time>
      </trkpt>
      <trkpt lat="45.69719" lon="6.26936">
        <ele>1858.5999755859</ele>
        <time>2022-02-23T09:37:02.000Z</time>
      </trkpt>
      <trkpt lat="45.69719" lon="6.26935">
        <ele>1859</ele>
        <time>2022-02-23T09:37:04.000Z</time>
      </trkpt>
      <trkpt lat="45.69718" lon="6.26934">
        <ele>1859.4000244141</ele>
        <time>2022-02-23T09:37:06.000Z</time>
      </trkpt>
      <trkpt lat="45.69718" lon="6.26933">
        <ele>1859.8000488281</ele>
        <time>2022-02-23T09:37:07.000Z</time>
      </trkpt>
      <trkpt lat="45.69717" lon="6.26932">
        <ele>1859.8000488281</ele>
        <time>2022-02-23T09:37:08.000Z</time>
      </trkpt>
      <trkpt lat="45.69716" lon="6.26931">
        <ele>1860.1999511719</ele>
        <time>2022-02-23T09:37:09.000Z</time>
      </trkpt>
      <trkpt lat="45.69714" lon="6.2693">
        <ele>1860.4000244141</ele>
        <time>2022-02-23T09:37:12.000Z</time>
      </trkpt>
      <trkpt lat="45.69714" lon="6.26929">
        <ele>1860.5999755859</ele>
        <time>2022-02-23T09:37:13.000Z</time>
      </trkpt>
      <trkpt lat="45.69713" lon="6.26928">
        <ele>1860.8000488281</ele>
        <time>2022-02-23T09:37:15.000Z</time>
      </trkpt>
      <trkpt lat="45.69712" lon="6.26927">
        <ele>1860.8000488281</ele>
        <time>2022-02-23T09:37:16.000Z</time>
      </trkpt>
      <trkpt lat="45.69711" lon="6.26926">
        <ele>1861.1999511719</ele>
        <time>2022-02-23T09:37:18.000Z</time>
      </trkpt>
      <trkpt lat="45.69709" lon="6.26925">
        <ele>1861.5999755859</ele>
        <time>2022-02-23T09:37:21.000Z</time>
      </trkpt>
      <trkpt lat="45.69704" lon="6.26922">
        <ele>1862.1999511719</ele>
        <time>2022-02-23T09:37:27.000Z</time>
      </trkpt>
      <trkpt lat="45.69701" lon="6.26919">
        <ele>1863</ele>
        <time>2022-02-23T09:37:32.000Z</time>
      </trkpt>
      <trkpt lat="45.697" lon="6.26919">
        <ele>1863</ele>
        <time>2022-02-23T09:37:33.000Z</time>
      </trkpt>
      <trkpt lat="45.69699" lon="6.26918">
        <ele>1863.4000244141</ele>
        <time>2022-02-23T09:37:34.000Z</time>
      </trkpt>
      <trkpt lat="45.69698" lon="6.26917">
        <ele>1863.5999755859</ele>
        <time>2022-02-23T09:37:37.000Z</time>
      </trkpt>
      <trkpt lat="45.69697" lon="6.26916">
        <ele>1863.8000488281</ele>
        <time>2022-02-23T09:37:39.000Z</time>
      </trkpt>
      <trkpt lat="45.69695" lon="6.26914">
        <ele>1864.4000244141</ele>
        <time>2022-02-23T09:37:43.000Z</time>
      </trkpt>
      <trkpt lat="45.69693" lon="6.26911">
        <ele>1865</ele>
        <time>2022-02-23T09:37:46.000Z</time>
      </trkpt>
      <trkpt lat="45.69691" lon="6.26909">
        <ele>1865</ele>
        <time>2022-02-23T09:37:49.000Z</time>
      </trkpt>
      <trkpt lat="45.69689" lon="6.26907">
        <ele>1865.5999755859</ele>
        <time>2022-02-23T09:37:52.000Z</time>
      </trkpt>
      <trkpt lat="45.69688" lon="6.26905">
        <ele>1866</ele>
        <time>2022-02-23T09:37:54.000Z</time>
      </trkpt>
      <trkpt lat="45.69685" lon="6.26902">
        <ele>1866.4000244141</ele>
        <time>2022-02-23T09:37:58.000Z</time>
      </trkpt>
      <trkpt lat="45.69685" lon="6.26902">
        <ele>1866.5999755859</ele>
        <time>2022-02-23T09:37:59.000Z</time>
      </trkpt>
      <trkpt lat="45.69684" lon="6.26901">
        <ele>1867</ele>
        <time>2022-02-23T09:38:01.000Z</time>
      </trkpt>
      <trkpt lat="45.69683" lon="6.26899">
        <ele>1867.1999511719</ele>
        <time>2022-02-23T09:38:03.000Z</time>
      </trkpt>
      <trkpt lat="45.6968" lon="6.26898">
        <ele>1867.5999755859</ele>
        <time>2022-02-23T09:38:07.000Z</time>
      </trkpt>
      <trkpt lat="45.6968" lon="6.26897">
        <ele>1868</ele>
        <time>2022-02-23T09:38:08.000Z</time>
      </trkpt>
      <trkpt lat="45.69678" lon="6.26896">
        <ele>1868.8000488281</ele>
        <time>2022-02-23T09:38:12.000Z</time>
      </trkpt>
      <trkpt lat="45.69677" lon="6.26895">
        <ele>1869.4000244141</ele>
        <time>2022-02-23T09:38:14.000Z</time>
      </trkpt>
      <trkpt lat="45.69676" lon="6.26895">
        <ele>1869.8000488281</ele>
        <time>2022-02-23T09:38:15.000Z</time>
      </trkpt>
      <trkpt lat="45.69675" lon="6.26895">
        <ele>1870.4000244141</ele>
        <time>2022-02-23T09:38:17.000Z</time>
      </trkpt>
      <trkpt lat="45.69674" lon="6.26894">
        <ele>1870.4000244141</ele>
        <time>2022-02-23T09:38:20.000Z</time>
      </trkpt>
      <trkpt lat="45.69674" lon="6.26894">
        <ele>1870.5999755859</ele>
        <time>2022-02-23T09:38:22.000Z</time>
      </trkpt>
      <trkpt lat="45.69674" lon="6.26894">
        <ele>1870.5999755859</ele>
        <time>2022-02-23T09:38:24.000Z</time>
      </trkpt>
      <trkpt lat="45.69675" lon="6.26892">
        <ele>1871</ele>
        <time>2022-02-23T09:38:28.000Z</time>
      </trkpt>
      <trkpt lat="45.69675" lon="6.26891">
        <ele>1871.1999511719</ele>
        <time>2022-02-23T09:38:30.000Z</time>
      </trkpt>
      <trkpt lat="45.69676" lon="6.2689">
        <ele>1871.5999755859</ele>
        <time>2022-02-23T09:38:35.000Z</time>
      </trkpt>
      <trkpt lat="45.69676" lon="6.26889">
        <ele>1871.5999755859</ele>
        <time>2022-02-23T09:38:37.000Z</time>
      </trkpt>
      <trkpt lat="45.69675" lon="6.26888">
        <ele>1872.1999511719</ele>
        <time>2022-02-23T09:38:40.000Z</time>
      </trkpt>
      <trkpt lat="45.69674" lon="6.26888">
        <ele>1873</ele>
        <time>2022-02-23T09:38:44.000Z</time>
      </trkpt>
      <trkpt lat="45.69674" lon="6.26888">
        <ele>1873.4000244141</ele>
        <time>2022-02-23T09:38:46.000Z</time>
      </trkpt>
      <trkpt lat="45.69673" lon="6.26887">
        <ele>1873.5999755859</ele>
        <time>2022-02-23T09:38:50.000Z</time>
      </trkpt>
      <trkpt lat="45.69672" lon="6.26886">
        <ele>1874</ele>
        <time>2022-02-23T09:38:54.000Z</time>
      </trkpt>
      <trkpt lat="45.69671" lon="6.26886">
        <ele>1874.4000244141</ele>
        <time>2022-02-23T09:38:58.000Z</time>
      </trkpt>
      <trkpt lat="45.69671" lon="6.26885">
        <ele>1874.4000244141</ele>
        <time>2022-02-23T09:38:59.000Z</time>
      </trkpt>
      <trkpt lat="45.6967" lon="6.26884">
        <ele>1874.8000488281</ele>
        <time>2022-02-23T09:39:02.000Z</time>
      </trkpt>
      <trkpt lat="45.69669" lon="6.26884">
        <ele>1875.1999511719</ele>
        <time>2022-02-23T09:39:05.000Z</time>
      </trkpt>
      <trkpt lat="45.69669" lon="6.26884">
        <ele>1875.1999511719</ele>
        <time>2022-02-23T09:39:06.000Z</time>
      </trkpt>
      <trkpt lat="45.69667" lon="6.26882">
        <ele>1875.5999755859</ele>
        <time>2022-02-23T09:39:09.000Z</time>
      </trkpt>
      <trkpt lat="45.69667" lon="6.26881">
        <ele>1875.8000488281</ele>
        <time>2022-02-23T09:39:10.000Z</time>
      </trkpt>
      <trkpt lat="45.69666" lon="6.26876">
        <ele>1876.5999755859</ele>
        <time>2022-02-23T09:39:14.000Z</time>
      </trkpt>
      <trkpt lat="45.69666" lon="6.26875">
        <ele>1876.8000488281</ele>
        <time>2022-02-23T09:39:15.000Z</time>
      </trkpt>
      <trkpt lat="45.69667" lon="6.26872">
        <ele>1877.4000244141</ele>
        <time>2022-02-23T09:39:19.000Z</time>
      </trkpt>
      <trkpt lat="45.69667" lon="6.2687">
        <ele>1877.5999755859</ele>
        <time>2022-02-23T09:39:21.000Z</time>
      </trkpt>
      <trkpt lat="45.69667" lon="6.26869">
        <ele>1877.8000488281</ele>
        <time>2022-02-23T09:39:22.000Z</time>
      </trkpt>
      <trkpt lat="45.69666" lon="6.26868">
        <ele>1878</ele>
        <time>2022-02-23T09:39:23.000Z</time>
      </trkpt>
      <trkpt lat="45.69666" lon="6.26865">
        <ele>1879</ele>
        <time>2022-02-23T09:39:26.000Z</time>
      </trkpt>
      <trkpt lat="45.69666" lon="6.26864">
        <ele>1879.4000244141</ele>
        <time>2022-02-23T09:39:27.000Z</time>
      </trkpt>
      <trkpt lat="45.69668" lon="6.2686">
        <ele>1880</ele>
        <time>2022-02-23T09:39:32.000Z</time>
      </trkpt>
      <trkpt lat="45.69668" lon="6.26859">
        <ele>1880.4000244141</ele>
        <time>2022-02-23T09:39:33.000Z</time>
      </trkpt>
      <trkpt lat="45.69668" lon="6.26856">
        <ele>1880.5999755859</ele>
        <time>2022-02-23T09:39:36.000Z</time>
      </trkpt>
      <trkpt lat="45.69668" lon="6.26855">
        <ele>1880.8000488281</ele>
        <time>2022-02-23T09:39:37.000Z</time>
      </trkpt>
      <trkpt lat="45.69667" lon="6.26852">
        <ele>1881.5999755859</ele>
        <time>2022-02-23T09:39:40.000Z</time>
      </trkpt>
      <trkpt lat="45.69668" lon="6.26851">
        <ele>1881.8000488281</ele>
        <time>2022-02-23T09:39:41.000Z</time>
      </trkpt>
      <trkpt lat="45.6967" lon="6.26849">
        <ele>1882</ele>
        <time>2022-02-23T09:39:44.000Z</time>
      </trkpt>
      <trkpt lat="45.6967" lon="6.26848">
        <ele>1882.1999511719</ele>
        <time>2022-02-23T09:39:45.000Z</time>
      </trkpt>
      <trkpt lat="45.6967" lon="6.26846">
        <ele>1882.5999755859</ele>
        <time>2022-02-23T09:39:47.000Z</time>
      </trkpt>
      <trkpt lat="45.6967" lon="6.26845">
        <ele>1882.8000488281</ele>
        <time>2022-02-23T09:39:48.000Z</time>
      </trkpt>
      <trkpt lat="45.69672" lon="6.26845">
        <ele>1883</ele>
        <time>2022-02-23T09:39:51.000Z</time>
      </trkpt>
      <trkpt lat="45.69674" lon="6.26843">
        <ele>1883.8000488281</ele>
        <time>2022-02-23T09:39:55.000Z</time>
      </trkpt>
      <trkpt lat="45.69674" lon="6.26842">
        <ele>1884.5999755859</ele>
        <time>2022-02-23T09:39:57.000Z</time>
      </trkpt>
      <trkpt lat="45.69674" lon="6.2684">
        <ele>1884.5999755859</ele>
        <time>2022-02-23T09:39:59.000Z</time>
      </trkpt>
      <trkpt lat="45.69674" lon="6.26839">
        <ele>1884.8000488281</ele>
        <time>2022-02-23T09:40:01.000Z</time>
      </trkpt>
      <trkpt lat="45.69674" lon="6.26838">
        <ele>1885</ele>
        <time>2022-02-23T09:40:02.000Z</time>
      </trkpt>
      <trkpt lat="45.69674" lon="6.26837">
        <ele>1885</ele>
        <time>2022-02-23T09:40:03.000Z</time>
      </trkpt>
      <trkpt lat="45.69674" lon="6.26836">
        <ele>1885.1999511719</ele>
        <time>2022-02-23T09:40:05.000Z</time>
      </trkpt>
      <trkpt lat="45.69673" lon="6.26834">
        <ele>1885.5999755859</ele>
        <time>2022-02-23T09:40:07.000Z</time>
      </trkpt>
      <trkpt lat="45.69673" lon="6.26831">
        <ele>1886</ele>
        <time>2022-02-23T09:40:10.000Z</time>
      </trkpt>
      <trkpt lat="45.69672" lon="6.26829">
        <ele>1886.1999511719</ele>
        <time>2022-02-23T09:40:11.000Z</time>
      </trkpt>
      <trkpt lat="45.69671" lon="6.26824">
        <ele>1887</ele>
        <time>2022-02-23T09:40:15.000Z</time>
      </trkpt>
      <trkpt lat="45.69671" lon="6.26823">
        <ele>1887.1999511719</ele>
        <time>2022-02-23T09:40:16.000Z</time>
      </trkpt>
      <trkpt lat="45.6967" lon="6.26818">
        <ele>1888</ele>
        <time>2022-02-23T09:40:20.000Z</time>
      </trkpt>
      <trkpt lat="45.69669" lon="6.26816">
        <ele>1888</ele>
        <time>2022-02-23T09:40:22.000Z</time>
      </trkpt>
      <trkpt lat="45.69669" lon="6.26815">
        <ele>1888.1999511719</ele>
        <time>2022-02-23T09:40:23.000Z</time>
      </trkpt>
      <trkpt lat="45.69668" lon="6.26814">
        <ele>1888.1999511719</ele>
        <time>2022-02-23T09:40:24.000Z</time>
      </trkpt>
      <trkpt lat="45.69668" lon="6.26813">
        <ele>1889</ele>
        <time>2022-02-23T09:40:26.000Z</time>
      </trkpt>
      <trkpt lat="45.69668" lon="6.26812">
        <ele>1889.1999511719</ele>
        <time>2022-02-23T09:40:27.000Z</time>
      </trkpt>
      <trkpt lat="45.69668" lon="6.2681">
        <ele>1889.4000244141</ele>
        <time>2022-02-23T09:40:29.000Z</time>
      </trkpt>
      <trkpt lat="45.69668" lon="6.26806">
        <ele>1890.4000244141</ele>
        <time>2022-02-23T09:40:33.000Z</time>
      </trkpt>
      <trkpt lat="45.69668" lon="6.26805">
        <ele>1890.5999755859</ele>
        <time>2022-02-23T09:40:34.000Z</time>
      </trkpt>
      <trkpt lat="45.69668" lon="6.26804">
        <ele>1890.8000488281</ele>
        <time>2022-02-23T09:40:35.000Z</time>
      </trkpt>
      <trkpt lat="45.69668" lon="6.268">
        <ele>1891</ele>
        <time>2022-02-23T09:40:40.000Z</time>
      </trkpt>
      <trkpt lat="45.69667" lon="6.26798">
        <ele>1891.4000244141</ele>
        <time>2022-02-23T09:40:42.000Z</time>
      </trkpt>
      <trkpt lat="45.69667" lon="6.26794">
        <ele>1892.1999511719</ele>
        <time>2022-02-23T09:40:46.000Z</time>
      </trkpt>
      <trkpt lat="45.69666" lon="6.26794">
        <ele>1892.1999511719</ele>
        <time>2022-02-23T09:40:48.000Z</time>
      </trkpt>
      <trkpt lat="45.69666" lon="6.26792">
        <ele>1892.5999755859</ele>
        <time>2022-02-23T09:40:51.000Z</time>
      </trkpt>
      <trkpt lat="45.69666" lon="6.26789">
        <ele>1893.4000244141</ele>
        <time>2022-02-23T09:40:57.000Z</time>
      </trkpt>
      <trkpt lat="45.69666" lon="6.26789">
        <ele>1893.4000244141</ele>
        <time>2022-02-23T09:40:59.000Z</time>
      </trkpt>
      <trkpt lat="45.69666" lon="6.26789">
        <ele>1893.4000244141</ele>
        <time>2022-02-23T09:41:00.000Z</time>
      </trkpt>
      <trkpt lat="45.69666" lon="6.26789">
        <ele>1893.4000244141</ele>
        <time>2022-02-23T09:41:10.000Z</time>
      </trkpt>
      <trkpt lat="45.69665" lon="6.26789">
        <ele>1893.1999511719</ele>
        <time>2022-02-23T09:41:12.000Z</time>
      </trkpt>
      <trkpt lat="45.69665" lon="6.2679">
        <ele>1893.1999511719</ele>
        <time>2022-02-23T09:41:13.000Z</time>
      </trkpt>
      <trkpt lat="45.69665" lon="6.26789">
        <ele>1893.8000488281</ele>
        <time>2022-02-23T09:41:16.000Z</time>
      </trkpt>
      <trkpt lat="45.69665" lon="6.26789">
        <ele>1894.1999511719</ele>
        <time>2022-02-23T09:41:19.000Z</time>
      </trkpt>
      <trkpt lat="45.69666" lon="6.26789">
        <ele>1894.5999755859</ele>
        <time>2022-02-23T09:41:28.000Z</time>
      </trkpt>
      <trkpt lat="45.69666" lon="6.2679">
        <ele>1894.1999511719</ele>
        <time>2022-02-23T09:41:37.000Z</time>
      </trkpt>
      <trkpt lat="45.69666" lon="6.2679">
        <ele>1894.4000244141</ele>
        <time>2022-02-23T09:41:42.000Z</time>
      </trkpt>
      <trkpt lat="45.69665" lon="6.26791">
        <ele>1894.5999755859</ele>
        <time>2022-02-23T09:41:49.000Z</time>
      </trkpt>
      <trkpt lat="45.69665" lon="6.26792">
        <ele>1894.8000488281</ele>
        <time>2022-02-23T09:41:50.000Z</time>
      </trkpt>
      <trkpt lat="45.69665" lon="6.26791">
        <ele>1895</ele>
        <time>2022-02-23T09:41:53.000Z</time>
      </trkpt>
      <trkpt lat="45.69664" lon="6.26792">
        <ele>1895.4000244141</ele>
        <time>2022-02-23T09:42:04.000Z</time>
      </trkpt>
      <trkpt lat="45.69664" lon="6.26792">
        <ele>1895.4000244141</ele>
        <time>2022-02-23T09:42:10.000Z</time>
      </trkpt>
      <trkpt lat="45.69664" lon="6.26792">
        <ele>1895.4000244141</ele>
        <time>2022-02-23T09:42:12.000Z</time>
      </trkpt>
      <trkpt lat="45.69665" lon="6.26792">
        <ele>1895.4000244141</ele>
        <time>2022-02-23T09:42:15.000Z</time>
      </trkpt>
      <trkpt lat="45.69664" lon="6.26791">
        <ele>1895.4000244141</ele>
        <time>2022-02-23T09:42:18.000Z</time>
      </trkpt>
      <trkpt lat="45.69663" lon="6.26793">
        <ele>1895.4000244141</ele>
        <time>2022-02-23T09:42:23.000Z</time>
      </trkpt>
      <trkpt lat="45.69662" lon="6.26795">
        <ele>1895.8000488281</ele>
        <time>2022-02-23T09:42:26.000Z</time>
      </trkpt>
      <trkpt lat="45.69662" lon="6.26796">
        <ele>1896</ele>
        <time>2022-02-23T09:42:27.000Z</time>
      </trkpt>
      <trkpt lat="45.69662" lon="6.26797">
        <ele>1896.1999511719</ele>
        <time>2022-02-23T09:42:28.000Z</time>
      </trkpt>
      <trkpt lat="45.69661" lon="6.26797">
        <ele>1896.1999511719</ele>
        <time>2022-02-23T09:42:29.000Z</time>
      </trkpt>
      <trkpt lat="45.6966" lon="6.268">
        <ele>1896.8000488281</ele>
        <time>2022-02-23T09:42:33.000Z</time>
      </trkpt>
      <trkpt lat="45.69658" lon="6.26802">
        <ele>1897.4000244141</ele>
        <time>2022-02-23T09:42:35.000Z</time>
      </trkpt>
      <trkpt lat="45.69657" lon="6.26802">
        <ele>1897.5999755859</ele>
        <time>2022-02-23T09:42:37.000Z</time>
      </trkpt>
      <trkpt lat="45.69655" lon="6.26803">
        <ele>1898</ele>
        <time>2022-02-23T09:42:41.000Z</time>
      </trkpt>
      <trkpt lat="45.69654" lon="6.26803">
        <ele>1898</ele>
        <time>2022-02-23T09:42:42.000Z</time>
      </trkpt>
      <trkpt lat="45.69653" lon="6.26802">
        <ele>1898.1999511719</ele>
        <time>2022-02-23T09:42:44.000Z</time>
      </trkpt>
      <trkpt lat="45.69652" lon="6.26802">
        <ele>1898.4000244141</ele>
        <time>2022-02-23T09:42:46.000Z</time>
      </trkpt>
      <trkpt lat="45.69652" lon="6.26801">
        <ele>1898.5999755859</ele>
        <time>2022-02-23T09:42:47.000Z</time>
      </trkpt>
      <trkpt lat="45.69651" lon="6.26801">
        <ele>1898.8000488281</ele>
        <time>2022-02-23T09:42:48.000Z</time>
      </trkpt>
      <trkpt lat="45.69651" lon="6.268">
        <ele>1899</ele>
        <time>2022-02-23T09:42:49.000Z</time>
      </trkpt>
      <trkpt lat="45.6965" lon="6.26799">
        <ele>1899.8000488281</ele>
        <time>2022-02-23T09:42:51.000Z</time>
      </trkpt>
      <trkpt lat="45.69649" lon="6.26796">
        <ele>1900.1999511719</ele>
        <time>2022-02-23T09:42:54.000Z</time>
      </trkpt>
      <trkpt lat="45.69649" lon="6.26794">
        <ele>1900.4000244141</ele>
        <time>2022-02-23T09:42:57.000Z</time>
      </trkpt>
      <trkpt lat="45.69649" lon="6.26791">
        <ele>1901.1999511719</ele>
        <time>2022-02-23T09:43:01.000Z</time>
      </trkpt>
      <trkpt lat="45.6965" lon="6.2679">
        <ele>1901.4000244141</ele>
        <time>2022-02-23T09:43:02.000Z</time>
      </trkpt>
      <trkpt lat="45.6965" lon="6.26787">
        <ele>1902</ele>
        <time>2022-02-23T09:43:06.000Z</time>
      </trkpt>
      <trkpt lat="45.6965" lon="6.26786">
        <ele>1902.1999511719</ele>
        <time>2022-02-23T09:43:07.000Z</time>
      </trkpt>
      <trkpt lat="45.69649" lon="6.26784">
        <ele>1902.4000244141</ele>
        <time>2022-02-23T09:43:10.000Z</time>
      </trkpt>
      <trkpt lat="45.69648" lon="6.26779">
        <ele>1903.1999511719</ele>
        <time>2022-02-23T09:43:16.000Z</time>
      </trkpt>
      <trkpt lat="45.69648" lon="6.26777">
        <ele>1903.4000244141</ele>
        <time>2022-02-23T09:43:18.000Z</time>
      </trkpt>
      <trkpt lat="45.69649" lon="6.26776">
        <ele>1903.4000244141</ele>
        <time>2022-02-23T09:43:20.000Z</time>
      </trkpt>
      <trkpt lat="45.69649" lon="6.26775">
        <ele>1903.5999755859</ele>
        <time>2022-02-23T09:43:21.000Z</time>
      </trkpt>
      <trkpt lat="45.69649" lon="6.26773">
        <ele>1904</ele>
        <time>2022-02-23T09:43:22.000Z</time>
      </trkpt>
      <trkpt lat="45.69649" lon="6.26772">
        <ele>1904.4000244141</ele>
        <time>2022-02-23T09:43:24.000Z</time>
      </trkpt>
      <trkpt lat="45.69649" lon="6.26771">
        <ele>1904.5999755859</ele>
        <time>2022-02-23T09:43:25.000Z</time>
      </trkpt>
      <trkpt lat="45.69648" lon="6.2677">
        <ele>1904.5999755859</ele>
        <time>2022-02-23T09:43:26.000Z</time>
      </trkpt>
      <trkpt lat="45.69648" lon="6.26765">
        <ele>1905.5999755859</ele>
        <time>2022-02-23T09:43:31.000Z</time>
      </trkpt>
      <trkpt lat="45.69647" lon="6.26764">
        <ele>1905.8000488281</ele>
        <time>2022-02-23T09:43:33.000Z</time>
      </trkpt>
      <trkpt lat="45.69646" lon="6.26762">
        <ele>1905.8000488281</ele>
        <time>2022-02-23T09:43:36.000Z</time>
      </trkpt>
      <trkpt lat="45.69645" lon="6.26761">
        <ele>1906.5999755859</ele>
        <time>2022-02-23T09:43:39.000Z</time>
      </trkpt>
      <trkpt lat="45.69644" lon="6.26761">
        <ele>1906.8000488281</ele>
        <time>2022-02-23T09:43:41.000Z</time>
      </trkpt>
      <trkpt lat="45.69644" lon="6.26762">
        <ele>1907</ele>
        <time>2022-02-23T09:43:42.000Z</time>
      </trkpt>
      <trkpt lat="45.69643" lon="6.26763">
        <ele>1907.5999755859</ele>
        <time>2022-02-23T09:43:45.000Z</time>
      </trkpt>
      <trkpt lat="45.69643" lon="6.26763">
        <ele>1908.1999511719</ele>
        <time>2022-02-23T09:43:46.000Z</time>
      </trkpt>
      <trkpt lat="45.69641" lon="6.26766">
        <ele>1908.8000488281</ele>
        <time>2022-02-23T09:43:49.000Z</time>
      </trkpt>
      <trkpt lat="45.6964" lon="6.26768">
        <ele>1909.1999511719</ele>
        <time>2022-02-23T09:43:53.000Z</time>
      </trkpt>
      <trkpt lat="45.69639" lon="6.26769">
        <ele>1909.4000244141</ele>
        <time>2022-02-23T09:43:54.000Z</time>
      </trkpt>
      <trkpt lat="45.69638" lon="6.26771">
        <ele>1909.8000488281</ele>
        <time>2022-02-23T09:43:58.000Z</time>
      </trkpt>
      <trkpt lat="45.69637" lon="6.26772">
        <ele>1910</ele>
        <time>2022-02-23T09:44:00.000Z</time>
      </trkpt>
      <trkpt lat="45.69637" lon="6.26773">
        <ele>1910.4000244141</ele>
        <time>2022-02-23T09:44:01.000Z</time>
      </trkpt>
      <trkpt lat="45.69636" lon="6.26775">
        <ele>1910.5999755859</ele>
        <time>2022-02-23T09:44:03.000Z</time>
      </trkpt>
      <trkpt lat="45.69635" lon="6.26777">
        <ele>1910.5999755859</ele>
        <time>2022-02-23T09:44:06.000Z</time>
      </trkpt>
      <trkpt lat="45.69635" lon="6.26779">
        <ele>1910.8000488281</ele>
        <time>2022-02-23T09:44:08.000Z</time>
      </trkpt>
      <trkpt lat="45.69633" lon="6.26782">
        <ele>1911.1999511719</ele>
        <time>2022-02-23T09:44:13.000Z</time>
      </trkpt>
      <trkpt lat="45.69633" lon="6.26783">
        <ele>1911.1999511719</ele>
        <time>2022-02-23T09:44:14.000Z</time>
      </trkpt>
      <trkpt lat="45.69632" lon="6.26784">
        <ele>1911.4000244141</ele>
        <time>2022-02-23T09:44:15.000Z</time>
      </trkpt>
      <trkpt lat="45.69632" lon="6.26785">
        <ele>1911.8000488281</ele>
        <time>2022-02-23T09:44:17.000Z</time>
      </trkpt>
      <trkpt lat="45.69631" lon="6.26787">
        <ele>1912</ele>
        <time>2022-02-23T09:44:19.000Z</time>
      </trkpt>
      <trkpt lat="45.69631" lon="6.26788">
        <ele>1912</ele>
        <time>2022-02-23T09:44:21.000Z</time>
      </trkpt>
      <trkpt lat="45.6963" lon="6.2679">
        <ele>1912.1999511719</ele>
        <time>2022-02-23T09:44:23.000Z</time>
      </trkpt>
      <trkpt lat="45.69629" lon="6.26791">
        <ele>1912.5999755859</ele>
        <time>2022-02-23T09:44:25.000Z</time>
      </trkpt>
      <trkpt lat="45.69629" lon="6.26792">
        <ele>1912.8000488281</ele>
        <time>2022-02-23T09:44:27.000Z</time>
      </trkpt>
      <trkpt lat="45.69628" lon="6.26794">
        <ele>1912.8000488281</ele>
        <time>2022-02-23T09:44:29.000Z</time>
      </trkpt>
      <trkpt lat="45.69627" lon="6.26795">
        <ele>1912.8000488281</ele>
        <time>2022-02-23T09:44:31.000Z</time>
      </trkpt>
      <trkpt lat="45.69627" lon="6.26796">
        <ele>1913.5999755859</ele>
        <time>2022-02-23T09:44:33.000Z</time>
      </trkpt>
      <trkpt lat="45.69626" lon="6.26797">
        <ele>1913.8000488281</ele>
        <time>2022-02-23T09:44:34.000Z</time>
      </trkpt>
      <trkpt lat="45.69626" lon="6.26797">
        <ele>1914</ele>
        <time>2022-02-23T09:44:35.000Z</time>
      </trkpt>
      <trkpt lat="45.69625" lon="6.26798">
        <ele>1914.4000244141</ele>
        <time>2022-02-23T09:44:38.000Z</time>
      </trkpt>
      <trkpt lat="45.69624" lon="6.26799">
        <ele>1914.5999755859</ele>
        <time>2022-02-23T09:44:40.000Z</time>
      </trkpt>
      <trkpt lat="45.69623" lon="6.26799">
        <ele>1915</ele>
        <time>2022-02-23T09:44:42.000Z</time>
      </trkpt>
      <trkpt lat="45.69623" lon="6.26798">
        <ele>1915.4000244141</ele>
        <time>2022-02-23T09:44:45.000Z</time>
      </trkpt>
      <trkpt lat="45.69622" lon="6.26798">
        <ele>1915.8000488281</ele>
        <time>2022-02-23T09:44:47.000Z</time>
      </trkpt>
      <trkpt lat="45.69623" lon="6.26796">
        <ele>1916.4000244141</ele>
        <time>2022-02-23T09:44:50.000Z</time>
      </trkpt>
      <trkpt lat="45.69623" lon="6.26795">
        <ele>1916.4000244141</ele>
        <time>2022-02-23T09:44:51.000Z</time>
      </trkpt>
      <trkpt lat="45.69623" lon="6.26792">
        <ele>1916.4000244141</ele>
        <time>2022-02-23T09:44:56.000Z</time>
      </trkpt>
      <trkpt lat="45.69623" lon="6.26788">
        <ele>1917</ele>
        <time>2022-02-23T09:45:00.000Z</time>
      </trkpt>
      <trkpt lat="45.69623" lon="6.26788">
        <ele>1917.1999511719</ele>
        <time>2022-02-23T09:45:01.000Z</time>
      </trkpt>
      <trkpt lat="45.69624" lon="6.26783">
        <ele>1917.8000488281</ele>
        <time>2022-02-23T09:45:07.000Z</time>
      </trkpt>
      <trkpt lat="45.69624" lon="6.26781">
        <ele>1918</ele>
        <time>2022-02-23T09:45:09.000Z</time>
      </trkpt>
      <trkpt lat="45.69624" lon="6.2678">
        <ele>1918.5999755859</ele>
        <time>2022-02-23T09:45:12.000Z</time>
      </trkpt>
      <trkpt lat="45.69624" lon="6.2678">
        <ele>1919</ele>
        <time>2022-02-23T09:45:14.000Z</time>
      </trkpt>
      <trkpt lat="45.69624" lon="6.26778">
        <ele>1919.4000244141</ele>
        <time>2022-02-23T09:45:17.000Z</time>
      </trkpt>
      <trkpt lat="45.69624" lon="6.26776">
        <ele>1919.8000488281</ele>
        <time>2022-02-23T09:45:23.000Z</time>
      </trkpt>
      <trkpt lat="45.69624" lon="6.26776">
        <ele>1919.4000244141</ele>
        <time>2022-02-23T09:45:33.000Z</time>
      </trkpt>
      <trkpt lat="45.69624" lon="6.26776">
        <ele>1919.4000244141</ele>
        <time>2022-02-23T09:45:39.000Z</time>
      </trkpt>
      <trkpt lat="45.69624" lon="6.26776">
        <ele>1919.1999511719</ele>
        <time>2022-02-23T09:45:42.000Z</time>
      </trkpt>
      <trkpt lat="45.69624" lon="6.26776">
        <ele>1919</ele>
        <time>2022-02-23T09:45:47.000Z</time>
      </trkpt>
      <trkpt lat="45.69624" lon="6.26776">
        <ele>1919.1999511719</ele>
        <time>2022-02-23T09:45:49.000Z</time>
      </trkpt>
      <trkpt lat="45.69624" lon="6.26776">
        <ele>1919.4000244141</ele>
        <time>2022-02-23T09:45:52.000Z</time>
      </trkpt>
      <trkpt lat="45.69624" lon="6.26776">
        <ele>1919.5999755859</ele>
        <time>2022-02-23T09:45:55.000Z</time>
      </trkpt>
      <trkpt lat="45.69624" lon="6.26775">
        <ele>1919.4000244141</ele>
        <time>2022-02-23T09:46:00.000Z</time>
      </trkpt>
      <trkpt lat="45.69624" lon="6.26776">
        <ele>1920</ele>
        <time>2022-02-23T09:46:02.000Z</time>
      </trkpt>
      <trkpt lat="45.69623" lon="6.26776">
        <ele>1920.1999511719</ele>
        <time>2022-02-23T09:46:03.000Z</time>
      </trkpt>
      <trkpt lat="45.69624" lon="6.26776">
        <ele>1920.4000244141</ele>
        <time>2022-02-23T09:46:13.000Z</time>
      </trkpt>
      <trkpt lat="45.69624" lon="6.26777">
        <ele>1920.1999511719</ele>
        <time>2022-02-23T09:46:15.000Z</time>
      </trkpt>
      <trkpt lat="45.69625" lon="6.26777">
        <ele>1920</ele>
        <time>2022-02-23T09:46:19.000Z</time>
      </trkpt>
      <trkpt lat="45.69625" lon="6.26778">
        <ele>1919.8000488281</ele>
        <time>2022-02-23T09:46:24.000Z</time>
      </trkpt>
      <trkpt lat="45.69625" lon="6.26778">
        <ele>1919.8000488281</ele>
        <time>2022-02-23T09:46:25.000Z</time>
      </trkpt>
      <trkpt lat="45.69625" lon="6.26778">
        <ele>1919.8000488281</ele>
        <time>2022-02-23T09:46:26.000Z</time>
      </trkpt>
      <trkpt lat="45.69624" lon="6.2678">
        <ele>1920.4000244141</ele>
        <time>2022-02-23T09:46:30.000Z</time>
      </trkpt>
      <trkpt lat="45.69622" lon="6.26782">
        <ele>1920.8000488281</ele>
        <time>2022-02-23T09:46:34.000Z</time>
      </trkpt>
      <trkpt lat="45.69622" lon="6.26781">
        <ele>1921</ele>
        <time>2022-02-23T09:46:37.000Z</time>
      </trkpt>
      <trkpt lat="45.69622" lon="6.26781">
        <ele>1921</ele>
        <time>2022-02-23T09:46:38.000Z</time>
      </trkpt>
      <trkpt lat="45.69622" lon="6.26781">
        <ele>1921</ele>
        <time>2022-02-23T09:46:40.000Z</time>
      </trkpt>
      <trkpt lat="45.69622" lon="6.26781">
        <ele>1921.1999511719</ele>
        <time>2022-02-23T09:46:43.000Z</time>
      </trkpt>
      <trkpt lat="45.69622" lon="6.26781">
        <ele>1921.4000244141</ele>
        <time>2022-02-23T09:46:49.000Z</time>
      </trkpt>
      <trkpt lat="45.69622" lon="6.26781">
        <ele>1921.1999511719</ele>
        <time>2022-02-23T09:46:57.000Z</time>
      </trkpt>
      <trkpt lat="45.69622" lon="6.26781">
        <ele>1921.5999755859</ele>
        <time>2022-02-23T09:47:07.000Z</time>
      </trkpt>
      <trkpt lat="45.69622" lon="6.26781">
        <ele>1921.5999755859</ele>
        <time>2022-02-23T09:47:11.000Z</time>
      </trkpt>
      <trkpt lat="45.69622" lon="6.26781">
        <ele>1921</ele>
        <time>2022-02-23T09:47:20.000Z</time>
      </trkpt>
      <trkpt lat="45.69622" lon="6.26781">
        <ele>1921.1999511719</ele>
        <time>2022-02-23T09:47:24.000Z</time>
      </trkpt>
      <trkpt lat="45.69622" lon="6.26781">
        <ele>1921.1999511719</ele>
        <time>2022-02-23T09:47:27.000Z</time>
      </trkpt>
      <trkpt lat="45.69621" lon="6.26782">
        <ele>1921.1999511719</ele>
        <time>2022-02-23T09:47:33.000Z</time>
      </trkpt>
      <trkpt lat="45.69619" lon="6.26783">
        <ele>1921.4000244141</ele>
        <time>2022-02-23T09:47:37.000Z</time>
      </trkpt>
      <trkpt lat="45.69617" lon="6.26782">
        <ele>1921.5999755859</ele>
        <time>2022-02-23T09:47:42.000Z</time>
      </trkpt>
      <trkpt lat="45.69618" lon="6.26782">
        <ele>1921.4000244141</ele>
        <time>2022-02-23T09:47:44.000Z</time>
      </trkpt>
      <trkpt lat="45.69618" lon="6.26782">
        <ele>1921.4000244141</ele>
        <time>2022-02-23T09:47:47.000Z</time>
      </trkpt>
      <trkpt lat="45.69618" lon="6.26781">
        <ele>1921.8000488281</ele>
        <time>2022-02-23T09:47:50.000Z</time>
      </trkpt>
      <trkpt lat="45.69618" lon="6.2678">
        <ele>1922.1999511719</ele>
        <time>2022-02-23T09:47:53.000Z</time>
      </trkpt>
      <trkpt lat="45.69617" lon="6.2678">
        <ele>1922.5999755859</ele>
        <time>2022-02-23T09:47:57.000Z</time>
      </trkpt>
      <trkpt lat="45.69617" lon="6.2678">
        <ele>1923</ele>
        <time>2022-02-23T09:48:02.000Z</time>
      </trkpt>
      <trkpt lat="45.69617" lon="6.2678">
        <ele>1922.8000488281</ele>
        <time>2022-02-23T09:48:06.000Z</time>
      </trkpt>
      <trkpt lat="45.69617" lon="6.2678">
        <ele>1922.5999755859</ele>
        <time>2022-02-23T09:48:07.000Z</time>
      </trkpt>
      <trkpt lat="45.69617" lon="6.2678">
        <ele>1922.5999755859</ele>
        <time>2022-02-23T09:48:13.000Z</time>
      </trkpt>
      <trkpt lat="45.69617" lon="6.2678">
        <ele>1922.5999755859</ele>
        <time>2022-02-23T09:48:14.000Z</time>
      </trkpt>
      <trkpt lat="45.69618" lon="6.2678">
        <ele>1922.4000244141</ele>
        <time>2022-02-23T09:48:23.000Z</time>
      </trkpt>
      <trkpt lat="45.69617" lon="6.2678">
        <ele>1922.1999511719</ele>
        <time>2022-02-23T09:48:34.000Z</time>
      </trkpt>
      <trkpt lat="45.69617" lon="6.26778">
        <ele>1922.4000244141</ele>
        <time>2022-02-23T09:48:38.000Z</time>
      </trkpt>
      <trkpt lat="45.69617" lon="6.26776">
        <ele>1922.8000488281</ele>
        <time>2022-02-23T09:48:40.000Z</time>
      </trkpt>
      <trkpt lat="45.69617" lon="6.26775">
        <ele>1923.4000244141</ele>
        <time>2022-02-23T09:48:42.000Z</time>
      </trkpt>
      <trkpt lat="45.69616" lon="6.26774">
        <ele>1924</ele>
        <time>2022-02-23T09:48:44.000Z</time>
      </trkpt>
      <trkpt lat="45.69615" lon="6.26772">
        <ele>1924.5999755859</ele>
        <time>2022-02-23T09:48:47.000Z</time>
      </trkpt>
      <trkpt lat="45.69615" lon="6.26771">
        <ele>1924.8000488281</ele>
        <time>2022-02-23T09:48:49.000Z</time>
      </trkpt>
      <trkpt lat="45.69614" lon="6.26771">
        <ele>1925</ele>
        <time>2022-02-23T09:48:50.000Z</time>
      </trkpt>
      <trkpt lat="45.69614" lon="6.2677">
        <ele>1925.4000244141</ele>
        <time>2022-02-23T09:48:52.000Z</time>
      </trkpt>
      <trkpt lat="45.69613" lon="6.26769">
        <ele>1925.5999755859</ele>
        <time>2022-02-23T09:48:54.000Z</time>
      </trkpt>
      <trkpt lat="45.69612" lon="6.26768">
        <ele>1925.8000488281</ele>
        <time>2022-02-23T09:48:57.000Z</time>
      </trkpt>
      <trkpt lat="45.69611" lon="6.26768">
        <ele>1926</ele>
        <time>2022-02-23T09:48:59.000Z</time>
      </trkpt>
      <trkpt lat="45.6961" lon="6.26767">
        <ele>1926.5999755859</ele>
        <time>2022-02-23T09:49:02.000Z</time>
      </trkpt>
      <trkpt lat="45.69609" lon="6.26767">
        <ele>1927.4000244141</ele>
        <time>2022-02-23T09:49:05.000Z</time>
      </trkpt>
      <trkpt lat="45.69608" lon="6.26766">
        <ele>1927.5999755859</ele>
        <time>2022-02-23T09:49:06.000Z</time>
      </trkpt>
      <trkpt lat="45.69608" lon="6.26766">
        <ele>1927.8000488281</ele>
        <time>2022-02-23T09:49:07.000Z</time>
      </trkpt>
      <trkpt lat="45.69607" lon="6.26766">
        <ele>1928</ele>
        <time>2022-02-23T09:49:08.000Z</time>
      </trkpt>
      <trkpt lat="45.69607" lon="6.26766">
        <ele>1928</ele>
        <time>2022-02-23T09:49:09.000Z</time>
      </trkpt>
      <trkpt lat="45.69607" lon="6.26765">
        <ele>1928.1999511719</ele>
        <time>2022-02-23T09:49:10.000Z</time>
      </trkpt>
      <trkpt lat="45.69606" lon="6.26765">
        <ele>1928.4000244141</ele>
        <time>2022-02-23T09:49:11.000Z</time>
      </trkpt>
      <trkpt lat="45.69606" lon="6.26766">
        <ele>1928.8000488281</ele>
        <time>2022-02-23T09:49:12.000Z</time>
      </trkpt>
      <trkpt lat="45.69605" lon="6.26767">
        <ele>1929.5999755859</ele>
        <time>2022-02-23T09:49:15.000Z</time>
      </trkpt>
      <trkpt lat="45.69604" lon="6.26767">
        <ele>1929.8000488281</ele>
        <time>2022-02-23T09:49:16.000Z</time>
      </trkpt>
      <trkpt lat="45.69604" lon="6.26767">
        <ele>1930</ele>
        <time>2022-02-23T09:49:17.000Z</time>
      </trkpt>
      <trkpt lat="45.69603" lon="6.26768">
        <ele>1930.5999755859</ele>
        <time>2022-02-23T09:49:19.000Z</time>
      </trkpt>
      <trkpt lat="45.69602" lon="6.26769">
        <ele>1930.8000488281</ele>
        <time>2022-02-23T09:49:21.000Z</time>
      </trkpt>
      <trkpt lat="45.69602" lon="6.2677">
        <ele>1931.1999511719</ele>
        <time>2022-02-23T09:49:22.000Z</time>
      </trkpt>
      <trkpt lat="45.696" lon="6.26772">
        <ele>1931.8000488281</ele>
        <time>2022-02-23T09:49:25.000Z</time>
      </trkpt>
      <trkpt lat="45.696" lon="6.26773">
        <ele>1931.8000488281</ele>
        <time>2022-02-23T09:49:26.000Z</time>
      </trkpt>
      <trkpt lat="45.69599" lon="6.26773">
        <ele>1931.8000488281</ele>
        <time>2022-02-23T09:49:27.000Z</time>
      </trkpt>
      <trkpt lat="45.69599" lon="6.26774">
        <ele>1932</ele>
        <time>2022-02-23T09:49:28.000Z</time>
      </trkpt>
      <trkpt lat="45.69598" lon="6.26775">
        <ele>1932.1999511719</ele>
        <time>2022-02-23T09:49:30.000Z</time>
      </trkpt>
      <trkpt lat="45.69598" lon="6.26775">
        <ele>1932.1999511719</ele>
        <time>2022-02-23T09:49:31.000Z</time>
      </trkpt>
      <trkpt lat="45.69597" lon="6.26776">
        <ele>1932.4000244141</ele>
        <time>2022-02-23T09:49:33.000Z</time>
      </trkpt>
      <trkpt lat="45.69596" lon="6.26776">
        <ele>1932.5999755859</ele>
        <time>2022-02-23T09:49:35.000Z</time>
      </trkpt>
      <trkpt lat="45.69596" lon="6.26772">
        <ele>1932.5999755859</ele>
        <time>2022-02-23T09:49:40.000Z</time>
      </trkpt>
      <trkpt lat="45.69595" lon="6.26768">
        <ele>1933.4000244141</ele>
        <time>2022-02-23T09:49:45.000Z</time>
      </trkpt>
      <trkpt lat="45.69595" lon="6.26766">
        <ele>1933.4000244141</ele>
        <time>2022-02-23T09:49:47.000Z</time>
      </trkpt>
      <trkpt lat="45.69594" lon="6.26765">
        <ele>1934</ele>
        <time>2022-02-23T09:49:49.000Z</time>
      </trkpt>
      <trkpt lat="45.69593" lon="6.26764">
        <ele>1934.4000244141</ele>
        <time>2022-02-23T09:49:51.000Z</time>
      </trkpt>
      <trkpt lat="45.69593" lon="6.26763">
        <ele>1934.5999755859</ele>
        <time>2022-02-23T09:49:52.000Z</time>
      </trkpt>
      <trkpt lat="45.69592" lon="6.26761">
        <ele>1935.5999755859</ele>
        <time>2022-02-23T09:49:55.000Z</time>
      </trkpt>
      <trkpt lat="45.69591" lon="6.2676">
        <ele>1935.5999755859</ele>
        <time>2022-02-23T09:49:56.000Z</time>
      </trkpt>
      <trkpt lat="45.69591" lon="6.2676">
        <ele>1935.5999755859</ele>
        <time>2022-02-23T09:49:57.000Z</time>
      </trkpt>
      <trkpt lat="45.69588" lon="6.26758">
        <ele>1936.1999511719</ele>
        <time>2022-02-23T09:50:03.000Z</time>
      </trkpt>
      <trkpt lat="45.69587" lon="6.26758">
        <ele>1936.5999755859</ele>
        <time>2022-02-23T09:50:06.000Z</time>
      </trkpt>
      <trkpt lat="45.69586" lon="6.26759">
        <ele>1937.1999511719</ele>
        <time>2022-02-23T09:50:09.000Z</time>
      </trkpt>
      <trkpt lat="45.69585" lon="6.2676">
        <ele>1937.8000488281</ele>
        <time>2022-02-23T09:50:12.000Z</time>
      </trkpt>
      <trkpt lat="45.69585" lon="6.26761">
        <ele>1938.1999511719</ele>
        <time>2022-02-23T09:50:13.000Z</time>
      </trkpt>
      <trkpt lat="45.69584" lon="6.26762">
        <ele>1938.4000244141</ele>
        <time>2022-02-23T09:50:14.000Z</time>
      </trkpt>
      <trkpt lat="45.69584" lon="6.26763">
        <ele>1938.8000488281</ele>
        <time>2022-02-23T09:50:16.000Z</time>
      </trkpt>
      <trkpt lat="45.69583" lon="6.26763">
        <ele>1939</ele>
        <time>2022-02-23T09:50:17.000Z</time>
      </trkpt>
      <trkpt lat="45.69583" lon="6.26764">
        <ele>1939.1999511719</ele>
        <time>2022-02-23T09:50:18.000Z</time>
      </trkpt>
      <trkpt lat="45.69582" lon="6.26766">
        <ele>1939.5999755859</ele>
        <time>2022-02-23T09:50:22.000Z</time>
      </trkpt>
      <trkpt lat="45.69581" lon="6.26767">
        <ele>1940</ele>
        <time>2022-02-23T09:50:25.000Z</time>
      </trkpt>
      <trkpt lat="45.69581" lon="6.26768">
        <ele>1940.1999511719</ele>
        <time>2022-02-23T09:50:26.000Z</time>
      </trkpt>
      <trkpt lat="45.69581" lon="6.26768">
        <ele>1940.1999511719</ele>
        <time>2022-02-23T09:50:27.000Z</time>
      </trkpt>
      <trkpt lat="45.6958" lon="6.2677">
        <ele>1940.4000244141</ele>
        <time>2022-02-23T09:50:29.000Z</time>
      </trkpt>
      <trkpt lat="45.6958" lon="6.2677">
        <ele>1940.4000244141</ele>
        <time>2022-02-23T09:50:30.000Z</time>
      </trkpt>
      <trkpt lat="45.69579" lon="6.26771">
        <ele>1940.5999755859</ele>
        <time>2022-02-23T09:50:31.000Z</time>
      </trkpt>
      <trkpt lat="45.69579" lon="6.26771">
        <ele>1941.1999511719</ele>
        <time>2022-02-23T09:50:33.000Z</time>
      </trkpt>
      <trkpt lat="45.69579" lon="6.26771">
        <ele>1941.4000244141</ele>
        <time>2022-02-23T09:50:34.000Z</time>
      </trkpt>
      <trkpt lat="45.69578" lon="6.2677">
        <ele>1941.4000244141</ele>
        <time>2022-02-23T09:50:40.000Z</time>
      </trkpt>
      <trkpt lat="45.69579" lon="6.26766">
        <ele>1941.4000244141</ele>
        <time>2022-02-23T09:50:45.000Z</time>
      </trkpt>
      <trkpt lat="45.69578" lon="6.26766">
        <ele>1942.1999511719</ele>
        <time>2022-02-23T09:50:49.000Z</time>
      </trkpt>
      <trkpt lat="45.69578" lon="6.26766">
        <ele>1942.5999755859</ele>
        <time>2022-02-23T09:50:52.000Z</time>
      </trkpt>
      <trkpt lat="45.69578" lon="6.26766">
        <ele>1942.8000488281</ele>
        <time>2022-02-23T09:50:56.000Z</time>
      </trkpt>
      <trkpt lat="45.69578" lon="6.26762">
        <ele>1942.8000488281</ele>
        <time>2022-02-23T09:51:01.000Z</time>
      </trkpt>
      <trkpt lat="45.69577" lon="6.2676">
        <ele>1942.8000488281</ele>
        <time>2022-02-23T09:51:03.000Z</time>
      </trkpt>
      <trkpt lat="45.69577" lon="6.26757">
        <ele>1943.1999511719</ele>
        <time>2022-02-23T09:51:06.000Z</time>
      </trkpt>
      <trkpt lat="45.69577" lon="6.26757">
        <ele>1943.1999511719</ele>
        <time>2022-02-23T09:51:07.000Z</time>
      </trkpt>
      <trkpt lat="45.69577" lon="6.26753">
        <ele>1943.5999755859</ele>
        <time>2022-02-23T09:51:11.000Z</time>
      </trkpt>
      <trkpt lat="45.69577" lon="6.26752">
        <ele>1943.8000488281</ele>
        <time>2022-02-23T09:51:12.000Z</time>
      </trkpt>
      <trkpt lat="45.69577" lon="6.26751">
        <ele>1944.4000244141</ele>
        <time>2022-02-23T09:51:14.000Z</time>
      </trkpt>
      <trkpt lat="45.69576" lon="6.26749">
        <ele>1944.8000488281</ele>
        <time>2022-02-23T09:51:17.000Z</time>
      </trkpt>
      <trkpt lat="45.69576" lon="6.26746">
        <ele>1945.1999511719</ele>
        <time>2022-02-23T09:51:21.000Z</time>
      </trkpt>
      <trkpt lat="45.69575" lon="6.26744">
        <ele>1945.4000244141</ele>
        <time>2022-02-23T09:51:24.000Z</time>
      </trkpt>
      <trkpt lat="45.69575" lon="6.26743">
        <ele>1945.5999755859</ele>
        <time>2022-02-23T09:51:25.000Z</time>
      </trkpt>
      <trkpt lat="45.69575" lon="6.26742">
        <ele>1946</ele>
        <time>2022-02-23T09:51:26.000Z</time>
      </trkpt>
      <trkpt lat="45.69574" lon="6.26741">
        <ele>1946.4000244141</ele>
        <time>2022-02-23T09:51:27.000Z</time>
      </trkpt>
      <trkpt lat="45.69574" lon="6.2674">
        <ele>1946.5999755859</ele>
        <time>2022-02-23T09:51:28.000Z</time>
      </trkpt>
      <trkpt lat="45.69574" lon="6.26739">
        <ele>1946.8000488281</ele>
        <time>2022-02-23T09:51:29.000Z</time>
      </trkpt>
      <trkpt lat="45.69573" lon="6.26738">
        <ele>1947</ele>
        <time>2022-02-23T09:51:31.000Z</time>
      </trkpt>
      <trkpt lat="45.69572" lon="6.26737">
        <ele>1947.4000244141</ele>
        <time>2022-02-23T09:51:33.000Z</time>
      </trkpt>
      <trkpt lat="45.69572" lon="6.26735">
        <ele>1947.8000488281</ele>
        <time>2022-02-23T09:51:35.000Z</time>
      </trkpt>
      <trkpt lat="45.69571" lon="6.26732">
        <ele>1948.4000244141</ele>
        <time>2022-02-23T09:51:38.000Z</time>
      </trkpt>
      <trkpt lat="45.69571" lon="6.26729">
        <ele>1949</ele>
        <time>2022-02-23T09:51:42.000Z</time>
      </trkpt>
      <trkpt lat="45.6957" lon="6.26725">
        <ele>1949.1999511719</ele>
        <time>2022-02-23T09:51:47.000Z</time>
      </trkpt>
      <trkpt lat="45.69568" lon="6.26721">
        <ele>1950.1999511719</ele>
        <time>2022-02-23T09:51:52.000Z</time>
      </trkpt>
      <trkpt lat="45.69568" lon="6.26721">
        <ele>1950.4000244141</ele>
        <time>2022-02-23T09:51:53.000Z</time>
      </trkpt>
      <trkpt lat="45.69567" lon="6.26718">
        <ele>1951.1999511719</ele>
        <time>2022-02-23T09:51:56.000Z</time>
      </trkpt>
      <trkpt lat="45.69566" lon="6.26716">
        <ele>1951.5999755859</ele>
        <time>2022-02-23T09:51:59.000Z</time>
      </trkpt>
      <trkpt lat="45.69564" lon="6.26712">
        <ele>1952</ele>
        <time>2022-02-23T09:52:04.000Z</time>
      </trkpt>
      <trkpt lat="45.69563" lon="6.2671">
        <ele>1952.5999755859</ele>
        <time>2022-02-23T09:52:07.000Z</time>
      </trkpt>
      <trkpt lat="45.69562" lon="6.26708">
        <ele>1953.5999755859</ele>
        <time>2022-02-23T09:52:10.000Z</time>
      </trkpt>
      <trkpt lat="45.69562" lon="6.26708">
        <ele>1953.8000488281</ele>
        <time>2022-02-23T09:52:11.000Z</time>
      </trkpt>
      <trkpt lat="45.6956" lon="6.26707">
        <ele>1954.1999511719</ele>
        <time>2022-02-23T09:52:14.000Z</time>
      </trkpt>
      <trkpt lat="45.6956" lon="6.26706">
        <ele>1954.4000244141</ele>
        <time>2022-02-23T09:52:15.000Z</time>
      </trkpt>
      <trkpt lat="45.69559" lon="6.26706">
        <ele>1954.8000488281</ele>
        <time>2022-02-23T09:52:17.000Z</time>
      </trkpt>
      <trkpt lat="45.69558" lon="6.26706">
        <ele>1955</ele>
        <time>2022-02-23T09:52:18.000Z</time>
      </trkpt>
      <trkpt lat="45.69558" lon="6.26706">
        <ele>1955.4000244141</ele>
        <time>2022-02-23T09:52:19.000Z</time>
      </trkpt>
      <trkpt lat="45.69557" lon="6.26705">
        <ele>1955.5999755859</ele>
        <time>2022-02-23T09:52:21.000Z</time>
      </trkpt>
      <trkpt lat="45.69557" lon="6.26705">
        <ele>1955.8000488281</ele>
        <time>2022-02-23T09:52:22.000Z</time>
      </trkpt>
      <trkpt lat="45.69556" lon="6.26705">
        <ele>1955.8000488281</ele>
        <time>2022-02-23T09:52:23.000Z</time>
      </trkpt>
      <trkpt lat="45.69555" lon="6.26705">
        <ele>1955.8000488281</ele>
        <time>2022-02-23T09:52:25.000Z</time>
      </trkpt>
      <trkpt lat="45.69555" lon="6.26705">
        <ele>1956.4000244141</ele>
        <time>2022-02-23T09:52:26.000Z</time>
      </trkpt>
      <trkpt lat="45.69554" lon="6.26704">
        <ele>1957</ele>
        <time>2022-02-23T09:52:27.000Z</time>
      </trkpt>
      <trkpt lat="45.69553" lon="6.26704">
        <ele>1957.5999755859</ele>
        <time>2022-02-23T09:52:29.000Z</time>
      </trkpt>
      <trkpt lat="45.69553" lon="6.26704">
        <ele>1957.5999755859</ele>
        <time>2022-02-23T09:52:30.000Z</time>
      </trkpt>
      <trkpt lat="45.69551" lon="6.26704">
        <ele>1958.5999755859</ele>
        <time>2022-02-23T09:52:34.000Z</time>
      </trkpt>
      <trkpt lat="45.69549" lon="6.26703">
        <ele>1959.5999755859</ele>
        <time>2022-02-23T09:52:39.000Z</time>
      </trkpt>
      <trkpt lat="45.69548" lon="6.26703">
        <ele>1959.5999755859</ele>
        <time>2022-02-23T09:52:40.000Z</time>
      </trkpt>
      <trkpt lat="45.69547" lon="6.26703">
        <ele>1960</ele>
        <time>2022-02-23T09:52:42.000Z</time>
      </trkpt>
      <trkpt lat="45.69547" lon="6.26703">
        <ele>1960.1999511719</ele>
        <time>2022-02-23T09:52:43.000Z</time>
      </trkpt>
      <trkpt lat="45.69546" lon="6.26703">
        <ele>1960.1999511719</ele>
        <time>2022-02-23T09:52:44.000Z</time>
      </trkpt>
      <trkpt lat="45.69545" lon="6.26702">
        <ele>1960.4000244141</ele>
        <time>2022-02-23T09:52:46.000Z</time>
      </trkpt>
      <trkpt lat="45.69545" lon="6.26702">
        <ele>1960.8000488281</ele>
        <time>2022-02-23T09:52:47.000Z</time>
      </trkpt>
      <trkpt lat="45.69544" lon="6.26702">
        <ele>1960.8000488281</ele>
        <time>2022-02-23T09:52:48.000Z</time>
      </trkpt>
      <trkpt lat="45.69543" lon="6.26701">
        <ele>1961.1999511719</ele>
        <time>2022-02-23T09:52:50.000Z</time>
      </trkpt>
      <trkpt lat="45.69543" lon="6.26701">
        <ele>1961.4000244141</ele>
        <time>2022-02-23T09:52:51.000Z</time>
      </trkpt>
      <trkpt lat="45.69542" lon="6.26701">
        <ele>1961.5999755859</ele>
        <time>2022-02-23T09:52:52.000Z</time>
      </trkpt>
      <trkpt lat="45.6954" lon="6.26701">
        <ele>1961.8000488281</ele>
        <time>2022-02-23T09:52:55.000Z</time>
      </trkpt>
      <trkpt lat="45.6954" lon="6.26701">
        <ele>1962</ele>
        <time>2022-02-23T09:52:56.000Z</time>
      </trkpt>
      <trkpt lat="45.69538" lon="6.267">
        <ele>1962.8000488281</ele>
        <time>2022-02-23T09:53:00.000Z</time>
      </trkpt>
      <trkpt lat="45.69537" lon="6.26698">
        <ele>1963.1999511719</ele>
        <time>2022-02-23T09:53:03.000Z</time>
      </trkpt>
      <trkpt lat="45.69537" lon="6.26697">
        <ele>1963.1999511719</ele>
        <time>2022-02-23T09:53:04.000Z</time>
      </trkpt>
      <trkpt lat="45.69538" lon="6.26695">
        <ele>1963.8000488281</ele>
        <time>2022-02-23T09:53:08.000Z</time>
      </trkpt>
      <trkpt lat="45.69538" lon="6.26694">
        <ele>1964</ele>
        <time>2022-02-23T09:53:09.000Z</time>
      </trkpt>
      <trkpt lat="45.69539" lon="6.26692">
        <ele>1964.5999755859</ele>
        <time>2022-02-23T09:53:13.000Z</time>
      </trkpt>
      <trkpt lat="45.6954" lon="6.26691">
        <ele>1964.5999755859</ele>
        <time>2022-02-23T09:53:14.000Z</time>
      </trkpt>
      <trkpt lat="45.6954" lon="6.2669">
        <ele>1964.8000488281</ele>
        <time>2022-02-23T09:53:16.000Z</time>
      </trkpt>
      <trkpt lat="45.69541" lon="6.2669">
        <ele>1965.1999511719</ele>
        <time>2022-02-23T09:53:18.000Z</time>
      </trkpt>
      <trkpt lat="45.69542" lon="6.26687">
        <ele>1965.5999755859</ele>
        <time>2022-02-23T09:53:23.000Z</time>
      </trkpt>
      <trkpt lat="45.69543" lon="6.26686">
        <ele>1966</ele>
        <time>2022-02-23T09:53:25.000Z</time>
      </trkpt>
      <trkpt lat="45.69544" lon="6.26684">
        <ele>1966.4000244141</ele>
        <time>2022-02-23T09:53:27.000Z</time>
      </trkpt>
      <trkpt lat="45.69545" lon="6.26682">
        <ele>1967</ele>
        <time>2022-02-23T09:53:31.000Z</time>
      </trkpt>
      <trkpt lat="45.69546" lon="6.26679">
        <ele>1967.5999755859</ele>
        <time>2022-02-23T09:53:35.000Z</time>
      </trkpt>
      <trkpt lat="45.69546" lon="6.2668">
        <ele>1968</ele>
        <time>2022-02-23T09:53:39.000Z</time>
      </trkpt>
      <trkpt lat="45.69546" lon="6.2668">
        <ele>1968.1999511719</ele>
        <time>2022-02-23T09:53:41.000Z</time>
      </trkpt>
      <trkpt lat="45.69544" lon="6.26681">
        <ele>1969.1999511719</ele>
        <time>2022-02-23T09:53:45.000Z</time>
      </trkpt>
      <trkpt lat="45.69543" lon="6.26681">
        <ele>1969.5999755859</ele>
        <time>2022-02-23T09:53:47.000Z</time>
      </trkpt>
      <trkpt lat="45.69542" lon="6.26681">
        <ele>1969.5999755859</ele>
        <time>2022-02-23T09:53:48.000Z</time>
      </trkpt>
      <trkpt lat="45.69542" lon="6.26681">
        <ele>1969.5999755859</ele>
        <time>2022-02-23T09:53:49.000Z</time>
      </trkpt>
      <trkpt lat="45.69541" lon="6.26681">
        <ele>1969.8000488281</ele>
        <time>2022-02-23T09:53:51.000Z</time>
      </trkpt>
      <trkpt lat="45.6954" lon="6.26681">
        <ele>1969.8000488281</ele>
        <time>2022-02-23T09:53:52.000Z</time>
      </trkpt>
      <trkpt lat="45.69537" lon="6.2668">
        <ele>1970.4000244141</ele>
        <time>2022-02-23T09:53:57.000Z</time>
      </trkpt>
      <trkpt lat="45.69536" lon="6.26679">
        <ele>1970.8000488281</ele>
        <time>2022-02-23T09:54:00.000Z</time>
      </trkpt>
      <trkpt lat="45.69535" lon="6.2668">
        <ele>1970.8000488281</ele>
        <time>2022-02-23T09:54:01.000Z</time>
      </trkpt>
      <trkpt lat="45.69535" lon="6.26679">
        <ele>1970.8000488281</ele>
        <time>2022-02-23T09:54:02.000Z</time>
      </trkpt>
      <trkpt lat="45.69533" lon="6.26679">
        <ele>1970.8000488281</ele>
        <time>2022-02-23T09:54:04.000Z</time>
      </trkpt>
      <trkpt lat="45.69532" lon="6.26678">
        <ele>1971.1999511719</ele>
        <time>2022-02-23T09:54:06.000Z</time>
      </trkpt>
      <trkpt lat="45.69532" lon="6.26678">
        <ele>1971.5999755859</ele>
        <time>2022-02-23T09:54:07.000Z</time>
      </trkpt>
      <trkpt lat="45.69531" lon="6.26678">
        <ele>1971.8000488281</ele>
        <time>2022-02-23T09:54:08.000Z</time>
      </trkpt>
      <trkpt lat="45.6953" lon="6.26677">
        <ele>1972.8000488281</ele>
        <time>2022-02-23T09:54:11.000Z</time>
      </trkpt>
      <trkpt lat="45.69529" lon="6.26677">
        <ele>1973.1999511719</ele>
        <time>2022-02-23T09:54:13.000Z</time>
      </trkpt>
      <trkpt lat="45.69527" lon="6.26676">
        <ele>1973.4000244141</ele>
        <time>2022-02-23T09:54:17.000Z</time>
      </trkpt>
      <trkpt lat="45.69526" lon="6.26676">
        <ele>1974</ele>
        <time>2022-02-23T09:54:19.000Z</time>
      </trkpt>
      <trkpt lat="45.69526" lon="6.26676">
        <ele>1974.4000244141</ele>
        <time>2022-02-23T09:54:21.000Z</time>
      </trkpt>
      <trkpt lat="45.69525" lon="6.26676">
        <ele>1974.5999755859</ele>
        <time>2022-02-23T09:54:23.000Z</time>
      </trkpt>
      <trkpt lat="45.69524" lon="6.26676">
        <ele>1975</ele>
        <time>2022-02-23T09:54:26.000Z</time>
      </trkpt>
      <trkpt lat="45.69522" lon="6.26675">
        <ele>1976</ele>
        <time>2022-02-23T09:54:30.000Z</time>
      </trkpt>
      <trkpt lat="45.69521" lon="6.26675">
        <ele>1976</ele>
        <time>2022-02-23T09:54:31.000Z</time>
      </trkpt>
      <trkpt lat="45.69521" lon="6.26675">
        <ele>1976.1999511719</ele>
        <time>2022-02-23T09:54:32.000Z</time>
      </trkpt>
      <trkpt lat="45.6952" lon="6.26675">
        <ele>1976.1999511719</ele>
        <time>2022-02-23T09:54:34.000Z</time>
      </trkpt>
      <trkpt lat="45.69518" lon="6.26674">
        <ele>1976.8000488281</ele>
        <time>2022-02-23T09:54:39.000Z</time>
      </trkpt>
      <trkpt lat="45.69517" lon="6.26673">
        <ele>1977.1999511719</ele>
        <time>2022-02-23T09:54:41.000Z</time>
      </trkpt>
      <trkpt lat="45.69517" lon="6.26672">
        <ele>1977.5999755859</ele>
        <time>2022-02-23T09:54:43.000Z</time>
      </trkpt>
      <trkpt lat="45.69517" lon="6.26671">
        <ele>1977.8000488281</ele>
        <time>2022-02-23T09:54:45.000Z</time>
      </trkpt>
      <trkpt lat="45.69517" lon="6.2667">
        <ele>1977.8000488281</ele>
        <time>2022-02-23T09:54:47.000Z</time>
      </trkpt>
      <trkpt lat="45.69519" lon="6.26667">
        <ele>1977.8000488281</ele>
        <time>2022-02-23T09:54:51.000Z</time>
      </trkpt>
      <trkpt lat="45.6952" lon="6.26666">
        <ele>1978.5999755859</ele>
        <time>2022-02-23T09:54:53.000Z</time>
      </trkpt>
      <trkpt lat="45.69522" lon="6.26664">
        <ele>1979.1999511719</ele>
        <time>2022-02-23T09:54:56.000Z</time>
      </trkpt>
      <trkpt lat="45.69522" lon="6.26663">
        <ele>1979.1999511719</ele>
        <time>2022-02-23T09:54:57.000Z</time>
      </trkpt>
      <trkpt lat="45.69524" lon="6.26661">
        <ele>1979.5999755859</ele>
        <time>2022-02-23T09:55:01.000Z</time>
      </trkpt>
      <trkpt lat="45.69524" lon="6.2666">
        <ele>1979.8000488281</ele>
        <time>2022-02-23T09:55:02.000Z</time>
      </trkpt>
      <trkpt lat="45.69525" lon="6.26659">
        <ele>1980.5999755859</ele>
        <time>2022-02-23T09:55:05.000Z</time>
      </trkpt>
      <trkpt lat="45.69525" lon="6.26659">
        <ele>1980.5999755859</ele>
        <time>2022-02-23T09:55:06.000Z</time>
      </trkpt>
      <trkpt lat="45.69527" lon="6.26656">
        <ele>1981.1999511719</ele>
        <time>2022-02-23T09:55:12.000Z</time>
      </trkpt>
      <trkpt lat="45.69528" lon="6.26656">
        <ele>1981.1999511719</ele>
        <time>2022-02-23T09:55:13.000Z</time>
      </trkpt>
      <trkpt lat="45.69527" lon="6.26655">
        <ele>1981.5999755859</ele>
        <time>2022-02-23T09:55:15.000Z</time>
      </trkpt>
      <trkpt lat="45.69527" lon="6.26656">
        <ele>1981.8000488281</ele>
        <time>2022-02-23T09:55:17.000Z</time>
      </trkpt>
      <trkpt lat="45.69527" lon="6.26655">
        <ele>1981.8000488281</ele>
        <time>2022-02-23T09:55:19.000Z</time>
      </trkpt>
      <trkpt lat="45.69526" lon="6.26655">
        <ele>1982.1999511719</ele>
        <time>2022-02-23T09:55:24.000Z</time>
      </trkpt>
      <trkpt lat="45.69525" lon="6.26656">
        <ele>1982.8000488281</ele>
        <time>2022-02-23T09:55:27.000Z</time>
      </trkpt>
      <trkpt lat="45.69524" lon="6.26655">
        <ele>1982.8000488281</ele>
        <time>2022-02-23T09:55:28.000Z</time>
      </trkpt>
      <trkpt lat="45.69523" lon="6.26655">
        <ele>1983.1999511719</ele>
        <time>2022-02-23T09:55:30.000Z</time>
      </trkpt>
      <trkpt lat="45.69522" lon="6.26654">
        <ele>1983.5999755859</ele>
        <time>2022-02-23T09:55:32.000Z</time>
      </trkpt>
      <trkpt lat="45.6952" lon="6.26653">
        <ele>1984</ele>
        <time>2022-02-23T09:55:35.000Z</time>
      </trkpt>
      <trkpt lat="45.69519" lon="6.26653">
        <ele>1984.1999511719</ele>
        <time>2022-02-23T09:55:37.000Z</time>
      </trkpt>
      <trkpt lat="45.69517" lon="6.26651">
        <ele>1984.5999755859</ele>
        <time>2022-02-23T09:55:41.000Z</time>
      </trkpt>
      <trkpt lat="45.69516" lon="6.2665">
        <ele>1984.8000488281</ele>
        <time>2022-02-23T09:55:42.000Z</time>
      </trkpt>
      <trkpt lat="45.69515" lon="6.2665">
        <ele>1984.8000488281</ele>
        <time>2022-02-23T09:55:44.000Z</time>
      </trkpt>
      <trkpt lat="45.69515" lon="6.2665">
        <ele>1985</ele>
        <time>2022-02-23T09:55:45.000Z</time>
      </trkpt>
      <trkpt lat="45.69513" lon="6.26648">
        <ele>1986.1999511719</ele>
        <time>2022-02-23T09:55:50.000Z</time>
      </trkpt>
      <trkpt lat="45.69511" lon="6.26647">
        <ele>1987</ele>
        <time>2022-02-23T09:55:53.000Z</time>
      </trkpt>
      <trkpt lat="45.6951" lon="6.26647">
        <ele>1987.1999511719</ele>
        <time>2022-02-23T09:55:55.000Z</time>
      </trkpt>
      <trkpt lat="45.69509" lon="6.26647">
        <ele>1987.1999511719</ele>
        <time>2022-02-23T09:55:57.000Z</time>
      </trkpt>
      <trkpt lat="45.69508" lon="6.26646">
        <ele>1987.5999755859</ele>
        <time>2022-02-23T09:55:59.000Z</time>
      </trkpt>
      <trkpt lat="45.69507" lon="6.26646">
        <ele>1988</ele>
        <time>2022-02-23T09:56:01.000Z</time>
      </trkpt>
      <trkpt lat="45.69506" lon="6.26646">
        <ele>1988.1999511719</ele>
        <time>2022-02-23T09:56:03.000Z</time>
      </trkpt>
      <trkpt lat="45.69506" lon="6.26645">
        <ele>1988.8000488281</ele>
        <time>2022-02-23T09:56:05.000Z</time>
      </trkpt>
      <trkpt lat="45.69503" lon="6.26644">
        <ele>1989.1999511719</ele>
        <time>2022-02-23T09:56:09.000Z</time>
      </trkpt>
      <trkpt lat="45.69503" lon="6.26644">
        <ele>1989.4000244141</ele>
        <time>2022-02-23T09:56:10.000Z</time>
      </trkpt>
      <trkpt lat="45.69501" lon="6.26643">
        <ele>1990</ele>
        <time>2022-02-23T09:56:13.000Z</time>
      </trkpt>
      <trkpt lat="45.695" lon="6.26643">
        <ele>1990.5999755859</ele>
        <time>2022-02-23T09:56:15.000Z</time>
      </trkpt>
      <trkpt lat="45.69498" lon="6.26644">
        <ele>1991</ele>
        <time>2022-02-23T09:56:19.000Z</time>
      </trkpt>
      <trkpt lat="45.69497" lon="6.26645">
        <ele>1991.4000244141</ele>
        <time>2022-02-23T09:56:23.000Z</time>
      </trkpt>
      <trkpt lat="45.69496" lon="6.26646">
        <ele>1991.4000244141</ele>
        <time>2022-02-23T09:56:25.000Z</time>
      </trkpt>
      <trkpt lat="45.69496" lon="6.26646">
        <ele>1991.5999755859</ele>
        <time>2022-02-23T09:56:26.000Z</time>
      </trkpt>
      <trkpt lat="45.69495" lon="6.26646">
        <ele>1991.8000488281</ele>
        <time>2022-02-23T09:56:27.000Z</time>
      </trkpt>
      <trkpt lat="45.69494" lon="6.26646">
        <ele>1992</ele>
        <time>2022-02-23T09:56:29.000Z</time>
      </trkpt>
      <trkpt lat="45.69494" lon="6.26646">
        <ele>1992.4000244141</ele>
        <time>2022-02-23T09:56:31.000Z</time>
      </trkpt>
      <trkpt lat="45.69492" lon="6.26645">
        <ele>1992.4000244141</ele>
        <time>2022-02-23T09:56:33.000Z</time>
      </trkpt>
      <trkpt lat="45.69491" lon="6.26645">
        <ele>1992.5999755859</ele>
        <time>2022-02-23T09:56:35.000Z</time>
      </trkpt>
      <trkpt lat="45.69491" lon="6.26645">
        <ele>1992.8000488281</ele>
        <time>2022-02-23T09:56:36.000Z</time>
      </trkpt>
      <trkpt lat="45.69489" lon="6.26645">
        <ele>1993.5999755859</ele>
        <time>2022-02-23T09:56:39.000Z</time>
      </trkpt>
      <trkpt lat="45.69488" lon="6.26645">
        <ele>1993.8000488281</ele>
        <time>2022-02-23T09:56:41.000Z</time>
      </trkpt>
      <trkpt lat="45.69487" lon="6.26644">
        <ele>1994.1999511719</ele>
        <time>2022-02-23T09:56:44.000Z</time>
      </trkpt>
      <trkpt lat="45.69485" lon="6.26643">
        <ele>1994.4000244141</ele>
        <time>2022-02-23T09:56:47.000Z</time>
      </trkpt>
      <trkpt lat="45.69485" lon="6.26643">
        <ele>1994.4000244141</ele>
        <time>2022-02-23T09:56:48.000Z</time>
      </trkpt>
      <trkpt lat="45.69484" lon="6.26643">
        <ele>1994.5999755859</ele>
        <time>2022-02-23T09:56:50.000Z</time>
      </trkpt>
      <trkpt lat="45.69483" lon="6.26642">
        <ele>1994.8000488281</ele>
        <time>2022-02-23T09:56:52.000Z</time>
      </trkpt>
      <trkpt lat="45.69483" lon="6.26642">
        <ele>1995</ele>
        <time>2022-02-23T09:56:53.000Z</time>
      </trkpt>
      <trkpt lat="45.69481" lon="6.26641">
        <ele>1995.1999511719</ele>
        <time>2022-02-23T09:56:56.000Z</time>
      </trkpt>
      <trkpt lat="45.6948" lon="6.26641">
        <ele>1996</ele>
        <time>2022-02-23T09:57:00.000Z</time>
      </trkpt>
      <trkpt lat="45.69478" lon="6.26639">
        <ele>1996.4000244141</ele>
        <time>2022-02-23T09:57:03.000Z</time>
      </trkpt>
      <trkpt lat="45.69478" lon="6.26639">
        <ele>1996.5999755859</ele>
        <time>2022-02-23T09:57:04.000Z</time>
      </trkpt>
      <trkpt lat="45.69477" lon="6.26638">
        <ele>1996.5999755859</ele>
        <time>2022-02-23T09:57:05.000Z</time>
      </trkpt>
      <trkpt lat="45.69476" lon="6.26637">
        <ele>1996.8000488281</ele>
        <time>2022-02-23T09:57:07.000Z</time>
      </trkpt>
      <trkpt lat="45.69476" lon="6.26637">
        <ele>1997.1999511719</ele>
        <time>2022-02-23T09:57:08.000Z</time>
      </trkpt>
      <trkpt lat="45.69476" lon="6.26636">
        <ele>1997.4000244141</ele>
        <time>2022-02-23T09:57:09.000Z</time>
      </trkpt>
      <trkpt lat="45.69475" lon="6.26636">
        <ele>1997.5999755859</ele>
        <time>2022-02-23T09:57:11.000Z</time>
      </trkpt>
      <trkpt lat="45.69473" lon="6.26635">
        <ele>1997.5999755859</ele>
        <time>2022-02-23T09:57:13.000Z</time>
      </trkpt>
      <trkpt lat="45.69472" lon="6.26635">
        <ele>1998</ele>
        <time>2022-02-23T09:57:15.000Z</time>
      </trkpt>
      <trkpt lat="45.69472" lon="6.26635">
        <ele>1998</ele>
        <time>2022-02-23T09:57:16.000Z</time>
      </trkpt>
      <trkpt lat="45.69472" lon="6.26635">
        <ele>1998.5999755859</ele>
        <time>2022-02-23T09:57:17.000Z</time>
      </trkpt>
      <trkpt lat="45.6947" lon="6.26633">
        <ele>1999.4000244141</ele>
        <time>2022-02-23T09:57:21.000Z</time>
      </trkpt>
      <trkpt lat="45.69471" lon="6.26632">
        <ele>1999.5999755859</ele>
        <time>2022-02-23T09:57:25.000Z</time>
      </trkpt>
      <trkpt lat="45.69472" lon="6.26631">
        <ele>1999.5999755859</ele>
        <time>2022-02-23T09:57:26.000Z</time>
      </trkpt>
      <trkpt lat="45.69475" lon="6.2663">
        <ele>1999.5999755859</ele>
        <time>2022-02-23T09:57:32.000Z</time>
      </trkpt>
      <trkpt lat="45.69476" lon="6.2663">
        <ele>1999.5999755859</ele>
        <time>2022-02-23T09:57:33.000Z</time>
      </trkpt>
      <trkpt lat="45.69477" lon="6.2663">
        <ele>2000</ele>
        <time>2022-02-23T09:57:34.000Z</time>
      </trkpt>
      <trkpt lat="45.69479" lon="6.26629">
        <ele>2000.5999755859</ele>
        <time>2022-02-23T09:57:39.000Z</time>
      </trkpt>
      <trkpt lat="45.69482" lon="6.26627">
        <ele>2000.8000488281</ele>
        <time>2022-02-23T09:57:45.000Z</time>
      </trkpt>
      <trkpt lat="45.69483" lon="6.26627">
        <ele>2001</ele>
        <time>2022-02-23T09:57:47.000Z</time>
      </trkpt>
      <trkpt lat="45.69484" lon="6.26626">
        <ele>2001</ele>
        <time>2022-02-23T09:57:49.000Z</time>
      </trkpt>
      <trkpt lat="45.69485" lon="6.26626">
        <ele>2001</ele>
        <time>2022-02-23T09:57:51.000Z</time>
      </trkpt>
      <trkpt lat="45.69486" lon="6.26625">
        <ele>2001.1999511719</ele>
        <time>2022-02-23T09:57:55.000Z</time>
      </trkpt>
      <trkpt lat="45.69487" lon="6.26624">
        <ele>2001.4000244141</ele>
        <time>2022-02-23T09:57:57.000Z</time>
      </trkpt>
      <trkpt lat="45.69488" lon="6.26623">
        <ele>2001.5999755859</ele>
        <time>2022-02-23T09:58:00.000Z</time>
      </trkpt>
      <trkpt lat="45.69489" lon="6.26622">
        <ele>2001.8000488281</ele>
        <time>2022-02-23T09:58:01.000Z</time>
      </trkpt>
      <trkpt lat="45.6949" lon="6.26621">
        <ele>2002.1999511719</ele>
        <time>2022-02-23T09:58:03.000Z</time>
      </trkpt>
      <trkpt lat="45.69491" lon="6.26621">
        <ele>2002.4000244141</ele>
        <time>2022-02-23T09:58:04.000Z</time>
      </trkpt>
      <trkpt lat="45.69493" lon="6.26621">
        <ele>2002.5999755859</ele>
        <time>2022-02-23T09:58:10.000Z</time>
      </trkpt>
      <trkpt lat="45.69494" lon="6.2662">
        <ele>2002.8000488281</ele>
        <time>2022-02-23T09:58:17.000Z</time>
      </trkpt>
      <trkpt lat="45.69495" lon="6.26618">
        <ele>2002.8000488281</ele>
        <time>2022-02-23T09:58:19.000Z</time>
      </trkpt>
      <trkpt lat="45.69496" lon="6.26617">
        <ele>2003.1999511719</ele>
        <time>2022-02-23T09:58:22.000Z</time>
      </trkpt>
      <trkpt lat="45.69499" lon="6.26615">
        <ele>2004</ele>
        <time>2022-02-23T09:58:28.000Z</time>
      </trkpt>
      <trkpt lat="45.69502" lon="6.26612">
        <ele>2004.1999511719</ele>
        <time>2022-02-23T09:58:33.000Z</time>
      </trkpt>
      <trkpt lat="45.69504" lon="6.26611">
        <ele>2004.4000244141</ele>
        <time>2022-02-23T09:58:36.000Z</time>
      </trkpt>
      <trkpt lat="45.69506" lon="6.2661">
        <ele>2005</ele>
        <time>2022-02-23T09:58:38.000Z</time>
      </trkpt>
      <trkpt lat="45.69507" lon="6.26608">
        <ele>2005.5999755859</ele>
        <time>2022-02-23T09:58:41.000Z</time>
      </trkpt>
      <trkpt lat="45.69507" lon="6.26607">
        <ele>2006</ele>
        <time>2022-02-23T09:58:43.000Z</time>
      </trkpt>
      <trkpt lat="45.69508" lon="6.26607">
        <ele>2006.1999511719</ele>
        <time>2022-02-23T09:58:44.000Z</time>
      </trkpt>
      <trkpt lat="45.69509" lon="6.26606">
        <ele>2006.4000244141</ele>
        <time>2022-02-23T09:58:47.000Z</time>
      </trkpt>
      <trkpt lat="45.6951" lon="6.26605">
        <ele>2006.4000244141</ele>
        <time>2022-02-23T09:58:48.000Z</time>
      </trkpt>
      <trkpt lat="45.69511" lon="6.26603">
        <ele>2006.5999755859</ele>
        <time>2022-02-23T09:58:51.000Z</time>
      </trkpt>
      <trkpt lat="45.69512" lon="6.26603">
        <ele>2006.5999755859</ele>
        <time>2022-02-23T09:58:52.000Z</time>
      </trkpt>
      <trkpt lat="45.69512" lon="6.26601">
        <ele>2007.1999511719</ele>
        <time>2022-02-23T09:58:55.000Z</time>
      </trkpt>
      <trkpt lat="45.69513" lon="6.266">
        <ele>2007.1999511719</ele>
        <time>2022-02-23T09:58:57.000Z</time>
      </trkpt>
      <trkpt lat="45.69514" lon="6.26598">
        <ele>2007.5999755859</ele>
        <time>2022-02-23T09:58:59.000Z</time>
      </trkpt>
      <trkpt lat="45.69515" lon="6.26597">
        <ele>2008</ele>
        <time>2022-02-23T09:59:00.000Z</time>
      </trkpt>
      <trkpt lat="45.69515" lon="6.26597">
        <ele>2008.4000244141</ele>
        <time>2022-02-23T09:59:01.000Z</time>
      </trkpt>
      <trkpt lat="45.69516" lon="6.26595">
        <ele>2009.1999511719</ele>
        <time>2022-02-23T09:59:04.000Z</time>
      </trkpt>
      <trkpt lat="45.69517" lon="6.26594">
        <ele>2009.4000244141</ele>
        <time>2022-02-23T09:59:05.000Z</time>
      </trkpt>
      <trkpt lat="45.69517" lon="6.26594">
        <ele>2009.5999755859</ele>
        <time>2022-02-23T09:59:06.000Z</time>
      </trkpt>
      <trkpt lat="45.69518" lon="6.26594">
        <ele>2009.8000488281</ele>
        <time>2022-02-23T09:59:07.000Z</time>
      </trkpt>
      <trkpt lat="45.69518" lon="6.26593">
        <ele>2010</ele>
        <time>2022-02-23T09:59:08.000Z</time>
      </trkpt>
      <trkpt lat="45.69519" lon="6.26593">
        <ele>2010.4000244141</ele>
        <time>2022-02-23T09:59:09.000Z</time>
      </trkpt>
      <trkpt lat="45.69519" lon="6.26592">
        <ele>2010.5999755859</ele>
        <time>2022-02-23T09:59:10.000Z</time>
      </trkpt>
      <trkpt lat="45.69521" lon="6.26591">
        <ele>2011.1999511719</ele>
        <time>2022-02-23T09:59:15.000Z</time>
      </trkpt>
      <trkpt lat="45.69521" lon="6.26591">
        <ele>2011.5999755859</ele>
        <time>2022-02-23T09:59:19.000Z</time>
      </trkpt>
      <trkpt lat="45.6952" lon="6.26591">
        <ele>2012</ele>
        <time>2022-02-23T09:59:20.000Z</time>
      </trkpt>
      <trkpt lat="45.69518" lon="6.26591">
        <ele>2012.1999511719</ele>
        <time>2022-02-23T09:59:24.000Z</time>
      </trkpt>
      <trkpt lat="45.69517" lon="6.26591">
        <ele>2012.1999511719</ele>
        <time>2022-02-23T09:59:25.000Z</time>
      </trkpt>
      <trkpt lat="45.69516" lon="6.2659">
        <ele>2012.4000244141</ele>
        <time>2022-02-23T09:59:27.000Z</time>
      </trkpt>
      <trkpt lat="45.69515" lon="6.2659">
        <ele>2012.4000244141</ele>
        <time>2022-02-23T09:59:28.000Z</time>
      </trkpt>
      <trkpt lat="45.69515" lon="6.2659">
        <ele>2012.5999755859</ele>
        <time>2022-02-23T09:59:29.000Z</time>
      </trkpt>
      <trkpt lat="45.69514" lon="6.2659">
        <ele>2012.8000488281</ele>
        <time>2022-02-23T09:59:30.000Z</time>
      </trkpt>
      <trkpt lat="45.69514" lon="6.2659">
        <ele>2012.8000488281</ele>
        <time>2022-02-23T09:59:31.000Z</time>
      </trkpt>
      <trkpt lat="45.69513" lon="6.2659">
        <ele>2013</ele>
        <time>2022-02-23T09:59:32.000Z</time>
      </trkpt>
      <trkpt lat="45.69513" lon="6.26589">
        <ele>2013</ele>
        <time>2022-02-23T09:59:33.000Z</time>
      </trkpt>
      <trkpt lat="45.69511" lon="6.26589">
        <ele>2013.4000244141</ele>
        <time>2022-02-23T09:59:36.000Z</time>
      </trkpt>
      <trkpt lat="45.6951" lon="6.26589">
        <ele>2013.8000488281</ele>
        <time>2022-02-23T09:59:38.000Z</time>
      </trkpt>
      <trkpt lat="45.69508" lon="6.26588">
        <ele>2014.1999511719</ele>
        <time>2022-02-23T09:59:42.000Z</time>
      </trkpt>
      <trkpt lat="45.69506" lon="6.26588">
        <ele>2014.8000488281</ele>
        <time>2022-02-23T09:59:45.000Z</time>
      </trkpt>
      <trkpt lat="45.69506" lon="6.26588">
        <ele>2015</ele>
        <time>2022-02-23T09:59:46.000Z</time>
      </trkpt>
      <trkpt lat="45.69506" lon="6.26587">
        <ele>2015.8000488281</ele>
        <time>2022-02-23T09:59:51.000Z</time>
      </trkpt>
      <trkpt lat="45.69507" lon="6.26585">
        <ele>2015.5999755859</ele>
        <time>2022-02-23T09:59:56.000Z</time>
      </trkpt>
      <trkpt lat="45.69508" lon="6.26583">
        <ele>2016</ele>
        <time>2022-02-23T10:00:01.000Z</time>
      </trkpt>
      <trkpt lat="45.6951" lon="6.26581">
        <ele>2016.5999755859</ele>
        <time>2022-02-23T10:00:06.000Z</time>
      </trkpt>
      <trkpt lat="45.6951" lon="6.2658">
        <ele>2016.8000488281</ele>
        <time>2022-02-23T10:00:07.000Z</time>
      </trkpt>
      <trkpt lat="45.69511" lon="6.2658">
        <ele>2017</ele>
        <time>2022-02-23T10:00:08.000Z</time>
      </trkpt>
      <trkpt lat="45.69512" lon="6.26579">
        <ele>2018.1999511719</ele>
        <time>2022-02-23T10:00:14.000Z</time>
      </trkpt>
      <trkpt lat="45.69512" lon="6.26579">
        <ele>2018.1999511719</ele>
        <time>2022-02-23T10:00:15.000Z</time>
      </trkpt>
      <trkpt lat="45.69511" lon="6.26579">
        <ele>2018.4000244141</ele>
        <time>2022-02-23T10:00:20.000Z</time>
      </trkpt>
      <trkpt lat="45.69509" lon="6.26579">
        <ele>2019</ele>
        <time>2022-02-23T10:00:24.000Z</time>
      </trkpt>
      <trkpt lat="45.69508" lon="6.26579">
        <ele>2019.1999511719</ele>
        <time>2022-02-23T10:00:25.000Z</time>
      </trkpt>
      <trkpt lat="45.69508" lon="6.26579">
        <ele>2019.4000244141</ele>
        <time>2022-02-23T10:00:26.000Z</time>
      </trkpt>
      <trkpt lat="45.69506" lon="6.26579">
        <ele>2020</ele>
        <time>2022-02-23T10:00:30.000Z</time>
      </trkpt>
      <trkpt lat="45.69505" lon="6.26578">
        <ele>2020</ele>
        <time>2022-02-23T10:00:32.000Z</time>
      </trkpt>
      <trkpt lat="45.69504" lon="6.26578">
        <ele>2020</ele>
        <time>2022-02-23T10:00:33.000Z</time>
      </trkpt>
      <trkpt lat="45.69504" lon="6.26578">
        <ele>2020</ele>
        <time>2022-02-23T10:00:34.000Z</time>
      </trkpt>
      <trkpt lat="45.69503" lon="6.26578">
        <ele>2020</ele>
        <time>2022-02-23T10:00:35.000Z</time>
      </trkpt>
      <trkpt lat="45.69502" lon="6.26577">
        <ele>2020.1999511719</ele>
        <time>2022-02-23T10:00:37.000Z</time>
      </trkpt>
      <trkpt lat="45.695" lon="6.26576">
        <ele>2020.8000488281</ele>
        <time>2022-02-23T10:00:41.000Z</time>
      </trkpt>
      <trkpt lat="45.69499" lon="6.26576">
        <ele>2021.4000244141</ele>
        <time>2022-02-23T10:00:43.000Z</time>
      </trkpt>
      <trkpt lat="45.69498" lon="6.26576">
        <ele>2021.8000488281</ele>
        <time>2022-02-23T10:00:44.000Z</time>
      </trkpt>
      <trkpt lat="45.69498" lon="6.26576">
        <ele>2022.1999511719</ele>
        <time>2022-02-23T10:00:45.000Z</time>
      </trkpt>
      <trkpt lat="45.69497" lon="6.26575">
        <ele>2022.4000244141</ele>
        <time>2022-02-23T10:00:47.000Z</time>
      </trkpt>
      <trkpt lat="45.69496" lon="6.26575">
        <ele>2022.5999755859</ele>
        <time>2022-02-23T10:00:48.000Z</time>
      </trkpt>
      <trkpt lat="45.69496" lon="6.26574">
        <ele>2022.8000488281</ele>
        <time>2022-02-23T10:00:49.000Z</time>
      </trkpt>
      <trkpt lat="45.69495" lon="6.26574">
        <ele>2023</ele>
        <time>2022-02-23T10:00:51.000Z</time>
      </trkpt>
      <trkpt lat="45.69494" lon="6.26574">
        <ele>2023</ele>
        <time>2022-02-23T10:00:52.000Z</time>
      </trkpt>
      <trkpt lat="45.69493" lon="6.26573">
        <ele>2023.5999755859</ele>
        <time>2022-02-23T10:00:55.000Z</time>
      </trkpt>
      <trkpt lat="45.69492" lon="6.26572">
        <ele>2024.1999511719</ele>
        <time>2022-02-23T10:00:57.000Z</time>
      </trkpt>
      <trkpt lat="45.69491" lon="6.26571">
        <ele>2024.5999755859</ele>
        <time>2022-02-23T10:01:01.000Z</time>
      </trkpt>
      <trkpt lat="45.6949" lon="6.26571">
        <ele>2024.8000488281</ele>
        <time>2022-02-23T10:01:02.000Z</time>
      </trkpt>
      <trkpt lat="45.69489" lon="6.26571">
        <ele>2024.8000488281</ele>
        <time>2022-02-23T10:01:04.000Z</time>
      </trkpt>
      <trkpt lat="45.69489" lon="6.2657">
        <ele>2025</ele>
        <time>2022-02-23T10:01:05.000Z</time>
      </trkpt>
      <trkpt lat="45.69488" lon="6.2657">
        <ele>2025.1999511719</ele>
        <time>2022-02-23T10:01:06.000Z</time>
      </trkpt>
      <trkpt lat="45.69488" lon="6.26569">
        <ele>2025.4000244141</ele>
        <time>2022-02-23T10:01:08.000Z</time>
      </trkpt>
      <trkpt lat="45.69487" lon="6.26568">
        <ele>2025.5999755859</ele>
        <time>2022-02-23T10:01:09.000Z</time>
      </trkpt>
      <trkpt lat="45.69486" lon="6.26568">
        <ele>2025.5999755859</ele>
        <time>2022-02-23T10:01:10.000Z</time>
      </trkpt>
      <trkpt lat="45.69486" lon="6.26567">
        <ele>2026.1999511719</ele>
        <time>2022-02-23T10:01:11.000Z</time>
      </trkpt>
      <trkpt lat="45.69485" lon="6.26566">
        <ele>2027</ele>
        <time>2022-02-23T10:01:13.000Z</time>
      </trkpt>
      <trkpt lat="45.69485" lon="6.26566">
        <ele>2027.1999511719</ele>
        <time>2022-02-23T10:01:14.000Z</time>
      </trkpt>
      <trkpt lat="45.69484" lon="6.26565">
        <ele>2027.5999755859</ele>
        <time>2022-02-23T10:01:16.000Z</time>
      </trkpt>
      <trkpt lat="45.69483" lon="6.26564">
        <ele>2027.8000488281</ele>
        <time>2022-02-23T10:01:18.000Z</time>
      </trkpt>
      <trkpt lat="45.69482" lon="6.26564">
        <ele>2028</ele>
        <time>2022-02-23T10:01:19.000Z</time>
      </trkpt>
      <trkpt lat="45.69482" lon="6.26563">
        <ele>2028</ele>
        <time>2022-02-23T10:01:20.000Z</time>
      </trkpt>
      <trkpt lat="45.69481" lon="6.26562">
        <ele>2028.5999755859</ele>
        <time>2022-02-23T10:01:22.000Z</time>
      </trkpt>
      <trkpt lat="45.6948" lon="6.26561">
        <ele>2029</ele>
        <time>2022-02-23T10:01:24.000Z</time>
      </trkpt>
      <trkpt lat="45.69479" lon="6.2656">
        <ele>2029.4000244141</ele>
        <time>2022-02-23T10:01:26.000Z</time>
      </trkpt>
      <trkpt lat="45.69479" lon="6.2656">
        <ele>2029.8000488281</ele>
        <time>2022-02-23T10:01:27.000Z</time>
      </trkpt>
      <trkpt lat="45.69478" lon="6.26559">
        <ele>2029.8000488281</ele>
        <time>2022-02-23T10:01:28.000Z</time>
      </trkpt>
      <trkpt lat="45.69477" lon="6.26558">
        <ele>2030.1999511719</ele>
        <time>2022-02-23T10:01:30.000Z</time>
      </trkpt>
      <trkpt lat="45.69476" lon="6.26557">
        <ele>2030.4000244141</ele>
        <time>2022-02-23T10:01:32.000Z</time>
      </trkpt>
      <trkpt lat="45.69476" lon="6.26556">
        <ele>2030.8000488281</ele>
        <time>2022-02-23T10:01:34.000Z</time>
      </trkpt>
      <trkpt lat="45.69474" lon="6.26554">
        <ele>2031.5999755859</ele>
        <time>2022-02-23T10:01:39.000Z</time>
      </trkpt>
      <trkpt lat="45.69473" lon="6.26553">
        <ele>2032.1999511719</ele>
        <time>2022-02-23T10:01:42.000Z</time>
      </trkpt>
      <trkpt lat="45.69473" lon="6.26553">
        <ele>2032.5999755859</ele>
        <time>2022-02-23T10:01:43.000Z</time>
      </trkpt>
      <trkpt lat="45.69471" lon="6.26551">
        <ele>2033.1999511719</ele>
        <time>2022-02-23T10:01:47.000Z</time>
      </trkpt>
      <trkpt lat="45.69471" lon="6.2655">
        <ele>2033.4000244141</ele>
        <time>2022-02-23T10:01:49.000Z</time>
      </trkpt>
      <trkpt lat="45.6947" lon="6.26549">
        <ele>2033.5999755859</ele>
        <time>2022-02-23T10:01:50.000Z</time>
      </trkpt>
      <trkpt lat="45.69469" lon="6.26549">
        <ele>2033.8000488281</ele>
        <time>2022-02-23T10:01:52.000Z</time>
      </trkpt>
      <trkpt lat="45.69468" lon="6.26546">
        <ele>2034.4000244141</ele>
        <time>2022-02-23T10:01:56.000Z</time>
      </trkpt>
      <trkpt lat="45.69467" lon="6.26546">
        <ele>2034.5999755859</ele>
        <time>2022-02-23T10:01:58.000Z</time>
      </trkpt>
      <trkpt lat="45.69467" lon="6.26545">
        <ele>2034.5999755859</ele>
        <time>2022-02-23T10:01:59.000Z</time>
      </trkpt>
      <trkpt lat="45.69467" lon="6.26545">
        <ele>2034.8000488281</ele>
        <time>2022-02-23T10:02:00.000Z</time>
      </trkpt>
      <trkpt lat="45.69466" lon="6.26543">
        <ele>2035.4000244141</ele>
        <time>2022-02-23T10:02:04.000Z</time>
      </trkpt>
      <trkpt lat="45.69465" lon="6.26543">
        <ele>2035.8000488281</ele>
        <time>2022-02-23T10:02:05.000Z</time>
      </trkpt>
      <trkpt lat="45.69465" lon="6.26541">
        <ele>2036</ele>
        <time>2022-02-23T10:02:07.000Z</time>
      </trkpt>
      <trkpt lat="45.69464" lon="6.2654">
        <ele>2036.1999511719</ele>
        <time>2022-02-23T10:02:09.000Z</time>
      </trkpt>
      <trkpt lat="45.69464" lon="6.2654">
        <ele>2036.8000488281</ele>
        <time>2022-02-23T10:02:10.000Z</time>
      </trkpt>
      <trkpt lat="45.69463" lon="6.26539">
        <ele>2037.1999511719</ele>
        <time>2022-02-23T10:02:11.000Z</time>
      </trkpt>
      <trkpt lat="45.69463" lon="6.26539">
        <ele>2037.5999755859</ele>
        <time>2022-02-23T10:02:13.000Z</time>
      </trkpt>
      <trkpt lat="45.69462" lon="6.26538">
        <ele>2037.8000488281</ele>
        <time>2022-02-23T10:02:15.000Z</time>
      </trkpt>
      <trkpt lat="45.69461" lon="6.26538">
        <ele>2038</ele>
        <time>2022-02-23T10:02:16.000Z</time>
      </trkpt>
      <trkpt lat="45.6946" lon="6.26536">
        <ele>2038.8000488281</ele>
        <time>2022-02-23T10:02:20.000Z</time>
      </trkpt>
      <trkpt lat="45.6946" lon="6.26535">
        <ele>2038.8000488281</ele>
        <time>2022-02-23T10:02:21.000Z</time>
      </trkpt>
      <trkpt lat="45.69459" lon="6.26534">
        <ele>2039</ele>
        <time>2022-02-23T10:02:23.000Z</time>
      </trkpt>
      <trkpt lat="45.69459" lon="6.26534">
        <ele>2039</ele>
        <time>2022-02-23T10:02:24.000Z</time>
      </trkpt>
      <trkpt lat="45.69458" lon="6.26532">
        <ele>2039.8000488281</ele>
        <time>2022-02-23T10:02:28.000Z</time>
      </trkpt>
      <trkpt lat="45.69457" lon="6.26532">
        <ele>2040</ele>
        <time>2022-02-23T10:02:29.000Z</time>
      </trkpt>
      <trkpt lat="45.69456" lon="6.26531">
        <ele>2040.5999755859</ele>
        <time>2022-02-23T10:02:32.000Z</time>
      </trkpt>
      <trkpt lat="45.69455" lon="6.2653">
        <ele>2040.8000488281</ele>
        <time>2022-02-23T10:02:33.000Z</time>
      </trkpt>
      <trkpt lat="45.69455" lon="6.2653">
        <ele>2041</ele>
        <time>2022-02-23T10:02:34.000Z</time>
      </trkpt>
      <trkpt lat="45.69454" lon="6.26528">
        <ele>2042.1999511719</ele>
        <time>2022-02-23T10:02:38.000Z</time>
      </trkpt>
      <trkpt lat="45.69452" lon="6.26526">
        <ele>2043</ele>
        <time>2022-02-23T10:02:42.000Z</time>
      </trkpt>
      <trkpt lat="45.69451" lon="6.26526">
        <ele>2043.4000244141</ele>
        <time>2022-02-23T10:02:43.000Z</time>
      </trkpt>
      <trkpt lat="45.69451" lon="6.26525">
        <ele>2043.4000244141</ele>
        <time>2022-02-23T10:02:44.000Z</time>
      </trkpt>
      <trkpt lat="45.6945" lon="6.26524">
        <ele>2043.5999755859</ele>
        <time>2022-02-23T10:02:46.000Z</time>
      </trkpt>
      <trkpt lat="45.69449" lon="6.26523">
        <ele>2043.8000488281</ele>
        <time>2022-02-23T10:02:48.000Z</time>
      </trkpt>
      <trkpt lat="45.69448" lon="6.26523">
        <ele>2044</ele>
        <time>2022-02-23T10:02:50.000Z</time>
      </trkpt>
      <trkpt lat="45.69447" lon="6.26522">
        <ele>2044.4000244141</ele>
        <time>2022-02-23T10:02:53.000Z</time>
      </trkpt>
      <trkpt lat="45.69447" lon="6.26522">
        <ele>2044.5999755859</ele>
        <time>2022-02-23T10:02:54.000Z</time>
      </trkpt>
      <trkpt lat="45.69446" lon="6.2652">
        <ele>2045.1999511719</ele>
        <time>2022-02-23T10:02:57.000Z</time>
      </trkpt>
      <trkpt lat="45.69445" lon="6.26519">
        <ele>2045.4000244141</ele>
        <time>2022-02-23T10:02:59.000Z</time>
      </trkpt>
      <trkpt lat="45.69444" lon="6.26519">
        <ele>2045.5999755859</ele>
        <time>2022-02-23T10:03:01.000Z</time>
      </trkpt>
      <trkpt lat="45.69443" lon="6.26517">
        <ele>2046.1999511719</ele>
        <time>2022-02-23T10:03:04.000Z</time>
      </trkpt>
      <trkpt lat="45.69442" lon="6.26516">
        <ele>2046.5999755859</ele>
        <time>2022-02-23T10:03:06.000Z</time>
      </trkpt>
      <trkpt lat="45.69442" lon="6.26516">
        <ele>2047</ele>
        <time>2022-02-23T10:03:07.000Z</time>
      </trkpt>
      <trkpt lat="45.69441" lon="6.26515">
        <ele>2047.4000244141</ele>
        <time>2022-02-23T10:03:10.000Z</time>
      </trkpt>
      <trkpt lat="45.6944" lon="6.26514">
        <ele>2047.5999755859</ele>
        <time>2022-02-23T10:03:11.000Z</time>
      </trkpt>
      <trkpt lat="45.6944" lon="6.26514">
        <ele>2047.8000488281</ele>
        <time>2022-02-23T10:03:12.000Z</time>
      </trkpt>
      <trkpt lat="45.69439" lon="6.26513">
        <ele>2047.8000488281</ele>
        <time>2022-02-23T10:03:15.000Z</time>
      </trkpt>
      <trkpt lat="45.69438" lon="6.26512">
        <ele>2047.8000488281</ele>
        <time>2022-02-23T10:03:16.000Z</time>
      </trkpt>
      <trkpt lat="45.69437" lon="6.26512">
        <ele>2048.1999511719</ele>
        <time>2022-02-23T10:03:18.000Z</time>
      </trkpt>
      <trkpt lat="45.69437" lon="6.26511">
        <ele>2048.3999023438</ele>
        <time>2022-02-23T10:03:19.000Z</time>
      </trkpt>
      <trkpt lat="45.69437" lon="6.26511">
        <ele>2048.8000488281</ele>
        <time>2022-02-23T10:03:20.000Z</time>
      </trkpt>
      <trkpt lat="45.69433" lon="6.26509">
        <ele>2049.8000488281</ele>
        <time>2022-02-23T10:03:26.000Z</time>
      </trkpt>
      <trkpt lat="45.69432" lon="6.26508">
        <ele>2050.3999023438</ele>
        <time>2022-02-23T10:03:30.000Z</time>
      </trkpt>
      <trkpt lat="45.69432" lon="6.26507">
        <ele>2051</ele>
        <time>2022-02-23T10:03:31.000Z</time>
      </trkpt>
      <trkpt lat="45.69431" lon="6.26506">
        <ele>2051.3999023438</ele>
        <time>2022-02-23T10:03:33.000Z</time>
      </trkpt>
      <trkpt lat="45.69431" lon="6.26505">
        <ele>2051.3999023438</ele>
        <time>2022-02-23T10:03:34.000Z</time>
      </trkpt>
      <trkpt lat="45.69432" lon="6.26503">
        <ele>2051.6000976562</ele>
        <time>2022-02-23T10:03:37.000Z</time>
      </trkpt>
      <trkpt lat="45.69433" lon="6.26502">
        <ele>2051.8000488281</ele>
        <time>2022-02-23T10:03:39.000Z</time>
      </trkpt>
      <trkpt lat="45.69433" lon="6.265">
        <ele>2052</ele>
        <time>2022-02-23T10:03:42.000Z</time>
      </trkpt>
      <trkpt lat="45.69433" lon="6.26499">
        <ele>2052.3999023438</ele>
        <time>2022-02-23T10:03:44.000Z</time>
      </trkpt>
      <trkpt lat="45.69434" lon="6.26496">
        <ele>2053</ele>
        <time>2022-02-23T10:03:48.000Z</time>
      </trkpt>
      <trkpt lat="45.69434" lon="6.26495">
        <ele>2053.1999511719</ele>
        <time>2022-02-23T10:03:49.000Z</time>
      </trkpt>
      <trkpt lat="45.69435" lon="6.26493">
        <ele>2053.8000488281</ele>
        <time>2022-02-23T10:03:52.000Z</time>
      </trkpt>
      <trkpt lat="45.69436" lon="6.2649">
        <ele>2054.1999511719</ele>
        <time>2022-02-23T10:03:56.000Z</time>
      </trkpt>
      <trkpt lat="45.69436" lon="6.26489">
        <ele>2054.6000976562</ele>
        <time>2022-02-23T10:03:58.000Z</time>
      </trkpt>
      <trkpt lat="45.69436" lon="6.26488">
        <ele>2054.8000488281</ele>
        <time>2022-02-23T10:03:59.000Z</time>
      </trkpt>
      <trkpt lat="45.69437" lon="6.26485">
        <ele>2055.3999023438</ele>
        <time>2022-02-23T10:04:03.000Z</time>
      </trkpt>
      <trkpt lat="45.69439" lon="6.26483">
        <ele>2056</ele>
        <time>2022-02-23T10:04:08.000Z</time>
      </trkpt>
      <trkpt lat="45.69439" lon="6.26482">
        <ele>2056.6000976562</ele>
        <time>2022-02-23T10:04:09.000Z</time>
      </trkpt>
      <trkpt lat="45.6944" lon="6.26482">
        <ele>2056.8000488281</ele>
        <time>2022-02-23T10:04:10.000Z</time>
      </trkpt>
      <trkpt lat="45.69442" lon="6.26479">
        <ele>2057.3999023438</ele>
        <time>2022-02-23T10:04:16.000Z</time>
      </trkpt>
      <trkpt lat="45.69443" lon="6.26479">
        <ele>2057.6000976562</ele>
        <time>2022-02-23T10:04:17.000Z</time>
      </trkpt>
      <trkpt lat="45.69444" lon="6.26477">
        <ele>2058.1999511719</ele>
        <time>2022-02-23T10:04:20.000Z</time>
      </trkpt>
      <trkpt lat="45.69445" lon="6.26476">
        <ele>2058.6000976562</ele>
        <time>2022-02-23T10:04:22.000Z</time>
      </trkpt>
      <trkpt lat="45.69445" lon="6.26476">
        <ele>2058.6000976562</ele>
        <time>2022-02-23T10:04:23.000Z</time>
      </trkpt>
      <trkpt lat="45.69446" lon="6.26475">
        <ele>2058.8000488281</ele>
        <time>2022-02-23T10:04:25.000Z</time>
      </trkpt>
      <trkpt lat="45.69449" lon="6.26473">
        <ele>2059.1999511719</ele>
        <time>2022-02-23T10:04:31.000Z</time>
      </trkpt>
      <trkpt lat="45.69451" lon="6.2647">
        <ele>2059.6000976562</ele>
        <time>2022-02-23T10:04:35.000Z</time>
      </trkpt>
      <trkpt lat="45.69452" lon="6.2647">
        <ele>2059.8000488281</ele>
        <time>2022-02-23T10:04:36.000Z</time>
      </trkpt>
      <trkpt lat="45.69452" lon="6.26469">
        <ele>2060</ele>
        <time>2022-02-23T10:04:37.000Z</time>
      </trkpt>
      <trkpt lat="45.69453" lon="6.26468">
        <ele>2060.3999023438</ele>
        <time>2022-02-23T10:04:39.000Z</time>
      </trkpt>
      <trkpt lat="45.69454" lon="6.26468">
        <ele>2060.6000976562</ele>
        <time>2022-02-23T10:04:41.000Z</time>
      </trkpt>
      <trkpt lat="45.69455" lon="6.26467">
        <ele>2060.8000488281</ele>
        <time>2022-02-23T10:04:42.000Z</time>
      </trkpt>
      <trkpt lat="45.69455" lon="6.26467">
        <ele>2061</ele>
        <time>2022-02-23T10:04:43.000Z</time>
      </trkpt>
      <trkpt lat="45.69456" lon="6.26467">
        <ele>2061.1999511719</ele>
        <time>2022-02-23T10:04:45.000Z</time>
      </trkpt>
      <trkpt lat="45.69457" lon="6.26466">
        <ele>2061.3999023438</ele>
        <time>2022-02-23T10:04:46.000Z</time>
      </trkpt>
      <trkpt lat="45.69457" lon="6.26466">
        <ele>2061.8000488281</ele>
        <time>2022-02-23T10:04:47.000Z</time>
      </trkpt>
      <trkpt lat="45.69458" lon="6.26465">
        <ele>2062.1999511719</ele>
        <time>2022-02-23T10:04:48.000Z</time>
      </trkpt>
      <trkpt lat="45.69458" lon="6.26465">
        <ele>2062.1999511719</ele>
        <time>2022-02-23T10:04:49.000Z</time>
      </trkpt>
      <trkpt lat="45.69462" lon="6.26461">
        <ele>2062.1999511719</ele>
        <time>2022-02-23T10:04:56.000Z</time>
      </trkpt>
      <trkpt lat="45.69463" lon="6.2646">
        <ele>2062.3999023438</ele>
        <time>2022-02-23T10:04:58.000Z</time>
      </trkpt>
      <trkpt lat="45.69465" lon="6.26459">
        <ele>2062.6000976562</ele>
        <time>2022-02-23T10:05:00.000Z</time>
      </trkpt>
      <trkpt lat="45.69466" lon="6.26458">
        <ele>2063.1999511719</ele>
        <time>2022-02-23T10:05:02.000Z</time>
      </trkpt>
      <trkpt lat="45.69469" lon="6.26456">
        <ele>2064</ele>
        <time>2022-02-23T10:05:06.000Z</time>
      </trkpt>
      <trkpt lat="45.69472" lon="6.26453">
        <ele>2063.8000488281</ele>
        <time>2022-02-23T10:05:11.000Z</time>
      </trkpt>
      <trkpt lat="45.69473" lon="6.26452">
        <ele>2063.8000488281</ele>
        <time>2022-02-23T10:05:12.000Z</time>
      </trkpt>
      <trkpt lat="45.69475" lon="6.26451">
        <ele>2063.8000488281</ele>
        <time>2022-02-23T10:05:15.000Z</time>
      </trkpt>
      <trkpt lat="45.69475" lon="6.2645">
        <ele>2064</ele>
        <time>2022-02-23T10:05:16.000Z</time>
      </trkpt>
      <trkpt lat="45.69476" lon="6.26449">
        <ele>2064.1999511719</ele>
        <time>2022-02-23T10:05:18.000Z</time>
      </trkpt>
      <trkpt lat="45.69478" lon="6.26448">
        <ele>2064.3999023438</ele>
        <time>2022-02-23T10:05:20.000Z</time>
      </trkpt>
      <trkpt lat="45.69481" lon="6.26446">
        <ele>2064.6000976562</ele>
        <time>2022-02-23T10:05:25.000Z</time>
      </trkpt>
      <trkpt lat="45.69481" lon="6.26445">
        <ele>2064.6000976562</ele>
        <time>2022-02-23T10:05:26.000Z</time>
      </trkpt>
      <trkpt lat="45.69483" lon="6.26444">
        <ele>2065.1999511719</ele>
        <time>2022-02-23T10:05:29.000Z</time>
      </trkpt>
      <trkpt lat="45.69484" lon="6.26443">
        <ele>2065.3999023438</ele>
        <time>2022-02-23T10:05:30.000Z</time>
      </trkpt>
      <trkpt lat="45.69487" lon="6.26441">
        <ele>2065.8000488281</ele>
        <time>2022-02-23T10:05:34.000Z</time>
      </trkpt>
      <trkpt lat="45.69491" lon="6.2644">
        <ele>2066.1999511719</ele>
        <time>2022-02-23T10:05:38.000Z</time>
      </trkpt>
      <trkpt lat="45.69491" lon="6.26439">
        <ele>2066.3999023438</ele>
        <time>2022-02-23T10:05:39.000Z</time>
      </trkpt>
      <trkpt lat="45.69495" lon="6.26438">
        <ele>2066.8000488281</ele>
        <time>2022-02-23T10:05:45.000Z</time>
      </trkpt>
      <trkpt lat="45.69496" lon="6.26437">
        <ele>2066.8000488281</ele>
        <time>2022-02-23T10:05:47.000Z</time>
      </trkpt>
      <trkpt lat="45.69497" lon="6.26436">
        <ele>2067.3999023438</ele>
        <time>2022-02-23T10:05:49.000Z</time>
      </trkpt>
      <trkpt lat="45.69501" lon="6.26433">
        <ele>2068.3999023438</ele>
        <time>2022-02-23T10:05:54.000Z</time>
      </trkpt>
      <trkpt lat="45.69502" lon="6.26432">
        <ele>2068.6000976562</ele>
        <time>2022-02-23T10:05:56.000Z</time>
      </trkpt>
      <trkpt lat="45.69503" lon="6.2643">
        <ele>2069</ele>
        <time>2022-02-23T10:05:59.000Z</time>
      </trkpt>
      <trkpt lat="45.69505" lon="6.26427">
        <ele>2069.3999023438</ele>
        <time>2022-02-23T10:06:04.000Z</time>
      </trkpt>
      <trkpt lat="45.69508" lon="6.26423">
        <ele>2070.6000976562</ele>
        <time>2022-02-23T10:06:09.000Z</time>
      </trkpt>
      <trkpt lat="45.6951" lon="6.26421">
        <ele>2070.8000488281</ele>
        <time>2022-02-23T10:06:12.000Z</time>
      </trkpt>
      <trkpt lat="45.6951" lon="6.26421">
        <ele>2071.1999511719</ele>
        <time>2022-02-23T10:06:13.000Z</time>
      </trkpt>
      <trkpt lat="45.69512" lon="6.2642">
        <ele>2071.3999023438</ele>
        <time>2022-02-23T10:06:15.000Z</time>
      </trkpt>
      <trkpt lat="45.69513" lon="6.26418">
        <ele>2071.8000488281</ele>
        <time>2022-02-23T10:06:18.000Z</time>
      </trkpt>
      <trkpt lat="45.69515" lon="6.26417">
        <ele>2072.1999511719</ele>
        <time>2022-02-23T10:06:21.000Z</time>
      </trkpt>
      <trkpt lat="45.69516" lon="6.26417">
        <ele>2072.1999511719</ele>
        <time>2022-02-23T10:06:22.000Z</time>
      </trkpt>
      <trkpt lat="45.69518" lon="6.26415">
        <ele>2072.6000976562</ele>
        <time>2022-02-23T10:06:26.000Z</time>
      </trkpt>
      <trkpt lat="45.69519" lon="6.26414">
        <ele>2072.8000488281</ele>
        <time>2022-02-23T10:06:27.000Z</time>
      </trkpt>
      <trkpt lat="45.69519" lon="6.26414">
        <ele>2073</ele>
        <time>2022-02-23T10:06:28.000Z</time>
      </trkpt>
      <trkpt lat="45.6952" lon="6.26413">
        <ele>2073.1999511719</ele>
        <time>2022-02-23T10:06:29.000Z</time>
      </trkpt>
      <trkpt lat="45.6952" lon="6.26413">
        <ele>2073.3999023438</ele>
        <time>2022-02-23T10:06:30.000Z</time>
      </trkpt>
      <trkpt lat="45.69522" lon="6.26413">
        <ele>2074</ele>
        <time>2022-02-23T10:06:34.000Z</time>
      </trkpt>
      <trkpt lat="45.69522" lon="6.26414">
        <ele>2074.6000976562</ele>
        <time>2022-02-23T10:06:40.000Z</time>
      </trkpt>
      <trkpt lat="45.69522" lon="6.26413">
        <ele>2074.6000976562</ele>
        <time>2022-02-23T10:06:41.000Z</time>
      </trkpt>
      <trkpt lat="45.69522" lon="6.26414">
        <ele>2074.6000976562</ele>
        <time>2022-02-23T10:06:44.000Z</time>
      </trkpt>
      <trkpt lat="45.69522" lon="6.26414">
        <ele>2074.6000976562</ele>
        <time>2022-02-23T10:06:45.000Z</time>
      </trkpt>
      <trkpt lat="45.69522" lon="6.26414">
        <ele>2074.3999023438</ele>
        <time>2022-02-23T10:06:47.000Z</time>
      </trkpt>
      <trkpt lat="45.69522" lon="6.26414">
        <ele>2074.1999511719</ele>
        <time>2022-02-23T10:06:49.000Z</time>
      </trkpt>
      <trkpt lat="45.69522" lon="6.26413">
        <ele>2074.6000976562</ele>
        <time>2022-02-23T10:06:55.000Z</time>
      </trkpt>
      <trkpt lat="45.69523" lon="6.26413">
        <ele>2074.6000976562</ele>
        <time>2022-02-23T10:06:57.000Z</time>
      </trkpt>
      <trkpt lat="45.69523" lon="6.26413">
        <ele>2074.6000976562</ele>
        <time>2022-02-23T10:07:01.000Z</time>
      </trkpt>
      <trkpt lat="45.69523" lon="6.26413">
        <ele>2074.3999023438</ele>
        <time>2022-02-23T10:07:04.000Z</time>
      </trkpt>
      <trkpt lat="45.69523" lon="6.26413">
        <ele>2074.3999023438</ele>
        <time>2022-02-23T10:07:05.000Z</time>
      </trkpt>
      <trkpt lat="45.69523" lon="6.26414">
        <ele>2074.8000488281</ele>
        <time>2022-02-23T10:07:12.000Z</time>
      </trkpt>
      <trkpt lat="45.69523" lon="6.26414">
        <ele>2074.8000488281</ele>
        <time>2022-02-23T10:07:15.000Z</time>
      </trkpt>
      <trkpt lat="45.69524" lon="6.26413">
        <ele>2074.6000976562</ele>
        <time>2022-02-23T10:07:20.000Z</time>
      </trkpt>
      <trkpt lat="45.69524" lon="6.26413">
        <ele>2074.8000488281</ele>
        <time>2022-02-23T10:07:22.000Z</time>
      </trkpt>
      <trkpt lat="45.69524" lon="6.26413">
        <ele>2075</ele>
        <time>2022-02-23T10:07:24.000Z</time>
      </trkpt>
      <trkpt lat="45.69524" lon="6.26413">
        <ele>2074.6000976562</ele>
        <time>2022-02-23T10:07:30.000Z</time>
      </trkpt>
      <trkpt lat="45.69524" lon="6.26413">
        <ele>2074.8000488281</ele>
        <time>2022-02-23T10:07:36.000Z</time>
      </trkpt>
      <trkpt lat="45.69524" lon="6.26413">
        <ele>2074.8000488281</ele>
        <time>2022-02-23T10:07:37.000Z</time>
      </trkpt>
      <trkpt lat="45.69524" lon="6.26413">
        <ele>2075.1999511719</ele>
        <time>2022-02-23T10:07:40.000Z</time>
      </trkpt>
      <trkpt lat="45.69524" lon="6.26413">
        <ele>2075</ele>
        <time>2022-02-23T10:07:48.000Z</time>
      </trkpt>
      <trkpt lat="45.69524" lon="6.26413">
        <ele>2074.8000488281</ele>
        <time>2022-02-23T10:07:51.000Z</time>
      </trkpt>
      <trkpt lat="45.69523" lon="6.26413">
        <ele>2074.3999023438</ele>
        <time>2022-02-23T10:07:56.000Z</time>
      </trkpt>
      <trkpt lat="45.69523" lon="6.26412">
        <ele>2074.3999023438</ele>
        <time>2022-02-23T10:08:00.000Z</time>
      </trkpt>
      <trkpt lat="45.69523" lon="6.26412">
        <ele>2074.8000488281</ele>
        <time>2022-02-23T10:08:05.000Z</time>
      </trkpt>
      <trkpt lat="45.69523" lon="6.26412">
        <ele>2075.1999511719</ele>
        <time>2022-02-23T10:08:08.000Z</time>
      </trkpt>
      <trkpt lat="45.69523" lon="6.26412">
        <ele>2075</ele>
        <time>2022-02-23T10:08:15.000Z</time>
      </trkpt>
      <trkpt lat="45.69523" lon="6.26412">
        <ele>2075</ele>
        <time>2022-02-23T10:08:20.000Z</time>
      </trkpt>
      <trkpt lat="45.69523" lon="6.26412">
        <ele>2075</ele>
        <time>2022-02-23T10:08:26.000Z</time>
      </trkpt>
      <trkpt lat="45.69523" lon="6.26412">
        <ele>2074.6000976562</ele>
        <time>2022-02-23T10:08:33.000Z</time>
      </trkpt>
      <trkpt lat="45.69524" lon="6.26412">
        <ele>2074.6000976562</ele>
        <time>2022-02-23T10:08:42.000Z</time>
      </trkpt>
      <trkpt lat="45.69524" lon="6.26412">
        <ele>2074.8000488281</ele>
        <time>2022-02-23T10:08:46.000Z</time>
      </trkpt>
      <trkpt lat="45.69524" lon="6.26413">
        <ele>2075</ele>
        <time>2022-02-23T10:08:50.000Z</time>
      </trkpt>
      <trkpt lat="45.69523" lon="6.26412">
        <ele>2075.8000488281</ele>
        <time>2022-02-23T10:09:01.000Z</time>
      </trkpt>
      <trkpt lat="45.69523" lon="6.26412">
        <ele>2075.8000488281</ele>
        <time>2022-02-23T10:09:08.000Z</time>
      </trkpt>
      <trkpt lat="45.69522" lon="6.26413">
        <ele>2075.6000976562</ele>
        <time>2022-02-23T10:09:12.000Z</time>
      </trkpt>
      <trkpt lat="45.69522" lon="6.26413">
        <ele>2075.1999511719</ele>
        <time>2022-02-23T10:09:24.000Z</time>
      </trkpt>
      <trkpt lat="45.69522" lon="6.26413">
        <ele>2075.1999511719</ele>
        <time>2022-02-23T10:09:31.000Z</time>
      </trkpt>
      <trkpt lat="45.69522" lon="6.26413">
        <ele>2075.1999511719</ele>
        <time>2022-02-23T10:09:35.000Z</time>
      </trkpt>
      <trkpt lat="45.69522" lon="6.26413">
        <ele>2074.8000488281</ele>
        <time>2022-02-23T10:09:43.000Z</time>
      </trkpt>
      <trkpt lat="45.69523" lon="6.26413">
        <ele>2075</ele>
        <time>2022-02-23T10:09:49.000Z</time>
      </trkpt>
      <trkpt lat="45.69523" lon="6.26413">
        <ele>2074.8000488281</ele>
        <time>2022-02-23T10:09:51.000Z</time>
      </trkpt>
      <trkpt lat="45.69523" lon="6.26413">
        <ele>2074.6000976562</ele>
        <time>2022-02-23T10:10:02.000Z</time>
      </trkpt>
      <trkpt lat="45.69523" lon="6.26413">
        <ele>2074.6000976562</ele>
        <time>2022-02-23T10:10:03.000Z</time>
      </trkpt>
      <trkpt lat="45.69522" lon="6.26413">
        <ele>2074.8000488281</ele>
        <time>2022-02-23T10:10:08.000Z</time>
      </trkpt>
      <trkpt lat="45.69522" lon="6.26413">
        <ele>2074.8000488281</ele>
        <time>2022-02-23T10:10:10.000Z</time>
      </trkpt>
      <trkpt lat="45.69522" lon="6.26413">
        <ele>2074.8000488281</ele>
        <time>2022-02-23T10:10:14.000Z</time>
      </trkpt>
      <trkpt lat="45.69523" lon="6.26412">
        <ele>2074.8000488281</ele>
        <time>2022-02-23T10:10:20.000Z</time>
      </trkpt>
      <trkpt lat="45.69524" lon="6.26412">
        <ele>2074.6000976562</ele>
        <time>2022-02-23T10:10:22.000Z</time>
      </trkpt>
      <trkpt lat="45.69526" lon="6.2641">
        <ele>2075</ele>
        <time>2022-02-23T10:10:26.000Z</time>
      </trkpt>
      <trkpt lat="45.69525" lon="6.2641">
        <ele>2075.8000488281</ele>
        <time>2022-02-23T10:10:32.000Z</time>
      </trkpt>
      <trkpt lat="45.69525" lon="6.26411">
        <ele>2075.3999023438</ele>
        <time>2022-02-23T10:10:38.000Z</time>
      </trkpt>
      <trkpt lat="45.69525" lon="6.26411">
        <ele>2075.3999023438</ele>
        <time>2022-02-23T10:10:39.000Z</time>
      </trkpt>
      <trkpt lat="45.69525" lon="6.26412">
        <ele>2075.8000488281</ele>
        <time>2022-02-23T10:10:50.000Z</time>
      </trkpt>
      <trkpt lat="45.69524" lon="6.26412">
        <ele>2075.3999023438</ele>
        <time>2022-02-23T10:10:55.000Z</time>
      </trkpt>
      <trkpt lat="45.69525" lon="6.26412">
        <ele>2075.3999023438</ele>
        <time>2022-02-23T10:10:59.000Z</time>
      </trkpt>
      <trkpt lat="45.69525" lon="6.26412">
        <ele>2074.8000488281</ele>
        <time>2022-02-23T10:11:10.000Z</time>
      </trkpt>
      <trkpt lat="45.69525" lon="6.26412">
        <ele>2074.8000488281</ele>
        <time>2022-02-23T10:11:16.000Z</time>
      </trkpt>
      <trkpt lat="45.69526" lon="6.26411">
        <ele>2075.3999023438</ele>
        <time>2022-02-23T10:11:18.000Z</time>
      </trkpt>
      <trkpt lat="45.69527" lon="6.2641">
        <ele>2076.1999511719</ele>
        <time>2022-02-23T10:11:22.000Z</time>
      </trkpt>
      <trkpt lat="45.69528" lon="6.2641">
        <ele>2076</ele>
        <time>2022-02-23T10:11:27.000Z</time>
      </trkpt>
      <trkpt lat="45.69528" lon="6.2641">
        <ele>2076</ele>
        <time>2022-02-23T10:11:28.000Z</time>
      </trkpt>
      <trkpt lat="45.69528" lon="6.2641">
        <ele>2075.6000976562</ele>
        <time>2022-02-23T10:11:40.000Z</time>
      </trkpt>
      <trkpt lat="45.69528" lon="6.2641">
        <ele>2075.8000488281</ele>
        <time>2022-02-23T10:11:43.000Z</time>
      </trkpt>
      <trkpt lat="45.69528" lon="6.2641">
        <ele>2075.8000488281</ele>
        <time>2022-02-23T10:11:44.000Z</time>
      </trkpt>
      <trkpt lat="45.69527" lon="6.26411">
        <ele>2076.1999511719</ele>
        <time>2022-02-23T10:11:59.000Z</time>
      </trkpt>
      <trkpt lat="45.69525" lon="6.26413">
        <ele>2076.1999511719</ele>
        <time>2022-02-23T10:12:05.000Z</time>
      </trkpt>
      <trkpt lat="45.69525" lon="6.26413">
        <ele>2075</ele>
        <time>2022-02-23T10:12:08.000Z</time>
      </trkpt>
      <trkpt lat="45.69525" lon="6.26414">
        <ele>2075</ele>
        <time>2022-02-23T10:12:14.000Z</time>
      </trkpt>
      <trkpt lat="45.69525" lon="6.26414">
        <ele>2075.1999511719</ele>
        <time>2022-02-23T10:12:19.000Z</time>
      </trkpt>
      <trkpt lat="45.69525" lon="6.26414">
        <ele>2075</ele>
        <time>2022-02-23T10:12:22.000Z</time>
      </trkpt>
      <trkpt lat="45.69525" lon="6.26414">
        <ele>2075.1999511719</ele>
        <time>2022-02-23T10:12:30.000Z</time>
      </trkpt>
      <trkpt lat="45.69525" lon="6.26413">
        <ele>2075.8000488281</ele>
        <time>2022-02-23T10:12:38.000Z</time>
      </trkpt>
      <trkpt lat="45.69525" lon="6.26412">
        <ele>2075.6000976562</ele>
        <time>2022-02-23T10:12:43.000Z</time>
      </trkpt>
      <trkpt lat="45.69525" lon="6.26412">
        <ele>2076</ele>
        <time>2022-02-23T10:12:49.000Z</time>
      </trkpt>
      <trkpt lat="45.69525" lon="6.26412">
        <ele>2076</ele>
        <time>2022-02-23T10:12:50.000Z</time>
      </trkpt>
      <trkpt lat="45.69525" lon="6.26412">
        <ele>2076</ele>
        <time>2022-02-23T10:12:56.000Z</time>
      </trkpt>
      <trkpt lat="45.69525" lon="6.26413">
        <ele>2076.1999511719</ele>
        <time>2022-02-23T10:13:06.000Z</time>
      </trkpt>
      <trkpt lat="45.69522" lon="6.2641">
        <ele>2076</ele>
        <time>2022-02-23T10:13:11.000Z</time>
      </trkpt>
      <trkpt lat="45.69522" lon="6.2641">
        <ele>2076</ele>
        <time>2022-02-23T10:13:19.000Z</time>
      </trkpt>
      <trkpt lat="45.69521" lon="6.2641">
        <ele>2075.8000488281</ele>
        <time>2022-02-23T10:13:21.000Z</time>
      </trkpt>
      <trkpt lat="45.6952" lon="6.26409">
        <ele>2075.8000488281</ele>
        <time>2022-02-23T10:13:27.000Z</time>
      </trkpt>
      <trkpt lat="45.69519" lon="6.26409">
        <ele>2075.8000488281</ele>
        <time>2022-02-23T10:13:33.000Z</time>
      </trkpt>
      <trkpt lat="45.69519" lon="6.26408">
        <ele>2075</ele>
        <time>2022-02-23T10:13:38.000Z</time>
      </trkpt>
      <trkpt lat="45.69519" lon="6.26408">
        <ele>2074.8000488281</ele>
        <time>2022-02-23T10:13:40.000Z</time>
      </trkpt>
      <trkpt lat="45.69519" lon="6.26408">
        <ele>2075</ele>
        <time>2022-02-23T10:13:45.000Z</time>
      </trkpt>
      <trkpt lat="45.69519" lon="6.26408">
        <ele>2075.1999511719</ele>
        <time>2022-02-23T10:13:55.000Z</time>
      </trkpt>
      <trkpt lat="45.69519" lon="6.26408">
        <ele>2075.6000976562</ele>
        <time>2022-02-23T10:14:05.000Z</time>
      </trkpt>
      <trkpt lat="45.69519" lon="6.26408">
        <ele>2075.6000976562</ele>
        <time>2022-02-23T10:14:06.000Z</time>
      </trkpt>
      <trkpt lat="45.69519" lon="6.26408">
        <ele>2075.8000488281</ele>
        <time>2022-02-23T10:14:07.000Z</time>
      </trkpt>
      <trkpt lat="45.69519" lon="6.26408">
        <ele>2075.8000488281</ele>
        <time>2022-02-23T10:14:09.000Z</time>
      </trkpt>
      <trkpt lat="45.6952" lon="6.26411">
        <ele>2075.8000488281</ele>
        <time>2022-02-23T10:14:12.000Z</time>
      </trkpt>
      <trkpt lat="45.6952" lon="6.26411">
        <ele>2075.3999023438</ele>
        <time>2022-02-23T10:14:19.000Z</time>
      </trkpt>
      <trkpt lat="45.6952" lon="6.26411">
        <ele>2075.3999023438</ele>
        <time>2022-02-23T10:14:21.000Z</time>
      </trkpt>
      <trkpt lat="45.6952" lon="6.26411">
        <ele>2075.3999023438</ele>
        <time>2022-02-23T10:14:22.000Z</time>
      </trkpt>
      <trkpt lat="45.6952" lon="6.26411">
        <ele>2075.6000976562</ele>
        <time>2022-02-23T10:14:36.000Z</time>
      </trkpt>
      <trkpt lat="45.6952" lon="6.26411">
        <ele>2075</ele>
        <time>2022-02-23T10:14:42.000Z</time>
      </trkpt>
      <trkpt lat="45.6952" lon="6.26411">
        <ele>2074.8000488281</ele>
        <time>2022-02-23T10:14:59.000Z</time>
      </trkpt>
      <trkpt lat="45.6952" lon="6.26411">
        <ele>2074.8000488281</ele>
        <time>2022-02-23T10:15:12.000Z</time>
      </trkpt>
      <trkpt lat="45.6952" lon="6.26411">
        <ele>2074.8000488281</ele>
        <time>2022-02-23T10:15:23.000Z</time>
      </trkpt>
      <trkpt lat="45.6952" lon="6.26411">
        <ele>2074.8000488281</ele>
        <time>2022-02-23T10:15:26.000Z</time>
      </trkpt>
      <trkpt lat="45.6952" lon="6.26411">
        <ele>2074.8000488281</ele>
        <time>2022-02-23T10:15:30.000Z</time>
      </trkpt>
      <trkpt lat="45.6952" lon="6.26411">
        <ele>2074.8000488281</ele>
        <time>2022-02-23T10:15:32.000Z</time>
      </trkpt>
      <trkpt lat="45.6952" lon="6.26411">
        <ele>2074.8000488281</ele>
        <time>2022-02-23T10:15:34.000Z</time>
      </trkpt>
      <trkpt lat="45.6952" lon="6.26411">
        <ele>2074.8000488281</ele>
        <time>2022-02-23T10:15:35.000Z</time>
      </trkpt>
      <trkpt lat="45.6952" lon="6.26411">
        <ele>2074.8000488281</ele>
        <time>2022-02-23T10:15:39.000Z</time>
      </trkpt>
      <trkpt lat="45.6952" lon="6.26411">
        <ele>2074.8000488281</ele>
        <time>2022-02-23T10:15:53.000Z</time>
      </trkpt>
      <trkpt lat="45.6952" lon="6.26412">
        <ele>2074.8000488281</ele>
        <time>2022-02-23T10:15:55.000Z</time>
      </trkpt>
      <trkpt lat="45.6952" lon="6.26413">
        <ele>2074.8000488281</ele>
        <time>2022-02-23T10:15:59.000Z</time>
      </trkpt>
      <trkpt lat="45.6952" lon="6.26413">
        <ele>2074.8000488281</ele>
        <time>2022-02-23T10:16:01.000Z</time>
      </trkpt>
      <trkpt lat="45.69519" lon="6.26412">
        <ele>2074.8000488281</ele>
        <time>2022-02-23T10:16:09.000Z</time>
      </trkpt>
      <trkpt lat="45.69519" lon="6.26412">
        <ele>2074.8000488281</ele>
        <time>2022-02-23T10:16:22.000Z</time>
      </trkpt>
      <trkpt lat="45.69519" lon="6.26411">
        <ele>2074.8000488281</ele>
        <time>2022-02-23T10:16:32.000Z</time>
      </trkpt>
      <trkpt lat="45.69519" lon="6.26411">
        <ele>2074.8000488281</ele>
        <time>2022-02-23T10:16:35.000Z</time>
      </trkpt>
      <trkpt lat="45.69519" lon="6.26412">
        <ele>2074.8000488281</ele>
        <time>2022-02-23T10:16:43.000Z</time>
      </trkpt>
      <trkpt lat="45.69519" lon="6.26412">
        <ele>2074.8000488281</ele>
        <time>2022-02-23T10:16:46.000Z</time>
      </trkpt>
      <trkpt lat="45.69519" lon="6.26412">
        <ele>2074.8000488281</ele>
        <time>2022-02-23T10:16:48.000Z</time>
      </trkpt>
      <trkpt lat="45.69519" lon="6.26412">
        <ele>2074.8000488281</ele>
        <time>2022-02-23T10:16:50.000Z</time>
      </trkpt>
      <trkpt lat="45.69519" lon="6.26413">
        <ele>2074.8000488281</ele>
        <time>2022-02-23T10:16:52.000Z</time>
      </trkpt>
      <trkpt lat="45.6952" lon="6.26413">
        <ele>2074.8000488281</ele>
        <time>2022-02-23T10:17:00.000Z</time>
      </trkpt>
      <trkpt lat="45.6952" lon="6.26413">
        <ele>2074.8000488281</ele>
        <time>2022-02-23T10:17:09.000Z</time>
      </trkpt>
      <trkpt lat="45.6952" lon="6.26413">
        <ele>2074.8000488281</ele>
        <time>2022-02-23T10:17:16.000Z</time>
      </trkpt>
      <trkpt lat="45.6952" lon="6.26413">
        <ele>2074.8000488281</ele>
        <time>2022-02-23T10:17:18.000Z</time>
      </trkpt>
      <trkpt lat="45.6952" lon="6.26413">
        <ele>2074.8000488281</ele>
        <time>2022-02-23T10:17:19.000Z</time>
      </trkpt>
      <trkpt lat="45.6952" lon="6.26411">
        <ele>2074.8000488281</ele>
        <time>2022-02-23T10:17:22.000Z</time>
      </trkpt>
      <trkpt lat="45.6952" lon="6.26411">
        <ele>2074.8000488281</ele>
        <time>2022-02-23T10:17:24.000Z</time>
      </trkpt>
      <trkpt lat="45.69521" lon="6.2641">
        <ele>2074.8000488281</ele>
        <time>2022-02-23T10:17:31.000Z</time>
      </trkpt>
      <trkpt lat="45.69521" lon="6.26411">
        <ele>2074.8000488281</ele>
        <time>2022-02-23T10:17:38.000Z</time>
      </trkpt>
      <trkpt lat="45.6952" lon="6.26411">
        <ele>2074.8000488281</ele>
        <time>2022-02-23T10:17:39.000Z</time>
      </trkpt>
      <trkpt lat="45.6952" lon="6.26411">
        <ele>2074.8000488281</ele>
        <time>2022-02-23T10:17:43.000Z</time>
      </trkpt>
      <trkpt lat="45.6952" lon="6.26412">
        <ele>2074.8000488281</ele>
        <time>2022-02-23T10:17:49.000Z</time>
      </trkpt>
      <trkpt lat="45.6952" lon="6.26412">
        <ele>2074.8000488281</ele>
        <time>2022-02-23T10:17:50.000Z</time>
      </trkpt>
      <trkpt lat="45.6952" lon="6.26412">
        <ele>2074.8000488281</ele>
        <time>2022-02-23T10:17:53.000Z</time>
      </trkpt>
      <trkpt lat="45.6952" lon="6.26412">
        <ele>2074.8000488281</ele>
        <time>2022-02-23T10:18:02.000Z</time>
      </trkpt>
      <trkpt lat="45.69521" lon="6.26412">
        <ele>2074.8000488281</ele>
        <time>2022-02-23T10:18:03.000Z</time>
      </trkpt>
      <trkpt lat="45.69522" lon="6.26415">
        <ele>2074.8000488281</ele>
        <time>2022-02-23T10:18:08.000Z</time>
      </trkpt>
      <trkpt lat="45.69524" lon="6.26414">
        <ele>2074.8000488281</ele>
        <time>2022-02-23T10:18:11.000Z</time>
      </trkpt>
      <trkpt lat="45.69524" lon="6.26415">
        <ele>2074.8000488281</ele>
        <time>2022-02-23T10:18:20.000Z</time>
      </trkpt>
      <trkpt lat="45.69524" lon="6.26414">
        <ele>2074.8000488281</ele>
        <time>2022-02-23T10:18:25.000Z</time>
      </trkpt>
      <trkpt lat="45.69524" lon="6.26414">
        <ele>2074.8000488281</ele>
        <time>2022-02-23T10:18:26.000Z</time>
      </trkpt>
      <trkpt lat="45.69524" lon="6.26415">
        <ele>2074.8000488281</ele>
        <time>2022-02-23T10:18:32.000Z</time>
      </trkpt>
      <trkpt lat="45.69524" lon="6.26415">
        <ele>2074.8000488281</ele>
        <time>2022-02-23T10:18:37.000Z</time>
      </trkpt>
      <trkpt lat="45.69524" lon="6.26415">
        <ele>2074.8000488281</ele>
        <time>2022-02-23T10:18:38.000Z</time>
      </trkpt>
      <trkpt lat="45.69524" lon="6.26415">
        <ele>2074.8000488281</ele>
        <time>2022-02-23T10:18:40.000Z</time>
      </trkpt>
      <trkpt lat="45.69524" lon="6.26415">
        <ele>2074.8000488281</ele>
        <time>2022-02-23T10:18:41.000Z</time>
      </trkpt>
      <trkpt lat="45.69524" lon="6.26415">
        <ele>2074.8000488281</ele>
        <time>2022-02-23T10:18:49.000Z</time>
      </trkpt>
      <trkpt lat="45.69524" lon="6.26414">
        <ele>2074.8000488281</ele>
        <time>2022-02-23T10:18:53.000Z</time>
      </trkpt>
      <trkpt lat="45.69524" lon="6.26414">
        <ele>2074.8000488281</ele>
        <time>2022-02-23T10:18:55.000Z</time>
      </trkpt>
      <trkpt lat="45.69524" lon="6.26414">
        <ele>2074.8000488281</ele>
        <time>2022-02-23T10:18:57.000Z</time>
      </trkpt>
      <trkpt lat="45.69523" lon="6.26414">
        <ele>2074.8000488281</ele>
        <time>2022-02-23T10:19:11.000Z</time>
      </trkpt>
      <trkpt lat="45.69524" lon="6.26414">
        <ele>2074.8000488281</ele>
        <time>2022-02-23T10:19:15.000Z</time>
      </trkpt>
      <trkpt lat="45.69524" lon="6.26414">
        <ele>2074.8000488281</ele>
        <time>2022-02-23T10:19:20.000Z</time>
      </trkpt>
      <trkpt lat="45.69524" lon="6.26414">
        <ele>2074.8000488281</ele>
        <time>2022-02-23T10:19:24.000Z</time>
      </trkpt>
      <trkpt lat="45.69524" lon="6.26415">
        <ele>2074.8000488281</ele>
        <time>2022-02-23T10:19:27.000Z</time>
      </trkpt>
      <trkpt lat="45.69524" lon="6.26415">
        <ele>2074.8000488281</ele>
        <time>2022-02-23T10:19:34.000Z</time>
      </trkpt>
      <trkpt lat="45.69524" lon="6.26415">
        <ele>2074.8000488281</ele>
        <time>2022-02-23T10:19:44.000Z</time>
      </trkpt>
      <trkpt lat="45.69524" lon="6.26415">
        <ele>2074.8000488281</ele>
        <time>2022-02-23T10:19:45.000Z</time>
      </trkpt>
      <trkpt lat="45.69524" lon="6.26415">
        <ele>2074.8000488281</ele>
        <time>2022-02-23T10:19:48.000Z</time>
      </trkpt>
      <trkpt lat="45.69524" lon="6.26415">
        <ele>2074.8000488281</ele>
        <time>2022-02-23T10:19:53.000Z</time>
      </trkpt>
      <trkpt lat="45.69524" lon="6.26415">
        <ele>2074.8000488281</ele>
        <time>2022-02-23T10:19:54.000Z</time>
      </trkpt>
      <trkpt lat="45.69524" lon="6.26414">
        <ele>2074.8000488281</ele>
        <time>2022-02-23T10:19:56.000Z</time>
      </trkpt>
      <trkpt lat="45.69524" lon="6.26414">
        <ele>2074.8000488281</ele>
        <time>2022-02-23T10:20:02.000Z</time>
      </trkpt>
      <trkpt lat="45.69525" lon="6.26414">
        <ele>2074.8000488281</ele>
        <time>2022-02-23T10:20:08.000Z</time>
      </trkpt>
      <trkpt lat="45.69525" lon="6.26414">
        <ele>2074.8000488281</ele>
        <time>2022-02-23T10:20:12.000Z</time>
      </trkpt>
      <trkpt lat="45.69525" lon="6.26414">
        <ele>2074.8000488281</ele>
        <time>2022-02-23T10:20:13.000Z</time>
      </trkpt>
      <trkpt lat="45.69524" lon="6.26414">
        <ele>2074.8000488281</ele>
        <time>2022-02-23T10:20:17.000Z</time>
      </trkpt>
      <trkpt lat="45.69523" lon="6.26414">
        <ele>2074.8000488281</ele>
        <time>2022-02-23T10:20:18.000Z</time>
      </trkpt>
      <trkpt lat="45.69523" lon="6.26415">
        <ele>2074.8000488281</ele>
        <time>2022-02-23T10:20:24.000Z</time>
      </trkpt>
      <trkpt lat="45.69523" lon="6.26416">
        <ele>2074.8000488281</ele>
        <time>2022-02-23T10:20:31.000Z</time>
      </trkpt>
      <trkpt lat="45.69523" lon="6.26416">
        <ele>2074.8000488281</ele>
        <time>2022-02-23T10:20:33.000Z</time>
      </trkpt>
      <trkpt lat="45.69523" lon="6.26415">
        <ele>2074.8000488281</ele>
        <time>2022-02-23T10:20:38.000Z</time>
      </trkpt>
      <trkpt lat="45.69523" lon="6.26415">
        <ele>2074.8000488281</ele>
        <time>2022-02-23T10:20:40.000Z</time>
      </trkpt>
      <trkpt lat="45.69523" lon="6.26416">
        <ele>2074.8000488281</ele>
        <time>2022-02-23T10:20:43.000Z</time>
      </trkpt>
      <trkpt lat="45.69524" lon="6.26416">
        <ele>2074.8000488281</ele>
        <time>2022-02-23T10:20:46.000Z</time>
      </trkpt>
      <trkpt lat="45.69524" lon="6.26415">
        <ele>2074.8000488281</ele>
        <time>2022-02-23T10:20:48.000Z</time>
      </trkpt>
      <trkpt lat="45.69524" lon="6.26415">
        <ele>2074.8000488281</ele>
        <time>2022-02-23T10:20:51.000Z</time>
      </trkpt>
      <trkpt lat="45.69524" lon="6.26415">
        <ele>2074.8000488281</ele>
        <time>2022-02-23T10:21:02.000Z</time>
      </trkpt>
      <trkpt lat="45.69525" lon="6.26415">
        <ele>2074.8000488281</ele>
        <time>2022-02-23T10:21:13.000Z</time>
      </trkpt>
      <trkpt lat="45.69525" lon="6.26415">
        <ele>2074.8000488281</ele>
        <time>2022-02-23T10:21:20.000Z</time>
      </trkpt>
      <trkpt lat="45.69525" lon="6.26415">
        <ele>2074.8000488281</ele>
        <time>2022-02-23T10:21:24.000Z</time>
      </trkpt>
      <trkpt lat="45.69525" lon="6.26415">
        <ele>2074.8000488281</ele>
        <time>2022-02-23T10:21:32.000Z</time>
      </trkpt>
      <trkpt lat="45.69525" lon="6.26415">
        <ele>2074.8000488281</ele>
        <time>2022-02-23T10:21:44.000Z</time>
      </trkpt>
      <trkpt lat="45.69525" lon="6.26415">
        <ele>2071.8000488281</ele>
        <time>2022-02-23T10:21:53.000Z</time>
      </trkpt>
      <trkpt lat="45.69525" lon="6.26415">
        <ele>2073.1999511719</ele>
        <time>2022-02-23T10:21:57.000Z</time>
      </trkpt>
      <trkpt lat="45.69525" lon="6.26416">
        <ele>2074.6000976562</ele>
        <time>2022-02-23T10:21:59.000Z</time>
      </trkpt>
      <trkpt lat="45.69525" lon="6.26415">
        <ele>2075</ele>
        <time>2022-02-23T10:22:06.000Z</time>
      </trkpt>
      <trkpt lat="45.69525" lon="6.26415">
        <ele>2075.1999511719</ele>
        <time>2022-02-23T10:22:11.000Z</time>
      </trkpt>
      <trkpt lat="45.69525" lon="6.26416">
        <ele>2074.3999023438</ele>
        <time>2022-02-23T10:22:20.000Z</time>
      </trkpt>
      <trkpt lat="45.69525" lon="6.26416">
        <ele>2074.1999511719</ele>
        <time>2022-02-23T10:22:23.000Z</time>
      </trkpt>
      <trkpt lat="45.69525" lon="6.26416">
        <ele>2074.1999511719</ele>
        <time>2022-02-23T10:22:25.000Z</time>
      </trkpt>
      <trkpt lat="45.69525" lon="6.26416">
        <ele>2074.3999023438</ele>
        <time>2022-02-23T10:22:29.000Z</time>
      </trkpt>
      <trkpt lat="45.69526" lon="6.26416">
        <ele>2074.3999023438</ele>
        <time>2022-02-23T10:22:33.000Z</time>
      </trkpt>
      <trkpt lat="45.69525" lon="6.26416">
        <ele>2074.6000976562</ele>
        <time>2022-02-23T10:22:41.000Z</time>
      </trkpt>
      <trkpt lat="45.69526" lon="6.26416">
        <ele>2074.6000976562</ele>
        <time>2022-02-23T10:22:42.000Z</time>
      </trkpt>
      <trkpt lat="45.69526" lon="6.26416">
        <ele>2074.6000976562</ele>
        <time>2022-02-23T10:22:45.000Z</time>
      </trkpt>
      <trkpt lat="45.69527" lon="6.26414">
        <ele>2075</ele>
        <time>2022-02-23T10:22:57.000Z</time>
      </trkpt>
      <trkpt lat="45.69527" lon="6.26414">
        <ele>2074.8000488281</ele>
        <time>2022-02-23T10:23:05.000Z</time>
      </trkpt>
      <trkpt lat="45.69526" lon="6.26414">
        <ele>2074.3999023438</ele>
        <time>2022-02-23T10:23:13.000Z</time>
      </trkpt>
      <trkpt lat="45.69526" lon="6.26414">
        <ele>2075</ele>
        <time>2022-02-23T10:23:23.000Z</time>
      </trkpt>
      <trkpt lat="45.69526" lon="6.26414">
        <ele>2074.6000976562</ele>
        <time>2022-02-23T10:23:30.000Z</time>
      </trkpt>
      <trkpt lat="45.69526" lon="6.26414">
        <ele>2074.6000976562</ele>
        <time>2022-02-23T10:23:31.000Z</time>
      </trkpt>
      <trkpt lat="45.69526" lon="6.26414">
        <ele>2074.8000488281</ele>
        <time>2022-02-23T10:23:37.000Z</time>
      </trkpt>
      <trkpt lat="45.69526" lon="6.26415">
        <ele>2074.3999023438</ele>
        <time>2022-02-23T10:23:43.000Z</time>
      </trkpt>
      <trkpt lat="45.69526" lon="6.26414">
        <ele>2074.3999023438</ele>
        <time>2022-02-23T10:23:45.000Z</time>
      </trkpt>
      <trkpt lat="45.69526" lon="6.26415">
        <ele>2074.1999511719</ele>
        <time>2022-02-23T10:23:49.000Z</time>
      </trkpt>
      <trkpt lat="45.69525" lon="6.26415">
        <ele>2075</ele>
        <time>2022-02-23T10:23:56.000Z</time>
      </trkpt>
      <trkpt lat="45.69525" lon="6.26415">
        <ele>2074.8000488281</ele>
        <time>2022-02-23T10:24:08.000Z</time>
      </trkpt>
      <trkpt lat="45.69525" lon="6.26415">
        <ele>2074.6000976562</ele>
        <time>2022-02-23T10:24:11.000Z</time>
      </trkpt>
      <trkpt lat="45.69525" lon="6.26415">
        <ele>2074.8000488281</ele>
        <time>2022-02-23T10:24:18.000Z</time>
      </trkpt>
      <trkpt lat="45.69526" lon="6.26415">
        <ele>2074.3999023438</ele>
        <time>2022-02-23T10:24:30.000Z</time>
      </trkpt>
      <trkpt lat="45.69527" lon="6.26414">
        <ele>2075.3999023438</ele>
        <time>2022-02-23T10:24:39.000Z</time>
      </trkpt>
      <trkpt lat="45.69528" lon="6.26411">
        <ele>2075.6000976562</ele>
        <time>2022-02-23T10:24:45.000Z</time>
      </trkpt>
      <trkpt lat="45.69528" lon="6.2641">
        <ele>2075.6000976562</ele>
        <time>2022-02-23T10:24:47.000Z</time>
      </trkpt>
      <trkpt lat="45.69527" lon="6.26409">
        <ele>2076</ele>
        <time>2022-02-23T10:24:51.000Z</time>
      </trkpt>
      <trkpt lat="45.69527" lon="6.26409">
        <ele>2076.3999023438</ele>
        <time>2022-02-23T10:24:56.000Z</time>
      </trkpt>
      <trkpt lat="45.69527" lon="6.26408">
        <ele>2076.3999023438</ele>
        <time>2022-02-23T10:24:59.000Z</time>
      </trkpt>
      <trkpt lat="45.69528" lon="6.26409">
        <ele>2076.1999511719</ele>
        <time>2022-02-23T10:25:09.000Z</time>
      </trkpt>
      <trkpt lat="45.69528" lon="6.26409">
        <ele>2076.3999023438</ele>
        <time>2022-02-23T10:25:10.000Z</time>
      </trkpt>
      <trkpt lat="45.69527" lon="6.26408">
        <ele>2075.6000976562</ele>
        <time>2022-02-23T10:25:22.000Z</time>
      </trkpt>
      <trkpt lat="45.69527" lon="6.26408">
        <ele>2076.1999511719</ele>
        <time>2022-02-23T10:25:32.000Z</time>
      </trkpt>
      <trkpt lat="45.69527" lon="6.26409">
        <ele>2075.8000488281</ele>
        <time>2022-02-23T10:25:49.000Z</time>
      </trkpt>
      <trkpt lat="45.69526" lon="6.26408">
        <ele>2075.3999023438</ele>
        <time>2022-02-23T10:25:59.000Z</time>
      </trkpt>
      <trkpt lat="45.69526" lon="6.26409">
        <ele>2076</ele>
        <time>2022-02-23T10:26:09.000Z</time>
      </trkpt>
      <trkpt lat="45.69526" lon="6.26409">
        <ele>2076</ele>
        <time>2022-02-23T10:26:17.000Z</time>
      </trkpt>
      <trkpt lat="45.69527" lon="6.2641">
        <ele>2076</ele>
        <time>2022-02-23T10:26:18.000Z</time>
      </trkpt>
      <trkpt lat="45.69525" lon="6.26414">
        <ele>2076</ele>
        <time>2022-02-23T10:26:24.000Z</time>
      </trkpt>
      <trkpt lat="45.69523" lon="6.26417">
        <ele>2075.6000976562</ele>
        <time>2022-02-23T10:26:28.000Z</time>
      </trkpt>
      <trkpt lat="45.69523" lon="6.26416">
        <ele>2074.3999023438</ele>
        <time>2022-02-23T10:26:33.000Z</time>
      </trkpt>
      <trkpt lat="45.69523" lon="6.26417">
        <ele>2074.6000976562</ele>
        <time>2022-02-23T10:26:35.000Z</time>
      </trkpt>
      <trkpt lat="45.69523" lon="6.26417">
        <ele>2074.8000488281</ele>
        <time>2022-02-23T10:26:38.000Z</time>
      </trkpt>
      <trkpt lat="45.69525" lon="6.26414">
        <ele>2075.1999511719</ele>
        <time>2022-02-23T10:26:42.000Z</time>
      </trkpt>
      <trkpt lat="45.69526" lon="6.26415">
        <ele>2075.8000488281</ele>
        <time>2022-02-23T10:26:45.000Z</time>
      </trkpt>
      <trkpt lat="45.69526" lon="6.26415">
        <ele>2075.6000976562</ele>
        <time>2022-02-23T10:26:47.000Z</time>
      </trkpt>
      <trkpt lat="45.69526" lon="6.26414">
        <ele>2075.3999023438</ele>
        <time>2022-02-23T10:26:55.000Z</time>
      </trkpt>
      <trkpt lat="45.69526" lon="6.26414">
        <ele>2075.6000976562</ele>
        <time>2022-02-23T10:27:01.000Z</time>
      </trkpt>
      <trkpt lat="45.69526" lon="6.26414">
        <ele>2075.6000976562</ele>
        <time>2022-02-23T10:27:07.000Z</time>
      </trkpt>
      <trkpt lat="45.69526" lon="6.26414">
        <ele>2075.6000976562</ele>
        <time>2022-02-23T10:27:11.000Z</time>
      </trkpt>
      <trkpt lat="45.69526" lon="6.26414">
        <ele>2075.6000976562</ele>
        <time>2022-02-23T10:27:16.000Z</time>
      </trkpt>
      <trkpt lat="45.69525" lon="6.26414">
        <ele>2075.6000976562</ele>
        <time>2022-02-23T10:27:26.000Z</time>
      </trkpt>
      <trkpt lat="45.69524" lon="6.26414">
        <ele>2075.6000976562</ele>
        <time>2022-02-23T10:27:31.000Z</time>
      </trkpt>
      <trkpt lat="45.69524" lon="6.26414">
        <ele>2075.6000976562</ele>
        <time>2022-02-23T10:27:37.000Z</time>
      </trkpt>
      <trkpt lat="45.69525" lon="6.26414">
        <ele>2075.6000976562</ele>
        <time>2022-02-23T10:27:44.000Z</time>
      </trkpt>
      <trkpt lat="45.69524" lon="6.26414">
        <ele>2075.6000976562</ele>
        <time>2022-02-23T10:27:46.000Z</time>
      </trkpt>
      <trkpt lat="45.69524" lon="6.26414">
        <ele>2075.6000976562</ele>
        <time>2022-02-23T10:27:52.000Z</time>
      </trkpt>
      <trkpt lat="45.69524" lon="6.26414">
        <ele>2075.6000976562</ele>
        <time>2022-02-23T10:27:53.000Z</time>
      </trkpt>
      <trkpt lat="45.69524" lon="6.26414">
        <ele>2075.6000976562</ele>
        <time>2022-02-23T10:28:02.000Z</time>
      </trkpt>
      <trkpt lat="45.69524" lon="6.26415">
        <ele>2075.6000976562</ele>
        <time>2022-02-23T10:28:06.000Z</time>
      </trkpt>
      <trkpt lat="45.69524" lon="6.26415">
        <ele>2075.6000976562</ele>
        <time>2022-02-23T10:28:08.000Z</time>
      </trkpt>
      <trkpt lat="45.69524" lon="6.26415">
        <ele>2075.6000976562</ele>
        <time>2022-02-23T10:28:09.000Z</time>
      </trkpt>
      <trkpt lat="45.69524" lon="6.26415">
        <ele>2075.6000976562</ele>
        <time>2022-02-23T10:28:19.000Z</time>
      </trkpt>
      <trkpt lat="45.69524" lon="6.26415">
        <ele>2075.6000976562</ele>
        <time>2022-02-23T10:28:28.000Z</time>
      </trkpt>
      <trkpt lat="45.69524" lon="6.26415">
        <ele>2075.6000976562</ele>
        <time>2022-02-23T10:28:29.000Z</time>
      </trkpt>
      <trkpt lat="45.69524" lon="6.26415">
        <ele>2075.6000976562</ele>
        <time>2022-02-23T10:28:35.000Z</time>
      </trkpt>
      <trkpt lat="45.69524" lon="6.26415">
        <ele>2075.6000976562</ele>
        <time>2022-02-23T10:28:43.000Z</time>
      </trkpt>
      <trkpt lat="45.69524" lon="6.26415">
        <ele>2075.6000976562</ele>
        <time>2022-02-23T10:28:50.000Z</time>
      </trkpt>
      <trkpt lat="45.69524" lon="6.26415">
        <ele>2075.6000976562</ele>
        <time>2022-02-23T10:28:55.000Z</time>
      </trkpt>
      <trkpt lat="45.69523" lon="6.26415">
        <ele>2075.6000976562</ele>
        <time>2022-02-23T10:28:59.000Z</time>
      </trkpt>
      <trkpt lat="45.69523" lon="6.26415">
        <ele>2075.6000976562</ele>
        <time>2022-02-23T10:29:02.000Z</time>
      </trkpt>
      <trkpt lat="45.69523" lon="6.26415">
        <ele>2075.6000976562</ele>
        <time>2022-02-23T10:29:10.000Z</time>
      </trkpt>
      <trkpt lat="45.69523" lon="6.26415">
        <ele>2075.6000976562</ele>
        <time>2022-02-23T10:29:13.000Z</time>
      </trkpt>
      <trkpt lat="45.69524" lon="6.26415">
        <ele>2075.6000976562</ele>
        <time>2022-02-23T10:29:19.000Z</time>
      </trkpt>
      <trkpt lat="45.69524" lon="6.26415">
        <ele>2075.6000976562</ele>
        <time>2022-02-23T10:29:26.000Z</time>
      </trkpt>
      <trkpt lat="45.69525" lon="6.26414">
        <ele>2075.6000976562</ele>
        <time>2022-02-23T10:29:32.000Z</time>
      </trkpt>
      <trkpt lat="45.69525" lon="6.26414">
        <ele>2075.6000976562</ele>
        <time>2022-02-23T10:29:40.000Z</time>
      </trkpt>
      <trkpt lat="45.69525" lon="6.26414">
        <ele>2075.6000976562</ele>
        <time>2022-02-23T10:29:43.000Z</time>
      </trkpt>
      <trkpt lat="45.69525" lon="6.26414">
        <ele>2075.6000976562</ele>
        <time>2022-02-23T10:29:46.000Z</time>
      </trkpt>
      <trkpt lat="45.69525" lon="6.26413">
        <ele>2075.6000976562</ele>
        <time>2022-02-23T10:29:50.000Z</time>
      </trkpt>
      <trkpt lat="45.69525" lon="6.26413">
        <ele>2075.6000976562</ele>
        <time>2022-02-23T10:29:54.000Z</time>
      </trkpt>
      <trkpt lat="45.69525" lon="6.26413">
        <ele>2075.6000976562</ele>
        <time>2022-02-23T10:29:57.000Z</time>
      </trkpt>
      <trkpt lat="45.69525" lon="6.26413">
        <ele>2075.6000976562</ele>
        <time>2022-02-23T10:30:03.000Z</time>
      </trkpt>
      <trkpt lat="45.69525" lon="6.26414">
        <ele>2075.6000976562</ele>
        <time>2022-02-23T10:30:10.000Z</time>
      </trkpt>
      <trkpt lat="45.69524" lon="6.26414">
        <ele>2075.6000976562</ele>
        <time>2022-02-23T10:30:19.000Z</time>
      </trkpt>
      <trkpt lat="45.69525" lon="6.26413">
        <ele>2075.6000976562</ele>
        <time>2022-02-23T10:30:26.000Z</time>
      </trkpt>
      <trkpt lat="45.69525" lon="6.26413">
        <ele>2075.6000976562</ele>
        <time>2022-02-23T10:30:28.000Z</time>
      </trkpt>
      <trkpt lat="45.69525" lon="6.26413">
        <ele>2075.6000976562</ele>
        <time>2022-02-23T10:30:30.000Z</time>
      </trkpt>
      <trkpt lat="45.69525" lon="6.26414">
        <ele>2075.6000976562</ele>
        <time>2022-02-23T10:30:36.000Z</time>
      </trkpt>
      <trkpt lat="45.69525" lon="6.26414">
        <ele>2075.6000976562</ele>
        <time>2022-02-23T10:30:44.000Z</time>
      </trkpt>
      <trkpt lat="45.69526" lon="6.26414">
        <ele>2075.6000976562</ele>
        <time>2022-02-23T10:30:56.000Z</time>
      </trkpt>
      <trkpt lat="45.69526" lon="6.26414">
        <ele>2075.6000976562</ele>
        <time>2022-02-23T10:31:02.000Z</time>
      </trkpt>
      <trkpt lat="45.69526" lon="6.26414">
        <ele>2075.6000976562</ele>
        <time>2022-02-23T10:31:05.000Z</time>
      </trkpt>
      <trkpt lat="45.69526" lon="6.26414">
        <ele>2075.6000976562</ele>
        <time>2022-02-23T10:31:10.000Z</time>
      </trkpt>
      <trkpt lat="45.69525" lon="6.26414">
        <ele>2075.6000976562</ele>
        <time>2022-02-23T10:31:18.000Z</time>
      </trkpt>
      <trkpt lat="45.69525" lon="6.26415">
        <ele>2075.6000976562</ele>
        <time>2022-02-23T10:31:25.000Z</time>
      </trkpt>
      <trkpt lat="45.69524" lon="6.26414">
        <ele>2075.6000976562</ele>
        <time>2022-02-23T10:31:31.000Z</time>
      </trkpt>
      <trkpt lat="45.6952" lon="6.26412">
        <ele>2075.6000976562</ele>
        <time>2022-02-23T10:31:39.000Z</time>
      </trkpt>
      <trkpt lat="45.6952" lon="6.26413">
        <ele>2075.6000976562</ele>
        <time>2022-02-23T10:31:49.000Z</time>
      </trkpt>
      <trkpt lat="45.6952" lon="6.26413">
        <ele>2075.6000976562</ele>
        <time>2022-02-23T10:31:50.000Z</time>
      </trkpt>
      <trkpt lat="45.6952" lon="6.26413">
        <ele>2075.6000976562</ele>
        <time>2022-02-23T10:31:55.000Z</time>
      </trkpt>
      <trkpt lat="45.6952" lon="6.26413">
        <ele>2075.6000976562</ele>
        <time>2022-02-23T10:31:56.000Z</time>
      </trkpt>
      <trkpt lat="45.6952" lon="6.26414">
        <ele>2075.6000976562</ele>
        <time>2022-02-23T10:32:03.000Z</time>
      </trkpt>
      <trkpt lat="45.6952" lon="6.26414">
        <ele>2075.6000976562</ele>
        <time>2022-02-23T10:32:05.000Z</time>
      </trkpt>
      <trkpt lat="45.6952" lon="6.26414">
        <ele>2075.6000976562</ele>
        <time>2022-02-23T10:32:06.000Z</time>
      </trkpt>
      <trkpt lat="45.6952" lon="6.26414">
        <ele>2075.6000976562</ele>
        <time>2022-02-23T10:32:15.000Z</time>
      </trkpt>
      <trkpt lat="45.6952" lon="6.26414">
        <ele>2075.6000976562</ele>
        <time>2022-02-23T10:32:16.000Z</time>
      </trkpt>
      <trkpt lat="45.69521" lon="6.26414">
        <ele>2075.6000976562</ele>
        <time>2022-02-23T10:32:17.000Z</time>
      </trkpt>
      <trkpt lat="45.69521" lon="6.26414">
        <ele>2075.6000976562</ele>
        <time>2022-02-23T10:32:21.000Z</time>
      </trkpt>
      <trkpt lat="45.6952" lon="6.26414">
        <ele>2075.6000976562</ele>
        <time>2022-02-23T10:32:23.000Z</time>
      </trkpt>
      <trkpt lat="45.69521" lon="6.26424">
        <ele>2075.6000976562</ele>
        <time>2022-02-23T10:32:27.000Z</time>
      </trkpt>
      <trkpt lat="45.69525" lon="6.26433">
        <ele>2074.6000976562</ele>
        <time>2022-02-23T10:32:29.000Z</time>
      </trkpt>
      <trkpt lat="45.69527" lon="6.26444">
        <ele>2074.6000976562</ele>
        <time>2022-02-23T10:32:31.000Z</time>
      </trkpt>
      <trkpt lat="45.69527" lon="6.26451">
        <ele>2073</ele>
        <time>2022-02-23T10:32:32.000Z</time>
      </trkpt>
      <trkpt lat="45.69527" lon="6.26457">
        <ele>2072.1999511719</ele>
        <time>2022-02-23T10:32:33.000Z</time>
      </trkpt>
      <trkpt lat="45.69528" lon="6.26464">
        <ele>2071.6000976562</ele>
        <time>2022-02-23T10:32:34.000Z</time>
      </trkpt>
      <trkpt lat="45.69528" lon="6.2647">
        <ele>2069</ele>
        <time>2022-02-23T10:32:35.000Z</time>
      </trkpt>
      <trkpt lat="45.69527" lon="6.26475">
        <ele>2067.3999023438</ele>
        <time>2022-02-23T10:32:36.000Z</time>
      </trkpt>
      <trkpt lat="45.69527" lon="6.26481">
        <ele>2065.6000976562</ele>
        <time>2022-02-23T10:32:37.000Z</time>
      </trkpt>
      <trkpt lat="45.69527" lon="6.26487">
        <ele>2064.3999023438</ele>
        <time>2022-02-23T10:32:38.000Z</time>
      </trkpt>
      <trkpt lat="45.69524" lon="6.26492">
        <ele>2062.6000976562</ele>
        <time>2022-02-23T10:32:39.000Z</time>
      </trkpt>
      <trkpt lat="45.69521" lon="6.26494">
        <ele>2061.1999511719</ele>
        <time>2022-02-23T10:32:40.000Z</time>
      </trkpt>
      <trkpt lat="45.6952" lon="6.26495">
        <ele>2059.1999511719</ele>
        <time>2022-02-23T10:32:41.000Z</time>
      </trkpt>
      <trkpt lat="45.69519" lon="6.26495">
        <ele>2058.1999511719</ele>
        <time>2022-02-23T10:32:42.000Z</time>
      </trkpt>
      <trkpt lat="45.69519" lon="6.26495">
        <ele>2057.3999023438</ele>
        <time>2022-02-23T10:32:43.000Z</time>
      </trkpt>
      <trkpt lat="45.69519" lon="6.26495">
        <ele>2057.1999511719</ele>
        <time>2022-02-23T10:32:44.000Z</time>
      </trkpt>
      <trkpt lat="45.69519" lon="6.26495">
        <ele>2057</ele>
        <time>2022-02-23T10:32:46.000Z</time>
      </trkpt>
      <trkpt lat="45.69519" lon="6.26495">
        <ele>2057</ele>
        <time>2022-02-23T10:32:49.000Z</time>
      </trkpt>
      <trkpt lat="45.69519" lon="6.26494">
        <ele>2056.6000976562</ele>
        <time>2022-02-23T10:32:56.000Z</time>
      </trkpt>
      <trkpt lat="45.69519" lon="6.26495">
        <ele>2056.1999511719</ele>
        <time>2022-02-23T10:33:03.000Z</time>
      </trkpt>
      <trkpt lat="45.69517" lon="6.26499">
        <ele>2056.1999511719</ele>
        <time>2022-02-23T10:33:05.000Z</time>
      </trkpt>
      <trkpt lat="45.69518" lon="6.26502">
        <ele>2056.1999511719</ele>
        <time>2022-02-23T10:33:06.000Z</time>
      </trkpt>
      <trkpt lat="45.6952" lon="6.26504">
        <ele>2055.8000488281</ele>
        <time>2022-02-23T10:33:07.000Z</time>
      </trkpt>
      <trkpt lat="45.69521" lon="6.26505">
        <ele>2054.3999023438</ele>
        <time>2022-02-23T10:33:08.000Z</time>
      </trkpt>
      <trkpt lat="45.69522" lon="6.26505">
        <ele>2053.6000976562</ele>
        <time>2022-02-23T10:33:09.000Z</time>
      </trkpt>
      <trkpt lat="45.69522" lon="6.26505">
        <ele>2053</ele>
        <time>2022-02-23T10:33:10.000Z</time>
      </trkpt>
      <trkpt lat="45.69523" lon="6.26505">
        <ele>2052.3999023438</ele>
        <time>2022-02-23T10:33:16.000Z</time>
      </trkpt>
      <trkpt lat="45.69523" lon="6.26505">
        <ele>2052</ele>
        <time>2022-02-23T10:33:24.000Z</time>
      </trkpt>
      <trkpt lat="45.69523" lon="6.26505">
        <ele>2051.8000488281</ele>
        <time>2022-02-23T10:33:27.000Z</time>
      </trkpt>
      <trkpt lat="45.69523" lon="6.26505">
        <ele>2051.8000488281</ele>
        <time>2022-02-23T10:33:28.000Z</time>
      </trkpt>
      <trkpt lat="45.69523" lon="6.26505">
        <ele>2052</ele>
        <time>2022-02-23T10:33:39.000Z</time>
      </trkpt>
      <trkpt lat="45.69527" lon="6.26509">
        <ele>2052</ele>
        <time>2022-02-23T10:33:56.000Z</time>
      </trkpt>
      <trkpt lat="45.69536" lon="6.2652">
        <ele>2051</ele>
        <time>2022-02-23T10:33:59.000Z</time>
      </trkpt>
      <trkpt lat="45.69539" lon="6.26531">
        <ele>2048.8000488281</ele>
        <time>2022-02-23T10:34:01.000Z</time>
      </trkpt>
      <trkpt lat="45.69542" lon="6.26537">
        <ele>2046.8000488281</ele>
        <time>2022-02-23T10:34:02.000Z</time>
      </trkpt>
      <trkpt lat="45.69541" lon="6.26544">
        <ele>2044.1999511719</ele>
        <time>2022-02-23T10:34:03.000Z</time>
      </trkpt>
      <trkpt lat="45.69539" lon="6.26549">
        <ele>2041.8000488281</ele>
        <time>2022-02-23T10:34:04.000Z</time>
      </trkpt>
      <trkpt lat="45.69538" lon="6.26555">
        <ele>2037.4000244141</ele>
        <time>2022-02-23T10:34:05.000Z</time>
      </trkpt>
      <trkpt lat="45.69537" lon="6.26563">
        <ele>2034.5999755859</ele>
        <time>2022-02-23T10:34:06.000Z</time>
      </trkpt>
      <trkpt lat="45.69538" lon="6.2657">
        <ele>2032.8000488281</ele>
        <time>2022-02-23T10:34:07.000Z</time>
      </trkpt>
      <trkpt lat="45.69542" lon="6.26574">
        <ele>2029.1999511719</ele>
        <time>2022-02-23T10:34:08.000Z</time>
      </trkpt>
      <trkpt lat="45.69548" lon="6.26575">
        <ele>2026.4000244141</ele>
        <time>2022-02-23T10:34:09.000Z</time>
      </trkpt>
      <trkpt lat="45.69552" lon="6.26579">
        <ele>2022.1999511719</ele>
        <time>2022-02-23T10:34:10.000Z</time>
      </trkpt>
      <trkpt lat="45.69551" lon="6.26584">
        <ele>2018.8000488281</ele>
        <time>2022-02-23T10:34:11.000Z</time>
      </trkpt>
      <trkpt lat="45.6955" lon="6.26586">
        <ele>2017.1999511719</ele>
        <time>2022-02-23T10:34:12.000Z</time>
      </trkpt>
      <trkpt lat="45.69549" lon="6.26586">
        <ele>2015.5999755859</ele>
        <time>2022-02-23T10:34:13.000Z</time>
      </trkpt>
      <trkpt lat="45.6955" lon="6.26587">
        <ele>2014.1999511719</ele>
        <time>2022-02-23T10:34:14.000Z</time>
      </trkpt>
      <trkpt lat="45.6955" lon="6.26586">
        <ele>2013.1999511719</ele>
        <time>2022-02-23T10:34:16.000Z</time>
      </trkpt>
      <trkpt lat="45.69551" lon="6.26586">
        <ele>2012.5999755859</ele>
        <time>2022-02-23T10:34:19.000Z</time>
      </trkpt>
      <trkpt lat="45.69551" lon="6.26587">
        <ele>2012.8000488281</ele>
        <time>2022-02-23T10:34:21.000Z</time>
      </trkpt>
      <trkpt lat="45.69551" lon="6.26587">
        <ele>2012.8000488281</ele>
        <time>2022-02-23T10:34:24.000Z</time>
      </trkpt>
      <trkpt lat="45.69551" lon="6.26586">
        <ele>2012.8000488281</ele>
        <time>2022-02-23T10:34:26.000Z</time>
      </trkpt>
      <trkpt lat="45.69551" lon="6.26586">
        <ele>2012.8000488281</ele>
        <time>2022-02-23T10:34:27.000Z</time>
      </trkpt>
      <trkpt lat="45.69552" lon="6.26586">
        <ele>2012.8000488281</ele>
        <time>2022-02-23T10:34:28.000Z</time>
      </trkpt>
      <trkpt lat="45.69552" lon="6.26586">
        <ele>2012.8000488281</ele>
        <time>2022-02-23T10:34:29.000Z</time>
      </trkpt>
      <trkpt lat="45.69552" lon="6.26586">
        <ele>2012.8000488281</ele>
        <time>2022-02-23T10:34:31.000Z</time>
      </trkpt>
      <trkpt lat="45.69552" lon="6.26586">
        <ele>2012.8000488281</ele>
        <time>2022-02-23T10:34:34.000Z</time>
      </trkpt>
      <trkpt lat="45.69552" lon="6.26586">
        <ele>2012.8000488281</ele>
        <time>2022-02-23T10:34:35.000Z</time>
      </trkpt>
      <trkpt lat="45.69553" lon="6.26586">
        <ele>2012.5999755859</ele>
        <time>2022-02-23T10:34:47.000Z</time>
      </trkpt>
      <trkpt lat="45.69553" lon="6.26586">
        <ele>2012.4000244141</ele>
        <time>2022-02-23T10:34:53.000Z</time>
      </trkpt>
      <trkpt lat="45.69553" lon="6.26586">
        <ele>2012.5999755859</ele>
        <time>2022-02-23T10:34:55.000Z</time>
      </trkpt>
      <trkpt lat="45.69553" lon="6.26586">
        <ele>2012.8000488281</ele>
        <time>2022-02-23T10:35:07.000Z</time>
      </trkpt>
      <trkpt lat="45.69553" lon="6.26586">
        <ele>2012.8000488281</ele>
        <time>2022-02-23T10:35:08.000Z</time>
      </trkpt>
      <trkpt lat="45.69553" lon="6.26585">
        <ele>2012.5999755859</ele>
        <time>2022-02-23T10:35:13.000Z</time>
      </trkpt>
      <trkpt lat="45.69553" lon="6.26586">
        <ele>2012.4000244141</ele>
        <time>2022-02-23T10:35:20.000Z</time>
      </trkpt>
      <trkpt lat="45.6955" lon="6.2659">
        <ele>2012.1999511719</ele>
        <time>2022-02-23T10:35:24.000Z</time>
      </trkpt>
      <trkpt lat="45.69549" lon="6.26592">
        <ele>2011.8000488281</ele>
        <time>2022-02-23T10:35:25.000Z</time>
      </trkpt>
      <trkpt lat="45.69544" lon="6.26598">
        <ele>2011.4000244141</ele>
        <time>2022-02-23T10:35:27.000Z</time>
      </trkpt>
      <trkpt lat="45.69542" lon="6.26602">
        <ele>2011.1999511719</ele>
        <time>2022-02-23T10:35:28.000Z</time>
      </trkpt>
      <trkpt lat="45.69543" lon="6.26606">
        <ele>2010</ele>
        <time>2022-02-23T10:35:29.000Z</time>
      </trkpt>
      <trkpt lat="45.69549" lon="6.2661">
        <ele>2007.4000244141</ele>
        <time>2022-02-23T10:35:31.000Z</time>
      </trkpt>
      <trkpt lat="45.69551" lon="6.26609">
        <ele>2005.4000244141</ele>
        <time>2022-02-23T10:35:32.000Z</time>
      </trkpt>
      <trkpt lat="45.69553" lon="6.26608">
        <ele>2004.4000244141</ele>
        <time>2022-02-23T10:35:33.000Z</time>
      </trkpt>
      <trkpt lat="45.69553" lon="6.26609">
        <ele>2003.1999511719</ele>
        <time>2022-02-23T10:35:34.000Z</time>
      </trkpt>
      <trkpt lat="45.69553" lon="6.26609">
        <ele>2002.1999511719</ele>
        <time>2022-02-23T10:35:35.000Z</time>
      </trkpt>
      <trkpt lat="45.69553" lon="6.26609">
        <ele>2001.5999755859</ele>
        <time>2022-02-23T10:35:36.000Z</time>
      </trkpt>
      <trkpt lat="45.69553" lon="6.26608">
        <ele>2001</ele>
        <time>2022-02-23T10:35:39.000Z</time>
      </trkpt>
      <trkpt lat="45.69553" lon="6.26608">
        <ele>2000.8000488281</ele>
        <time>2022-02-23T10:35:49.000Z</time>
      </trkpt>
      <trkpt lat="45.69553" lon="6.26608">
        <ele>2000.5999755859</ele>
        <time>2022-02-23T10:35:50.000Z</time>
      </trkpt>
      <trkpt lat="45.69553" lon="6.26608">
        <ele>2001</ele>
        <time>2022-02-23T10:35:54.000Z</time>
      </trkpt>
      <trkpt lat="45.69553" lon="6.26608">
        <ele>2001.1999511719</ele>
        <time>2022-02-23T10:35:58.000Z</time>
      </trkpt>
      <trkpt lat="45.69553" lon="6.26607">
        <ele>2001.4000244141</ele>
        <time>2022-02-23T10:36:06.000Z</time>
      </trkpt>
      <trkpt lat="45.69554" lon="6.26607">
        <ele>2001.5999755859</ele>
        <time>2022-02-23T10:36:15.000Z</time>
      </trkpt>
      <trkpt lat="45.69554" lon="6.26607">
        <ele>2001.5999755859</ele>
        <time>2022-02-23T10:36:16.000Z</time>
      </trkpt>
      <trkpt lat="45.69555" lon="6.26606">
        <ele>2001.4000244141</ele>
        <time>2022-02-23T10:36:22.000Z</time>
      </trkpt>
      <trkpt lat="45.69561" lon="6.26607">
        <ele>2001.1999511719</ele>
        <time>2022-02-23T10:36:26.000Z</time>
      </trkpt>
      <trkpt lat="45.69569" lon="6.26606">
        <ele>2000.4000244141</ele>
        <time>2022-02-23T10:36:28.000Z</time>
      </trkpt>
      <trkpt lat="45.69576" lon="6.26605">
        <ele>1999.1999511719</ele>
        <time>2022-02-23T10:36:30.000Z</time>
      </trkpt>
      <trkpt lat="45.69579" lon="6.26607">
        <ele>1997.5999755859</ele>
        <time>2022-02-23T10:36:31.000Z</time>
      </trkpt>
      <trkpt lat="45.69579" lon="6.26612">
        <ele>1996.5999755859</ele>
        <time>2022-02-23T10:36:32.000Z</time>
      </trkpt>
      <trkpt lat="45.69577" lon="6.26618">
        <ele>1995.1999511719</ele>
        <time>2022-02-23T10:36:33.000Z</time>
      </trkpt>
      <trkpt lat="45.69574" lon="6.26623">
        <ele>1993.8000488281</ele>
        <time>2022-02-23T10:36:34.000Z</time>
      </trkpt>
      <trkpt lat="45.69571" lon="6.26627">
        <ele>1991.5999755859</ele>
        <time>2022-02-23T10:36:35.000Z</time>
      </trkpt>
      <trkpt lat="45.69569" lon="6.26632">
        <ele>1990.1999511719</ele>
        <time>2022-02-23T10:36:36.000Z</time>
      </trkpt>
      <trkpt lat="45.69568" lon="6.26635">
        <ele>1988.5999755859</ele>
        <time>2022-02-23T10:36:37.000Z</time>
      </trkpt>
      <trkpt lat="45.69567" lon="6.26639">
        <ele>1987.1999511719</ele>
        <time>2022-02-23T10:36:38.000Z</time>
      </trkpt>
      <trkpt lat="45.69568" lon="6.26641">
        <ele>1986.4000244141</ele>
        <time>2022-02-23T10:36:39.000Z</time>
      </trkpt>
      <trkpt lat="45.69572" lon="6.2664">
        <ele>1985.5999755859</ele>
        <time>2022-02-23T10:36:40.000Z</time>
      </trkpt>
      <trkpt lat="45.69575" lon="6.26641">
        <ele>1983.1999511719</ele>
        <time>2022-02-23T10:36:41.000Z</time>
      </trkpt>
      <trkpt lat="45.69575" lon="6.26646">
        <ele>1981.5999755859</ele>
        <time>2022-02-23T10:36:42.000Z</time>
      </trkpt>
      <trkpt lat="45.69573" lon="6.26652">
        <ele>1980</ele>
        <time>2022-02-23T10:36:43.000Z</time>
      </trkpt>
      <trkpt lat="45.69571" lon="6.26655">
        <ele>1977.8000488281</ele>
        <time>2022-02-23T10:36:44.000Z</time>
      </trkpt>
      <trkpt lat="45.6957" lon="6.26656">
        <ele>1975.8000488281</ele>
        <time>2022-02-23T10:36:45.000Z</time>
      </trkpt>
      <trkpt lat="45.6957" lon="6.26657">
        <ele>1974.5999755859</ele>
        <time>2022-02-23T10:36:46.000Z</time>
      </trkpt>
      <trkpt lat="45.6957" lon="6.26656">
        <ele>1973.5999755859</ele>
        <time>2022-02-23T10:36:48.000Z</time>
      </trkpt>
      <trkpt lat="45.6957" lon="6.26655">
        <ele>1973.4000244141</ele>
        <time>2022-02-23T10:36:49.000Z</time>
      </trkpt>
      <trkpt lat="45.6957" lon="6.26655">
        <ele>1972.8000488281</ele>
        <time>2022-02-23T10:37:01.000Z</time>
      </trkpt>
      <trkpt lat="45.6957" lon="6.26655">
        <ele>1973</ele>
        <time>2022-02-23T10:37:05.000Z</time>
      </trkpt>
      <trkpt lat="45.69571" lon="6.26654">
        <ele>1972.8000488281</ele>
        <time>2022-02-23T10:37:17.000Z</time>
      </trkpt>
      <trkpt lat="45.69571" lon="6.26654">
        <ele>1972.8000488281</ele>
        <time>2022-02-23T10:37:20.000Z</time>
      </trkpt>
      <trkpt lat="45.69572" lon="6.26653">
        <ele>1972.8000488281</ele>
        <time>2022-02-23T10:37:28.000Z</time>
      </trkpt>
      <trkpt lat="45.69572" lon="6.26651">
        <ele>1972.8000488281</ele>
        <time>2022-02-23T10:37:38.000Z</time>
      </trkpt>
      <trkpt lat="45.69572" lon="6.26657">
        <ele>1972.5999755859</ele>
        <time>2022-02-23T10:37:42.000Z</time>
      </trkpt>
      <trkpt lat="45.69573" lon="6.26659">
        <ele>1972</ele>
        <time>2022-02-23T10:37:43.000Z</time>
      </trkpt>
      <trkpt lat="45.69574" lon="6.26663">
        <ele>1971.4000244141</ele>
        <time>2022-02-23T10:37:44.000Z</time>
      </trkpt>
      <trkpt lat="45.69574" lon="6.26668">
        <ele>1970.4000244141</ele>
        <time>2022-02-23T10:37:45.000Z</time>
      </trkpt>
      <trkpt lat="45.69574" lon="6.26672">
        <ele>1968.8000488281</ele>
        <time>2022-02-23T10:37:46.000Z</time>
      </trkpt>
      <trkpt lat="45.69574" lon="6.26677">
        <ele>1965.8000488281</ele>
        <time>2022-02-23T10:37:47.000Z</time>
      </trkpt>
      <trkpt lat="45.69578" lon="6.26678">
        <ele>1964.1999511719</ele>
        <time>2022-02-23T10:37:48.000Z</time>
      </trkpt>
      <trkpt lat="45.69583" lon="6.26677">
        <ele>1961.8000488281</ele>
        <time>2022-02-23T10:37:49.000Z</time>
      </trkpt>
      <trkpt lat="45.69588" lon="6.26676">
        <ele>1958.5999755859</ele>
        <time>2022-02-23T10:37:50.000Z</time>
      </trkpt>
      <trkpt lat="45.69593" lon="6.26675">
        <ele>1956.4000244141</ele>
        <time>2022-02-23T10:37:51.000Z</time>
      </trkpt>
      <trkpt lat="45.69599" lon="6.26674">
        <ele>1955</ele>
        <time>2022-02-23T10:37:52.000Z</time>
      </trkpt>
      <trkpt lat="45.69602" lon="6.26678">
        <ele>1954</ele>
        <time>2022-02-23T10:37:53.000Z</time>
      </trkpt>
      <trkpt lat="45.69602" lon="6.26686">
        <ele>1952.4000244141</ele>
        <time>2022-02-23T10:37:54.000Z</time>
      </trkpt>
      <trkpt lat="45.69601" lon="6.26697">
        <ele>1950.8000488281</ele>
        <time>2022-02-23T10:37:55.000Z</time>
      </trkpt>
      <trkpt lat="45.696" lon="6.26705">
        <ele>1948.1999511719</ele>
        <time>2022-02-23T10:37:56.000Z</time>
      </trkpt>
      <trkpt lat="45.69601" lon="6.26712">
        <ele>1945.8000488281</ele>
        <time>2022-02-23T10:37:57.000Z</time>
      </trkpt>
      <trkpt lat="45.69603" lon="6.26718">
        <ele>1944.4000244141</ele>
        <time>2022-02-23T10:37:58.000Z</time>
      </trkpt>
      <trkpt lat="45.69605" lon="6.26725">
        <ele>1942.5999755859</ele>
        <time>2022-02-23T10:37:59.000Z</time>
      </trkpt>
      <trkpt lat="45.69609" lon="6.26724">
        <ele>1940.8000488281</ele>
        <time>2022-02-23T10:38:00.000Z</time>
      </trkpt>
      <trkpt lat="45.69612" lon="6.26723">
        <ele>1938.8000488281</ele>
        <time>2022-02-23T10:38:01.000Z</time>
      </trkpt>
      <trkpt lat="45.69614" lon="6.2672">
        <ele>1937.5999755859</ele>
        <time>2022-02-23T10:38:02.000Z</time>
      </trkpt>
      <trkpt lat="45.69619" lon="6.26711">
        <ele>1936</ele>
        <time>2022-02-23T10:38:04.000Z</time>
      </trkpt>
      <trkpt lat="45.69623" lon="6.26705">
        <ele>1934.8000488281</ele>
        <time>2022-02-23T10:38:06.000Z</time>
      </trkpt>
      <trkpt lat="45.69623" lon="6.26704">
        <ele>1934.1999511719</ele>
        <time>2022-02-23T10:38:07.000Z</time>
      </trkpt>
      <trkpt lat="45.69623" lon="6.26703">
        <ele>1933.4000244141</ele>
        <time>2022-02-23T10:38:09.000Z</time>
      </trkpt>
      <trkpt lat="45.69623" lon="6.26703">
        <ele>1932.8000488281</ele>
        <time>2022-02-23T10:38:15.000Z</time>
      </trkpt>
      <trkpt lat="45.69626" lon="6.26701">
        <ele>1933</ele>
        <time>2022-02-23T10:38:23.000Z</time>
      </trkpt>
      <trkpt lat="45.69634" lon="6.267">
        <ele>1932.5999755859</ele>
        <time>2022-02-23T10:38:25.000Z</time>
      </trkpt>
      <trkpt lat="45.69637" lon="6.26703">
        <ele>1932.1999511719</ele>
        <time>2022-02-23T10:38:26.000Z</time>
      </trkpt>
      <trkpt lat="45.69638" lon="6.26708">
        <ele>1931</ele>
        <time>2022-02-23T10:38:27.000Z</time>
      </trkpt>
      <trkpt lat="45.6964" lon="6.26715">
        <ele>1928.8000488281</ele>
        <time>2022-02-23T10:38:28.000Z</time>
      </trkpt>
      <trkpt lat="45.69641" lon="6.26724">
        <ele>1926.8000488281</ele>
        <time>2022-02-23T10:38:29.000Z</time>
      </trkpt>
      <trkpt lat="45.69641" lon="6.26734">
        <ele>1924.8000488281</ele>
        <time>2022-02-23T10:38:30.000Z</time>
      </trkpt>
      <trkpt lat="45.69641" lon="6.26744">
        <ele>1920.8000488281</ele>
        <time>2022-02-23T10:38:31.000Z</time>
      </trkpt>
      <trkpt lat="45.6964" lon="6.26751">
        <ele>1918.5999755859</ele>
        <time>2022-02-23T10:38:32.000Z</time>
      </trkpt>
      <trkpt lat="45.6964" lon="6.26758">
        <ele>1916.1999511719</ele>
        <time>2022-02-23T10:38:33.000Z</time>
      </trkpt>
      <trkpt lat="45.6964" lon="6.26764">
        <ele>1914.1999511719</ele>
        <time>2022-02-23T10:38:34.000Z</time>
      </trkpt>
      <trkpt lat="45.6964" lon="6.26769">
        <ele>1913</ele>
        <time>2022-02-23T10:38:35.000Z</time>
      </trkpt>
      <trkpt lat="45.69639" lon="6.26774">
        <ele>1912.1999511719</ele>
        <time>2022-02-23T10:38:36.000Z</time>
      </trkpt>
      <trkpt lat="45.69639" lon="6.26781">
        <ele>1911</ele>
        <time>2022-02-23T10:38:37.000Z</time>
      </trkpt>
      <trkpt lat="45.6964" lon="6.26796">
        <ele>1908.8000488281</ele>
        <time>2022-02-23T10:38:39.000Z</time>
      </trkpt>
      <trkpt lat="45.69643" lon="6.26803">
        <ele>1907.4000244141</ele>
        <time>2022-02-23T10:38:40.000Z</time>
      </trkpt>
      <trkpt lat="45.69646" lon="6.26811">
        <ele>1906.5999755859</ele>
        <time>2022-02-23T10:38:41.000Z</time>
      </trkpt>
      <trkpt lat="45.69648" lon="6.26819">
        <ele>1905.1999511719</ele>
        <time>2022-02-23T10:38:42.000Z</time>
      </trkpt>
      <trkpt lat="45.6965" lon="6.26826">
        <ele>1903.5999755859</ele>
        <time>2022-02-23T10:38:43.000Z</time>
      </trkpt>
      <trkpt lat="45.69651" lon="6.26829">
        <ele>1902</ele>
        <time>2022-02-23T10:38:44.000Z</time>
      </trkpt>
      <trkpt lat="45.69651" lon="6.26829">
        <ele>1900.5999755859</ele>
        <time>2022-02-23T10:38:45.000Z</time>
      </trkpt>
      <trkpt lat="45.6965" lon="6.26829">
        <ele>1899.4000244141</ele>
        <time>2022-02-23T10:38:46.000Z</time>
      </trkpt>
      <trkpt lat="45.6965" lon="6.26829">
        <ele>1898.5999755859</ele>
        <time>2022-02-23T10:38:48.000Z</time>
      </trkpt>
      <trkpt lat="45.69651" lon="6.26829">
        <ele>1898.5999755859</ele>
        <time>2022-02-23T10:38:49.000Z</time>
      </trkpt>
      <trkpt lat="45.69651" lon="6.26829">
        <ele>1898.4000244141</ele>
        <time>2022-02-23T10:38:50.000Z</time>
      </trkpt>
      <trkpt lat="45.69652" lon="6.26828">
        <ele>1898.4000244141</ele>
        <time>2022-02-23T10:38:52.000Z</time>
      </trkpt>
      <trkpt lat="45.69652" lon="6.26828">
        <ele>1898.1999511719</ele>
        <time>2022-02-23T10:38:55.000Z</time>
      </trkpt>
      <trkpt lat="45.69652" lon="6.26828">
        <ele>1898</ele>
        <time>2022-02-23T10:38:59.000Z</time>
      </trkpt>
      <trkpt lat="45.69652" lon="6.26828">
        <ele>1897.8000488281</ele>
        <time>2022-02-23T10:39:01.000Z</time>
      </trkpt>
      <trkpt lat="45.69652" lon="6.26827">
        <ele>1898.4000244141</ele>
        <time>2022-02-23T10:39:09.000Z</time>
      </trkpt>
      <trkpt lat="45.69652" lon="6.26827">
        <ele>1898.5999755859</ele>
        <time>2022-02-23T10:39:10.000Z</time>
      </trkpt>
      <trkpt lat="45.69652" lon="6.26827">
        <ele>1898.4000244141</ele>
        <time>2022-02-23T10:39:13.000Z</time>
      </trkpt>
      <trkpt lat="45.69652" lon="6.26826">
        <ele>1898.4000244141</ele>
        <time>2022-02-23T10:39:19.000Z</time>
      </trkpt>
      <trkpt lat="45.69652" lon="6.26826">
        <ele>1898.5999755859</ele>
        <time>2022-02-23T10:39:22.000Z</time>
      </trkpt>
      <trkpt lat="45.69652" lon="6.26826">
        <ele>1898.4000244141</ele>
        <time>2022-02-23T10:39:30.000Z</time>
      </trkpt>
      <trkpt lat="45.69652" lon="6.26827">
        <ele>1898.4000244141</ele>
        <time>2022-02-23T10:39:31.000Z</time>
      </trkpt>
      <trkpt lat="45.69652" lon="6.26829">
        <ele>1898</ele>
        <time>2022-02-23T10:39:39.000Z</time>
      </trkpt>
      <trkpt lat="45.69648" lon="6.26836">
        <ele>1897.8000488281</ele>
        <time>2022-02-23T10:39:44.000Z</time>
      </trkpt>
      <trkpt lat="45.69645" lon="6.26847">
        <ele>1897.1999511719</ele>
        <time>2022-02-23T10:39:47.000Z</time>
      </trkpt>
      <trkpt lat="45.69645" lon="6.26848">
        <ele>1896.8000488281</ele>
        <time>2022-02-23T10:39:48.000Z</time>
      </trkpt>
      <trkpt lat="45.69645" lon="6.26847">
        <ele>1896.1999511719</ele>
        <time>2022-02-23T10:39:52.000Z</time>
      </trkpt>
      <trkpt lat="45.69645" lon="6.26847">
        <ele>1896.1999511719</ele>
        <time>2022-02-23T10:39:53.000Z</time>
      </trkpt>
      <trkpt lat="45.69645" lon="6.26846">
        <ele>1896.1999511719</ele>
        <time>2022-02-23T10:39:56.000Z</time>
      </trkpt>
      <trkpt lat="45.69645" lon="6.26846">
        <ele>1896.1999511719</ele>
        <time>2022-02-23T10:40:03.000Z</time>
      </trkpt>
      <trkpt lat="45.69645" lon="6.26846">
        <ele>1896.4000244141</ele>
        <time>2022-02-23T10:40:04.000Z</time>
      </trkpt>
      <trkpt lat="45.69645" lon="6.26845">
        <ele>1896.1999511719</ele>
        <time>2022-02-23T10:40:09.000Z</time>
      </trkpt>
      <trkpt lat="45.69645" lon="6.26845">
        <ele>1896.1999511719</ele>
        <time>2022-02-23T10:40:13.000Z</time>
      </trkpt>
      <trkpt lat="45.69644" lon="6.26845">
        <ele>1896</ele>
        <time>2022-02-23T10:40:19.000Z</time>
      </trkpt>
      <trkpt lat="45.69644" lon="6.26845">
        <ele>1896</ele>
        <time>2022-02-23T10:40:20.000Z</time>
      </trkpt>
      <trkpt lat="45.69644" lon="6.26845">
        <ele>1896</ele>
        <time>2022-02-23T10:40:22.000Z</time>
      </trkpt>
      <trkpt lat="45.69645" lon="6.26845">
        <ele>1896.4000244141</ele>
        <time>2022-02-23T10:40:30.000Z</time>
      </trkpt>
      <trkpt lat="45.69645" lon="6.26845">
        <ele>1896.4000244141</ele>
        <time>2022-02-23T10:40:34.000Z</time>
      </trkpt>
      <trkpt lat="45.69645" lon="6.26845">
        <ele>1896.1999511719</ele>
        <time>2022-02-23T10:40:39.000Z</time>
      </trkpt>
      <trkpt lat="45.69645" lon="6.26845">
        <ele>1896.5999755859</ele>
        <time>2022-02-23T10:40:46.000Z</time>
      </trkpt>
      <trkpt lat="45.69645" lon="6.26845">
        <ele>1896.1999511719</ele>
        <time>2022-02-23T10:40:52.000Z</time>
      </trkpt>
      <trkpt lat="45.69645" lon="6.26845">
        <ele>1896.4000244141</ele>
        <time>2022-02-23T10:40:58.000Z</time>
      </trkpt>
      <trkpt lat="45.69645" lon="6.26845">
        <ele>1896.4000244141</ele>
        <time>2022-02-23T10:41:01.000Z</time>
      </trkpt>
      <trkpt lat="45.69646" lon="6.26846">
        <ele>1896</ele>
        <time>2022-02-23T10:41:06.000Z</time>
      </trkpt>
      <trkpt lat="45.69647" lon="6.26849">
        <ele>1896</ele>
        <time>2022-02-23T10:41:13.000Z</time>
      </trkpt>
      <trkpt lat="45.69649" lon="6.26856">
        <ele>1895.4000244141</ele>
        <time>2022-02-23T10:41:16.000Z</time>
      </trkpt>
      <trkpt lat="45.69652" lon="6.26856">
        <ele>1895</ele>
        <time>2022-02-23T10:41:17.000Z</time>
      </trkpt>
      <trkpt lat="45.69655" lon="6.26855">
        <ele>1894</ele>
        <time>2022-02-23T10:41:18.000Z</time>
      </trkpt>
      <trkpt lat="45.69657" lon="6.26854">
        <ele>1893</ele>
        <time>2022-02-23T10:41:19.000Z</time>
      </trkpt>
      <trkpt lat="45.69663" lon="6.26851">
        <ele>1891.4000244141</ele>
        <time>2022-02-23T10:41:21.000Z</time>
      </trkpt>
      <trkpt lat="45.69665" lon="6.26853">
        <ele>1890.5999755859</ele>
        <time>2022-02-23T10:41:22.000Z</time>
      </trkpt>
      <trkpt lat="45.69667" lon="6.26858">
        <ele>1890.1999511719</ele>
        <time>2022-02-23T10:41:23.000Z</time>
      </trkpt>
      <trkpt lat="45.69666" lon="6.26867">
        <ele>1889.8000488281</ele>
        <time>2022-02-23T10:41:24.000Z</time>
      </trkpt>
      <trkpt lat="45.69664" lon="6.26872">
        <ele>1887.1999511719</ele>
        <time>2022-02-23T10:41:25.000Z</time>
      </trkpt>
      <trkpt lat="45.69664" lon="6.26878">
        <ele>1884.8000488281</ele>
        <time>2022-02-23T10:41:26.000Z</time>
      </trkpt>
      <trkpt lat="45.69663" lon="6.26885">
        <ele>1883.1999511719</ele>
        <time>2022-02-23T10:41:27.000Z</time>
      </trkpt>
      <trkpt lat="45.69661" lon="6.26892">
        <ele>1882</ele>
        <time>2022-02-23T10:41:28.000Z</time>
      </trkpt>
      <trkpt lat="45.69659" lon="6.26897">
        <ele>1879.8000488281</ele>
        <time>2022-02-23T10:41:29.000Z</time>
      </trkpt>
      <trkpt lat="45.69659" lon="6.26902">
        <ele>1877.5999755859</ele>
        <time>2022-02-23T10:41:30.000Z</time>
      </trkpt>
      <trkpt lat="45.69658" lon="6.26909">
        <ele>1875.5999755859</ele>
        <time>2022-02-23T10:41:31.000Z</time>
      </trkpt>
      <trkpt lat="45.69657" lon="6.26917">
        <ele>1874.5999755859</ele>
        <time>2022-02-23T10:41:32.000Z</time>
      </trkpt>
      <trkpt lat="45.69658" lon="6.26924">
        <ele>1872.4000244141</ele>
        <time>2022-02-23T10:41:33.000Z</time>
      </trkpt>
      <trkpt lat="45.6966" lon="6.26933">
        <ele>1871</ele>
        <time>2022-02-23T10:41:34.000Z</time>
      </trkpt>
      <trkpt lat="45.69664" lon="6.26942">
        <ele>1869</ele>
        <time>2022-02-23T10:41:35.000Z</time>
      </trkpt>
      <trkpt lat="45.69669" lon="6.26949">
        <ele>1867</ele>
        <time>2022-02-23T10:41:36.000Z</time>
      </trkpt>
      <trkpt lat="45.69674" lon="6.26952">
        <ele>1866</ele>
        <time>2022-02-23T10:41:37.000Z</time>
      </trkpt>
      <trkpt lat="45.6968" lon="6.26955">
        <ele>1864.8000488281</ele>
        <time>2022-02-23T10:41:38.000Z</time>
      </trkpt>
      <trkpt lat="45.69683" lon="6.2696">
        <ele>1863.4000244141</ele>
        <time>2022-02-23T10:41:39.000Z</time>
      </trkpt>
      <trkpt lat="45.6968" lon="6.26966">
        <ele>1861.8000488281</ele>
        <time>2022-02-23T10:41:40.000Z</time>
      </trkpt>
      <trkpt lat="45.69677" lon="6.26971">
        <ele>1860.8000488281</ele>
        <time>2022-02-23T10:41:41.000Z</time>
      </trkpt>
      <trkpt lat="45.69673" lon="6.26976">
        <ele>1859.5999755859</ele>
        <time>2022-02-23T10:41:42.000Z</time>
      </trkpt>
      <trkpt lat="45.6967" lon="6.26983">
        <ele>1858.1999511719</ele>
        <time>2022-02-23T10:41:43.000Z</time>
      </trkpt>
      <trkpt lat="45.69668" lon="6.26989">
        <ele>1857.4000244141</ele>
        <time>2022-02-23T10:41:44.000Z</time>
      </trkpt>
      <trkpt lat="45.69667" lon="6.26992">
        <ele>1857</ele>
        <time>2022-02-23T10:41:45.000Z</time>
      </trkpt>
      <trkpt lat="45.69666" lon="6.26994">
        <ele>1855.8000488281</ele>
        <time>2022-02-23T10:41:47.000Z</time>
      </trkpt>
      <trkpt lat="45.69667" lon="6.26993">
        <ele>1855.5999755859</ele>
        <time>2022-02-23T10:41:50.000Z</time>
      </trkpt>
      <trkpt lat="45.69667" lon="6.26993">
        <ele>1855.5999755859</ele>
        <time>2022-02-23T10:41:53.000Z</time>
      </trkpt>
      <trkpt lat="45.69667" lon="6.26992">
        <ele>1856.1999511719</ele>
        <time>2022-02-23T10:42:01.000Z</time>
      </trkpt>
      <trkpt lat="45.6967" lon="6.26999">
        <ele>1855.8000488281</ele>
        <time>2022-02-23T10:42:07.000Z</time>
      </trkpt>
      <trkpt lat="45.69678" lon="6.27012">
        <ele>1854.5999755859</ele>
        <time>2022-02-23T10:42:09.000Z</time>
      </trkpt>
      <trkpt lat="45.6969" lon="6.27024">
        <ele>1851.5999755859</ele>
        <time>2022-02-23T10:42:11.000Z</time>
      </trkpt>
      <trkpt lat="45.69699" lon="6.27028">
        <ele>1849.1999511719</ele>
        <time>2022-02-23T10:42:12.000Z</time>
      </trkpt>
      <trkpt lat="45.69709" lon="6.27032">
        <ele>1846.5999755859</ele>
        <time>2022-02-23T10:42:13.000Z</time>
      </trkpt>
      <trkpt lat="45.69717" lon="6.27037">
        <ele>1843.5999755859</ele>
        <time>2022-02-23T10:42:14.000Z</time>
      </trkpt>
      <trkpt lat="45.69723" lon="6.27041">
        <ele>1842.1999511719</ele>
        <time>2022-02-23T10:42:15.000Z</time>
      </trkpt>
      <trkpt lat="45.69729" lon="6.27049">
        <ele>1841</ele>
        <time>2022-02-23T10:42:17.000Z</time>
      </trkpt>
      <trkpt lat="45.69731" lon="6.2705">
        <ele>1840.8000488281</ele>
        <time>2022-02-23T10:42:18.000Z</time>
      </trkpt>
      <trkpt lat="45.69732" lon="6.27049">
        <ele>1840.8000488281</ele>
        <time>2022-02-23T10:42:19.000Z</time>
      </trkpt>
      <trkpt lat="45.69732" lon="6.2705">
        <ele>1841</ele>
        <time>2022-02-23T10:42:23.000Z</time>
      </trkpt>
      <trkpt lat="45.69732" lon="6.27053">
        <ele>1841.1999511719</ele>
        <time>2022-02-23T10:42:24.000Z</time>
      </trkpt>
      <trkpt lat="45.69733" lon="6.27056">
        <ele>1841.1999511719</ele>
        <time>2022-02-23T10:42:25.000Z</time>
      </trkpt>
      <trkpt lat="45.69735" lon="6.27059">
        <ele>1840.8000488281</ele>
        <time>2022-02-23T10:42:26.000Z</time>
      </trkpt>
      <trkpt lat="45.69738" lon="6.27061">
        <ele>1840.1999511719</ele>
        <time>2022-02-23T10:42:27.000Z</time>
      </trkpt>
      <trkpt lat="45.69742" lon="6.27062">
        <ele>1839.5999755859</ele>
        <time>2022-02-23T10:42:28.000Z</time>
      </trkpt>
      <trkpt lat="45.69746" lon="6.2706">
        <ele>1838.8000488281</ele>
        <time>2022-02-23T10:42:29.000Z</time>
      </trkpt>
      <trkpt lat="45.69748" lon="6.27059">
        <ele>1838.4000244141</ele>
        <time>2022-02-23T10:42:30.000Z</time>
      </trkpt>
      <trkpt lat="45.69749" lon="6.27058">
        <ele>1838.1999511719</ele>
        <time>2022-02-23T10:42:31.000Z</time>
      </trkpt>
      <trkpt lat="45.6975" lon="6.27058">
        <ele>1837.5999755859</ele>
        <time>2022-02-23T10:42:33.000Z</time>
      </trkpt>
      <trkpt lat="45.6975" lon="6.27057">
        <ele>1837.4000244141</ele>
        <time>2022-02-23T10:42:34.000Z</time>
      </trkpt>
      <trkpt lat="45.6975" lon="6.27056">
        <ele>1837.5999755859</ele>
        <time>2022-02-23T10:42:39.000Z</time>
      </trkpt>
      <trkpt lat="45.6975" lon="6.27056">
        <ele>1837.5999755859</ele>
        <time>2022-02-23T10:42:42.000Z</time>
      </trkpt>
      <trkpt lat="45.6975" lon="6.27056">
        <ele>1837.5999755859</ele>
        <time>2022-02-23T10:42:44.000Z</time>
      </trkpt>
      <trkpt lat="45.6975" lon="6.27055">
        <ele>1837.1999511719</ele>
        <time>2022-02-23T10:42:52.000Z</time>
      </trkpt>
      <trkpt lat="45.6975" lon="6.27055">
        <ele>1837.4000244141</ele>
        <time>2022-02-23T10:42:55.000Z</time>
      </trkpt>
      <trkpt lat="45.6975" lon="6.27055">
        <ele>1837.4000244141</ele>
        <time>2022-02-23T10:42:56.000Z</time>
      </trkpt>
      <trkpt lat="45.69753" lon="6.2706">
        <ele>1836.8000488281</ele>
        <time>2022-02-23T10:43:01.000Z</time>
      </trkpt>
      <trkpt lat="45.6976" lon="6.27066">
        <ele>1836.5999755859</ele>
        <time>2022-02-23T10:43:03.000Z</time>
      </trkpt>
      <trkpt lat="45.69761" lon="6.27072">
        <ele>1836.1999511719</ele>
        <time>2022-02-23T10:43:04.000Z</time>
      </trkpt>
      <trkpt lat="45.69764" lon="6.27079">
        <ele>1835.1999511719</ele>
        <time>2022-02-23T10:43:05.000Z</time>
      </trkpt>
      <trkpt lat="45.69767" lon="6.27087">
        <ele>1833.4000244141</ele>
        <time>2022-02-23T10:43:06.000Z</time>
      </trkpt>
      <trkpt lat="45.69769" lon="6.27096">
        <ele>1831</ele>
        <time>2022-02-23T10:43:07.000Z</time>
      </trkpt>
      <trkpt lat="45.69771" lon="6.27107">
        <ele>1828.5999755859</ele>
        <time>2022-02-23T10:43:08.000Z</time>
      </trkpt>
      <trkpt lat="45.69775" lon="6.27115">
        <ele>1826.8000488281</ele>
        <time>2022-02-23T10:43:09.000Z</time>
      </trkpt>
      <trkpt lat="45.69779" lon="6.27121">
        <ele>1825.8000488281</ele>
        <time>2022-02-23T10:43:10.000Z</time>
      </trkpt>
      <trkpt lat="45.69783" lon="6.27128">
        <ele>1825.1999511719</ele>
        <time>2022-02-23T10:43:11.000Z</time>
      </trkpt>
      <trkpt lat="45.69788" lon="6.27133">
        <ele>1824.5999755859</ele>
        <time>2022-02-23T10:43:12.000Z</time>
      </trkpt>
      <trkpt lat="45.69792" lon="6.27136">
        <ele>1823.5999755859</ele>
        <time>2022-02-23T10:43:13.000Z</time>
      </trkpt>
      <trkpt lat="45.698" lon="6.2714">
        <ele>1822.5999755859</ele>
        <time>2022-02-23T10:43:15.000Z</time>
      </trkpt>
      <trkpt lat="45.69806" lon="6.27149">
        <ele>1822.1999511719</ele>
        <time>2022-02-23T10:43:17.000Z</time>
      </trkpt>
      <trkpt lat="45.69812" lon="6.27165">
        <ele>1821.1999511719</ele>
        <time>2022-02-23T10:43:20.000Z</time>
      </trkpt>
      <trkpt lat="45.69812" lon="6.27169">
        <ele>1821</ele>
        <time>2022-02-23T10:43:21.000Z</time>
      </trkpt>
      <trkpt lat="45.69812" lon="6.2717">
        <ele>1819.8000488281</ele>
        <time>2022-02-23T10:43:23.000Z</time>
      </trkpt>
      <trkpt lat="45.69812" lon="6.27171">
        <ele>1819.4000244141</ele>
        <time>2022-02-23T10:43:24.000Z</time>
      </trkpt>
      <trkpt lat="45.69811" lon="6.27172">
        <ele>1819.1999511719</ele>
        <time>2022-02-23T10:43:34.000Z</time>
      </trkpt>
      <trkpt lat="45.69809" lon="6.27172">
        <ele>1820.1999511719</ele>
        <time>2022-02-23T10:43:40.000Z</time>
      </trkpt>
      <trkpt lat="45.69806" lon="6.27173">
        <ele>1820</ele>
        <time>2022-02-23T10:43:42.000Z</time>
      </trkpt>
      <trkpt lat="45.69803" lon="6.27175">
        <ele>1819.8000488281</ele>
        <time>2022-02-23T10:43:44.000Z</time>
      </trkpt>
      <trkpt lat="45.698" lon="6.27186">
        <ele>1819.8000488281</ele>
        <time>2022-02-23T10:43:49.000Z</time>
      </trkpt>
      <trkpt lat="45.69801" lon="6.27194">
        <ele>1819.5999755859</ele>
        <time>2022-02-23T10:43:53.000Z</time>
      </trkpt>
      <trkpt lat="45.69801" lon="6.27195">
        <ele>1819.5999755859</ele>
        <time>2022-02-23T10:43:54.000Z</time>
      </trkpt>
      <trkpt lat="45.69801" lon="6.27196">
        <ele>1819.4000244141</ele>
        <time>2022-02-23T10:43:55.000Z</time>
      </trkpt>
      <trkpt lat="45.69801" lon="6.27197">
        <ele>1819.4000244141</ele>
        <time>2022-02-23T10:43:57.000Z</time>
      </trkpt>
      <trkpt lat="45.69802" lon="6.27199">
        <ele>1819.4000244141</ele>
        <time>2022-02-23T10:44:00.000Z</time>
      </trkpt>
      <trkpt lat="45.69804" lon="6.27204">
        <ele>1819.4000244141</ele>
        <time>2022-02-23T10:44:03.000Z</time>
      </trkpt>
      <trkpt lat="45.69805" lon="6.27205">
        <ele>1819.4000244141</ele>
        <time>2022-02-23T10:44:04.000Z</time>
      </trkpt>
      <trkpt lat="45.69808" lon="6.27209">
        <ele>1819.5999755859</ele>
        <time>2022-02-23T10:44:06.000Z</time>
      </trkpt>
      <trkpt lat="45.69816" lon="6.27216">
        <ele>1819.5999755859</ele>
        <time>2022-02-23T10:44:10.000Z</time>
      </trkpt>
      <trkpt lat="45.69819" lon="6.27218">
        <ele>1819.5999755859</ele>
        <time>2022-02-23T10:44:12.000Z</time>
      </trkpt>
      <trkpt lat="45.69821" lon="6.27218">
        <ele>1819.5999755859</ele>
        <time>2022-02-23T10:44:13.000Z</time>
      </trkpt>
      <trkpt lat="45.69823" lon="6.27218">
        <ele>1819.5999755859</ele>
        <time>2022-02-23T10:44:14.000Z</time>
      </trkpt>
      <trkpt lat="45.69827" lon="6.27216">
        <ele>1819.8000488281</ele>
        <time>2022-02-23T10:44:17.000Z</time>
      </trkpt>
      <trkpt lat="45.69827" lon="6.27216">
        <ele>1819.8000488281</ele>
        <time>2022-02-23T10:44:18.000Z</time>
      </trkpt>
      <trkpt lat="45.69827" lon="6.27215">
        <ele>1819.8000488281</ele>
        <time>2022-02-23T10:44:22.000Z</time>
      </trkpt>
      <trkpt lat="45.69828" lon="6.27215">
        <ele>1819.8000488281</ele>
        <time>2022-02-23T10:44:29.000Z</time>
      </trkpt>
      <trkpt lat="45.69831" lon="6.27212">
        <ele>1819.8000488281</ele>
        <time>2022-02-23T10:44:32.000Z</time>
      </trkpt>
      <trkpt lat="45.69832" lon="6.27212">
        <ele>1819.5999755859</ele>
        <time>2022-02-23T10:44:33.000Z</time>
      </trkpt>
      <trkpt lat="45.69832" lon="6.27211">
        <ele>1819.5999755859</ele>
        <time>2022-02-23T10:44:34.000Z</time>
      </trkpt>
      <trkpt lat="45.69834" lon="6.27206">
        <ele>1819.5999755859</ele>
        <time>2022-02-23T10:44:37.000Z</time>
      </trkpt>
      <trkpt lat="45.69835" lon="6.27199">
        <ele>1820</ele>
        <time>2022-02-23T10:44:43.000Z</time>
      </trkpt>
      <trkpt lat="45.69835" lon="6.27198">
        <ele>1819.8000488281</ele>
        <time>2022-02-23T10:44:48.000Z</time>
      </trkpt>
      <trkpt lat="45.69834" lon="6.27197">
        <ele>1819.5999755859</ele>
        <time>2022-02-23T10:44:52.000Z</time>
      </trkpt>
      <trkpt lat="45.69834" lon="6.27196">
        <ele>1819.8000488281</ele>
        <time>2022-02-23T10:44:56.000Z</time>
      </trkpt>
      <trkpt lat="45.69833" lon="6.27195">
        <ele>1819.8000488281</ele>
        <time>2022-02-23T10:45:00.000Z</time>
      </trkpt>
      <trkpt lat="45.69833" lon="6.27192">
        <ele>1819.8000488281</ele>
        <time>2022-02-23T10:45:02.000Z</time>
      </trkpt>
      <trkpt lat="45.69832" lon="6.27183">
        <ele>1819.5999755859</ele>
        <time>2022-02-23T10:45:05.000Z</time>
      </trkpt>
      <trkpt lat="45.69832" lon="6.27179">
        <ele>1819.5999755859</ele>
        <time>2022-02-23T10:45:06.000Z</time>
      </trkpt>
      <trkpt lat="45.6983" lon="6.27176">
        <ele>1819.5999755859</ele>
        <time>2022-02-23T10:45:07.000Z</time>
      </trkpt>
      <trkpt lat="45.69826" lon="6.2717">
        <ele>1819.4000244141</ele>
        <time>2022-02-23T10:45:10.000Z</time>
      </trkpt>
      <trkpt lat="45.69819" lon="6.27171">
        <ele>1820</ele>
        <time>2022-02-23T10:45:14.000Z</time>
      </trkpt>
      <trkpt lat="45.69818" lon="6.27172">
        <ele>1820</ele>
        <time>2022-02-23T10:45:16.000Z</time>
      </trkpt>
      <trkpt lat="45.69818" lon="6.27171">
        <ele>1820.1999511719</ele>
        <time>2022-02-23T10:45:20.000Z</time>
      </trkpt>
      <trkpt lat="45.69818" lon="6.2717">
        <ele>1820</ele>
        <time>2022-02-23T10:45:22.000Z</time>
      </trkpt>
      <trkpt lat="45.69818" lon="6.2717">
        <ele>1820.1999511719</ele>
        <time>2022-02-23T10:45:32.000Z</time>
      </trkpt>
      <trkpt lat="45.69818" lon="6.2717">
        <ele>1820</ele>
        <time>2022-02-23T10:45:35.000Z</time>
      </trkpt>
      <trkpt lat="45.69818" lon="6.2717">
        <ele>1820</ele>
        <time>2022-02-23T10:45:36.000Z</time>
      </trkpt>
      <trkpt lat="45.69818" lon="6.2717">
        <ele>1819.8000488281</ele>
        <time>2022-02-23T10:45:44.000Z</time>
      </trkpt>
      <trkpt lat="45.69818" lon="6.2717">
        <ele>1819.8000488281</ele>
        <time>2022-02-23T10:45:47.000Z</time>
      </trkpt>
      <trkpt lat="45.69818" lon="6.2717">
        <ele>1819.8000488281</ele>
        <time>2022-02-23T10:45:49.000Z</time>
      </trkpt>
      <trkpt lat="45.69819" lon="6.27171">
        <ele>1820</ele>
        <time>2022-02-23T10:45:59.000Z</time>
      </trkpt>
      <trkpt lat="45.69819" lon="6.27171">
        <ele>1820</ele>
        <time>2022-02-23T10:46:04.000Z</time>
      </trkpt>
      <trkpt lat="45.69819" lon="6.27171">
        <ele>1820</ele>
        <time>2022-02-23T10:46:06.000Z</time>
      </trkpt>
      <trkpt lat="45.69819" lon="6.27171">
        <ele>1820</ele>
        <time>2022-02-23T10:46:08.000Z</time>
      </trkpt>
      <trkpt lat="45.69819" lon="6.27172">
        <ele>1820.4000244141</ele>
        <time>2022-02-23T10:46:16.000Z</time>
      </trkpt>
      <trkpt lat="45.69819" lon="6.27173">
        <ele>1820.5999755859</ele>
        <time>2022-02-23T10:46:17.000Z</time>
      </trkpt>
      <trkpt lat="45.69819" lon="6.27172">
        <ele>1821</ele>
        <time>2022-02-23T10:46:21.000Z</time>
      </trkpt>
      <trkpt lat="45.69819" lon="6.27172">
        <ele>1820.8000488281</ele>
        <time>2022-02-23T10:46:28.000Z</time>
      </trkpt>
      <trkpt lat="45.69819" lon="6.27171">
        <ele>1821.1999511719</ele>
        <time>2022-02-23T10:46:37.000Z</time>
      </trkpt>
      <trkpt lat="45.69819" lon="6.27171">
        <ele>1821.1999511719</ele>
        <time>2022-02-23T10:46:40.000Z</time>
      </trkpt>
      <trkpt lat="45.69819" lon="6.27173">
        <ele>1821.1999511719</ele>
        <time>2022-02-23T10:46:47.000Z</time>
      </trkpt>
      <trkpt lat="45.69819" lon="6.27174">
        <ele>1821.1999511719</ele>
        <time>2022-02-23T10:46:55.000Z</time>
      </trkpt>
      <trkpt lat="45.69819" lon="6.27175">
        <ele>1821</ele>
        <time>2022-02-23T10:46:58.000Z</time>
      </trkpt>
      <trkpt lat="45.6982" lon="6.27175">
        <ele>1821.1999511719</ele>
        <time>2022-02-23T10:47:04.000Z</time>
      </trkpt>
      <trkpt lat="45.69821" lon="6.27175">
        <ele>1821</ele>
        <time>2022-02-23T10:47:16.000Z</time>
      </trkpt>
      <trkpt lat="45.6982" lon="6.27174">
        <ele>1820.5999755859</ele>
        <time>2022-02-23T10:47:21.000Z</time>
      </trkpt>
      <trkpt lat="45.6982" lon="6.27174">
        <ele>1820.8000488281</ele>
        <time>2022-02-23T10:47:24.000Z</time>
      </trkpt>
      <trkpt lat="45.6982" lon="6.27174">
        <ele>1820.8000488281</ele>
        <time>2022-02-23T10:47:26.000Z</time>
      </trkpt>
      <trkpt lat="45.6982" lon="6.27174">
        <ele>1820.8000488281</ele>
        <time>2022-02-23T10:47:28.000Z</time>
      </trkpt>
      <trkpt lat="45.6982" lon="6.27174">
        <ele>1820.8000488281</ele>
        <time>2022-02-23T10:47:29.000Z</time>
      </trkpt>
      <trkpt lat="45.69818" lon="6.27176">
        <ele>1820.8000488281</ele>
        <time>2022-02-23T10:47:34.000Z</time>
      </trkpt>
      <trkpt lat="45.69818" lon="6.27177">
        <ele>1820.8000488281</ele>
        <time>2022-02-23T10:47:39.000Z</time>
      </trkpt>
      <trkpt lat="45.69818" lon="6.27177">
        <ele>1820.8000488281</ele>
        <time>2022-02-23T10:47:40.000Z</time>
      </trkpt>
      <trkpt lat="45.69818" lon="6.27176">
        <ele>1820.8000488281</ele>
        <time>2022-02-23T10:47:48.000Z</time>
      </trkpt>
      <trkpt lat="45.69818" lon="6.27177">
        <ele>1820.8000488281</ele>
        <time>2022-02-23T10:47:52.000Z</time>
      </trkpt>
      <trkpt lat="45.69818" lon="6.27177">
        <ele>1820.8000488281</ele>
        <time>2022-02-23T10:47:59.000Z</time>
      </trkpt>
      <trkpt lat="45.69818" lon="6.27177">
        <ele>1820.8000488281</ele>
        <time>2022-02-23T10:48:02.000Z</time>
      </trkpt>
      <trkpt lat="45.69818" lon="6.27177">
        <ele>1820.8000488281</ele>
        <time>2022-02-23T10:48:05.000Z</time>
      </trkpt>
      <trkpt lat="45.69818" lon="6.27177">
        <ele>1820.8000488281</ele>
        <time>2022-02-23T10:48:08.000Z</time>
      </trkpt>
      <trkpt lat="45.69818" lon="6.27178">
        <ele>1820.8000488281</ele>
        <time>2022-02-23T10:48:15.000Z</time>
      </trkpt>
      <trkpt lat="45.69818" lon="6.27178">
        <ele>1820.8000488281</ele>
        <time>2022-02-23T10:48:17.000Z</time>
      </trkpt>
      <trkpt lat="45.69819" lon="6.27176">
        <ele>1820.8000488281</ele>
        <time>2022-02-23T10:48:25.000Z</time>
      </trkpt>
      <trkpt lat="45.69821" lon="6.27173">
        <ele>1820.8000488281</ele>
        <time>2022-02-23T10:48:29.000Z</time>
      </trkpt>
      <trkpt lat="45.69823" lon="6.27172">
        <ele>1820.8000488281</ele>
        <time>2022-02-23T10:48:31.000Z</time>
      </trkpt>
      <trkpt lat="45.69826" lon="6.27171">
        <ele>1820.8000488281</ele>
        <time>2022-02-23T10:48:35.000Z</time>
      </trkpt>
      <trkpt lat="45.69828" lon="6.27171">
        <ele>1820.8000488281</ele>
        <time>2022-02-23T10:48:37.000Z</time>
      </trkpt>
      <trkpt lat="45.69828" lon="6.27172">
        <ele>1820</ele>
        <time>2022-02-23T10:48:40.000Z</time>
      </trkpt>
      <trkpt lat="45.69828" lon="6.27173">
        <ele>1819.8000488281</ele>
        <time>2022-02-23T10:48:41.000Z</time>
      </trkpt>
      <trkpt lat="45.69828" lon="6.27173">
        <ele>1819.4000244141</ele>
        <time>2022-02-23T10:48:46.000Z</time>
      </trkpt>
      <trkpt lat="45.69828" lon="6.27173">
        <ele>1819.4000244141</ele>
        <time>2022-02-23T10:48:49.000Z</time>
      </trkpt>
      <trkpt lat="45.69828" lon="6.27173">
        <ele>1819.4000244141</ele>
        <time>2022-02-23T10:48:52.000Z</time>
      </trkpt>
      <trkpt lat="45.69828" lon="6.27173">
        <ele>1819.4000244141</ele>
        <time>2022-02-23T10:48:57.000Z</time>
      </trkpt>
      <trkpt lat="45.69828" lon="6.27173">
        <ele>1819.5999755859</ele>
        <time>2022-02-23T10:49:09.000Z</time>
      </trkpt>
      <trkpt lat="45.69828" lon="6.27173">
        <ele>1819.5999755859</ele>
        <time>2022-02-23T10:49:10.000Z</time>
      </trkpt>
      <trkpt lat="45.69827" lon="6.27173">
        <ele>1819.5999755859</ele>
        <time>2022-02-23T10:49:12.000Z</time>
      </trkpt>
      <trkpt lat="45.69825" lon="6.27173">
        <ele>1820</ele>
        <time>2022-02-23T10:49:18.000Z</time>
      </trkpt>
      <trkpt lat="45.69822" lon="6.27172">
        <ele>1820.1999511719</ele>
        <time>2022-02-23T10:49:24.000Z</time>
      </trkpt>
      <trkpt lat="45.6982" lon="6.27174">
        <ele>1820.8000488281</ele>
        <time>2022-02-23T10:49:30.000Z</time>
      </trkpt>
      <trkpt lat="45.6982" lon="6.27174">
        <ele>1820.8000488281</ele>
        <time>2022-02-23T10:49:31.000Z</time>
      </trkpt>
      <trkpt lat="45.6982" lon="6.27175">
        <ele>1821</ele>
        <time>2022-02-23T10:49:33.000Z</time>
      </trkpt>
      <trkpt lat="45.69819" lon="6.27178">
        <ele>1821</ele>
        <time>2022-02-23T10:49:38.000Z</time>
      </trkpt>
      <trkpt lat="45.69819" lon="6.27178">
        <ele>1821.5999755859</ele>
        <time>2022-02-23T10:49:45.000Z</time>
      </trkpt>
      <trkpt lat="45.69818" lon="6.27178">
        <ele>1821.4000244141</ele>
        <time>2022-02-23T10:49:54.000Z</time>
      </trkpt>
      <trkpt lat="45.69817" lon="6.27177">
        <ele>1820.8000488281</ele>
        <time>2022-02-23T10:50:00.000Z</time>
      </trkpt>
      <trkpt lat="45.69817" lon="6.27177">
        <ele>1820.8000488281</ele>
        <time>2022-02-23T10:50:01.000Z</time>
      </trkpt>
      <trkpt lat="45.69817" lon="6.27176">
        <ele>1820.1999511719</ele>
        <time>2022-02-23T10:50:04.000Z</time>
      </trkpt>
      <trkpt lat="45.69817" lon="6.27176">
        <ele>1820.4000244141</ele>
        <time>2022-02-23T10:50:07.000Z</time>
      </trkpt>
      <trkpt lat="45.69817" lon="6.27175">
        <ele>1821.4000244141</ele>
        <time>2022-02-23T10:50:15.000Z</time>
      </trkpt>
      <trkpt lat="45.69817" lon="6.27174">
        <ele>1821.1999511719</ele>
        <time>2022-02-23T10:50:21.000Z</time>
      </trkpt>
      <trkpt lat="45.69817" lon="6.27174">
        <ele>1820.5999755859</ele>
        <time>2022-02-23T10:50:29.000Z</time>
      </trkpt>
      <trkpt lat="45.69817" lon="6.27174">
        <ele>1820.4000244141</ele>
        <time>2022-02-23T10:50:32.000Z</time>
      </trkpt>
      <trkpt lat="45.69817" lon="6.27174">
        <ele>1820.1999511719</ele>
        <time>2022-02-23T10:50:33.000Z</time>
      </trkpt>
      <trkpt lat="45.69817" lon="6.27174">
        <ele>1820.5999755859</ele>
        <time>2022-02-23T10:50:40.000Z</time>
      </trkpt>
      <trkpt lat="45.69817" lon="6.27174">
        <ele>1821.5999755859</ele>
        <time>2022-02-23T10:50:56.000Z</time>
      </trkpt>
      <trkpt lat="45.69817" lon="6.27174">
        <ele>1821.5999755859</ele>
        <time>2022-02-23T10:50:57.000Z</time>
      </trkpt>
      <trkpt lat="45.69817" lon="6.27174">
        <ele>1821.5999755859</ele>
        <time>2022-02-23T10:51:06.000Z</time>
      </trkpt>
      <trkpt lat="45.69817" lon="6.27174">
        <ele>1821.5999755859</ele>
        <time>2022-02-23T10:51:11.000Z</time>
      </trkpt>
      <trkpt lat="45.69817" lon="6.27174">
        <ele>1821.5999755859</ele>
        <time>2022-02-23T10:51:14.000Z</time>
      </trkpt>
      <trkpt lat="45.69817" lon="6.27174">
        <ele>1821.5999755859</ele>
        <time>2022-02-23T10:51:16.000Z</time>
      </trkpt>
      <trkpt lat="45.69817" lon="6.27174">
        <ele>1821.5999755859</ele>
        <time>2022-02-23T10:51:22.000Z</time>
      </trkpt>
      <trkpt lat="45.69817" lon="6.27174">
        <ele>1821.5999755859</ele>
        <time>2022-02-23T10:51:23.000Z</time>
      </trkpt>
      <trkpt lat="45.69817" lon="6.27174">
        <ele>1821.5999755859</ele>
        <time>2022-02-23T10:51:26.000Z</time>
      </trkpt>
      <trkpt lat="45.69817" lon="6.27174">
        <ele>1821.5999755859</ele>
        <time>2022-02-23T10:51:33.000Z</time>
      </trkpt>
      <trkpt lat="45.69817" lon="6.27174">
        <ele>1821.5999755859</ele>
        <time>2022-02-23T10:51:36.000Z</time>
      </trkpt>
      <trkpt lat="45.69817" lon="6.27174">
        <ele>1821.5999755859</ele>
        <time>2022-02-23T10:51:38.000Z</time>
      </trkpt>
      <trkpt lat="45.69817" lon="6.27174">
        <ele>1821.5999755859</ele>
        <time>2022-02-23T10:51:43.000Z</time>
      </trkpt>
      <trkpt lat="45.69817" lon="6.27174">
        <ele>1821.5999755859</ele>
        <time>2022-02-23T10:51:47.000Z</time>
      </trkpt>
      <trkpt lat="45.69817" lon="6.27174">
        <ele>1821.5999755859</ele>
        <time>2022-02-23T10:51:49.000Z</time>
      </trkpt>
      <trkpt lat="45.69818" lon="6.27174">
        <ele>1821.5999755859</ele>
        <time>2022-02-23T10:52:05.000Z</time>
      </trkpt>
      <trkpt lat="45.69817" lon="6.27174">
        <ele>1821.5999755859</ele>
        <time>2022-02-23T10:52:16.000Z</time>
      </trkpt>
      <trkpt lat="45.69817" lon="6.27174">
        <ele>1821.5999755859</ele>
        <time>2022-02-23T10:52:20.000Z</time>
      </trkpt>
      <trkpt lat="45.69817" lon="6.27174">
        <ele>1821.5999755859</ele>
        <time>2022-02-23T10:52:36.000Z</time>
      </trkpt>
      <trkpt lat="45.69817" lon="6.27174">
        <ele>1821.5999755859</ele>
        <time>2022-02-23T10:52:46.000Z</time>
      </trkpt>
      <trkpt lat="45.69817" lon="6.27174">
        <ele>1821.5999755859</ele>
        <time>2022-02-23T10:52:48.000Z</time>
      </trkpt>
      <trkpt lat="45.69817" lon="6.27174">
        <ele>1821.5999755859</ele>
        <time>2022-02-23T10:52:52.000Z</time>
      </trkpt>
      <trkpt lat="45.69817" lon="6.27174">
        <ele>1821.5999755859</ele>
        <time>2022-02-23T10:52:58.000Z</time>
      </trkpt>
      <trkpt lat="45.69817" lon="6.27174">
        <ele>1821.5999755859</ele>
        <time>2022-02-23T10:52:59.000Z</time>
      </trkpt>
      <trkpt lat="45.69817" lon="6.27174">
        <ele>1821.5999755859</ele>
        <time>2022-02-23T10:53:00.000Z</time>
      </trkpt>
      <trkpt lat="45.69817" lon="6.27174">
        <ele>1821.5999755859</ele>
        <time>2022-02-23T10:53:06.000Z</time>
      </trkpt>
      <trkpt lat="45.69817" lon="6.27174">
        <ele>1821.5999755859</ele>
        <time>2022-02-23T10:53:08.000Z</time>
      </trkpt>
      <trkpt lat="45.69817" lon="6.27174">
        <ele>1821.5999755859</ele>
        <time>2022-02-23T10:53:10.000Z</time>
      </trkpt>
      <trkpt lat="45.69817" lon="6.27174">
        <ele>1821.5999755859</ele>
        <time>2022-02-23T10:53:19.000Z</time>
      </trkpt>
      <trkpt lat="45.69816" lon="6.27174">
        <ele>1821.5999755859</ele>
        <time>2022-02-23T10:53:28.000Z</time>
      </trkpt>
      <trkpt lat="45.69816" lon="6.27174">
        <ele>1821.5999755859</ele>
        <time>2022-02-23T10:53:32.000Z</time>
      </trkpt>
      <trkpt lat="45.69817" lon="6.27174">
        <ele>1821.5999755859</ele>
        <time>2022-02-23T10:53:35.000Z</time>
      </trkpt>
      <trkpt lat="45.69816" lon="6.27174">
        <ele>1821.5999755859</ele>
        <time>2022-02-23T10:53:37.000Z</time>
      </trkpt>
      <trkpt lat="45.69816" lon="6.27174">
        <ele>1821.5999755859</ele>
        <time>2022-02-23T10:53:42.000Z</time>
      </trkpt>
      <trkpt lat="45.69816" lon="6.27174">
        <ele>1821.5999755859</ele>
        <time>2022-02-23T10:53:43.000Z</time>
      </trkpt>
      <trkpt lat="45.69816" lon="6.27174">
        <ele>1821.5999755859</ele>
        <time>2022-02-23T10:53:50.000Z</time>
      </trkpt>
      <trkpt lat="45.69816" lon="6.27173">
        <ele>1821.5999755859</ele>
        <time>2022-02-23T10:53:52.000Z</time>
      </trkpt>
      <trkpt lat="45.69816" lon="6.27173">
        <ele>1821.5999755859</ele>
        <time>2022-02-23T10:54:06.000Z</time>
      </trkpt>
      <trkpt lat="45.69816" lon="6.27173">
        <ele>1821.5999755859</ele>
        <time>2022-02-23T10:54:08.000Z</time>
      </trkpt>
      <trkpt lat="45.69816" lon="6.27173">
        <ele>1821.5999755859</ele>
        <time>2022-02-23T10:54:17.000Z</time>
      </trkpt>
      <trkpt lat="45.69816" lon="6.27173">
        <ele>1821.5999755859</ele>
        <time>2022-02-23T10:54:26.000Z</time>
      </trkpt>
      <trkpt lat="45.69816" lon="6.27173">
        <ele>1821.5999755859</ele>
        <time>2022-02-23T10:54:29.000Z</time>
      </trkpt>
      <trkpt lat="45.69816" lon="6.27173">
        <ele>1821.5999755859</ele>
        <time>2022-02-23T10:54:35.000Z</time>
      </trkpt>
      <trkpt lat="45.69816" lon="6.27173">
        <ele>1821.5999755859</ele>
        <time>2022-02-23T10:54:38.000Z</time>
      </trkpt>
      <trkpt lat="45.69816" lon="6.27173">
        <ele>1821.5999755859</ele>
        <time>2022-02-23T10:54:47.000Z</time>
      </trkpt>
      <trkpt lat="45.69816" lon="6.27173">
        <ele>1821.5999755859</ele>
        <time>2022-02-23T10:54:54.000Z</time>
      </trkpt>
      <trkpt lat="45.69816" lon="6.27173">
        <ele>1821.5999755859</ele>
        <time>2022-02-23T10:54:58.000Z</time>
      </trkpt>
      <trkpt lat="45.69816" lon="6.27173">
        <ele>1821.5999755859</ele>
        <time>2022-02-23T10:55:21.000Z</time>
      </trkpt>
      <trkpt lat="45.69816" lon="6.27173">
        <ele>1821.5999755859</ele>
        <time>2022-02-23T10:55:33.000Z</time>
      </trkpt>
      <trkpt lat="45.69816" lon="6.27173">
        <ele>1821.5999755859</ele>
        <time>2022-02-23T10:55:58.000Z</time>
      </trkpt>
      <trkpt lat="45.69816" lon="6.27173">
        <ele>1821.5999755859</ele>
        <time>2022-02-23T10:55:59.000Z</time>
      </trkpt>
      <trkpt lat="45.69816" lon="6.27173">
        <ele>1821.5999755859</ele>
        <time>2022-02-23T10:56:09.000Z</time>
      </trkpt>
      <trkpt lat="45.69816" lon="6.27173">
        <ele>1821.5999755859</ele>
        <time>2022-02-23T10:56:40.000Z</time>
      </trkpt>
      <trkpt lat="45.69816" lon="6.27172">
        <ele>1821.5999755859</ele>
        <time>2022-02-23T10:56:54.000Z</time>
      </trkpt>
      <trkpt lat="45.69816" lon="6.27172">
        <ele>1821.5999755859</ele>
        <time>2022-02-23T10:56:56.000Z</time>
      </trkpt>
      <trkpt lat="45.69816" lon="6.27172">
        <ele>1821.5999755859</ele>
        <time>2022-02-23T10:57:00.000Z</time>
      </trkpt>
      <trkpt lat="45.69816" lon="6.27172">
        <ele>1821.5999755859</ele>
        <time>2022-02-23T10:57:15.000Z</time>
      </trkpt>
      <trkpt lat="45.69816" lon="6.27172">
        <ele>1821.5999755859</ele>
        <time>2022-02-23T10:57:20.000Z</time>
      </trkpt>
      <trkpt lat="45.69816" lon="6.27172">
        <ele>1821.5999755859</ele>
        <time>2022-02-23T10:57:22.000Z</time>
      </trkpt>
      <trkpt lat="45.69816" lon="6.27173">
        <ele>1821.5999755859</ele>
        <time>2022-02-23T10:57:25.000Z</time>
      </trkpt>
      <trkpt lat="45.69817" lon="6.27173">
        <ele>1821.5999755859</ele>
        <time>2022-02-23T10:57:30.000Z</time>
      </trkpt>
      <trkpt lat="45.69817" lon="6.27173">
        <ele>1821.5999755859</ele>
        <time>2022-02-23T10:57:31.000Z</time>
      </trkpt>
      <trkpt lat="45.69818" lon="6.27173">
        <ele>1821.5999755859</ele>
        <time>2022-02-23T10:57:33.000Z</time>
      </trkpt>
      <trkpt lat="45.69818" lon="6.27173">
        <ele>1821.5999755859</ele>
        <time>2022-02-23T10:57:36.000Z</time>
      </trkpt>
      <trkpt lat="45.69818" lon="6.27174">
        <ele>1821.5999755859</ele>
        <time>2022-02-23T10:57:38.000Z</time>
      </trkpt>
      <trkpt lat="45.69818" lon="6.27174">
        <ele>1821.5999755859</ele>
        <time>2022-02-23T10:57:43.000Z</time>
      </trkpt>
      <trkpt lat="45.69818" lon="6.27175">
        <ele>1821.5999755859</ele>
        <time>2022-02-23T10:57:58.000Z</time>
      </trkpt>
      <trkpt lat="45.69818" lon="6.27174">
        <ele>1821.5999755859</ele>
        <time>2022-02-23T10:58:04.000Z</time>
      </trkpt>
      <trkpt lat="45.69818" lon="6.27174">
        <ele>1821.5999755859</ele>
        <time>2022-02-23T10:58:05.000Z</time>
      </trkpt>
      <trkpt lat="45.69818" lon="6.27174">
        <ele>1821.5999755859</ele>
        <time>2022-02-23T10:58:06.000Z</time>
      </trkpt>
      <trkpt lat="45.69818" lon="6.27174">
        <ele>1821.5999755859</ele>
        <time>2022-02-23T10:58:08.000Z</time>
      </trkpt>
      <trkpt lat="45.69818" lon="6.27174">
        <ele>1821.5999755859</ele>
        <time>2022-02-23T10:58:16.000Z</time>
      </trkpt>
      <trkpt lat="45.69818" lon="6.27175">
        <ele>1821.5999755859</ele>
        <time>2022-02-23T10:58:18.000Z</time>
      </trkpt>
      <trkpt lat="45.69818" lon="6.27175">
        <ele>1821.5999755859</ele>
        <time>2022-02-23T10:58:24.000Z</time>
      </trkpt>
      <trkpt lat="45.69818" lon="6.27175">
        <ele>1821.5999755859</ele>
        <time>2022-02-23T10:58:28.000Z</time>
      </trkpt>
      <trkpt lat="45.69818" lon="6.27175">
        <ele>1821.5999755859</ele>
        <time>2022-02-23T10:58:31.000Z</time>
      </trkpt>
      <trkpt lat="45.69818" lon="6.27175">
        <ele>1821.5999755859</ele>
        <time>2022-02-23T10:58:33.000Z</time>
      </trkpt>
      <trkpt lat="45.69818" lon="6.27175">
        <ele>1821.5999755859</ele>
        <time>2022-02-23T10:58:39.000Z</time>
      </trkpt>
      <trkpt lat="45.69818" lon="6.27175">
        <ele>1821.5999755859</ele>
        <time>2022-02-23T10:58:41.000Z</time>
      </trkpt>
      <trkpt lat="45.69818" lon="6.27175">
        <ele>1821.5999755859</ele>
        <time>2022-02-23T10:58:50.000Z</time>
      </trkpt>
      <trkpt lat="45.69818" lon="6.27175">
        <ele>1821.5999755859</ele>
        <time>2022-02-23T10:58:57.000Z</time>
      </trkpt>
      <trkpt lat="45.69818" lon="6.27175">
        <ele>1821.5999755859</ele>
        <time>2022-02-23T10:59:11.000Z</time>
      </trkpt>
      <trkpt lat="45.69817" lon="6.27175">
        <ele>1821.5999755859</ele>
        <time>2022-02-23T10:59:14.000Z</time>
      </trkpt>
      <trkpt lat="45.69817" lon="6.27175">
        <ele>1821.5999755859</ele>
        <time>2022-02-23T10:59:19.000Z</time>
      </trkpt>
      <trkpt lat="45.69817" lon="6.27175">
        <ele>1821.5999755859</ele>
        <time>2022-02-23T10:59:30.000Z</time>
      </trkpt>
      <trkpt lat="45.69817" lon="6.27175">
        <ele>1821.5999755859</ele>
        <time>2022-02-23T10:59:48.000Z</time>
      </trkpt>
      <trkpt lat="45.69817" lon="6.27175">
        <ele>1821.5999755859</ele>
        <time>2022-02-23T11:00:06.000Z</time>
      </trkpt>
      <trkpt lat="45.69817" lon="6.27175">
        <ele>1821.5999755859</ele>
        <time>2022-02-23T11:00:09.000Z</time>
      </trkpt>
      <trkpt lat="45.69817" lon="6.27175">
        <ele>1821.5999755859</ele>
        <time>2022-02-23T11:00:46.000Z</time>
      </trkpt>
      <trkpt lat="45.69817" lon="6.27175">
        <ele>1821.5999755859</ele>
        <time>2022-02-23T11:00:47.000Z</time>
      </trkpt>
      <trkpt lat="45.69817" lon="6.27175">
        <ele>1821.5999755859</ele>
        <time>2022-02-23T11:00:55.000Z</time>
      </trkpt>
      <trkpt lat="45.69818" lon="6.27175">
        <ele>1821.5999755859</ele>
        <time>2022-02-23T11:01:24.000Z</time>
      </trkpt>
      <trkpt lat="45.69818" lon="6.27175">
        <ele>1821.5999755859</ele>
        <time>2022-02-23T11:01:27.000Z</time>
      </trkpt>
      <trkpt lat="45.69818" lon="6.27175">
        <ele>1821.5999755859</ele>
        <time>2022-02-23T11:01:32.000Z</time>
      </trkpt>
      <trkpt lat="45.69818" lon="6.27175">
        <ele>1821.5999755859</ele>
        <time>2022-02-23T11:01:34.000Z</time>
      </trkpt>
      <trkpt lat="45.69818" lon="6.27175">
        <ele>1821.5999755859</ele>
        <time>2022-02-23T11:01:48.000Z</time>
      </trkpt>
      <trkpt lat="45.69818" lon="6.27175">
        <ele>1821.5999755859</ele>
        <time>2022-02-23T11:01:49.000Z</time>
      </trkpt>
      <trkpt lat="45.69818" lon="6.27176">
        <ele>1821.5999755859</ele>
        <time>2022-02-23T11:01:52.000Z</time>
      </trkpt>
      <trkpt lat="45.69818" lon="6.27176">
        <ele>1821.5999755859</ele>
        <time>2022-02-23T11:01:53.000Z</time>
      </trkpt>
      <trkpt lat="45.69818" lon="6.27176">
        <ele>1821.5999755859</ele>
        <time>2022-02-23T11:01:57.000Z</time>
      </trkpt>
      <trkpt lat="45.69818" lon="6.27176">
        <ele>1821.5999755859</ele>
        <time>2022-02-23T11:01:59.000Z</time>
      </trkpt>
      <trkpt lat="45.69818" lon="6.27177">
        <ele>1821.5999755859</ele>
        <time>2022-02-23T11:02:04.000Z</time>
      </trkpt>
      <trkpt lat="45.69818" lon="6.27177">
        <ele>1821.5999755859</ele>
        <time>2022-02-23T11:02:07.000Z</time>
      </trkpt>
      <trkpt lat="45.69818" lon="6.27176">
        <ele>1821.5999755859</ele>
        <time>2022-02-23T11:02:11.000Z</time>
      </trkpt>
      <trkpt lat="45.69818" lon="6.27176">
        <ele>1821.5999755859</ele>
        <time>2022-02-23T11:02:13.000Z</time>
      </trkpt>
      <trkpt lat="45.69818" lon="6.27176">
        <ele>1821.5999755859</ele>
        <time>2022-02-23T11:02:25.000Z</time>
      </trkpt>
      <trkpt lat="45.69818" lon="6.27177">
        <ele>1821.5999755859</ele>
        <time>2022-02-23T11:02:30.000Z</time>
      </trkpt>
      <trkpt lat="45.69818" lon="6.27177">
        <ele>1821.5999755859</ele>
        <time>2022-02-23T11:02:32.000Z</time>
      </trkpt>
      <trkpt lat="45.69818" lon="6.27177">
        <ele>1821.5999755859</ele>
        <time>2022-02-23T11:02:33.000Z</time>
      </trkpt>
      <trkpt lat="45.69818" lon="6.27177">
        <ele>1821.5999755859</ele>
        <time>2022-02-23T11:02:37.000Z</time>
      </trkpt>
      <trkpt lat="45.69818" lon="6.27177">
        <ele>1821.5999755859</ele>
        <time>2022-02-23T11:02:42.000Z</time>
      </trkpt>
      <trkpt lat="45.69818" lon="6.27177">
        <ele>1821.5999755859</ele>
        <time>2022-02-23T11:02:49.000Z</time>
      </trkpt>
      <trkpt lat="45.69818" lon="6.27177">
        <ele>1821.5999755859</ele>
        <time>2022-02-23T11:02:51.000Z</time>
      </trkpt>
      <trkpt lat="45.69818" lon="6.27177">
        <ele>1821.5999755859</ele>
        <time>2022-02-23T11:02:53.000Z</time>
      </trkpt>
      <trkpt lat="45.69818" lon="6.27177">
        <ele>1821.5999755859</ele>
        <time>2022-02-23T11:02:56.000Z</time>
      </trkpt>
      <trkpt lat="45.69818" lon="6.27177">
        <ele>1821.5999755859</ele>
        <time>2022-02-23T11:03:09.000Z</time>
      </trkpt>
      <trkpt lat="45.69818" lon="6.27177">
        <ele>1821.5999755859</ele>
        <time>2022-02-23T11:03:11.000Z</time>
      </trkpt>
      <trkpt lat="45.69818" lon="6.27177">
        <ele>1821.5999755859</ele>
        <time>2022-02-23T11:03:13.000Z</time>
      </trkpt>
      <trkpt lat="45.69818" lon="6.27177">
        <ele>1821.5999755859</ele>
        <time>2022-02-23T11:03:16.000Z</time>
      </trkpt>
      <trkpt lat="45.69818" lon="6.27177">
        <ele>1821.5999755859</ele>
        <time>2022-02-23T11:03:25.000Z</time>
      </trkpt>
      <trkpt lat="45.69818" lon="6.27177">
        <ele>1821.5999755859</ele>
        <time>2022-02-23T11:03:26.000Z</time>
      </trkpt>
      <trkpt lat="45.69818" lon="6.27177">
        <ele>1821.5999755859</ele>
        <time>2022-02-23T11:03:29.000Z</time>
      </trkpt>
      <trkpt lat="45.69818" lon="6.27177">
        <ele>1821.5999755859</ele>
        <time>2022-02-23T11:03:37.000Z</time>
      </trkpt>
      <trkpt lat="45.69818" lon="6.27177">
        <ele>1821.5999755859</ele>
        <time>2022-02-23T11:03:38.000Z</time>
      </trkpt>
      <trkpt lat="45.69818" lon="6.27177">
        <ele>1821.5999755859</ele>
        <time>2022-02-23T11:03:40.000Z</time>
      </trkpt>
      <trkpt lat="45.69818" lon="6.27177">
        <ele>1821.5999755859</ele>
        <time>2022-02-23T11:03:43.000Z</time>
      </trkpt>
      <trkpt lat="45.69818" lon="6.27177">
        <ele>1821.5999755859</ele>
        <time>2022-02-23T11:03:47.000Z</time>
      </trkpt>
      <trkpt lat="45.69818" lon="6.27177">
        <ele>1821.5999755859</ele>
        <time>2022-02-23T11:03:51.000Z</time>
      </trkpt>
      <trkpt lat="45.69818" lon="6.27177">
        <ele>1821.5999755859</ele>
        <time>2022-02-23T11:03:52.000Z</time>
      </trkpt>
      <trkpt lat="45.69818" lon="6.27176">
        <ele>1821.5999755859</ele>
        <time>2022-02-23T11:03:57.000Z</time>
      </trkpt>
      <trkpt lat="45.69818" lon="6.27176">
        <ele>1821.5999755859</ele>
        <time>2022-02-23T11:03:59.000Z</time>
      </trkpt>
      <trkpt lat="45.69818" lon="6.27177">
        <ele>1821.5999755859</ele>
        <time>2022-02-23T11:04:04.000Z</time>
      </trkpt>
      <trkpt lat="45.69818" lon="6.27177">
        <ele>1821.5999755859</ele>
        <time>2022-02-23T11:04:07.000Z</time>
      </trkpt>
      <trkpt lat="45.69818" lon="6.27177">
        <ele>1821.5999755859</ele>
        <time>2022-02-23T11:04:08.000Z</time>
      </trkpt>
      <trkpt lat="45.69818" lon="6.27177">
        <ele>1821.5999755859</ele>
        <time>2022-02-23T11:04:12.000Z</time>
      </trkpt>
      <trkpt lat="45.69818" lon="6.27177">
        <ele>1821.5999755859</ele>
        <time>2022-02-23T11:04:13.000Z</time>
      </trkpt>
      <trkpt lat="45.69818" lon="6.27177">
        <ele>1821.5999755859</ele>
        <time>2022-02-23T11:04:22.000Z</time>
      </trkpt>
      <trkpt lat="45.69819" lon="6.27177">
        <ele>1821.5999755859</ele>
        <time>2022-02-23T11:04:41.000Z</time>
      </trkpt>
      <trkpt lat="45.69819" lon="6.27178">
        <ele>1821.5999755859</ele>
        <time>2022-02-23T11:04:53.000Z</time>
      </trkpt>
      <trkpt lat="45.69819" lon="6.27178">
        <ele>1821.5999755859</ele>
        <time>2022-02-23T11:04:59.000Z</time>
      </trkpt>
      <trkpt lat="45.69819" lon="6.27178">
        <ele>1821.5999755859</ele>
        <time>2022-02-23T11:05:14.000Z</time>
      </trkpt>
      <trkpt lat="45.69819" lon="6.27178">
        <ele>1821.5999755859</ele>
        <time>2022-02-23T11:05:15.000Z</time>
      </trkpt>
      <trkpt lat="45.69819" lon="6.27178">
        <ele>1821.5999755859</ele>
        <time>2022-02-23T11:05:23.000Z</time>
      </trkpt>
      <trkpt lat="45.69819" lon="6.27178">
        <ele>1821.5999755859</ele>
        <time>2022-02-23T11:05:27.000Z</time>
      </trkpt>
      <trkpt lat="45.69819" lon="6.27178">
        <ele>1821.5999755859</ele>
        <time>2022-02-23T11:05:29.000Z</time>
      </trkpt>
      <trkpt lat="45.69819" lon="6.27178">
        <ele>1821.5999755859</ele>
        <time>2022-02-23T11:05:36.000Z</time>
      </trkpt>
      <trkpt lat="45.69819" lon="6.27178">
        <ele>1821.5999755859</ele>
        <time>2022-02-23T11:05:37.000Z</time>
      </trkpt>
      <trkpt lat="45.69819" lon="6.27178">
        <ele>1821.5999755859</ele>
        <time>2022-02-23T11:05:41.000Z</time>
      </trkpt>
      <trkpt lat="45.69819" lon="6.27178">
        <ele>1821.5999755859</ele>
        <time>2022-02-23T11:05:45.000Z</time>
      </trkpt>
      <trkpt lat="45.69819" lon="6.27178">
        <ele>1821.5999755859</ele>
        <time>2022-02-23T11:05:48.000Z</time>
      </trkpt>
      <trkpt lat="45.69819" lon="6.27178">
        <ele>1821.5999755859</ele>
        <time>2022-02-23T11:05:51.000Z</time>
      </trkpt>
      <trkpt lat="45.69819" lon="6.27178">
        <ele>1821.5999755859</ele>
        <time>2022-02-23T11:05:53.000Z</time>
      </trkpt>
      <trkpt lat="45.69819" lon="6.27178">
        <ele>1821.5999755859</ele>
        <time>2022-02-23T11:05:54.000Z</time>
      </trkpt>
      <trkpt lat="45.69819" lon="6.27178">
        <ele>1821.5999755859</ele>
        <time>2022-02-23T11:06:06.000Z</time>
      </trkpt>
      <trkpt lat="45.69819" lon="6.27178">
        <ele>1821.5999755859</ele>
        <time>2022-02-23T11:06:08.000Z</time>
      </trkpt>
      <trkpt lat="45.69819" lon="6.27178">
        <ele>1821.5999755859</ele>
        <time>2022-02-23T11:06:12.000Z</time>
      </trkpt>
      <trkpt lat="45.69819" lon="6.27178">
        <ele>1821.5999755859</ele>
        <time>2022-02-23T11:06:14.000Z</time>
      </trkpt>
      <trkpt lat="45.69819" lon="6.27178">
        <ele>1821.5999755859</ele>
        <time>2022-02-23T11:06:21.000Z</time>
      </trkpt>
      <trkpt lat="45.69819" lon="6.27178">
        <ele>1821.5999755859</ele>
        <time>2022-02-23T11:06:24.000Z</time>
      </trkpt>
      <trkpt lat="45.69819" lon="6.27178">
        <ele>1821.5999755859</ele>
        <time>2022-02-23T11:06:28.000Z</time>
      </trkpt>
      <trkpt lat="45.69819" lon="6.27178">
        <ele>1821.5999755859</ele>
        <time>2022-02-23T11:06:29.000Z</time>
      </trkpt>
      <trkpt lat="45.69819" lon="6.27178">
        <ele>1821.5999755859</ele>
        <time>2022-02-23T11:06:31.000Z</time>
      </trkpt>
      <trkpt lat="45.69819" lon="6.27178">
        <ele>1821.5999755859</ele>
        <time>2022-02-23T11:06:33.000Z</time>
      </trkpt>
      <trkpt lat="45.69819" lon="6.27178">
        <ele>1821.5999755859</ele>
        <time>2022-02-23T11:06:35.000Z</time>
      </trkpt>
      <trkpt lat="45.69819" lon="6.27179">
        <ele>1821.5999755859</ele>
        <time>2022-02-23T11:06:42.000Z</time>
      </trkpt>
      <trkpt lat="45.69818" lon="6.27178">
        <ele>1821.5999755859</ele>
        <time>2022-02-23T11:06:51.000Z</time>
      </trkpt>
      <trkpt lat="45.69818" lon="6.27178">
        <ele>1821.5999755859</ele>
        <time>2022-02-23T11:06:52.000Z</time>
      </trkpt>
      <trkpt lat="45.69818" lon="6.27178">
        <ele>1821.5999755859</ele>
        <time>2022-02-23T11:06:54.000Z</time>
      </trkpt>
      <trkpt lat="45.69818" lon="6.27178">
        <ele>1821.5999755859</ele>
        <time>2022-02-23T11:06:58.000Z</time>
      </trkpt>
      <trkpt lat="45.69818" lon="6.27179">
        <ele>1821.5999755859</ele>
        <time>2022-02-23T11:07:07.000Z</time>
      </trkpt>
      <trkpt lat="45.69818" lon="6.27179">
        <ele>1821.5999755859</ele>
        <time>2022-02-23T11:07:09.000Z</time>
      </trkpt>
      <trkpt lat="45.69818" lon="6.27179">
        <ele>1821.5999755859</ele>
        <time>2022-02-23T11:07:13.000Z</time>
      </trkpt>
      <trkpt lat="45.69818" lon="6.27179">
        <ele>1821.5999755859</ele>
        <time>2022-02-23T11:07:17.000Z</time>
      </trkpt>
      <trkpt lat="45.69818" lon="6.27178">
        <ele>1821.5999755859</ele>
        <time>2022-02-23T11:07:21.000Z</time>
      </trkpt>
      <trkpt lat="45.69818" lon="6.27178">
        <ele>1821.5999755859</ele>
        <time>2022-02-23T11:07:22.000Z</time>
      </trkpt>
      <trkpt lat="45.69818" lon="6.27178">
        <ele>1821.5999755859</ele>
        <time>2022-02-23T11:07:26.000Z</time>
      </trkpt>
      <trkpt lat="45.69818" lon="6.27177">
        <ele>1821.5999755859</ele>
        <time>2022-02-23T11:07:29.000Z</time>
      </trkpt>
      <trkpt lat="45.69818" lon="6.27177">
        <ele>1821.5999755859</ele>
        <time>2022-02-23T11:07:33.000Z</time>
      </trkpt>
      <trkpt lat="45.69818" lon="6.27177">
        <ele>1821.5999755859</ele>
        <time>2022-02-23T11:07:36.000Z</time>
      </trkpt>
      <trkpt lat="45.69818" lon="6.27177">
        <ele>1821.5999755859</ele>
        <time>2022-02-23T11:07:42.000Z</time>
      </trkpt>
      <trkpt lat="45.69818" lon="6.27177">
        <ele>1821.5999755859</ele>
        <time>2022-02-23T11:07:46.000Z</time>
      </trkpt>
      <trkpt lat="45.69818" lon="6.27177">
        <ele>1821.5999755859</ele>
        <time>2022-02-23T11:07:48.000Z</time>
      </trkpt>
      <trkpt lat="45.69818" lon="6.27177">
        <ele>1821.5999755859</ele>
        <time>2022-02-23T11:07:51.000Z</time>
      </trkpt>
      <trkpt lat="45.69819" lon="6.27178">
        <ele>1821.5999755859</ele>
        <time>2022-02-23T11:08:00.000Z</time>
      </trkpt>
      <trkpt lat="45.69819" lon="6.27178">
        <ele>1821.5999755859</ele>
        <time>2022-02-23T11:08:01.000Z</time>
      </trkpt>
      <trkpt lat="45.69819" lon="6.27178">
        <ele>1821.5999755859</ele>
        <time>2022-02-23T11:08:02.000Z</time>
      </trkpt>
      <trkpt lat="45.69818" lon="6.27178">
        <ele>1821.5999755859</ele>
        <time>2022-02-23T11:08:13.000Z</time>
      </trkpt>
      <trkpt lat="45.69819" lon="6.27178">
        <ele>1821.5999755859</ele>
        <time>2022-02-23T11:08:18.000Z</time>
      </trkpt>
      <trkpt lat="45.69818" lon="6.27177">
        <ele>1821.5999755859</ele>
        <time>2022-02-23T11:08:24.000Z</time>
      </trkpt>
      <trkpt lat="45.69818" lon="6.27177">
        <ele>1821.5999755859</ele>
        <time>2022-02-23T11:08:27.000Z</time>
      </trkpt>
      <trkpt lat="45.69819" lon="6.27177">
        <ele>1821.5999755859</ele>
        <time>2022-02-23T11:08:34.000Z</time>
      </trkpt>
      <trkpt lat="45.69818" lon="6.27177">
        <ele>1821.5999755859</ele>
        <time>2022-02-23T11:08:38.000Z</time>
      </trkpt>
      <trkpt lat="45.69819" lon="6.27177">
        <ele>1821.5999755859</ele>
        <time>2022-02-23T11:08:44.000Z</time>
      </trkpt>
      <trkpt lat="45.69819" lon="6.27177">
        <ele>1821.5999755859</ele>
        <time>2022-02-23T11:08:45.000Z</time>
      </trkpt>
      <trkpt lat="45.69819" lon="6.27176">
        <ele>1821.5999755859</ele>
        <time>2022-02-23T11:08:52.000Z</time>
      </trkpt>
      <trkpt lat="45.69819" lon="6.27178">
        <ele>1821.5999755859</ele>
        <time>2022-02-23T11:08:56.000Z</time>
      </trkpt>
      <trkpt lat="45.69819" lon="6.27178">
        <ele>1821.5999755859</ele>
        <time>2022-02-23T11:08:59.000Z</time>
      </trkpt>
      <trkpt lat="45.69819" lon="6.2718">
        <ele>1821.5999755859</ele>
        <time>2022-02-23T11:09:07.000Z</time>
      </trkpt>
      <trkpt lat="45.69819" lon="6.2718">
        <ele>1821.5999755859</ele>
        <time>2022-02-23T11:09:10.000Z</time>
      </trkpt>
      <trkpt lat="45.69819" lon="6.27181">
        <ele>1821.5999755859</ele>
        <time>2022-02-23T11:09:15.000Z</time>
      </trkpt>
      <trkpt lat="45.6982" lon="6.27177">
        <ele>1821.5999755859</ele>
        <time>2022-02-23T11:09:22.000Z</time>
      </trkpt>
      <trkpt lat="45.69819" lon="6.27176">
        <ele>1821.5999755859</ele>
        <time>2022-02-23T11:09:24.000Z</time>
      </trkpt>
      <trkpt lat="45.69819" lon="6.27175">
        <ele>1821.5999755859</ele>
        <time>2022-02-23T11:09:25.000Z</time>
      </trkpt>
      <trkpt lat="45.69819" lon="6.27174">
        <ele>1821.5999755859</ele>
        <time>2022-02-23T11:09:30.000Z</time>
      </trkpt>
      <trkpt lat="45.69818" lon="6.27171">
        <ele>1821.5999755859</ele>
        <time>2022-02-23T11:09:37.000Z</time>
      </trkpt>
      <trkpt lat="45.69818" lon="6.27171">
        <ele>1821.5999755859</ele>
        <time>2022-02-23T11:09:39.000Z</time>
      </trkpt>
      <trkpt lat="45.69818" lon="6.27171">
        <ele>1821.5999755859</ele>
        <time>2022-02-23T11:09:44.000Z</time>
      </trkpt>
      <trkpt lat="45.69818" lon="6.27171">
        <ele>1821.5999755859</ele>
        <time>2022-02-23T11:09:50.000Z</time>
      </trkpt>
      <trkpt lat="45.69818" lon="6.27171">
        <ele>1821.5999755859</ele>
        <time>2022-02-23T11:09:51.000Z</time>
      </trkpt>
      <trkpt lat="45.69818" lon="6.27171">
        <ele>1821.5999755859</ele>
        <time>2022-02-23T11:09:59.000Z</time>
      </trkpt>
      <trkpt lat="45.69818" lon="6.27172">
        <ele>1821.5999755859</ele>
        <time>2022-02-23T11:10:00.000Z</time>
      </trkpt>
      <trkpt lat="45.69819" lon="6.27172">
        <ele>1821.5999755859</ele>
        <time>2022-02-23T11:10:07.000Z</time>
      </trkpt>
      <trkpt lat="45.69819" lon="6.27172">
        <ele>1821.5999755859</ele>
        <time>2022-02-23T11:10:08.000Z</time>
      </trkpt>
      <trkpt lat="45.6982" lon="6.27175">
        <ele>1821.5999755859</ele>
        <time>2022-02-23T11:10:16.000Z</time>
      </trkpt>
      <trkpt lat="45.6982" lon="6.27175">
        <ele>1821.5999755859</ele>
        <time>2022-02-23T11:10:24.000Z</time>
      </trkpt>
      <trkpt lat="45.6982" lon="6.27176">
        <ele>1821.5999755859</ele>
        <time>2022-02-23T11:10:25.000Z</time>
      </trkpt>
      <trkpt lat="45.69819" lon="6.27175">
        <ele>1821.5999755859</ele>
        <time>2022-02-23T11:10:28.000Z</time>
      </trkpt>
      <trkpt lat="45.69819" lon="6.27174">
        <ele>1821.5999755859</ele>
        <time>2022-02-23T11:10:29.000Z</time>
      </trkpt>
      <trkpt lat="45.69819" lon="6.27173">
        <ele>1821.5999755859</ele>
        <time>2022-02-23T11:10:37.000Z</time>
      </trkpt>
      <trkpt lat="45.69819" lon="6.27173">
        <ele>1821.5999755859</ele>
        <time>2022-02-23T11:10:46.000Z</time>
      </trkpt>
      <trkpt lat="45.69819" lon="6.27173">
        <ele>1821.5999755859</ele>
        <time>2022-02-23T11:10:48.000Z</time>
      </trkpt>
      <trkpt lat="45.69819" lon="6.27172">
        <ele>1821.5999755859</ele>
        <time>2022-02-23T11:10:57.000Z</time>
      </trkpt>
      <trkpt lat="45.69819" lon="6.27172">
        <ele>1821.5999755859</ele>
        <time>2022-02-23T11:10:58.000Z</time>
      </trkpt>
      <trkpt lat="45.69819" lon="6.27172">
        <ele>1821.5999755859</ele>
        <time>2022-02-23T11:11:01.000Z</time>
      </trkpt>
      <trkpt lat="45.69819" lon="6.27172">
        <ele>1821.5999755859</ele>
        <time>2022-02-23T11:11:04.000Z</time>
      </trkpt>
      <trkpt lat="45.69819" lon="6.27171">
        <ele>1821.5999755859</ele>
        <time>2022-02-23T11:11:07.000Z</time>
      </trkpt>
      <trkpt lat="45.69819" lon="6.27173">
        <ele>1821.5999755859</ele>
        <time>2022-02-23T11:11:13.000Z</time>
      </trkpt>
      <trkpt lat="45.69819" lon="6.27173">
        <ele>1821.5999755859</ele>
        <time>2022-02-23T11:11:19.000Z</time>
      </trkpt>
      <trkpt lat="45.69819" lon="6.27172">
        <ele>1821.5999755859</ele>
        <time>2022-02-23T11:11:21.000Z</time>
      </trkpt>
      <trkpt lat="45.69819" lon="6.27172">
        <ele>1821.5999755859</ele>
        <time>2022-02-23T11:11:26.000Z</time>
      </trkpt>
      <trkpt lat="45.69818" lon="6.27171">
        <ele>1821.5999755859</ele>
        <time>2022-02-23T11:11:29.000Z</time>
      </trkpt>
      <trkpt lat="45.69818" lon="6.2717">
        <ele>1821.5999755859</ele>
        <time>2022-02-23T11:11:31.000Z</time>
      </trkpt>
      <trkpt lat="45.69818" lon="6.2717">
        <ele>1821.5999755859</ele>
        <time>2022-02-23T11:11:34.000Z</time>
      </trkpt>
      <trkpt lat="45.69818" lon="6.27171">
        <ele>1821.5999755859</ele>
        <time>2022-02-23T11:11:35.000Z</time>
      </trkpt>
      <trkpt lat="45.69818" lon="6.27171">
        <ele>1821.5999755859</ele>
        <time>2022-02-23T11:11:36.000Z</time>
      </trkpt>
      <trkpt lat="45.69818" lon="6.27171">
        <ele>1821.5999755859</ele>
        <time>2022-02-23T11:11:47.000Z</time>
      </trkpt>
      <trkpt lat="45.69819" lon="6.27172">
        <ele>1821.5999755859</ele>
        <time>2022-02-23T11:11:58.000Z</time>
      </trkpt>
      <trkpt lat="45.69818" lon="6.27171">
        <ele>1821.5999755859</ele>
        <time>2022-02-23T11:12:08.000Z</time>
      </trkpt>
      <trkpt lat="45.69818" lon="6.27172">
        <ele>1821.5999755859</ele>
        <time>2022-02-23T11:12:13.000Z</time>
      </trkpt>
      <trkpt lat="45.69819" lon="6.27171">
        <ele>1821.5999755859</ele>
        <time>2022-02-23T11:12:20.000Z</time>
      </trkpt>
      <trkpt lat="45.69819" lon="6.27171">
        <ele>1821.5999755859</ele>
        <time>2022-02-23T11:12:25.000Z</time>
      </trkpt>
      <trkpt lat="45.69819" lon="6.27171">
        <ele>1821.5999755859</ele>
        <time>2022-02-23T11:12:29.000Z</time>
      </trkpt>
      <trkpt lat="45.69819" lon="6.27171">
        <ele>1821.5999755859</ele>
        <time>2022-02-23T11:12:36.000Z</time>
      </trkpt>
      <trkpt lat="45.69819" lon="6.27169">
        <ele>1821.5999755859</ele>
        <time>2022-02-23T11:12:48.000Z</time>
      </trkpt>
      <trkpt lat="45.6982" lon="6.27169">
        <ele>1821.5999755859</ele>
        <time>2022-02-23T11:12:51.000Z</time>
      </trkpt>
      <trkpt lat="45.69819" lon="6.27171">
        <ele>1821.5999755859</ele>
        <time>2022-02-23T11:13:00.000Z</time>
      </trkpt>
      <trkpt lat="45.69819" lon="6.27173">
        <ele>1821.5999755859</ele>
        <time>2022-02-23T11:13:03.000Z</time>
      </trkpt>
      <trkpt lat="45.6982" lon="6.27177">
        <ele>1821.5999755859</ele>
        <time>2022-02-23T11:13:12.000Z</time>
      </trkpt>
      <trkpt lat="45.69821" lon="6.27178">
        <ele>1821.5999755859</ele>
        <time>2022-02-23T11:13:19.000Z</time>
      </trkpt>
      <trkpt lat="45.6982" lon="6.27178">
        <ele>1821.5999755859</ele>
        <time>2022-02-23T11:13:20.000Z</time>
      </trkpt>
      <trkpt lat="45.6982" lon="6.27177">
        <ele>1821.5999755859</ele>
        <time>2022-02-23T11:13:21.000Z</time>
      </trkpt>
      <trkpt lat="45.6982" lon="6.27176">
        <ele>1821.5999755859</ele>
        <time>2022-02-23T11:13:23.000Z</time>
      </trkpt>
      <trkpt lat="45.6982" lon="6.27177">
        <ele>1821.5999755859</ele>
        <time>2022-02-23T11:13:29.000Z</time>
      </trkpt>
      <trkpt lat="45.6982" lon="6.27176">
        <ele>1821.5999755859</ele>
        <time>2022-02-23T11:13:31.000Z</time>
      </trkpt>
      <trkpt lat="45.69821" lon="6.27176">
        <ele>1821.5999755859</ele>
        <time>2022-02-23T11:13:37.000Z</time>
      </trkpt>
      <trkpt lat="45.69822" lon="6.27176">
        <ele>1821.5999755859</ele>
        <time>2022-02-23T11:13:38.000Z</time>
      </trkpt>
      <trkpt lat="45.69822" lon="6.27176">
        <ele>1821.5999755859</ele>
        <time>2022-02-23T11:13:42.000Z</time>
      </trkpt>
      <trkpt lat="45.69822" lon="6.27176">
        <ele>1821.5999755859</ele>
        <time>2022-02-23T11:13:46.000Z</time>
      </trkpt>
      <trkpt lat="45.69822" lon="6.27176">
        <ele>1821.5999755859</ele>
        <time>2022-02-23T11:13:53.000Z</time>
      </trkpt>
      <trkpt lat="45.69822" lon="6.27176">
        <ele>1821.5999755859</ele>
        <time>2022-02-23T11:13:54.000Z</time>
      </trkpt>
      <trkpt lat="45.69822" lon="6.27177">
        <ele>1821.5999755859</ele>
        <time>2022-02-23T11:13:56.000Z</time>
      </trkpt>
      <trkpt lat="45.69821" lon="6.27177">
        <ele>1821.5999755859</ele>
        <time>2022-02-23T11:13:59.000Z</time>
      </trkpt>
      <trkpt lat="45.69821" lon="6.27177">
        <ele>1821.5999755859</ele>
        <time>2022-02-23T11:14:01.000Z</time>
      </trkpt>
      <trkpt lat="45.69821" lon="6.27177">
        <ele>1821.5999755859</ele>
        <time>2022-02-23T11:14:03.000Z</time>
      </trkpt>
      <trkpt lat="45.69821" lon="6.27177">
        <ele>1821.5999755859</ele>
        <time>2022-02-23T11:14:05.000Z</time>
      </trkpt>
      <trkpt lat="45.69821" lon="6.27177">
        <ele>1821.5999755859</ele>
        <time>2022-02-23T11:14:15.000Z</time>
      </trkpt>
      <trkpt lat="45.69821" lon="6.27176">
        <ele>1821.5999755859</ele>
        <time>2022-02-23T11:14:28.000Z</time>
      </trkpt>
      <trkpt lat="45.6982" lon="6.27176">
        <ele>1821.5999755859</ele>
        <time>2022-02-23T11:14:29.000Z</time>
      </trkpt>
      <trkpt lat="45.6982" lon="6.27176">
        <ele>1821.5999755859</ele>
        <time>2022-02-23T11:14:34.000Z</time>
      </trkpt>
      <trkpt lat="45.6982" lon="6.27176">
        <ele>1821.5999755859</ele>
        <time>2022-02-23T11:14:43.000Z</time>
      </trkpt>
      <trkpt lat="45.6982" lon="6.27176">
        <ele>1821.5999755859</ele>
        <time>2022-02-23T11:14:46.000Z</time>
      </trkpt>
      <trkpt lat="45.6982" lon="6.27176">
        <ele>1821.5999755859</ele>
        <time>2022-02-23T11:14:55.000Z</time>
      </trkpt>
      <trkpt lat="45.6982" lon="6.27176">
        <ele>1821.5999755859</ele>
        <time>2022-02-23T11:14:56.000Z</time>
      </trkpt>
      <trkpt lat="45.6982" lon="6.27176">
        <ele>1821.5999755859</ele>
        <time>2022-02-23T11:14:59.000Z</time>
      </trkpt>
      <trkpt lat="45.6982" lon="6.27176">
        <ele>1821.5999755859</ele>
        <time>2022-02-23T11:15:03.000Z</time>
      </trkpt>
      <trkpt lat="45.69819" lon="6.27176">
        <ele>1821.5999755859</ele>
        <time>2022-02-23T11:15:06.000Z</time>
      </trkpt>
      <trkpt lat="45.69819" lon="6.27176">
        <ele>1821.5999755859</ele>
        <time>2022-02-23T11:15:14.000Z</time>
      </trkpt>
      <trkpt lat="45.6982" lon="6.27177">
        <ele>1821.5999755859</ele>
        <time>2022-02-23T11:15:19.000Z</time>
      </trkpt>
      <trkpt lat="45.69819" lon="6.27177">
        <ele>1821.5999755859</ele>
        <time>2022-02-23T11:15:27.000Z</time>
      </trkpt>
      <trkpt lat="45.69819" lon="6.27177">
        <ele>1821.5999755859</ele>
        <time>2022-02-23T11:15:41.000Z</time>
      </trkpt>
      <trkpt lat="45.69819" lon="6.27177">
        <ele>1821.5999755859</ele>
        <time>2022-02-23T11:15:42.000Z</time>
      </trkpt>
      <trkpt lat="45.69819" lon="6.27177">
        <ele>1821.5999755859</ele>
        <time>2022-02-23T11:15:44.000Z</time>
      </trkpt>
      <trkpt lat="45.69819" lon="6.27177">
        <ele>1821.5999755859</ele>
        <time>2022-02-23T11:15:47.000Z</time>
      </trkpt>
      <trkpt lat="45.69819" lon="6.27177">
        <ele>1821.5999755859</ele>
        <time>2022-02-23T11:15:50.000Z</time>
      </trkpt>
      <trkpt lat="45.69819" lon="6.27177">
        <ele>1821.5999755859</ele>
        <time>2022-02-23T11:15:55.000Z</time>
      </trkpt>
      <trkpt lat="45.69819" lon="6.27178">
        <ele>1821.5999755859</ele>
        <time>2022-02-23T11:16:01.000Z</time>
      </trkpt>
      <trkpt lat="45.69819" lon="6.27178">
        <ele>1821.5999755859</ele>
        <time>2022-02-23T11:16:04.000Z</time>
      </trkpt>
      <trkpt lat="45.69819" lon="6.27178">
        <ele>1821.5999755859</ele>
        <time>2022-02-23T11:16:09.000Z</time>
      </trkpt>
      <trkpt lat="45.69819" lon="6.27178">
        <ele>1821.5999755859</ele>
        <time>2022-02-23T11:16:11.000Z</time>
      </trkpt>
      <trkpt lat="45.69819" lon="6.27178">
        <ele>1821.5999755859</ele>
        <time>2022-02-23T11:16:15.000Z</time>
      </trkpt>
      <trkpt lat="45.69819" lon="6.27178">
        <ele>1821.5999755859</ele>
        <time>2022-02-23T11:16:20.000Z</time>
      </trkpt>
      <trkpt lat="45.69819" lon="6.27178">
        <ele>1821.5999755859</ele>
        <time>2022-02-23T11:16:23.000Z</time>
      </trkpt>
      <trkpt lat="45.69819" lon="6.27178">
        <ele>1821.5999755859</ele>
        <time>2022-02-23T11:16:28.000Z</time>
      </trkpt>
      <trkpt lat="45.69819" lon="6.27178">
        <ele>1821.5999755859</ele>
        <time>2022-02-23T11:16:30.000Z</time>
      </trkpt>
      <trkpt lat="45.69817" lon="6.27176">
        <ele>1821.5999755859</ele>
        <time>2022-02-23T11:16:36.000Z</time>
      </trkpt>
      <trkpt lat="45.69817" lon="6.27177">
        <ele>1821.5999755859</ele>
        <time>2022-02-23T11:16:41.000Z</time>
      </trkpt>
      <trkpt lat="45.69817" lon="6.27177">
        <ele>1821.5999755859</ele>
        <time>2022-02-23T11:16:42.000Z</time>
      </trkpt>
      <trkpt lat="45.69817" lon="6.27178">
        <ele>1821.5999755859</ele>
        <time>2022-02-23T11:16:47.000Z</time>
      </trkpt>
      <trkpt lat="45.69817" lon="6.27179">
        <ele>1821.5999755859</ele>
        <time>2022-02-23T11:16:50.000Z</time>
      </trkpt>
      <trkpt lat="45.69818" lon="6.2718">
        <ele>1821.5999755859</ele>
        <time>2022-02-23T11:16:56.000Z</time>
      </trkpt>
      <trkpt lat="45.69818" lon="6.2718">
        <ele>1821.5999755859</ele>
        <time>2022-02-23T11:16:57.000Z</time>
      </trkpt>
      <trkpt lat="45.69818" lon="6.2718">
        <ele>1821.5999755859</ele>
        <time>2022-02-23T11:17:01.000Z</time>
      </trkpt>
      <trkpt lat="45.69819" lon="6.2718">
        <ele>1821.5999755859</ele>
        <time>2022-02-23T11:17:02.000Z</time>
      </trkpt>
      <trkpt lat="45.69819" lon="6.2718">
        <ele>1821.5999755859</ele>
        <time>2022-02-23T11:17:06.000Z</time>
      </trkpt>
      <trkpt lat="45.69819" lon="6.27178">
        <ele>1821.5999755859</ele>
        <time>2022-02-23T11:17:12.000Z</time>
      </trkpt>
      <trkpt lat="45.6982" lon="6.27177">
        <ele>1821.5999755859</ele>
        <time>2022-02-23T11:17:18.000Z</time>
      </trkpt>
      <trkpt lat="45.6982" lon="6.27177">
        <ele>1821.5999755859</ele>
        <time>2022-02-23T11:17:19.000Z</time>
      </trkpt>
      <trkpt lat="45.6982" lon="6.27178">
        <ele>1821.5999755859</ele>
        <time>2022-02-23T11:17:28.000Z</time>
      </trkpt>
      <trkpt lat="45.69819" lon="6.27179">
        <ele>1821.5999755859</ele>
        <time>2022-02-23T11:17:35.000Z</time>
      </trkpt>
      <trkpt lat="45.69819" lon="6.27178">
        <ele>1821.5999755859</ele>
        <time>2022-02-23T11:17:45.000Z</time>
      </trkpt>
      <trkpt lat="45.6982" lon="6.27178">
        <ele>1821.5999755859</ele>
        <time>2022-02-23T11:17:51.000Z</time>
      </trkpt>
      <trkpt lat="45.6982" lon="6.27177">
        <ele>1821.5999755859</ele>
        <time>2022-02-23T11:18:04.000Z</time>
      </trkpt>
      <trkpt lat="45.69821" lon="6.27175">
        <ele>1821.5999755859</ele>
        <time>2022-02-23T11:18:15.000Z</time>
      </trkpt>
      <trkpt lat="45.6982" lon="6.27176">
        <ele>1821.5999755859</ele>
        <time>2022-02-23T11:18:19.000Z</time>
      </trkpt>
      <trkpt lat="45.6982" lon="6.27176">
        <ele>1821.5999755859</ele>
        <time>2022-02-23T11:18:21.000Z</time>
      </trkpt>
      <trkpt lat="45.6982" lon="6.27175">
        <ele>1821.5999755859</ele>
        <time>2022-02-23T11:18:31.000Z</time>
      </trkpt>
      <trkpt lat="45.6982" lon="6.27176">
        <ele>1821.5999755859</ele>
        <time>2022-02-23T11:18:41.000Z</time>
      </trkpt>
      <trkpt lat="45.69821" lon="6.27176">
        <ele>1821.5999755859</ele>
        <time>2022-02-23T11:18:50.000Z</time>
      </trkpt>
      <trkpt lat="45.69821" lon="6.27176">
        <ele>1821.5999755859</ele>
        <time>2022-02-23T11:18:54.000Z</time>
      </trkpt>
      <trkpt lat="45.69821" lon="6.27176">
        <ele>1821.5999755859</ele>
        <time>2022-02-23T11:18:57.000Z</time>
      </trkpt>
      <trkpt lat="45.69819" lon="6.27174">
        <ele>1821.5999755859</ele>
        <time>2022-02-23T11:19:03.000Z</time>
      </trkpt>
      <trkpt lat="45.69818" lon="6.27175">
        <ele>1821.5999755859</ele>
        <time>2022-02-23T11:19:11.000Z</time>
      </trkpt>
      <trkpt lat="45.69818" lon="6.27175">
        <ele>1821.5999755859</ele>
        <time>2022-02-23T11:19:14.000Z</time>
      </trkpt>
      <trkpt lat="45.69818" lon="6.27172">
        <ele>1821.5999755859</ele>
        <time>2022-02-23T11:19:20.000Z</time>
      </trkpt>
      <trkpt lat="45.69818" lon="6.27171">
        <ele>1821.5999755859</ele>
        <time>2022-02-23T11:19:24.000Z</time>
      </trkpt>
      <trkpt lat="45.69818" lon="6.2717">
        <ele>1821.5999755859</ele>
        <time>2022-02-23T11:19:27.000Z</time>
      </trkpt>
      <trkpt lat="45.69818" lon="6.27169">
        <ele>1821.5999755859</ele>
        <time>2022-02-23T11:19:28.000Z</time>
      </trkpt>
      <trkpt lat="45.69818" lon="6.27167">
        <ele>1821.5999755859</ele>
        <time>2022-02-23T11:19:36.000Z</time>
      </trkpt>
      <trkpt lat="45.69819" lon="6.27167">
        <ele>1821.5999755859</ele>
        <time>2022-02-23T11:19:42.000Z</time>
      </trkpt>
      <trkpt lat="45.69819" lon="6.27167">
        <ele>1821.5999755859</ele>
        <time>2022-02-23T11:19:43.000Z</time>
      </trkpt>
      <trkpt lat="45.69818" lon="6.27167">
        <ele>1821.5999755859</ele>
        <time>2022-02-23T11:19:49.000Z</time>
      </trkpt>
      <trkpt lat="45.69818" lon="6.27167">
        <ele>1821.5999755859</ele>
        <time>2022-02-23T11:19:53.000Z</time>
      </trkpt>
      <trkpt lat="45.69818" lon="6.27168">
        <ele>1821.5999755859</ele>
        <time>2022-02-23T11:20:06.000Z</time>
      </trkpt>
      <trkpt lat="45.69818" lon="6.27168">
        <ele>1821.5999755859</ele>
        <time>2022-02-23T11:20:08.000Z</time>
      </trkpt>
      <trkpt lat="45.69817" lon="6.27168">
        <ele>1821.5999755859</ele>
        <time>2022-02-23T11:20:13.000Z</time>
      </trkpt>
      <trkpt lat="45.69817" lon="6.27168">
        <ele>1821.5999755859</ele>
        <time>2022-02-23T11:20:15.000Z</time>
      </trkpt>
      <trkpt lat="45.69817" lon="6.27168">
        <ele>1821.5999755859</ele>
        <time>2022-02-23T11:20:16.000Z</time>
      </trkpt>
      <trkpt lat="45.69817" lon="6.27168">
        <ele>1821.5999755859</ele>
        <time>2022-02-23T11:20:18.000Z</time>
      </trkpt>
      <trkpt lat="45.69817" lon="6.27168">
        <ele>1821.5999755859</ele>
        <time>2022-02-23T11:20:29.000Z</time>
      </trkpt>
      <trkpt lat="45.69817" lon="6.27168">
        <ele>1821.5999755859</ele>
        <time>2022-02-23T11:20:38.000Z</time>
      </trkpt>
      <trkpt lat="45.69817" lon="6.27168">
        <ele>1821.5999755859</ele>
        <time>2022-02-23T11:20:39.000Z</time>
      </trkpt>
      <trkpt lat="45.69817" lon="6.27168">
        <ele>1821.5999755859</ele>
        <time>2022-02-23T11:20:52.000Z</time>
      </trkpt>
      <trkpt lat="45.69815" lon="6.27167">
        <ele>1821.5999755859</ele>
        <time>2022-02-23T11:20:55.000Z</time>
      </trkpt>
      <trkpt lat="45.69813" lon="6.27165">
        <ele>1821.5999755859</ele>
        <time>2022-02-23T11:21:00.000Z</time>
      </trkpt>
      <trkpt lat="45.69811" lon="6.27162">
        <ele>1821.5999755859</ele>
        <time>2022-02-23T11:21:06.000Z</time>
      </trkpt>
      <trkpt lat="45.6981" lon="6.27162">
        <ele>1821.5999755859</ele>
        <time>2022-02-23T11:21:08.000Z</time>
      </trkpt>
      <trkpt lat="45.6981" lon="6.27162">
        <ele>1821.5999755859</ele>
        <time>2022-02-23T11:21:09.000Z</time>
      </trkpt>
      <trkpt lat="45.69808" lon="6.27162">
        <ele>1821.5999755859</ele>
        <time>2022-02-23T11:21:11.000Z</time>
      </trkpt>
      <trkpt lat="45.69808" lon="6.27162">
        <ele>1821.5999755859</ele>
        <time>2022-02-23T11:21:12.000Z</time>
      </trkpt>
      <trkpt lat="45.69804" lon="6.27161">
        <ele>1821.5999755859</ele>
        <time>2022-02-23T11:21:16.000Z</time>
      </trkpt>
      <trkpt lat="45.69803" lon="6.27161">
        <ele>1821.5999755859</ele>
        <time>2022-02-23T11:21:18.000Z</time>
      </trkpt>
      <trkpt lat="45.69802" lon="6.27161">
        <ele>1821.5999755859</ele>
        <time>2022-02-23T11:21:22.000Z</time>
      </trkpt>
      <trkpt lat="45.69802" lon="6.27161">
        <ele>1821.5999755859</ele>
        <time>2022-02-23T11:21:24.000Z</time>
      </trkpt>
      <trkpt lat="45.69801" lon="6.27161">
        <ele>1821.5999755859</ele>
        <time>2022-02-23T11:21:30.000Z</time>
      </trkpt>
      <trkpt lat="45.698" lon="6.2716">
        <ele>1821.5999755859</ele>
        <time>2022-02-23T11:21:34.000Z</time>
      </trkpt>
      <trkpt lat="45.698" lon="6.2716">
        <ele>1821.5999755859</ele>
        <time>2022-02-23T11:21:35.000Z</time>
      </trkpt>
      <trkpt lat="45.69799" lon="6.27159">
        <ele>1821.5999755859</ele>
        <time>2022-02-23T11:21:39.000Z</time>
      </trkpt>
      <trkpt lat="45.69799" lon="6.27158">
        <ele>1821.5999755859</ele>
        <time>2022-02-23T11:21:41.000Z</time>
      </trkpt>
      <trkpt lat="45.69798" lon="6.27158">
        <ele>1821.5999755859</ele>
        <time>2022-02-23T11:21:54.000Z</time>
      </trkpt>
      <trkpt lat="45.69798" lon="6.27158">
        <ele>1821.5999755859</ele>
        <time>2022-02-23T11:21:56.000Z</time>
      </trkpt>
      <trkpt lat="45.69799" lon="6.27158">
        <ele>1821.5999755859</ele>
        <time>2022-02-23T11:22:09.000Z</time>
      </trkpt>
      <trkpt lat="45.69799" lon="6.27158">
        <ele>1821.5999755859</ele>
        <time>2022-02-23T11:22:13.000Z</time>
      </trkpt>
      <trkpt lat="45.69799" lon="6.27158">
        <ele>1821.5999755859</ele>
        <time>2022-02-23T11:22:26.000Z</time>
      </trkpt>
      <trkpt lat="45.69798" lon="6.27158">
        <ele>1821.5999755859</ele>
        <time>2022-02-23T11:22:37.000Z</time>
      </trkpt>
      <trkpt lat="45.69798" lon="6.27158">
        <ele>1821.5999755859</ele>
        <time>2022-02-23T11:22:38.000Z</time>
      </trkpt>
      <trkpt lat="45.69798" lon="6.27158">
        <ele>1821.5999755859</ele>
        <time>2022-02-23T11:22:43.000Z</time>
      </trkpt>
      <trkpt lat="45.69798" lon="6.27158">
        <ele>1821.5999755859</ele>
        <time>2022-02-23T11:22:51.000Z</time>
      </trkpt>
      <trkpt lat="45.69798" lon="6.27158">
        <ele>1821.5999755859</ele>
        <time>2022-02-23T11:22:52.000Z</time>
      </trkpt>
      <trkpt lat="45.69798" lon="6.27158">
        <ele>1821.5999755859</ele>
        <time>2022-02-23T11:23:00.000Z</time>
      </trkpt>
      <trkpt lat="45.69798" lon="6.27158">
        <ele>1821.5999755859</ele>
        <time>2022-02-23T11:23:09.000Z</time>
      </trkpt>
      <trkpt lat="45.69798" lon="6.27158">
        <ele>1821.5999755859</ele>
        <time>2022-02-23T11:23:14.000Z</time>
      </trkpt>
      <trkpt lat="45.69798" lon="6.27158">
        <ele>1821.5999755859</ele>
        <time>2022-02-23T11:23:15.000Z</time>
      </trkpt>
      <trkpt lat="45.69798" lon="6.27158">
        <ele>1821.5999755859</ele>
        <time>2022-02-23T11:23:16.000Z</time>
      </trkpt>
      <trkpt lat="45.69798" lon="6.27158">
        <ele>1821.5999755859</ele>
        <time>2022-02-23T11:23:17.000Z</time>
      </trkpt>
      <trkpt lat="45.69798" lon="6.27158">
        <ele>1821.5999755859</ele>
        <time>2022-02-23T11:23:29.000Z</time>
      </trkpt>
      <trkpt lat="45.69798" lon="6.27158">
        <ele>1821.5999755859</ele>
        <time>2022-02-23T11:23:32.000Z</time>
      </trkpt>
      <trkpt lat="45.69798" lon="6.27158">
        <ele>1821.5999755859</ele>
        <time>2022-02-23T11:23:41.000Z</time>
      </trkpt>
      <trkpt lat="45.69799" lon="6.27158">
        <ele>1821.5999755859</ele>
        <time>2022-02-23T11:23:42.000Z</time>
      </trkpt>
      <trkpt lat="45.69799" lon="6.27158">
        <ele>1821.5999755859</ele>
        <time>2022-02-23T11:23:47.000Z</time>
      </trkpt>
      <trkpt lat="45.69799" lon="6.27158">
        <ele>1821.5999755859</ele>
        <time>2022-02-23T11:23:49.000Z</time>
      </trkpt>
      <trkpt lat="45.69798" lon="6.27159">
        <ele>1821.5999755859</ele>
        <time>2022-02-23T11:23:54.000Z</time>
      </trkpt>
      <trkpt lat="45.69798" lon="6.27159">
        <ele>1821.5999755859</ele>
        <time>2022-02-23T11:23:55.000Z</time>
      </trkpt>
      <trkpt lat="45.69796" lon="6.27158">
        <ele>1821.5999755859</ele>
        <time>2022-02-23T11:24:04.000Z</time>
      </trkpt>
      <trkpt lat="45.6979" lon="6.27157">
        <ele>1821.5999755859</ele>
        <time>2022-02-23T11:24:07.000Z</time>
      </trkpt>
      <trkpt lat="45.69788" lon="6.27156">
        <ele>1821.5999755859</ele>
        <time>2022-02-23T11:24:09.000Z</time>
      </trkpt>
      <trkpt lat="45.69787" lon="6.27156">
        <ele>1819.5999755859</ele>
        <time>2022-02-23T11:24:10.000Z</time>
      </trkpt>
      <trkpt lat="45.69786" lon="6.27156">
        <ele>1818.1999511719</ele>
        <time>2022-02-23T11:24:11.000Z</time>
      </trkpt>
      <trkpt lat="45.69785" lon="6.27156">
        <ele>1817.4000244141</ele>
        <time>2022-02-23T11:24:12.000Z</time>
      </trkpt>
      <trkpt lat="45.69784" lon="6.27155">
        <ele>1817</ele>
        <time>2022-02-23T11:24:13.000Z</time>
      </trkpt>
      <trkpt lat="45.69782" lon="6.27155">
        <ele>1817</ele>
        <time>2022-02-23T11:24:15.000Z</time>
      </trkpt>
      <trkpt lat="45.6978" lon="6.27154">
        <ele>1817.5999755859</ele>
        <time>2022-02-23T11:24:18.000Z</time>
      </trkpt>
      <trkpt lat="45.69778" lon="6.27154">
        <ele>1817.8000488281</ele>
        <time>2022-02-23T11:24:20.000Z</time>
      </trkpt>
      <trkpt lat="45.69778" lon="6.27153">
        <ele>1818</ele>
        <time>2022-02-23T11:24:21.000Z</time>
      </trkpt>
      <trkpt lat="45.69777" lon="6.27153">
        <ele>1818.1999511719</ele>
        <time>2022-02-23T11:24:22.000Z</time>
      </trkpt>
      <trkpt lat="45.69776" lon="6.27153">
        <ele>1818.5999755859</ele>
        <time>2022-02-23T11:24:24.000Z</time>
      </trkpt>
      <trkpt lat="45.69775" lon="6.27152">
        <ele>1818.5999755859</ele>
        <time>2022-02-23T11:24:25.000Z</time>
      </trkpt>
      <trkpt lat="45.69772" lon="6.2715">
        <ele>1819.1999511719</ele>
        <time>2022-02-23T11:24:29.000Z</time>
      </trkpt>
      <trkpt lat="45.69768" lon="6.27146">
        <ele>1818.8000488281</ele>
        <time>2022-02-23T11:24:33.000Z</time>
      </trkpt>
      <trkpt lat="45.69767" lon="6.27145">
        <ele>1818.8000488281</ele>
        <time>2022-02-23T11:24:34.000Z</time>
      </trkpt>
      <trkpt lat="45.69765" lon="6.2714">
        <ele>1818</ele>
        <time>2022-02-23T11:24:38.000Z</time>
      </trkpt>
      <trkpt lat="45.69764" lon="6.27139">
        <ele>1818</ele>
        <time>2022-02-23T11:24:39.000Z</time>
      </trkpt>
      <trkpt lat="45.69763" lon="6.27137">
        <ele>1818</ele>
        <time>2022-02-23T11:24:41.000Z</time>
      </trkpt>
      <trkpt lat="45.69762" lon="6.27135">
        <ele>1818</ele>
        <time>2022-02-23T11:24:44.000Z</time>
      </trkpt>
      <trkpt lat="45.69762" lon="6.27134">
        <ele>1818.5999755859</ele>
        <time>2022-02-23T11:24:49.000Z</time>
      </trkpt>
      <trkpt lat="45.69761" lon="6.27132">
        <ele>1818.8000488281</ele>
        <time>2022-02-23T11:24:56.000Z</time>
      </trkpt>
      <trkpt lat="45.69759" lon="6.27131">
        <ele>1818.8000488281</ele>
        <time>2022-02-23T11:24:58.000Z</time>
      </trkpt>
      <trkpt lat="45.69758" lon="6.27129">
        <ele>1819</ele>
        <time>2022-02-23T11:25:01.000Z</time>
      </trkpt>
      <trkpt lat="45.69756" lon="6.27127">
        <ele>1819.1999511719</ele>
        <time>2022-02-23T11:25:04.000Z</time>
      </trkpt>
      <trkpt lat="45.69754" lon="6.27125">
        <ele>1819.1999511719</ele>
        <time>2022-02-23T11:25:07.000Z</time>
      </trkpt>
      <trkpt lat="45.69753" lon="6.27123">
        <ele>1819.5999755859</ele>
        <time>2022-02-23T11:25:09.000Z</time>
      </trkpt>
      <trkpt lat="45.69751" lon="6.2712">
        <ele>1820</ele>
        <time>2022-02-23T11:25:13.000Z</time>
      </trkpt>
      <trkpt lat="45.6975" lon="6.27119">
        <ele>1820.4000244141</ele>
        <time>2022-02-23T11:25:15.000Z</time>
      </trkpt>
      <trkpt lat="45.69749" lon="6.27116">
        <ele>1820.5999755859</ele>
        <time>2022-02-23T11:25:18.000Z</time>
      </trkpt>
      <trkpt lat="45.69747" lon="6.27113">
        <ele>1821.1999511719</ele>
        <time>2022-02-23T11:25:22.000Z</time>
      </trkpt>
      <trkpt lat="45.69746" lon="6.27112">
        <ele>1821.1999511719</ele>
        <time>2022-02-23T11:25:23.000Z</time>
      </trkpt>
      <trkpt lat="45.69745" lon="6.2711">
        <ele>1821.1999511719</ele>
        <time>2022-02-23T11:25:25.000Z</time>
      </trkpt>
      <trkpt lat="45.69744" lon="6.2711">
        <ele>1821.4000244141</ele>
        <time>2022-02-23T11:25:26.000Z</time>
      </trkpt>
      <trkpt lat="45.69743" lon="6.27109">
        <ele>1821.4000244141</ele>
        <time>2022-02-23T11:25:27.000Z</time>
      </trkpt>
      <trkpt lat="45.69743" lon="6.27108">
        <ele>1821.4000244141</ele>
        <time>2022-02-23T11:25:28.000Z</time>
      </trkpt>
      <trkpt lat="45.69742" lon="6.27108">
        <ele>1821.4000244141</ele>
        <time>2022-02-23T11:25:29.000Z</time>
      </trkpt>
      <trkpt lat="45.69742" lon="6.27107">
        <ele>1821.5999755859</ele>
        <time>2022-02-23T11:25:30.000Z</time>
      </trkpt>
      <trkpt lat="45.6974" lon="6.27106">
        <ele>1821.8000488281</ele>
        <time>2022-02-23T11:25:32.000Z</time>
      </trkpt>
      <trkpt lat="45.6974" lon="6.27106">
        <ele>1821.8000488281</ele>
        <time>2022-02-23T11:25:33.000Z</time>
      </trkpt>
      <trkpt lat="45.69738" lon="6.27104">
        <ele>1822.1999511719</ele>
        <time>2022-02-23T11:25:36.000Z</time>
      </trkpt>
      <trkpt lat="45.69737" lon="6.27104">
        <ele>1822.4000244141</ele>
        <time>2022-02-23T11:25:37.000Z</time>
      </trkpt>
      <trkpt lat="45.69736" lon="6.27103">
        <ele>1822.8000488281</ele>
        <time>2022-02-23T11:25:39.000Z</time>
      </trkpt>
      <trkpt lat="45.69734" lon="6.27101">
        <ele>1823.1999511719</ele>
        <time>2022-02-23T11:25:44.000Z</time>
      </trkpt>
      <trkpt lat="45.69732" lon="6.271">
        <ele>1823.5999755859</ele>
        <time>2022-02-23T11:25:47.000Z</time>
      </trkpt>
      <trkpt lat="45.69731" lon="6.27099">
        <ele>1824.1999511719</ele>
        <time>2022-02-23T11:25:49.000Z</time>
      </trkpt>
      <trkpt lat="45.69731" lon="6.27098">
        <ele>1824.4000244141</ele>
        <time>2022-02-23T11:25:50.000Z</time>
      </trkpt>
      <trkpt lat="45.6973" lon="6.27098">
        <ele>1824.5999755859</ele>
        <time>2022-02-23T11:25:51.000Z</time>
      </trkpt>
      <trkpt lat="45.6973" lon="6.27098">
        <ele>1824.5999755859</ele>
        <time>2022-02-23T11:25:52.000Z</time>
      </trkpt>
      <trkpt lat="45.69729" lon="6.27097">
        <ele>1825</ele>
        <time>2022-02-23T11:25:54.000Z</time>
      </trkpt>
      <trkpt lat="45.69727" lon="6.27097">
        <ele>1825.4000244141</ele>
        <time>2022-02-23T11:25:57.000Z</time>
      </trkpt>
      <trkpt lat="45.69726" lon="6.27096">
        <ele>1825.8000488281</ele>
        <time>2022-02-23T11:25:59.000Z</time>
      </trkpt>
      <trkpt lat="45.69725" lon="6.27095">
        <ele>1825.8000488281</ele>
        <time>2022-02-23T11:26:00.000Z</time>
      </trkpt>
      <trkpt lat="45.69722" lon="6.27092">
        <ele>1826.4000244141</ele>
        <time>2022-02-23T11:26:06.000Z</time>
      </trkpt>
      <trkpt lat="45.69718" lon="6.27089">
        <ele>1826.5999755859</ele>
        <time>2022-02-23T11:26:12.000Z</time>
      </trkpt>
      <trkpt lat="45.69715" lon="6.27086">
        <ele>1827</ele>
        <time>2022-02-23T11:26:17.000Z</time>
      </trkpt>
      <trkpt lat="45.69715" lon="6.27085">
        <ele>1827.4000244141</ele>
        <time>2022-02-23T11:26:18.000Z</time>
      </trkpt>
      <trkpt lat="45.69712" lon="6.27082">
        <ele>1827.8000488281</ele>
        <time>2022-02-23T11:26:23.000Z</time>
      </trkpt>
      <trkpt lat="45.69711" lon="6.27081">
        <ele>1828.1999511719</ele>
        <time>2022-02-23T11:26:25.000Z</time>
      </trkpt>
      <trkpt lat="45.69709" lon="6.2708">
        <ele>1828.5999755859</ele>
        <time>2022-02-23T11:26:28.000Z</time>
      </trkpt>
      <trkpt lat="45.69708" lon="6.27079">
        <ele>1829</ele>
        <time>2022-02-23T11:26:30.000Z</time>
      </trkpt>
      <trkpt lat="45.69707" lon="6.27079">
        <ele>1829.1999511719</ele>
        <time>2022-02-23T11:26:32.000Z</time>
      </trkpt>
      <trkpt lat="45.69706" lon="6.27078">
        <ele>1829.1999511719</ele>
        <time>2022-02-23T11:26:33.000Z</time>
      </trkpt>
      <trkpt lat="45.69704" lon="6.27078">
        <ele>1829.5999755859</ele>
        <time>2022-02-23T11:26:37.000Z</time>
      </trkpt>
      <trkpt lat="45.69701" lon="6.27077">
        <ele>1830.1999511719</ele>
        <time>2022-02-23T11:26:41.000Z</time>
      </trkpt>
      <trkpt lat="45.697" lon="6.27077">
        <ele>1830.4000244141</ele>
        <time>2022-02-23T11:26:43.000Z</time>
      </trkpt>
      <trkpt lat="45.697" lon="6.27079">
        <ele>1831</ele>
        <time>2022-02-23T11:26:54.000Z</time>
      </trkpt>
      <trkpt lat="45.69699" lon="6.27077">
        <ele>1831.1999511719</ele>
        <time>2022-02-23T11:26:59.000Z</time>
      </trkpt>
      <trkpt lat="45.69698" lon="6.27077">
        <ele>1831.4000244141</ele>
        <time>2022-02-23T11:27:01.000Z</time>
      </trkpt>
      <trkpt lat="45.69696" lon="6.27076">
        <ele>1832</ele>
        <time>2022-02-23T11:27:04.000Z</time>
      </trkpt>
      <trkpt lat="45.69694" lon="6.27074">
        <ele>1832.4000244141</ele>
        <time>2022-02-23T11:27:07.000Z</time>
      </trkpt>
      <trkpt lat="45.69693" lon="6.27074">
        <ele>1832.4000244141</ele>
        <time>2022-02-23T11:27:09.000Z</time>
      </trkpt>
      <trkpt lat="45.69689" lon="6.27072">
        <ele>1833.1999511719</ele>
        <time>2022-02-23T11:27:14.000Z</time>
      </trkpt>
      <trkpt lat="45.69686" lon="6.27071">
        <ele>1833.4000244141</ele>
        <time>2022-02-23T11:27:18.000Z</time>
      </trkpt>
      <trkpt lat="45.69685" lon="6.27071">
        <ele>1833.4000244141</ele>
        <time>2022-02-23T11:27:19.000Z</time>
      </trkpt>
      <trkpt lat="45.69683" lon="6.27069">
        <ele>1834</ele>
        <time>2022-02-23T11:27:22.000Z</time>
      </trkpt>
      <trkpt lat="45.69681" lon="6.27067">
        <ele>1834.4000244141</ele>
        <time>2022-02-23T11:27:26.000Z</time>
      </trkpt>
      <trkpt lat="45.6968" lon="6.27067">
        <ele>1834.4000244141</ele>
        <time>2022-02-23T11:27:27.000Z</time>
      </trkpt>
      <trkpt lat="45.69678" lon="6.27065">
        <ele>1834.8000488281</ele>
        <time>2022-02-23T11:27:31.000Z</time>
      </trkpt>
      <trkpt lat="45.69675" lon="6.27063">
        <ele>1835.5999755859</ele>
        <time>2022-02-23T11:27:35.000Z</time>
      </trkpt>
      <trkpt lat="45.69674" lon="6.27063">
        <ele>1835.8000488281</ele>
        <time>2022-02-23T11:27:36.000Z</time>
      </trkpt>
      <trkpt lat="45.69672" lon="6.27061">
        <ele>1836.8000488281</ele>
        <time>2022-02-23T11:27:40.000Z</time>
      </trkpt>
      <trkpt lat="45.69668" lon="6.2706">
        <ele>1837.4000244141</ele>
        <time>2022-02-23T11:27:46.000Z</time>
      </trkpt>
      <trkpt lat="45.69666" lon="6.27059">
        <ele>1838</ele>
        <time>2022-02-23T11:27:48.000Z</time>
      </trkpt>
      <trkpt lat="45.69664" lon="6.27059">
        <ele>1838.4000244141</ele>
        <time>2022-02-23T11:27:51.000Z</time>
      </trkpt>
      <trkpt lat="45.69663" lon="6.27059">
        <ele>1838.4000244141</ele>
        <time>2022-02-23T11:27:52.000Z</time>
      </trkpt>
      <trkpt lat="45.6966" lon="6.27057">
        <ele>1839</ele>
        <time>2022-02-23T11:27:56.000Z</time>
      </trkpt>
      <trkpt lat="45.69658" lon="6.27057">
        <ele>1839.5999755859</ele>
        <time>2022-02-23T11:27:58.000Z</time>
      </trkpt>
      <trkpt lat="45.69656" lon="6.27057">
        <ele>1839.8000488281</ele>
        <time>2022-02-23T11:28:01.000Z</time>
      </trkpt>
      <trkpt lat="45.69655" lon="6.27057">
        <ele>1839.8000488281</ele>
        <time>2022-02-23T11:28:02.000Z</time>
      </trkpt>
      <trkpt lat="45.69653" lon="6.27056">
        <ele>1840</ele>
        <time>2022-02-23T11:28:05.000Z</time>
      </trkpt>
      <trkpt lat="45.69651" lon="6.27055">
        <ele>1840.4000244141</ele>
        <time>2022-02-23T11:28:07.000Z</time>
      </trkpt>
      <trkpt lat="45.69649" lon="6.27052">
        <ele>1840.8000488281</ele>
        <time>2022-02-23T11:28:11.000Z</time>
      </trkpt>
      <trkpt lat="45.69648" lon="6.27052">
        <ele>1840.8000488281</ele>
        <time>2022-02-23T11:28:12.000Z</time>
      </trkpt>
      <trkpt lat="45.69648" lon="6.27052">
        <ele>1840.8000488281</ele>
        <time>2022-02-23T11:28:13.000Z</time>
      </trkpt>
      <trkpt lat="45.69645" lon="6.27051">
        <ele>1841.1999511719</ele>
        <time>2022-02-23T11:28:16.000Z</time>
      </trkpt>
      <trkpt lat="45.69643" lon="6.2705">
        <ele>1841.4000244141</ele>
        <time>2022-02-23T11:28:18.000Z</time>
      </trkpt>
      <trkpt lat="45.69641" lon="6.27047">
        <ele>1841.5999755859</ele>
        <time>2022-02-23T11:28:22.000Z</time>
      </trkpt>
      <trkpt lat="45.6964" lon="6.27046">
        <ele>1842</ele>
        <time>2022-02-23T11:28:25.000Z</time>
      </trkpt>
      <trkpt lat="45.6964" lon="6.27045">
        <ele>1842.4000244141</ele>
        <time>2022-02-23T11:28:26.000Z</time>
      </trkpt>
      <trkpt lat="45.69639" lon="6.27045">
        <ele>1842.5999755859</ele>
        <time>2022-02-23T11:28:27.000Z</time>
      </trkpt>
      <trkpt lat="45.69637" lon="6.27042">
        <ele>1843.4000244141</ele>
        <time>2022-02-23T11:28:32.000Z</time>
      </trkpt>
      <trkpt lat="45.69636" lon="6.27041">
        <ele>1843.4000244141</ele>
        <time>2022-02-23T11:28:33.000Z</time>
      </trkpt>
      <trkpt lat="45.69634" lon="6.2704">
        <ele>1843.5999755859</ele>
        <time>2022-02-23T11:28:35.000Z</time>
      </trkpt>
      <trkpt lat="45.69634" lon="6.2704">
        <ele>1843.8000488281</ele>
        <time>2022-02-23T11:28:36.000Z</time>
      </trkpt>
      <trkpt lat="45.69631" lon="6.27038">
        <ele>1844.4000244141</ele>
        <time>2022-02-23T11:28:41.000Z</time>
      </trkpt>
      <trkpt lat="45.69629" lon="6.27037">
        <ele>1845</ele>
        <time>2022-02-23T11:28:44.000Z</time>
      </trkpt>
      <trkpt lat="45.69625" lon="6.27036">
        <ele>1845.4000244141</ele>
        <time>2022-02-23T11:28:50.000Z</time>
      </trkpt>
      <trkpt lat="45.69625" lon="6.27035">
        <ele>1845.8000488281</ele>
        <time>2022-02-23T11:28:51.000Z</time>
      </trkpt>
      <trkpt lat="45.69623" lon="6.27033">
        <ele>1846.4000244141</ele>
        <time>2022-02-23T11:28:54.000Z</time>
      </trkpt>
      <trkpt lat="45.6962" lon="6.27031">
        <ele>1846.8000488281</ele>
        <time>2022-02-23T11:29:00.000Z</time>
      </trkpt>
      <trkpt lat="45.69619" lon="6.2703">
        <ele>1846.8000488281</ele>
        <time>2022-02-23T11:29:01.000Z</time>
      </trkpt>
      <trkpt lat="45.69617" lon="6.27028">
        <ele>1847.4000244141</ele>
        <time>2022-02-23T11:29:05.000Z</time>
      </trkpt>
      <trkpt lat="45.69616" lon="6.27027">
        <ele>1848</ele>
        <time>2022-02-23T11:29:07.000Z</time>
      </trkpt>
      <trkpt lat="45.69615" lon="6.27025">
        <ele>1848.1999511719</ele>
        <time>2022-02-23T11:29:10.000Z</time>
      </trkpt>
      <trkpt lat="45.69613" lon="6.27021">
        <ele>1848.5999755859</ele>
        <time>2022-02-23T11:29:15.000Z</time>
      </trkpt>
      <trkpt lat="45.69612" lon="6.2702">
        <ele>1848.8000488281</ele>
        <time>2022-02-23T11:29:16.000Z</time>
      </trkpt>
      <trkpt lat="45.69612" lon="6.2702">
        <ele>1849.1999511719</ele>
        <time>2022-02-23T11:29:17.000Z</time>
      </trkpt>
      <trkpt lat="45.69611" lon="6.27018">
        <ele>1849.5999755859</ele>
        <time>2022-02-23T11:29:20.000Z</time>
      </trkpt>
      <trkpt lat="45.69609" lon="6.27015">
        <ele>1849.5999755859</ele>
        <time>2022-02-23T11:29:23.000Z</time>
      </trkpt>
      <trkpt lat="45.69609" lon="6.27015">
        <ele>1849.5999755859</ele>
        <time>2022-02-23T11:29:24.000Z</time>
      </trkpt>
      <trkpt lat="45.69607" lon="6.27012">
        <ele>1850.1999511719</ele>
        <time>2022-02-23T11:29:28.000Z</time>
      </trkpt>
      <trkpt lat="45.69605" lon="6.2701">
        <ele>1850.8000488281</ele>
        <time>2022-02-23T11:29:30.000Z</time>
      </trkpt>
      <trkpt lat="45.69605" lon="6.2701">
        <ele>1851</ele>
        <time>2022-02-23T11:29:31.000Z</time>
      </trkpt>
      <trkpt lat="45.69605" lon="6.27009">
        <ele>1851.1999511719</ele>
        <time>2022-02-23T11:29:32.000Z</time>
      </trkpt>
      <trkpt lat="45.69603" lon="6.27009">
        <ele>1851.4000244141</ele>
        <time>2022-02-23T11:29:33.000Z</time>
      </trkpt>
      <trkpt lat="45.69602" lon="6.27007">
        <ele>1851.8000488281</ele>
        <time>2022-02-23T11:29:36.000Z</time>
      </trkpt>
      <trkpt lat="45.69602" lon="6.27006">
        <ele>1852.4000244141</ele>
        <time>2022-02-23T11:29:38.000Z</time>
      </trkpt>
      <trkpt lat="45.696" lon="6.27006">
        <ele>1852.8000488281</ele>
        <time>2022-02-23T11:29:40.000Z</time>
      </trkpt>
      <trkpt lat="45.69598" lon="6.27007">
        <ele>1852.8000488281</ele>
        <time>2022-02-23T11:29:41.000Z</time>
      </trkpt>
      <trkpt lat="45.69592" lon="6.27009">
        <ele>1853.4000244141</ele>
        <time>2022-02-23T11:29:44.000Z</time>
      </trkpt>
      <trkpt lat="45.69589" lon="6.2701">
        <ele>1853.5999755859</ele>
        <time>2022-02-23T11:29:45.000Z</time>
      </trkpt>
      <trkpt lat="45.69579" lon="6.27013">
        <ele>1854.4000244141</ele>
        <time>2022-02-23T11:29:50.000Z</time>
      </trkpt>
      <trkpt lat="45.69576" lon="6.27011">
        <ele>1855</ele>
        <time>2022-02-23T11:29:54.000Z</time>
      </trkpt>
      <trkpt lat="45.69577" lon="6.27006">
        <ele>1855.4000244141</ele>
        <time>2022-02-23T11:29:58.000Z</time>
      </trkpt>
      <trkpt lat="45.69575" lon="6.27007">
        <ele>1855.5999755859</ele>
        <time>2022-02-23T11:29:59.000Z</time>
      </trkpt>
      <trkpt lat="45.69573" lon="6.27007">
        <ele>1856</ele>
        <time>2022-02-23T11:30:01.000Z</time>
      </trkpt>
      <trkpt lat="45.69575" lon="6.27004">
        <ele>1856.8000488281</ele>
        <time>2022-02-23T11:30:03.000Z</time>
      </trkpt>
      <trkpt lat="45.69578" lon="6.27">
        <ele>1857.1999511719</ele>
        <time>2022-02-23T11:30:05.000Z</time>
      </trkpt>
      <trkpt lat="45.69572" lon="6.26996">
        <ele>1857.8000488281</ele>
        <time>2022-02-23T11:30:10.000Z</time>
      </trkpt>
      <trkpt lat="45.69573" lon="6.26992">
        <ele>1857.8000488281</ele>
        <time>2022-02-23T11:30:12.000Z</time>
      </trkpt>
      <trkpt lat="45.69574" lon="6.26988">
        <ele>1857.8000488281</ele>
        <time>2022-02-23T11:30:14.000Z</time>
      </trkpt>
      <trkpt lat="45.69574" lon="6.26986">
        <ele>1857.8000488281</ele>
        <time>2022-02-23T11:30:15.000Z</time>
      </trkpt>
      <trkpt lat="45.69576" lon="6.2698">
        <ele>1857.5999755859</ele>
        <time>2022-02-23T11:30:19.000Z</time>
      </trkpt>
      <trkpt lat="45.69576" lon="6.26978">
        <ele>1857.5999755859</ele>
        <time>2022-02-23T11:30:21.000Z</time>
      </trkpt>
      <trkpt lat="45.69576" lon="6.26976">
        <ele>1857.5999755859</ele>
        <time>2022-02-23T11:30:23.000Z</time>
      </trkpt>
      <trkpt lat="45.69576" lon="6.26974">
        <ele>1857.8000488281</ele>
        <time>2022-02-23T11:30:25.000Z</time>
      </trkpt>
      <trkpt lat="45.69576" lon="6.26973">
        <ele>1858</ele>
        <time>2022-02-23T11:30:26.000Z</time>
      </trkpt>
      <trkpt lat="45.69576" lon="6.26972">
        <ele>1858.5999755859</ele>
        <time>2022-02-23T11:30:28.000Z</time>
      </trkpt>
      <trkpt lat="45.69575" lon="6.26971">
        <ele>1859</ele>
        <time>2022-02-23T11:30:30.000Z</time>
      </trkpt>
      <trkpt lat="45.69575" lon="6.26969">
        <ele>1859.8000488281</ele>
        <time>2022-02-23T11:30:33.000Z</time>
      </trkpt>
      <trkpt lat="45.69574" lon="6.26968">
        <ele>1860</ele>
        <time>2022-02-23T11:30:36.000Z</time>
      </trkpt>
      <trkpt lat="45.69575" lon="6.26967">
        <ele>1860.1999511719</ele>
        <time>2022-02-23T11:30:37.000Z</time>
      </trkpt>
      <trkpt lat="45.69576" lon="6.26965">
        <ele>1860.8000488281</ele>
        <time>2022-02-23T11:30:41.000Z</time>
      </trkpt>
      <trkpt lat="45.69574" lon="6.26965">
        <ele>1861.1999511719</ele>
        <time>2022-02-23T11:30:43.000Z</time>
      </trkpt>
      <trkpt lat="45.69571" lon="6.26964">
        <ele>1861.8000488281</ele>
        <time>2022-02-23T11:30:46.000Z</time>
      </trkpt>
      <trkpt lat="45.69569" lon="6.26964">
        <ele>1862.1999511719</ele>
        <time>2022-02-23T11:30:48.000Z</time>
      </trkpt>
      <trkpt lat="45.69567" lon="6.26964">
        <ele>1862.4000244141</ele>
        <time>2022-02-23T11:30:49.000Z</time>
      </trkpt>
      <trkpt lat="45.69568" lon="6.26961">
        <ele>1863.1999511719</ele>
        <time>2022-02-23T11:30:52.000Z</time>
      </trkpt>
      <trkpt lat="45.69569" lon="6.2696">
        <ele>1863.5999755859</ele>
        <time>2022-02-23T11:30:53.000Z</time>
      </trkpt>
      <trkpt lat="45.69568" lon="6.26958">
        <ele>1864.1999511719</ele>
        <time>2022-02-23T11:30:58.000Z</time>
      </trkpt>
      <trkpt lat="45.69563" lon="6.26958">
        <ele>1864.5999755859</ele>
        <time>2022-02-23T11:31:01.000Z</time>
      </trkpt>
      <trkpt lat="45.69563" lon="6.26957">
        <ele>1864.8000488281</ele>
        <time>2022-02-23T11:31:02.000Z</time>
      </trkpt>
      <trkpt lat="45.69561" lon="6.26957">
        <ele>1865.1999511719</ele>
        <time>2022-02-23T11:31:05.000Z</time>
      </trkpt>
      <trkpt lat="45.69561" lon="6.26955">
        <ele>1865.5999755859</ele>
        <time>2022-02-23T11:31:08.000Z</time>
      </trkpt>
      <trkpt lat="45.69561" lon="6.26954">
        <ele>1865.8000488281</ele>
        <time>2022-02-23T11:31:09.000Z</time>
      </trkpt>
      <trkpt lat="45.69561" lon="6.26953">
        <ele>1865.8000488281</ele>
        <time>2022-02-23T11:31:10.000Z</time>
      </trkpt>
      <trkpt lat="45.69559" lon="6.26951">
        <ele>1866.1999511719</ele>
        <time>2022-02-23T11:31:14.000Z</time>
      </trkpt>
      <trkpt lat="45.69558" lon="6.26951">
        <ele>1866.1999511719</ele>
        <time>2022-02-23T11:31:15.000Z</time>
      </trkpt>
      <trkpt lat="45.6955" lon="6.26951">
        <ele>1866.8000488281</ele>
        <time>2022-02-23T11:31:19.000Z</time>
      </trkpt>
      <trkpt lat="45.6955" lon="6.2695">
        <ele>1867</ele>
        <time>2022-02-23T11:31:20.000Z</time>
      </trkpt>
      <trkpt lat="45.6955" lon="6.26947">
        <ele>1867.4000244141</ele>
        <time>2022-02-23T11:31:24.000Z</time>
      </trkpt>
      <trkpt lat="45.69549" lon="6.26943">
        <ele>1868</ele>
        <time>2022-02-23T11:31:29.000Z</time>
      </trkpt>
      <trkpt lat="45.69548" lon="6.2694">
        <ele>1869</ele>
        <time>2022-02-23T11:31:34.000Z</time>
      </trkpt>
      <trkpt lat="45.69547" lon="6.26936">
        <ele>1870</ele>
        <time>2022-02-23T11:31:39.000Z</time>
      </trkpt>
      <trkpt lat="45.69546" lon="6.26933">
        <ele>1870.5999755859</ele>
        <time>2022-02-23T11:31:43.000Z</time>
      </trkpt>
      <trkpt lat="45.69544" lon="6.26932">
        <ele>1870.8000488281</ele>
        <time>2022-02-23T11:31:45.000Z</time>
      </trkpt>
      <trkpt lat="45.69543" lon="6.26932">
        <ele>1870.8000488281</ele>
        <time>2022-02-23T11:31:47.000Z</time>
      </trkpt>
      <trkpt lat="45.69542" lon="6.26931">
        <ele>1871</ele>
        <time>2022-02-23T11:31:48.000Z</time>
      </trkpt>
      <trkpt lat="45.69542" lon="6.26931">
        <ele>1871.1999511719</ele>
        <time>2022-02-23T11:31:49.000Z</time>
      </trkpt>
      <trkpt lat="45.69541" lon="6.2693">
        <ele>1871.5999755859</ele>
        <time>2022-02-23T11:31:52.000Z</time>
      </trkpt>
      <trkpt lat="45.69537" lon="6.26931">
        <ele>1872.4000244141</ele>
        <time>2022-02-23T11:31:56.000Z</time>
      </trkpt>
      <trkpt lat="45.69536" lon="6.26931">
        <ele>1872.5999755859</ele>
        <time>2022-02-23T11:31:57.000Z</time>
      </trkpt>
      <trkpt lat="45.69534" lon="6.26931">
        <ele>1873.4000244141</ele>
        <time>2022-02-23T11:32:01.000Z</time>
      </trkpt>
      <trkpt lat="45.6953" lon="6.26932">
        <ele>1874.1999511719</ele>
        <time>2022-02-23T11:32:05.000Z</time>
      </trkpt>
      <trkpt lat="45.69528" lon="6.26933">
        <ele>1874.4000244141</ele>
        <time>2022-02-23T11:32:07.000Z</time>
      </trkpt>
      <trkpt lat="45.69527" lon="6.26934">
        <ele>1874.5999755859</ele>
        <time>2022-02-23T11:32:08.000Z</time>
      </trkpt>
      <trkpt lat="45.69524" lon="6.26936">
        <ele>1875</ele>
        <time>2022-02-23T11:32:09.000Z</time>
      </trkpt>
      <trkpt lat="45.6952" lon="6.26939">
        <ele>1875.1999511719</ele>
        <time>2022-02-23T11:32:10.000Z</time>
      </trkpt>
      <trkpt lat="45.69514" lon="6.26943">
        <ele>1875.4000244141</ele>
        <time>2022-02-23T11:32:12.000Z</time>
      </trkpt>
      <trkpt lat="45.69513" lon="6.26944">
        <ele>1875.4000244141</ele>
        <time>2022-02-23T11:32:13.000Z</time>
      </trkpt>
      <trkpt lat="45.6951" lon="6.26946">
        <ele>1876.1999511719</ele>
        <time>2022-02-23T11:32:16.000Z</time>
      </trkpt>
      <trkpt lat="45.6951" lon="6.26948">
        <ele>1876.5999755859</ele>
        <time>2022-02-23T11:32:19.000Z</time>
      </trkpt>
      <trkpt lat="45.69509" lon="6.26948">
        <ele>1876.5999755859</ele>
        <time>2022-02-23T11:32:20.000Z</time>
      </trkpt>
      <trkpt lat="45.69509" lon="6.2695">
        <ele>1877.5999755859</ele>
        <time>2022-02-23T11:32:24.000Z</time>
      </trkpt>
      <trkpt lat="45.69508" lon="6.26952">
        <ele>1878.4000244141</ele>
        <time>2022-02-23T11:32:27.000Z</time>
      </trkpt>
      <trkpt lat="45.69508" lon="6.26953">
        <ele>1878.5999755859</ele>
        <time>2022-02-23T11:32:29.000Z</time>
      </trkpt>
      <trkpt lat="45.69508" lon="6.26955">
        <ele>1878.8000488281</ele>
        <time>2022-02-23T11:32:31.000Z</time>
      </trkpt>
      <trkpt lat="45.69507" lon="6.26957">
        <ele>1879.1999511719</ele>
        <time>2022-02-23T11:32:35.000Z</time>
      </trkpt>
      <trkpt lat="45.69507" lon="6.26959">
        <ele>1879.4000244141</ele>
        <time>2022-02-23T11:32:38.000Z</time>
      </trkpt>
      <trkpt lat="45.69507" lon="6.2696">
        <ele>1879.4000244141</ele>
        <time>2022-02-23T11:32:39.000Z</time>
      </trkpt>
      <trkpt lat="45.69507" lon="6.26961">
        <ele>1880</ele>
        <time>2022-02-23T11:32:40.000Z</time>
      </trkpt>
      <trkpt lat="45.69507" lon="6.26962">
        <ele>1880.4000244141</ele>
        <time>2022-02-23T11:32:42.000Z</time>
      </trkpt>
      <trkpt lat="45.69506" lon="6.26963">
        <ele>1880.5999755859</ele>
        <time>2022-02-23T11:32:43.000Z</time>
      </trkpt>
      <trkpt lat="45.69505" lon="6.26962">
        <ele>1880.5999755859</ele>
        <time>2022-02-23T11:32:48.000Z</time>
      </trkpt>
      <trkpt lat="45.69504" lon="6.2696">
        <ele>1880.5999755859</ele>
        <time>2022-02-23T11:32:53.000Z</time>
      </trkpt>
      <trkpt lat="45.69501" lon="6.26959">
        <ele>1881</ele>
        <time>2022-02-23T11:32:56.000Z</time>
      </trkpt>
      <trkpt lat="45.695" lon="6.26958">
        <ele>1881.5999755859</ele>
        <time>2022-02-23T11:32:58.000Z</time>
      </trkpt>
      <trkpt lat="45.69498" lon="6.26957">
        <ele>1882</ele>
        <time>2022-02-23T11:33:00.000Z</time>
      </trkpt>
      <trkpt lat="45.69498" lon="6.26957">
        <ele>1882.1999511719</ele>
        <time>2022-02-23T11:33:01.000Z</time>
      </trkpt>
      <trkpt lat="45.69496" lon="6.26957">
        <ele>1882.4000244141</ele>
        <time>2022-02-23T11:33:02.000Z</time>
      </trkpt>
      <trkpt lat="45.69494" lon="6.26955">
        <ele>1883.1999511719</ele>
        <time>2022-02-23T11:33:05.000Z</time>
      </trkpt>
      <trkpt lat="45.69493" lon="6.26954">
        <ele>1883.4000244141</ele>
        <time>2022-02-23T11:33:07.000Z</time>
      </trkpt>
      <trkpt lat="45.69494" lon="6.26952">
        <ele>1883.8000488281</ele>
        <time>2022-02-23T11:33:10.000Z</time>
      </trkpt>
      <trkpt lat="45.69494" lon="6.26951">
        <ele>1884</ele>
        <time>2022-02-23T11:33:12.000Z</time>
      </trkpt>
      <trkpt lat="45.69495" lon="6.26949">
        <ele>1884.1999511719</ele>
        <time>2022-02-23T11:33:14.000Z</time>
      </trkpt>
      <trkpt lat="45.69495" lon="6.26946">
        <ele>1885</ele>
        <time>2022-02-23T11:33:19.000Z</time>
      </trkpt>
      <trkpt lat="45.69495" lon="6.26946">
        <ele>1885.1999511719</ele>
        <time>2022-02-23T11:33:20.000Z</time>
      </trkpt>
      <trkpt lat="45.69493" lon="6.26944">
        <ele>1885.8000488281</ele>
        <time>2022-02-23T11:33:22.000Z</time>
      </trkpt>
      <trkpt lat="45.69493" lon="6.26943">
        <ele>1886</ele>
        <time>2022-02-23T11:33:23.000Z</time>
      </trkpt>
      <trkpt lat="45.69493" lon="6.26941">
        <ele>1886.1999511719</ele>
        <time>2022-02-23T11:33:25.000Z</time>
      </trkpt>
      <trkpt lat="45.69493" lon="6.26937">
        <ele>1886.8000488281</ele>
        <time>2022-02-23T11:33:28.000Z</time>
      </trkpt>
      <trkpt lat="45.69495" lon="6.26934">
        <ele>1887</ele>
        <time>2022-02-23T11:33:31.000Z</time>
      </trkpt>
      <trkpt lat="45.69496" lon="6.2693">
        <ele>1887.1999511719</ele>
        <time>2022-02-23T11:33:34.000Z</time>
      </trkpt>
      <trkpt lat="45.69497" lon="6.26927">
        <ele>1887.4000244141</ele>
        <time>2022-02-23T11:33:37.000Z</time>
      </trkpt>
      <trkpt lat="45.69498" lon="6.26925">
        <ele>1887.8000488281</ele>
        <time>2022-02-23T11:33:39.000Z</time>
      </trkpt>
      <trkpt lat="45.69499" lon="6.26919">
        <ele>1888.4000244141</ele>
        <time>2022-02-23T11:33:44.000Z</time>
      </trkpt>
      <trkpt lat="45.695" lon="6.26916">
        <ele>1888.8000488281</ele>
        <time>2022-02-23T11:33:46.000Z</time>
      </trkpt>
      <trkpt lat="45.69501" lon="6.26912">
        <ele>1889.5999755859</ele>
        <time>2022-02-23T11:33:51.000Z</time>
      </trkpt>
      <trkpt lat="45.69501" lon="6.26912">
        <ele>1889.8000488281</ele>
        <time>2022-02-23T11:33:52.000Z</time>
      </trkpt>
      <trkpt lat="45.69502" lon="6.26913">
        <ele>1890.5999755859</ele>
        <time>2022-02-23T11:33:58.000Z</time>
      </trkpt>
      <trkpt lat="45.69502" lon="6.26914">
        <ele>1890.8000488281</ele>
        <time>2022-02-23T11:33:59.000Z</time>
      </trkpt>
      <trkpt lat="45.695" lon="6.26915">
        <ele>1891.5999755859</ele>
        <time>2022-02-23T11:34:02.000Z</time>
      </trkpt>
      <trkpt lat="45.69498" lon="6.26916">
        <ele>1892</ele>
        <time>2022-02-23T11:34:03.000Z</time>
      </trkpt>
      <trkpt lat="45.69496" lon="6.26917">
        <ele>1892</ele>
        <time>2022-02-23T11:34:05.000Z</time>
      </trkpt>
      <trkpt lat="45.69495" lon="6.26918">
        <ele>1892</ele>
        <time>2022-02-23T11:34:06.000Z</time>
      </trkpt>
      <trkpt lat="45.69495" lon="6.26918">
        <ele>1892</ele>
        <time>2022-02-23T11:34:07.000Z</time>
      </trkpt>
      <trkpt lat="45.69495" lon="6.26919">
        <ele>1892.1999511719</ele>
        <time>2022-02-23T11:34:09.000Z</time>
      </trkpt>
      <trkpt lat="45.69492" lon="6.26921">
        <ele>1892.4000244141</ele>
        <time>2022-02-23T11:34:11.000Z</time>
      </trkpt>
      <trkpt lat="45.69491" lon="6.26922">
        <ele>1892.5999755859</ele>
        <time>2022-02-23T11:34:13.000Z</time>
      </trkpt>
      <trkpt lat="45.69491" lon="6.26923">
        <ele>1893</ele>
        <time>2022-02-23T11:34:16.000Z</time>
      </trkpt>
      <trkpt lat="45.6949" lon="6.26923">
        <ele>1893</ele>
        <time>2022-02-23T11:34:17.000Z</time>
      </trkpt>
      <trkpt lat="45.69489" lon="6.26924">
        <ele>1893</ele>
        <time>2022-02-23T11:34:18.000Z</time>
      </trkpt>
      <trkpt lat="45.69488" lon="6.26924">
        <ele>1893.8000488281</ele>
        <time>2022-02-23T11:34:20.000Z</time>
      </trkpt>
      <trkpt lat="45.69488" lon="6.26924">
        <ele>1894</ele>
        <time>2022-02-23T11:34:21.000Z</time>
      </trkpt>
      <trkpt lat="45.69488" lon="6.26924">
        <ele>1894.4000244141</ele>
        <time>2022-02-23T11:34:25.000Z</time>
      </trkpt>
      <trkpt lat="45.69485" lon="6.26925">
        <ele>1894.8000488281</ele>
        <time>2022-02-23T11:34:29.000Z</time>
      </trkpt>
      <trkpt lat="45.69484" lon="6.26926">
        <ele>1895.1999511719</ele>
        <time>2022-02-23T11:34:31.000Z</time>
      </trkpt>
      <trkpt lat="45.69484" lon="6.26926">
        <ele>1895.4000244141</ele>
        <time>2022-02-23T11:34:32.000Z</time>
      </trkpt>
      <trkpt lat="45.69482" lon="6.26928">
        <ele>1896.1999511719</ele>
        <time>2022-02-23T11:34:36.000Z</time>
      </trkpt>
      <trkpt lat="45.6948" lon="6.26929">
        <ele>1896.1999511719</ele>
        <time>2022-02-23T11:34:39.000Z</time>
      </trkpt>
      <trkpt lat="45.6948" lon="6.26929">
        <ele>1896.4000244141</ele>
        <time>2022-02-23T11:34:40.000Z</time>
      </trkpt>
      <trkpt lat="45.69477" lon="6.26929">
        <ele>1897.1999511719</ele>
        <time>2022-02-23T11:34:44.000Z</time>
      </trkpt>
      <trkpt lat="45.69475" lon="6.26926">
        <ele>1897.4000244141</ele>
        <time>2022-02-23T11:34:48.000Z</time>
      </trkpt>
      <trkpt lat="45.69474" lon="6.26926">
        <ele>1897.5999755859</ele>
        <time>2022-02-23T11:34:49.000Z</time>
      </trkpt>
      <trkpt lat="45.69473" lon="6.26925">
        <ele>1898.4000244141</ele>
        <time>2022-02-23T11:34:51.000Z</time>
      </trkpt>
      <trkpt lat="45.69471" lon="6.26923">
        <ele>1898.8000488281</ele>
        <time>2022-02-23T11:34:54.000Z</time>
      </trkpt>
      <trkpt lat="45.6947" lon="6.26922">
        <ele>1899</ele>
        <time>2022-02-23T11:34:55.000Z</time>
      </trkpt>
      <trkpt lat="45.6947" lon="6.26921">
        <ele>1899</ele>
        <time>2022-02-23T11:34:56.000Z</time>
      </trkpt>
      <trkpt lat="45.69468" lon="6.26921">
        <ele>1899.4000244141</ele>
        <time>2022-02-23T11:34:59.000Z</time>
      </trkpt>
      <trkpt lat="45.69465" lon="6.26923">
        <ele>1900.4000244141</ele>
        <time>2022-02-23T11:35:03.000Z</time>
      </trkpt>
      <trkpt lat="45.69463" lon="6.26923">
        <ele>1901.1999511719</ele>
        <time>2022-02-23T11:35:07.000Z</time>
      </trkpt>
      <trkpt lat="45.69462" lon="6.26923">
        <ele>1901.5999755859</ele>
        <time>2022-02-23T11:35:08.000Z</time>
      </trkpt>
      <trkpt lat="45.69462" lon="6.26923">
        <ele>1901.8000488281</ele>
        <time>2022-02-23T11:35:09.000Z</time>
      </trkpt>
      <trkpt lat="45.69461" lon="6.26923">
        <ele>1902</ele>
        <time>2022-02-23T11:35:10.000Z</time>
      </trkpt>
      <trkpt lat="45.6946" lon="6.26923">
        <ele>1902.1999511719</ele>
        <time>2022-02-23T11:35:11.000Z</time>
      </trkpt>
      <trkpt lat="45.69459" lon="6.26922">
        <ele>1902.4000244141</ele>
        <time>2022-02-23T11:35:13.000Z</time>
      </trkpt>
      <trkpt lat="45.69458" lon="6.26922">
        <ele>1902.4000244141</ele>
        <time>2022-02-23T11:35:14.000Z</time>
      </trkpt>
      <trkpt lat="45.69458" lon="6.26921">
        <ele>1902.8000488281</ele>
        <time>2022-02-23T11:35:16.000Z</time>
      </trkpt>
      <trkpt lat="45.69456" lon="6.26919">
        <ele>1903.1999511719</ele>
        <time>2022-02-23T11:35:20.000Z</time>
      </trkpt>
      <trkpt lat="45.69455" lon="6.26917">
        <ele>1904</ele>
        <time>2022-02-23T11:35:23.000Z</time>
      </trkpt>
      <trkpt lat="45.69455" lon="6.26916">
        <ele>1904.4000244141</ele>
        <time>2022-02-23T11:35:25.000Z</time>
      </trkpt>
      <trkpt lat="45.69455" lon="6.26912">
        <ele>1905.1999511719</ele>
        <time>2022-02-23T11:35:29.000Z</time>
      </trkpt>
      <trkpt lat="45.69453" lon="6.26909">
        <ele>1906</ele>
        <time>2022-02-23T11:35:35.000Z</time>
      </trkpt>
      <trkpt lat="45.69453" lon="6.26907">
        <ele>1906.1999511719</ele>
        <time>2022-02-23T11:35:37.000Z</time>
      </trkpt>
      <trkpt lat="45.69453" lon="6.26906">
        <ele>1906.8000488281</ele>
        <time>2022-02-23T11:35:41.000Z</time>
      </trkpt>
      <trkpt lat="45.69452" lon="6.26905">
        <ele>1907.1999511719</ele>
        <time>2022-02-23T11:35:44.000Z</time>
      </trkpt>
      <trkpt lat="45.6945" lon="6.26904">
        <ele>1907.4000244141</ele>
        <time>2022-02-23T11:35:46.000Z</time>
      </trkpt>
      <trkpt lat="45.69447" lon="6.26901">
        <ele>1908.1999511719</ele>
        <time>2022-02-23T11:35:52.000Z</time>
      </trkpt>
      <trkpt lat="45.69444" lon="6.269">
        <ele>1908.1999511719</ele>
        <time>2022-02-23T11:35:57.000Z</time>
      </trkpt>
      <trkpt lat="45.69443" lon="6.26899">
        <ele>1908.4000244141</ele>
        <time>2022-02-23T11:35:58.000Z</time>
      </trkpt>
      <trkpt lat="45.69441" lon="6.269">
        <ele>1908.8000488281</ele>
        <time>2022-02-23T11:36:00.000Z</time>
      </trkpt>
      <trkpt lat="45.69439" lon="6.269">
        <ele>1909.4000244141</ele>
        <time>2022-02-23T11:36:02.000Z</time>
      </trkpt>
      <trkpt lat="45.69438" lon="6.269">
        <ele>1909.8000488281</ele>
        <time>2022-02-23T11:36:04.000Z</time>
      </trkpt>
      <trkpt lat="45.69437" lon="6.269">
        <ele>1910</ele>
        <time>2022-02-23T11:36:06.000Z</time>
      </trkpt>
      <trkpt lat="45.69434" lon="6.269">
        <ele>1910.5999755859</ele>
        <time>2022-02-23T11:36:10.000Z</time>
      </trkpt>
      <trkpt lat="45.69433" lon="6.269">
        <ele>1911</ele>
        <time>2022-02-23T11:36:11.000Z</time>
      </trkpt>
      <trkpt lat="45.69432" lon="6.269">
        <ele>1911.1999511719</ele>
        <time>2022-02-23T11:36:13.000Z</time>
      </trkpt>
      <trkpt lat="45.69431" lon="6.269">
        <ele>1911.5999755859</ele>
        <time>2022-02-23T11:36:14.000Z</time>
      </trkpt>
      <trkpt lat="45.6943" lon="6.269">
        <ele>1911.8000488281</ele>
        <time>2022-02-23T11:36:15.000Z</time>
      </trkpt>
      <trkpt lat="45.69429" lon="6.269">
        <ele>1912</ele>
        <time>2022-02-23T11:36:16.000Z</time>
      </trkpt>
      <trkpt lat="45.69429" lon="6.26901">
        <ele>1912.4000244141</ele>
        <time>2022-02-23T11:36:18.000Z</time>
      </trkpt>
      <trkpt lat="45.69427" lon="6.26902">
        <ele>1912.5999755859</ele>
        <time>2022-02-23T11:36:20.000Z</time>
      </trkpt>
      <trkpt lat="45.69425" lon="6.26902">
        <ele>1913</ele>
        <time>2022-02-23T11:36:23.000Z</time>
      </trkpt>
      <trkpt lat="45.69423" lon="6.26902">
        <ele>1913.5999755859</ele>
        <time>2022-02-23T11:36:27.000Z</time>
      </trkpt>
      <trkpt lat="45.69423" lon="6.26901">
        <ele>1913.8000488281</ele>
        <time>2022-02-23T11:36:28.000Z</time>
      </trkpt>
      <trkpt lat="45.69422" lon="6.26901">
        <ele>1914.4000244141</ele>
        <time>2022-02-23T11:36:30.000Z</time>
      </trkpt>
      <trkpt lat="45.69422" lon="6.26901">
        <ele>1914.5999755859</ele>
        <time>2022-02-23T11:36:31.000Z</time>
      </trkpt>
      <trkpt lat="45.69421" lon="6.269">
        <ele>1915</ele>
        <time>2022-02-23T11:36:33.000Z</time>
      </trkpt>
      <trkpt lat="45.6942" lon="6.26899">
        <ele>1915</ele>
        <time>2022-02-23T11:36:36.000Z</time>
      </trkpt>
      <trkpt lat="45.69418" lon="6.26898">
        <ele>1915.5999755859</ele>
        <time>2022-02-23T11:36:40.000Z</time>
      </trkpt>
      <trkpt lat="45.69418" lon="6.26898">
        <ele>1916</ele>
        <time>2022-02-23T11:36:41.000Z</time>
      </trkpt>
      <trkpt lat="45.69415" lon="6.26898">
        <ele>1916.8000488281</ele>
        <time>2022-02-23T11:36:44.000Z</time>
      </trkpt>
      <trkpt lat="45.69415" lon="6.26897">
        <ele>1917</ele>
        <time>2022-02-23T11:36:46.000Z</time>
      </trkpt>
      <trkpt lat="45.69414" lon="6.26897">
        <ele>1917.4000244141</ele>
        <time>2022-02-23T11:36:50.000Z</time>
      </trkpt>
      <trkpt lat="45.69413" lon="6.26895">
        <ele>1918.1999511719</ele>
        <time>2022-02-23T11:36:53.000Z</time>
      </trkpt>
      <trkpt lat="45.69412" lon="6.26895">
        <ele>1918.4000244141</ele>
        <time>2022-02-23T11:36:54.000Z</time>
      </trkpt>
      <trkpt lat="45.69411" lon="6.26894">
        <ele>1919.1999511719</ele>
        <time>2022-02-23T11:36:59.000Z</time>
      </trkpt>
      <trkpt lat="45.6941" lon="6.26893">
        <ele>1919.5999755859</ele>
        <time>2022-02-23T11:37:01.000Z</time>
      </trkpt>
      <trkpt lat="45.69409" lon="6.26893">
        <ele>1919.8000488281</ele>
        <time>2022-02-23T11:37:02.000Z</time>
      </trkpt>
      <trkpt lat="45.69409" lon="6.26893">
        <ele>1920</ele>
        <time>2022-02-23T11:37:03.000Z</time>
      </trkpt>
      <trkpt lat="45.69408" lon="6.26892">
        <ele>1920.4000244141</ele>
        <time>2022-02-23T11:37:05.000Z</time>
      </trkpt>
      <trkpt lat="45.69408" lon="6.26892">
        <ele>1920.8000488281</ele>
        <time>2022-02-23T11:37:07.000Z</time>
      </trkpt>
      <trkpt lat="45.69406" lon="6.26894">
        <ele>1921.5999755859</ele>
        <time>2022-02-23T11:37:10.000Z</time>
      </trkpt>
      <trkpt lat="45.69405" lon="6.26895">
        <ele>1922</ele>
        <time>2022-02-23T11:37:12.000Z</time>
      </trkpt>
      <trkpt lat="45.69403" lon="6.26899">
        <ele>1922.8000488281</ele>
        <time>2022-02-23T11:37:17.000Z</time>
      </trkpt>
      <trkpt lat="45.69403" lon="6.26899">
        <ele>1923</ele>
        <time>2022-02-23T11:37:18.000Z</time>
      </trkpt>
      <trkpt lat="45.69403" lon="6.26901">
        <ele>1923</ele>
        <time>2022-02-23T11:37:20.000Z</time>
      </trkpt>
      <trkpt lat="45.69403" lon="6.26904">
        <ele>1924</ele>
        <time>2022-02-23T11:37:24.000Z</time>
      </trkpt>
      <trkpt lat="45.69403" lon="6.26906">
        <ele>1924.8000488281</ele>
        <time>2022-02-23T11:37:28.000Z</time>
      </trkpt>
      <trkpt lat="45.69403" lon="6.26908">
        <ele>1925.1999511719</ele>
        <time>2022-02-23T11:37:31.000Z</time>
      </trkpt>
      <trkpt lat="45.69404" lon="6.26913">
        <ele>1926.4000244141</ele>
        <time>2022-02-23T11:37:37.000Z</time>
      </trkpt>
      <trkpt lat="45.69404" lon="6.26914">
        <ele>1926.5999755859</ele>
        <time>2022-02-23T11:37:38.000Z</time>
      </trkpt>
      <trkpt lat="45.69404" lon="6.26917">
        <ele>1927.5999755859</ele>
        <time>2022-02-23T11:37:43.000Z</time>
      </trkpt>
      <trkpt lat="45.69403" lon="6.26918">
        <ele>1927.8000488281</ele>
        <time>2022-02-23T11:37:45.000Z</time>
      </trkpt>
      <trkpt lat="45.69402" lon="6.26918">
        <ele>1927.8000488281</ele>
        <time>2022-02-23T11:37:48.000Z</time>
      </trkpt>
      <trkpt lat="45.69401" lon="6.26918">
        <ele>1928.1999511719</ele>
        <time>2022-02-23T11:37:50.000Z</time>
      </trkpt>
      <trkpt lat="45.694" lon="6.26918">
        <ele>1928.5999755859</ele>
        <time>2022-02-23T11:37:52.000Z</time>
      </trkpt>
      <trkpt lat="45.69398" lon="6.26918">
        <ele>1929.1999511719</ele>
        <time>2022-02-23T11:37:55.000Z</time>
      </trkpt>
      <trkpt lat="45.69396" lon="6.26918">
        <ele>1929.8000488281</ele>
        <time>2022-02-23T11:37:59.000Z</time>
      </trkpt>
      <trkpt lat="45.69395" lon="6.26918">
        <ele>1930.1999511719</ele>
        <time>2022-02-23T11:38:01.000Z</time>
      </trkpt>
      <trkpt lat="45.69395" lon="6.26917">
        <ele>1930</ele>
        <time>2022-02-23T11:38:06.000Z</time>
      </trkpt>
      <trkpt lat="45.69393" lon="6.26916">
        <ele>1930.1999511719</ele>
        <time>2022-02-23T11:38:12.000Z</time>
      </trkpt>
      <trkpt lat="45.69391" lon="6.26916">
        <ele>1930.5999755859</ele>
        <time>2022-02-23T11:38:15.000Z</time>
      </trkpt>
      <trkpt lat="45.6939" lon="6.26916">
        <ele>1930.5999755859</ele>
        <time>2022-02-23T11:38:16.000Z</time>
      </trkpt>
      <trkpt lat="45.6939" lon="6.26915">
        <ele>1930.8000488281</ele>
        <time>2022-02-23T11:38:17.000Z</time>
      </trkpt>
      <trkpt lat="45.69389" lon="6.26915">
        <ele>1930.8000488281</ele>
        <time>2022-02-23T11:38:18.000Z</time>
      </trkpt>
      <trkpt lat="45.69388" lon="6.26914">
        <ele>1931.5999755859</ele>
        <time>2022-02-23T11:38:21.000Z</time>
      </trkpt>
      <trkpt lat="45.69387" lon="6.26913">
        <ele>1931.8000488281</ele>
        <time>2022-02-23T11:38:22.000Z</time>
      </trkpt>
      <trkpt lat="45.69386" lon="6.26912">
        <ele>1932.1999511719</ele>
        <time>2022-02-23T11:38:25.000Z</time>
      </trkpt>
      <trkpt lat="45.69385" lon="6.26911">
        <ele>1932.4000244141</ele>
        <time>2022-02-23T11:38:26.000Z</time>
      </trkpt>
      <trkpt lat="45.69384" lon="6.26909">
        <ele>1932.5999755859</ele>
        <time>2022-02-23T11:38:29.000Z</time>
      </trkpt>
      <trkpt lat="45.69383" lon="6.26908">
        <ele>1932.8000488281</ele>
        <time>2022-02-23T11:38:30.000Z</time>
      </trkpt>
      <trkpt lat="45.69383" lon="6.26908">
        <ele>1933</ele>
        <time>2022-02-23T11:38:31.000Z</time>
      </trkpt>
      <trkpt lat="45.69382" lon="6.26907">
        <ele>1933.1999511719</ele>
        <time>2022-02-23T11:38:32.000Z</time>
      </trkpt>
      <trkpt lat="45.69382" lon="6.26906">
        <ele>1933.4000244141</ele>
        <time>2022-02-23T11:38:33.000Z</time>
      </trkpt>
      <trkpt lat="45.69382" lon="6.26905">
        <ele>1933.4000244141</ele>
        <time>2022-02-23T11:38:34.000Z</time>
      </trkpt>
      <trkpt lat="45.6938" lon="6.26904">
        <ele>1933.5999755859</ele>
        <time>2022-02-23T11:38:37.000Z</time>
      </trkpt>
      <trkpt lat="45.6938" lon="6.26904">
        <ele>1933.8000488281</ele>
        <time>2022-02-23T11:38:38.000Z</time>
      </trkpt>
      <trkpt lat="45.69379" lon="6.26899">
        <ele>1934</ele>
        <time>2022-02-23T11:38:44.000Z</time>
      </trkpt>
      <trkpt lat="45.69379" lon="6.26899">
        <ele>1934.4000244141</ele>
        <time>2022-02-23T11:38:45.000Z</time>
      </trkpt>
      <trkpt lat="45.69379" lon="6.26898">
        <ele>1935</ele>
        <time>2022-02-23T11:38:47.000Z</time>
      </trkpt>
      <trkpt lat="45.69378" lon="6.26897">
        <ele>1935.1999511719</ele>
        <time>2022-02-23T11:38:48.000Z</time>
      </trkpt>
      <trkpt lat="45.69378" lon="6.26896">
        <ele>1935.4000244141</ele>
        <time>2022-02-23T11:38:49.000Z</time>
      </trkpt>
      <trkpt lat="45.69378" lon="6.26891">
        <ele>1936</ele>
        <time>2022-02-23T11:38:54.000Z</time>
      </trkpt>
      <trkpt lat="45.69377" lon="6.26889">
        <ele>1936.4000244141</ele>
        <time>2022-02-23T11:38:56.000Z</time>
      </trkpt>
      <trkpt lat="45.69377" lon="6.26885">
        <ele>1937.5999755859</ele>
        <time>2022-02-23T11:39:00.000Z</time>
      </trkpt>
      <trkpt lat="45.69376" lon="6.26883">
        <ele>1937.8000488281</ele>
        <time>2022-02-23T11:39:03.000Z</time>
      </trkpt>
      <trkpt lat="45.69375" lon="6.2688">
        <ele>1938.8000488281</ele>
        <time>2022-02-23T11:39:07.000Z</time>
      </trkpt>
      <trkpt lat="45.69375" lon="6.26879">
        <ele>1939</ele>
        <time>2022-02-23T11:39:08.000Z</time>
      </trkpt>
      <trkpt lat="45.69375" lon="6.26877">
        <ele>1939.4000244141</ele>
        <time>2022-02-23T11:39:11.000Z</time>
      </trkpt>
      <trkpt lat="45.69375" lon="6.26876">
        <ele>1939.5999755859</ele>
        <time>2022-02-23T11:39:12.000Z</time>
      </trkpt>
      <trkpt lat="45.69374" lon="6.26874">
        <ele>1939.8000488281</ele>
        <time>2022-02-23T11:39:14.000Z</time>
      </trkpt>
      <trkpt lat="45.69375" lon="6.26874">
        <ele>1939.8000488281</ele>
        <time>2022-02-23T11:39:15.000Z</time>
      </trkpt>
      <trkpt lat="45.69375" lon="6.26871">
        <ele>1940.5999755859</ele>
        <time>2022-02-23T11:39:18.000Z</time>
      </trkpt>
      <trkpt lat="45.69375" lon="6.2687">
        <ele>1940.8000488281</ele>
        <time>2022-02-23T11:39:20.000Z</time>
      </trkpt>
      <trkpt lat="45.69375" lon="6.26869">
        <ele>1941</ele>
        <time>2022-02-23T11:39:21.000Z</time>
      </trkpt>
      <trkpt lat="45.69375" lon="6.26867">
        <ele>1941.8000488281</ele>
        <time>2022-02-23T11:39:25.000Z</time>
      </trkpt>
      <trkpt lat="45.69375" lon="6.26865">
        <ele>1942.1999511719</ele>
        <time>2022-02-23T11:39:27.000Z</time>
      </trkpt>
      <trkpt lat="45.69375" lon="6.26863">
        <ele>1942.5999755859</ele>
        <time>2022-02-23T11:39:30.000Z</time>
      </trkpt>
      <trkpt lat="45.69375" lon="6.26861">
        <ele>1943.1999511719</ele>
        <time>2022-02-23T11:39:33.000Z</time>
      </trkpt>
      <trkpt lat="45.69375" lon="6.2686">
        <ele>1943.4000244141</ele>
        <time>2022-02-23T11:39:34.000Z</time>
      </trkpt>
      <trkpt lat="45.69375" lon="6.26859">
        <ele>1943.5999755859</ele>
        <time>2022-02-23T11:39:35.000Z</time>
      </trkpt>
      <trkpt lat="45.69374" lon="6.26858">
        <ele>1944.4000244141</ele>
        <time>2022-02-23T11:39:39.000Z</time>
      </trkpt>
      <trkpt lat="45.69374" lon="6.26858">
        <ele>1944.5999755859</ele>
        <time>2022-02-23T11:39:40.000Z</time>
      </trkpt>
      <trkpt lat="45.69373" lon="6.26859">
        <ele>1945.1999511719</ele>
        <time>2022-02-23T11:39:44.000Z</time>
      </trkpt>
      <trkpt lat="45.69372" lon="6.26859">
        <ele>1945.5999755859</ele>
        <time>2022-02-23T11:39:52.000Z</time>
      </trkpt>
      <trkpt lat="45.69371" lon="6.2686">
        <ele>1945.8000488281</ele>
        <time>2022-02-23T11:39:54.000Z</time>
      </trkpt>
      <trkpt lat="45.69369" lon="6.26862">
        <ele>1946.5999755859</ele>
        <time>2022-02-23T11:40:00.000Z</time>
      </trkpt>
      <trkpt lat="45.69366" lon="6.26863">
        <ele>1947.4000244141</ele>
        <time>2022-02-23T11:40:06.000Z</time>
      </trkpt>
      <trkpt lat="45.69365" lon="6.26864">
        <ele>1947.8000488281</ele>
        <time>2022-02-23T11:40:08.000Z</time>
      </trkpt>
      <trkpt lat="45.69364" lon="6.26864">
        <ele>1948</ele>
        <time>2022-02-23T11:40:09.000Z</time>
      </trkpt>
      <trkpt lat="45.69363" lon="6.26865">
        <ele>1948.1999511719</ele>
        <time>2022-02-23T11:40:11.000Z</time>
      </trkpt>
      <trkpt lat="45.69361" lon="6.26865">
        <ele>1948.8000488281</ele>
        <time>2022-02-23T11:40:14.000Z</time>
      </trkpt>
      <trkpt lat="45.6936" lon="6.26866">
        <ele>1949</ele>
        <time>2022-02-23T11:40:16.000Z</time>
      </trkpt>
      <trkpt lat="45.6936" lon="6.26867">
        <ele>1949.1999511719</ele>
        <time>2022-02-23T11:40:17.000Z</time>
      </trkpt>
      <trkpt lat="45.69359" lon="6.26867">
        <ele>1949.1999511719</ele>
        <time>2022-02-23T11:40:18.000Z</time>
      </trkpt>
      <trkpt lat="45.69358" lon="6.26867">
        <ele>1949.5999755859</ele>
        <time>2022-02-23T11:40:20.000Z</time>
      </trkpt>
      <trkpt lat="45.69357" lon="6.26867">
        <ele>1950</ele>
        <time>2022-02-23T11:40:22.000Z</time>
      </trkpt>
      <trkpt lat="45.69356" lon="6.26867">
        <ele>1950.4000244141</ele>
        <time>2022-02-23T11:40:24.000Z</time>
      </trkpt>
      <trkpt lat="45.69355" lon="6.26868">
        <ele>1951</ele>
        <time>2022-02-23T11:40:26.000Z</time>
      </trkpt>
      <trkpt lat="45.69355" lon="6.26868">
        <ele>1951.1999511719</ele>
        <time>2022-02-23T11:40:27.000Z</time>
      </trkpt>
      <trkpt lat="45.69354" lon="6.26869">
        <ele>1951.5999755859</ele>
        <time>2022-02-23T11:40:28.000Z</time>
      </trkpt>
      <trkpt lat="45.69353" lon="6.26869">
        <ele>1951.8000488281</ele>
        <time>2022-02-23T11:40:30.000Z</time>
      </trkpt>
      <trkpt lat="45.69352" lon="6.2687">
        <ele>1951.8000488281</ele>
        <time>2022-02-23T11:40:32.000Z</time>
      </trkpt>
      <trkpt lat="45.69351" lon="6.26871">
        <ele>1952</ele>
        <time>2022-02-23T11:40:34.000Z</time>
      </trkpt>
      <trkpt lat="45.6935" lon="6.26871">
        <ele>1952.4000244141</ele>
        <time>2022-02-23T11:40:35.000Z</time>
      </trkpt>
      <trkpt lat="45.6935" lon="6.26872">
        <ele>1952.4000244141</ele>
        <time>2022-02-23T11:40:36.000Z</time>
      </trkpt>
      <trkpt lat="45.69349" lon="6.26872">
        <ele>1952.8000488281</ele>
        <time>2022-02-23T11:40:38.000Z</time>
      </trkpt>
      <trkpt lat="45.69348" lon="6.26873">
        <ele>1953.1999511719</ele>
        <time>2022-02-23T11:40:40.000Z</time>
      </trkpt>
      <trkpt lat="45.69348" lon="6.26873">
        <ele>1953.4000244141</ele>
        <time>2022-02-23T11:40:41.000Z</time>
      </trkpt>
      <trkpt lat="45.69347" lon="6.26874">
        <ele>1953.5999755859</ele>
        <time>2022-02-23T11:40:42.000Z</time>
      </trkpt>
      <trkpt lat="45.69347" lon="6.26875">
        <ele>1953.8000488281</ele>
        <time>2022-02-23T11:40:44.000Z</time>
      </trkpt>
      <trkpt lat="45.69346" lon="6.26876">
        <ele>1954.1999511719</ele>
        <time>2022-02-23T11:40:46.000Z</time>
      </trkpt>
      <trkpt lat="45.69346" lon="6.26876">
        <ele>1954.5999755859</ele>
        <time>2022-02-23T11:40:47.000Z</time>
      </trkpt>
      <trkpt lat="45.69346" lon="6.26877">
        <ele>1954.5999755859</ele>
        <time>2022-02-23T11:40:48.000Z</time>
      </trkpt>
      <trkpt lat="45.69345" lon="6.2688">
        <ele>1955</ele>
        <time>2022-02-23T11:40:52.000Z</time>
      </trkpt>
      <trkpt lat="45.69345" lon="6.26882">
        <ele>1955.4000244141</ele>
        <time>2022-02-23T11:40:55.000Z</time>
      </trkpt>
      <trkpt lat="45.69345" lon="6.26883">
        <ele>1955.5999755859</ele>
        <time>2022-02-23T11:40:56.000Z</time>
      </trkpt>
      <trkpt lat="45.69345" lon="6.26884">
        <ele>1955.5999755859</ele>
        <time>2022-02-23T11:40:57.000Z</time>
      </trkpt>
      <trkpt lat="45.69345" lon="6.26885">
        <ele>1956</ele>
        <time>2022-02-23T11:40:59.000Z</time>
      </trkpt>
      <trkpt lat="45.69344" lon="6.26887">
        <ele>1956</ele>
        <time>2022-02-23T11:41:01.000Z</time>
      </trkpt>
      <trkpt lat="45.69344" lon="6.26891">
        <ele>1956.8000488281</ele>
        <time>2022-02-23T11:41:06.000Z</time>
      </trkpt>
      <trkpt lat="45.69344" lon="6.26892">
        <ele>1957.5999755859</ele>
        <time>2022-02-23T11:41:08.000Z</time>
      </trkpt>
      <trkpt lat="45.69343" lon="6.26893">
        <ele>1957.8000488281</ele>
        <time>2022-02-23T11:41:09.000Z</time>
      </trkpt>
      <trkpt lat="45.69343" lon="6.26896">
        <ele>1958.1999511719</ele>
        <time>2022-02-23T11:41:14.000Z</time>
      </trkpt>
      <trkpt lat="45.69343" lon="6.26897">
        <ele>1958.4000244141</ele>
        <time>2022-02-23T11:41:15.000Z</time>
      </trkpt>
      <trkpt lat="45.69342" lon="6.269">
        <ele>1959</ele>
        <time>2022-02-23T11:41:19.000Z</time>
      </trkpt>
      <trkpt lat="45.69342" lon="6.26901">
        <ele>1959.1999511719</ele>
        <time>2022-02-23T11:41:20.000Z</time>
      </trkpt>
      <trkpt lat="45.69341" lon="6.26902">
        <ele>1959.5999755859</ele>
        <time>2022-02-23T11:41:25.000Z</time>
      </trkpt>
      <trkpt lat="45.69341" lon="6.26899">
        <ele>1959.5999755859</ele>
        <time>2022-02-23T11:41:31.000Z</time>
      </trkpt>
      <trkpt lat="45.69339" lon="6.26895">
        <ele>1959.8000488281</ele>
        <time>2022-02-23T11:41:37.000Z</time>
      </trkpt>
      <trkpt lat="45.69339" lon="6.26895">
        <ele>1960</ele>
        <time>2022-02-23T11:41:38.000Z</time>
      </trkpt>
      <trkpt lat="45.69338" lon="6.26893">
        <ele>1960.5999755859</ele>
        <time>2022-02-23T11:41:41.000Z</time>
      </trkpt>
      <trkpt lat="45.69338" lon="6.26892">
        <ele>1961.1999511719</ele>
        <time>2022-02-23T11:41:44.000Z</time>
      </trkpt>
      <trkpt lat="45.69337" lon="6.26891">
        <ele>1961.1999511719</ele>
        <time>2022-02-23T11:41:46.000Z</time>
      </trkpt>
      <trkpt lat="45.69336" lon="6.26887">
        <ele>1961.8000488281</ele>
        <time>2022-02-23T11:41:50.000Z</time>
      </trkpt>
      <trkpt lat="45.69335" lon="6.26886">
        <ele>1962</ele>
        <time>2022-02-23T11:41:51.000Z</time>
      </trkpt>
      <trkpt lat="45.69335" lon="6.26886">
        <ele>1962.1999511719</ele>
        <time>2022-02-23T11:41:52.000Z</time>
      </trkpt>
      <trkpt lat="45.69334" lon="6.26884">
        <ele>1962.5999755859</ele>
        <time>2022-02-23T11:41:55.000Z</time>
      </trkpt>
      <trkpt lat="45.69333" lon="6.26881">
        <ele>1963</ele>
        <time>2022-02-23T11:41:58.000Z</time>
      </trkpt>
      <trkpt lat="45.69332" lon="6.2688">
        <ele>1963.5999755859</ele>
        <time>2022-02-23T11:42:01.000Z</time>
      </trkpt>
      <trkpt lat="45.69331" lon="6.26878">
        <ele>1964</ele>
        <time>2022-02-23T11:42:03.000Z</time>
      </trkpt>
      <trkpt lat="45.69331" lon="6.26878">
        <ele>1964.1999511719</ele>
        <time>2022-02-23T11:42:04.000Z</time>
      </trkpt>
      <trkpt lat="45.6933" lon="6.26877">
        <ele>1964.8000488281</ele>
        <time>2022-02-23T11:42:06.000Z</time>
      </trkpt>
      <trkpt lat="45.69329" lon="6.26876">
        <ele>1965</ele>
        <time>2022-02-23T11:42:07.000Z</time>
      </trkpt>
      <trkpt lat="45.69329" lon="6.26875">
        <ele>1965.1999511719</ele>
        <time>2022-02-23T11:42:08.000Z</time>
      </trkpt>
      <trkpt lat="45.69328" lon="6.26875">
        <ele>1965.4000244141</ele>
        <time>2022-02-23T11:42:09.000Z</time>
      </trkpt>
      <trkpt lat="45.69327" lon="6.26874">
        <ele>1965.5999755859</ele>
        <time>2022-02-23T11:42:11.000Z</time>
      </trkpt>
      <trkpt lat="45.69326" lon="6.26873">
        <ele>1965.5999755859</ele>
        <time>2022-02-23T11:42:14.000Z</time>
      </trkpt>
      <trkpt lat="45.69326" lon="6.26873">
        <ele>1965.8000488281</ele>
        <time>2022-02-23T11:42:16.000Z</time>
      </trkpt>
      <trkpt lat="45.69326" lon="6.26873">
        <ele>1966</ele>
        <time>2022-02-23T11:42:17.000Z</time>
      </trkpt>
      <trkpt lat="45.69325" lon="6.26875">
        <ele>1966.4000244141</ele>
        <time>2022-02-23T11:42:20.000Z</time>
      </trkpt>
      <trkpt lat="45.69325" lon="6.26876">
        <ele>1967</ele>
        <time>2022-02-23T11:42:21.000Z</time>
      </trkpt>
      <trkpt lat="45.69325" lon="6.26879">
        <ele>1968</ele>
        <time>2022-02-23T11:42:24.000Z</time>
      </trkpt>
      <trkpt lat="45.69325" lon="6.26879">
        <ele>1968.1999511719</ele>
        <time>2022-02-23T11:42:25.000Z</time>
      </trkpt>
      <trkpt lat="45.69325" lon="6.2688">
        <ele>1968.4000244141</ele>
        <time>2022-02-23T11:42:26.000Z</time>
      </trkpt>
      <trkpt lat="45.69325" lon="6.26881">
        <ele>1968.5999755859</ele>
        <time>2022-02-23T11:42:28.000Z</time>
      </trkpt>
      <trkpt lat="45.69324" lon="6.26883">
        <ele>1968.8000488281</ele>
        <time>2022-02-23T11:42:30.000Z</time>
      </trkpt>
      <trkpt lat="45.69324" lon="6.26884">
        <ele>1969</ele>
        <time>2022-02-23T11:42:32.000Z</time>
      </trkpt>
      <trkpt lat="45.69324" lon="6.26886">
        <ele>1969.1999511719</ele>
        <time>2022-02-23T11:42:34.000Z</time>
      </trkpt>
      <trkpt lat="45.69323" lon="6.26887">
        <ele>1969.1999511719</ele>
        <time>2022-02-23T11:42:35.000Z</time>
      </trkpt>
      <trkpt lat="45.69323" lon="6.26888">
        <ele>1969.4000244141</ele>
        <time>2022-02-23T11:42:36.000Z</time>
      </trkpt>
      <trkpt lat="45.69323" lon="6.26889">
        <ele>1969.4000244141</ele>
        <time>2022-02-23T11:42:38.000Z</time>
      </trkpt>
      <trkpt lat="45.69322" lon="6.2689">
        <ele>1969.5999755859</ele>
        <time>2022-02-23T11:42:40.000Z</time>
      </trkpt>
      <trkpt lat="45.69322" lon="6.26892">
        <ele>1970.1999511719</ele>
        <time>2022-02-23T11:42:42.000Z</time>
      </trkpt>
      <trkpt lat="45.69322" lon="6.26893">
        <ele>1970.1999511719</ele>
        <time>2022-02-23T11:42:43.000Z</time>
      </trkpt>
      <trkpt lat="45.69321" lon="6.26893">
        <ele>1970.5999755859</ele>
        <time>2022-02-23T11:42:44.000Z</time>
      </trkpt>
      <trkpt lat="45.69321" lon="6.26895">
        <ele>1970.5999755859</ele>
        <time>2022-02-23T11:42:46.000Z</time>
      </trkpt>
      <trkpt lat="45.6932" lon="6.26896">
        <ele>1970.8000488281</ele>
        <time>2022-02-23T11:42:47.000Z</time>
      </trkpt>
      <trkpt lat="45.6932" lon="6.26896">
        <ele>1970.8000488281</ele>
        <time>2022-02-23T11:42:48.000Z</time>
      </trkpt>
      <trkpt lat="45.69319" lon="6.26897">
        <ele>1971</ele>
        <time>2022-02-23T11:42:50.000Z</time>
      </trkpt>
      <trkpt lat="45.69319" lon="6.26898">
        <ele>1971.1999511719</ele>
        <time>2022-02-23T11:42:51.000Z</time>
      </trkpt>
      <trkpt lat="45.69319" lon="6.26898">
        <ele>1971.4000244141</ele>
        <time>2022-02-23T11:42:52.000Z</time>
      </trkpt>
      <trkpt lat="45.69318" lon="6.26899">
        <ele>1971.8000488281</ele>
        <time>2022-02-23T11:42:54.000Z</time>
      </trkpt>
      <trkpt lat="45.69317" lon="6.26901">
        <ele>1972</ele>
        <time>2022-02-23T11:42:56.000Z</time>
      </trkpt>
      <trkpt lat="45.69316" lon="6.26902">
        <ele>1972.1999511719</ele>
        <time>2022-02-23T11:42:58.000Z</time>
      </trkpt>
      <trkpt lat="45.69316" lon="6.26902">
        <ele>1972.4000244141</ele>
        <time>2022-02-23T11:42:59.000Z</time>
      </trkpt>
      <trkpt lat="45.69316" lon="6.26903">
        <ele>1972.4000244141</ele>
        <time>2022-02-23T11:43:00.000Z</time>
      </trkpt>
      <trkpt lat="45.69315" lon="6.26904">
        <ele>1972.5999755859</ele>
        <time>2022-02-23T11:43:02.000Z</time>
      </trkpt>
      <trkpt lat="45.69315" lon="6.26905">
        <ele>1972.8000488281</ele>
        <time>2022-02-23T11:43:04.000Z</time>
      </trkpt>
      <trkpt lat="45.69314" lon="6.26907">
        <ele>1973.4000244141</ele>
        <time>2022-02-23T11:43:06.000Z</time>
      </trkpt>
      <trkpt lat="45.69314" lon="6.26908">
        <ele>1973.8000488281</ele>
        <time>2022-02-23T11:43:08.000Z</time>
      </trkpt>
      <trkpt lat="45.69313" lon="6.26909">
        <ele>1974.1999511719</ele>
        <time>2022-02-23T11:43:10.000Z</time>
      </trkpt>
      <trkpt lat="45.69312" lon="6.26909">
        <ele>1974.5999755859</ele>
        <time>2022-02-23T11:43:12.000Z</time>
      </trkpt>
      <trkpt lat="45.69311" lon="6.26908">
        <ele>1975</ele>
        <time>2022-02-23T11:43:14.000Z</time>
      </trkpt>
      <trkpt lat="45.69311" lon="6.26907">
        <ele>1975.1999511719</ele>
        <time>2022-02-23T11:43:15.000Z</time>
      </trkpt>
      <trkpt lat="45.6931" lon="6.26906">
        <ele>1975.1999511719</ele>
        <time>2022-02-23T11:43:16.000Z</time>
      </trkpt>
      <trkpt lat="45.6931" lon="6.26905">
        <ele>1975</ele>
        <time>2022-02-23T11:43:18.000Z</time>
      </trkpt>
      <trkpt lat="45.69309" lon="6.26905">
        <ele>1975</ele>
        <time>2022-02-23T11:43:19.000Z</time>
      </trkpt>
      <trkpt lat="45.69307" lon="6.26904">
        <ele>1975.8000488281</ele>
        <time>2022-02-23T11:43:24.000Z</time>
      </trkpt>
      <trkpt lat="45.69304" lon="6.26903">
        <ele>1976.8000488281</ele>
        <time>2022-02-23T11:43:29.000Z</time>
      </trkpt>
      <trkpt lat="45.69301" lon="6.26902">
        <ele>1977.1999511719</ele>
        <time>2022-02-23T11:43:32.000Z</time>
      </trkpt>
      <trkpt lat="45.69301" lon="6.26901">
        <ele>1977.4000244141</ele>
        <time>2022-02-23T11:43:33.000Z</time>
      </trkpt>
      <trkpt lat="45.693" lon="6.269">
        <ele>1977.4000244141</ele>
        <time>2022-02-23T11:43:35.000Z</time>
      </trkpt>
      <trkpt lat="45.69297" lon="6.269">
        <ele>1977.5999755859</ele>
        <time>2022-02-23T11:43:39.000Z</time>
      </trkpt>
      <trkpt lat="45.69296" lon="6.26899">
        <ele>1977.8000488281</ele>
        <time>2022-02-23T11:43:41.000Z</time>
      </trkpt>
      <trkpt lat="45.69294" lon="6.26897">
        <ele>1978.5999755859</ele>
        <time>2022-02-23T11:43:44.000Z</time>
      </trkpt>
      <trkpt lat="45.69292" lon="6.26896">
        <ele>1979</ele>
        <time>2022-02-23T11:43:48.000Z</time>
      </trkpt>
      <trkpt lat="45.69292" lon="6.26896">
        <ele>1979</ele>
        <time>2022-02-23T11:43:49.000Z</time>
      </trkpt>
      <trkpt lat="45.69292" lon="6.26895">
        <ele>1979.1999511719</ele>
        <time>2022-02-23T11:43:50.000Z</time>
      </trkpt>
      <trkpt lat="45.69291" lon="6.26894">
        <ele>1979.8000488281</ele>
        <time>2022-02-23T11:43:52.000Z</time>
      </trkpt>
      <trkpt lat="45.6929" lon="6.26894">
        <ele>1980</ele>
        <time>2022-02-23T11:43:53.000Z</time>
      </trkpt>
      <trkpt lat="45.69289" lon="6.26893">
        <ele>1980.8000488281</ele>
        <time>2022-02-23T11:43:55.000Z</time>
      </trkpt>
      <trkpt lat="45.69289" lon="6.26893">
        <ele>1981</ele>
        <time>2022-02-23T11:43:57.000Z</time>
      </trkpt>
      <trkpt lat="45.69289" lon="6.26892">
        <ele>1981.4000244141</ele>
        <time>2022-02-23T11:43:59.000Z</time>
      </trkpt>
      <trkpt lat="45.69289" lon="6.26891">
        <ele>1982.1999511719</ele>
        <time>2022-02-23T11:44:03.000Z</time>
      </trkpt>
      <trkpt lat="45.69288" lon="6.26889">
        <ele>1982.1999511719</ele>
        <time>2022-02-23T11:44:05.000Z</time>
      </trkpt>
      <trkpt lat="45.69287" lon="6.26885">
        <ele>1983</ele>
        <time>2022-02-23T11:44:10.000Z</time>
      </trkpt>
      <trkpt lat="45.69287" lon="6.26881">
        <ele>1983.1999511719</ele>
        <time>2022-02-23T11:44:13.000Z</time>
      </trkpt>
      <trkpt lat="45.69286" lon="6.26879">
        <ele>1983.4000244141</ele>
        <time>2022-02-23T11:44:15.000Z</time>
      </trkpt>
      <trkpt lat="45.69286" lon="6.26874">
        <ele>1984.1999511719</ele>
        <time>2022-02-23T11:44:20.000Z</time>
      </trkpt>
      <trkpt lat="45.69284" lon="6.26871">
        <ele>1985.4000244141</ele>
        <time>2022-02-23T11:44:25.000Z</time>
      </trkpt>
      <trkpt lat="45.69283" lon="6.26872">
        <ele>1986.4000244141</ele>
        <time>2022-02-23T11:44:29.000Z</time>
      </trkpt>
      <trkpt lat="45.69282" lon="6.26872">
        <ele>1986.4000244141</ele>
        <time>2022-02-23T11:44:30.000Z</time>
      </trkpt>
      <trkpt lat="45.6928" lon="6.26876">
        <ele>1986.8000488281</ele>
        <time>2022-02-23T11:44:35.000Z</time>
      </trkpt>
      <trkpt lat="45.6928" lon="6.26878">
        <ele>1987.1999511719</ele>
        <time>2022-02-23T11:44:37.000Z</time>
      </trkpt>
      <trkpt lat="45.69279" lon="6.26878">
        <ele>1987.4000244141</ele>
        <time>2022-02-23T11:44:38.000Z</time>
      </trkpt>
      <trkpt lat="45.69279" lon="6.26879">
        <ele>1987.5999755859</ele>
        <time>2022-02-23T11:44:39.000Z</time>
      </trkpt>
      <trkpt lat="45.69279" lon="6.2688">
        <ele>1987.8000488281</ele>
        <time>2022-02-23T11:44:40.000Z</time>
      </trkpt>
      <trkpt lat="45.69278" lon="6.26881">
        <ele>1988.1999511719</ele>
        <time>2022-02-23T11:44:42.000Z</time>
      </trkpt>
      <trkpt lat="45.69278" lon="6.26881">
        <ele>1988.1999511719</ele>
        <time>2022-02-23T11:44:43.000Z</time>
      </trkpt>
      <trkpt lat="45.69278" lon="6.26882">
        <ele>1988.4000244141</ele>
        <time>2022-02-23T11:44:44.000Z</time>
      </trkpt>
      <trkpt lat="45.69277" lon="6.26882">
        <ele>1988.5999755859</ele>
        <time>2022-02-23T11:44:46.000Z</time>
      </trkpt>
      <trkpt lat="45.69277" lon="6.26883">
        <ele>1988.8000488281</ele>
        <time>2022-02-23T11:44:47.000Z</time>
      </trkpt>
      <trkpt lat="45.69276" lon="6.26881">
        <ele>1989</ele>
        <time>2022-02-23T11:44:51.000Z</time>
      </trkpt>
      <trkpt lat="45.69276" lon="6.26879">
        <ele>1989.4000244141</ele>
        <time>2022-02-23T11:44:55.000Z</time>
      </trkpt>
      <trkpt lat="45.69275" lon="6.26878">
        <ele>1989.5999755859</ele>
        <time>2022-02-23T11:44:56.000Z</time>
      </trkpt>
      <trkpt lat="45.69274" lon="6.26872">
        <ele>1989.5999755859</ele>
        <time>2022-02-23T11:45:02.000Z</time>
      </trkpt>
      <trkpt lat="45.69274" lon="6.2687">
        <ele>1990.5999755859</ele>
        <time>2022-02-23T11:45:04.000Z</time>
      </trkpt>
      <trkpt lat="45.69273" lon="6.26865">
        <ele>1991.4000244141</ele>
        <time>2022-02-23T11:45:11.000Z</time>
      </trkpt>
      <trkpt lat="45.69273" lon="6.26864">
        <ele>1991.5999755859</ele>
        <time>2022-02-23T11:45:12.000Z</time>
      </trkpt>
      <trkpt lat="45.69272" lon="6.26859">
        <ele>1991.8000488281</ele>
        <time>2022-02-23T11:45:17.000Z</time>
      </trkpt>
      <trkpt lat="45.69272" lon="6.26858">
        <ele>1992.1999511719</ele>
        <time>2022-02-23T11:45:19.000Z</time>
      </trkpt>
      <trkpt lat="45.69272" lon="6.26855">
        <ele>1992.8000488281</ele>
        <time>2022-02-23T11:45:22.000Z</time>
      </trkpt>
      <trkpt lat="45.69273" lon="6.26854">
        <ele>1993.1999511719</ele>
        <time>2022-02-23T11:45:24.000Z</time>
      </trkpt>
      <trkpt lat="45.69274" lon="6.26851">
        <ele>1993.8000488281</ele>
        <time>2022-02-23T11:45:27.000Z</time>
      </trkpt>
      <trkpt lat="45.69274" lon="6.26848">
        <ele>1994.4000244141</ele>
        <time>2022-02-23T11:45:30.000Z</time>
      </trkpt>
      <trkpt lat="45.69274" lon="6.26845">
        <ele>1995</ele>
        <time>2022-02-23T11:45:33.000Z</time>
      </trkpt>
      <trkpt lat="45.69275" lon="6.26842">
        <ele>1995.8000488281</ele>
        <time>2022-02-23T11:45:38.000Z</time>
      </trkpt>
      <trkpt lat="45.69275" lon="6.26841">
        <ele>1996</ele>
        <time>2022-02-23T11:45:40.000Z</time>
      </trkpt>
      <trkpt lat="45.69275" lon="6.26839">
        <ele>1996.5999755859</ele>
        <time>2022-02-23T11:45:43.000Z</time>
      </trkpt>
      <trkpt lat="45.69275" lon="6.26838">
        <ele>1996.8000488281</ele>
        <time>2022-02-23T11:45:44.000Z</time>
      </trkpt>
      <trkpt lat="45.69275" lon="6.26837">
        <ele>1997</ele>
        <time>2022-02-23T11:45:46.000Z</time>
      </trkpt>
      <trkpt lat="45.69274" lon="6.26832">
        <ele>1998</ele>
        <time>2022-02-23T11:45:51.000Z</time>
      </trkpt>
      <trkpt lat="45.69273" lon="6.26828">
        <ele>1998.5999755859</ele>
        <time>2022-02-23T11:45:57.000Z</time>
      </trkpt>
      <trkpt lat="45.69272" lon="6.26828">
        <ele>1999.1999511719</ele>
        <time>2022-02-23T11:45:58.000Z</time>
      </trkpt>
      <trkpt lat="45.69271" lon="6.26828">
        <ele>2000.4000244141</ele>
        <time>2022-02-23T11:46:01.000Z</time>
      </trkpt>
      <trkpt lat="45.69269" lon="6.26829">
        <ele>2001.4000244141</ele>
        <time>2022-02-23T11:46:04.000Z</time>
      </trkpt>
      <trkpt lat="45.69269" lon="6.26829">
        <ele>2001.5999755859</ele>
        <time>2022-02-23T11:46:05.000Z</time>
      </trkpt>
      <trkpt lat="45.69268" lon="6.26829">
        <ele>2002</ele>
        <time>2022-02-23T11:46:06.000Z</time>
      </trkpt>
      <trkpt lat="45.69267" lon="6.26829">
        <ele>2002.1999511719</ele>
        <time>2022-02-23T11:46:08.000Z</time>
      </trkpt>
      <trkpt lat="45.69267" lon="6.2683">
        <ele>2002.1999511719</ele>
        <time>2022-02-23T11:46:09.000Z</time>
      </trkpt>
      <trkpt lat="45.69266" lon="6.2683">
        <ele>2002.1999511719</ele>
        <time>2022-02-23T11:46:10.000Z</time>
      </trkpt>
      <trkpt lat="45.69265" lon="6.26831">
        <ele>2002</ele>
        <time>2022-02-23T11:46:12.000Z</time>
      </trkpt>
      <trkpt lat="45.69265" lon="6.26831">
        <ele>2002</ele>
        <time>2022-02-23T11:46:13.000Z</time>
      </trkpt>
      <trkpt lat="45.69264" lon="6.26832">
        <ele>2002.1999511719</ele>
        <time>2022-02-23T11:46:14.000Z</time>
      </trkpt>
      <trkpt lat="45.69263" lon="6.26833">
        <ele>2002.8000488281</ele>
        <time>2022-02-23T11:46:16.000Z</time>
      </trkpt>
      <trkpt lat="45.69263" lon="6.26833">
        <ele>2003</ele>
        <time>2022-02-23T11:46:17.000Z</time>
      </trkpt>
      <trkpt lat="45.69262" lon="6.26835">
        <ele>2003.5999755859</ele>
        <time>2022-02-23T11:46:22.000Z</time>
      </trkpt>
      <trkpt lat="45.69261" lon="6.26836">
        <ele>2004</ele>
        <time>2022-02-23T11:46:23.000Z</time>
      </trkpt>
      <trkpt lat="45.6926" lon="6.26837">
        <ele>2004.1999511719</ele>
        <time>2022-02-23T11:46:25.000Z</time>
      </trkpt>
      <trkpt lat="45.6926" lon="6.26837">
        <ele>2004.4000244141</ele>
        <time>2022-02-23T11:46:26.000Z</time>
      </trkpt>
      <trkpt lat="45.6926" lon="6.26837">
        <ele>2004.4000244141</ele>
        <time>2022-02-23T11:46:27.000Z</time>
      </trkpt>
      <trkpt lat="45.69259" lon="6.26838">
        <ele>2004.5999755859</ele>
        <time>2022-02-23T11:46:29.000Z</time>
      </trkpt>
      <trkpt lat="45.69258" lon="6.26838">
        <ele>2005.1999511719</ele>
        <time>2022-02-23T11:46:31.000Z</time>
      </trkpt>
      <trkpt lat="45.69257" lon="6.26839">
        <ele>2005.5999755859</ele>
        <time>2022-02-23T11:46:33.000Z</time>
      </trkpt>
      <trkpt lat="45.69257" lon="6.2684">
        <ele>2005.8000488281</ele>
        <time>2022-02-23T11:46:35.000Z</time>
      </trkpt>
      <trkpt lat="45.69256" lon="6.2684">
        <ele>2005.8000488281</ele>
        <time>2022-02-23T11:46:37.000Z</time>
      </trkpt>
      <trkpt lat="45.69255" lon="6.26841">
        <ele>2006.1999511719</ele>
        <time>2022-02-23T11:46:39.000Z</time>
      </trkpt>
      <trkpt lat="45.69254" lon="6.26842">
        <ele>2006.8000488281</ele>
        <time>2022-02-23T11:46:41.000Z</time>
      </trkpt>
      <trkpt lat="45.69253" lon="6.26844">
        <ele>2007.1999511719</ele>
        <time>2022-02-23T11:46:45.000Z</time>
      </trkpt>
      <trkpt lat="45.69253" lon="6.26844">
        <ele>2007.4000244141</ele>
        <time>2022-02-23T11:46:46.000Z</time>
      </trkpt>
      <trkpt lat="45.69251" lon="6.26846">
        <ele>2007.8000488281</ele>
        <time>2022-02-23T11:46:50.000Z</time>
      </trkpt>
      <trkpt lat="45.6925" lon="6.26846">
        <ele>2008</ele>
        <time>2022-02-23T11:46:52.000Z</time>
      </trkpt>
      <trkpt lat="45.69249" lon="6.26847">
        <ele>2008</ele>
        <time>2022-02-23T11:46:54.000Z</time>
      </trkpt>
      <trkpt lat="45.69249" lon="6.26847">
        <ele>2008.1999511719</ele>
        <time>2022-02-23T11:46:55.000Z</time>
      </trkpt>
      <trkpt lat="45.69248" lon="6.26847">
        <ele>2008.4000244141</ele>
        <time>2022-02-23T11:46:57.000Z</time>
      </trkpt>
      <trkpt lat="45.69247" lon="6.26847">
        <ele>2008.5999755859</ele>
        <time>2022-02-23T11:46:58.000Z</time>
      </trkpt>
      <trkpt lat="45.69247" lon="6.26847">
        <ele>2008.8000488281</ele>
        <time>2022-02-23T11:46:59.000Z</time>
      </trkpt>
      <trkpt lat="45.69246" lon="6.26847">
        <ele>2009</ele>
        <time>2022-02-23T11:47:01.000Z</time>
      </trkpt>
      <trkpt lat="45.69245" lon="6.26847">
        <ele>2009.1999511719</ele>
        <time>2022-02-23T11:47:02.000Z</time>
      </trkpt>
      <trkpt lat="45.69245" lon="6.26846">
        <ele>2009.8000488281</ele>
        <time>2022-02-23T11:47:04.000Z</time>
      </trkpt>
      <trkpt lat="45.69244" lon="6.26845">
        <ele>2010.8000488281</ele>
        <time>2022-02-23T11:47:06.000Z</time>
      </trkpt>
      <trkpt lat="45.69244" lon="6.26844">
        <ele>2011</ele>
        <time>2022-02-23T11:47:07.000Z</time>
      </trkpt>
      <trkpt lat="45.69244" lon="6.26841">
        <ele>2011.4000244141</ele>
        <time>2022-02-23T11:47:11.000Z</time>
      </trkpt>
      <trkpt lat="45.69243" lon="6.26836">
        <ele>2011.5999755859</ele>
        <time>2022-02-23T11:47:18.000Z</time>
      </trkpt>
      <trkpt lat="45.69243" lon="6.26835">
        <ele>2012.1999511719</ele>
        <time>2022-02-23T11:47:20.000Z</time>
      </trkpt>
      <trkpt lat="45.69243" lon="6.26833">
        <ele>2012.8000488281</ele>
        <time>2022-02-23T11:47:24.000Z</time>
      </trkpt>
      <trkpt lat="45.69243" lon="6.26832">
        <ele>2013.4000244141</ele>
        <time>2022-02-23T11:47:26.000Z</time>
      </trkpt>
      <trkpt lat="45.69243" lon="6.2683">
        <ele>2014</ele>
        <time>2022-02-23T11:47:29.000Z</time>
      </trkpt>
      <trkpt lat="45.69242" lon="6.26827">
        <ele>2014.1999511719</ele>
        <time>2022-02-23T11:47:33.000Z</time>
      </trkpt>
      <trkpt lat="45.69242" lon="6.26826">
        <ele>2014.4000244141</ele>
        <time>2022-02-23T11:47:35.000Z</time>
      </trkpt>
      <trkpt lat="45.69242" lon="6.26823">
        <ele>2015.4000244141</ele>
        <time>2022-02-23T11:47:40.000Z</time>
      </trkpt>
      <trkpt lat="45.69241" lon="6.26821">
        <ele>2016.4000244141</ele>
        <time>2022-02-23T11:47:45.000Z</time>
      </trkpt>
      <trkpt lat="45.69241" lon="6.26819">
        <ele>2016.5999755859</ele>
        <time>2022-02-23T11:47:47.000Z</time>
      </trkpt>
      <trkpt lat="45.69239" lon="6.26814">
        <ele>2017.5999755859</ele>
        <time>2022-02-23T11:47:53.000Z</time>
      </trkpt>
      <trkpt lat="45.69238" lon="6.26811">
        <ele>2018.5999755859</ele>
        <time>2022-02-23T11:47:58.000Z</time>
      </trkpt>
      <trkpt lat="45.69239" lon="6.2681">
        <ele>2019</ele>
        <time>2022-02-23T11:48:00.000Z</time>
      </trkpt>
      <trkpt lat="45.69239" lon="6.26806">
        <ele>2019.5999755859</ele>
        <time>2022-02-23T11:48:04.000Z</time>
      </trkpt>
      <trkpt lat="45.69241" lon="6.26803">
        <ele>2020.4000244141</ele>
        <time>2022-02-23T11:48:08.000Z</time>
      </trkpt>
      <trkpt lat="45.6924" lon="6.268">
        <ele>2020.5999755859</ele>
        <time>2022-02-23T11:48:12.000Z</time>
      </trkpt>
      <trkpt lat="45.6924" lon="6.26799">
        <ele>2021</ele>
        <time>2022-02-23T11:48:14.000Z</time>
      </trkpt>
      <trkpt lat="45.69239" lon="6.26796">
        <ele>2021.4000244141</ele>
        <time>2022-02-23T11:48:17.000Z</time>
      </trkpt>
      <trkpt lat="45.6924" lon="6.26795">
        <ele>2021.8000488281</ele>
        <time>2022-02-23T11:48:21.000Z</time>
      </trkpt>
      <trkpt lat="45.69241" lon="6.26793">
        <ele>2022.4000244141</ele>
        <time>2022-02-23T11:48:23.000Z</time>
      </trkpt>
      <trkpt lat="45.69242" lon="6.2679">
        <ele>2022.5999755859</ele>
        <time>2022-02-23T11:48:25.000Z</time>
      </trkpt>
      <trkpt lat="45.69242" lon="6.26788">
        <ele>2022.8000488281</ele>
        <time>2022-02-23T11:48:27.000Z</time>
      </trkpt>
      <trkpt lat="45.69242" lon="6.26784">
        <ele>2023.8000488281</ele>
        <time>2022-02-23T11:48:31.000Z</time>
      </trkpt>
      <trkpt lat="45.69242" lon="6.26784">
        <ele>2023.8000488281</ele>
        <time>2022-02-23T11:48:32.000Z</time>
      </trkpt>
      <trkpt lat="45.69241" lon="6.26783">
        <ele>2024</ele>
        <time>2022-02-23T11:48:33.000Z</time>
      </trkpt>
      <trkpt lat="45.69241" lon="6.26782">
        <ele>2024</ele>
        <time>2022-02-23T11:48:34.000Z</time>
      </trkpt>
      <trkpt lat="45.69239" lon="6.26778">
        <ele>2024.1999511719</ele>
        <time>2022-02-23T11:48:38.000Z</time>
      </trkpt>
      <trkpt lat="45.69237" lon="6.26775">
        <ele>2025</ele>
        <time>2022-02-23T11:48:42.000Z</time>
      </trkpt>
      <trkpt lat="45.69235" lon="6.26772">
        <ele>2025.4000244141</ele>
        <time>2022-02-23T11:48:44.000Z</time>
      </trkpt>
      <trkpt lat="45.69232" lon="6.26769">
        <ele>2026.1999511719</ele>
        <time>2022-02-23T11:48:47.000Z</time>
      </trkpt>
      <trkpt lat="45.69228" lon="6.26765">
        <ele>2026.8000488281</ele>
        <time>2022-02-23T11:48:50.000Z</time>
      </trkpt>
      <trkpt lat="45.69227" lon="6.26762">
        <ele>2027</ele>
        <time>2022-02-23T11:48:52.000Z</time>
      </trkpt>
      <trkpt lat="45.69226" lon="6.26761">
        <ele>2027.4000244141</ele>
        <time>2022-02-23T11:48:53.000Z</time>
      </trkpt>
      <trkpt lat="45.69226" lon="6.2676">
        <ele>2027.4000244141</ele>
        <time>2022-02-23T11:48:54.000Z</time>
      </trkpt>
      <trkpt lat="45.69225" lon="6.26759">
        <ele>2027.5999755859</ele>
        <time>2022-02-23T11:48:55.000Z</time>
      </trkpt>
      <trkpt lat="45.69226" lon="6.26758">
        <ele>2027.5999755859</ele>
        <time>2022-02-23T11:48:56.000Z</time>
      </trkpt>
      <trkpt lat="45.69224" lon="6.26755">
        <ele>2027.5999755859</ele>
        <time>2022-02-23T11:48:58.000Z</time>
      </trkpt>
      <trkpt lat="45.69226" lon="6.26753">
        <ele>2028</ele>
        <time>2022-02-23T11:49:00.000Z</time>
      </trkpt>
      <trkpt lat="45.69227" lon="6.26751">
        <ele>2028.5999755859</ele>
        <time>2022-02-23T11:49:02.000Z</time>
      </trkpt>
      <trkpt lat="45.69229" lon="6.2675">
        <ele>2028.8000488281</ele>
        <time>2022-02-23T11:49:05.000Z</time>
      </trkpt>
      <trkpt lat="45.69229" lon="6.26747">
        <ele>2029.1999511719</ele>
        <time>2022-02-23T11:49:08.000Z</time>
      </trkpt>
      <trkpt lat="45.69231" lon="6.26747">
        <ele>2029.5999755859</ele>
        <time>2022-02-23T11:49:10.000Z</time>
      </trkpt>
      <trkpt lat="45.6923" lon="6.26745">
        <ele>2030.8000488281</ele>
        <time>2022-02-23T11:49:15.000Z</time>
      </trkpt>
      <trkpt lat="45.69231" lon="6.26744">
        <ele>2031.5999755859</ele>
        <time>2022-02-23T11:49:17.000Z</time>
      </trkpt>
      <trkpt lat="45.69231" lon="6.26743">
        <ele>2032.1999511719</ele>
        <time>2022-02-23T11:49:19.000Z</time>
      </trkpt>
      <trkpt lat="45.69232" lon="6.26741">
        <ele>2032.4000244141</ele>
        <time>2022-02-23T11:49:21.000Z</time>
      </trkpt>
      <trkpt lat="45.69233" lon="6.26738">
        <ele>2033.1999511719</ele>
        <time>2022-02-23T11:49:24.000Z</time>
      </trkpt>
      <trkpt lat="45.69231" lon="6.26733">
        <ele>2033.4000244141</ele>
        <time>2022-02-23T11:49:27.000Z</time>
      </trkpt>
      <trkpt lat="45.69227" lon="6.26726">
        <ele>2034.4000244141</ele>
        <time>2022-02-23T11:49:32.000Z</time>
      </trkpt>
      <trkpt lat="45.6923" lon="6.26729">
        <ele>2035</ele>
        <time>2022-02-23T11:49:34.000Z</time>
      </trkpt>
      <trkpt lat="45.69232" lon="6.26729">
        <ele>2035.5999755859</ele>
        <time>2022-02-23T11:49:38.000Z</time>
      </trkpt>
      <trkpt lat="45.69232" lon="6.26728">
        <ele>2036.1999511719</ele>
        <time>2022-02-23T11:49:40.000Z</time>
      </trkpt>
      <trkpt lat="45.69233" lon="6.26728">
        <ele>2036.5999755859</ele>
        <time>2022-02-23T11:49:42.000Z</time>
      </trkpt>
      <trkpt lat="45.69234" lon="6.26728">
        <ele>2037</ele>
        <time>2022-02-23T11:49:43.000Z</time>
      </trkpt>
      <trkpt lat="45.69234" lon="6.26725">
        <ele>2037.5999755859</ele>
        <time>2022-02-23T11:49:46.000Z</time>
      </trkpt>
      <trkpt lat="45.69235" lon="6.26724">
        <ele>2038</ele>
        <time>2022-02-23T11:49:48.000Z</time>
      </trkpt>
      <trkpt lat="45.69235" lon="6.26723">
        <ele>2038.8000488281</ele>
        <time>2022-02-23T11:49:52.000Z</time>
      </trkpt>
      <trkpt lat="45.69235" lon="6.26722">
        <ele>2039</ele>
        <time>2022-02-23T11:49:54.000Z</time>
      </trkpt>
      <trkpt lat="45.69233" lon="6.26719">
        <ele>2039.4000244141</ele>
        <time>2022-02-23T11:50:00.000Z</time>
      </trkpt>
      <trkpt lat="45.69233" lon="6.26718">
        <ele>2040</ele>
        <time>2022-02-23T11:50:01.000Z</time>
      </trkpt>
      <trkpt lat="45.69232" lon="6.26715">
        <ele>2040.5999755859</ele>
        <time>2022-02-23T11:50:04.000Z</time>
      </trkpt>
      <trkpt lat="45.69233" lon="6.26714">
        <ele>2041</ele>
        <time>2022-02-23T11:50:06.000Z</time>
      </trkpt>
      <trkpt lat="45.69233" lon="6.26711">
        <ele>2041.1999511719</ele>
        <time>2022-02-23T11:50:08.000Z</time>
      </trkpt>
      <trkpt lat="45.69233" lon="6.26708">
        <ele>2041.4000244141</ele>
        <time>2022-02-23T11:50:15.000Z</time>
      </trkpt>
      <trkpt lat="45.69231" lon="6.26702">
        <ele>2041.5999755859</ele>
        <time>2022-02-23T11:50:17.000Z</time>
      </trkpt>
      <trkpt lat="45.69228" lon="6.26699">
        <ele>2041.8000488281</ele>
        <time>2022-02-23T11:50:23.000Z</time>
      </trkpt>
      <trkpt lat="45.69226" lon="6.26695">
        <ele>2041.5999755859</ele>
        <time>2022-02-23T11:50:32.000Z</time>
      </trkpt>
      <trkpt lat="45.69225" lon="6.26695">
        <ele>2041.1999511719</ele>
        <time>2022-02-23T11:50:35.000Z</time>
      </trkpt>
      <trkpt lat="45.69225" lon="6.26695">
        <ele>2041.4000244141</ele>
        <time>2022-02-23T11:50:39.000Z</time>
      </trkpt>
      <trkpt lat="45.69225" lon="6.26695">
        <ele>2041.5999755859</ele>
        <time>2022-02-23T11:50:45.000Z</time>
      </trkpt>
      <trkpt lat="45.69222" lon="6.26692">
        <ele>2041.5999755859</ele>
        <time>2022-02-23T11:50:49.000Z</time>
      </trkpt>
      <trkpt lat="45.69222" lon="6.26692">
        <ele>2041.5999755859</ele>
        <time>2022-02-23T11:50:50.000Z</time>
      </trkpt>
      <trkpt lat="45.6922" lon="6.2669">
        <ele>2041.5999755859</ele>
        <time>2022-02-23T11:50:52.000Z</time>
      </trkpt>
      <trkpt lat="45.69222" lon="6.26693">
        <ele>2041.4000244141</ele>
        <time>2022-02-23T11:51:00.000Z</time>
      </trkpt>
      <trkpt lat="45.69222" lon="6.26693">
        <ele>2041.5999755859</ele>
        <time>2022-02-23T11:51:06.000Z</time>
      </trkpt>
      <trkpt lat="45.69223" lon="6.26693">
        <ele>2041</ele>
        <time>2022-02-23T11:51:12.000Z</time>
      </trkpt>
      <trkpt lat="45.69223" lon="6.26693">
        <ele>2042</ele>
        <time>2022-02-23T11:51:23.000Z</time>
      </trkpt>
      <trkpt lat="45.69221" lon="6.26693">
        <ele>2042</ele>
        <time>2022-02-23T11:51:27.000Z</time>
      </trkpt>
      <trkpt lat="45.69222" lon="6.26693">
        <ele>2042</ele>
        <time>2022-02-23T11:51:30.000Z</time>
      </trkpt>
      <trkpt lat="45.69222" lon="6.26693">
        <ele>2042</ele>
        <time>2022-02-23T11:51:31.000Z</time>
      </trkpt>
      <trkpt lat="45.69222" lon="6.26694">
        <ele>2042</ele>
        <time>2022-02-23T11:51:33.000Z</time>
      </trkpt>
      <trkpt lat="45.69223" lon="6.26683">
        <ele>2042</ele>
        <time>2022-02-23T11:51:45.000Z</time>
      </trkpt>
      <trkpt lat="45.69224" lon="6.26685">
        <ele>2042</ele>
        <time>2022-02-23T11:51:53.000Z</time>
      </trkpt>
      <trkpt lat="45.69222" lon="6.26672">
        <ele>2042</ele>
        <time>2022-02-23T11:51:57.000Z</time>
      </trkpt>
      <trkpt lat="45.6922" lon="6.26679">
        <ele>2042</ele>
        <time>2022-02-23T11:52:00.000Z</time>
      </trkpt>
      <trkpt lat="45.69219" lon="6.26691">
        <ele>2042</ele>
        <time>2022-02-23T11:52:06.000Z</time>
      </trkpt>
      <trkpt lat="45.69219" lon="6.267">
        <ele>2042</ele>
        <time>2022-02-23T11:52:09.000Z</time>
      </trkpt>
      <trkpt lat="45.69228" lon="6.26711">
        <ele>2042</ele>
        <time>2022-02-23T11:52:17.000Z</time>
      </trkpt>
      <trkpt lat="45.69228" lon="6.26703">
        <ele>2042</ele>
        <time>2022-02-23T11:52:24.000Z</time>
      </trkpt>
      <trkpt lat="45.69228" lon="6.26702">
        <ele>2042</ele>
        <time>2022-02-23T11:52:25.000Z</time>
      </trkpt>
      <trkpt lat="45.69228" lon="6.267">
        <ele>2042</ele>
        <time>2022-02-23T11:52:27.000Z</time>
      </trkpt>
      <trkpt lat="45.69228" lon="6.26698">
        <ele>2042</ele>
        <time>2022-02-23T11:52:33.000Z</time>
      </trkpt>
      <trkpt lat="45.69228" lon="6.26698">
        <ele>2042</ele>
        <time>2022-02-23T11:52:34.000Z</time>
      </trkpt>
      <trkpt lat="45.69227" lon="6.26696">
        <ele>2042</ele>
        <time>2022-02-23T11:52:40.000Z</time>
      </trkpt>
      <trkpt lat="45.69227" lon="6.26696">
        <ele>2042</ele>
        <time>2022-02-23T11:52:41.000Z</time>
      </trkpt>
      <trkpt lat="45.69232" lon="6.267">
        <ele>2042</ele>
        <time>2022-02-23T11:52:47.000Z</time>
      </trkpt>
      <trkpt lat="45.69231" lon="6.26697">
        <ele>2042</ele>
        <time>2022-02-23T11:52:49.000Z</time>
      </trkpt>
      <trkpt lat="45.69228" lon="6.26678">
        <ele>2042</ele>
        <time>2022-02-23T11:52:54.000Z</time>
      </trkpt>
      <trkpt lat="45.69227" lon="6.26677">
        <ele>2042</ele>
        <time>2022-02-23T11:52:55.000Z</time>
      </trkpt>
      <trkpt lat="45.69225" lon="6.26673">
        <ele>2042</ele>
        <time>2022-02-23T11:53:04.000Z</time>
      </trkpt>
      <trkpt lat="45.69226" lon="6.26677">
        <ele>2042</ele>
        <time>2022-02-23T11:53:13.000Z</time>
      </trkpt>
      <trkpt lat="45.69226" lon="6.26678">
        <ele>2042</ele>
        <time>2022-02-23T11:53:21.000Z</time>
      </trkpt>
      <trkpt lat="45.69226" lon="6.26678">
        <ele>2042</ele>
        <time>2022-02-23T11:53:23.000Z</time>
      </trkpt>
      <trkpt lat="45.6922" lon="6.26674">
        <ele>2042</ele>
        <time>2022-02-23T11:53:29.000Z</time>
      </trkpt>
      <trkpt lat="45.69217" lon="6.26692">
        <ele>2042</ele>
        <time>2022-02-23T11:53:36.000Z</time>
      </trkpt>
      <trkpt lat="45.69209" lon="6.26691">
        <ele>2042</ele>
        <time>2022-02-23T11:53:43.000Z</time>
      </trkpt>
      <trkpt lat="45.69208" lon="6.26689">
        <ele>2042</ele>
        <time>2022-02-23T11:53:44.000Z</time>
      </trkpt>
      <trkpt lat="45.69212" lon="6.26688">
        <ele>2042</ele>
        <time>2022-02-23T11:53:49.000Z</time>
      </trkpt>
      <trkpt lat="45.69212" lon="6.26687">
        <ele>2042</ele>
        <time>2022-02-23T11:53:53.000Z</time>
      </trkpt>
      <trkpt lat="45.69213" lon="6.26683">
        <ele>2042</ele>
        <time>2022-02-23T11:54:00.000Z</time>
      </trkpt>
      <trkpt lat="45.69212" lon="6.26684">
        <ele>2042</ele>
        <time>2022-02-23T11:54:02.000Z</time>
      </trkpt>
      <trkpt lat="45.69211" lon="6.26686">
        <ele>2042</ele>
        <time>2022-02-23T11:54:10.000Z</time>
      </trkpt>
      <trkpt lat="45.69216" lon="6.2669">
        <ele>2042</ele>
        <time>2022-02-23T11:54:17.000Z</time>
      </trkpt>
      <trkpt lat="45.69221" lon="6.26693">
        <ele>2042</ele>
        <time>2022-02-23T11:54:23.000Z</time>
      </trkpt>
      <trkpt lat="45.69221" lon="6.26693">
        <ele>2042</ele>
        <time>2022-02-23T11:54:25.000Z</time>
      </trkpt>
      <trkpt lat="45.69225" lon="6.26682">
        <ele>2042</ele>
        <time>2022-02-23T11:54:29.000Z</time>
      </trkpt>
      <trkpt lat="45.69228" lon="6.26674">
        <ele>2042</ele>
        <time>2022-02-23T11:54:33.000Z</time>
      </trkpt>
      <trkpt lat="45.69226" lon="6.26677">
        <ele>2042</ele>
        <time>2022-02-23T11:54:38.000Z</time>
      </trkpt>
      <trkpt lat="45.69225" lon="6.26681">
        <ele>2042</ele>
        <time>2022-02-23T11:54:44.000Z</time>
      </trkpt>
      <trkpt lat="45.69224" lon="6.26683">
        <ele>2042</ele>
        <time>2022-02-23T11:54:47.000Z</time>
      </trkpt>
      <trkpt lat="45.69223" lon="6.26684">
        <ele>2042</ele>
        <time>2022-02-23T11:54:49.000Z</time>
      </trkpt>
      <trkpt lat="45.69222" lon="6.26687">
        <ele>2042</ele>
        <time>2022-02-23T11:54:53.000Z</time>
      </trkpt>
      <trkpt lat="45.6922" lon="6.2669">
        <ele>2042</ele>
        <time>2022-02-23T11:54:58.000Z</time>
      </trkpt>
      <trkpt lat="45.6922" lon="6.26693">
        <ele>2042</ele>
        <time>2022-02-23T11:55:01.000Z</time>
      </trkpt>
      <trkpt lat="45.69219" lon="6.26694">
        <ele>2042</ele>
        <time>2022-02-23T11:55:02.000Z</time>
      </trkpt>
      <trkpt lat="45.69219" lon="6.26694">
        <ele>2042</ele>
        <time>2022-02-23T11:55:05.000Z</time>
      </trkpt>
      <trkpt lat="45.69218" lon="6.26694">
        <ele>2042</ele>
        <time>2022-02-23T11:55:06.000Z</time>
      </trkpt>
      <trkpt lat="45.69219" lon="6.26696">
        <ele>2042</ele>
        <time>2022-02-23T11:55:10.000Z</time>
      </trkpt>
      <trkpt lat="45.69216" lon="6.26695">
        <ele>2042</ele>
        <time>2022-02-23T11:55:14.000Z</time>
      </trkpt>
      <trkpt lat="45.69216" lon="6.26694">
        <ele>2042</ele>
        <time>2022-02-23T11:55:18.000Z</time>
      </trkpt>
      <trkpt lat="45.69215" lon="6.26692">
        <ele>2042</ele>
        <time>2022-02-23T11:55:21.000Z</time>
      </trkpt>
      <trkpt lat="45.69215" lon="6.26692">
        <ele>2042</ele>
        <time>2022-02-23T11:55:22.000Z</time>
      </trkpt>
      <trkpt lat="45.69215" lon="6.26691">
        <ele>2042</ele>
        <time>2022-02-23T11:55:23.000Z</time>
      </trkpt>
      <trkpt lat="45.69215" lon="6.26691">
        <ele>2042</ele>
        <time>2022-02-23T11:55:24.000Z</time>
      </trkpt>
      <trkpt lat="45.69215" lon="6.26691">
        <ele>2048</ele>
        <time>2022-02-23T11:55:25.000Z</time>
      </trkpt>
      <trkpt lat="45.69215" lon="6.26691">
        <ele>2048</ele>
        <time>2022-02-23T11:55:27.000Z</time>
      </trkpt>
      <trkpt lat="45.69216" lon="6.26691">
        <ele>2047.8000488281</ele>
        <time>2022-02-23T11:55:29.000Z</time>
      </trkpt>
      <trkpt lat="45.69216" lon="6.26691">
        <ele>2047.8000488281</ele>
        <time>2022-02-23T11:55:31.000Z</time>
      </trkpt>
      <trkpt lat="45.69215" lon="6.2669">
        <ele>2047.8000488281</ele>
        <time>2022-02-23T11:55:35.000Z</time>
      </trkpt>
      <trkpt lat="45.69214" lon="6.2669">
        <ele>2048.1999511719</ele>
        <time>2022-02-23T11:55:40.000Z</time>
      </trkpt>
      <trkpt lat="45.69214" lon="6.26691">
        <ele>2048.6000976562</ele>
        <time>2022-02-23T11:55:43.000Z</time>
      </trkpt>
      <trkpt lat="45.69212" lon="6.26693">
        <ele>2048.6000976562</ele>
        <time>2022-02-23T11:55:49.000Z</time>
      </trkpt>
      <trkpt lat="45.69212" lon="6.26694">
        <ele>2048.3999023438</ele>
        <time>2022-02-23T11:55:58.000Z</time>
      </trkpt>
      <trkpt lat="45.69211" lon="6.26693">
        <ele>2048.3999023438</ele>
        <time>2022-02-23T11:56:00.000Z</time>
      </trkpt>
      <trkpt lat="45.69209" lon="6.26692">
        <ele>2048.8000488281</ele>
        <time>2022-02-23T11:56:05.000Z</time>
      </trkpt>
      <trkpt lat="45.69209" lon="6.26692">
        <ele>2049.1999511719</ele>
        <time>2022-02-23T11:56:06.000Z</time>
      </trkpt>
      <trkpt lat="45.69207" lon="6.2669">
        <ele>2050.1999511719</ele>
        <time>2022-02-23T11:56:09.000Z</time>
      </trkpt>
      <trkpt lat="45.69206" lon="6.26689">
        <ele>2050.3999023438</ele>
        <time>2022-02-23T11:56:10.000Z</time>
      </trkpt>
      <trkpt lat="45.69205" lon="6.26687">
        <ele>2050.8000488281</ele>
        <time>2022-02-23T11:56:12.000Z</time>
      </trkpt>
      <trkpt lat="45.69204" lon="6.26688">
        <ele>2051</ele>
        <time>2022-02-23T11:56:14.000Z</time>
      </trkpt>
      <trkpt lat="45.69204" lon="6.26689">
        <ele>2051.6000976562</ele>
        <time>2022-02-23T11:56:15.000Z</time>
      </trkpt>
      <trkpt lat="45.69203" lon="6.26689">
        <ele>2052.1999511719</ele>
        <time>2022-02-23T11:56:18.000Z</time>
      </trkpt>
      <trkpt lat="45.69205" lon="6.26694">
        <ele>2052.6000976562</ele>
        <time>2022-02-23T11:56:23.000Z</time>
      </trkpt>
      <trkpt lat="45.69205" lon="6.26694">
        <ele>2052.8000488281</ele>
        <time>2022-02-23T11:56:24.000Z</time>
      </trkpt>
      <trkpt lat="45.6921" lon="6.26698">
        <ele>2053</ele>
        <time>2022-02-23T11:56:29.000Z</time>
      </trkpt>
      <trkpt lat="45.69222" lon="6.2672">
        <ele>2053.6000976562</ele>
        <time>2022-02-23T11:56:34.000Z</time>
      </trkpt>
      <trkpt lat="45.69224" lon="6.26724">
        <ele>2053.8000488281</ele>
        <time>2022-02-23T11:56:35.000Z</time>
      </trkpt>
      <trkpt lat="45.69231" lon="6.26731">
        <ele>2055</ele>
        <time>2022-02-23T11:56:41.000Z</time>
      </trkpt>
      <trkpt lat="45.69236" lon="6.2674">
        <ele>2055.1999511719</ele>
        <time>2022-02-23T11:56:44.000Z</time>
      </trkpt>
      <trkpt lat="45.69241" lon="6.26745">
        <ele>2055.3999023438</ele>
        <time>2022-02-23T11:56:47.000Z</time>
      </trkpt>
      <trkpt lat="45.69247" lon="6.26752">
        <ele>2056</ele>
        <time>2022-02-23T11:56:51.000Z</time>
      </trkpt>
      <trkpt lat="45.69245" lon="6.26752">
        <ele>2056.1999511719</ele>
        <time>2022-02-23T11:56:52.000Z</time>
      </trkpt>
      <trkpt lat="45.69245" lon="6.26752">
        <ele>2056.3999023438</ele>
        <time>2022-02-23T11:56:53.000Z</time>
      </trkpt>
      <trkpt lat="45.69245" lon="6.26752">
        <ele>2056.6000976562</ele>
        <time>2022-02-23T11:56:54.000Z</time>
      </trkpt>
      <trkpt lat="45.69249" lon="6.26759">
        <ele>2056.8000488281</ele>
        <time>2022-02-23T11:56:56.000Z</time>
      </trkpt>
      <trkpt lat="45.69249" lon="6.26759">
        <ele>2057.1999511719</ele>
        <time>2022-02-23T11:56:57.000Z</time>
      </trkpt>
      <trkpt lat="45.6925" lon="6.26758">
        <ele>2057.1999511719</ele>
        <time>2022-02-23T11:56:58.000Z</time>
      </trkpt>
      <trkpt lat="45.69248" lon="6.2675">
        <ele>2057.8000488281</ele>
        <time>2022-02-23T11:57:01.000Z</time>
      </trkpt>
      <trkpt lat="45.69252" lon="6.26757">
        <ele>2058.3999023438</ele>
        <time>2022-02-23T11:57:04.000Z</time>
      </trkpt>
      <trkpt lat="45.69252" lon="6.26755">
        <ele>2058.8000488281</ele>
        <time>2022-02-23T11:57:06.000Z</time>
      </trkpt>
      <trkpt lat="45.69254" lon="6.26753">
        <ele>2059</ele>
        <time>2022-02-23T11:57:08.000Z</time>
      </trkpt>
      <trkpt lat="45.69258" lon="6.26758">
        <ele>2059.1999511719</ele>
        <time>2022-02-23T11:57:11.000Z</time>
      </trkpt>
      <trkpt lat="45.6926" lon="6.26754">
        <ele>2059.3999023438</ele>
        <time>2022-02-23T11:57:14.000Z</time>
      </trkpt>
      <trkpt lat="45.69267" lon="6.2676">
        <ele>2059.6000976562</ele>
        <time>2022-02-23T11:57:17.000Z</time>
      </trkpt>
      <trkpt lat="45.69264" lon="6.26755">
        <ele>2059.8000488281</ele>
        <time>2022-02-23T11:57:19.000Z</time>
      </trkpt>
      <trkpt lat="45.69271" lon="6.26764">
        <ele>2060.6000976562</ele>
        <time>2022-02-23T11:57:22.000Z</time>
      </trkpt>
      <trkpt lat="45.69271" lon="6.26764">
        <ele>2060.8000488281</ele>
        <time>2022-02-23T11:57:23.000Z</time>
      </trkpt>
      <trkpt lat="45.69284" lon="6.2678">
        <ele>2061.3999023438</ele>
        <time>2022-02-23T11:57:30.000Z</time>
      </trkpt>
      <trkpt lat="45.69287" lon="6.26785">
        <ele>2061.6000976562</ele>
        <time>2022-02-23T11:57:32.000Z</time>
      </trkpt>
      <trkpt lat="45.69294" lon="6.26798">
        <ele>2062.8000488281</ele>
        <time>2022-02-23T11:57:37.000Z</time>
      </trkpt>
      <trkpt lat="45.69299" lon="6.26794">
        <ele>2063.6000976562</ele>
        <time>2022-02-23T11:57:42.000Z</time>
      </trkpt>
      <trkpt lat="45.69298" lon="6.26792">
        <ele>2063.8000488281</ele>
        <time>2022-02-23T11:57:43.000Z</time>
      </trkpt>
      <trkpt lat="45.69297" lon="6.2679">
        <ele>2063.8000488281</ele>
        <time>2022-02-23T11:57:44.000Z</time>
      </trkpt>
      <trkpt lat="45.69296" lon="6.26788">
        <ele>2063.8000488281</ele>
        <time>2022-02-23T11:57:45.000Z</time>
      </trkpt>
      <trkpt lat="45.69296" lon="6.2678">
        <ele>2064.1999511719</ele>
        <time>2022-02-23T11:57:48.000Z</time>
      </trkpt>
      <trkpt lat="45.69297" lon="6.26781">
        <ele>2064.1999511719</ele>
        <time>2022-02-23T11:57:49.000Z</time>
      </trkpt>
      <trkpt lat="45.69298" lon="6.26781">
        <ele>2064.8000488281</ele>
        <time>2022-02-23T11:57:52.000Z</time>
      </trkpt>
      <trkpt lat="45.69296" lon="6.26766">
        <ele>2065.3999023438</ele>
        <time>2022-02-23T11:57:56.000Z</time>
      </trkpt>
      <trkpt lat="45.69281" lon="6.26731">
        <ele>2066</ele>
        <time>2022-02-23T11:58:01.000Z</time>
      </trkpt>
      <trkpt lat="45.69279" lon="6.26725">
        <ele>2066</ele>
        <time>2022-02-23T11:58:02.000Z</time>
      </trkpt>
      <trkpt lat="45.69274" lon="6.26711">
        <ele>2066.8000488281</ele>
        <time>2022-02-23T11:58:05.000Z</time>
      </trkpt>
      <trkpt lat="45.6927" lon="6.26701">
        <ele>2067</ele>
        <time>2022-02-23T11:58:07.000Z</time>
      </trkpt>
      <trkpt lat="45.69265" lon="6.2669">
        <ele>2067.1999511719</ele>
        <time>2022-02-23T11:58:12.000Z</time>
      </trkpt>
      <trkpt lat="45.69263" lon="6.26694">
        <ele>2067.8000488281</ele>
        <time>2022-02-23T11:58:20.000Z</time>
      </trkpt>
      <trkpt lat="45.69263" lon="6.26694">
        <ele>2068</ele>
        <time>2022-02-23T11:58:23.000Z</time>
      </trkpt>
      <trkpt lat="45.69263" lon="6.26694">
        <ele>2068.1999511719</ele>
        <time>2022-02-23T11:58:30.000Z</time>
      </trkpt>
      <trkpt lat="45.69261" lon="6.26693">
        <ele>2068.1999511719</ele>
        <time>2022-02-23T11:58:37.000Z</time>
      </trkpt>
      <trkpt lat="45.6926" lon="6.26693">
        <ele>2068.3999023438</ele>
        <time>2022-02-23T11:58:39.000Z</time>
      </trkpt>
      <trkpt lat="45.69258" lon="6.26694">
        <ele>2068.6000976562</ele>
        <time>2022-02-23T11:58:43.000Z</time>
      </trkpt>
      <trkpt lat="45.69257" lon="6.26694">
        <ele>2068.6000976562</ele>
        <time>2022-02-23T11:58:44.000Z</time>
      </trkpt>
      <trkpt lat="45.69251" lon="6.26702">
        <ele>2069</ele>
        <time>2022-02-23T11:58:48.000Z</time>
      </trkpt>
      <trkpt lat="45.69247" lon="6.26708">
        <ele>2069.1999511719</ele>
        <time>2022-02-23T11:58:49.000Z</time>
      </trkpt>
      <trkpt lat="45.69238" lon="6.26711">
        <ele>2069.8000488281</ele>
        <time>2022-02-23T11:58:52.000Z</time>
      </trkpt>
      <trkpt lat="45.69236" lon="6.2671">
        <ele>2070.1999511719</ele>
        <time>2022-02-23T11:58:54.000Z</time>
      </trkpt>
      <trkpt lat="45.69234" lon="6.26709">
        <ele>2070.3999023438</ele>
        <time>2022-02-23T11:58:56.000Z</time>
      </trkpt>
      <trkpt lat="45.69234" lon="6.26708">
        <ele>2070.6000976562</ele>
        <time>2022-02-23T11:58:57.000Z</time>
      </trkpt>
      <trkpt lat="45.69232" lon="6.26708">
        <ele>2070.8000488281</ele>
        <time>2022-02-23T11:58:59.000Z</time>
      </trkpt>
      <trkpt lat="45.6923" lon="6.26706">
        <ele>2070.8000488281</ele>
        <time>2022-02-23T11:59:02.000Z</time>
      </trkpt>
      <trkpt lat="45.69228" lon="6.26705">
        <ele>2070.8000488281</ele>
        <time>2022-02-23T11:59:04.000Z</time>
      </trkpt>
      <trkpt lat="45.69227" lon="6.26703">
        <ele>2071.3999023438</ele>
        <time>2022-02-23T11:59:06.000Z</time>
      </trkpt>
      <trkpt lat="45.69227" lon="6.26703">
        <ele>2071.8000488281</ele>
        <time>2022-02-23T11:59:07.000Z</time>
      </trkpt>
      <trkpt lat="45.69226" lon="6.26702">
        <ele>2072</ele>
        <time>2022-02-23T11:59:08.000Z</time>
      </trkpt>
      <trkpt lat="45.69224" lon="6.267">
        <ele>2072.6000976562</ele>
        <time>2022-02-23T11:59:11.000Z</time>
      </trkpt>
      <trkpt lat="45.69224" lon="6.267">
        <ele>2072.8000488281</ele>
        <time>2022-02-23T11:59:12.000Z</time>
      </trkpt>
      <trkpt lat="45.69223" lon="6.26699">
        <ele>2073</ele>
        <time>2022-02-23T11:59:13.000Z</time>
      </trkpt>
      <trkpt lat="45.69222" lon="6.26698">
        <ele>2073.1999511719</ele>
        <time>2022-02-23T11:59:15.000Z</time>
      </trkpt>
      <trkpt lat="45.69221" lon="6.26698">
        <ele>2073.1999511719</ele>
        <time>2022-02-23T11:59:16.000Z</time>
      </trkpt>
      <trkpt lat="45.69221" lon="6.26698">
        <ele>2073.1999511719</ele>
        <time>2022-02-23T11:59:17.000Z</time>
      </trkpt>
      <trkpt lat="45.6922" lon="6.26696">
        <ele>2073.6000976562</ele>
        <time>2022-02-23T11:59:19.000Z</time>
      </trkpt>
      <trkpt lat="45.6922" lon="6.26695">
        <ele>2073.8000488281</ele>
        <time>2022-02-23T11:59:20.000Z</time>
      </trkpt>
      <trkpt lat="45.69219" lon="6.26695">
        <ele>2074</ele>
        <time>2022-02-23T11:59:21.000Z</time>
      </trkpt>
      <trkpt lat="45.69218" lon="6.26693">
        <ele>2074.3999023438</ele>
        <time>2022-02-23T11:59:23.000Z</time>
      </trkpt>
      <trkpt lat="45.69218" lon="6.26693">
        <ele>2074.3999023438</ele>
        <time>2022-02-23T11:59:24.000Z</time>
      </trkpt>
      <trkpt lat="45.69217" lon="6.26692">
        <ele>2074.6000976562</ele>
        <time>2022-02-23T11:59:25.000Z</time>
      </trkpt>
      <trkpt lat="45.69216" lon="6.2669">
        <ele>2075</ele>
        <time>2022-02-23T11:59:27.000Z</time>
      </trkpt>
      <trkpt lat="45.69216" lon="6.2669">
        <ele>2075</ele>
        <time>2022-02-23T11:59:28.000Z</time>
      </trkpt>
      <trkpt lat="45.69215" lon="6.26689">
        <ele>2075.1999511719</ele>
        <time>2022-02-23T11:59:29.000Z</time>
      </trkpt>
      <trkpt lat="45.69214" lon="6.26687">
        <ele>2075.3999023438</ele>
        <time>2022-02-23T11:59:31.000Z</time>
      </trkpt>
      <trkpt lat="45.69213" lon="6.26686">
        <ele>2075.6000976562</ele>
        <time>2022-02-23T11:59:32.000Z</time>
      </trkpt>
      <trkpt lat="45.69213" lon="6.26685">
        <ele>2076</ele>
        <time>2022-02-23T11:59:33.000Z</time>
      </trkpt>
      <trkpt lat="45.69212" lon="6.26684">
        <ele>2076.1999511719</ele>
        <time>2022-02-23T11:59:34.000Z</time>
      </trkpt>
      <trkpt lat="45.69211" lon="6.26683">
        <ele>2076.3999023438</ele>
        <time>2022-02-23T11:59:35.000Z</time>
      </trkpt>
      <trkpt lat="45.6921" lon="6.26682">
        <ele>2076.8000488281</ele>
        <time>2022-02-23T11:59:37.000Z</time>
      </trkpt>
      <trkpt lat="45.69209" lon="6.2668">
        <ele>2077</ele>
        <time>2022-02-23T11:59:39.000Z</time>
      </trkpt>
      <trkpt lat="45.69208" lon="6.26679">
        <ele>2077</ele>
        <time>2022-02-23T11:59:41.000Z</time>
      </trkpt>
      <trkpt lat="45.69208" lon="6.26679">
        <ele>2077</ele>
        <time>2022-02-23T11:59:43.000Z</time>
      </trkpt>
      <trkpt lat="45.69208" lon="6.26679">
        <ele>2077.3999023438</ele>
        <time>2022-02-23T11:59:44.000Z</time>
      </trkpt>
      <trkpt lat="45.69207" lon="6.26678">
        <ele>2078</ele>
        <time>2022-02-23T11:59:46.000Z</time>
      </trkpt>
      <trkpt lat="45.69207" lon="6.26678">
        <ele>2078.1999511719</ele>
        <time>2022-02-23T11:59:47.000Z</time>
      </trkpt>
      <trkpt lat="45.69206" lon="6.26677">
        <ele>2078.6000976562</ele>
        <time>2022-02-23T11:59:48.000Z</time>
      </trkpt>
      <trkpt lat="45.69206" lon="6.26677">
        <ele>2078.8000488281</ele>
        <time>2022-02-23T11:59:50.000Z</time>
      </trkpt>
      <trkpt lat="45.69206" lon="6.26676">
        <ele>2079</ele>
        <time>2022-02-23T11:59:51.000Z</time>
      </trkpt>
      <trkpt lat="45.69206" lon="6.26676">
        <ele>2079</ele>
        <time>2022-02-23T11:59:52.000Z</time>
      </trkpt>
      <trkpt lat="45.69205" lon="6.26675">
        <ele>2079</ele>
        <time>2022-02-23T11:59:54.000Z</time>
      </trkpt>
      <trkpt lat="45.69205" lon="6.26674">
        <ele>2079.3999023438</ele>
        <time>2022-02-23T11:59:55.000Z</time>
      </trkpt>
      <trkpt lat="45.69204" lon="6.26674">
        <ele>2079.8000488281</ele>
        <time>2022-02-23T11:59:56.000Z</time>
      </trkpt>
      <trkpt lat="45.69202" lon="6.2667">
        <ele>2080.1999511719</ele>
        <time>2022-02-23T12:00:01.000Z</time>
      </trkpt>
      <trkpt lat="45.69201" lon="6.26669">
        <ele>2080.3999023438</ele>
        <time>2022-02-23T12:00:04.000Z</time>
      </trkpt>
      <trkpt lat="45.69199" lon="6.26667">
        <ele>2080.6000976562</ele>
        <time>2022-02-23T12:00:07.000Z</time>
      </trkpt>
      <trkpt lat="45.69199" lon="6.26666">
        <ele>2080.8000488281</ele>
        <time>2022-02-23T12:00:08.000Z</time>
      </trkpt>
      <trkpt lat="45.69198" lon="6.26666">
        <ele>2081</ele>
        <time>2022-02-23T12:00:09.000Z</time>
      </trkpt>
      <trkpt lat="45.69197" lon="6.26664">
        <ele>2081.3999023438</ele>
        <time>2022-02-23T12:00:13.000Z</time>
      </trkpt>
      <trkpt lat="45.69195" lon="6.2666">
        <ele>2082</ele>
        <time>2022-02-23T12:00:19.000Z</time>
      </trkpt>
      <trkpt lat="45.69194" lon="6.26659">
        <ele>2082</ele>
        <time>2022-02-23T12:00:20.000Z</time>
      </trkpt>
      <trkpt lat="45.69191" lon="6.26657">
        <ele>2082.3999023438</ele>
        <time>2022-02-23T12:00:25.000Z</time>
      </trkpt>
      <trkpt lat="45.69189" lon="6.26654">
        <ele>2083.1999511719</ele>
        <time>2022-02-23T12:00:28.000Z</time>
      </trkpt>
      <trkpt lat="45.69189" lon="6.26652">
        <ele>2083.1999511719</ele>
        <time>2022-02-23T12:00:29.000Z</time>
      </trkpt>
      <trkpt lat="45.69187" lon="6.26648">
        <ele>2083.3999023438</ele>
        <time>2022-02-23T12:00:32.000Z</time>
      </trkpt>
      <trkpt lat="45.69185" lon="6.26648">
        <ele>2084.1999511719</ele>
        <time>2022-02-23T12:00:37.000Z</time>
      </trkpt>
      <trkpt lat="45.69184" lon="6.26647">
        <ele>2084.3999023438</ele>
        <time>2022-02-23T12:00:39.000Z</time>
      </trkpt>
      <trkpt lat="45.6918" lon="6.26641">
        <ele>2085.3999023438</ele>
        <time>2022-02-23T12:00:43.000Z</time>
      </trkpt>
      <trkpt lat="45.69179" lon="6.26639">
        <ele>2085.3999023438</ele>
        <time>2022-02-23T12:00:44.000Z</time>
      </trkpt>
      <trkpt lat="45.69175" lon="6.26633">
        <ele>2086.1999511719</ele>
        <time>2022-02-23T12:00:48.000Z</time>
      </trkpt>
      <trkpt lat="45.69173" lon="6.26633">
        <ele>2086.3999023438</ele>
        <time>2022-02-23T12:00:50.000Z</time>
      </trkpt>
      <trkpt lat="45.69174" lon="6.26634">
        <ele>2086.6000976562</ele>
        <time>2022-02-23T12:00:51.000Z</time>
      </trkpt>
      <trkpt lat="45.69174" lon="6.26633">
        <ele>2086.8000488281</ele>
        <time>2022-02-23T12:00:53.000Z</time>
      </trkpt>
      <trkpt lat="45.69172" lon="6.26631">
        <ele>2086.6000976562</ele>
        <time>2022-02-23T12:00:59.000Z</time>
      </trkpt>
      <trkpt lat="45.69173" lon="6.26629">
        <ele>2086.8000488281</ele>
        <time>2022-02-23T12:01:06.000Z</time>
      </trkpt>
      <trkpt lat="45.6917" lon="6.26624">
        <ele>2087</ele>
        <time>2022-02-23T12:01:11.000Z</time>
      </trkpt>
      <trkpt lat="45.6917" lon="6.26622">
        <ele>2087.8000488281</ele>
        <time>2022-02-23T12:01:13.000Z</time>
      </trkpt>
      <trkpt lat="45.69169" lon="6.26615">
        <ele>2088.3999023438</ele>
        <time>2022-02-23T12:01:18.000Z</time>
      </trkpt>
      <trkpt lat="45.69169" lon="6.2661">
        <ele>2089</ele>
        <time>2022-02-23T12:01:21.000Z</time>
      </trkpt>
      <trkpt lat="45.69169" lon="6.26604">
        <ele>2089.6000976562</ele>
        <time>2022-02-23T12:01:25.000Z</time>
      </trkpt>
      <trkpt lat="45.69171" lon="6.26604">
        <ele>2090</ele>
        <time>2022-02-23T12:01:27.000Z</time>
      </trkpt>
      <trkpt lat="45.69174" lon="6.26609">
        <ele>2090.3999023438</ele>
        <time>2022-02-23T12:01:33.000Z</time>
      </trkpt>
      <trkpt lat="45.69173" lon="6.26607">
        <ele>2090.1999511719</ele>
        <time>2022-02-23T12:01:35.000Z</time>
      </trkpt>
      <trkpt lat="45.69172" lon="6.26606">
        <ele>2090.3999023438</ele>
        <time>2022-02-23T12:01:39.000Z</time>
      </trkpt>
      <trkpt lat="45.69169" lon="6.26602">
        <ele>2091</ele>
        <time>2022-02-23T12:01:44.000Z</time>
      </trkpt>
      <trkpt lat="45.69168" lon="6.266">
        <ele>2091</ele>
        <time>2022-02-23T12:01:46.000Z</time>
      </trkpt>
      <trkpt lat="45.6917" lon="6.26598">
        <ele>2091</ele>
        <time>2022-02-23T12:01:52.000Z</time>
      </trkpt>
      <trkpt lat="45.69176" lon="6.26603">
        <ele>2092</ele>
        <time>2022-02-23T12:02:00.000Z</time>
      </trkpt>
      <trkpt lat="45.69177" lon="6.26603">
        <ele>2092.1999511719</ele>
        <time>2022-02-23T12:02:01.000Z</time>
      </trkpt>
      <trkpt lat="45.69178" lon="6.26603">
        <ele>2093</ele>
        <time>2022-02-23T12:02:07.000Z</time>
      </trkpt>
      <trkpt lat="45.69178" lon="6.26603">
        <ele>2093</ele>
        <time>2022-02-23T12:02:08.000Z</time>
      </trkpt>
      <trkpt lat="45.69178" lon="6.26603">
        <ele>2093.1999511719</ele>
        <time>2022-02-23T12:02:09.000Z</time>
      </trkpt>
      <trkpt lat="45.69178" lon="6.26599">
        <ele>2094</ele>
        <time>2022-02-23T12:02:15.000Z</time>
      </trkpt>
      <trkpt lat="45.69178" lon="6.26599">
        <ele>2094</ele>
        <time>2022-02-23T12:02:17.000Z</time>
      </trkpt>
      <trkpt lat="45.69179" lon="6.26602">
        <ele>2094</ele>
        <time>2022-02-23T12:02:24.000Z</time>
      </trkpt>
      <trkpt lat="45.69178" lon="6.26603">
        <ele>2094.8000488281</ele>
        <time>2022-02-23T12:02:29.000Z</time>
      </trkpt>
      <trkpt lat="45.69178" lon="6.26603">
        <ele>2095.1999511719</ele>
        <time>2022-02-23T12:02:31.000Z</time>
      </trkpt>
      <trkpt lat="45.69177" lon="6.26603">
        <ele>2095.6000976562</ele>
        <time>2022-02-23T12:02:33.000Z</time>
      </trkpt>
      <trkpt lat="45.69177" lon="6.26603">
        <ele>2096.1999511719</ele>
        <time>2022-02-23T12:02:35.000Z</time>
      </trkpt>
      <trkpt lat="45.69175" lon="6.26603">
        <ele>2096.8000488281</ele>
        <time>2022-02-23T12:02:38.000Z</time>
      </trkpt>
      <trkpt lat="45.69174" lon="6.26604">
        <ele>2097</ele>
        <time>2022-02-23T12:02:43.000Z</time>
      </trkpt>
      <trkpt lat="45.69173" lon="6.26604">
        <ele>2097.3999023438</ele>
        <time>2022-02-23T12:02:45.000Z</time>
      </trkpt>
      <trkpt lat="45.69172" lon="6.26604">
        <ele>2097.8000488281</ele>
        <time>2022-02-23T12:02:48.000Z</time>
      </trkpt>
      <trkpt lat="45.69171" lon="6.26604">
        <ele>2098.1999511719</ele>
        <time>2022-02-23T12:02:51.000Z</time>
      </trkpt>
      <trkpt lat="45.6917" lon="6.26605">
        <ele>2098.6000976562</ele>
        <time>2022-02-23T12:02:53.000Z</time>
      </trkpt>
      <trkpt lat="45.69168" lon="6.26605">
        <ele>2099.1999511719</ele>
        <time>2022-02-23T12:02:58.000Z</time>
      </trkpt>
      <trkpt lat="45.69167" lon="6.26605">
        <ele>2099.8000488281</ele>
        <time>2022-02-23T12:02:59.000Z</time>
      </trkpt>
      <trkpt lat="45.69166" lon="6.26605">
        <ele>2100.1999511719</ele>
        <time>2022-02-23T12:03:02.000Z</time>
      </trkpt>
      <trkpt lat="45.69164" lon="6.26605">
        <ele>2100.3999023438</ele>
        <time>2022-02-23T12:03:04.000Z</time>
      </trkpt>
      <trkpt lat="45.69163" lon="6.26605">
        <ele>2100.3999023438</ele>
        <time>2022-02-23T12:03:06.000Z</time>
      </trkpt>
      <trkpt lat="45.69162" lon="6.26606">
        <ele>2100.8000488281</ele>
        <time>2022-02-23T12:03:09.000Z</time>
      </trkpt>
      <trkpt lat="45.69161" lon="6.26606">
        <ele>2100.8000488281</ele>
        <time>2022-02-23T12:03:11.000Z</time>
      </trkpt>
      <trkpt lat="45.69159" lon="6.26606">
        <ele>2101.6000976562</ele>
        <time>2022-02-23T12:03:15.000Z</time>
      </trkpt>
      <trkpt lat="45.69158" lon="6.26606">
        <ele>2101.8000488281</ele>
        <time>2022-02-23T12:03:18.000Z</time>
      </trkpt>
      <trkpt lat="45.69158" lon="6.26606">
        <ele>2101.8000488281</ele>
        <time>2022-02-23T12:03:19.000Z</time>
      </trkpt>
      <trkpt lat="45.69156" lon="6.26606">
        <ele>2102.1999511719</ele>
        <time>2022-02-23T12:03:23.000Z</time>
      </trkpt>
      <trkpt lat="45.69155" lon="6.26607">
        <ele>2102.6000976562</ele>
        <time>2022-02-23T12:03:24.000Z</time>
      </trkpt>
      <trkpt lat="45.69154" lon="6.26607">
        <ele>2103</ele>
        <time>2022-02-23T12:03:26.000Z</time>
      </trkpt>
      <trkpt lat="45.69152" lon="6.26608">
        <ele>2104</ele>
        <time>2022-02-23T12:03:30.000Z</time>
      </trkpt>
      <trkpt lat="45.69152" lon="6.26609">
        <ele>2104</ele>
        <time>2022-02-23T12:03:31.000Z</time>
      </trkpt>
      <trkpt lat="45.69151" lon="6.26609">
        <ele>2104.3999023438</ele>
        <time>2022-02-23T12:03:38.000Z</time>
      </trkpt>
      <trkpt lat="45.69151" lon="6.26608">
        <ele>2104.1999511719</ele>
        <time>2022-02-23T12:03:42.000Z</time>
      </trkpt>
      <trkpt lat="45.69149" lon="6.26608">
        <ele>2104.3999023438</ele>
        <time>2022-02-23T12:03:48.000Z</time>
      </trkpt>
      <trkpt lat="45.69149" lon="6.26608">
        <ele>2104.6000976562</ele>
        <time>2022-02-23T12:03:49.000Z</time>
      </trkpt>
      <trkpt lat="45.69149" lon="6.26607">
        <ele>2105.1999511719</ele>
        <time>2022-02-23T12:03:52.000Z</time>
      </trkpt>
      <trkpt lat="45.69149" lon="6.26607">
        <ele>2105.3999023438</ele>
        <time>2022-02-23T12:03:54.000Z</time>
      </trkpt>
      <trkpt lat="45.69149" lon="6.26607">
        <ele>2105.6000976562</ele>
        <time>2022-02-23T12:03:58.000Z</time>
      </trkpt>
      <trkpt lat="45.69149" lon="6.26607">
        <ele>2105.3999023438</ele>
        <time>2022-02-23T12:04:00.000Z</time>
      </trkpt>
      <trkpt lat="45.69149" lon="6.26607">
        <ele>2105.6000976562</ele>
        <time>2022-02-23T12:04:07.000Z</time>
      </trkpt>
      <trkpt lat="45.69148" lon="6.26607">
        <ele>2105.6000976562</ele>
        <time>2022-02-23T12:04:12.000Z</time>
      </trkpt>
      <trkpt lat="45.69148" lon="6.26605">
        <ele>2105.3999023438</ele>
        <time>2022-02-23T12:04:18.000Z</time>
      </trkpt>
      <trkpt lat="45.69149" lon="6.266">
        <ele>2105.8000488281</ele>
        <time>2022-02-23T12:04:25.000Z</time>
      </trkpt>
      <trkpt lat="45.69147" lon="6.26596">
        <ele>2106.1999511719</ele>
        <time>2022-02-23T12:04:30.000Z</time>
      </trkpt>
      <trkpt lat="45.69146" lon="6.26594">
        <ele>2106.3999023438</ele>
        <time>2022-02-23T12:04:32.000Z</time>
      </trkpt>
      <trkpt lat="45.69148" lon="6.26593">
        <ele>2105.8000488281</ele>
        <time>2022-02-23T12:04:40.000Z</time>
      </trkpt>
      <trkpt lat="45.69148" lon="6.26573">
        <ele>2106.8000488281</ele>
        <time>2022-02-23T12:04:48.000Z</time>
      </trkpt>
      <trkpt lat="45.69146" lon="6.26578">
        <ele>2106.8000488281</ele>
        <time>2022-02-23T12:04:55.000Z</time>
      </trkpt>
      <trkpt lat="45.69146" lon="6.26582">
        <ele>2106.3999023438</ele>
        <time>2022-02-23T12:04:57.000Z</time>
      </trkpt>
      <trkpt lat="45.69148" lon="6.26586">
        <ele>2106</ele>
        <time>2022-02-23T12:05:02.000Z</time>
      </trkpt>
      <trkpt lat="45.69148" lon="6.26587">
        <ele>2106.3999023438</ele>
        <time>2022-02-23T12:05:06.000Z</time>
      </trkpt>
      <trkpt lat="45.69148" lon="6.26589">
        <ele>2106.3999023438</ele>
        <time>2022-02-23T12:05:09.000Z</time>
      </trkpt>
      <trkpt lat="45.69147" lon="6.26585">
        <ele>2106</ele>
        <time>2022-02-23T12:05:12.000Z</time>
      </trkpt>
      <trkpt lat="45.69147" lon="6.26584">
        <ele>2106</ele>
        <time>2022-02-23T12:05:13.000Z</time>
      </trkpt>
      <trkpt lat="45.69147" lon="6.26583">
        <ele>2106</ele>
        <time>2022-02-23T12:05:15.000Z</time>
      </trkpt>
      <trkpt lat="45.69147" lon="6.26582">
        <ele>2106</ele>
        <time>2022-02-23T12:05:17.000Z</time>
      </trkpt>
      <trkpt lat="45.69146" lon="6.26589">
        <ele>2106</ele>
        <time>2022-02-23T12:05:20.000Z</time>
      </trkpt>
      <trkpt lat="45.69148" lon="6.26594">
        <ele>2106</ele>
        <time>2022-02-23T12:05:23.000Z</time>
      </trkpt>
      <trkpt lat="45.69147" lon="6.2659">
        <ele>2106.1999511719</ele>
        <time>2022-02-23T12:05:30.000Z</time>
      </trkpt>
      <trkpt lat="45.69147" lon="6.2659">
        <ele>2106.1999511719</ele>
        <time>2022-02-23T12:05:32.000Z</time>
      </trkpt>
      <trkpt lat="45.69148" lon="6.2659">
        <ele>2106.8000488281</ele>
        <time>2022-02-23T12:05:38.000Z</time>
      </trkpt>
      <trkpt lat="45.69147" lon="6.26591">
        <ele>2106.8000488281</ele>
        <time>2022-02-23T12:05:39.000Z</time>
      </trkpt>
      <trkpt lat="45.69148" lon="6.2659">
        <ele>2107.1999511719</ele>
        <time>2022-02-23T12:05:48.000Z</time>
      </trkpt>
      <trkpt lat="45.69149" lon="6.26591">
        <ele>2106.1999511719</ele>
        <time>2022-02-23T12:05:55.000Z</time>
      </trkpt>
      <trkpt lat="45.69149" lon="6.26591">
        <ele>2106.1999511719</ele>
        <time>2022-02-23T12:05:56.000Z</time>
      </trkpt>
      <trkpt lat="45.69149" lon="6.2659">
        <ele>2106.8000488281</ele>
        <time>2022-02-23T12:06:00.000Z</time>
      </trkpt>
      <trkpt lat="45.69149" lon="6.26589">
        <ele>2105.8000488281</ele>
        <time>2022-02-23T12:06:02.000Z</time>
      </trkpt>
      <trkpt lat="45.69147" lon="6.26584">
        <ele>2105.8000488281</ele>
        <time>2022-02-23T12:06:05.000Z</time>
      </trkpt>
      <trkpt lat="45.69146" lon="6.26582">
        <ele>2105.8000488281</ele>
        <time>2022-02-23T12:06:08.000Z</time>
      </trkpt>
      <trkpt lat="45.69144" lon="6.26574">
        <ele>2105.8000488281</ele>
        <time>2022-02-23T12:06:16.000Z</time>
      </trkpt>
      <trkpt lat="45.69145" lon="6.26574">
        <ele>2105.8000488281</ele>
        <time>2022-02-23T12:06:24.000Z</time>
      </trkpt>
      <trkpt lat="45.69146" lon="6.26573">
        <ele>2105.8000488281</ele>
        <time>2022-02-23T12:06:31.000Z</time>
      </trkpt>
      <trkpt lat="45.69149" lon="6.26579">
        <ele>2105.8000488281</ele>
        <time>2022-02-23T12:06:39.000Z</time>
      </trkpt>
      <trkpt lat="45.69151" lon="6.26584">
        <ele>2105.8000488281</ele>
        <time>2022-02-23T12:06:42.000Z</time>
      </trkpt>
      <trkpt lat="45.69153" lon="6.26583">
        <ele>2105.8000488281</ele>
        <time>2022-02-23T12:06:48.000Z</time>
      </trkpt>
      <trkpt lat="45.69152" lon="6.26586">
        <ele>2105.8000488281</ele>
        <time>2022-02-23T12:06:56.000Z</time>
      </trkpt>
      <trkpt lat="45.69151" lon="6.26589">
        <ele>2105.8000488281</ele>
        <time>2022-02-23T12:07:00.000Z</time>
      </trkpt>
      <trkpt lat="45.6915" lon="6.26588">
        <ele>2105.8000488281</ele>
        <time>2022-02-23T12:07:02.000Z</time>
      </trkpt>
      <trkpt lat="45.69149" lon="6.26589">
        <ele>2105.8000488281</ele>
        <time>2022-02-23T12:07:07.000Z</time>
      </trkpt>
      <trkpt lat="45.69148" lon="6.26588">
        <ele>2105.8000488281</ele>
        <time>2022-02-23T12:07:11.000Z</time>
      </trkpt>
      <trkpt lat="45.69148" lon="6.26588">
        <ele>2105.8000488281</ele>
        <time>2022-02-23T12:07:17.000Z</time>
      </trkpt>
      <trkpt lat="45.69148" lon="6.26588">
        <ele>2105.8000488281</ele>
        <time>2022-02-23T12:07:23.000Z</time>
      </trkpt>
      <trkpt lat="45.69148" lon="6.26588">
        <ele>2105.8000488281</ele>
        <time>2022-02-23T12:07:27.000Z</time>
      </trkpt>
      <trkpt lat="45.69148" lon="6.26591">
        <ele>2105.8000488281</ele>
        <time>2022-02-23T12:07:33.000Z</time>
      </trkpt>
      <trkpt lat="45.69147" lon="6.26593">
        <ele>2105.8000488281</ele>
        <time>2022-02-23T12:07:41.000Z</time>
      </trkpt>
      <trkpt lat="45.69148" lon="6.26595">
        <ele>2105.8000488281</ele>
        <time>2022-02-23T12:07:46.000Z</time>
      </trkpt>
      <trkpt lat="45.69148" lon="6.26596">
        <ele>2105.8000488281</ele>
        <time>2022-02-23T12:07:51.000Z</time>
      </trkpt>
      <trkpt lat="45.69147" lon="6.26596">
        <ele>2105.8000488281</ele>
        <time>2022-02-23T12:07:56.000Z</time>
      </trkpt>
      <trkpt lat="45.69147" lon="6.26595">
        <ele>2105.8000488281</ele>
        <time>2022-02-23T12:08:03.000Z</time>
      </trkpt>
      <trkpt lat="45.69147" lon="6.26594">
        <ele>2105.8000488281</ele>
        <time>2022-02-23T12:08:12.000Z</time>
      </trkpt>
      <trkpt lat="45.69144" lon="6.26592">
        <ele>2105.8000488281</ele>
        <time>2022-02-23T12:08:17.000Z</time>
      </trkpt>
      <trkpt lat="45.69144" lon="6.26591">
        <ele>2105.8000488281</ele>
        <time>2022-02-23T12:08:22.000Z</time>
      </trkpt>
      <trkpt lat="45.69144" lon="6.26594">
        <ele>2105.8000488281</ele>
        <time>2022-02-23T12:08:30.000Z</time>
      </trkpt>
      <trkpt lat="45.69144" lon="6.26594">
        <ele>2105.8000488281</ele>
        <time>2022-02-23T12:08:34.000Z</time>
      </trkpt>
      <trkpt lat="45.69144" lon="6.26595">
        <ele>2105.8000488281</ele>
        <time>2022-02-23T12:08:38.000Z</time>
      </trkpt>
      <trkpt lat="45.69144" lon="6.26595">
        <ele>2105.8000488281</ele>
        <time>2022-02-23T12:08:39.000Z</time>
      </trkpt>
      <trkpt lat="45.69144" lon="6.26595">
        <ele>2105.8000488281</ele>
        <time>2022-02-23T12:08:40.000Z</time>
      </trkpt>
      <trkpt lat="45.69143" lon="6.26596">
        <ele>2105.8000488281</ele>
        <time>2022-02-23T12:08:45.000Z</time>
      </trkpt>
      <trkpt lat="45.69143" lon="6.26596">
        <ele>2105.8000488281</ele>
        <time>2022-02-23T12:08:47.000Z</time>
      </trkpt>
      <trkpt lat="45.69145" lon="6.26596">
        <ele>2105.8000488281</ele>
        <time>2022-02-23T12:08:52.000Z</time>
      </trkpt>
      <trkpt lat="45.69146" lon="6.26595">
        <ele>2105.8000488281</ele>
        <time>2022-02-23T12:09:00.000Z</time>
      </trkpt>
      <trkpt lat="45.69147" lon="6.26596">
        <ele>2105.8000488281</ele>
        <time>2022-02-23T12:09:08.000Z</time>
      </trkpt>
      <trkpt lat="45.69146" lon="6.26596">
        <ele>2105.8000488281</ele>
        <time>2022-02-23T12:09:09.000Z</time>
      </trkpt>
      <trkpt lat="45.69147" lon="6.26596">
        <ele>2105.8000488281</ele>
        <time>2022-02-23T12:09:15.000Z</time>
      </trkpt>
      <trkpt lat="45.69148" lon="6.26597">
        <ele>2105.8000488281</ele>
        <time>2022-02-23T12:09:18.000Z</time>
      </trkpt>
      <trkpt lat="45.69148" lon="6.26598">
        <ele>2105.8000488281</ele>
        <time>2022-02-23T12:09:22.000Z</time>
      </trkpt>
      <trkpt lat="45.69148" lon="6.26598">
        <ele>2105.8000488281</ele>
        <time>2022-02-23T12:09:23.000Z</time>
      </trkpt>
      <trkpt lat="45.69149" lon="6.26599">
        <ele>2105.8000488281</ele>
        <time>2022-02-23T12:09:26.000Z</time>
      </trkpt>
      <trkpt lat="45.69145" lon="6.26586">
        <ele>2105.8000488281</ele>
        <time>2022-02-23T12:11:38.000Z</time>
      </trkpt>
      <trkpt lat="45.69144" lon="6.26586">
        <ele>2105.8000488281</ele>
        <time>2022-02-23T12:11:49.000Z</time>
      </trkpt>
      <trkpt lat="45.69145" lon="6.26588">
        <ele>2105.8000488281</ele>
        <time>2022-02-23T12:12:03.000Z</time>
      </trkpt>
      <trkpt lat="45.69145" lon="6.26587">
        <ele>2105.8000488281</ele>
        <time>2022-02-23T12:12:08.000Z</time>
      </trkpt>
      <trkpt lat="45.69144" lon="6.26587">
        <ele>2105.8000488281</ele>
        <time>2022-02-23T12:12:14.000Z</time>
      </trkpt>
      <trkpt lat="45.69194" lon="6.26676">
        <ele>2105.8000488281</ele>
        <time>2022-02-23T12:15:55.000Z</time>
      </trkpt>
      <trkpt lat="45.69191" lon="6.26687">
        <ele>2105.8000488281</ele>
        <time>2022-02-23T12:15:58.000Z</time>
      </trkpt>
      <trkpt lat="45.69188" lon="6.26703">
        <ele>2105.8000488281</ele>
        <time>2022-02-23T12:16:00.000Z</time>
      </trkpt>
      <trkpt lat="45.69189" lon="6.2671">
        <ele>2105.8000488281</ele>
        <time>2022-02-23T12:16:01.000Z</time>
      </trkpt>
      <trkpt lat="45.69194" lon="6.26715">
        <ele>2082.3999023438</ele>
        <time>2022-02-23T12:16:02.000Z</time>
      </trkpt>
      <trkpt lat="45.69201" lon="6.26718">
        <ele>2069.6000976562</ele>
        <time>2022-02-23T12:16:03.000Z</time>
      </trkpt>
      <trkpt lat="45.69209" lon="6.26718">
        <ele>2061.6000976562</ele>
        <time>2022-02-23T12:16:04.000Z</time>
      </trkpt>
      <trkpt lat="45.69217" lon="6.26717">
        <ele>2055.8000488281</ele>
        <time>2022-02-23T12:16:05.000Z</time>
      </trkpt>
      <trkpt lat="45.69226" lon="6.26714">
        <ele>2051.6000976562</ele>
        <time>2022-02-23T12:16:06.000Z</time>
      </trkpt>
      <trkpt lat="45.69234" lon="6.2671">
        <ele>2049</ele>
        <time>2022-02-23T12:16:07.000Z</time>
      </trkpt>
      <trkpt lat="45.6924" lon="6.26709">
        <ele>2047</ele>
        <time>2022-02-23T12:16:08.000Z</time>
      </trkpt>
      <trkpt lat="45.69241" lon="6.2671">
        <ele>2045.5999755859</ele>
        <time>2022-02-23T12:16:09.000Z</time>
      </trkpt>
      <trkpt lat="45.69241" lon="6.26711">
        <ele>2044.8000488281</ele>
        <time>2022-02-23T12:16:10.000Z</time>
      </trkpt>
      <trkpt lat="45.6924" lon="6.26712">
        <ele>2044.1999511719</ele>
        <time>2022-02-23T12:16:11.000Z</time>
      </trkpt>
      <trkpt lat="45.69239" lon="6.26711">
        <ele>2044</ele>
        <time>2022-02-23T12:16:13.000Z</time>
      </trkpt>
      <trkpt lat="45.69239" lon="6.26711">
        <ele>2043.5999755859</ele>
        <time>2022-02-23T12:16:17.000Z</time>
      </trkpt>
      <trkpt lat="45.69239" lon="6.26712">
        <ele>2043.5999755859</ele>
        <time>2022-02-23T12:16:18.000Z</time>
      </trkpt>
      <trkpt lat="45.69237" lon="6.26717">
        <ele>2043.1999511719</ele>
        <time>2022-02-23T12:16:24.000Z</time>
      </trkpt>
      <trkpt lat="45.69238" lon="6.26718">
        <ele>2043</ele>
        <time>2022-02-23T12:16:25.000Z</time>
      </trkpt>
      <trkpt lat="45.69238" lon="6.2672">
        <ele>2042.8000488281</ele>
        <time>2022-02-23T12:16:26.000Z</time>
      </trkpt>
      <trkpt lat="45.6924" lon="6.26728">
        <ele>2042.1999511719</ele>
        <time>2022-02-23T12:16:28.000Z</time>
      </trkpt>
      <trkpt lat="45.69239" lon="6.26731">
        <ele>2041.8000488281</ele>
        <time>2022-02-23T12:16:29.000Z</time>
      </trkpt>
      <trkpt lat="45.69239" lon="6.26732">
        <ele>2040.1999511719</ele>
        <time>2022-02-23T12:16:31.000Z</time>
      </trkpt>
      <trkpt lat="45.69238" lon="6.26732">
        <ele>2039.1999511719</ele>
        <time>2022-02-23T12:16:34.000Z</time>
      </trkpt>
      <trkpt lat="45.69238" lon="6.26732">
        <ele>2039.1999511719</ele>
        <time>2022-02-23T12:16:35.000Z</time>
      </trkpt>
      <trkpt lat="45.69238" lon="6.26731">
        <ele>2039</ele>
        <time>2022-02-23T12:16:39.000Z</time>
      </trkpt>
      <trkpt lat="45.69238" lon="6.26732">
        <ele>2038.8000488281</ele>
        <time>2022-02-23T12:16:46.000Z</time>
      </trkpt>
      <trkpt lat="45.69238" lon="6.26732">
        <ele>2038.8000488281</ele>
        <time>2022-02-23T12:16:49.000Z</time>
      </trkpt>
      <trkpt lat="45.69238" lon="6.26731">
        <ele>2038.8000488281</ele>
        <time>2022-02-23T12:16:57.000Z</time>
      </trkpt>
      <trkpt lat="45.69238" lon="6.26731">
        <ele>2038.8000488281</ele>
        <time>2022-02-23T12:16:59.000Z</time>
      </trkpt>
      <trkpt lat="45.69238" lon="6.26731">
        <ele>2038.4000244141</ele>
        <time>2022-02-23T12:17:05.000Z</time>
      </trkpt>
      <trkpt lat="45.69238" lon="6.26732">
        <ele>2038.5999755859</ele>
        <time>2022-02-23T12:17:13.000Z</time>
      </trkpt>
      <trkpt lat="45.69238" lon="6.26732">
        <ele>2038.8000488281</ele>
        <time>2022-02-23T12:17:23.000Z</time>
      </trkpt>
      <trkpt lat="45.69237" lon="6.26732">
        <ele>2038.1999511719</ele>
        <time>2022-02-23T12:17:30.000Z</time>
      </trkpt>
      <trkpt lat="45.69237" lon="6.26732">
        <ele>2038.5999755859</ele>
        <time>2022-02-23T12:17:35.000Z</time>
      </trkpt>
      <trkpt lat="45.69237" lon="6.26733">
        <ele>2038.4000244141</ele>
        <time>2022-02-23T12:17:37.000Z</time>
      </trkpt>
      <trkpt lat="45.69237" lon="6.26733">
        <ele>2038.4000244141</ele>
        <time>2022-02-23T12:17:41.000Z</time>
      </trkpt>
      <trkpt lat="45.69237" lon="6.26734">
        <ele>2038.5999755859</ele>
        <time>2022-02-23T12:17:43.000Z</time>
      </trkpt>
      <trkpt lat="45.69238" lon="6.26734">
        <ele>2038.5999755859</ele>
        <time>2022-02-23T12:17:45.000Z</time>
      </trkpt>
      <trkpt lat="45.69238" lon="6.26735">
        <ele>2039</ele>
        <time>2022-02-23T12:17:48.000Z</time>
      </trkpt>
      <trkpt lat="45.69237" lon="6.26735">
        <ele>2038.4000244141</ele>
        <time>2022-02-23T12:17:52.000Z</time>
      </trkpt>
      <trkpt lat="45.69237" lon="6.26735">
        <ele>2038.1999511719</ele>
        <time>2022-02-23T12:17:55.000Z</time>
      </trkpt>
      <trkpt lat="45.69237" lon="6.26735">
        <ele>2038.1999511719</ele>
        <time>2022-02-23T12:17:56.000Z</time>
      </trkpt>
      <trkpt lat="45.69237" lon="6.26735">
        <ele>2038.5999755859</ele>
        <time>2022-02-23T12:18:10.000Z</time>
      </trkpt>
      <trkpt lat="45.69237" lon="6.26735">
        <ele>2038.1999511719</ele>
        <time>2022-02-23T12:18:16.000Z</time>
      </trkpt>
      <trkpt lat="45.69237" lon="6.26735">
        <ele>2038.4000244141</ele>
        <time>2022-02-23T12:18:19.000Z</time>
      </trkpt>
      <trkpt lat="45.69237" lon="6.26734">
        <ele>2038.4000244141</ele>
        <time>2022-02-23T12:18:26.000Z</time>
      </trkpt>
      <trkpt lat="45.69237" lon="6.26735">
        <ele>2038.4000244141</ele>
        <time>2022-02-23T12:18:45.000Z</time>
      </trkpt>
      <trkpt lat="45.69237" lon="6.26735">
        <ele>2038.4000244141</ele>
        <time>2022-02-23T12:18:57.000Z</time>
      </trkpt>
      <trkpt lat="45.69237" lon="6.26735">
        <ele>2038.4000244141</ele>
        <time>2022-02-23T12:19:00.000Z</time>
      </trkpt>
      <trkpt lat="45.69237" lon="6.26735">
        <ele>2038.4000244141</ele>
        <time>2022-02-23T12:19:01.000Z</time>
      </trkpt>
      <trkpt lat="45.69237" lon="6.26734">
        <ele>2038.4000244141</ele>
        <time>2022-02-23T12:19:06.000Z</time>
      </trkpt>
      <trkpt lat="45.69238" lon="6.26734">
        <ele>2038.4000244141</ele>
        <time>2022-02-23T12:19:11.000Z</time>
      </trkpt>
      <trkpt lat="45.69238" lon="6.26733">
        <ele>2038.4000244141</ele>
        <time>2022-02-23T12:19:19.000Z</time>
      </trkpt>
      <trkpt lat="45.69238" lon="6.26733">
        <ele>2038.4000244141</ele>
        <time>2022-02-23T12:19:20.000Z</time>
      </trkpt>
      <trkpt lat="45.69239" lon="6.26733">
        <ele>2038.4000244141</ele>
        <time>2022-02-23T12:19:27.000Z</time>
      </trkpt>
      <trkpt lat="45.69236" lon="6.26735">
        <ele>2038.4000244141</ele>
        <time>2022-02-23T12:19:34.000Z</time>
      </trkpt>
      <trkpt lat="45.69236" lon="6.26736">
        <ele>2038.4000244141</ele>
        <time>2022-02-23T12:19:35.000Z</time>
      </trkpt>
      <trkpt lat="45.69236" lon="6.26736">
        <ele>2038.4000244141</ele>
        <time>2022-02-23T12:19:36.000Z</time>
      </trkpt>
      <trkpt lat="45.69236" lon="6.26735">
        <ele>2038.4000244141</ele>
        <time>2022-02-23T12:19:39.000Z</time>
      </trkpt>
      <trkpt lat="45.69234" lon="6.26736">
        <ele>2038.4000244141</ele>
        <time>2022-02-23T12:19:42.000Z</time>
      </trkpt>
      <trkpt lat="45.69234" lon="6.26736">
        <ele>2038.4000244141</ele>
        <time>2022-02-23T12:19:43.000Z</time>
      </trkpt>
      <trkpt lat="45.69233" lon="6.26736">
        <ele>2038.4000244141</ele>
        <time>2022-02-23T12:19:53.000Z</time>
      </trkpt>
      <trkpt lat="45.69232" lon="6.26736">
        <ele>2038.4000244141</ele>
        <time>2022-02-23T12:19:57.000Z</time>
      </trkpt>
      <trkpt lat="45.69233" lon="6.26737">
        <ele>2038.4000244141</ele>
        <time>2022-02-23T12:20:02.000Z</time>
      </trkpt>
      <trkpt lat="45.69233" lon="6.26737">
        <ele>2038.4000244141</ele>
        <time>2022-02-23T12:20:03.000Z</time>
      </trkpt>
      <trkpt lat="45.69232" lon="6.26737">
        <ele>2038.4000244141</ele>
        <time>2022-02-23T12:20:11.000Z</time>
      </trkpt>
      <trkpt lat="45.69232" lon="6.26737">
        <ele>2038.4000244141</ele>
        <time>2022-02-23T12:20:12.000Z</time>
      </trkpt>
      <trkpt lat="45.69232" lon="6.26737">
        <ele>2038.4000244141</ele>
        <time>2022-02-23T12:20:14.000Z</time>
      </trkpt>
      <trkpt lat="45.69232" lon="6.26737">
        <ele>2038.4000244141</ele>
        <time>2022-02-23T12:20:23.000Z</time>
      </trkpt>
      <trkpt lat="45.69231" lon="6.26735">
        <ele>2038.4000244141</ele>
        <time>2022-02-23T12:20:28.000Z</time>
      </trkpt>
      <trkpt lat="45.6923" lon="6.26734">
        <ele>2038.4000244141</ele>
        <time>2022-02-23T12:20:29.000Z</time>
      </trkpt>
      <trkpt lat="45.69231" lon="6.26734">
        <ele>2038.4000244141</ele>
        <time>2022-02-23T12:20:31.000Z</time>
      </trkpt>
      <trkpt lat="45.69231" lon="6.26733">
        <ele>2038.4000244141</ele>
        <time>2022-02-23T12:20:35.000Z</time>
      </trkpt>
      <trkpt lat="45.69231" lon="6.26733">
        <ele>2038.4000244141</ele>
        <time>2022-02-23T12:20:36.000Z</time>
      </trkpt>
      <trkpt lat="45.69232" lon="6.26731">
        <ele>2038.4000244141</ele>
        <time>2022-02-23T12:20:42.000Z</time>
      </trkpt>
      <trkpt lat="45.69234" lon="6.26733">
        <ele>2038.4000244141</ele>
        <time>2022-02-23T12:20:51.000Z</time>
      </trkpt>
      <trkpt lat="45.69234" lon="6.26733">
        <ele>2038.4000244141</ele>
        <time>2022-02-23T12:20:53.000Z</time>
      </trkpt>
      <trkpt lat="45.69233" lon="6.26732">
        <ele>2038.4000244141</ele>
        <time>2022-02-23T12:20:54.000Z</time>
      </trkpt>
      <trkpt lat="45.69233" lon="6.26733">
        <ele>2038.4000244141</ele>
        <time>2022-02-23T12:21:00.000Z</time>
      </trkpt>
      <trkpt lat="45.69232" lon="6.26733">
        <ele>2038.4000244141</ele>
        <time>2022-02-23T12:21:11.000Z</time>
      </trkpt>
      <trkpt lat="45.69232" lon="6.26734">
        <ele>2038.4000244141</ele>
        <time>2022-02-23T12:21:16.000Z</time>
      </trkpt>
      <trkpt lat="45.69232" lon="6.26734">
        <ele>2038.4000244141</ele>
        <time>2022-02-23T12:21:18.000Z</time>
      </trkpt>
      <trkpt lat="45.69232" lon="6.26734">
        <ele>2038.4000244141</ele>
        <time>2022-02-23T12:21:21.000Z</time>
      </trkpt>
      <trkpt lat="45.69232" lon="6.26734">
        <ele>2038.4000244141</ele>
        <time>2022-02-23T12:21:29.000Z</time>
      </trkpt>
      <trkpt lat="45.69232" lon="6.26735">
        <ele>2038.4000244141</ele>
        <time>2022-02-23T12:21:36.000Z</time>
      </trkpt>
      <trkpt lat="45.69232" lon="6.26734">
        <ele>2038.4000244141</ele>
        <time>2022-02-23T12:21:38.000Z</time>
      </trkpt>
      <trkpt lat="45.69232" lon="6.26734">
        <ele>2038.4000244141</ele>
        <time>2022-02-23T12:21:41.000Z</time>
      </trkpt>
      <trkpt lat="45.69233" lon="6.26734">
        <ele>2038.4000244141</ele>
        <time>2022-02-23T12:21:43.000Z</time>
      </trkpt>
      <trkpt lat="45.69233" lon="6.26734">
        <ele>2038.4000244141</ele>
        <time>2022-02-23T12:21:46.000Z</time>
      </trkpt>
      <trkpt lat="45.69233" lon="6.26734">
        <ele>2038.4000244141</ele>
        <time>2022-02-23T12:21:47.000Z</time>
      </trkpt>
      <trkpt lat="45.69233" lon="6.26735">
        <ele>2038.4000244141</ele>
        <time>2022-02-23T12:21:48.000Z</time>
      </trkpt>
      <trkpt lat="45.69232" lon="6.26735">
        <ele>2038.4000244141</ele>
        <time>2022-02-23T12:21:51.000Z</time>
      </trkpt>
      <trkpt lat="45.69233" lon="6.26735">
        <ele>2038.4000244141</ele>
        <time>2022-02-23T12:21:56.000Z</time>
      </trkpt>
      <trkpt lat="45.69234" lon="6.26736">
        <ele>2038.4000244141</ele>
        <time>2022-02-23T12:22:06.000Z</time>
      </trkpt>
      <trkpt lat="45.69234" lon="6.26739">
        <ele>2038.4000244141</ele>
        <time>2022-02-23T12:22:13.000Z</time>
      </trkpt>
      <trkpt lat="45.69242" lon="6.26753">
        <ele>2038.4000244141</ele>
        <time>2022-02-23T12:22:16.000Z</time>
      </trkpt>
      <trkpt lat="45.69247" lon="6.26767">
        <ele>2038.4000244141</ele>
        <time>2022-02-23T12:22:18.000Z</time>
      </trkpt>
      <trkpt lat="45.69251" lon="6.2677">
        <ele>2034</ele>
        <time>2022-02-23T12:22:19.000Z</time>
      </trkpt>
      <trkpt lat="45.69253" lon="6.26769">
        <ele>2030.8000488281</ele>
        <time>2022-02-23T12:22:20.000Z</time>
      </trkpt>
      <trkpt lat="45.69254" lon="6.26768">
        <ele>2027.8000488281</ele>
        <time>2022-02-23T12:22:21.000Z</time>
      </trkpt>
      <trkpt lat="45.69254" lon="6.26769">
        <ele>2026.1999511719</ele>
        <time>2022-02-23T12:22:22.000Z</time>
      </trkpt>
      <trkpt lat="45.69255" lon="6.26769">
        <ele>2025.4000244141</ele>
        <time>2022-02-23T12:22:23.000Z</time>
      </trkpt>
      <trkpt lat="45.69254" lon="6.26769">
        <ele>2024.8000488281</ele>
        <time>2022-02-23T12:22:24.000Z</time>
      </trkpt>
      <trkpt lat="45.69254" lon="6.26768">
        <ele>2024.5999755859</ele>
        <time>2022-02-23T12:22:25.000Z</time>
      </trkpt>
      <trkpt lat="45.69255" lon="6.26768">
        <ele>2024.5999755859</ele>
        <time>2022-02-23T12:22:27.000Z</time>
      </trkpt>
      <trkpt lat="45.69255" lon="6.26768">
        <ele>2024.8000488281</ele>
        <time>2022-02-23T12:22:29.000Z</time>
      </trkpt>
      <trkpt lat="45.69255" lon="6.26767">
        <ele>2025</ele>
        <time>2022-02-23T12:22:31.000Z</time>
      </trkpt>
      <trkpt lat="45.69255" lon="6.26766">
        <ele>2025</ele>
        <time>2022-02-23T12:22:36.000Z</time>
      </trkpt>
      <trkpt lat="45.69255" lon="6.26766">
        <ele>2024.8000488281</ele>
        <time>2022-02-23T12:22:39.000Z</time>
      </trkpt>
      <trkpt lat="45.69255" lon="6.26766">
        <ele>2024.5999755859</ele>
        <time>2022-02-23T12:22:51.000Z</time>
      </trkpt>
      <trkpt lat="45.69255" lon="6.26766">
        <ele>2024.4000244141</ele>
        <time>2022-02-23T12:22:53.000Z</time>
      </trkpt>
      <trkpt lat="45.69255" lon="6.26766">
        <ele>2024.5999755859</ele>
        <time>2022-02-23T12:22:54.000Z</time>
      </trkpt>
      <trkpt lat="45.69255" lon="6.26767">
        <ele>2024.5999755859</ele>
        <time>2022-02-23T12:22:56.000Z</time>
      </trkpt>
      <trkpt lat="45.69255" lon="6.26766">
        <ele>2024.8000488281</ele>
        <time>2022-02-23T12:23:03.000Z</time>
      </trkpt>
      <trkpt lat="45.69256" lon="6.26765">
        <ele>2024.8000488281</ele>
        <time>2022-02-23T12:23:15.000Z</time>
      </trkpt>
      <trkpt lat="45.69256" lon="6.26765">
        <ele>2024.8000488281</ele>
        <time>2022-02-23T12:23:16.000Z</time>
      </trkpt>
      <trkpt lat="45.69256" lon="6.26765">
        <ele>2025</ele>
        <time>2022-02-23T12:23:17.000Z</time>
      </trkpt>
      <trkpt lat="45.69258" lon="6.26773">
        <ele>2024.1999511719</ele>
        <time>2022-02-23T12:23:21.000Z</time>
      </trkpt>
      <trkpt lat="45.69256" lon="6.26787">
        <ele>2023.1999511719</ele>
        <time>2022-02-23T12:23:23.000Z</time>
      </trkpt>
      <trkpt lat="45.69257" lon="6.26793">
        <ele>2022.1999511719</ele>
        <time>2022-02-23T12:23:24.000Z</time>
      </trkpt>
      <trkpt lat="45.69261" lon="6.26798">
        <ele>2021</ele>
        <time>2022-02-23T12:23:25.000Z</time>
      </trkpt>
      <trkpt lat="45.69264" lon="6.26803">
        <ele>2019.4000244141</ele>
        <time>2022-02-23T12:23:26.000Z</time>
      </trkpt>
      <trkpt lat="45.69266" lon="6.26808">
        <ele>2017.4000244141</ele>
        <time>2022-02-23T12:23:27.000Z</time>
      </trkpt>
      <trkpt lat="45.6927" lon="6.26811">
        <ele>2015.4000244141</ele>
        <time>2022-02-23T12:23:28.000Z</time>
      </trkpt>
      <trkpt lat="45.69273" lon="6.26815">
        <ele>2012.8000488281</ele>
        <time>2022-02-23T12:23:29.000Z</time>
      </trkpt>
      <trkpt lat="45.69276" lon="6.2682">
        <ele>2010.1999511719</ele>
        <time>2022-02-23T12:23:30.000Z</time>
      </trkpt>
      <trkpt lat="45.6928" lon="6.26824">
        <ele>2008.1999511719</ele>
        <time>2022-02-23T12:23:31.000Z</time>
      </trkpt>
      <trkpt lat="45.69284" lon="6.26829">
        <ele>2005.5999755859</ele>
        <time>2022-02-23T12:23:32.000Z</time>
      </trkpt>
      <trkpt lat="45.69286" lon="6.26836">
        <ele>2002.8000488281</ele>
        <time>2022-02-23T12:23:33.000Z</time>
      </trkpt>
      <trkpt lat="45.69285" lon="6.26844">
        <ele>1999.8000488281</ele>
        <time>2022-02-23T12:23:34.000Z</time>
      </trkpt>
      <trkpt lat="45.69286" lon="6.2685">
        <ele>1998.1999511719</ele>
        <time>2022-02-23T12:23:35.000Z</time>
      </trkpt>
      <trkpt lat="45.69288" lon="6.26852">
        <ele>1996</ele>
        <time>2022-02-23T12:23:36.000Z</time>
      </trkpt>
      <trkpt lat="45.69291" lon="6.26849">
        <ele>1994.1999511719</ele>
        <time>2022-02-23T12:23:37.000Z</time>
      </trkpt>
      <trkpt lat="45.69296" lon="6.26844">
        <ele>1992.5999755859</ele>
        <time>2022-02-23T12:23:38.000Z</time>
      </trkpt>
      <trkpt lat="45.69301" lon="6.26839">
        <ele>1991.1999511719</ele>
        <time>2022-02-23T12:23:39.000Z</time>
      </trkpt>
      <trkpt lat="45.69305" lon="6.26836">
        <ele>1989.5999755859</ele>
        <time>2022-02-23T12:23:40.000Z</time>
      </trkpt>
      <trkpt lat="45.69306" lon="6.26838">
        <ele>1988.8000488281</ele>
        <time>2022-02-23T12:23:41.000Z</time>
      </trkpt>
      <trkpt lat="45.69306" lon="6.26841">
        <ele>1988</ele>
        <time>2022-02-23T12:23:42.000Z</time>
      </trkpt>
      <trkpt lat="45.69306" lon="6.26842">
        <ele>1986.8000488281</ele>
        <time>2022-02-23T12:23:43.000Z</time>
      </trkpt>
      <trkpt lat="45.69306" lon="6.26843">
        <ele>1986.1999511719</ele>
        <time>2022-02-23T12:23:44.000Z</time>
      </trkpt>
      <trkpt lat="45.69305" lon="6.26846">
        <ele>1985.5999755859</ele>
        <time>2022-02-23T12:23:45.000Z</time>
      </trkpt>
      <trkpt lat="45.69304" lon="6.26855">
        <ele>1984.4000244141</ele>
        <time>2022-02-23T12:23:47.000Z</time>
      </trkpt>
      <trkpt lat="45.69304" lon="6.26857">
        <ele>1983.8000488281</ele>
        <time>2022-02-23T12:23:48.000Z</time>
      </trkpt>
      <trkpt lat="45.69304" lon="6.26857">
        <ele>1983.5999755859</ele>
        <time>2022-02-23T12:23:49.000Z</time>
      </trkpt>
      <trkpt lat="45.69304" lon="6.26857">
        <ele>1983.4000244141</ele>
        <time>2022-02-23T12:23:52.000Z</time>
      </trkpt>
      <trkpt lat="45.69304" lon="6.26857">
        <ele>1983</ele>
        <time>2022-02-23T12:23:54.000Z</time>
      </trkpt>
      <trkpt lat="45.69305" lon="6.26857">
        <ele>1982.8000488281</ele>
        <time>2022-02-23T12:23:58.000Z</time>
      </trkpt>
      <trkpt lat="45.69305" lon="6.26857">
        <ele>1982.8000488281</ele>
        <time>2022-02-23T12:24:00.000Z</time>
      </trkpt>
      <trkpt lat="45.69305" lon="6.26856">
        <ele>1982.8000488281</ele>
        <time>2022-02-23T12:24:07.000Z</time>
      </trkpt>
      <trkpt lat="45.6931" lon="6.26861">
        <ele>1982.4000244141</ele>
        <time>2022-02-23T12:24:11.000Z</time>
      </trkpt>
      <trkpt lat="45.69314" lon="6.26861">
        <ele>1982</ele>
        <time>2022-02-23T12:24:12.000Z</time>
      </trkpt>
      <trkpt lat="45.69317" lon="6.26859">
        <ele>1981</ele>
        <time>2022-02-23T12:24:13.000Z</time>
      </trkpt>
      <trkpt lat="45.69319" lon="6.26855">
        <ele>1979.4000244141</ele>
        <time>2022-02-23T12:24:14.000Z</time>
      </trkpt>
      <trkpt lat="45.69322" lon="6.26852">
        <ele>1978.1999511719</ele>
        <time>2022-02-23T12:24:15.000Z</time>
      </trkpt>
      <trkpt lat="45.69325" lon="6.2685">
        <ele>1977.5999755859</ele>
        <time>2022-02-23T12:24:16.000Z</time>
      </trkpt>
      <trkpt lat="45.69328" lon="6.26851">
        <ele>1976.5999755859</ele>
        <time>2022-02-23T12:24:17.000Z</time>
      </trkpt>
      <trkpt lat="45.69331" lon="6.26854">
        <ele>1975.4000244141</ele>
        <time>2022-02-23T12:24:18.000Z</time>
      </trkpt>
      <trkpt lat="45.69334" lon="6.26853">
        <ele>1973.4000244141</ele>
        <time>2022-02-23T12:24:19.000Z</time>
      </trkpt>
      <trkpt lat="45.69339" lon="6.26852">
        <ele>1971.4000244141</ele>
        <time>2022-02-23T12:24:20.000Z</time>
      </trkpt>
      <trkpt lat="45.69345" lon="6.26851">
        <ele>1968.1999511719</ele>
        <time>2022-02-23T12:24:21.000Z</time>
      </trkpt>
      <trkpt lat="45.69351" lon="6.26848">
        <ele>1966.4000244141</ele>
        <time>2022-02-23T12:24:22.000Z</time>
      </trkpt>
      <trkpt lat="45.69358" lon="6.26845">
        <ele>1964</ele>
        <time>2022-02-23T12:24:23.000Z</time>
      </trkpt>
      <trkpt lat="45.69364" lon="6.26848">
        <ele>1961.4000244141</ele>
        <time>2022-02-23T12:24:24.000Z</time>
      </trkpt>
      <trkpt lat="45.6937" lon="6.26852">
        <ele>1958</ele>
        <time>2022-02-23T12:24:25.000Z</time>
      </trkpt>
      <trkpt lat="45.69377" lon="6.26852">
        <ele>1956.1999511719</ele>
        <time>2022-02-23T12:24:26.000Z</time>
      </trkpt>
      <trkpt lat="45.69383" lon="6.26848">
        <ele>1953.4000244141</ele>
        <time>2022-02-23T12:24:27.000Z</time>
      </trkpt>
      <trkpt lat="45.69388" lon="6.26847">
        <ele>1950</ele>
        <time>2022-02-23T12:24:28.000Z</time>
      </trkpt>
      <trkpt lat="45.69394" lon="6.26848">
        <ele>1946.8000488281</ele>
        <time>2022-02-23T12:24:29.000Z</time>
      </trkpt>
      <trkpt lat="45.69399" lon="6.26848">
        <ele>1944.4000244141</ele>
        <time>2022-02-23T12:24:30.000Z</time>
      </trkpt>
      <trkpt lat="45.69402" lon="6.26847">
        <ele>1941.8000488281</ele>
        <time>2022-02-23T12:24:31.000Z</time>
      </trkpt>
      <trkpt lat="45.69404" lon="6.26846">
        <ele>1939.1999511719</ele>
        <time>2022-02-23T12:24:32.000Z</time>
      </trkpt>
      <trkpt lat="45.69404" lon="6.26846">
        <ele>1937.8000488281</ele>
        <time>2022-02-23T12:24:33.000Z</time>
      </trkpt>
      <trkpt lat="45.69403" lon="6.26846">
        <ele>1936.8000488281</ele>
        <time>2022-02-23T12:24:36.000Z</time>
      </trkpt>
      <trkpt lat="45.69403" lon="6.26846">
        <ele>1936.8000488281</ele>
        <time>2022-02-23T12:24:38.000Z</time>
      </trkpt>
      <trkpt lat="45.69404" lon="6.26847">
        <ele>1937</ele>
        <time>2022-02-23T12:24:39.000Z</time>
      </trkpt>
      <trkpt lat="45.69404" lon="6.26848">
        <ele>1936.4000244141</ele>
        <time>2022-02-23T12:24:51.000Z</time>
      </trkpt>
      <trkpt lat="45.69404" lon="6.26847">
        <ele>1935.5999755859</ele>
        <time>2022-02-23T12:24:58.000Z</time>
      </trkpt>
      <trkpt lat="45.69404" lon="6.26848">
        <ele>1935.5999755859</ele>
        <time>2022-02-23T12:25:00.000Z</time>
      </trkpt>
      <trkpt lat="45.69404" lon="6.26847">
        <ele>1936.8000488281</ele>
        <time>2022-02-23T12:25:06.000Z</time>
      </trkpt>
      <trkpt lat="45.69405" lon="6.26847">
        <ele>1937</ele>
        <time>2022-02-23T12:25:07.000Z</time>
      </trkpt>
      <trkpt lat="45.69405" lon="6.26847">
        <ele>1936.8000488281</ele>
        <time>2022-02-23T12:25:11.000Z</time>
      </trkpt>
      <trkpt lat="45.69405" lon="6.26847">
        <ele>1936.8000488281</ele>
        <time>2022-02-23T12:25:15.000Z</time>
      </trkpt>
      <trkpt lat="45.69405" lon="6.26847">
        <ele>1936.5999755859</ele>
        <time>2022-02-23T12:25:17.000Z</time>
      </trkpt>
      <trkpt lat="45.69405" lon="6.26847">
        <ele>1936.4000244141</ele>
        <time>2022-02-23T12:25:21.000Z</time>
      </trkpt>
      <trkpt lat="45.69406" lon="6.26847">
        <ele>1936.4000244141</ele>
        <time>2022-02-23T12:25:26.000Z</time>
      </trkpt>
      <trkpt lat="45.69407" lon="6.26846">
        <ele>1936</ele>
        <time>2022-02-23T12:25:29.000Z</time>
      </trkpt>
      <trkpt lat="45.69409" lon="6.26846">
        <ele>1936.4000244141</ele>
        <time>2022-02-23T12:25:31.000Z</time>
      </trkpt>
      <trkpt lat="45.69413" lon="6.26844">
        <ele>1935.8000488281</ele>
        <time>2022-02-23T12:25:34.000Z</time>
      </trkpt>
      <trkpt lat="45.69413" lon="6.26846">
        <ele>1935.1999511719</ele>
        <time>2022-02-23T12:25:35.000Z</time>
      </trkpt>
      <trkpt lat="45.69413" lon="6.26846">
        <ele>1934.4000244141</ele>
        <time>2022-02-23T12:25:36.000Z</time>
      </trkpt>
      <trkpt lat="45.69413" lon="6.26846">
        <ele>1933.8000488281</ele>
        <time>2022-02-23T12:25:37.000Z</time>
      </trkpt>
      <trkpt lat="45.69412" lon="6.26846">
        <ele>1933.1999511719</ele>
        <time>2022-02-23T12:25:40.000Z</time>
      </trkpt>
      <trkpt lat="45.69412" lon="6.26845">
        <ele>1933.1999511719</ele>
        <time>2022-02-23T12:25:43.000Z</time>
      </trkpt>
      <trkpt lat="45.69412" lon="6.2685">
        <ele>1933</ele>
        <time>2022-02-23T12:25:48.000Z</time>
      </trkpt>
      <trkpt lat="45.69413" lon="6.26856">
        <ele>1932.8000488281</ele>
        <time>2022-02-23T12:25:50.000Z</time>
      </trkpt>
      <trkpt lat="45.69419" lon="6.26857">
        <ele>1931.5999755859</ele>
        <time>2022-02-23T12:25:52.000Z</time>
      </trkpt>
      <trkpt lat="45.69423" lon="6.26859">
        <ele>1930.4000244141</ele>
        <time>2022-02-23T12:25:53.000Z</time>
      </trkpt>
      <trkpt lat="45.69426" lon="6.26863">
        <ele>1929.1999511719</ele>
        <time>2022-02-23T12:25:54.000Z</time>
      </trkpt>
      <trkpt lat="45.69427" lon="6.26867">
        <ele>1928</ele>
        <time>2022-02-23T12:25:55.000Z</time>
      </trkpt>
      <trkpt lat="45.69429" lon="6.26868">
        <ele>1926.1999511719</ele>
        <time>2022-02-23T12:25:56.000Z</time>
      </trkpt>
      <trkpt lat="45.6943" lon="6.26868">
        <ele>1924.5999755859</ele>
        <time>2022-02-23T12:25:57.000Z</time>
      </trkpt>
      <trkpt lat="45.69431" lon="6.26868">
        <ele>1923.4000244141</ele>
        <time>2022-02-23T12:25:59.000Z</time>
      </trkpt>
      <trkpt lat="45.69431" lon="6.26868">
        <ele>1923</ele>
        <time>2022-02-23T12:26:03.000Z</time>
      </trkpt>
      <trkpt lat="45.69431" lon="6.26867">
        <ele>1922.8000488281</ele>
        <time>2022-02-23T12:26:16.000Z</time>
      </trkpt>
      <trkpt lat="45.69432" lon="6.26867">
        <ele>1922.8000488281</ele>
        <time>2022-02-23T12:26:24.000Z</time>
      </trkpt>
      <trkpt lat="45.69432" lon="6.26867">
        <ele>1922.8000488281</ele>
        <time>2022-02-23T12:26:28.000Z</time>
      </trkpt>
      <trkpt lat="45.69434" lon="6.26867">
        <ele>1923.1999511719</ele>
        <time>2022-02-23T12:26:40.000Z</time>
      </trkpt>
      <trkpt lat="45.69434" lon="6.26869">
        <ele>1922.4000244141</ele>
        <time>2022-02-23T12:26:43.000Z</time>
      </trkpt>
      <trkpt lat="45.69434" lon="6.26869">
        <ele>1922.1999511719</ele>
        <time>2022-02-23T12:26:44.000Z</time>
      </trkpt>
      <trkpt lat="45.69434" lon="6.26869">
        <ele>1921.8000488281</ele>
        <time>2022-02-23T12:26:46.000Z</time>
      </trkpt>
      <trkpt lat="45.69434" lon="6.26869">
        <ele>1921.5999755859</ele>
        <time>2022-02-23T12:26:51.000Z</time>
      </trkpt>
      <trkpt lat="45.69434" lon="6.26869">
        <ele>1921.4000244141</ele>
        <time>2022-02-23T12:27:05.000Z</time>
      </trkpt>
      <trkpt lat="45.69434" lon="6.26869">
        <ele>1921.4000244141</ele>
        <time>2022-02-23T12:27:06.000Z</time>
      </trkpt>
      <trkpt lat="45.69434" lon="6.26869">
        <ele>1921.1999511719</ele>
        <time>2022-02-23T12:27:07.000Z</time>
      </trkpt>
      <trkpt lat="45.69434" lon="6.26869">
        <ele>1921</ele>
        <time>2022-02-23T12:27:08.000Z</time>
      </trkpt>
      <trkpt lat="45.69434" lon="6.26869">
        <ele>1921.4000244141</ele>
        <time>2022-02-23T12:27:15.000Z</time>
      </trkpt>
      <trkpt lat="45.69434" lon="6.26869">
        <ele>1921.4000244141</ele>
        <time>2022-02-23T12:27:16.000Z</time>
      </trkpt>
      <trkpt lat="45.69434" lon="6.26869">
        <ele>1921.5999755859</ele>
        <time>2022-02-23T12:27:18.000Z</time>
      </trkpt>
      <trkpt lat="45.69433" lon="6.26869">
        <ele>1921.1999511719</ele>
        <time>2022-02-23T12:27:24.000Z</time>
      </trkpt>
      <trkpt lat="45.69433" lon="6.26869">
        <ele>1921.1999511719</ele>
        <time>2022-02-23T12:27:25.000Z</time>
      </trkpt>
      <trkpt lat="45.69433" lon="6.26869">
        <ele>1921.1999511719</ele>
        <time>2022-02-23T12:27:34.000Z</time>
      </trkpt>
      <trkpt lat="45.69433" lon="6.26869">
        <ele>1921.1999511719</ele>
        <time>2022-02-23T12:27:35.000Z</time>
      </trkpt>
      <trkpt lat="45.69433" lon="6.26869">
        <ele>1921.4000244141</ele>
        <time>2022-02-23T12:27:41.000Z</time>
      </trkpt>
      <trkpt lat="45.69433" lon="6.26869">
        <ele>1921</ele>
        <time>2022-02-23T12:27:43.000Z</time>
      </trkpt>
      <trkpt lat="45.69433" lon="6.26869">
        <ele>1921</ele>
        <time>2022-02-23T12:27:45.000Z</time>
      </trkpt>
      <trkpt lat="45.69433" lon="6.26869">
        <ele>1921.1999511719</ele>
        <time>2022-02-23T12:27:53.000Z</time>
      </trkpt>
      <trkpt lat="45.69433" lon="6.26869">
        <ele>1921</ele>
        <time>2022-02-23T12:27:55.000Z</time>
      </trkpt>
      <trkpt lat="45.69433" lon="6.26869">
        <ele>1921</ele>
        <time>2022-02-23T12:27:56.000Z</time>
      </trkpt>
      <trkpt lat="45.69433" lon="6.26869">
        <ele>1920.8000488281</ele>
        <time>2022-02-23T12:28:07.000Z</time>
      </trkpt>
      <trkpt lat="45.69433" lon="6.26867">
        <ele>1921.4000244141</ele>
        <time>2022-02-23T12:28:21.000Z</time>
      </trkpt>
      <trkpt lat="45.69433" lon="6.26867">
        <ele>1921.4000244141</ele>
        <time>2022-02-23T12:28:30.000Z</time>
      </trkpt>
      <trkpt lat="45.69433" lon="6.26867">
        <ele>1921.4000244141</ele>
        <time>2022-02-23T12:28:33.000Z</time>
      </trkpt>
      <trkpt lat="45.69433" lon="6.26868">
        <ele>1921.4000244141</ele>
        <time>2022-02-23T12:28:42.000Z</time>
      </trkpt>
      <trkpt lat="45.69433" lon="6.26868">
        <ele>1921.4000244141</ele>
        <time>2022-02-23T12:28:43.000Z</time>
      </trkpt>
      <trkpt lat="45.69433" lon="6.26869">
        <ele>1921.4000244141</ele>
        <time>2022-02-23T12:28:45.000Z</time>
      </trkpt>
      <trkpt lat="45.69433" lon="6.26869">
        <ele>1921.4000244141</ele>
        <time>2022-02-23T12:28:48.000Z</time>
      </trkpt>
      <trkpt lat="45.69432" lon="6.26869">
        <ele>1921.4000244141</ele>
        <time>2022-02-23T12:28:51.000Z</time>
      </trkpt>
      <trkpt lat="45.69432" lon="6.26869">
        <ele>1921.4000244141</ele>
        <time>2022-02-23T12:28:55.000Z</time>
      </trkpt>
      <trkpt lat="45.69432" lon="6.2687">
        <ele>1921.4000244141</ele>
        <time>2022-02-23T12:29:00.000Z</time>
      </trkpt>
      <trkpt lat="45.69432" lon="6.26869">
        <ele>1921.4000244141</ele>
        <time>2022-02-23T12:29:07.000Z</time>
      </trkpt>
      <trkpt lat="45.69432" lon="6.2687">
        <ele>1921.4000244141</ele>
        <time>2022-02-23T12:29:15.000Z</time>
      </trkpt>
      <trkpt lat="45.69432" lon="6.2687">
        <ele>1921.4000244141</ele>
        <time>2022-02-23T12:29:22.000Z</time>
      </trkpt>
      <trkpt lat="45.6943" lon="6.26876">
        <ele>1921.4000244141</ele>
        <time>2022-02-23T12:29:24.000Z</time>
      </trkpt>
      <trkpt lat="45.6943" lon="6.2688">
        <ele>1921.4000244141</ele>
        <time>2022-02-23T12:29:25.000Z</time>
      </trkpt>
      <trkpt lat="45.69431" lon="6.26884">
        <ele>1921.4000244141</ele>
        <time>2022-02-23T12:29:26.000Z</time>
      </trkpt>
      <trkpt lat="45.69438" lon="6.26892">
        <ele>1921.4000244141</ele>
        <time>2022-02-23T12:29:28.000Z</time>
      </trkpt>
      <trkpt lat="45.6944" lon="6.26901">
        <ele>1918.4000244141</ele>
        <time>2022-02-23T12:29:29.000Z</time>
      </trkpt>
      <trkpt lat="45.69441" lon="6.2691">
        <ele>1915.4000244141</ele>
        <time>2022-02-23T12:29:30.000Z</time>
      </trkpt>
      <trkpt lat="45.69443" lon="6.2692">
        <ele>1912.5999755859</ele>
        <time>2022-02-23T12:29:31.000Z</time>
      </trkpt>
      <trkpt lat="45.69445" lon="6.26928">
        <ele>1910.8000488281</ele>
        <time>2022-02-23T12:29:32.000Z</time>
      </trkpt>
      <trkpt lat="45.69449" lon="6.26935">
        <ele>1909.4000244141</ele>
        <time>2022-02-23T12:29:33.000Z</time>
      </trkpt>
      <trkpt lat="45.69453" lon="6.26942">
        <ele>1908.4000244141</ele>
        <time>2022-02-23T12:29:34.000Z</time>
      </trkpt>
      <trkpt lat="45.69458" lon="6.26948">
        <ele>1907.4000244141</ele>
        <time>2022-02-23T12:29:35.000Z</time>
      </trkpt>
      <trkpt lat="45.69463" lon="6.26957">
        <ele>1905.5999755859</ele>
        <time>2022-02-23T12:29:37.000Z</time>
      </trkpt>
      <trkpt lat="45.6947" lon="6.26961">
        <ele>1904.5999755859</ele>
        <time>2022-02-23T12:29:39.000Z</time>
      </trkpt>
      <trkpt lat="45.69475" lon="6.2696">
        <ele>1903.5999755859</ele>
        <time>2022-02-23T12:29:40.000Z</time>
      </trkpt>
      <trkpt lat="45.6948" lon="6.26959">
        <ele>1903.1999511719</ele>
        <time>2022-02-23T12:29:41.000Z</time>
      </trkpt>
      <trkpt lat="45.69486" lon="6.26956">
        <ele>1901.4000244141</ele>
        <time>2022-02-23T12:29:42.000Z</time>
      </trkpt>
      <trkpt lat="45.69492" lon="6.26956">
        <ele>1899.1999511719</ele>
        <time>2022-02-23T12:29:43.000Z</time>
      </trkpt>
      <trkpt lat="45.69499" lon="6.26961">
        <ele>1895.8000488281</ele>
        <time>2022-02-23T12:29:44.000Z</time>
      </trkpt>
      <trkpt lat="45.69503" lon="6.26967">
        <ele>1893.4000244141</ele>
        <time>2022-02-23T12:29:45.000Z</time>
      </trkpt>
      <trkpt lat="45.69508" lon="6.26972">
        <ele>1891</ele>
        <time>2022-02-23T12:29:46.000Z</time>
      </trkpt>
      <trkpt lat="45.69513" lon="6.26972">
        <ele>1889.4000244141</ele>
        <time>2022-02-23T12:29:47.000Z</time>
      </trkpt>
      <trkpt lat="45.69519" lon="6.26966">
        <ele>1888</ele>
        <time>2022-02-23T12:29:48.000Z</time>
      </trkpt>
      <trkpt lat="45.69527" lon="6.26956">
        <ele>1885.4000244141</ele>
        <time>2022-02-23T12:29:49.000Z</time>
      </trkpt>
      <trkpt lat="45.69534" lon="6.26947">
        <ele>1881.8000488281</ele>
        <time>2022-02-23T12:29:50.000Z</time>
      </trkpt>
      <trkpt lat="45.69544" lon="6.26942">
        <ele>1877</ele>
        <time>2022-02-23T12:29:51.000Z</time>
      </trkpt>
      <trkpt lat="45.69554" lon="6.2694">
        <ele>1874.8000488281</ele>
        <time>2022-02-23T12:29:52.000Z</time>
      </trkpt>
      <trkpt lat="45.69563" lon="6.2694">
        <ele>1873.5999755859</ele>
        <time>2022-02-23T12:29:53.000Z</time>
      </trkpt>
      <trkpt lat="45.69575" lon="6.26942">
        <ele>1872.5999755859</ele>
        <time>2022-02-23T12:29:55.000Z</time>
      </trkpt>
      <trkpt lat="45.6958" lon="6.26943">
        <ele>1872.4000244141</ele>
        <time>2022-02-23T12:29:56.000Z</time>
      </trkpt>
      <trkpt lat="45.69595" lon="6.26948">
        <ele>1872.4000244141</ele>
        <time>2022-02-23T12:29:59.000Z</time>
      </trkpt>
      <trkpt lat="45.69599" lon="6.26951">
        <ele>1872.4000244141</ele>
        <time>2022-02-23T12:30:00.000Z</time>
      </trkpt>
      <trkpt lat="45.69611" lon="6.26962">
        <ele>1871.4000244141</ele>
        <time>2022-02-23T12:30:03.000Z</time>
      </trkpt>
      <trkpt lat="45.69614" lon="6.26966">
        <ele>1870.8000488281</ele>
        <time>2022-02-23T12:30:04.000Z</time>
      </trkpt>
      <trkpt lat="45.69617" lon="6.26969">
        <ele>1870</ele>
        <time>2022-02-23T12:30:05.000Z</time>
      </trkpt>
      <trkpt lat="45.69618" lon="6.26973">
        <ele>1869.4000244141</ele>
        <time>2022-02-23T12:30:06.000Z</time>
      </trkpt>
      <trkpt lat="45.69621" lon="6.26983">
        <ele>1868.8000488281</ele>
        <time>2022-02-23T12:30:08.000Z</time>
      </trkpt>
      <trkpt lat="45.69626" lon="6.26997">
        <ele>1867.8000488281</ele>
        <time>2022-02-23T12:30:10.000Z</time>
      </trkpt>
      <trkpt lat="45.69629" lon="6.27003">
        <ele>1866.4000244141</ele>
        <time>2022-02-23T12:30:11.000Z</time>
      </trkpt>
      <trkpt lat="45.69633" lon="6.27007">
        <ele>1865.5999755859</ele>
        <time>2022-02-23T12:30:12.000Z</time>
      </trkpt>
      <trkpt lat="45.69635" lon="6.27011">
        <ele>1863.5999755859</ele>
        <time>2022-02-23T12:30:13.000Z</time>
      </trkpt>
      <trkpt lat="45.69635" lon="6.27013">
        <ele>1862.5999755859</ele>
        <time>2022-02-23T12:30:14.000Z</time>
      </trkpt>
      <trkpt lat="45.69634" lon="6.27013">
        <ele>1861.1999511719</ele>
        <time>2022-02-23T12:30:15.000Z</time>
      </trkpt>
      <trkpt lat="45.69634" lon="6.27012">
        <ele>1860.5999755859</ele>
        <time>2022-02-23T12:30:16.000Z</time>
      </trkpt>
      <trkpt lat="45.69633" lon="6.27012">
        <ele>1860.1999511719</ele>
        <time>2022-02-23T12:30:18.000Z</time>
      </trkpt>
      <trkpt lat="45.69632" lon="6.27011">
        <ele>1860.1999511719</ele>
        <time>2022-02-23T12:30:29.000Z</time>
      </trkpt>
      <trkpt lat="45.69632" lon="6.27011">
        <ele>1860.1999511719</ele>
        <time>2022-02-23T12:30:31.000Z</time>
      </trkpt>
      <trkpt lat="45.69632" lon="6.2701">
        <ele>1860.1999511719</ele>
        <time>2022-02-23T12:30:33.000Z</time>
      </trkpt>
      <trkpt lat="45.69632" lon="6.2701">
        <ele>1860.1999511719</ele>
        <time>2022-02-23T12:30:39.000Z</time>
      </trkpt>
      <trkpt lat="45.69632" lon="6.2701">
        <ele>1860.1999511719</ele>
        <time>2022-02-23T12:30:44.000Z</time>
      </trkpt>
      <trkpt lat="45.69632" lon="6.27009">
        <ele>1860</ele>
        <time>2022-02-23T12:30:51.000Z</time>
      </trkpt>
      <trkpt lat="45.69632" lon="6.27009">
        <ele>1860.1999511719</ele>
        <time>2022-02-23T12:30:55.000Z</time>
      </trkpt>
      <trkpt lat="45.69632" lon="6.27009">
        <ele>1860.1999511719</ele>
        <time>2022-02-23T12:30:57.000Z</time>
      </trkpt>
      <trkpt lat="45.69632" lon="6.2701">
        <ele>1860</ele>
        <time>2022-02-23T12:31:00.000Z</time>
      </trkpt>
      <trkpt lat="45.69632" lon="6.2701">
        <ele>1860.1999511719</ele>
        <time>2022-02-23T12:31:02.000Z</time>
      </trkpt>
      <trkpt lat="45.69633" lon="6.27013">
        <ele>1860.4000244141</ele>
        <time>2022-02-23T12:31:07.000Z</time>
      </trkpt>
      <trkpt lat="45.69641" lon="6.27033">
        <ele>1858.4000244141</ele>
        <time>2022-02-23T12:31:10.000Z</time>
      </trkpt>
      <trkpt lat="45.69647" lon="6.27041">
        <ele>1856.4000244141</ele>
        <time>2022-02-23T12:31:11.000Z</time>
      </trkpt>
      <trkpt lat="45.69652" lon="6.27046">
        <ele>1852.5999755859</ele>
        <time>2022-02-23T12:31:12.000Z</time>
      </trkpt>
      <trkpt lat="45.69657" lon="6.27053">
        <ele>1849.8000488281</ele>
        <time>2022-02-23T12:31:13.000Z</time>
      </trkpt>
      <trkpt lat="45.6966" lon="6.27061">
        <ele>1847</ele>
        <time>2022-02-23T12:31:14.000Z</time>
      </trkpt>
      <trkpt lat="45.69665" lon="6.27068">
        <ele>1844.5999755859</ele>
        <time>2022-02-23T12:31:15.000Z</time>
      </trkpt>
      <trkpt lat="45.69671" lon="6.27072">
        <ele>1843.4000244141</ele>
        <time>2022-02-23T12:31:16.000Z</time>
      </trkpt>
      <trkpt lat="45.69677" lon="6.27074">
        <ele>1841</ele>
        <time>2022-02-23T12:31:17.000Z</time>
      </trkpt>
      <trkpt lat="45.69684" lon="6.27077">
        <ele>1839.5999755859</ele>
        <time>2022-02-23T12:31:18.000Z</time>
      </trkpt>
      <trkpt lat="45.69691" lon="6.27083">
        <ele>1838.1999511719</ele>
        <time>2022-02-23T12:31:19.000Z</time>
      </trkpt>
      <trkpt lat="45.69698" lon="6.27089">
        <ele>1836.4000244141</ele>
        <time>2022-02-23T12:31:20.000Z</time>
      </trkpt>
      <trkpt lat="45.69707" lon="6.27096">
        <ele>1835.1999511719</ele>
        <time>2022-02-23T12:31:21.000Z</time>
      </trkpt>
      <trkpt lat="45.69715" lon="6.27103">
        <ele>1833.1999511719</ele>
        <time>2022-02-23T12:31:22.000Z</time>
      </trkpt>
      <trkpt lat="45.69724" lon="6.2711">
        <ele>1831.5999755859</ele>
        <time>2022-02-23T12:31:23.000Z</time>
      </trkpt>
      <trkpt lat="45.69733" lon="6.27118">
        <ele>1829.4000244141</ele>
        <time>2022-02-23T12:31:24.000Z</time>
      </trkpt>
      <trkpt lat="45.69742" lon="6.27126">
        <ele>1827.8000488281</ele>
        <time>2022-02-23T12:31:25.000Z</time>
      </trkpt>
      <trkpt lat="45.69751" lon="6.27134">
        <ele>1826.1999511719</ele>
        <time>2022-02-23T12:31:26.000Z</time>
      </trkpt>
      <trkpt lat="45.69759" lon="6.27141">
        <ele>1824.1999511719</ele>
        <time>2022-02-23T12:31:27.000Z</time>
      </trkpt>
      <trkpt lat="45.69767" lon="6.27148">
        <ele>1822.4000244141</ele>
        <time>2022-02-23T12:31:28.000Z</time>
      </trkpt>
      <trkpt lat="45.69778" lon="6.27156">
        <ele>1821</ele>
        <time>2022-02-23T12:31:30.000Z</time>
      </trkpt>
      <trkpt lat="45.6979" lon="6.27159">
        <ele>1820</ele>
        <time>2022-02-23T12:31:32.000Z</time>
      </trkpt>
      <trkpt lat="45.69801" lon="6.27162">
        <ele>1819.5999755859</ele>
        <time>2022-02-23T12:31:34.000Z</time>
      </trkpt>
      <trkpt lat="45.69804" lon="6.27163">
        <ele>1821.5999755859</ele>
        <time>2022-02-23T12:31:35.000Z</time>
      </trkpt>
      <trkpt lat="45.69808" lon="6.27164">
        <ele>1821.5999755859</ele>
        <time>2022-02-23T12:31:37.000Z</time>
      </trkpt>
      <trkpt lat="45.69809" lon="6.27164">
        <ele>1822</ele>
        <time>2022-02-23T12:31:38.000Z</time>
      </trkpt>
      <trkpt lat="45.6981" lon="6.27163">
        <ele>1822.4000244141</ele>
        <time>2022-02-23T12:31:40.000Z</time>
      </trkpt>
      <trkpt lat="45.69812" lon="6.27162">
        <ele>1822.1999511719</ele>
        <time>2022-02-23T12:31:43.000Z</time>
      </trkpt>
      <trkpt lat="45.69815" lon="6.27162">
        <ele>1822</ele>
        <time>2022-02-23T12:31:45.000Z</time>
      </trkpt>
      <trkpt lat="45.69817" lon="6.27162">
        <ele>1820.1999511719</ele>
        <time>2022-02-23T12:31:47.000Z</time>
      </trkpt>
      <trkpt lat="45.69818" lon="6.27162">
        <ele>1820.1999511719</ele>
        <time>2022-02-23T12:31:48.000Z</time>
      </trkpt>
      <trkpt lat="45.69821" lon="6.27161">
        <ele>1820.1999511719</ele>
        <time>2022-02-23T12:31:50.000Z</time>
      </trkpt>
      <trkpt lat="45.69821" lon="6.2716">
        <ele>1821</ele>
        <time>2022-02-23T12:31:53.000Z</time>
      </trkpt>
      <trkpt lat="45.69821" lon="6.27162">
        <ele>1821</ele>
        <time>2022-02-23T12:32:01.000Z</time>
      </trkpt>
      <trkpt lat="45.69821" lon="6.27162">
        <ele>1821.1999511719</ele>
        <time>2022-02-23T12:32:09.000Z</time>
      </trkpt>
      <trkpt lat="45.69821" lon="6.27163">
        <ele>1821</ele>
        <time>2022-02-23T12:32:23.000Z</time>
      </trkpt>
      <trkpt lat="45.6982" lon="6.27164">
        <ele>1821.1999511719</ele>
        <time>2022-02-23T12:32:28.000Z</time>
      </trkpt>
      <trkpt lat="45.69819" lon="6.27164">
        <ele>1820.8000488281</ele>
        <time>2022-02-23T12:32:36.000Z</time>
      </trkpt>
      <trkpt lat="45.69819" lon="6.27164">
        <ele>1821</ele>
        <time>2022-02-23T12:32:39.000Z</time>
      </trkpt>
      <trkpt lat="45.69819" lon="6.27164">
        <ele>1821</ele>
        <time>2022-02-23T12:32:42.000Z</time>
      </trkpt>
      <trkpt lat="45.69819" lon="6.27164">
        <ele>1820.8000488281</ele>
        <time>2022-02-23T12:32:45.000Z</time>
      </trkpt>
      <trkpt lat="45.69819" lon="6.27164">
        <ele>1820.8000488281</ele>
        <time>2022-02-23T12:32:52.000Z</time>
      </trkpt>
      <trkpt lat="45.6982" lon="6.27164">
        <ele>1821.1999511719</ele>
        <time>2022-02-23T12:33:00.000Z</time>
      </trkpt>
      <trkpt lat="45.69819" lon="6.27164">
        <ele>1821.1999511719</ele>
        <time>2022-02-23T12:33:03.000Z</time>
      </trkpt>
      <trkpt lat="45.6982" lon="6.27164">
        <ele>1821.1999511719</ele>
        <time>2022-02-23T12:33:09.000Z</time>
      </trkpt>
      <trkpt lat="45.6982" lon="6.27164">
        <ele>1821.4000244141</ele>
        <time>2022-02-23T12:33:11.000Z</time>
      </trkpt>
      <trkpt lat="45.6982" lon="6.27164">
        <ele>1821</ele>
        <time>2022-02-23T12:33:26.000Z</time>
      </trkpt>
      <trkpt lat="45.6982" lon="6.27164">
        <ele>1821.4000244141</ele>
        <time>2022-02-23T12:33:33.000Z</time>
      </trkpt>
      <trkpt lat="45.6982" lon="6.27164">
        <ele>1821.4000244141</ele>
        <time>2022-02-23T12:33:36.000Z</time>
      </trkpt>
      <trkpt lat="45.6982" lon="6.27165">
        <ele>1821.5999755859</ele>
        <time>2022-02-23T12:33:37.000Z</time>
      </trkpt>
      <trkpt lat="45.6982" lon="6.27164">
        <ele>1821.5999755859</ele>
        <time>2022-02-23T12:33:51.000Z</time>
      </trkpt>
      <trkpt lat="45.6982" lon="6.27164">
        <ele>1821.5999755859</ele>
        <time>2022-02-23T12:33:54.000Z</time>
      </trkpt>
      <trkpt lat="45.6982" lon="6.27164">
        <ele>1821.5999755859</ele>
        <time>2022-02-23T12:34:03.000Z</time>
      </trkpt>
      <trkpt lat="45.6982" lon="6.27164">
        <ele>1821.5999755859</ele>
        <time>2022-02-23T12:34:18.000Z</time>
      </trkpt>
      <trkpt lat="45.6982" lon="6.27162">
        <ele>1821.1999511719</ele>
        <time>2022-02-23T12:34:24.000Z</time>
      </trkpt>
      <trkpt lat="45.69819" lon="6.27162">
        <ele>1821.4000244141</ele>
        <time>2022-02-23T12:34:29.000Z</time>
      </trkpt>
      <trkpt lat="45.69819" lon="6.27162">
        <ele>1821.5999755859</ele>
        <time>2022-02-23T12:34:32.000Z</time>
      </trkpt>
      <trkpt lat="45.69819" lon="6.27162">
        <ele>1821.5999755859</ele>
        <time>2022-02-23T12:34:34.000Z</time>
      </trkpt>
      <trkpt lat="45.69819" lon="6.27162">
        <ele>1821.5999755859</ele>
        <time>2022-02-23T12:34:35.000Z</time>
      </trkpt>
      <trkpt lat="45.69819" lon="6.27162">
        <ele>1821.8000488281</ele>
        <time>2022-02-23T12:34:39.000Z</time>
      </trkpt>
      <trkpt lat="45.69819" lon="6.27162">
        <ele>1821.5999755859</ele>
        <time>2022-02-23T12:34:43.000Z</time>
      </trkpt>
      <trkpt lat="45.69819" lon="6.27163">
        <ele>1821.5999755859</ele>
        <time>2022-02-23T12:34:45.000Z</time>
      </trkpt>
      <trkpt lat="45.69819" lon="6.27163">
        <ele>1821.5999755859</ele>
        <time>2022-02-23T12:34:53.000Z</time>
      </trkpt>
      <trkpt lat="45.69819" lon="6.27162">
        <ele>1821.5999755859</ele>
        <time>2022-02-23T12:34:58.000Z</time>
      </trkpt>
      <trkpt lat="45.69819" lon="6.27162">
        <ele>1821.4000244141</ele>
        <time>2022-02-23T12:35:02.000Z</time>
      </trkpt>
      <trkpt lat="45.69819" lon="6.27162">
        <ele>1821.5999755859</ele>
        <time>2022-02-23T12:35:04.000Z</time>
      </trkpt>
      <trkpt lat="45.69819" lon="6.27162">
        <ele>1821.5999755859</ele>
        <time>2022-02-23T12:35:07.000Z</time>
      </trkpt>
      <trkpt lat="45.6982" lon="6.27162">
        <ele>1821.5999755859</ele>
        <time>2022-02-23T12:35:14.000Z</time>
      </trkpt>
      <trkpt lat="45.6982" lon="6.2716">
        <ele>1821.1999511719</ele>
        <time>2022-02-23T12:35:26.000Z</time>
      </trkpt>
      <trkpt lat="45.69823" lon="6.2716">
        <ele>1821.1999511719</ele>
        <time>2022-02-23T12:35:30.000Z</time>
      </trkpt>
      <trkpt lat="45.69824" lon="6.2716">
        <ele>1821.1999511719</ele>
        <time>2022-02-23T12:35:31.000Z</time>
      </trkpt>
      <trkpt lat="45.69827" lon="6.27161">
        <ele>1821</ele>
        <time>2022-02-23T12:35:33.000Z</time>
      </trkpt>
      <trkpt lat="45.6983" lon="6.27161">
        <ele>1820.4000244141</ele>
        <time>2022-02-23T12:35:37.000Z</time>
      </trkpt>
      <trkpt lat="45.69831" lon="6.27162">
        <ele>1820</ele>
        <time>2022-02-23T12:35:39.000Z</time>
      </trkpt>
      <trkpt lat="45.69837" lon="6.27162">
        <ele>1819.8000488281</ele>
        <time>2022-02-23T12:35:43.000Z</time>
      </trkpt>
      <trkpt lat="45.69841" lon="6.27159">
        <ele>1819.1999511719</ele>
        <time>2022-02-23T12:35:45.000Z</time>
      </trkpt>
      <trkpt lat="45.69844" lon="6.2716">
        <ele>1818.5999755859</ele>
        <time>2022-02-23T12:35:46.000Z</time>
      </trkpt>
      <trkpt lat="45.69847" lon="6.27158">
        <ele>1818.1999511719</ele>
        <time>2022-02-23T12:35:47.000Z</time>
      </trkpt>
      <trkpt lat="45.6985" lon="6.27158">
        <ele>1818</ele>
        <time>2022-02-23T12:35:48.000Z</time>
      </trkpt>
      <trkpt lat="45.69854" lon="6.27159">
        <ele>1816.8000488281</ele>
        <time>2022-02-23T12:35:49.000Z</time>
      </trkpt>
      <trkpt lat="45.69858" lon="6.2716">
        <ele>1815.4000244141</ele>
        <time>2022-02-23T12:35:50.000Z</time>
      </trkpt>
      <trkpt lat="45.69861" lon="6.27161">
        <ele>1813.8000488281</ele>
        <time>2022-02-23T12:35:51.000Z</time>
      </trkpt>
      <trkpt lat="45.69865" lon="6.27165">
        <ele>1812.4000244141</ele>
        <time>2022-02-23T12:35:52.000Z</time>
      </trkpt>
      <trkpt lat="45.69868" lon="6.27169">
        <ele>1810.4000244141</ele>
        <time>2022-02-23T12:35:53.000Z</time>
      </trkpt>
      <trkpt lat="45.6987" lon="6.27173">
        <ele>1809</ele>
        <time>2022-02-23T12:35:54.000Z</time>
      </trkpt>
      <trkpt lat="45.69874" lon="6.27173">
        <ele>1808</ele>
        <time>2022-02-23T12:35:55.000Z</time>
      </trkpt>
      <trkpt lat="45.6988" lon="6.27166">
        <ele>1805.5999755859</ele>
        <time>2022-02-23T12:35:57.000Z</time>
      </trkpt>
      <trkpt lat="45.69884" lon="6.27167">
        <ele>1804.1999511719</ele>
        <time>2022-02-23T12:35:58.000Z</time>
      </trkpt>
      <trkpt lat="45.69888" lon="6.27171">
        <ele>1802.5999755859</ele>
        <time>2022-02-23T12:35:59.000Z</time>
      </trkpt>
      <trkpt lat="45.6989" lon="6.27176">
        <ele>1800.8000488281</ele>
        <time>2022-02-23T12:36:00.000Z</time>
      </trkpt>
      <trkpt lat="45.69892" lon="6.27179">
        <ele>1798.4000244141</ele>
        <time>2022-02-23T12:36:01.000Z</time>
      </trkpt>
      <trkpt lat="45.69893" lon="6.27178">
        <ele>1797</ele>
        <time>2022-02-23T12:36:02.000Z</time>
      </trkpt>
      <trkpt lat="45.69895" lon="6.27175">
        <ele>1796</ele>
        <time>2022-02-23T12:36:03.000Z</time>
      </trkpt>
      <trkpt lat="45.69896" lon="6.27172">
        <ele>1795.4000244141</ele>
        <time>2022-02-23T12:36:04.000Z</time>
      </trkpt>
      <trkpt lat="45.69897" lon="6.27171">
        <ele>1794.5999755859</ele>
        <time>2022-02-23T12:36:05.000Z</time>
      </trkpt>
      <trkpt lat="45.69897" lon="6.27171">
        <ele>1794.1999511719</ele>
        <time>2022-02-23T12:36:06.000Z</time>
      </trkpt>
      <trkpt lat="45.69897" lon="6.2717">
        <ele>1793.5999755859</ele>
        <time>2022-02-23T12:36:07.000Z</time>
      </trkpt>
      <trkpt lat="45.69897" lon="6.2717">
        <ele>1793.1999511719</ele>
        <time>2022-02-23T12:36:08.000Z</time>
      </trkpt>
      <trkpt lat="45.69897" lon="6.2717">
        <ele>1793</ele>
        <time>2022-02-23T12:36:09.000Z</time>
      </trkpt>
      <trkpt lat="45.69897" lon="6.27169">
        <ele>1793</ele>
        <time>2022-02-23T12:36:14.000Z</time>
      </trkpt>
      <trkpt lat="45.69896" lon="6.27169">
        <ele>1793</ele>
        <time>2022-02-23T12:36:16.000Z</time>
      </trkpt>
      <trkpt lat="45.69896" lon="6.2717">
        <ele>1792.8000488281</ele>
        <time>2022-02-23T12:36:22.000Z</time>
      </trkpt>
      <trkpt lat="45.69895" lon="6.27172">
        <ele>1792.5999755859</ele>
        <time>2022-02-23T12:36:30.000Z</time>
      </trkpt>
      <trkpt lat="45.69895" lon="6.27173">
        <ele>1792.1999511719</ele>
        <time>2022-02-23T12:36:31.000Z</time>
      </trkpt>
      <trkpt lat="45.69896" lon="6.27174">
        <ele>1791.8000488281</ele>
        <time>2022-02-23T12:36:32.000Z</time>
      </trkpt>
      <trkpt lat="45.69896" lon="6.27174">
        <ele>1791.4000244141</ele>
        <time>2022-02-23T12:36:35.000Z</time>
      </trkpt>
      <trkpt lat="45.69896" lon="6.27175">
        <ele>1791.5999755859</ele>
        <time>2022-02-23T12:36:44.000Z</time>
      </trkpt>
      <trkpt lat="45.69896" lon="6.27175">
        <ele>1791.8000488281</ele>
        <time>2022-02-23T12:36:49.000Z</time>
      </trkpt>
      <trkpt lat="45.69899" lon="6.27183">
        <ele>1791.5999755859</ele>
        <time>2022-02-23T12:36:53.000Z</time>
      </trkpt>
      <trkpt lat="45.699" lon="6.27186">
        <ele>1791.4000244141</ele>
        <time>2022-02-23T12:36:54.000Z</time>
      </trkpt>
      <trkpt lat="45.69901" lon="6.27189">
        <ele>1790.8000488281</ele>
        <time>2022-02-23T12:36:55.000Z</time>
      </trkpt>
      <trkpt lat="45.69904" lon="6.27192">
        <ele>1790</ele>
        <time>2022-02-23T12:36:56.000Z</time>
      </trkpt>
      <trkpt lat="45.69905" lon="6.27196">
        <ele>1789.5999755859</ele>
        <time>2022-02-23T12:36:57.000Z</time>
      </trkpt>
      <trkpt lat="45.69908" lon="6.27206">
        <ele>1788</ele>
        <time>2022-02-23T12:36:59.000Z</time>
      </trkpt>
      <trkpt lat="45.69909" lon="6.27212">
        <ele>1787.1999511719</ele>
        <time>2022-02-23T12:37:00.000Z</time>
      </trkpt>
      <trkpt lat="45.6991" lon="6.27217">
        <ele>1786.1999511719</ele>
        <time>2022-02-23T12:37:01.000Z</time>
      </trkpt>
      <trkpt lat="45.69912" lon="6.27223">
        <ele>1785.1999511719</ele>
        <time>2022-02-23T12:37:02.000Z</time>
      </trkpt>
      <trkpt lat="45.69914" lon="6.27228">
        <ele>1783.4000244141</ele>
        <time>2022-02-23T12:37:03.000Z</time>
      </trkpt>
      <trkpt lat="45.69916" lon="6.27234">
        <ele>1782.4000244141</ele>
        <time>2022-02-23T12:37:04.000Z</time>
      </trkpt>
      <trkpt lat="45.69919" lon="6.27238">
        <ele>1781</ele>
        <time>2022-02-23T12:37:05.000Z</time>
      </trkpt>
      <trkpt lat="45.69922" lon="6.27243">
        <ele>1779.5999755859</ele>
        <time>2022-02-23T12:37:06.000Z</time>
      </trkpt>
      <trkpt lat="45.69924" lon="6.27248">
        <ele>1778.5999755859</ele>
        <time>2022-02-23T12:37:07.000Z</time>
      </trkpt>
      <trkpt lat="45.69927" lon="6.27252">
        <ele>1777.4000244141</ele>
        <time>2022-02-23T12:37:08.000Z</time>
      </trkpt>
      <trkpt lat="45.6993" lon="6.27256">
        <ele>1775.4000244141</ele>
        <time>2022-02-23T12:37:09.000Z</time>
      </trkpt>
      <trkpt lat="45.69932" lon="6.27261">
        <ele>1774.1999511719</ele>
        <time>2022-02-23T12:37:10.000Z</time>
      </trkpt>
      <trkpt lat="45.69934" lon="6.27264">
        <ele>1773.4000244141</ele>
        <time>2022-02-23T12:37:11.000Z</time>
      </trkpt>
      <trkpt lat="45.69935" lon="6.27265">
        <ele>1772.4000244141</ele>
        <time>2022-02-23T12:37:12.000Z</time>
      </trkpt>
      <trkpt lat="45.69935" lon="6.27265">
        <ele>1771.4000244141</ele>
        <time>2022-02-23T12:37:14.000Z</time>
      </trkpt>
      <trkpt lat="45.69934" lon="6.27265">
        <ele>1771.1999511719</ele>
        <time>2022-02-23T12:37:16.000Z</time>
      </trkpt>
      <trkpt lat="45.69934" lon="6.27265">
        <ele>1771</ele>
        <time>2022-02-23T12:37:17.000Z</time>
      </trkpt>
      <trkpt lat="45.69936" lon="6.27264">
        <ele>1770.8000488281</ele>
        <time>2022-02-23T12:37:20.000Z</time>
      </trkpt>
      <trkpt lat="45.69941" lon="6.27268">
        <ele>1770.4000244141</ele>
        <time>2022-02-23T12:37:23.000Z</time>
      </trkpt>
      <trkpt lat="45.69942" lon="6.27268">
        <ele>1769.8000488281</ele>
        <time>2022-02-23T12:37:24.000Z</time>
      </trkpt>
      <trkpt lat="45.69942" lon="6.27268">
        <ele>1769.1999511719</ele>
        <time>2022-02-23T12:37:25.000Z</time>
      </trkpt>
      <trkpt lat="45.69942" lon="6.27267">
        <ele>1768.4000244141</ele>
        <time>2022-02-23T12:37:27.000Z</time>
      </trkpt>
      <trkpt lat="45.69942" lon="6.27267">
        <ele>1768.1999511719</ele>
        <time>2022-02-23T12:37:28.000Z</time>
      </trkpt>
      <trkpt lat="45.69942" lon="6.27267">
        <ele>1768</ele>
        <time>2022-02-23T12:37:30.000Z</time>
      </trkpt>
      <trkpt lat="45.69942" lon="6.27267">
        <ele>1767.5999755859</ele>
        <time>2022-02-23T12:37:35.000Z</time>
      </trkpt>
      <trkpt lat="45.69942" lon="6.27267">
        <ele>1767.8000488281</ele>
        <time>2022-02-23T12:37:37.000Z</time>
      </trkpt>
      <trkpt lat="45.69942" lon="6.27266">
        <ele>1767.8000488281</ele>
        <time>2022-02-23T12:37:38.000Z</time>
      </trkpt>
      <trkpt lat="45.69944" lon="6.27263">
        <ele>1767.5999755859</ele>
        <time>2022-02-23T12:37:40.000Z</time>
      </trkpt>
      <trkpt lat="45.69945" lon="6.27261">
        <ele>1767.4000244141</ele>
        <time>2022-02-23T12:37:41.000Z</time>
      </trkpt>
      <trkpt lat="45.69949" lon="6.27261">
        <ele>1767</ele>
        <time>2022-02-23T12:37:43.000Z</time>
      </trkpt>
      <trkpt lat="45.69952" lon="6.27262">
        <ele>1766.1999511719</ele>
        <time>2022-02-23T12:37:44.000Z</time>
      </trkpt>
      <trkpt lat="45.69953" lon="6.27262">
        <ele>1765.8000488281</ele>
        <time>2022-02-23T12:37:45.000Z</time>
      </trkpt>
      <trkpt lat="45.69954" lon="6.27262">
        <ele>1765.1999511719</ele>
        <time>2022-02-23T12:37:46.000Z</time>
      </trkpt>
      <trkpt lat="45.69954" lon="6.27261">
        <ele>1764.5999755859</ele>
        <time>2022-02-23T12:37:47.000Z</time>
      </trkpt>
      <trkpt lat="45.69954" lon="6.2726">
        <ele>1763.8000488281</ele>
        <time>2022-02-23T12:37:53.000Z</time>
      </trkpt>
      <trkpt lat="45.69954" lon="6.27258">
        <ele>1763.4000244141</ele>
        <time>2022-02-23T12:37:55.000Z</time>
      </trkpt>
      <trkpt lat="45.69958" lon="6.27255">
        <ele>1763.1999511719</ele>
        <time>2022-02-23T12:37:57.000Z</time>
      </trkpt>
      <trkpt lat="45.69963" lon="6.27253">
        <ele>1762.1999511719</ele>
        <time>2022-02-23T12:37:59.000Z</time>
      </trkpt>
      <trkpt lat="45.69964" lon="6.27249">
        <ele>1761.5999755859</ele>
        <time>2022-02-23T12:38:00.000Z</time>
      </trkpt>
      <trkpt lat="45.69967" lon="6.27246">
        <ele>1760.4000244141</ele>
        <time>2022-02-23T12:38:01.000Z</time>
      </trkpt>
      <trkpt lat="45.6997" lon="6.27244">
        <ele>1759</ele>
        <time>2022-02-23T12:38:02.000Z</time>
      </trkpt>
      <trkpt lat="45.69973" lon="6.27241">
        <ele>1758</ele>
        <time>2022-02-23T12:38:03.000Z</time>
      </trkpt>
      <trkpt lat="45.69975" lon="6.27232">
        <ele>1756.1999511719</ele>
        <time>2022-02-23T12:38:05.000Z</time>
      </trkpt>
      <trkpt lat="45.6998" lon="6.27224">
        <ele>1754.1999511719</ele>
        <time>2022-02-23T12:38:07.000Z</time>
      </trkpt>
      <trkpt lat="45.69981" lon="6.2722">
        <ele>1752.8000488281</ele>
        <time>2022-02-23T12:38:08.000Z</time>
      </trkpt>
      <trkpt lat="45.69982" lon="6.27216">
        <ele>1751.4000244141</ele>
        <time>2022-02-23T12:38:10.000Z</time>
      </trkpt>
      <trkpt lat="45.69982" lon="6.27216">
        <ele>1750.5999755859</ele>
        <time>2022-02-23T12:38:11.000Z</time>
      </trkpt>
      <trkpt lat="45.69982" lon="6.27216">
        <ele>1750</ele>
        <time>2022-02-23T12:38:12.000Z</time>
      </trkpt>
      <trkpt lat="45.69982" lon="6.27215">
        <ele>1749.8000488281</ele>
        <time>2022-02-23T12:38:13.000Z</time>
      </trkpt>
      <trkpt lat="45.69982" lon="6.27213">
        <ele>1749.4000244141</ele>
        <time>2022-02-23T12:38:15.000Z</time>
      </trkpt>
      <trkpt lat="45.69983" lon="6.27206">
        <ele>1749.1999511719</ele>
        <time>2022-02-23T12:38:17.000Z</time>
      </trkpt>
      <trkpt lat="45.69984" lon="6.27204">
        <ele>1749</ele>
        <time>2022-02-23T12:38:18.000Z</time>
      </trkpt>
      <trkpt lat="45.69985" lon="6.27204">
        <ele>1748</ele>
        <time>2022-02-23T12:38:20.000Z</time>
      </trkpt>
      <trkpt lat="45.69985" lon="6.27204">
        <ele>1747.8000488281</ele>
        <time>2022-02-23T12:38:21.000Z</time>
      </trkpt>
      <trkpt lat="45.69985" lon="6.27203">
        <ele>1747.4000244141</ele>
        <time>2022-02-23T12:38:23.000Z</time>
      </trkpt>
      <trkpt lat="45.69985" lon="6.27203">
        <ele>1746.8000488281</ele>
        <time>2022-02-23T12:38:29.000Z</time>
      </trkpt>
      <trkpt lat="45.69985" lon="6.27203">
        <ele>1746.8000488281</ele>
        <time>2022-02-23T12:38:30.000Z</time>
      </trkpt>
      <trkpt lat="45.69985" lon="6.27202">
        <ele>1746.8000488281</ele>
        <time>2022-02-23T12:38:31.000Z</time>
      </trkpt>
      <trkpt lat="45.69985" lon="6.27202">
        <ele>1747</ele>
        <time>2022-02-23T12:38:34.000Z</time>
      </trkpt>
      <trkpt lat="45.69985" lon="6.27202">
        <ele>1747</ele>
        <time>2022-02-23T12:38:35.000Z</time>
      </trkpt>
      <trkpt lat="45.69984" lon="6.27202">
        <ele>1747.1999511719</ele>
        <time>2022-02-23T12:38:39.000Z</time>
      </trkpt>
      <trkpt lat="45.69984" lon="6.27202">
        <ele>1747.1999511719</ele>
        <time>2022-02-23T12:38:40.000Z</time>
      </trkpt>
      <trkpt lat="45.69984" lon="6.27202">
        <ele>1747.1999511719</ele>
        <time>2022-02-23T12:38:47.000Z</time>
      </trkpt>
      <trkpt lat="45.69984" lon="6.27202">
        <ele>1747.1999511719</ele>
        <time>2022-02-23T12:38:52.000Z</time>
      </trkpt>
      <trkpt lat="45.69984" lon="6.27201">
        <ele>1747.5999755859</ele>
        <time>2022-02-23T12:38:59.000Z</time>
      </trkpt>
      <trkpt lat="45.69985" lon="6.27193">
        <ele>1747.4000244141</ele>
        <time>2022-02-23T12:39:02.000Z</time>
      </trkpt>
      <trkpt lat="45.69986" lon="6.27182">
        <ele>1746</ele>
        <time>2022-02-23T12:39:04.000Z</time>
      </trkpt>
      <trkpt lat="45.69988" lon="6.27176">
        <ele>1745.1999511719</ele>
        <time>2022-02-23T12:39:05.000Z</time>
      </trkpt>
      <trkpt lat="45.69989" lon="6.27171">
        <ele>1743.5999755859</ele>
        <time>2022-02-23T12:39:06.000Z</time>
      </trkpt>
      <trkpt lat="45.69992" lon="6.2716">
        <ele>1742</ele>
        <time>2022-02-23T12:39:08.000Z</time>
      </trkpt>
      <trkpt lat="45.69996" lon="6.27152">
        <ele>1740.5999755859</ele>
        <time>2022-02-23T12:39:10.000Z</time>
      </trkpt>
      <trkpt lat="45.69998" lon="6.27147">
        <ele>1739.5999755859</ele>
        <time>2022-02-23T12:39:11.000Z</time>
      </trkpt>
      <trkpt lat="45.7" lon="6.27143">
        <ele>1738.8000488281</ele>
        <time>2022-02-23T12:39:12.000Z</time>
      </trkpt>
      <trkpt lat="45.70009" lon="6.27139">
        <ele>1736.5999755859</ele>
        <time>2022-02-23T12:39:14.000Z</time>
      </trkpt>
      <trkpt lat="45.70012" lon="6.27141">
        <ele>1735.4000244141</ele>
        <time>2022-02-23T12:39:15.000Z</time>
      </trkpt>
      <trkpt lat="45.70012" lon="6.27146">
        <ele>1734.8000488281</ele>
        <time>2022-02-23T12:39:16.000Z</time>
      </trkpt>
      <trkpt lat="45.70012" lon="6.27151">
        <ele>1734</ele>
        <time>2022-02-23T12:39:17.000Z</time>
      </trkpt>
      <trkpt lat="45.70013" lon="6.27156">
        <ele>1733.1999511719</ele>
        <time>2022-02-23T12:39:18.000Z</time>
      </trkpt>
      <trkpt lat="45.70015" lon="6.27158">
        <ele>1732.5999755859</ele>
        <time>2022-02-23T12:39:19.000Z</time>
      </trkpt>
      <trkpt lat="45.70015" lon="6.27158">
        <ele>1731.8000488281</ele>
        <time>2022-02-23T12:39:20.000Z</time>
      </trkpt>
      <trkpt lat="45.70015" lon="6.27159">
        <ele>1731.1999511719</ele>
        <time>2022-02-23T12:39:21.000Z</time>
      </trkpt>
      <trkpt lat="45.70016" lon="6.27161">
        <ele>1730.8000488281</ele>
        <time>2022-02-23T12:39:23.000Z</time>
      </trkpt>
      <trkpt lat="45.70016" lon="6.27168">
        <ele>1730.4000244141</ele>
        <time>2022-02-23T12:39:25.000Z</time>
      </trkpt>
      <trkpt lat="45.70015" lon="6.27172">
        <ele>1730</ele>
        <time>2022-02-23T12:39:26.000Z</time>
      </trkpt>
      <trkpt lat="45.70018" lon="6.27193">
        <ele>1728.4000244141</ele>
        <time>2022-02-23T12:39:29.000Z</time>
      </trkpt>
      <trkpt lat="45.70021" lon="6.27209">
        <ele>1726.4000244141</ele>
        <time>2022-02-23T12:39:31.000Z</time>
      </trkpt>
      <trkpt lat="45.70025" lon="6.27225">
        <ele>1724.8000488281</ele>
        <time>2022-02-23T12:39:33.000Z</time>
      </trkpt>
      <trkpt lat="45.70028" lon="6.27241">
        <ele>1724</ele>
        <time>2022-02-23T12:39:35.000Z</time>
      </trkpt>
      <trkpt lat="45.70031" lon="6.27253">
        <ele>1723.8000488281</ele>
        <time>2022-02-23T12:39:37.000Z</time>
      </trkpt>
      <trkpt lat="45.70031" lon="6.2726">
        <ele>1723.5999755859</ele>
        <time>2022-02-23T12:39:38.000Z</time>
      </trkpt>
      <trkpt lat="45.70031" lon="6.27266">
        <ele>1723.4000244141</ele>
        <time>2022-02-23T12:39:39.000Z</time>
      </trkpt>
      <trkpt lat="45.70032" lon="6.27273">
        <ele>1723.4000244141</ele>
        <time>2022-02-23T12:39:40.000Z</time>
      </trkpt>
      <trkpt lat="45.70033" lon="6.27279">
        <ele>1722.5999755859</ele>
        <time>2022-02-23T12:39:41.000Z</time>
      </trkpt>
      <trkpt lat="45.70034" lon="6.27287">
        <ele>1722</ele>
        <time>2022-02-23T12:39:42.000Z</time>
      </trkpt>
      <trkpt lat="45.70034" lon="6.27294">
        <ele>1721</ele>
        <time>2022-02-23T12:39:43.000Z</time>
      </trkpt>
      <trkpt lat="45.70036" lon="6.27301">
        <ele>1719.8000488281</ele>
        <time>2022-02-23T12:39:44.000Z</time>
      </trkpt>
      <trkpt lat="45.70037" lon="6.27309">
        <ele>1718.5999755859</ele>
        <time>2022-02-23T12:39:45.000Z</time>
      </trkpt>
      <trkpt lat="45.70037" lon="6.27316">
        <ele>1717.8000488281</ele>
        <time>2022-02-23T12:39:46.000Z</time>
      </trkpt>
      <trkpt lat="45.70039" lon="6.27322">
        <ele>1717.1999511719</ele>
        <time>2022-02-23T12:39:47.000Z</time>
      </trkpt>
      <trkpt lat="45.70041" lon="6.27329">
        <ele>1715.8000488281</ele>
        <time>2022-02-23T12:39:48.000Z</time>
      </trkpt>
      <trkpt lat="45.70044" lon="6.27341">
        <ele>1713.8000488281</ele>
        <time>2022-02-23T12:39:50.000Z</time>
      </trkpt>
      <trkpt lat="45.70046" lon="6.27346">
        <ele>1712.5999755859</ele>
        <time>2022-02-23T12:39:51.000Z</time>
      </trkpt>
      <trkpt lat="45.70048" lon="6.27359">
        <ele>1710.5999755859</ele>
        <time>2022-02-23T12:39:53.000Z</time>
      </trkpt>
      <trkpt lat="45.70051" lon="6.27366">
        <ele>1709.4000244141</ele>
        <time>2022-02-23T12:39:54.000Z</time>
      </trkpt>
      <trkpt lat="45.70055" lon="6.27371">
        <ele>1708.4000244141</ele>
        <time>2022-02-23T12:39:55.000Z</time>
      </trkpt>
      <trkpt lat="45.7006" lon="6.27372">
        <ele>1706.8000488281</ele>
        <time>2022-02-23T12:39:56.000Z</time>
      </trkpt>
      <trkpt lat="45.70066" lon="6.27362">
        <ele>1704.8000488281</ele>
        <time>2022-02-23T12:39:58.000Z</time>
      </trkpt>
      <trkpt lat="45.70068" lon="6.27355">
        <ele>1703.1999511719</ele>
        <time>2022-02-23T12:39:59.000Z</time>
      </trkpt>
      <trkpt lat="45.70071" lon="6.27349">
        <ele>1701.5999755859</ele>
        <time>2022-02-23T12:40:00.000Z</time>
      </trkpt>
      <trkpt lat="45.70072" lon="6.27342">
        <ele>1700.4000244141</ele>
        <time>2022-02-23T12:40:01.000Z</time>
      </trkpt>
      <trkpt lat="45.70072" lon="6.27334">
        <ele>1698.4000244141</ele>
        <time>2022-02-23T12:40:02.000Z</time>
      </trkpt>
      <trkpt lat="45.70073" lon="6.27326">
        <ele>1697.4000244141</ele>
        <time>2022-02-23T12:40:03.000Z</time>
      </trkpt>
      <trkpt lat="45.70076" lon="6.27321">
        <ele>1696.8000488281</ele>
        <time>2022-02-23T12:40:04.000Z</time>
      </trkpt>
      <trkpt lat="45.70078" lon="6.27314">
        <ele>1695.4000244141</ele>
        <time>2022-02-23T12:40:05.000Z</time>
      </trkpt>
      <trkpt lat="45.70078" lon="6.27306">
        <ele>1693.1999511719</ele>
        <time>2022-02-23T12:40:06.000Z</time>
      </trkpt>
      <trkpt lat="45.70081" lon="6.27299">
        <ele>1691.5999755859</ele>
        <time>2022-02-23T12:40:07.000Z</time>
      </trkpt>
      <trkpt lat="45.70085" lon="6.27296">
        <ele>1690.1999511719</ele>
        <time>2022-02-23T12:40:08.000Z</time>
      </trkpt>
      <trkpt lat="45.70088" lon="6.27294">
        <ele>1688.5999755859</ele>
        <time>2022-02-23T12:40:09.000Z</time>
      </trkpt>
      <trkpt lat="45.70091" lon="6.27291">
        <ele>1687.1999511719</ele>
        <time>2022-02-23T12:40:10.000Z</time>
      </trkpt>
      <trkpt lat="45.70092" lon="6.27289">
        <ele>1686.4000244141</ele>
        <time>2022-02-23T12:40:11.000Z</time>
      </trkpt>
      <trkpt lat="45.70092" lon="6.27288">
        <ele>1685.4000244141</ele>
        <time>2022-02-23T12:40:12.000Z</time>
      </trkpt>
      <trkpt lat="45.70093" lon="6.27286">
        <ele>1684.1999511719</ele>
        <time>2022-02-23T12:40:14.000Z</time>
      </trkpt>
      <trkpt lat="45.70093" lon="6.27284">
        <ele>1683.5999755859</ele>
        <time>2022-02-23T12:40:16.000Z</time>
      </trkpt>
      <trkpt lat="45.70094" lon="6.27283">
        <ele>1683.1999511719</ele>
        <time>2022-02-23T12:40:17.000Z</time>
      </trkpt>
      <trkpt lat="45.70096" lon="6.27281">
        <ele>1683.1999511719</ele>
        <time>2022-02-23T12:40:18.000Z</time>
      </trkpt>
      <trkpt lat="45.70095" lon="6.27275">
        <ele>1683</ele>
        <time>2022-02-23T12:40:20.000Z</time>
      </trkpt>
      <trkpt lat="45.70095" lon="6.27272">
        <ele>1682.1999511719</ele>
        <time>2022-02-23T12:40:22.000Z</time>
      </trkpt>
      <trkpt lat="45.70096" lon="6.27269">
        <ele>1682</ele>
        <time>2022-02-23T12:40:23.000Z</time>
      </trkpt>
      <trkpt lat="45.70099" lon="6.27263">
        <ele>1681.5999755859</ele>
        <time>2022-02-23T12:40:25.000Z</time>
      </trkpt>
      <trkpt lat="45.701" lon="6.27258">
        <ele>1681.4000244141</ele>
        <time>2022-02-23T12:40:26.000Z</time>
      </trkpt>
      <trkpt lat="45.70102" lon="6.27253">
        <ele>1681</ele>
        <time>2022-02-23T12:40:27.000Z</time>
      </trkpt>
      <trkpt lat="45.70105" lon="6.27249">
        <ele>1680.4000244141</ele>
        <time>2022-02-23T12:40:28.000Z</time>
      </trkpt>
      <trkpt lat="45.70108" lon="6.27246">
        <ele>1679.5999755859</ele>
        <time>2022-02-23T12:40:29.000Z</time>
      </trkpt>
      <trkpt lat="45.70113" lon="6.27237">
        <ele>1678.4000244141</ele>
        <time>2022-02-23T12:40:31.000Z</time>
      </trkpt>
      <trkpt lat="45.70118" lon="6.27228">
        <ele>1677.1999511719</ele>
        <time>2022-02-23T12:40:33.000Z</time>
      </trkpt>
      <trkpt lat="45.7012" lon="6.27224">
        <ele>1676.5999755859</ele>
        <time>2022-02-23T12:40:34.000Z</time>
      </trkpt>
      <trkpt lat="45.70123" lon="6.27219">
        <ele>1676.1999511719</ele>
        <time>2022-02-23T12:40:35.000Z</time>
      </trkpt>
      <trkpt lat="45.70126" lon="6.27213">
        <ele>1675.8000488281</ele>
        <time>2022-02-23T12:40:36.000Z</time>
      </trkpt>
      <trkpt lat="45.70129" lon="6.27202">
        <ele>1674.8000488281</ele>
        <time>2022-02-23T12:40:38.000Z</time>
      </trkpt>
      <trkpt lat="45.70132" lon="6.27189">
        <ele>1674.1999511719</ele>
        <time>2022-02-23T12:40:40.000Z</time>
      </trkpt>
      <trkpt lat="45.70133" lon="6.27182">
        <ele>1673.4000244141</ele>
        <time>2022-02-23T12:40:41.000Z</time>
      </trkpt>
      <trkpt lat="45.70133" lon="6.27175">
        <ele>1672.4000244141</ele>
        <time>2022-02-23T12:40:42.000Z</time>
      </trkpt>
      <trkpt lat="45.70135" lon="6.2716">
        <ele>1670.8000488281</ele>
        <time>2022-02-23T12:40:44.000Z</time>
      </trkpt>
      <trkpt lat="45.70138" lon="6.27145">
        <ele>1670.1999511719</ele>
        <time>2022-02-23T12:40:46.000Z</time>
      </trkpt>
      <trkpt lat="45.70139" lon="6.27137">
        <ele>1669</ele>
        <time>2022-02-23T12:40:47.000Z</time>
      </trkpt>
      <trkpt lat="45.70141" lon="6.27128">
        <ele>1667.8000488281</ele>
        <time>2022-02-23T12:40:48.000Z</time>
      </trkpt>
      <trkpt lat="45.70145" lon="6.27111">
        <ele>1665.4000244141</ele>
        <time>2022-02-23T12:40:50.000Z</time>
      </trkpt>
      <trkpt lat="45.70146" lon="6.27102">
        <ele>1664.1999511719</ele>
        <time>2022-02-23T12:40:51.000Z</time>
      </trkpt>
      <trkpt lat="45.70147" lon="6.27094">
        <ele>1663</ele>
        <time>2022-02-23T12:40:52.000Z</time>
      </trkpt>
      <trkpt lat="45.70152" lon="6.2709">
        <ele>1661.8000488281</ele>
        <time>2022-02-23T12:40:53.000Z</time>
      </trkpt>
      <trkpt lat="45.70159" lon="6.27091">
        <ele>1660</ele>
        <time>2022-02-23T12:40:54.000Z</time>
      </trkpt>
      <trkpt lat="45.70165" lon="6.27096">
        <ele>1659.1999511719</ele>
        <time>2022-02-23T12:40:55.000Z</time>
      </trkpt>
      <trkpt lat="45.70169" lon="6.27103">
        <ele>1658</ele>
        <time>2022-02-23T12:40:56.000Z</time>
      </trkpt>
      <trkpt lat="45.70171" lon="6.2711">
        <ele>1656.5999755859</ele>
        <time>2022-02-23T12:40:57.000Z</time>
      </trkpt>
      <trkpt lat="45.70173" lon="6.27117">
        <ele>1656</ele>
        <time>2022-02-23T12:40:58.000Z</time>
      </trkpt>
      <trkpt lat="45.70173" lon="6.27124">
        <ele>1655.1999511719</ele>
        <time>2022-02-23T12:40:59.000Z</time>
      </trkpt>
      <trkpt lat="45.70174" lon="6.27131">
        <ele>1653.8000488281</ele>
        <time>2022-02-23T12:41:00.000Z</time>
      </trkpt>
      <trkpt lat="45.70176" lon="6.27139">
        <ele>1651.5999755859</ele>
        <time>2022-02-23T12:41:01.000Z</time>
      </trkpt>
      <trkpt lat="45.70177" lon="6.27146">
        <ele>1650.1999511719</ele>
        <time>2022-02-23T12:41:02.000Z</time>
      </trkpt>
      <trkpt lat="45.7018" lon="6.27161">
        <ele>1647.5999755859</ele>
        <time>2022-02-23T12:41:04.000Z</time>
      </trkpt>
      <trkpt lat="45.70182" lon="6.27168">
        <ele>1646.1999511719</ele>
        <time>2022-02-23T12:41:05.000Z</time>
      </trkpt>
      <trkpt lat="45.70183" lon="6.27176">
        <ele>1645.1999511719</ele>
        <time>2022-02-23T12:41:06.000Z</time>
      </trkpt>
      <trkpt lat="45.70184" lon="6.27185">
        <ele>1643.5999755859</ele>
        <time>2022-02-23T12:41:07.000Z</time>
      </trkpt>
      <trkpt lat="45.70186" lon="6.27195">
        <ele>1641.8000488281</ele>
        <time>2022-02-23T12:41:08.000Z</time>
      </trkpt>
      <trkpt lat="45.70189" lon="6.27206">
        <ele>1640.1999511719</ele>
        <time>2022-02-23T12:41:09.000Z</time>
      </trkpt>
      <trkpt lat="45.70192" lon="6.27219">
        <ele>1638.1999511719</ele>
        <time>2022-02-23T12:41:10.000Z</time>
      </trkpt>
      <trkpt lat="45.70193" lon="6.27234">
        <ele>1635.5999755859</ele>
        <time>2022-02-23T12:41:11.000Z</time>
      </trkpt>
      <trkpt lat="45.70194" lon="6.27246">
        <ele>1634.1999511719</ele>
        <time>2022-02-23T12:41:12.000Z</time>
      </trkpt>
      <trkpt lat="45.70193" lon="6.27255">
        <ele>1633.5999755859</ele>
        <time>2022-02-23T12:41:13.000Z</time>
      </trkpt>
      <trkpt lat="45.70193" lon="6.2726">
        <ele>1633.4000244141</ele>
        <time>2022-02-23T12:41:14.000Z</time>
      </trkpt>
      <trkpt lat="45.70194" lon="6.27261">
        <ele>1633.1999511719</ele>
        <time>2022-02-23T12:41:15.000Z</time>
      </trkpt>
      <trkpt lat="45.70194" lon="6.27261">
        <ele>1634.1999511719</ele>
        <time>2022-02-23T12:41:17.000Z</time>
      </trkpt>
      <trkpt lat="45.70195" lon="6.27261">
        <ele>1634.4000244141</ele>
        <time>2022-02-23T12:41:18.000Z</time>
      </trkpt>
      <trkpt lat="45.70195" lon="6.27262">
        <ele>1634.5999755859</ele>
        <time>2022-02-23T12:41:19.000Z</time>
      </trkpt>
      <trkpt lat="45.70196" lon="6.27263">
        <ele>1634.5999755859</ele>
        <time>2022-02-23T12:41:20.000Z</time>
      </trkpt>
      <trkpt lat="45.70196" lon="6.27262">
        <ele>1634.5999755859</ele>
        <time>2022-02-23T12:41:24.000Z</time>
      </trkpt>
      <trkpt lat="45.70196" lon="6.27263">
        <ele>1634.5999755859</ele>
        <time>2022-02-23T12:41:31.000Z</time>
      </trkpt>
      <trkpt lat="45.70196" lon="6.27263">
        <ele>1635.4000244141</ele>
        <time>2022-02-23T12:41:37.000Z</time>
      </trkpt>
      <trkpt lat="45.70195" lon="6.27263">
        <ele>1635.4000244141</ele>
        <time>2022-02-23T12:41:39.000Z</time>
      </trkpt>
      <trkpt lat="45.70195" lon="6.27263">
        <ele>1635.4000244141</ele>
        <time>2022-02-23T12:41:42.000Z</time>
      </trkpt>
      <trkpt lat="45.70195" lon="6.27263">
        <ele>1635.1999511719</ele>
        <time>2022-02-23T12:41:46.000Z</time>
      </trkpt>
      <trkpt lat="45.70196" lon="6.27263">
        <ele>1634.8000488281</ele>
        <time>2022-02-23T12:41:51.000Z</time>
      </trkpt>
      <trkpt lat="45.70195" lon="6.27262">
        <ele>1634.5999755859</ele>
        <time>2022-02-23T12:41:57.000Z</time>
      </trkpt>
      <trkpt lat="45.70195" lon="6.27263">
        <ele>1635</ele>
        <time>2022-02-23T12:42:06.000Z</time>
      </trkpt>
      <trkpt lat="45.70195" lon="6.27266">
        <ele>1635.1999511719</ele>
        <time>2022-02-23T12:42:08.000Z</time>
      </trkpt>
      <trkpt lat="45.70195" lon="6.27268">
        <ele>1635.1999511719</ele>
        <time>2022-02-23T12:42:11.000Z</time>
      </trkpt>
      <trkpt lat="45.70193" lon="6.27268">
        <ele>1635.5999755859</ele>
        <time>2022-02-23T12:42:17.000Z</time>
      </trkpt>
      <trkpt lat="45.70193" lon="6.27268">
        <ele>1635.5999755859</ele>
        <time>2022-02-23T12:42:19.000Z</time>
      </trkpt>
      <trkpt lat="45.70193" lon="6.27268">
        <ele>1635.5999755859</ele>
        <time>2022-02-23T12:42:25.000Z</time>
      </trkpt>
      <trkpt lat="45.70193" lon="6.2727">
        <ele>1635.1999511719</ele>
        <time>2022-02-23T12:42:29.000Z</time>
      </trkpt>
      <trkpt lat="45.70194" lon="6.27272">
        <ele>1635.1999511719</ele>
        <time>2022-02-23T12:42:31.000Z</time>
      </trkpt>
      <trkpt lat="45.70194" lon="6.27278">
        <ele>1634.8000488281</ele>
        <time>2022-02-23T12:42:35.000Z</time>
      </trkpt>
      <trkpt lat="45.70194" lon="6.27282">
        <ele>1634.5999755859</ele>
        <time>2022-02-23T12:42:36.000Z</time>
      </trkpt>
      <trkpt lat="45.70195" lon="6.27287">
        <ele>1634</ele>
        <time>2022-02-23T12:42:37.000Z</time>
      </trkpt>
      <trkpt lat="45.70198" lon="6.27294">
        <ele>1633.5999755859</ele>
        <time>2022-02-23T12:42:38.000Z</time>
      </trkpt>
      <trkpt lat="45.702" lon="6.27301">
        <ele>1633</ele>
        <time>2022-02-23T12:42:39.000Z</time>
      </trkpt>
      <trkpt lat="45.70203" lon="6.27308">
        <ele>1632.4000244141</ele>
        <time>2022-02-23T12:42:40.000Z</time>
      </trkpt>
      <trkpt lat="45.70205" lon="6.27317">
        <ele>1630.8000488281</ele>
        <time>2022-02-23T12:42:41.000Z</time>
      </trkpt>
      <trkpt lat="45.70207" lon="6.27324">
        <ele>1629</ele>
        <time>2022-02-23T12:42:42.000Z</time>
      </trkpt>
      <trkpt lat="45.70206" lon="6.27336">
        <ele>1627.4000244141</ele>
        <time>2022-02-23T12:42:44.000Z</time>
      </trkpt>
      <trkpt lat="45.70207" lon="6.27344">
        <ele>1626.5999755859</ele>
        <time>2022-02-23T12:42:46.000Z</time>
      </trkpt>
      <trkpt lat="45.70211" lon="6.27346">
        <ele>1625.5999755859</ele>
        <time>2022-02-23T12:42:47.000Z</time>
      </trkpt>
      <trkpt lat="45.70214" lon="6.27348">
        <ele>1624.1999511719</ele>
        <time>2022-02-23T12:42:48.000Z</time>
      </trkpt>
      <trkpt lat="45.7022" lon="6.27355">
        <ele>1622.1999511719</ele>
        <time>2022-02-23T12:42:50.000Z</time>
      </trkpt>
      <trkpt lat="45.70224" lon="6.27355">
        <ele>1621.4000244141</ele>
        <time>2022-02-23T12:42:51.000Z</time>
      </trkpt>
      <trkpt lat="45.70227" lon="6.27357">
        <ele>1619.5999755859</ele>
        <time>2022-02-23T12:42:52.000Z</time>
      </trkpt>
      <trkpt lat="45.70231" lon="6.27359">
        <ele>1618.5999755859</ele>
        <time>2022-02-23T12:42:53.000Z</time>
      </trkpt>
      <trkpt lat="45.70235" lon="6.27361">
        <ele>1617.8000488281</ele>
        <time>2022-02-23T12:42:54.000Z</time>
      </trkpt>
      <trkpt lat="45.70239" lon="6.27365">
        <ele>1617</ele>
        <time>2022-02-23T12:42:55.000Z</time>
      </trkpt>
      <trkpt lat="45.70243" lon="6.27367">
        <ele>1616.1999511719</ele>
        <time>2022-02-23T12:42:56.000Z</time>
      </trkpt>
      <trkpt lat="45.70247" lon="6.27365">
        <ele>1615.1999511719</ele>
        <time>2022-02-23T12:42:57.000Z</time>
      </trkpt>
      <trkpt lat="45.70251" lon="6.27364">
        <ele>1613.8000488281</ele>
        <time>2022-02-23T12:42:58.000Z</time>
      </trkpt>
      <trkpt lat="45.70254" lon="6.27367">
        <ele>1612.1999511719</ele>
        <time>2022-02-23T12:42:59.000Z</time>
      </trkpt>
      <trkpt lat="45.70257" lon="6.27369">
        <ele>1611.1999511719</ele>
        <time>2022-02-23T12:43:00.000Z</time>
      </trkpt>
      <trkpt lat="45.70261" lon="6.27369">
        <ele>1609.8000488281</ele>
        <time>2022-02-23T12:43:01.000Z</time>
      </trkpt>
      <trkpt lat="45.70265" lon="6.27369">
        <ele>1608.8000488281</ele>
        <time>2022-02-23T12:43:02.000Z</time>
      </trkpt>
      <trkpt lat="45.70267" lon="6.27373">
        <ele>1607.4000244141</ele>
        <time>2022-02-23T12:43:03.000Z</time>
      </trkpt>
      <trkpt lat="45.7027" lon="6.27382">
        <ele>1605.1999511719</ele>
        <time>2022-02-23T12:43:05.000Z</time>
      </trkpt>
      <trkpt lat="45.70272" lon="6.27386">
        <ele>1604.1999511719</ele>
        <time>2022-02-23T12:43:06.000Z</time>
      </trkpt>
      <trkpt lat="45.70274" lon="6.27389">
        <ele>1603.4000244141</ele>
        <time>2022-02-23T12:43:07.000Z</time>
      </trkpt>
      <trkpt lat="45.70275" lon="6.27389">
        <ele>1601.5999755859</ele>
        <time>2022-02-23T12:43:08.000Z</time>
      </trkpt>
      <trkpt lat="45.70278" lon="6.27385">
        <ele>1600.5999755859</ele>
        <time>2022-02-23T12:43:09.000Z</time>
      </trkpt>
      <trkpt lat="45.70281" lon="6.27384">
        <ele>1599.1999511719</ele>
        <time>2022-02-23T12:43:10.000Z</time>
      </trkpt>
      <trkpt lat="45.70284" lon="6.27387">
        <ele>1598.1999511719</ele>
        <time>2022-02-23T12:43:11.000Z</time>
      </trkpt>
      <trkpt lat="45.70287" lon="6.27392">
        <ele>1596.4000244141</ele>
        <time>2022-02-23T12:43:12.000Z</time>
      </trkpt>
      <trkpt lat="45.7029" lon="6.27401">
        <ele>1594.4000244141</ele>
        <time>2022-02-23T12:43:14.000Z</time>
      </trkpt>
      <trkpt lat="45.70291" lon="6.27403">
        <ele>1594</ele>
        <time>2022-02-23T12:43:15.000Z</time>
      </trkpt>
      <trkpt lat="45.70293" lon="6.27404">
        <ele>1593.5999755859</ele>
        <time>2022-02-23T12:43:16.000Z</time>
      </trkpt>
      <trkpt lat="45.70295" lon="6.27403">
        <ele>1592.8000488281</ele>
        <time>2022-02-23T12:43:17.000Z</time>
      </trkpt>
      <trkpt lat="45.70298" lon="6.27403">
        <ele>1592</ele>
        <time>2022-02-23T12:43:18.000Z</time>
      </trkpt>
      <trkpt lat="45.70301" lon="6.27405">
        <ele>1591</ele>
        <time>2022-02-23T12:43:19.000Z</time>
      </trkpt>
      <trkpt lat="45.70302" lon="6.27407">
        <ele>1589.5999755859</ele>
        <time>2022-02-23T12:43:20.000Z</time>
      </trkpt>
      <trkpt lat="45.70303" lon="6.27407">
        <ele>1588.8000488281</ele>
        <time>2022-02-23T12:43:21.000Z</time>
      </trkpt>
      <trkpt lat="45.70303" lon="6.27406">
        <ele>1588.4000244141</ele>
        <time>2022-02-23T12:43:22.000Z</time>
      </trkpt>
      <trkpt lat="45.70304" lon="6.27406">
        <ele>1587.8000488281</ele>
        <time>2022-02-23T12:43:24.000Z</time>
      </trkpt>
      <trkpt lat="45.70304" lon="6.27405">
        <ele>1587.4000244141</ele>
        <time>2022-02-23T12:43:29.000Z</time>
      </trkpt>
      <trkpt lat="45.70304" lon="6.27405">
        <ele>1587.1999511719</ele>
        <time>2022-02-23T12:43:30.000Z</time>
      </trkpt>
      <trkpt lat="45.70306" lon="6.27404">
        <ele>1587</ele>
        <time>2022-02-23T12:43:35.000Z</time>
      </trkpt>
      <trkpt lat="45.70306" lon="6.27403">
        <ele>1587</ele>
        <time>2022-02-23T12:43:36.000Z</time>
      </trkpt>
      <trkpt lat="45.7031" lon="6.27401">
        <ele>1586.5999755859</ele>
        <time>2022-02-23T12:43:40.000Z</time>
      </trkpt>
      <trkpt lat="45.70311" lon="6.27405">
        <ele>1585.8000488281</ele>
        <time>2022-02-23T12:43:42.000Z</time>
      </trkpt>
      <trkpt lat="45.70312" lon="6.27405">
        <ele>1585.4000244141</ele>
        <time>2022-02-23T12:43:43.000Z</time>
      </trkpt>
      <trkpt lat="45.70312" lon="6.27405">
        <ele>1585</ele>
        <time>2022-02-23T12:43:44.000Z</time>
      </trkpt>
      <trkpt lat="45.70314" lon="6.27404">
        <ele>1584.4000244141</ele>
        <time>2022-02-23T12:43:45.000Z</time>
      </trkpt>
      <trkpt lat="45.70316" lon="6.27406">
        <ele>1583.5999755859</ele>
        <time>2022-02-23T12:43:46.000Z</time>
      </trkpt>
      <trkpt lat="45.70318" lon="6.27408">
        <ele>1582.4000244141</ele>
        <time>2022-02-23T12:43:47.000Z</time>
      </trkpt>
      <trkpt lat="45.7032" lon="6.27408">
        <ele>1580.8000488281</ele>
        <time>2022-02-23T12:43:48.000Z</time>
      </trkpt>
      <trkpt lat="45.7032" lon="6.27405">
        <ele>1579.1999511719</ele>
        <time>2022-02-23T12:43:49.000Z</time>
      </trkpt>
      <trkpt lat="45.7032" lon="6.27401">
        <ele>1577.5999755859</ele>
        <time>2022-02-23T12:43:50.000Z</time>
      </trkpt>
      <trkpt lat="45.7032" lon="6.27389">
        <ele>1575.8000488281</ele>
        <time>2022-02-23T12:43:52.000Z</time>
      </trkpt>
      <trkpt lat="45.7032" lon="6.27381">
        <ele>1574.4000244141</ele>
        <time>2022-02-23T12:43:53.000Z</time>
      </trkpt>
      <trkpt lat="45.70321" lon="6.27375">
        <ele>1573.5999755859</ele>
        <time>2022-02-23T12:43:54.000Z</time>
      </trkpt>
      <trkpt lat="45.70324" lon="6.27372">
        <ele>1573</ele>
        <time>2022-02-23T12:43:55.000Z</time>
      </trkpt>
      <trkpt lat="45.70329" lon="6.27375">
        <ele>1571</ele>
        <time>2022-02-23T12:43:57.000Z</time>
      </trkpt>
      <trkpt lat="45.70332" lon="6.27372">
        <ele>1569.1999511719</ele>
        <time>2022-02-23T12:43:58.000Z</time>
      </trkpt>
      <trkpt lat="45.70335" lon="6.27371">
        <ele>1568.4000244141</ele>
        <time>2022-02-23T12:43:59.000Z</time>
      </trkpt>
      <trkpt lat="45.70338" lon="6.2737">
        <ele>1567.5999755859</ele>
        <time>2022-02-23T12:44:00.000Z</time>
      </trkpt>
      <trkpt lat="45.70342" lon="6.27371">
        <ele>1566.4000244141</ele>
        <time>2022-02-23T12:44:01.000Z</time>
      </trkpt>
      <trkpt lat="45.70346" lon="6.27376">
        <ele>1565.4000244141</ele>
        <time>2022-02-23T12:44:02.000Z</time>
      </trkpt>
      <trkpt lat="45.70348" lon="6.27383">
        <ele>1562.4000244141</ele>
        <time>2022-02-23T12:44:03.000Z</time>
      </trkpt>
      <trkpt lat="45.7035" lon="6.2739">
        <ele>1560</ele>
        <time>2022-02-23T12:44:04.000Z</time>
      </trkpt>
      <trkpt lat="45.70354" lon="6.27395">
        <ele>1558.5999755859</ele>
        <time>2022-02-23T12:44:05.000Z</time>
      </trkpt>
      <trkpt lat="45.70358" lon="6.27397">
        <ele>1557.5999755859</ele>
        <time>2022-02-23T12:44:06.000Z</time>
      </trkpt>
      <trkpt lat="45.70361" lon="6.27401">
        <ele>1556</ele>
        <time>2022-02-23T12:44:07.000Z</time>
      </trkpt>
      <trkpt lat="45.70362" lon="6.27408">
        <ele>1555</ele>
        <time>2022-02-23T12:44:08.000Z</time>
      </trkpt>
      <trkpt lat="45.70369" lon="6.2742">
        <ele>1553.1999511719</ele>
        <time>2022-02-23T12:44:10.000Z</time>
      </trkpt>
      <trkpt lat="45.70372" lon="6.27424">
        <ele>1552.4000244141</ele>
        <time>2022-02-23T12:44:11.000Z</time>
      </trkpt>
      <trkpt lat="45.70374" lon="6.27423">
        <ele>1551.4000244141</ele>
        <time>2022-02-23T12:44:12.000Z</time>
      </trkpt>
      <trkpt lat="45.70375" lon="6.27418">
        <ele>1551</ele>
        <time>2022-02-23T12:44:13.000Z</time>
      </trkpt>
      <trkpt lat="45.70377" lon="6.27413">
        <ele>1549.8000488281</ele>
        <time>2022-02-23T12:44:14.000Z</time>
      </trkpt>
      <trkpt lat="45.70381" lon="6.27415">
        <ele>1549</ele>
        <time>2022-02-23T12:44:15.000Z</time>
      </trkpt>
      <trkpt lat="45.70384" lon="6.27419">
        <ele>1547.5999755859</ele>
        <time>2022-02-23T12:44:16.000Z</time>
      </trkpt>
      <trkpt lat="45.70387" lon="6.27422">
        <ele>1546.1999511719</ele>
        <time>2022-02-23T12:44:18.000Z</time>
      </trkpt>
      <trkpt lat="45.70388" lon="6.27414">
        <ele>1544.1999511719</ele>
        <time>2022-02-23T12:44:20.000Z</time>
      </trkpt>
      <trkpt lat="45.70389" lon="6.27407">
        <ele>1543.4000244141</ele>
        <time>2022-02-23T12:44:21.000Z</time>
      </trkpt>
      <trkpt lat="45.70393" lon="6.27406">
        <ele>1542.8000488281</ele>
        <time>2022-02-23T12:44:22.000Z</time>
      </trkpt>
      <trkpt lat="45.70397" lon="6.27408">
        <ele>1542.4000244141</ele>
        <time>2022-02-23T12:44:23.000Z</time>
      </trkpt>
      <trkpt lat="45.70401" lon="6.27408">
        <ele>1541</ele>
        <time>2022-02-23T12:44:24.000Z</time>
      </trkpt>
      <trkpt lat="45.70405" lon="6.27403">
        <ele>1539.5999755859</ele>
        <time>2022-02-23T12:44:25.000Z</time>
      </trkpt>
      <trkpt lat="45.70411" lon="6.27399">
        <ele>1537.8000488281</ele>
        <time>2022-02-23T12:44:26.000Z</time>
      </trkpt>
      <trkpt lat="45.70418" lon="6.27399">
        <ele>1536.5999755859</ele>
        <time>2022-02-23T12:44:27.000Z</time>
      </trkpt>
      <trkpt lat="45.70423" lon="6.27402">
        <ele>1534.8000488281</ele>
        <time>2022-02-23T12:44:28.000Z</time>
      </trkpt>
      <trkpt lat="45.70428" lon="6.27408">
        <ele>1533.4000244141</ele>
        <time>2022-02-23T12:44:29.000Z</time>
      </trkpt>
      <trkpt lat="45.70433" lon="6.27416">
        <ele>1532.5999755859</ele>
        <time>2022-02-23T12:44:30.000Z</time>
      </trkpt>
      <trkpt lat="45.70437" lon="6.27422">
        <ele>1531.1999511719</ele>
        <time>2022-02-23T12:44:31.000Z</time>
      </trkpt>
      <trkpt lat="45.70443" lon="6.27424">
        <ele>1530.5999755859</ele>
        <time>2022-02-23T12:44:32.000Z</time>
      </trkpt>
      <trkpt lat="45.70448" lon="6.27424">
        <ele>1529.1999511719</ele>
        <time>2022-02-23T12:44:33.000Z</time>
      </trkpt>
      <trkpt lat="45.70451" lon="6.27425">
        <ele>1528.4000244141</ele>
        <time>2022-02-23T12:44:34.000Z</time>
      </trkpt>
      <trkpt lat="45.70453" lon="6.27427">
        <ele>1527.5999755859</ele>
        <time>2022-02-23T12:44:35.000Z</time>
      </trkpt>
      <trkpt lat="45.70453" lon="6.27428">
        <ele>1527.1999511719</ele>
        <time>2022-02-23T12:44:36.000Z</time>
      </trkpt>
      <trkpt lat="45.70452" lon="6.27427">
        <ele>1526.4000244141</ele>
        <time>2022-02-23T12:44:37.000Z</time>
      </trkpt>
      <trkpt lat="45.70453" lon="6.27427">
        <ele>1526</ele>
        <time>2022-02-23T12:44:38.000Z</time>
      </trkpt>
      <trkpt lat="45.70452" lon="6.27426">
        <ele>1525.8000488281</ele>
        <time>2022-02-23T12:44:39.000Z</time>
      </trkpt>
      <trkpt lat="45.70452" lon="6.27425">
        <ele>1525.5999755859</ele>
        <time>2022-02-23T12:44:41.000Z</time>
      </trkpt>
      <trkpt lat="45.70452" lon="6.27424">
        <ele>1526</ele>
        <time>2022-02-23T12:44:44.000Z</time>
      </trkpt>
      <trkpt lat="45.70452" lon="6.27425">
        <ele>1525.8000488281</ele>
        <time>2022-02-23T12:44:48.000Z</time>
      </trkpt>
      <trkpt lat="45.70451" lon="6.27425">
        <ele>1525.8000488281</ele>
        <time>2022-02-23T12:44:50.000Z</time>
      </trkpt>
      <trkpt lat="45.70451" lon="6.27425">
        <ele>1525.8000488281</ele>
        <time>2022-02-23T12:44:51.000Z</time>
      </trkpt>
      <trkpt lat="45.70451" lon="6.27426">
        <ele>1525.8000488281</ele>
        <time>2022-02-23T12:44:52.000Z</time>
      </trkpt>
      <trkpt lat="45.70451" lon="6.27426">
        <ele>1526.1999511719</ele>
        <time>2022-02-23T12:44:58.000Z</time>
      </trkpt>
      <trkpt lat="45.7045" lon="6.27427">
        <ele>1526</ele>
        <time>2022-02-23T12:45:08.000Z</time>
      </trkpt>
      <trkpt lat="45.7045" lon="6.27427">
        <ele>1526.1999511719</ele>
        <time>2022-02-23T12:45:10.000Z</time>
      </trkpt>
      <trkpt lat="45.70451" lon="6.27427">
        <ele>1525.4000244141</ele>
        <time>2022-02-23T12:45:19.000Z</time>
      </trkpt>
      <trkpt lat="45.70452" lon="6.27429">
        <ele>1525.4000244141</ele>
        <time>2022-02-23T12:45:20.000Z</time>
      </trkpt>
      <trkpt lat="45.70456" lon="6.27432">
        <ele>1525</ele>
        <time>2022-02-23T12:45:22.000Z</time>
      </trkpt>
      <trkpt lat="45.70458" lon="6.27432">
        <ele>1525</ele>
        <time>2022-02-23T12:45:23.000Z</time>
      </trkpt>
      <trkpt lat="45.70459" lon="6.27432">
        <ele>1524.5999755859</ele>
        <time>2022-02-23T12:45:24.000Z</time>
      </trkpt>
      <trkpt lat="45.7046" lon="6.27432">
        <ele>1524</ele>
        <time>2022-02-23T12:45:25.000Z</time>
      </trkpt>
      <trkpt lat="45.70463" lon="6.27429">
        <ele>1523</ele>
        <time>2022-02-23T12:45:27.000Z</time>
      </trkpt>
      <trkpt lat="45.70467" lon="6.27431">
        <ele>1522.1999511719</ele>
        <time>2022-02-23T12:45:29.000Z</time>
      </trkpt>
      <trkpt lat="45.70467" lon="6.27431">
        <ele>1521.1999511719</ele>
        <time>2022-02-23T12:45:30.000Z</time>
      </trkpt>
      <trkpt lat="45.70467" lon="6.27432">
        <ele>1520.1999511719</ele>
        <time>2022-02-23T12:45:32.000Z</time>
      </trkpt>
      <trkpt lat="45.70467" lon="6.27431">
        <ele>1519.5999755859</ele>
        <time>2022-02-23T12:45:37.000Z</time>
      </trkpt>
      <trkpt lat="45.70469" lon="6.27434">
        <ele>1519.1999511719</ele>
        <time>2022-02-23T12:45:46.000Z</time>
      </trkpt>
      <trkpt lat="45.70471" lon="6.27439">
        <ele>1519</ele>
        <time>2022-02-23T12:45:47.000Z</time>
      </trkpt>
      <trkpt lat="45.70475" lon="6.27442">
        <ele>1518.8000488281</ele>
        <time>2022-02-23T12:45:48.000Z</time>
      </trkpt>
      <trkpt lat="45.70479" lon="6.27441">
        <ele>1517.5999755859</ele>
        <time>2022-02-23T12:45:49.000Z</time>
      </trkpt>
      <trkpt lat="45.70484" lon="6.27441">
        <ele>1516.4000244141</ele>
        <time>2022-02-23T12:45:50.000Z</time>
      </trkpt>
      <trkpt lat="45.7049" lon="6.27442">
        <ele>1514.8000488281</ele>
        <time>2022-02-23T12:45:51.000Z</time>
      </trkpt>
      <trkpt lat="45.70496" lon="6.27442">
        <ele>1512.1999511719</ele>
        <time>2022-02-23T12:45:52.000Z</time>
      </trkpt>
      <trkpt lat="45.70503" lon="6.27444">
        <ele>1509.4000244141</ele>
        <time>2022-02-23T12:45:53.000Z</time>
      </trkpt>
      <trkpt lat="45.7051" lon="6.27445">
        <ele>1507.1999511719</ele>
        <time>2022-02-23T12:45:54.000Z</time>
      </trkpt>
      <trkpt lat="45.70518" lon="6.27442">
        <ele>1504.5999755859</ele>
        <time>2022-02-23T12:45:55.000Z</time>
      </trkpt>
      <trkpt lat="45.70525" lon="6.27441">
        <ele>1501.1999511719</ele>
        <time>2022-02-23T12:45:56.000Z</time>
      </trkpt>
      <trkpt lat="45.70533" lon="6.27445">
        <ele>1498.5999755859</ele>
        <time>2022-02-23T12:45:57.000Z</time>
      </trkpt>
      <trkpt lat="45.7054" lon="6.27446">
        <ele>1494.4000244141</ele>
        <time>2022-02-23T12:45:58.000Z</time>
      </trkpt>
      <trkpt lat="45.70547" lon="6.27441">
        <ele>1491.4000244141</ele>
        <time>2022-02-23T12:45:59.000Z</time>
      </trkpt>
      <trkpt lat="45.70555" lon="6.27437">
        <ele>1488.4000244141</ele>
        <time>2022-02-23T12:46:00.000Z</time>
      </trkpt>
      <trkpt lat="45.70562" lon="6.27439">
        <ele>1485.1999511719</ele>
        <time>2022-02-23T12:46:01.000Z</time>
      </trkpt>
      <trkpt lat="45.7057" lon="6.27441">
        <ele>1481.5999755859</ele>
        <time>2022-02-23T12:46:02.000Z</time>
      </trkpt>
      <trkpt lat="45.70576" lon="6.27438">
        <ele>1479.1999511719</ele>
        <time>2022-02-23T12:46:03.000Z</time>
      </trkpt>
      <trkpt lat="45.70581" lon="6.27432">
        <ele>1477</ele>
        <time>2022-02-23T12:46:04.000Z</time>
      </trkpt>
      <trkpt lat="45.70586" lon="6.27429">
        <ele>1474.4000244141</ele>
        <time>2022-02-23T12:46:05.000Z</time>
      </trkpt>
      <trkpt lat="45.7059" lon="6.27431">
        <ele>1472.4000244141</ele>
        <time>2022-02-23T12:46:06.000Z</time>
      </trkpt>
      <trkpt lat="45.70591" lon="6.27433">
        <ele>1470</ele>
        <time>2022-02-23T12:46:07.000Z</time>
      </trkpt>
      <trkpt lat="45.70591" lon="6.27433">
        <ele>1468.5999755859</ele>
        <time>2022-02-23T12:46:08.000Z</time>
      </trkpt>
      <trkpt lat="45.70591" lon="6.27434">
        <ele>1467.8000488281</ele>
        <time>2022-02-23T12:46:09.000Z</time>
      </trkpt>
      <trkpt lat="45.70591" lon="6.27433">
        <ele>1467.4000244141</ele>
        <time>2022-02-23T12:46:10.000Z</time>
      </trkpt>
      <trkpt lat="45.70591" lon="6.27433">
        <ele>1467.1999511719</ele>
        <time>2022-02-23T12:46:12.000Z</time>
      </trkpt>
      <trkpt lat="45.70591" lon="6.27433">
        <ele>1467.5999755859</ele>
        <time>2022-02-23T12:46:15.000Z</time>
      </trkpt>
      <trkpt lat="45.70592" lon="6.27432">
        <ele>1467.5999755859</ele>
        <time>2022-02-23T12:46:17.000Z</time>
      </trkpt>
      <trkpt lat="45.70592" lon="6.27431">
        <ele>1467</ele>
        <time>2022-02-23T12:46:18.000Z</time>
      </trkpt>
      <trkpt lat="45.70593" lon="6.27426">
        <ele>1466.1999511719</ele>
        <time>2022-02-23T12:46:20.000Z</time>
      </trkpt>
      <trkpt lat="45.70594" lon="6.27417">
        <ele>1465.1999511719</ele>
        <time>2022-02-23T12:46:22.000Z</time>
      </trkpt>
      <trkpt lat="45.70595" lon="6.27413">
        <ele>1464.8000488281</ele>
        <time>2022-02-23T12:46:23.000Z</time>
      </trkpt>
      <trkpt lat="45.70599" lon="6.27411">
        <ele>1464</ele>
        <time>2022-02-23T12:46:24.000Z</time>
      </trkpt>
      <trkpt lat="45.70602" lon="6.27413">
        <ele>1463</ele>
        <time>2022-02-23T12:46:25.000Z</time>
      </trkpt>
      <trkpt lat="45.70605" lon="6.27414">
        <ele>1461.5999755859</ele>
        <time>2022-02-23T12:46:26.000Z</time>
      </trkpt>
      <trkpt lat="45.70607" lon="6.27411">
        <ele>1459.8000488281</ele>
        <time>2022-02-23T12:46:27.000Z</time>
      </trkpt>
      <trkpt lat="45.70608" lon="6.27406">
        <ele>1458.8000488281</ele>
        <time>2022-02-23T12:46:28.000Z</time>
      </trkpt>
      <trkpt lat="45.7061" lon="6.27401">
        <ele>1458</ele>
        <time>2022-02-23T12:46:29.000Z</time>
      </trkpt>
      <trkpt lat="45.70614" lon="6.27399">
        <ele>1456.4000244141</ele>
        <time>2022-02-23T12:46:30.000Z</time>
      </trkpt>
      <trkpt lat="45.70618" lon="6.274">
        <ele>1455.1999511719</ele>
        <time>2022-02-23T12:46:31.000Z</time>
      </trkpt>
      <trkpt lat="45.70622" lon="6.274">
        <ele>1453.8000488281</ele>
        <time>2022-02-23T12:46:32.000Z</time>
      </trkpt>
      <trkpt lat="45.70626" lon="6.27396">
        <ele>1452.1999511719</ele>
        <time>2022-02-23T12:46:33.000Z</time>
      </trkpt>
      <trkpt lat="45.70631" lon="6.27392">
        <ele>1450.1999511719</ele>
        <time>2022-02-23T12:46:34.000Z</time>
      </trkpt>
      <trkpt lat="45.70637" lon="6.27394">
        <ele>1448.5999755859</ele>
        <time>2022-02-23T12:46:35.000Z</time>
      </trkpt>
      <trkpt lat="45.70643" lon="6.27399">
        <ele>1445.8000488281</ele>
        <time>2022-02-23T12:46:36.000Z</time>
      </trkpt>
      <trkpt lat="45.70647" lon="6.27405">
        <ele>1443.4000244141</ele>
        <time>2022-02-23T12:46:37.000Z</time>
      </trkpt>
      <trkpt lat="45.70651" lon="6.27406">
        <ele>1441.4000244141</ele>
        <time>2022-02-23T12:46:38.000Z</time>
      </trkpt>
      <trkpt lat="45.70657" lon="6.27402">
        <ele>1439.8000488281</ele>
        <time>2022-02-23T12:46:39.000Z</time>
      </trkpt>
      <trkpt lat="45.70664" lon="6.274">
        <ele>1437.5999755859</ele>
        <time>2022-02-23T12:46:40.000Z</time>
      </trkpt>
      <trkpt lat="45.70671" lon="6.27403">
        <ele>1436.4000244141</ele>
        <time>2022-02-23T12:46:41.000Z</time>
      </trkpt>
      <trkpt lat="45.70677" lon="6.27409">
        <ele>1432.5999755859</ele>
        <time>2022-02-23T12:46:42.000Z</time>
      </trkpt>
      <trkpt lat="45.70682" lon="6.27414">
        <ele>1429</ele>
        <time>2022-02-23T12:46:43.000Z</time>
      </trkpt>
      <trkpt lat="45.70689" lon="6.27415">
        <ele>1427</ele>
        <time>2022-02-23T12:46:44.000Z</time>
      </trkpt>
      <trkpt lat="45.70696" lon="6.27419">
        <ele>1423</ele>
        <time>2022-02-23T12:46:45.000Z</time>
      </trkpt>
      <trkpt lat="45.70702" lon="6.27423">
        <ele>1420.8000488281</ele>
        <time>2022-02-23T12:46:46.000Z</time>
      </trkpt>
      <trkpt lat="45.70709" lon="6.27421">
        <ele>1419</ele>
        <time>2022-02-23T12:46:47.000Z</time>
      </trkpt>
      <trkpt lat="45.70716" lon="6.27419">
        <ele>1417</ele>
        <time>2022-02-23T12:46:48.000Z</time>
      </trkpt>
      <trkpt lat="45.70723" lon="6.27422">
        <ele>1414.4000244141</ele>
        <time>2022-02-23T12:46:49.000Z</time>
      </trkpt>
      <trkpt lat="45.7073" lon="6.27424">
        <ele>1411.4000244141</ele>
        <time>2022-02-23T12:46:50.000Z</time>
      </trkpt>
      <trkpt lat="45.70737" lon="6.2742">
        <ele>1408.8000488281</ele>
        <time>2022-02-23T12:46:51.000Z</time>
      </trkpt>
      <trkpt lat="45.70743" lon="6.27416">
        <ele>1405.5999755859</ele>
        <time>2022-02-23T12:46:52.000Z</time>
      </trkpt>
      <trkpt lat="45.7075" lon="6.27417">
        <ele>1403</ele>
        <time>2022-02-23T12:46:53.000Z</time>
      </trkpt>
      <trkpt lat="45.70756" lon="6.27423">
        <ele>1400.1999511719</ele>
        <time>2022-02-23T12:46:54.000Z</time>
      </trkpt>
      <trkpt lat="45.70762" lon="6.27426">
        <ele>1397.5999755859</ele>
        <time>2022-02-23T12:46:55.000Z</time>
      </trkpt>
      <trkpt lat="45.70768" lon="6.27424">
        <ele>1395.8000488281</ele>
        <time>2022-02-23T12:46:56.000Z</time>
      </trkpt>
      <trkpt lat="45.70773" lon="6.27425">
        <ele>1393.4000244141</ele>
        <time>2022-02-23T12:46:57.000Z</time>
      </trkpt>
      <trkpt lat="45.70778" lon="6.27429">
        <ele>1391.4000244141</ele>
        <time>2022-02-23T12:46:58.000Z</time>
      </trkpt>
      <trkpt lat="45.70782" lon="6.27431">
        <ele>1389</ele>
        <time>2022-02-23T12:46:59.000Z</time>
      </trkpt>
      <trkpt lat="45.70787" lon="6.27428">
        <ele>1386.5999755859</ele>
        <time>2022-02-23T12:47:00.000Z</time>
      </trkpt>
      <trkpt lat="45.70792" lon="6.27423">
        <ele>1384</ele>
        <time>2022-02-23T12:47:01.000Z</time>
      </trkpt>
      <trkpt lat="45.70797" lon="6.27417">
        <ele>1381.1999511719</ele>
        <time>2022-02-23T12:47:02.000Z</time>
      </trkpt>
      <trkpt lat="45.70802" lon="6.27413">
        <ele>1379.1999511719</ele>
        <time>2022-02-23T12:47:03.000Z</time>
      </trkpt>
      <trkpt lat="45.70807" lon="6.27416">
        <ele>1378</ele>
        <time>2022-02-23T12:47:04.000Z</time>
      </trkpt>
      <trkpt lat="45.70809" lon="6.27422">
        <ele>1374.5999755859</ele>
        <time>2022-02-23T12:47:05.000Z</time>
      </trkpt>
      <trkpt lat="45.70811" lon="6.27428">
        <ele>1371.8000488281</ele>
        <time>2022-02-23T12:47:06.000Z</time>
      </trkpt>
      <trkpt lat="45.70815" lon="6.27431">
        <ele>1369.5999755859</ele>
        <time>2022-02-23T12:47:07.000Z</time>
      </trkpt>
      <trkpt lat="45.70817" lon="6.27431">
        <ele>1368.1999511719</ele>
        <time>2022-02-23T12:47:08.000Z</time>
      </trkpt>
      <trkpt lat="45.70818" lon="6.27431">
        <ele>1366.5999755859</ele>
        <time>2022-02-23T12:47:09.000Z</time>
      </trkpt>
      <trkpt lat="45.70818" lon="6.2743">
        <ele>1365.5999755859</ele>
        <time>2022-02-23T12:47:10.000Z</time>
      </trkpt>
      <trkpt lat="45.70817" lon="6.2743">
        <ele>1365</ele>
        <time>2022-02-23T12:47:11.000Z</time>
      </trkpt>
      <trkpt lat="45.70817" lon="6.2743">
        <ele>1364</ele>
        <time>2022-02-23T12:47:16.000Z</time>
      </trkpt>
      <trkpt lat="45.70817" lon="6.2743">
        <ele>1363.8000488281</ele>
        <time>2022-02-23T12:47:18.000Z</time>
      </trkpt>
      <trkpt lat="45.70817" lon="6.2743">
        <ele>1364</ele>
        <time>2022-02-23T12:47:19.000Z</time>
      </trkpt>
      <trkpt lat="45.70817" lon="6.2743">
        <ele>1364.4000244141</ele>
        <time>2022-02-23T12:47:26.000Z</time>
      </trkpt>
      <trkpt lat="45.70817" lon="6.2743">
        <ele>1364.4000244141</ele>
        <time>2022-02-23T12:47:32.000Z</time>
      </trkpt>
      <trkpt lat="45.70817" lon="6.2743">
        <ele>1364.4000244141</ele>
        <time>2022-02-23T12:47:34.000Z</time>
      </trkpt>
      <trkpt lat="45.7082" lon="6.27428">
        <ele>1364</ele>
        <time>2022-02-23T12:47:42.000Z</time>
      </trkpt>
      <trkpt lat="45.70823" lon="6.27428">
        <ele>1363.8000488281</ele>
        <time>2022-02-23T12:47:43.000Z</time>
      </trkpt>
      <trkpt lat="45.70825" lon="6.27432">
        <ele>1363.8000488281</ele>
        <time>2022-02-23T12:47:44.000Z</time>
      </trkpt>
      <trkpt lat="45.70832" lon="6.27436">
        <ele>1361.1999511719</ele>
        <time>2022-02-23T12:47:46.000Z</time>
      </trkpt>
      <trkpt lat="45.70836" lon="6.27437">
        <ele>1359.4000244141</ele>
        <time>2022-02-23T12:47:47.000Z</time>
      </trkpt>
      <trkpt lat="45.70839" lon="6.27441">
        <ele>1357.5999755859</ele>
        <time>2022-02-23T12:47:48.000Z</time>
      </trkpt>
      <trkpt lat="45.70843" lon="6.27445">
        <ele>1355.5999755859</ele>
        <time>2022-02-23T12:47:49.000Z</time>
      </trkpt>
      <trkpt lat="45.70848" lon="6.27445">
        <ele>1353.5999755859</ele>
        <time>2022-02-23T12:47:50.000Z</time>
      </trkpt>
      <trkpt lat="45.70853" lon="6.27447">
        <ele>1351.5999755859</ele>
        <time>2022-02-23T12:47:51.000Z</time>
      </trkpt>
      <trkpt lat="45.70859" lon="6.27447">
        <ele>1349.8000488281</ele>
        <time>2022-02-23T12:47:52.000Z</time>
      </trkpt>
      <trkpt lat="45.70863" lon="6.27446">
        <ele>1346.8000488281</ele>
        <time>2022-02-23T12:47:53.000Z</time>
      </trkpt>
      <trkpt lat="45.70869" lon="6.27448">
        <ele>1342.8000488281</ele>
        <time>2022-02-23T12:47:54.000Z</time>
      </trkpt>
      <trkpt lat="45.70875" lon="6.27449">
        <ele>1340.8000488281</ele>
        <time>2022-02-23T12:47:55.000Z</time>
      </trkpt>
      <trkpt lat="45.7088" lon="6.27451">
        <ele>1337.4000244141</ele>
        <time>2022-02-23T12:47:56.000Z</time>
      </trkpt>
      <trkpt lat="45.70885" lon="6.27454">
        <ele>1335.5999755859</ele>
        <time>2022-02-23T12:47:57.000Z</time>
      </trkpt>
      <trkpt lat="45.70891" lon="6.27454">
        <ele>1333.4000244141</ele>
        <time>2022-02-23T12:47:58.000Z</time>
      </trkpt>
      <trkpt lat="45.70896" lon="6.27454">
        <ele>1330.4000244141</ele>
        <time>2022-02-23T12:47:59.000Z</time>
      </trkpt>
      <trkpt lat="45.70901" lon="6.27455">
        <ele>1328.4000244141</ele>
        <time>2022-02-23T12:48:00.000Z</time>
      </trkpt>
      <trkpt lat="45.70906" lon="6.27455">
        <ele>1325.4000244141</ele>
        <time>2022-02-23T12:48:01.000Z</time>
      </trkpt>
      <trkpt lat="45.7091" lon="6.27451">
        <ele>1323</ele>
        <time>2022-02-23T12:48:02.000Z</time>
      </trkpt>
      <trkpt lat="45.70913" lon="6.27446">
        <ele>1319.8000488281</ele>
        <time>2022-02-23T12:48:03.000Z</time>
      </trkpt>
      <trkpt lat="45.70918" lon="6.27444">
        <ele>1317.1999511719</ele>
        <time>2022-02-23T12:48:04.000Z</time>
      </trkpt>
      <trkpt lat="45.70922" lon="6.27447">
        <ele>1315.5999755859</ele>
        <time>2022-02-23T12:48:05.000Z</time>
      </trkpt>
      <trkpt lat="45.70925" lon="6.27451">
        <ele>1312.1999511719</ele>
        <time>2022-02-23T12:48:06.000Z</time>
      </trkpt>
      <trkpt lat="45.7093" lon="6.27451">
        <ele>1310</ele>
        <time>2022-02-23T12:48:07.000Z</time>
      </trkpt>
      <trkpt lat="45.70933" lon="6.2745">
        <ele>1307</ele>
        <time>2022-02-23T12:48:08.000Z</time>
      </trkpt>
      <trkpt lat="45.70939" lon="6.27455">
        <ele>1305.4000244141</ele>
        <time>2022-02-23T12:48:09.000Z</time>
      </trkpt>
      <trkpt lat="45.70942" lon="6.27461">
        <ele>1302.8000488281</ele>
        <time>2022-02-23T12:48:10.000Z</time>
      </trkpt>
      <trkpt lat="45.70943" lon="6.27468">
        <ele>1299.1999511719</ele>
        <time>2022-02-23T12:48:11.000Z</time>
      </trkpt>
      <trkpt lat="45.70946" lon="6.27472">
        <ele>1297.4000244141</ele>
        <time>2022-02-23T12:48:12.000Z</time>
      </trkpt>
      <trkpt lat="45.7095" lon="6.27471">
        <ele>1295.4000244141</ele>
        <time>2022-02-23T12:48:13.000Z</time>
      </trkpt>
      <trkpt lat="45.70955" lon="6.27472">
        <ele>1293.8000488281</ele>
        <time>2022-02-23T12:48:14.000Z</time>
      </trkpt>
      <trkpt lat="45.70957" lon="6.27478">
        <ele>1292.1999511719</ele>
        <time>2022-02-23T12:48:15.000Z</time>
      </trkpt>
      <trkpt lat="45.70958" lon="6.27486">
        <ele>1289</ele>
        <time>2022-02-23T12:48:16.000Z</time>
      </trkpt>
      <trkpt lat="45.70957" lon="6.27493">
        <ele>1285.8000488281</ele>
        <time>2022-02-23T12:48:17.000Z</time>
      </trkpt>
      <trkpt lat="45.70956" lon="6.27499">
        <ele>1283.4000244141</ele>
        <time>2022-02-23T12:48:18.000Z</time>
      </trkpt>
      <trkpt lat="45.70956" lon="6.27502">
        <ele>1282.1999511719</ele>
        <time>2022-02-23T12:48:19.000Z</time>
      </trkpt>
      <trkpt lat="45.70956" lon="6.27503">
        <ele>1281.4000244141</ele>
        <time>2022-02-23T12:48:20.000Z</time>
      </trkpt>
      <trkpt lat="45.70956" lon="6.27503">
        <ele>1280.5999755859</ele>
        <time>2022-02-23T12:48:21.000Z</time>
      </trkpt>
      <trkpt lat="45.70956" lon="6.27503">
        <ele>1280.1999511719</ele>
        <time>2022-02-23T12:48:25.000Z</time>
      </trkpt>
      <trkpt lat="45.70956" lon="6.27502">
        <ele>1279.8000488281</ele>
        <time>2022-02-23T12:48:29.000Z</time>
      </trkpt>
      <trkpt lat="45.70957" lon="6.27501">
        <ele>1280</ele>
        <time>2022-02-23T12:48:33.000Z</time>
      </trkpt>
      <trkpt lat="45.70957" lon="6.27501">
        <ele>1279.5999755859</ele>
        <time>2022-02-23T12:48:37.000Z</time>
      </trkpt>
      <trkpt lat="45.70958" lon="6.27501">
        <ele>1279.4000244141</ele>
        <time>2022-02-23T12:48:40.000Z</time>
      </trkpt>
      <trkpt lat="45.70963" lon="6.275">
        <ele>1279.1999511719</ele>
        <time>2022-02-23T12:48:43.000Z</time>
      </trkpt>
      <trkpt lat="45.70964" lon="6.27499">
        <ele>1278.1999511719</ele>
        <time>2022-02-23T12:48:44.000Z</time>
      </trkpt>
      <trkpt lat="45.70965" lon="6.27499">
        <ele>1276.8000488281</ele>
        <time>2022-02-23T12:48:46.000Z</time>
      </trkpt>
      <trkpt lat="45.7097" lon="6.27494">
        <ele>1276.1999511719</ele>
        <time>2022-02-23T12:48:50.000Z</time>
      </trkpt>
      <trkpt lat="45.70972" lon="6.27494">
        <ele>1275.8000488281</ele>
        <time>2022-02-23T12:48:51.000Z</time>
      </trkpt>
      <trkpt lat="45.70974" lon="6.27499">
        <ele>1275.4000244141</ele>
        <time>2022-02-23T12:48:52.000Z</time>
      </trkpt>
      <trkpt lat="45.70974" lon="6.27504">
        <ele>1274.5999755859</ele>
        <time>2022-02-23T12:48:53.000Z</time>
      </trkpt>
      <trkpt lat="45.70974" lon="6.27508">
        <ele>1273</ele>
        <time>2022-02-23T12:48:54.000Z</time>
      </trkpt>
      <trkpt lat="45.70973" lon="6.27511">
        <ele>1272.1999511719</ele>
        <time>2022-02-23T12:48:55.000Z</time>
      </trkpt>
      <trkpt lat="45.70972" lon="6.27512">
        <ele>1271.5999755859</ele>
        <time>2022-02-23T12:48:56.000Z</time>
      </trkpt>
      <trkpt lat="45.70973" lon="6.27512">
        <ele>1270.5999755859</ele>
        <time>2022-02-23T12:48:59.000Z</time>
      </trkpt>
      <trkpt lat="45.70973" lon="6.27512">
        <ele>1270.5999755859</ele>
        <time>2022-02-23T12:49:00.000Z</time>
      </trkpt>
      <trkpt lat="45.70973" lon="6.27513">
        <ele>1270.5999755859</ele>
        <time>2022-02-23T12:49:11.000Z</time>
      </trkpt>
      <trkpt lat="45.70977" lon="6.27515">
        <ele>1270.4000244141</ele>
        <time>2022-02-23T12:49:16.000Z</time>
      </trkpt>
      <trkpt lat="45.70982" lon="6.2751">
        <ele>1269</ele>
        <time>2022-02-23T12:49:18.000Z</time>
      </trkpt>
      <trkpt lat="45.70986" lon="6.27507">
        <ele>1268</ele>
        <time>2022-02-23T12:49:19.000Z</time>
      </trkpt>
      <trkpt lat="45.7099" lon="6.27504">
        <ele>1267.4000244141</ele>
        <time>2022-02-23T12:49:20.000Z</time>
      </trkpt>
      <trkpt lat="45.70994" lon="6.27502">
        <ele>1266.5999755859</ele>
        <time>2022-02-23T12:49:21.000Z</time>
      </trkpt>
      <trkpt lat="45.70999" lon="6.27505">
        <ele>1265.1999511719</ele>
        <time>2022-02-23T12:49:22.000Z</time>
      </trkpt>
      <trkpt lat="45.7101" lon="6.27513">
        <ele>1263</ele>
        <time>2022-02-23T12:49:24.000Z</time>
      </trkpt>
      <trkpt lat="45.71016" lon="6.27521">
        <ele>1260</ele>
        <time>2022-02-23T12:49:25.000Z</time>
      </trkpt>
      <trkpt lat="45.71022" lon="6.2753">
        <ele>1257.1999511719</ele>
        <time>2022-02-23T12:49:26.000Z</time>
      </trkpt>
      <trkpt lat="45.7103" lon="6.27536">
        <ele>1253.1999511719</ele>
        <time>2022-02-23T12:49:27.000Z</time>
      </trkpt>
      <trkpt lat="45.71039" lon="6.27539">
        <ele>1250</ele>
        <time>2022-02-23T12:49:28.000Z</time>
      </trkpt>
      <trkpt lat="45.71047" lon="6.27544">
        <ele>1246.5999755859</ele>
        <time>2022-02-23T12:49:29.000Z</time>
      </trkpt>
      <trkpt lat="45.71054" lon="6.27547">
        <ele>1242.8000488281</ele>
        <time>2022-02-23T12:49:30.000Z</time>
      </trkpt>
      <trkpt lat="45.71061" lon="6.27549">
        <ele>1240.5999755859</ele>
        <time>2022-02-23T12:49:31.000Z</time>
      </trkpt>
      <trkpt lat="45.71069" lon="6.2755">
        <ele>1239</ele>
        <time>2022-02-23T12:49:32.000Z</time>
      </trkpt>
      <trkpt lat="45.71076" lon="6.27551">
        <ele>1237.5999755859</ele>
        <time>2022-02-23T12:49:33.000Z</time>
      </trkpt>
      <trkpt lat="45.71084" lon="6.27552">
        <ele>1234.4000244141</ele>
        <time>2022-02-23T12:49:34.000Z</time>
      </trkpt>
      <trkpt lat="45.71091" lon="6.27552">
        <ele>1231</ele>
        <time>2022-02-23T12:49:35.000Z</time>
      </trkpt>
      <trkpt lat="45.71098" lon="6.27554">
        <ele>1228.5999755859</ele>
        <time>2022-02-23T12:49:36.000Z</time>
      </trkpt>
      <trkpt lat="45.71105" lon="6.27553">
        <ele>1227.4000244141</ele>
        <time>2022-02-23T12:49:37.000Z</time>
      </trkpt>
      <trkpt lat="45.71112" lon="6.27553">
        <ele>1225</ele>
        <time>2022-02-23T12:49:38.000Z</time>
      </trkpt>
      <trkpt lat="45.71118" lon="6.27555">
        <ele>1222.8000488281</ele>
        <time>2022-02-23T12:49:39.000Z</time>
      </trkpt>
      <trkpt lat="45.71125" lon="6.27555">
        <ele>1220.4000244141</ele>
        <time>2022-02-23T12:49:40.000Z</time>
      </trkpt>
      <trkpt lat="45.71132" lon="6.27555">
        <ele>1217.8000488281</ele>
        <time>2022-02-23T12:49:41.000Z</time>
      </trkpt>
      <trkpt lat="45.71139" lon="6.27556">
        <ele>1215.4000244141</ele>
        <time>2022-02-23T12:49:42.000Z</time>
      </trkpt>
      <trkpt lat="45.71147" lon="6.27556">
        <ele>1213</ele>
        <time>2022-02-23T12:49:43.000Z</time>
      </trkpt>
      <trkpt lat="45.71154" lon="6.2756">
        <ele>1208.4000244141</ele>
        <time>2022-02-23T12:49:44.000Z</time>
      </trkpt>
      <trkpt lat="45.7116" lon="6.27565">
        <ele>1205.1999511719</ele>
        <time>2022-02-23T12:49:45.000Z</time>
      </trkpt>
      <trkpt lat="45.71168" lon="6.27565">
        <ele>1203</ele>
        <time>2022-02-23T12:49:46.000Z</time>
      </trkpt>
      <trkpt lat="45.71176" lon="6.27565">
        <ele>1200</ele>
        <time>2022-02-23T12:49:47.000Z</time>
      </trkpt>
      <trkpt lat="45.71184" lon="6.27568">
        <ele>1196.8000488281</ele>
        <time>2022-02-23T12:49:48.000Z</time>
      </trkpt>
      <trkpt lat="45.71191" lon="6.27574">
        <ele>1194</ele>
        <time>2022-02-23T12:49:49.000Z</time>
      </trkpt>
      <trkpt lat="45.71199" lon="6.27575">
        <ele>1191.4000244141</ele>
        <time>2022-02-23T12:49:50.000Z</time>
      </trkpt>
      <trkpt lat="45.71206" lon="6.2757">
        <ele>1188.8000488281</ele>
        <time>2022-02-23T12:49:51.000Z</time>
      </trkpt>
      <trkpt lat="45.71213" lon="6.27565">
        <ele>1185.1999511719</ele>
        <time>2022-02-23T12:49:52.000Z</time>
      </trkpt>
      <trkpt lat="45.71221" lon="6.27565">
        <ele>1182.4000244141</ele>
        <time>2022-02-23T12:49:53.000Z</time>
      </trkpt>
      <trkpt lat="45.71229" lon="6.27567">
        <ele>1178.8000488281</ele>
        <time>2022-02-23T12:49:54.000Z</time>
      </trkpt>
      <trkpt lat="45.71237" lon="6.2757">
        <ele>1175.8000488281</ele>
        <time>2022-02-23T12:49:55.000Z</time>
      </trkpt>
      <trkpt lat="45.71245" lon="6.27574">
        <ele>1173.5999755859</ele>
        <time>2022-02-23T12:49:56.000Z</time>
      </trkpt>
      <trkpt lat="45.71253" lon="6.27577">
        <ele>1170.5999755859</ele>
        <time>2022-02-23T12:49:57.000Z</time>
      </trkpt>
      <trkpt lat="45.71262" lon="6.2758">
        <ele>1166.1999511719</ele>
        <time>2022-02-23T12:49:58.000Z</time>
      </trkpt>
      <trkpt lat="45.7127" lon="6.27579">
        <ele>1163</ele>
        <time>2022-02-23T12:49:59.000Z</time>
      </trkpt>
      <trkpt lat="45.71276" lon="6.27574">
        <ele>1160.8000488281</ele>
        <time>2022-02-23T12:50:00.000Z</time>
      </trkpt>
      <trkpt lat="45.71282" lon="6.27568">
        <ele>1159</ele>
        <time>2022-02-23T12:50:01.000Z</time>
      </trkpt>
      <trkpt lat="45.71288" lon="6.27566">
        <ele>1156</ele>
        <time>2022-02-23T12:50:02.000Z</time>
      </trkpt>
      <trkpt lat="45.71293" lon="6.27569">
        <ele>1153</ele>
        <time>2022-02-23T12:50:03.000Z</time>
      </trkpt>
      <trkpt lat="45.71297" lon="6.27574">
        <ele>1150.5999755859</ele>
        <time>2022-02-23T12:50:04.000Z</time>
      </trkpt>
      <trkpt lat="45.713" lon="6.27579">
        <ele>1148.8000488281</ele>
        <time>2022-02-23T12:50:05.000Z</time>
      </trkpt>
      <trkpt lat="45.71302" lon="6.27585">
        <ele>1147.5999755859</ele>
        <time>2022-02-23T12:50:06.000Z</time>
      </trkpt>
      <trkpt lat="45.71304" lon="6.27589">
        <ele>1146.8000488281</ele>
        <time>2022-02-23T12:50:07.000Z</time>
      </trkpt>
      <trkpt lat="45.71307" lon="6.27594">
        <ele>1146.1999511719</ele>
        <time>2022-02-23T12:50:08.000Z</time>
      </trkpt>
      <trkpt lat="45.71312" lon="6.27603">
        <ele>1145.8000488281</ele>
        <time>2022-02-23T12:50:10.000Z</time>
      </trkpt>
      <trkpt lat="45.71318" lon="6.27615">
        <ele>1145.1999511719</ele>
        <time>2022-02-23T12:50:13.000Z</time>
      </trkpt>
      <trkpt lat="45.71319" lon="6.27618">
        <ele>1145</ele>
        <time>2022-02-23T12:50:14.000Z</time>
      </trkpt>
      <trkpt lat="45.71321" lon="6.27618">
        <ele>1145</ele>
        <time>2022-02-23T12:50:15.000Z</time>
      </trkpt>
      <trkpt lat="45.71321" lon="6.27618">
        <ele>1145</ele>
        <time>2022-02-23T12:50:16.000Z</time>
      </trkpt>
      <trkpt lat="45.71321" lon="6.27617">
        <ele>1145</ele>
        <time>2022-02-23T12:50:19.000Z</time>
      </trkpt>
      <trkpt lat="45.71321" lon="6.27617">
        <ele>1144.8000488281</ele>
        <time>2022-02-23T12:50:20.000Z</time>
      </trkpt>
      <trkpt lat="45.71321" lon="6.27617">
        <ele>1144.8000488281</ele>
        <time>2022-02-23T12:50:29.000Z</time>
      </trkpt>
      <trkpt lat="45.71321" lon="6.27617">
        <ele>1144.8000488281</ele>
        <time>2022-02-23T12:50:30.000Z</time>
      </trkpt>
      <trkpt lat="45.71322" lon="6.27616">
        <ele>1144.5999755859</ele>
        <time>2022-02-23T12:50:33.000Z</time>
      </trkpt>
      <trkpt lat="45.71323" lon="6.27613">
        <ele>1144.5999755859</ele>
        <time>2022-02-23T12:50:35.000Z</time>
      </trkpt>
      <trkpt lat="45.71324" lon="6.27606">
        <ele>1144.1999511719</ele>
        <time>2022-02-23T12:50:38.000Z</time>
      </trkpt>
      <trkpt lat="45.71324" lon="6.27605">
        <ele>1144</ele>
        <time>2022-02-23T12:50:39.000Z</time>
      </trkpt>
      <trkpt lat="45.71323" lon="6.27601">
        <ele>1143.8000488281</ele>
        <time>2022-02-23T12:50:41.000Z</time>
      </trkpt>
      <trkpt lat="45.71323" lon="6.27593">
        <ele>1143</ele>
        <time>2022-02-23T12:50:46.000Z</time>
      </trkpt>
      <trkpt lat="45.71324" lon="6.27591">
        <ele>1142.8000488281</ele>
        <time>2022-02-23T12:50:47.000Z</time>
      </trkpt>
      <trkpt lat="45.71324" lon="6.27588">
        <ele>1142.5999755859</ele>
        <time>2022-02-23T12:50:48.000Z</time>
      </trkpt>
      <trkpt lat="45.71324" lon="6.27587">
        <ele>1142</ele>
        <time>2022-02-23T12:50:50.000Z</time>
      </trkpt>
      <trkpt lat="45.71324" lon="6.27587">
        <ele>1141.8000488281</ele>
        <time>2022-02-23T12:50:51.000Z</time>
      </trkpt>
      <trkpt lat="45.71325" lon="6.27586">
        <ele>1141.5999755859</ele>
        <time>2022-02-23T12:51:04.000Z</time>
      </trkpt>
      <trkpt lat="45.71325" lon="6.27586">
        <ele>1141.4000244141</ele>
        <time>2022-02-23T12:51:09.000Z</time>
      </trkpt>
      <trkpt lat="45.71325" lon="6.27586">
        <ele>1141.1999511719</ele>
        <time>2022-02-23T12:51:14.000Z</time>
      </trkpt>
      <trkpt lat="45.71325" lon="6.27586">
        <ele>1141.4000244141</ele>
        <time>2022-02-23T12:51:18.000Z</time>
      </trkpt>
      <trkpt lat="45.71325" lon="6.27586">
        <ele>1141.4000244141</ele>
        <time>2022-02-23T12:51:19.000Z</time>
      </trkpt>
      <trkpt lat="45.71325" lon="6.27586">
        <ele>1141.8000488281</ele>
        <time>2022-02-23T12:51:26.000Z</time>
      </trkpt>
      <trkpt lat="45.71325" lon="6.27586">
        <ele>1142</ele>
        <time>2022-02-23T12:51:29.000Z</time>
      </trkpt>
      <trkpt lat="45.71325" lon="6.27587">
        <ele>1142</ele>
        <time>2022-02-23T12:51:34.000Z</time>
      </trkpt>
      <trkpt lat="45.71325" lon="6.27586">
        <ele>1141.5999755859</ele>
        <time>2022-02-23T12:51:42.000Z</time>
      </trkpt>
      <trkpt lat="45.71325" lon="6.27586">
        <ele>1141.5999755859</ele>
        <time>2022-02-23T12:51:43.000Z</time>
      </trkpt>
      <trkpt lat="45.71325" lon="6.27586">
        <ele>1141.4000244141</ele>
        <time>2022-02-23T12:51:45.000Z</time>
      </trkpt>
      <trkpt lat="45.71325" lon="6.27586">
        <ele>1141.4000244141</ele>
        <time>2022-02-23T12:51:47.000Z</time>
      </trkpt>
      <trkpt lat="45.71324" lon="6.27586">
        <ele>1141.5999755859</ele>
        <time>2022-02-23T12:51:49.000Z</time>
      </trkpt>
      <trkpt lat="45.71323" lon="6.27585">
        <ele>1141.5999755859</ele>
        <time>2022-02-23T12:51:57.000Z</time>
      </trkpt>
      <trkpt lat="45.71323" lon="6.27586">
        <ele>1141.5999755859</ele>
        <time>2022-02-23T12:52:06.000Z</time>
      </trkpt>
      <trkpt lat="45.71323" lon="6.27586">
        <ele>1141.8000488281</ele>
        <time>2022-02-23T12:52:10.000Z</time>
      </trkpt>
      <trkpt lat="45.71322" lon="6.27586">
        <ele>1141.8000488281</ele>
        <time>2022-02-23T12:52:12.000Z</time>
      </trkpt>
      <trkpt lat="45.71324" lon="6.27585">
        <ele>1142</ele>
        <time>2022-02-23T12:52:18.000Z</time>
      </trkpt>
      <trkpt lat="45.71324" lon="6.27586">
        <ele>1142.8000488281</ele>
        <time>2022-02-23T12:52:24.000Z</time>
      </trkpt>
      <trkpt lat="45.71323" lon="6.27585">
        <ele>1142.5999755859</ele>
        <time>2022-02-23T12:52:25.000Z</time>
      </trkpt>
      <trkpt lat="45.71323" lon="6.27585">
        <ele>1141.5999755859</ele>
        <time>2022-02-23T12:52:33.000Z</time>
      </trkpt>
      <trkpt lat="45.71323" lon="6.27585">
        <ele>1141.8000488281</ele>
        <time>2022-02-23T12:52:35.000Z</time>
      </trkpt>
    </trkseg>
  </trk>
</gpx>